<?xml version="1.0" encoding="UTF-8" standalone="no" ?>
<gpx xmlns="http://www.topografix.com/GPX/1/1" xmlns:xsi="http://www.w3.org/2001/XMLSchema-instance" xsi:schemaLocation="http://www.topografix.com/GPX/1/1 http://www.topografix.com/GPX/1/1/gpx.xsd" version="1.1" creator="VisuGPX - https://www.visugpx.com">
  <metadata>
    <name>Vosges - Pyrénées 02. De l'abri du col de Hichtenbach à l'abri des amis de la Wasenbourg </name>
    <desc><![CDATA[Trace AlpineQuest 10/03/2026 07:49:31]]></desc>
  </metadata>
  <trk>
    <name><![CDATA[visugpx_FkysKpQwYp_1]]></name>
    <extensions>
      <line xmlns="http://www.topografix.com/GPX/gpx_style/0/2">
        <color>0000FF</color>
        <width>4</width>
      </line>
    </extensions>
    <trkseg>
      <trkpt lat="49.04248" lon="7.73046">
        <ele>358.9</ele>
        <time>2026-03-10T06:49:31Z</time>
      </trkpt>
      <trkpt lat="49.04246" lon="7.7305">
        <ele>358.4</ele>
        <time>2026-03-10T06:49:37Z</time>
      </trkpt>
      <trkpt lat="49.04246" lon="7.7305">
        <ele>358.4</ele>
        <time>2026-03-10T06:49:42Z</time>
      </trkpt>
      <trkpt lat="49.04248" lon="7.73049">
        <ele>358.9</ele>
        <time>2026-03-10T06:49:47Z</time>
      </trkpt>
      <trkpt lat="49.0425" lon="7.73047">
        <ele>359.4</ele>
        <time>2026-03-10T06:49:52Z</time>
      </trkpt>
      <trkpt lat="49.0425" lon="7.73044">
        <ele>359.5</ele>
        <time>2026-03-10T06:49:57Z</time>
      </trkpt>
      <trkpt lat="49.0425" lon="7.73042">
        <ele>359.5</ele>
        <time>2026-03-10T06:50:02Z</time>
      </trkpt>
      <trkpt lat="49.0425" lon="7.73041">
        <ele>359.5</ele>
        <time>2026-03-10T06:50:07Z</time>
      </trkpt>
      <trkpt lat="49.04246" lon="7.73034">
        <ele>358.5</ele>
        <time>2026-03-10T06:50:12Z</time>
      </trkpt>
      <trkpt lat="49.04243" lon="7.73028">
        <ele>357.6</ele>
        <time>2026-03-10T06:50:17Z</time>
      </trkpt>
      <trkpt lat="49.0424" lon="7.73024">
        <ele>356.7</ele>
        <time>2026-03-10T06:50:22Z</time>
      </trkpt>
      <trkpt lat="49.04234" lon="7.73018">
        <ele>354.8</ele>
        <time>2026-03-10T06:50:27Z</time>
      </trkpt>
      <trkpt lat="49.04228" lon="7.73009">
        <ele>352.6</ele>
        <time>2026-03-10T06:50:32Z</time>
      </trkpt>
      <trkpt lat="49.04224" lon="7.73001">
        <ele>351</ele>
        <time>2026-03-10T06:50:37Z</time>
      </trkpt>
      <trkpt lat="49.0422" lon="7.72998">
        <ele>350</ele>
        <time>2026-03-10T06:50:42Z</time>
      </trkpt>
      <trkpt lat="49.04215" lon="7.72998">
        <ele>348.2</ele>
        <time>2026-03-10T06:50:47Z</time>
      </trkpt>
      <trkpt lat="49.04212" lon="7.72992">
        <ele>348.3</ele>
        <time>2026-03-10T06:50:52Z</time>
      </trkpt>
      <trkpt lat="49.04208" lon="7.72991">
        <ele>347</ele>
        <time>2026-03-10T06:50:57Z</time>
      </trkpt>
      <trkpt lat="49.04205" lon="7.72982">
        <ele>347.5</ele>
        <time>2026-03-10T06:51:02Z</time>
      </trkpt>
      <trkpt lat="49.04197" lon="7.72978">
        <ele>345.1</ele>
        <time>2026-03-10T06:51:07Z</time>
      </trkpt>
      <trkpt lat="49.04193" lon="7.72977">
        <ele>343.7</ele>
        <time>2026-03-10T06:51:12Z</time>
      </trkpt>
      <trkpt lat="49.04186" lon="7.72975">
        <ele>341.3</ele>
        <time>2026-03-10T06:51:17Z</time>
      </trkpt>
      <trkpt lat="49.04179" lon="7.72967">
        <ele>339.6</ele>
        <time>2026-03-10T06:51:22Z</time>
      </trkpt>
      <trkpt lat="49.0418" lon="7.7295">
        <ele>342.2</ele>
        <time>2026-03-10T06:51:27Z</time>
      </trkpt>
      <trkpt lat="49.0418" lon="7.7295">
        <ele>342.2</ele>
        <time>2026-03-10T06:51:32Z</time>
      </trkpt>
      <trkpt lat="49.0418" lon="7.7295">
        <ele>342.2</ele>
        <time>2026-03-10T06:51:37Z</time>
      </trkpt>
      <trkpt lat="49.0418" lon="7.7295">
        <ele>342.2</ele>
        <time>2026-03-10T06:51:42Z</time>
      </trkpt>
      <trkpt lat="49.0418" lon="7.7295">
        <ele>342.2</ele>
        <time>2026-03-10T06:51:47Z</time>
      </trkpt>
      <trkpt lat="49.04179" lon="7.72944">
        <ele>342.5</ele>
        <time>2026-03-10T06:51:52Z</time>
      </trkpt>
      <trkpt lat="49.04177" lon="7.72934">
        <ele>342.9</ele>
        <time>2026-03-10T06:51:57Z</time>
      </trkpt>
      <trkpt lat="49.04174" lon="7.72926">
        <ele>342.5</ele>
        <time>2026-03-10T06:52:02Z</time>
      </trkpt>
      <trkpt lat="49.0417" lon="7.72917">
        <ele>341.6</ele>
        <time>2026-03-10T06:52:07Z</time>
      </trkpt>
      <trkpt lat="49.04166" lon="7.72915">
        <ele>339.8</ele>
        <time>2026-03-10T06:52:12Z</time>
      </trkpt>
      <trkpt lat="49.04164" lon="7.72909">
        <ele>339.5</ele>
        <time>2026-03-10T06:52:17Z</time>
      </trkpt>
      <trkpt lat="49.0416" lon="7.72905">
        <ele>337.7</ele>
        <time>2026-03-10T06:52:22Z</time>
      </trkpt>
      <trkpt lat="49.04155" lon="7.72897">
        <ele>335.9</ele>
        <time>2026-03-10T06:52:27Z</time>
      </trkpt>
      <trkpt lat="49.04152" lon="7.72888">
        <ele>335.2</ele>
        <time>2026-03-10T06:52:32Z</time>
      </trkpt>
      <trkpt lat="49.04148" lon="7.72881">
        <ele>333.7</ele>
        <time>2026-03-10T06:52:37Z</time>
      </trkpt>
      <trkpt lat="49.04149" lon="7.72877">
        <ele>334.7</ele>
        <time>2026-03-10T06:52:42Z</time>
      </trkpt>
      <trkpt lat="49.04141" lon="7.72878">
        <ele>330.1</ele>
        <time>2026-03-10T06:52:47Z</time>
      </trkpt>
      <trkpt lat="49.04137" lon="7.72873">
        <ele>328.3</ele>
        <time>2026-03-10T06:52:52Z</time>
      </trkpt>
      <trkpt lat="49.04133" lon="7.72867">
        <ele>326.6</ele>
        <time>2026-03-10T06:52:57Z</time>
      </trkpt>
      <trkpt lat="49.04131" lon="7.72861">
        <ele>326</ele>
        <time>2026-03-10T06:53:02Z</time>
      </trkpt>
      <trkpt lat="49.04129" lon="7.72855">
        <ele>325.4</ele>
        <time>2026-03-10T06:53:07Z</time>
      </trkpt>
      <trkpt lat="49.04129" lon="7.72848">
        <ele>326</ele>
        <time>2026-03-10T06:53:12Z</time>
      </trkpt>
      <trkpt lat="49.04128" lon="7.72843">
        <ele>325.9</ele>
        <time>2026-03-10T06:53:17Z</time>
      </trkpt>
      <trkpt lat="49.04127" lon="7.72836">
        <ele>326</ele>
        <time>2026-03-10T06:53:22Z</time>
      </trkpt>
      <trkpt lat="49.04124" lon="7.72829">
        <ele>324.9</ele>
        <time>2026-03-10T06:53:27Z</time>
      </trkpt>
      <trkpt lat="49.04122" lon="7.72822">
        <ele>324.4</ele>
        <time>2026-03-10T06:53:32Z</time>
      </trkpt>
      <trkpt lat="49.0412" lon="7.72813">
        <ele>324.1</ele>
        <time>2026-03-10T06:53:37Z</time>
      </trkpt>
      <trkpt lat="49.04118" lon="7.72805">
        <ele>323.7</ele>
        <time>2026-03-10T06:53:42Z</time>
      </trkpt>
      <trkpt lat="49.04116" lon="7.72795">
        <ele>323.5</ele>
        <time>2026-03-10T06:53:47Z</time>
      </trkpt>
      <trkpt lat="49.04115" lon="7.72785">
        <ele>323.9</ele>
        <time>2026-03-10T06:53:52Z</time>
      </trkpt>
      <trkpt lat="49.04113" lon="7.72775">
        <ele>323.7</ele>
        <time>2026-03-10T06:53:57Z</time>
      </trkpt>
      <trkpt lat="49.04113" lon="7.72768">
        <ele>324.4</ele>
        <time>2026-03-10T06:54:02Z</time>
      </trkpt>
      <trkpt lat="49.04112" lon="7.72762">
        <ele>324.4</ele>
        <time>2026-03-10T06:54:07Z</time>
      </trkpt>
      <trkpt lat="49.04112" lon="7.72753">
        <ele>325.3</ele>
        <time>2026-03-10T06:54:12Z</time>
      </trkpt>
      <trkpt lat="49.04112" lon="7.72742">
        <ele>326.3</ele>
        <time>2026-03-10T06:54:17Z</time>
      </trkpt>
      <trkpt lat="49.04111" lon="7.72737">
        <ele>326.2</ele>
        <time>2026-03-10T06:54:22Z</time>
      </trkpt>
      <trkpt lat="49.0411" lon="7.7273">
        <ele>326.2</ele>
        <time>2026-03-10T06:54:27Z</time>
      </trkpt>
      <trkpt lat="49.04112" lon="7.72724">
        <ele>328.1</ele>
        <time>2026-03-10T06:54:32Z</time>
      </trkpt>
      <trkpt lat="49.04113" lon="7.72718">
        <ele>329.3</ele>
        <time>2026-03-10T06:54:37Z</time>
      </trkpt>
      <trkpt lat="49.04114" lon="7.72708">
        <ele>330.9</ele>
        <time>2026-03-10T06:54:42Z</time>
      </trkpt>
      <trkpt lat="49.04114" lon="7.72699">
        <ele>331.7</ele>
        <time>2026-03-10T06:54:47Z</time>
      </trkpt>
      <trkpt lat="49.04115" lon="7.72692">
        <ele>333</ele>
        <time>2026-03-10T06:54:52Z</time>
      </trkpt>
      <trkpt lat="49.04116" lon="7.72687">
        <ele>334.1</ele>
        <time>2026-03-10T06:54:57Z</time>
      </trkpt>
      <trkpt lat="49.04117" lon="7.7268">
        <ele>335.4</ele>
        <time>2026-03-10T06:55:02Z</time>
      </trkpt>
      <trkpt lat="49.04117" lon="7.72674">
        <ele>335.9</ele>
        <time>2026-03-10T06:55:07Z</time>
      </trkpt>
      <trkpt lat="49.04117" lon="7.72666">
        <ele>336.7</ele>
        <time>2026-03-10T06:55:12Z</time>
      </trkpt>
      <trkpt lat="49.04116" lon="7.72654">
        <ele>337.3</ele>
        <time>2026-03-10T06:55:17Z</time>
      </trkpt>
      <trkpt lat="49.04116" lon="7.72642">
        <ele>338.5</ele>
        <time>2026-03-10T06:55:22Z</time>
      </trkpt>
      <trkpt lat="49.04111" lon="7.72635">
        <ele>336.2</ele>
        <time>2026-03-10T06:55:27Z</time>
      </trkpt>
      <trkpt lat="49.04111" lon="7.72635">
        <ele>336.2</ele>
        <time>2026-03-10T06:55:32Z</time>
      </trkpt>
      <trkpt lat="49.04113" lon="7.72631">
        <ele>337.9</ele>
        <time>2026-03-10T06:55:37Z</time>
      </trkpt>
      <trkpt lat="49.04112" lon="7.72624">
        <ele>338</ele>
        <time>2026-03-10T06:55:42Z</time>
      </trkpt>
      <trkpt lat="49.04113" lon="7.72619">
        <ele>339.1</ele>
        <time>2026-03-10T06:55:47Z</time>
      </trkpt>
      <trkpt lat="49.04112" lon="7.72611">
        <ele>339.3</ele>
        <time>2026-03-10T06:55:52Z</time>
      </trkpt>
      <trkpt lat="49.04113" lon="7.72604">
        <ele>340.7</ele>
        <time>2026-03-10T06:55:57Z</time>
      </trkpt>
      <trkpt lat="49.04114" lon="7.72593">
        <ele>342.4</ele>
        <time>2026-03-10T06:56:02Z</time>
      </trkpt>
      <trkpt lat="49.04113" lon="7.72584">
        <ele>342.7</ele>
        <time>2026-03-10T06:56:07Z</time>
      </trkpt>
      <trkpt lat="49.04113" lon="7.72584">
        <ele>342.7</ele>
        <time>2026-03-10T06:56:12Z</time>
      </trkpt>
      <trkpt lat="49.04113" lon="7.72584">
        <ele>342.7</ele>
        <time>2026-03-10T06:56:17Z</time>
      </trkpt>
      <trkpt lat="49.04113" lon="7.72584">
        <ele>342.7</ele>
        <time>2026-03-10T06:56:22Z</time>
      </trkpt>
      <trkpt lat="49.04113" lon="7.72584">
        <ele>342.7</ele>
        <time>2026-03-10T06:56:27Z</time>
      </trkpt>
      <trkpt lat="49.04113" lon="7.72584">
        <ele>342.7</ele>
        <time>2026-03-10T06:56:32Z</time>
      </trkpt>
      <trkpt lat="49.04113" lon="7.72584">
        <ele>342.7</ele>
        <time>2026-03-10T06:56:37Z</time>
      </trkpt>
      <trkpt lat="49.04108" lon="7.72574">
        <ele>341</ele>
        <time>2026-03-10T06:56:42Z</time>
      </trkpt>
      <trkpt lat="49.04111" lon="7.72563">
        <ele>344.3</ele>
        <time>2026-03-10T06:56:47Z</time>
      </trkpt>
      <trkpt lat="49.0411" lon="7.72556">
        <ele>344.6</ele>
        <time>2026-03-10T06:56:52Z</time>
      </trkpt>
      <trkpt lat="49.04109" lon="7.72548">
        <ele>345.1</ele>
        <time>2026-03-10T06:56:57Z</time>
      </trkpt>
      <trkpt lat="49.04105" lon="7.72544">
        <ele>343.2</ele>
        <time>2026-03-10T06:57:02Z</time>
      </trkpt>
      <trkpt lat="49.04106" lon="7.72539">
        <ele>344.5</ele>
        <time>2026-03-10T06:57:07Z</time>
      </trkpt>
      <trkpt lat="49.04106" lon="7.72539">
        <ele>344.5</ele>
        <time>2026-03-10T06:57:12Z</time>
      </trkpt>
      <trkpt lat="49.04106" lon="7.72539">
        <ele>344.5</ele>
        <time>2026-03-10T06:57:17Z</time>
      </trkpt>
      <trkpt lat="49.04106" lon="7.72539">
        <ele>344.5</ele>
        <time>2026-03-10T06:57:22Z</time>
      </trkpt>
      <trkpt lat="49.04107" lon="7.72532">
        <ele>346</ele>
        <time>2026-03-10T06:57:27Z</time>
      </trkpt>
      <trkpt lat="49.04105" lon="7.72524">
        <ele>345.8</ele>
        <time>2026-03-10T06:57:32Z</time>
      </trkpt>
      <trkpt lat="49.04102" lon="7.72518">
        <ele>344.8</ele>
        <time>2026-03-10T06:57:37Z</time>
      </trkpt>
      <trkpt lat="49.04099" lon="7.7251">
        <ele>344.1</ele>
        <time>2026-03-10T06:57:42Z</time>
      </trkpt>
      <trkpt lat="49.04096" lon="7.72502">
        <ele>343.3</ele>
        <time>2026-03-10T06:57:47Z</time>
      </trkpt>
      <trkpt lat="49.04095" lon="7.72494">
        <ele>344.3</ele>
        <time>2026-03-10T06:57:52Z</time>
      </trkpt>
      <trkpt lat="49.04094" lon="7.72489">
        <ele>344.8</ele>
        <time>2026-03-10T06:57:57Z</time>
      </trkpt>
      <trkpt lat="49.04091" lon="7.72484">
        <ele>344.2</ele>
        <time>2026-03-10T06:58:02Z</time>
      </trkpt>
      <trkpt lat="49.04088" lon="7.72477">
        <ele>344</ele>
        <time>2026-03-10T06:58:07Z</time>
      </trkpt>
      <trkpt lat="49.04088" lon="7.7247">
        <ele>345.5</ele>
        <time>2026-03-10T06:58:12Z</time>
      </trkpt>
      <trkpt lat="49.04089" lon="7.72462">
        <ele>347.9</ele>
        <time>2026-03-10T06:58:17Z</time>
      </trkpt>
      <trkpt lat="49.04088" lon="7.72456">
        <ele>348.7</ele>
        <time>2026-03-10T06:58:22Z</time>
      </trkpt>
      <trkpt lat="49.0409" lon="7.72451">
        <ele>350.9</ele>
        <time>2026-03-10T06:58:27Z</time>
      </trkpt>
      <trkpt lat="49.04091" lon="7.7245">
        <ele>351.7</ele>
        <time>2026-03-10T06:58:32Z</time>
      </trkpt>
      <trkpt lat="49.04091" lon="7.7245">
        <ele>351.7</ele>
        <time>2026-03-10T06:58:37Z</time>
      </trkpt>
      <trkpt lat="49.04092" lon="7.72443">
        <ele>353.8</ele>
        <time>2026-03-10T06:58:42Z</time>
      </trkpt>
      <trkpt lat="49.04092" lon="7.72434">
        <ele>355.8</ele>
        <time>2026-03-10T06:58:47Z</time>
      </trkpt>
      <trkpt lat="49.0409" lon="7.72427">
        <ele>356.3</ele>
        <time>2026-03-10T06:58:52Z</time>
      </trkpt>
      <trkpt lat="49.0409" lon="7.7242">
        <ele>357.9</ele>
        <time>2026-03-10T06:58:57Z</time>
      </trkpt>
      <trkpt lat="49.04089" lon="7.72408">
        <ele>361</ele>
        <time>2026-03-10T06:59:02Z</time>
      </trkpt>
      <trkpt lat="49.04086" lon="7.72396">
        <ele>363.5</ele>
        <time>2026-03-10T06:59:07Z</time>
      </trkpt>
      <trkpt lat="49.04086" lon="7.72388">
        <ele>366.2</ele>
        <time>2026-03-10T06:59:12Z</time>
      </trkpt>
      <trkpt lat="49.04084" lon="7.7238">
        <ele>368.1</ele>
        <time>2026-03-10T06:59:17Z</time>
      </trkpt>
      <trkpt lat="49.04082" lon="7.72375">
        <ele>369</ele>
        <time>2026-03-10T06:59:22Z</time>
      </trkpt>
      <trkpt lat="49.0408" lon="7.7237">
        <ele>370</ele>
        <time>2026-03-10T06:59:27Z</time>
      </trkpt>
      <trkpt lat="49.04078" lon="7.72361">
        <ele>372.5</ele>
        <time>2026-03-10T06:59:32Z</time>
      </trkpt>
      <trkpt lat="49.04076" lon="7.72352">
        <ele>374.9</ele>
        <time>2026-03-10T06:59:37Z</time>
      </trkpt>
      <trkpt lat="49.04073" lon="7.72345">
        <ele>376.3</ele>
        <time>2026-03-10T06:59:42Z</time>
      </trkpt>
      <trkpt lat="49.04069" lon="7.72338">
        <ele>377.4</ele>
        <time>2026-03-10T06:59:47Z</time>
      </trkpt>
      <trkpt lat="49.04064" lon="7.72329">
        <ele>378.3</ele>
        <time>2026-03-10T06:59:52Z</time>
      </trkpt>
      <trkpt lat="49.04062" lon="7.72319">
        <ele>380</ele>
        <time>2026-03-10T06:59:57Z</time>
      </trkpt>
      <trkpt lat="49.0406" lon="7.72312">
        <ele>381.1</ele>
        <time>2026-03-10T07:00:02Z</time>
      </trkpt>
      <trkpt lat="49.0406" lon="7.72301">
        <ele>383.8</ele>
        <time>2026-03-10T07:00:07Z</time>
      </trkpt>
      <trkpt lat="49.04058" lon="7.7229">
        <ele>386</ele>
        <time>2026-03-10T07:00:12Z</time>
      </trkpt>
      <trkpt lat="49.04058" lon="7.72281">
        <ele>388.2</ele>
        <time>2026-03-10T07:00:17Z</time>
      </trkpt>
      <trkpt lat="49.04056" lon="7.72271">
        <ele>390.4</ele>
        <time>2026-03-10T07:00:22Z</time>
      </trkpt>
      <trkpt lat="49.04055" lon="7.72261">
        <ele>392.8</ele>
        <time>2026-03-10T07:00:27Z</time>
      </trkpt>
      <trkpt lat="49.04053" lon="7.72255">
        <ele>394</ele>
        <time>2026-03-10T07:00:32Z</time>
      </trkpt>
      <trkpt lat="49.04055" lon="7.72245">
        <ele>395.1</ele>
        <time>2026-03-10T07:00:37Z</time>
      </trkpt>
      <trkpt lat="49.04059" lon="7.7224">
        <ele>395.1</ele>
        <time>2026-03-10T07:00:42Z</time>
      </trkpt>
      <trkpt lat="49.04065" lon="7.72236">
        <ele>395.3</ele>
        <time>2026-03-10T07:00:47Z</time>
      </trkpt>
      <trkpt lat="49.0407" lon="7.72233">
        <ele>395.5</ele>
        <time>2026-03-10T07:00:52Z</time>
      </trkpt>
      <trkpt lat="49.04076" lon="7.72231">
        <ele>395.8</ele>
        <time>2026-03-10T07:00:57Z</time>
      </trkpt>
      <trkpt lat="49.04081" lon="7.72227">
        <ele>395.8</ele>
        <time>2026-03-10T07:01:02Z</time>
      </trkpt>
      <trkpt lat="49.0409" lon="7.72226">
        <ele>396.5</ele>
        <time>2026-03-10T07:01:07Z</time>
      </trkpt>
      <trkpt lat="49.04097" lon="7.72226">
        <ele>397.2</ele>
        <time>2026-03-10T07:01:12Z</time>
      </trkpt>
      <trkpt lat="49.04102" lon="7.72227">
        <ele>397.9</ele>
        <time>2026-03-10T07:01:17Z</time>
      </trkpt>
      <trkpt lat="49.04109" lon="7.72228">
        <ele>398.7</ele>
        <time>2026-03-10T07:01:22Z</time>
      </trkpt>
      <trkpt lat="49.04112" lon="7.72229">
        <ele>399.2</ele>
        <time>2026-03-10T07:01:27Z</time>
      </trkpt>
      <trkpt lat="49.04115" lon="7.72231">
        <ele>399.7</ele>
        <time>2026-03-10T07:01:32Z</time>
      </trkpt>
      <trkpt lat="49.04116" lon="7.72231">
        <ele>399.8</ele>
        <time>2026-03-10T07:01:37Z</time>
      </trkpt>
      <trkpt lat="49.04116" lon="7.72231">
        <ele>399.8</ele>
        <time>2026-03-10T07:01:42Z</time>
      </trkpt>
      <trkpt lat="49.04128" lon="7.72229">
        <ele>400.8</ele>
        <time>2026-03-10T07:01:47Z</time>
      </trkpt>
      <trkpt lat="49.04129" lon="7.72229">
        <ele>400.9</ele>
        <time>2026-03-10T07:01:52Z</time>
      </trkpt>
      <trkpt lat="49.04137" lon="7.72227">
        <ele>401.4</ele>
        <time>2026-03-10T07:01:57Z</time>
      </trkpt>
      <trkpt lat="49.0414" lon="7.72227">
        <ele>401.7</ele>
        <time>2026-03-10T07:02:02Z</time>
      </trkpt>
      <trkpt lat="49.04142" lon="7.72227">
        <ele>401.9</ele>
        <time>2026-03-10T07:02:07Z</time>
      </trkpt>
      <trkpt lat="49.04143" lon="7.72228">
        <ele>402.2</ele>
        <time>2026-03-10T07:02:12Z</time>
      </trkpt>
      <trkpt lat="49.04143" lon="7.72228">
        <ele>402.2</ele>
        <time>2026-03-10T07:02:17Z</time>
      </trkpt>
      <trkpt lat="49.04156" lon="7.72228">
        <ele>403.5</ele>
        <time>2026-03-10T07:02:22Z</time>
      </trkpt>
      <trkpt lat="49.04156" lon="7.72227">
        <ele>403.3</ele>
        <time>2026-03-10T07:02:27Z</time>
      </trkpt>
      <trkpt lat="49.04166" lon="7.72229">
        <ele>404.7</ele>
        <time>2026-03-10T07:02:32Z</time>
      </trkpt>
      <trkpt lat="49.04172" lon="7.72229">
        <ele>405</ele>
        <time>2026-03-10T07:02:37Z</time>
      </trkpt>
      <trkpt lat="49.04177" lon="7.7223">
        <ele>405.4</ele>
        <time>2026-03-10T07:02:42Z</time>
      </trkpt>
      <trkpt lat="49.04181" lon="7.72229">
        <ele>405.5</ele>
        <time>2026-03-10T07:02:47Z</time>
      </trkpt>
      <trkpt lat="49.04187" lon="7.72226">
        <ele>405.3</ele>
        <time>2026-03-10T07:02:52Z</time>
      </trkpt>
      <trkpt lat="49.04193" lon="7.72223">
        <ele>405.2</ele>
        <time>2026-03-10T07:02:57Z</time>
      </trkpt>
      <trkpt lat="49.04198" lon="7.72219">
        <ele>404.8</ele>
        <time>2026-03-10T07:03:02Z</time>
      </trkpt>
      <trkpt lat="49.04204" lon="7.72216">
        <ele>404.6</ele>
        <time>2026-03-10T07:03:07Z</time>
      </trkpt>
      <trkpt lat="49.04208" lon="7.72214">
        <ele>404.4</ele>
        <time>2026-03-10T07:03:12Z</time>
      </trkpt>
      <trkpt lat="49.04212" lon="7.72213">
        <ele>404.5</ele>
        <time>2026-03-10T07:03:17Z</time>
      </trkpt>
      <trkpt lat="49.04219" lon="7.72212">
        <ele>404.6</ele>
        <time>2026-03-10T07:03:22Z</time>
      </trkpt>
      <trkpt lat="49.04224" lon="7.72213">
        <ele>405.1</ele>
        <time>2026-03-10T07:03:27Z</time>
      </trkpt>
      <trkpt lat="49.04229" lon="7.72215">
        <ele>405.7</ele>
        <time>2026-03-10T07:03:32Z</time>
      </trkpt>
      <trkpt lat="49.0423" lon="7.72215">
        <ele>405.7</ele>
        <time>2026-03-10T07:03:37Z</time>
      </trkpt>
      <trkpt lat="49.04238" lon="7.72211">
        <ele>405.4</ele>
        <time>2026-03-10T07:03:42Z</time>
      </trkpt>
      <trkpt lat="49.04244" lon="7.72212">
        <ele>405.9</ele>
        <time>2026-03-10T07:03:47Z</time>
      </trkpt>
      <trkpt lat="49.04249" lon="7.72212">
        <ele>406.1</ele>
        <time>2026-03-10T07:03:52Z</time>
      </trkpt>
      <trkpt lat="49.04254" lon="7.72208">
        <ele>406.1</ele>
        <time>2026-03-10T07:03:57Z</time>
      </trkpt>
      <trkpt lat="49.04258" lon="7.72202">
        <ele>405.8</ele>
        <time>2026-03-10T07:04:02Z</time>
      </trkpt>
      <trkpt lat="49.04261" lon="7.72199">
        <ele>405.8</ele>
        <time>2026-03-10T07:04:07Z</time>
      </trkpt>
      <trkpt lat="49.04264" lon="7.72195">
        <ele>405.6</ele>
        <time>2026-03-10T07:04:12Z</time>
      </trkpt>
      <trkpt lat="49.04267" lon="7.72192">
        <ele>405.6</ele>
        <time>2026-03-10T07:04:17Z</time>
      </trkpt>
      <trkpt lat="49.0427" lon="7.72188">
        <ele>405.5</ele>
        <time>2026-03-10T07:04:22Z</time>
      </trkpt>
      <trkpt lat="49.04276" lon="7.72185">
        <ele>406.1</ele>
        <time>2026-03-10T07:04:27Z</time>
      </trkpt>
      <trkpt lat="49.0428" lon="7.72182">
        <ele>406.3</ele>
        <time>2026-03-10T07:04:32Z</time>
      </trkpt>
      <trkpt lat="49.04284" lon="7.7218">
        <ele>406.7</ele>
        <time>2026-03-10T07:04:37Z</time>
      </trkpt>
      <trkpt lat="49.04288" lon="7.72181">
        <ele>407.6</ele>
        <time>2026-03-10T07:04:42Z</time>
      </trkpt>
      <trkpt lat="49.04292" lon="7.72187">
        <ele>409.4</ele>
        <time>2026-03-10T07:04:47Z</time>
      </trkpt>
      <trkpt lat="49.04296" lon="7.72196">
        <ele>411.5</ele>
        <time>2026-03-10T07:04:52Z</time>
      </trkpt>
      <trkpt lat="49.04299" lon="7.72202">
        <ele>413</ele>
        <time>2026-03-10T07:04:57Z</time>
      </trkpt>
      <trkpt lat="49.04302" lon="7.72206">
        <ele>414.2</ele>
        <time>2026-03-10T07:05:02Z</time>
      </trkpt>
      <trkpt lat="49.04302" lon="7.7221">
        <ele>414.8</ele>
        <time>2026-03-10T07:05:07Z</time>
      </trkpt>
      <trkpt lat="49.04302" lon="7.72207">
        <ele>414.3</ele>
        <time>2026-03-10T07:05:12Z</time>
      </trkpt>
      <trkpt lat="49.04307" lon="7.72192">
        <ele>412.9</ele>
        <time>2026-03-10T07:05:17Z</time>
      </trkpt>
      <trkpt lat="49.0431" lon="7.72181">
        <ele>411.7</ele>
        <time>2026-03-10T07:05:22Z</time>
      </trkpt>
      <trkpt lat="49.04311" lon="7.72174">
        <ele>410.8</ele>
        <time>2026-03-10T07:05:27Z</time>
      </trkpt>
      <trkpt lat="49.04314" lon="7.72167">
        <ele>410.3</ele>
        <time>2026-03-10T07:05:32Z</time>
      </trkpt>
      <trkpt lat="49.04317" lon="7.72162">
        <ele>410.2</ele>
        <time>2026-03-10T07:05:37Z</time>
      </trkpt>
      <trkpt lat="49.04316" lon="7.72159">
        <ele>409.5</ele>
        <time>2026-03-10T07:05:42Z</time>
      </trkpt>
      <trkpt lat="49.04316" lon="7.72159">
        <ele>409.5</ele>
        <time>2026-03-10T07:05:47Z</time>
      </trkpt>
      <trkpt lat="49.04316" lon="7.72159">
        <ele>409.5</ele>
        <time>2026-03-10T07:05:52Z</time>
      </trkpt>
      <trkpt lat="49.04316" lon="7.72159">
        <ele>409.5</ele>
        <time>2026-03-10T07:05:57Z</time>
      </trkpt>
      <trkpt lat="49.04316" lon="7.72159">
        <ele>409.5</ele>
        <time>2026-03-10T07:06:02Z</time>
      </trkpt>
      <trkpt lat="49.04316" lon="7.72159">
        <ele>409.5</ele>
        <time>2026-03-10T07:06:07Z</time>
      </trkpt>
      <trkpt lat="49.04316" lon="7.72159">
        <ele>409.5</ele>
        <time>2026-03-10T07:06:12Z</time>
      </trkpt>
      <trkpt lat="49.04316" lon="7.72159">
        <ele>409.5</ele>
        <time>2026-03-10T07:06:17Z</time>
      </trkpt>
      <trkpt lat="49.04316" lon="7.72159">
        <ele>409.5</ele>
        <time>2026-03-10T07:06:22Z</time>
      </trkpt>
      <trkpt lat="49.04316" lon="7.72159">
        <ele>409.5</ele>
        <time>2026-03-10T07:06:27Z</time>
      </trkpt>
      <trkpt lat="49.04316" lon="7.72159">
        <ele>409.5</ele>
        <time>2026-03-10T07:06:32Z</time>
      </trkpt>
      <trkpt lat="49.04316" lon="7.72159">
        <ele>409.5</ele>
        <time>2026-03-10T07:06:37Z</time>
      </trkpt>
      <trkpt lat="49.04316" lon="7.72159">
        <ele>409.5</ele>
        <time>2026-03-10T07:06:42Z</time>
      </trkpt>
      <trkpt lat="49.04316" lon="7.72159">
        <ele>409.5</ele>
        <time>2026-03-10T07:06:47Z</time>
      </trkpt>
      <trkpt lat="49.04316" lon="7.72159">
        <ele>409.5</ele>
        <time>2026-03-10T07:06:52Z</time>
      </trkpt>
      <trkpt lat="49.04316" lon="7.72159">
        <ele>409.5</ele>
        <time>2026-03-10T07:06:57Z</time>
      </trkpt>
      <trkpt lat="49.04316" lon="7.72159">
        <ele>409.5</ele>
        <time>2026-03-10T07:07:02Z</time>
      </trkpt>
      <trkpt lat="49.04316" lon="7.72159">
        <ele>409.5</ele>
        <time>2026-03-10T07:07:07Z</time>
      </trkpt>
      <trkpt lat="49.04316" lon="7.72159">
        <ele>409.5</ele>
        <time>2026-03-10T07:07:12Z</time>
      </trkpt>
      <trkpt lat="49.04316" lon="7.72159">
        <ele>409.5</ele>
        <time>2026-03-10T07:07:17Z</time>
      </trkpt>
      <trkpt lat="49.04316" lon="7.72159">
        <ele>409.5</ele>
        <time>2026-03-10T07:07:22Z</time>
      </trkpt>
      <trkpt lat="49.04316" lon="7.72159">
        <ele>409.5</ele>
        <time>2026-03-10T07:07:27Z</time>
      </trkpt>
      <trkpt lat="49.04316" lon="7.72159">
        <ele>409.5</ele>
        <time>2026-03-10T07:07:32Z</time>
      </trkpt>
      <trkpt lat="49.04316" lon="7.72159">
        <ele>409.5</ele>
        <time>2026-03-10T07:07:37Z</time>
      </trkpt>
      <trkpt lat="49.04316" lon="7.72159">
        <ele>409.5</ele>
        <time>2026-03-10T07:07:42Z</time>
      </trkpt>
      <trkpt lat="49.04316" lon="7.72159">
        <ele>409.5</ele>
        <time>2026-03-10T07:07:47Z</time>
      </trkpt>
      <trkpt lat="49.04316" lon="7.72159">
        <ele>409.5</ele>
        <time>2026-03-10T07:07:52Z</time>
      </trkpt>
      <trkpt lat="49.04316" lon="7.72159">
        <ele>409.5</ele>
        <time>2026-03-10T07:07:57Z</time>
      </trkpt>
      <trkpt lat="49.04316" lon="7.72159">
        <ele>409.5</ele>
        <time>2026-03-10T07:08:02Z</time>
      </trkpt>
      <trkpt lat="49.04316" lon="7.72159">
        <ele>409.5</ele>
        <time>2026-03-10T07:08:07Z</time>
      </trkpt>
      <trkpt lat="49.04316" lon="7.72159">
        <ele>409.5</ele>
        <time>2026-03-10T07:08:12Z</time>
      </trkpt>
      <trkpt lat="49.04316" lon="7.72159">
        <ele>409.5</ele>
        <time>2026-03-10T07:08:17Z</time>
      </trkpt>
      <trkpt lat="49.04316" lon="7.72159">
        <ele>409.5</ele>
        <time>2026-03-10T07:08:22Z</time>
      </trkpt>
      <trkpt lat="49.04316" lon="7.72159">
        <ele>409.5</ele>
        <time>2026-03-10T07:08:27Z</time>
      </trkpt>
      <trkpt lat="49.04316" lon="7.72159">
        <ele>409.5</ele>
        <time>2026-03-10T07:08:32Z</time>
      </trkpt>
      <trkpt lat="49.04316" lon="7.72159">
        <ele>409.5</ele>
        <time>2026-03-10T07:08:37Z</time>
      </trkpt>
      <trkpt lat="49.04316" lon="7.72159">
        <ele>409.5</ele>
        <time>2026-03-10T07:08:42Z</time>
      </trkpt>
      <trkpt lat="49.04316" lon="7.72159">
        <ele>409.5</ele>
        <time>2026-03-10T07:08:47Z</time>
      </trkpt>
      <trkpt lat="49.04316" lon="7.72159">
        <ele>409.5</ele>
        <time>2026-03-10T07:08:52Z</time>
      </trkpt>
      <trkpt lat="49.04316" lon="7.72159">
        <ele>409.5</ele>
        <time>2026-03-10T07:08:57Z</time>
      </trkpt>
      <trkpt lat="49.04316" lon="7.72159">
        <ele>409.5</ele>
        <time>2026-03-10T07:09:02Z</time>
      </trkpt>
      <trkpt lat="49.04316" lon="7.72159">
        <ele>409.5</ele>
        <time>2026-03-10T07:09:07Z</time>
      </trkpt>
      <trkpt lat="49.04316" lon="7.72159">
        <ele>409.5</ele>
        <time>2026-03-10T07:09:12Z</time>
      </trkpt>
      <trkpt lat="49.04316" lon="7.72159">
        <ele>409.5</ele>
        <time>2026-03-10T07:09:17Z</time>
      </trkpt>
      <trkpt lat="49.04316" lon="7.72159">
        <ele>409.5</ele>
        <time>2026-03-10T07:09:22Z</time>
      </trkpt>
      <trkpt lat="49.04316" lon="7.72159">
        <ele>409.5</ele>
        <time>2026-03-10T07:09:27Z</time>
      </trkpt>
      <trkpt lat="49.04316" lon="7.72159">
        <ele>409.5</ele>
        <time>2026-03-10T07:09:32Z</time>
      </trkpt>
      <trkpt lat="49.04316" lon="7.72159">
        <ele>409.5</ele>
        <time>2026-03-10T07:09:37Z</time>
      </trkpt>
      <trkpt lat="49.04316" lon="7.72159">
        <ele>409.5</ele>
        <time>2026-03-10T07:09:42Z</time>
      </trkpt>
      <trkpt lat="49.04316" lon="7.72159">
        <ele>409.5</ele>
        <time>2026-03-10T07:09:47Z</time>
      </trkpt>
      <trkpt lat="49.04316" lon="7.72159">
        <ele>409.5</ele>
        <time>2026-03-10T07:09:52Z</time>
      </trkpt>
      <trkpt lat="49.04316" lon="7.72159">
        <ele>409.5</ele>
        <time>2026-03-10T07:09:57Z</time>
      </trkpt>
      <trkpt lat="49.04316" lon="7.72159">
        <ele>409.5</ele>
        <time>2026-03-10T07:10:02Z</time>
      </trkpt>
      <trkpt lat="49.04316" lon="7.72159">
        <ele>409.5</ele>
        <time>2026-03-10T07:10:07Z</time>
      </trkpt>
      <trkpt lat="49.04316" lon="7.72159">
        <ele>409.5</ele>
        <time>2026-03-10T07:10:12Z</time>
      </trkpt>
      <trkpt lat="49.04316" lon="7.72159">
        <ele>409.5</ele>
        <time>2026-03-10T07:10:17Z</time>
      </trkpt>
      <trkpt lat="49.04316" lon="7.72159">
        <ele>409.5</ele>
        <time>2026-03-10T07:10:22Z</time>
      </trkpt>
      <trkpt lat="49.04316" lon="7.72159">
        <ele>409.5</ele>
        <time>2026-03-10T07:10:27Z</time>
      </trkpt>
      <trkpt lat="49.04316" lon="7.72159">
        <ele>409.5</ele>
        <time>2026-03-10T07:10:32Z</time>
      </trkpt>
      <trkpt lat="49.04316" lon="7.72159">
        <ele>409.5</ele>
        <time>2026-03-10T07:10:37Z</time>
      </trkpt>
      <trkpt lat="49.04316" lon="7.72159">
        <ele>409.5</ele>
        <time>2026-03-10T07:10:42Z</time>
      </trkpt>
      <trkpt lat="49.04325" lon="7.72153">
        <ele>410.5</ele>
        <time>2026-03-10T07:10:47Z</time>
      </trkpt>
      <trkpt lat="49.04327" lon="7.72154">
        <ele>411</ele>
        <time>2026-03-10T07:10:52Z</time>
      </trkpt>
      <trkpt lat="49.04337" lon="7.72152">
        <ele>412.8</ele>
        <time>2026-03-10T07:10:57Z</time>
      </trkpt>
      <trkpt lat="49.04339" lon="7.72151">
        <ele>413.2</ele>
        <time>2026-03-10T07:11:02Z</time>
      </trkpt>
      <trkpt lat="49.04339" lon="7.72151">
        <ele>413.2</ele>
        <time>2026-03-10T07:11:07Z</time>
      </trkpt>
      <trkpt lat="49.04339" lon="7.72151">
        <ele>413.2</ele>
        <time>2026-03-10T07:11:12Z</time>
      </trkpt>
      <trkpt lat="49.04339" lon="7.72151">
        <ele>413.2</ele>
        <time>2026-03-10T07:11:17Z</time>
      </trkpt>
      <trkpt lat="49.04351" lon="7.72151">
        <ele>415.7</ele>
        <time>2026-03-10T07:11:22Z</time>
      </trkpt>
      <trkpt lat="49.04356" lon="7.72147">
        <ele>416.5</ele>
        <time>2026-03-10T07:11:27Z</time>
      </trkpt>
      <trkpt lat="49.0436" lon="7.7215">
        <ele>417.6</ele>
        <time>2026-03-10T07:11:32Z</time>
      </trkpt>
      <trkpt lat="49.04365" lon="7.72151">
        <ele>418.8</ele>
        <time>2026-03-10T07:11:37Z</time>
      </trkpt>
      <trkpt lat="49.04366" lon="7.72151">
        <ele>419</ele>
        <time>2026-03-10T07:11:42Z</time>
      </trkpt>
      <trkpt lat="49.04371" lon="7.72143">
        <ele>419.7</ele>
        <time>2026-03-10T07:11:47Z</time>
      </trkpt>
      <trkpt lat="49.04373" lon="7.72141">
        <ele>420.1</ele>
        <time>2026-03-10T07:11:52Z</time>
      </trkpt>
      <trkpt lat="49.04376" lon="7.72142">
        <ele>420.8</ele>
        <time>2026-03-10T07:11:57Z</time>
      </trkpt>
      <trkpt lat="49.04378" lon="7.72137">
        <ele>421.2</ele>
        <time>2026-03-10T07:12:02Z</time>
      </trkpt>
      <trkpt lat="49.04383" lon="7.72129">
        <ele>422.3</ele>
        <time>2026-03-10T07:12:07Z</time>
      </trkpt>
      <trkpt lat="49.04389" lon="7.72119">
        <ele>423.8</ele>
        <time>2026-03-10T07:12:12Z</time>
      </trkpt>
      <trkpt lat="49.04394" lon="7.72108">
        <ele>425.4</ele>
        <time>2026-03-10T07:12:17Z</time>
      </trkpt>
      <trkpt lat="49.04398" lon="7.72099">
        <ele>426.8</ele>
        <time>2026-03-10T07:12:22Z</time>
      </trkpt>
      <trkpt lat="49.04403" lon="7.72095">
        <ele>428.6</ele>
        <time>2026-03-10T07:12:27Z</time>
      </trkpt>
      <trkpt lat="49.04408" lon="7.72087">
        <ele>430.6</ele>
        <time>2026-03-10T07:12:32Z</time>
      </trkpt>
      <trkpt lat="49.04414" lon="7.72079">
        <ele>433</ele>
        <time>2026-03-10T07:12:37Z</time>
      </trkpt>
      <trkpt lat="49.04418" lon="7.72074">
        <ele>434</ele>
        <time>2026-03-10T07:12:42Z</time>
      </trkpt>
      <trkpt lat="49.04422" lon="7.72069">
        <ele>433.8</ele>
        <time>2026-03-10T07:12:47Z</time>
      </trkpt>
      <trkpt lat="49.04428" lon="7.72059">
        <ele>433.7</ele>
        <time>2026-03-10T07:12:52Z</time>
      </trkpt>
      <trkpt lat="49.04431" lon="7.72048">
        <ele>433.9</ele>
        <time>2026-03-10T07:12:57Z</time>
      </trkpt>
      <trkpt lat="49.04435" lon="7.72039">
        <ele>434.2</ele>
        <time>2026-03-10T07:13:02Z</time>
      </trkpt>
      <trkpt lat="49.0444" lon="7.72031">
        <ele>434.5</ele>
        <time>2026-03-10T07:13:07Z</time>
      </trkpt>
      <trkpt lat="49.04446" lon="7.72022">
        <ele>435</ele>
        <time>2026-03-10T07:13:12Z</time>
      </trkpt>
      <trkpt lat="49.0445" lon="7.72012">
        <ele>435.8</ele>
        <time>2026-03-10T07:13:17Z</time>
      </trkpt>
      <trkpt lat="49.04454" lon="7.72001">
        <ele>436.7</ele>
        <time>2026-03-10T07:13:22Z</time>
      </trkpt>
      <trkpt lat="49.04458" lon="7.71993">
        <ele>437.4</ele>
        <time>2026-03-10T07:13:27Z</time>
      </trkpt>
      <trkpt lat="49.04462" lon="7.71987">
        <ele>437.9</ele>
        <time>2026-03-10T07:13:32Z</time>
      </trkpt>
      <trkpt lat="49.04465" lon="7.71976">
        <ele>438.8</ele>
        <time>2026-03-10T07:13:37Z</time>
      </trkpt>
      <trkpt lat="49.04469" lon="7.71966">
        <ele>439.8</ele>
        <time>2026-03-10T07:13:42Z</time>
      </trkpt>
      <trkpt lat="49.04473" lon="7.71957">
        <ele>440.8</ele>
        <time>2026-03-10T07:13:47Z</time>
      </trkpt>
      <trkpt lat="49.04476" lon="7.7195">
        <ele>441.7</ele>
        <time>2026-03-10T07:13:52Z</time>
      </trkpt>
      <trkpt lat="49.04477" lon="7.71942">
        <ele>442.4</ele>
        <time>2026-03-10T07:13:57Z</time>
      </trkpt>
      <trkpt lat="49.04479" lon="7.71933">
        <ele>443.4</ele>
        <time>2026-03-10T07:14:02Z</time>
      </trkpt>
      <trkpt lat="49.04481" lon="7.71926">
        <ele>444.3</ele>
        <time>2026-03-10T07:14:07Z</time>
      </trkpt>
      <trkpt lat="49.04481" lon="7.71918">
        <ele>444.9</ele>
        <time>2026-03-10T07:14:12Z</time>
      </trkpt>
      <trkpt lat="49.0448" lon="7.71909">
        <ele>445.3</ele>
        <time>2026-03-10T07:14:17Z</time>
      </trkpt>
      <trkpt lat="49.04481" lon="7.71898">
        <ele>446.1</ele>
        <time>2026-03-10T07:14:22Z</time>
      </trkpt>
      <trkpt lat="49.04482" lon="7.71888">
        <ele>446.8</ele>
        <time>2026-03-10T07:14:27Z</time>
      </trkpt>
      <trkpt lat="49.04483" lon="7.71877">
        <ele>447.5</ele>
        <time>2026-03-10T07:14:32Z</time>
      </trkpt>
      <trkpt lat="49.04482" lon="7.71866">
        <ele>448</ele>
        <time>2026-03-10T07:14:37Z</time>
      </trkpt>
      <trkpt lat="49.04481" lon="7.71855">
        <ele>448.4</ele>
        <time>2026-03-10T07:14:42Z</time>
      </trkpt>
      <trkpt lat="49.04483" lon="7.71845">
        <ele>449.3</ele>
        <time>2026-03-10T07:14:47Z</time>
      </trkpt>
      <trkpt lat="49.04484" lon="7.71834">
        <ele>450.1</ele>
        <time>2026-03-10T07:14:52Z</time>
      </trkpt>
      <trkpt lat="49.04482" lon="7.71826">
        <ele>449.8</ele>
        <time>2026-03-10T07:14:57Z</time>
      </trkpt>
      <trkpt lat="49.0448" lon="7.71816">
        <ele>449.6</ele>
        <time>2026-03-10T07:15:02Z</time>
      </trkpt>
      <trkpt lat="49.04479" lon="7.71811">
        <ele>449.6</ele>
        <time>2026-03-10T07:15:07Z</time>
      </trkpt>
      <trkpt lat="49.04478" lon="7.7181">
        <ele>449.4</ele>
        <time>2026-03-10T07:15:12Z</time>
      </trkpt>
      <trkpt lat="49.04478" lon="7.7181">
        <ele>449.4</ele>
        <time>2026-03-10T07:15:17Z</time>
      </trkpt>
      <trkpt lat="49.04476" lon="7.71805">
        <ele>449.2</ele>
        <time>2026-03-10T07:15:22Z</time>
      </trkpt>
      <trkpt lat="49.04475" lon="7.71797">
        <ele>449.2</ele>
        <time>2026-03-10T07:15:27Z</time>
      </trkpt>
      <trkpt lat="49.04473" lon="7.71791">
        <ele>449.1</ele>
        <time>2026-03-10T07:15:32Z</time>
      </trkpt>
      <trkpt lat="49.04474" lon="7.71781">
        <ele>449.5</ele>
        <time>2026-03-10T07:15:37Z</time>
      </trkpt>
      <trkpt lat="49.04474" lon="7.71773">
        <ele>449.6</ele>
        <time>2026-03-10T07:15:42Z</time>
      </trkpt>
      <trkpt lat="49.04474" lon="7.71763">
        <ele>449.8</ele>
        <time>2026-03-10T07:15:47Z</time>
      </trkpt>
      <trkpt lat="49.04474" lon="7.7176">
        <ele>449.9</ele>
        <time>2026-03-10T07:15:52Z</time>
      </trkpt>
      <trkpt lat="49.04475" lon="7.71759">
        <ele>450</ele>
        <time>2026-03-10T07:15:57Z</time>
      </trkpt>
      <trkpt lat="49.04474" lon="7.71755">
        <ele>450</ele>
        <time>2026-03-10T07:16:02Z</time>
      </trkpt>
      <trkpt lat="49.04476" lon="7.71746">
        <ele>449.9</ele>
        <time>2026-03-10T07:16:07Z</time>
      </trkpt>
      <trkpt lat="49.04478" lon="7.71743">
        <ele>449.7</ele>
        <time>2026-03-10T07:16:12Z</time>
      </trkpt>
      <trkpt lat="49.04478" lon="7.71737">
        <ele>449.1</ele>
        <time>2026-03-10T07:16:17Z</time>
      </trkpt>
      <trkpt lat="49.04476" lon="7.71734">
        <ele>448.7</ele>
        <time>2026-03-10T07:16:22Z</time>
      </trkpt>
      <trkpt lat="49.04476" lon="7.71733">
        <ele>448.6</ele>
        <time>2026-03-10T07:16:27Z</time>
      </trkpt>
      <trkpt lat="49.04476" lon="7.71733">
        <ele>448.6</ele>
        <time>2026-03-10T07:16:32Z</time>
      </trkpt>
      <trkpt lat="49.04476" lon="7.71733">
        <ele>448.6</ele>
        <time>2026-03-10T07:16:37Z</time>
      </trkpt>
      <trkpt lat="49.04476" lon="7.71733">
        <ele>448.6</ele>
        <time>2026-03-10T07:16:42Z</time>
      </trkpt>
      <trkpt lat="49.04476" lon="7.71733">
        <ele>448.6</ele>
        <time>2026-03-10T07:16:47Z</time>
      </trkpt>
      <trkpt lat="49.04476" lon="7.71733">
        <ele>448.6</ele>
        <time>2026-03-10T07:16:52Z</time>
      </trkpt>
      <trkpt lat="49.04476" lon="7.71733">
        <ele>448.6</ele>
        <time>2026-03-10T07:16:57Z</time>
      </trkpt>
      <trkpt lat="49.04476" lon="7.71733">
        <ele>448.6</ele>
        <time>2026-03-10T07:17:02Z</time>
      </trkpt>
      <trkpt lat="49.04476" lon="7.71733">
        <ele>448.6</ele>
        <time>2026-03-10T07:17:07Z</time>
      </trkpt>
      <trkpt lat="49.04476" lon="7.71733">
        <ele>448.6</ele>
        <time>2026-03-10T07:17:12Z</time>
      </trkpt>
      <trkpt lat="49.04476" lon="7.71733">
        <ele>448.6</ele>
        <time>2026-03-10T07:17:17Z</time>
      </trkpt>
      <trkpt lat="49.04476" lon="7.71733">
        <ele>448.6</ele>
        <time>2026-03-10T07:17:22Z</time>
      </trkpt>
      <trkpt lat="49.04476" lon="7.71733">
        <ele>448.6</ele>
        <time>2026-03-10T07:17:27Z</time>
      </trkpt>
      <trkpt lat="49.04476" lon="7.71733">
        <ele>448.6</ele>
        <time>2026-03-10T07:17:32Z</time>
      </trkpt>
      <trkpt lat="49.04476" lon="7.71733">
        <ele>448.6</ele>
        <time>2026-03-10T07:17:37Z</time>
      </trkpt>
      <trkpt lat="49.04476" lon="7.71733">
        <ele>448.6</ele>
        <time>2026-03-10T07:17:42Z</time>
      </trkpt>
      <trkpt lat="49.04476" lon="7.71733">
        <ele>448.6</ele>
        <time>2026-03-10T07:17:47Z</time>
      </trkpt>
      <trkpt lat="49.04476" lon="7.71733">
        <ele>448.6</ele>
        <time>2026-03-10T07:17:52Z</time>
      </trkpt>
      <trkpt lat="49.04476" lon="7.71733">
        <ele>448.6</ele>
        <time>2026-03-10T07:17:57Z</time>
      </trkpt>
      <trkpt lat="49.04476" lon="7.71733">
        <ele>448.6</ele>
        <time>2026-03-10T07:18:02Z</time>
      </trkpt>
      <trkpt lat="49.04476" lon="7.71733">
        <ele>448.6</ele>
        <time>2026-03-10T07:18:07Z</time>
      </trkpt>
      <trkpt lat="49.04476" lon="7.71733">
        <ele>448.6</ele>
        <time>2026-03-10T07:18:12Z</time>
      </trkpt>
      <trkpt lat="49.04476" lon="7.71733">
        <ele>448.6</ele>
        <time>2026-03-10T07:18:17Z</time>
      </trkpt>
      <trkpt lat="49.04476" lon="7.71733">
        <ele>448.6</ele>
        <time>2026-03-10T07:18:22Z</time>
      </trkpt>
      <trkpt lat="49.04475" lon="7.71728">
        <ele>448.1</ele>
        <time>2026-03-10T07:18:27Z</time>
      </trkpt>
      <trkpt lat="49.04474" lon="7.71725">
        <ele>447.7</ele>
        <time>2026-03-10T07:18:32Z</time>
      </trkpt>
      <trkpt lat="49.04472" lon="7.71721">
        <ele>447.3</ele>
        <time>2026-03-10T07:18:37Z</time>
      </trkpt>
      <trkpt lat="49.04471" lon="7.71718">
        <ele>447</ele>
        <time>2026-03-10T07:18:42Z</time>
      </trkpt>
      <trkpt lat="49.04472" lon="7.71716">
        <ele>446.9</ele>
        <time>2026-03-10T07:18:47Z</time>
      </trkpt>
      <trkpt lat="49.0447" lon="7.71712">
        <ele>446.5</ele>
        <time>2026-03-10T07:18:52Z</time>
      </trkpt>
      <trkpt lat="49.04465" lon="7.7171">
        <ele>446.3</ele>
        <time>2026-03-10T07:18:57Z</time>
      </trkpt>
      <trkpt lat="49.04465" lon="7.71705">
        <ele>445.9</ele>
        <time>2026-03-10T07:19:02Z</time>
      </trkpt>
      <trkpt lat="49.04464" lon="7.71699">
        <ele>445.5</ele>
        <time>2026-03-10T07:19:07Z</time>
      </trkpt>
      <trkpt lat="49.04464" lon="7.71694">
        <ele>445.1</ele>
        <time>2026-03-10T07:19:12Z</time>
      </trkpt>
      <trkpt lat="49.04462" lon="7.71689">
        <ele>444.8</ele>
        <time>2026-03-10T07:19:17Z</time>
      </trkpt>
      <trkpt lat="49.0446" lon="7.71685">
        <ele>444.6</ele>
        <time>2026-03-10T07:19:22Z</time>
      </trkpt>
      <trkpt lat="49.04459" lon="7.71683">
        <ele>444.5</ele>
        <time>2026-03-10T07:19:27Z</time>
      </trkpt>
      <trkpt lat="49.04457" lon="7.71678">
        <ele>444.3</ele>
        <time>2026-03-10T07:19:32Z</time>
      </trkpt>
      <trkpt lat="49.04457" lon="7.71672">
        <ele>444</ele>
        <time>2026-03-10T07:19:37Z</time>
      </trkpt>
      <trkpt lat="49.04456" lon="7.71667">
        <ele>443.7</ele>
        <time>2026-03-10T07:19:42Z</time>
      </trkpt>
      <trkpt lat="49.04458" lon="7.71665">
        <ele>443.4</ele>
        <time>2026-03-10T07:19:47Z</time>
      </trkpt>
      <trkpt lat="49.0446" lon="7.71663">
        <ele>443</ele>
        <time>2026-03-10T07:19:52Z</time>
      </trkpt>
      <trkpt lat="49.04461" lon="7.71658">
        <ele>442.4</ele>
        <time>2026-03-10T07:19:57Z</time>
      </trkpt>
      <trkpt lat="49.04459" lon="7.71654">
        <ele>442.2</ele>
        <time>2026-03-10T07:20:02Z</time>
      </trkpt>
      <trkpt lat="49.04457" lon="7.71651">
        <ele>442</ele>
        <time>2026-03-10T07:20:07Z</time>
      </trkpt>
      <trkpt lat="49.04453" lon="7.71646">
        <ele>441.8</ele>
        <time>2026-03-10T07:20:12Z</time>
      </trkpt>
      <trkpt lat="49.04449" lon="7.71641">
        <ele>441.6</ele>
        <time>2026-03-10T07:20:17Z</time>
      </trkpt>
      <trkpt lat="49.04445" lon="7.71635">
        <ele>441.2</ele>
        <time>2026-03-10T07:20:22Z</time>
      </trkpt>
      <trkpt lat="49.04443" lon="7.7163">
        <ele>440.8</ele>
        <time>2026-03-10T07:20:27Z</time>
      </trkpt>
      <trkpt lat="49.04441" lon="7.71626">
        <ele>440.5</ele>
        <time>2026-03-10T07:20:32Z</time>
      </trkpt>
      <trkpt lat="49.04438" lon="7.71622">
        <ele>440.3</ele>
        <time>2026-03-10T07:20:37Z</time>
      </trkpt>
      <trkpt lat="49.04437" lon="7.71618">
        <ele>439.9</ele>
        <time>2026-03-10T07:20:42Z</time>
      </trkpt>
      <trkpt lat="49.04437" lon="7.71614">
        <ele>439.4</ele>
        <time>2026-03-10T07:20:47Z</time>
      </trkpt>
      <trkpt lat="49.04436" lon="7.71612">
        <ele>439.3</ele>
        <time>2026-03-10T07:20:52Z</time>
      </trkpt>
      <trkpt lat="49.04434" lon="7.71608">
        <ele>438.9</ele>
        <time>2026-03-10T07:20:57Z</time>
      </trkpt>
      <trkpt lat="49.04432" lon="7.71603">
        <ele>438.5</ele>
        <time>2026-03-10T07:21:02Z</time>
      </trkpt>
      <trkpt lat="49.04429" lon="7.71598">
        <ele>438.1</ele>
        <time>2026-03-10T07:21:07Z</time>
      </trkpt>
      <trkpt lat="49.04427" lon="7.71592">
        <ele>437.5</ele>
        <time>2026-03-10T07:21:12Z</time>
      </trkpt>
      <trkpt lat="49.04425" lon="7.71589">
        <ele>437.3</ele>
        <time>2026-03-10T07:21:17Z</time>
      </trkpt>
      <trkpt lat="49.04421" lon="7.71584">
        <ele>436.9</ele>
        <time>2026-03-10T07:21:22Z</time>
      </trkpt>
      <trkpt lat="49.04418" lon="7.7158">
        <ele>436.7</ele>
        <time>2026-03-10T07:21:27Z</time>
      </trkpt>
      <trkpt lat="49.04416" lon="7.71577">
        <ele>436.2</ele>
        <time>2026-03-10T07:21:32Z</time>
      </trkpt>
      <trkpt lat="49.04413" lon="7.71571">
        <ele>433.9</ele>
        <time>2026-03-10T07:21:37Z</time>
      </trkpt>
      <trkpt lat="49.04412" lon="7.71566">
        <ele>433</ele>
        <time>2026-03-10T07:21:42Z</time>
      </trkpt>
      <trkpt lat="49.04409" lon="7.71562">
        <ele>430.8</ele>
        <time>2026-03-10T07:21:47Z</time>
      </trkpt>
      <trkpt lat="49.04406" lon="7.71555">
        <ele>428.5</ele>
        <time>2026-03-10T07:21:52Z</time>
      </trkpt>
      <trkpt lat="49.04404" lon="7.71552">
        <ele>427</ele>
        <time>2026-03-10T07:21:57Z</time>
      </trkpt>
      <trkpt lat="49.04402" lon="7.71548">
        <ele>425.5</ele>
        <time>2026-03-10T07:22:02Z</time>
      </trkpt>
      <trkpt lat="49.04402" lon="7.71544">
        <ele>425.3</ele>
        <time>2026-03-10T07:22:07Z</time>
      </trkpt>
      <trkpt lat="49.04401" lon="7.7154">
        <ele>424.4</ele>
        <time>2026-03-10T07:22:12Z</time>
      </trkpt>
      <trkpt lat="49.04399" lon="7.71535">
        <ele>422.9</ele>
        <time>2026-03-10T07:22:17Z</time>
      </trkpt>
      <trkpt lat="49.04395" lon="7.71526">
        <ele>419.9</ele>
        <time>2026-03-10T07:22:22Z</time>
      </trkpt>
      <trkpt lat="49.04394" lon="7.71523">
        <ele>419.1</ele>
        <time>2026-03-10T07:22:27Z</time>
      </trkpt>
      <trkpt lat="49.04394" lon="7.71522">
        <ele>419</ele>
        <time>2026-03-10T07:22:32Z</time>
      </trkpt>
      <trkpt lat="49.04394" lon="7.71522">
        <ele>419</ele>
        <time>2026-03-10T07:22:37Z</time>
      </trkpt>
      <trkpt lat="49.04394" lon="7.71522">
        <ele>419</ele>
        <time>2026-03-10T07:22:42Z</time>
      </trkpt>
      <trkpt lat="49.04394" lon="7.71522">
        <ele>419</ele>
        <time>2026-03-10T07:22:47Z</time>
      </trkpt>
      <trkpt lat="49.04394" lon="7.71522">
        <ele>419</ele>
        <time>2026-03-10T07:22:52Z</time>
      </trkpt>
      <trkpt lat="49.04394" lon="7.71522">
        <ele>419</ele>
        <time>2026-03-10T07:22:57Z</time>
      </trkpt>
      <trkpt lat="49.04394" lon="7.71522">
        <ele>419</ele>
        <time>2026-03-10T07:23:02Z</time>
      </trkpt>
      <trkpt lat="49.04394" lon="7.71522">
        <ele>419</ele>
        <time>2026-03-10T07:23:07Z</time>
      </trkpt>
      <trkpt lat="49.04394" lon="7.71522">
        <ele>419</ele>
        <time>2026-03-10T07:23:12Z</time>
      </trkpt>
      <trkpt lat="49.04394" lon="7.71522">
        <ele>419</ele>
        <time>2026-03-10T07:23:17Z</time>
      </trkpt>
      <trkpt lat="49.04394" lon="7.71522">
        <ele>419</ele>
        <time>2026-03-10T07:23:22Z</time>
      </trkpt>
      <trkpt lat="49.04394" lon="7.71522">
        <ele>419</ele>
        <time>2026-03-10T07:23:27Z</time>
      </trkpt>
      <trkpt lat="49.04394" lon="7.71522">
        <ele>419</ele>
        <time>2026-03-10T07:23:32Z</time>
      </trkpt>
      <trkpt lat="49.04394" lon="7.71522">
        <ele>419</ele>
        <time>2026-03-10T07:23:37Z</time>
      </trkpt>
      <trkpt lat="49.04394" lon="7.71522">
        <ele>419</ele>
        <time>2026-03-10T07:23:42Z</time>
      </trkpt>
      <trkpt lat="49.04394" lon="7.71522">
        <ele>419</ele>
        <time>2026-03-10T07:23:47Z</time>
      </trkpt>
      <trkpt lat="49.04399" lon="7.71509">
        <ele>421.5</ele>
        <time>2026-03-10T07:23:52Z</time>
      </trkpt>
      <trkpt lat="49.04399" lon="7.71509">
        <ele>421.5</ele>
        <time>2026-03-10T07:23:57Z</time>
      </trkpt>
      <trkpt lat="49.04399" lon="7.71509">
        <ele>421.5</ele>
        <time>2026-03-10T07:24:02Z</time>
      </trkpt>
      <trkpt lat="49.04401" lon="7.71509">
        <ele>422.7</ele>
        <time>2026-03-10T07:24:07Z</time>
      </trkpt>
      <trkpt lat="49.04402" lon="7.71507">
        <ele>423.2</ele>
        <time>2026-03-10T07:24:12Z</time>
      </trkpt>
      <trkpt lat="49.04401" lon="7.71502">
        <ele>422.3</ele>
        <time>2026-03-10T07:24:17Z</time>
      </trkpt>
      <trkpt lat="49.04401" lon="7.71499">
        <ele>422.3</ele>
        <time>2026-03-10T07:24:22Z</time>
      </trkpt>
      <trkpt lat="49.04401" lon="7.71499">
        <ele>422.3</ele>
        <time>2026-03-10T07:24:27Z</time>
      </trkpt>
      <trkpt lat="49.04401" lon="7.71499">
        <ele>422.3</ele>
        <time>2026-03-10T07:24:32Z</time>
      </trkpt>
      <trkpt lat="49.04401" lon="7.71499">
        <ele>422.3</ele>
        <time>2026-03-10T07:24:37Z</time>
      </trkpt>
      <trkpt lat="49.04401" lon="7.71499">
        <ele>422.3</ele>
        <time>2026-03-10T07:24:42Z</time>
      </trkpt>
      <trkpt lat="49.04401" lon="7.71499">
        <ele>422.3</ele>
        <time>2026-03-10T07:24:47Z</time>
      </trkpt>
      <trkpt lat="49.04401" lon="7.71499">
        <ele>422.3</ele>
        <time>2026-03-10T07:24:52Z</time>
      </trkpt>
      <trkpt lat="49.04408" lon="7.7149">
        <ele>427.1</ele>
        <time>2026-03-10T07:24:57Z</time>
      </trkpt>
      <trkpt lat="49.04408" lon="7.71489">
        <ele>427.1</ele>
        <time>2026-03-10T07:25:02Z</time>
      </trkpt>
      <trkpt lat="49.04408" lon="7.71489">
        <ele>427.1</ele>
        <time>2026-03-10T07:25:07Z</time>
      </trkpt>
      <trkpt lat="49.04408" lon="7.71489">
        <ele>427.1</ele>
        <time>2026-03-10T07:25:12Z</time>
      </trkpt>
      <trkpt lat="49.04408" lon="7.71489">
        <ele>427.1</ele>
        <time>2026-03-10T07:25:17Z</time>
      </trkpt>
      <trkpt lat="49.04408" lon="7.71489">
        <ele>427.1</ele>
        <time>2026-03-10T07:25:22Z</time>
      </trkpt>
      <trkpt lat="49.04408" lon="7.71489">
        <ele>427.1</ele>
        <time>2026-03-10T07:25:27Z</time>
      </trkpt>
      <trkpt lat="49.04408" lon="7.71489">
        <ele>427.1</ele>
        <time>2026-03-10T07:25:32Z</time>
      </trkpt>
      <trkpt lat="49.04408" lon="7.71489">
        <ele>427.1</ele>
        <time>2026-03-10T07:25:37Z</time>
      </trkpt>
      <trkpt lat="49.04408" lon="7.71489">
        <ele>427.1</ele>
        <time>2026-03-10T07:25:42Z</time>
      </trkpt>
      <trkpt lat="49.04408" lon="7.71489">
        <ele>427.1</ele>
        <time>2026-03-10T07:25:47Z</time>
      </trkpt>
      <trkpt lat="49.04408" lon="7.71489">
        <ele>427.1</ele>
        <time>2026-03-10T07:25:52Z</time>
      </trkpt>
      <trkpt lat="49.04412" lon="7.71476">
        <ele>430.1</ele>
        <time>2026-03-10T07:25:57Z</time>
      </trkpt>
      <trkpt lat="49.04409" lon="7.71475">
        <ele>428.3</ele>
        <time>2026-03-10T07:26:02Z</time>
      </trkpt>
      <trkpt lat="49.04409" lon="7.71475">
        <ele>428.3</ele>
        <time>2026-03-10T07:26:07Z</time>
      </trkpt>
      <trkpt lat="49.04409" lon="7.71475">
        <ele>428.3</ele>
        <time>2026-03-10T07:26:12Z</time>
      </trkpt>
      <trkpt lat="49.04409" lon="7.71475">
        <ele>428.3</ele>
        <time>2026-03-10T07:26:17Z</time>
      </trkpt>
      <trkpt lat="49.04409" lon="7.71475">
        <ele>428.3</ele>
        <time>2026-03-10T07:26:22Z</time>
      </trkpt>
      <trkpt lat="49.04409" lon="7.71475">
        <ele>428.3</ele>
        <time>2026-03-10T07:26:27Z</time>
      </trkpt>
      <trkpt lat="49.04409" lon="7.71475">
        <ele>428.3</ele>
        <time>2026-03-10T07:26:32Z</time>
      </trkpt>
      <trkpt lat="49.04409" lon="7.71475">
        <ele>428.3</ele>
        <time>2026-03-10T07:26:37Z</time>
      </trkpt>
      <trkpt lat="49.04401" lon="7.71467">
        <ele>424</ele>
        <time>2026-03-10T07:26:42Z</time>
      </trkpt>
      <trkpt lat="49.04401" lon="7.71465">
        <ele>424.1</ele>
        <time>2026-03-10T07:26:47Z</time>
      </trkpt>
      <trkpt lat="49.044" lon="7.71457">
        <ele>424</ele>
        <time>2026-03-10T07:26:52Z</time>
      </trkpt>
      <trkpt lat="49.04399" lon="7.71454">
        <ele>423.6</ele>
        <time>2026-03-10T07:26:57Z</time>
      </trkpt>
      <trkpt lat="49.044" lon="7.71454">
        <ele>424.1</ele>
        <time>2026-03-10T07:27:02Z</time>
      </trkpt>
      <trkpt lat="49.044" lon="7.71454">
        <ele>424.1</ele>
        <time>2026-03-10T07:27:07Z</time>
      </trkpt>
      <trkpt lat="49.044" lon="7.71454">
        <ele>424.1</ele>
        <time>2026-03-10T07:27:12Z</time>
      </trkpt>
      <trkpt lat="49.044" lon="7.71454">
        <ele>424.1</ele>
        <time>2026-03-10T07:27:17Z</time>
      </trkpt>
      <trkpt lat="49.04408" lon="7.71442">
        <ele>429.3</ele>
        <time>2026-03-10T07:27:22Z</time>
      </trkpt>
      <trkpt lat="49.04408" lon="7.71442">
        <ele>429.3</ele>
        <time>2026-03-10T07:27:27Z</time>
      </trkpt>
      <trkpt lat="49.04408" lon="7.71442">
        <ele>429.3</ele>
        <time>2026-03-10T07:27:32Z</time>
      </trkpt>
      <trkpt lat="49.04408" lon="7.71442">
        <ele>429.3</ele>
        <time>2026-03-10T07:27:37Z</time>
      </trkpt>
      <trkpt lat="49.04411" lon="7.71433">
        <ele>431.3</ele>
        <time>2026-03-10T07:27:42Z</time>
      </trkpt>
      <trkpt lat="49.04412" lon="7.7143">
        <ele>432</ele>
        <time>2026-03-10T07:27:47Z</time>
      </trkpt>
      <trkpt lat="49.04412" lon="7.7143">
        <ele>432</ele>
        <time>2026-03-10T07:27:52Z</time>
      </trkpt>
      <trkpt lat="49.04415" lon="7.71425">
        <ele>433.8</ele>
        <time>2026-03-10T07:27:57Z</time>
      </trkpt>
      <trkpt lat="49.04413" lon="7.71422">
        <ele>432.8</ele>
        <time>2026-03-10T07:28:02Z</time>
      </trkpt>
      <trkpt lat="49.04414" lon="7.71416">
        <ele>433.6</ele>
        <time>2026-03-10T07:28:07Z</time>
      </trkpt>
      <trkpt lat="49.04413" lon="7.7141">
        <ele>433.4</ele>
        <time>2026-03-10T07:28:12Z</time>
      </trkpt>
      <trkpt lat="49.04414" lon="7.71401">
        <ele>434.4</ele>
        <time>2026-03-10T07:28:17Z</time>
      </trkpt>
      <trkpt lat="49.04413" lon="7.71399">
        <ele>434</ele>
        <time>2026-03-10T07:28:22Z</time>
      </trkpt>
      <trkpt lat="49.04412" lon="7.71398">
        <ele>433.6</ele>
        <time>2026-03-10T07:28:27Z</time>
      </trkpt>
      <trkpt lat="49.04412" lon="7.71398">
        <ele>433.6</ele>
        <time>2026-03-10T07:28:32Z</time>
      </trkpt>
      <trkpt lat="49.04412" lon="7.71398">
        <ele>433.6</ele>
        <time>2026-03-10T07:28:37Z</time>
      </trkpt>
      <trkpt lat="49.04412" lon="7.71398">
        <ele>433.6</ele>
        <time>2026-03-10T07:28:42Z</time>
      </trkpt>
      <trkpt lat="49.04412" lon="7.71398">
        <ele>433.6</ele>
        <time>2026-03-10T07:28:47Z</time>
      </trkpt>
      <trkpt lat="49.04412" lon="7.71398">
        <ele>433.6</ele>
        <time>2026-03-10T07:28:52Z</time>
      </trkpt>
      <trkpt lat="49.04412" lon="7.71398">
        <ele>433.6</ele>
        <time>2026-03-10T07:28:57Z</time>
      </trkpt>
      <trkpt lat="49.04412" lon="7.71398">
        <ele>433.6</ele>
        <time>2026-03-10T07:29:02Z</time>
      </trkpt>
      <trkpt lat="49.04412" lon="7.71398">
        <ele>433.6</ele>
        <time>2026-03-10T07:29:07Z</time>
      </trkpt>
      <trkpt lat="49.04412" lon="7.71398">
        <ele>433.6</ele>
        <time>2026-03-10T07:29:12Z</time>
      </trkpt>
      <trkpt lat="49.04412" lon="7.71398">
        <ele>433.6</ele>
        <time>2026-03-10T07:29:17Z</time>
      </trkpt>
      <trkpt lat="49.04412" lon="7.71398">
        <ele>433.6</ele>
        <time>2026-03-10T07:29:22Z</time>
      </trkpt>
      <trkpt lat="49.04412" lon="7.71398">
        <ele>433.6</ele>
        <time>2026-03-10T07:29:27Z</time>
      </trkpt>
      <trkpt lat="49.0441" lon="7.71384">
        <ele>433.4</ele>
        <time>2026-03-10T07:29:32Z</time>
      </trkpt>
      <trkpt lat="49.0441" lon="7.71379">
        <ele>433.7</ele>
        <time>2026-03-10T07:29:37Z</time>
      </trkpt>
      <trkpt lat="49.0441" lon="7.71377">
        <ele>433.8</ele>
        <time>2026-03-10T07:29:42Z</time>
      </trkpt>
      <trkpt lat="49.04409" lon="7.71375">
        <ele>433.5</ele>
        <time>2026-03-10T07:29:47Z</time>
      </trkpt>
      <trkpt lat="49.04405" lon="7.71368">
        <ele>432.1</ele>
        <time>2026-03-10T07:29:52Z</time>
      </trkpt>
      <trkpt lat="49.04405" lon="7.71367">
        <ele>432.1</ele>
        <time>2026-03-10T07:29:57Z</time>
      </trkpt>
      <trkpt lat="49.04405" lon="7.71367">
        <ele>432.1</ele>
        <time>2026-03-10T07:30:02Z</time>
      </trkpt>
      <trkpt lat="49.04405" lon="7.71367">
        <ele>432.1</ele>
        <time>2026-03-10T07:30:07Z</time>
      </trkpt>
      <trkpt lat="49.04405" lon="7.71367">
        <ele>432.1</ele>
        <time>2026-03-10T07:30:12Z</time>
      </trkpt>
      <trkpt lat="49.04405" lon="7.71367">
        <ele>432.1</ele>
        <time>2026-03-10T07:30:17Z</time>
      </trkpt>
      <trkpt lat="49.04405" lon="7.71367">
        <ele>432.1</ele>
        <time>2026-03-10T07:30:22Z</time>
      </trkpt>
      <trkpt lat="49.04405" lon="7.71367">
        <ele>432.1</ele>
        <time>2026-03-10T07:30:27Z</time>
      </trkpt>
      <trkpt lat="49.04405" lon="7.71367">
        <ele>432.1</ele>
        <time>2026-03-10T07:30:32Z</time>
      </trkpt>
      <trkpt lat="49.04399" lon="7.71355">
        <ele>430.4</ele>
        <time>2026-03-10T07:30:37Z</time>
      </trkpt>
      <trkpt lat="49.04398" lon="7.71353">
        <ele>430.1</ele>
        <time>2026-03-10T07:30:42Z</time>
      </trkpt>
      <trkpt lat="49.04398" lon="7.71353">
        <ele>430.1</ele>
        <time>2026-03-10T07:30:47Z</time>
      </trkpt>
      <trkpt lat="49.04397" lon="7.71339">
        <ele>430.8</ele>
        <time>2026-03-10T07:30:52Z</time>
      </trkpt>
      <trkpt lat="49.04398" lon="7.71338">
        <ele>431.2</ele>
        <time>2026-03-10T07:30:57Z</time>
      </trkpt>
      <trkpt lat="49.04398" lon="7.71338">
        <ele>431.2</ele>
        <time>2026-03-10T07:31:02Z</time>
      </trkpt>
      <trkpt lat="49.04398" lon="7.71338">
        <ele>431.2</ele>
        <time>2026-03-10T07:31:07Z</time>
      </trkpt>
      <trkpt lat="49.04398" lon="7.71338">
        <ele>431.2</ele>
        <time>2026-03-10T07:31:12Z</time>
      </trkpt>
      <trkpt lat="49.04398" lon="7.71338">
        <ele>431.2</ele>
        <time>2026-03-10T07:31:17Z</time>
      </trkpt>
      <trkpt lat="49.04398" lon="7.71338">
        <ele>431.2</ele>
        <time>2026-03-10T07:31:22Z</time>
      </trkpt>
      <trkpt lat="49.04398" lon="7.71338">
        <ele>431.2</ele>
        <time>2026-03-10T07:31:27Z</time>
      </trkpt>
      <trkpt lat="49.04405" lon="7.7133">
        <ele>434.6</ele>
        <time>2026-03-10T07:31:32Z</time>
      </trkpt>
      <trkpt lat="49.04405" lon="7.7133">
        <ele>434.6</ele>
        <time>2026-03-10T07:31:37Z</time>
      </trkpt>
      <trkpt lat="49.04405" lon="7.7133">
        <ele>434.6</ele>
        <time>2026-03-10T07:31:42Z</time>
      </trkpt>
      <trkpt lat="49.04405" lon="7.7133">
        <ele>434.6</ele>
        <time>2026-03-10T07:31:47Z</time>
      </trkpt>
      <trkpt lat="49.04405" lon="7.7133">
        <ele>434.6</ele>
        <time>2026-03-10T07:31:52Z</time>
      </trkpt>
      <trkpt lat="49.04405" lon="7.7133">
        <ele>434.6</ele>
        <time>2026-03-10T07:31:57Z</time>
      </trkpt>
      <trkpt lat="49.04405" lon="7.7133">
        <ele>434.6</ele>
        <time>2026-03-10T07:32:02Z</time>
      </trkpt>
      <trkpt lat="49.04406" lon="7.71324">
        <ele>435.4</ele>
        <time>2026-03-10T07:32:07Z</time>
      </trkpt>
      <trkpt lat="49.04407" lon="7.7132">
        <ele>436</ele>
        <time>2026-03-10T07:32:12Z</time>
      </trkpt>
      <trkpt lat="49.04409" lon="7.71316">
        <ele>437.1</ele>
        <time>2026-03-10T07:32:17Z</time>
      </trkpt>
      <trkpt lat="49.04411" lon="7.71311">
        <ele>438.2</ele>
        <time>2026-03-10T07:32:22Z</time>
      </trkpt>
      <trkpt lat="49.04411" lon="7.71305">
        <ele>438.5</ele>
        <time>2026-03-10T07:32:27Z</time>
      </trkpt>
      <trkpt lat="49.04412" lon="7.71303">
        <ele>439</ele>
        <time>2026-03-10T07:32:32Z</time>
      </trkpt>
      <trkpt lat="49.04416" lon="7.71286">
        <ele>441.6</ele>
        <time>2026-03-10T07:32:37Z</time>
      </trkpt>
      <trkpt lat="49.04418" lon="7.71277">
        <ele>442</ele>
        <time>2026-03-10T07:32:42Z</time>
      </trkpt>
      <trkpt lat="49.04419" lon="7.71274">
        <ele>441.9</ele>
        <time>2026-03-10T07:32:47Z</time>
      </trkpt>
      <trkpt lat="49.04419" lon="7.71274">
        <ele>441.9</ele>
        <time>2026-03-10T07:32:52Z</time>
      </trkpt>
      <trkpt lat="49.04419" lon="7.71274">
        <ele>441.9</ele>
        <time>2026-03-10T07:32:57Z</time>
      </trkpt>
      <trkpt lat="49.04425" lon="7.71256">
        <ele>441.2</ele>
        <time>2026-03-10T07:33:02Z</time>
      </trkpt>
      <trkpt lat="49.04425" lon="7.71255">
        <ele>441.2</ele>
        <time>2026-03-10T07:33:07Z</time>
      </trkpt>
      <trkpt lat="49.04425" lon="7.71255">
        <ele>441.2</ele>
        <time>2026-03-10T07:33:12Z</time>
      </trkpt>
      <trkpt lat="49.04425" lon="7.71255">
        <ele>441.2</ele>
        <time>2026-03-10T07:33:17Z</time>
      </trkpt>
      <trkpt lat="49.04426" lon="7.71241">
        <ele>440.5</ele>
        <time>2026-03-10T07:33:22Z</time>
      </trkpt>
      <trkpt lat="49.04426" lon="7.71238">
        <ele>440.3</ele>
        <time>2026-03-10T07:33:27Z</time>
      </trkpt>
      <trkpt lat="49.04426" lon="7.71238">
        <ele>440.3</ele>
        <time>2026-03-10T07:33:32Z</time>
      </trkpt>
      <trkpt lat="49.04423" lon="7.7123">
        <ele>440.5</ele>
        <time>2026-03-10T07:33:37Z</time>
      </trkpt>
      <trkpt lat="49.04423" lon="7.71223">
        <ele>439.9</ele>
        <time>2026-03-10T07:33:42Z</time>
      </trkpt>
      <trkpt lat="49.04421" lon="7.7122">
        <ele>440.3</ele>
        <time>2026-03-10T07:33:47Z</time>
      </trkpt>
      <trkpt lat="49.04421" lon="7.71219">
        <ele>440.2</ele>
        <time>2026-03-10T07:33:52Z</time>
      </trkpt>
      <trkpt lat="49.04422" lon="7.71219">
        <ele>439.9</ele>
        <time>2026-03-10T07:33:57Z</time>
      </trkpt>
      <trkpt lat="49.04422" lon="7.71219">
        <ele>439.9</ele>
        <time>2026-03-10T07:34:02Z</time>
      </trkpt>
      <trkpt lat="49.04424" lon="7.71217">
        <ele>439.2</ele>
        <time>2026-03-10T07:34:07Z</time>
      </trkpt>
      <trkpt lat="49.04427" lon="7.7121">
        <ele>437.8</ele>
        <time>2026-03-10T07:34:12Z</time>
      </trkpt>
      <trkpt lat="49.0443" lon="7.71204">
        <ele>436.5</ele>
        <time>2026-03-10T07:34:17Z</time>
      </trkpt>
      <trkpt lat="49.04432" lon="7.71198">
        <ele>435.5</ele>
        <time>2026-03-10T07:34:22Z</time>
      </trkpt>
      <trkpt lat="49.04434" lon="7.71192">
        <ele>434.5</ele>
        <time>2026-03-10T07:34:27Z</time>
      </trkpt>
      <trkpt lat="49.04433" lon="7.71183">
        <ele>434.1</ele>
        <time>2026-03-10T07:34:32Z</time>
      </trkpt>
      <trkpt lat="49.04434" lon="7.71178">
        <ele>433.5</ele>
        <time>2026-03-10T07:34:37Z</time>
      </trkpt>
      <trkpt lat="49.04436" lon="7.7117">
        <ele>432.4</ele>
        <time>2026-03-10T07:34:42Z</time>
      </trkpt>
      <trkpt lat="49.04437" lon="7.7117">
        <ele>432.1</ele>
        <time>2026-03-10T07:34:47Z</time>
      </trkpt>
      <trkpt lat="49.0444" lon="7.7115">
        <ele>428.3</ele>
        <time>2026-03-10T07:34:52Z</time>
      </trkpt>
      <trkpt lat="49.04441" lon="7.71138">
        <ele>426</ele>
        <time>2026-03-10T07:34:57Z</time>
      </trkpt>
      <trkpt lat="49.04439" lon="7.71125">
        <ele>424.2</ele>
        <time>2026-03-10T07:35:02Z</time>
      </trkpt>
      <trkpt lat="49.04435" lon="7.71113">
        <ele>422.6</ele>
        <time>2026-03-10T07:35:07Z</time>
      </trkpt>
      <trkpt lat="49.04432" lon="7.711">
        <ele>420.4</ele>
        <time>2026-03-10T07:35:12Z</time>
      </trkpt>
      <trkpt lat="49.04431" lon="7.71095">
        <ele>419.6</ele>
        <time>2026-03-10T07:35:17Z</time>
      </trkpt>
      <trkpt lat="49.04431" lon="7.71084">
        <ele>417.4</ele>
        <time>2026-03-10T07:35:22Z</time>
      </trkpt>
      <trkpt lat="49.04433" lon="7.71076">
        <ele>416.1</ele>
        <time>2026-03-10T07:35:27Z</time>
      </trkpt>
      <trkpt lat="49.04435" lon="7.71069">
        <ele>415.1</ele>
        <time>2026-03-10T07:35:32Z</time>
      </trkpt>
      <trkpt lat="49.04437" lon="7.71058">
        <ele>413.4</ele>
        <time>2026-03-10T07:35:37Z</time>
      </trkpt>
      <trkpt lat="49.04438" lon="7.71048">
        <ele>412</ele>
        <time>2026-03-10T07:35:42Z</time>
      </trkpt>
      <trkpt lat="49.04438" lon="7.71039">
        <ele>410.8</ele>
        <time>2026-03-10T07:35:47Z</time>
      </trkpt>
      <trkpt lat="49.04439" lon="7.71025">
        <ele>408.8</ele>
        <time>2026-03-10T07:35:52Z</time>
      </trkpt>
      <trkpt lat="49.0444" lon="7.71016">
        <ele>407.6</ele>
        <time>2026-03-10T07:35:57Z</time>
      </trkpt>
      <trkpt lat="49.0444" lon="7.71007">
        <ele>406.4</ele>
        <time>2026-03-10T07:36:02Z</time>
      </trkpt>
      <trkpt lat="49.04439" lon="7.71">
        <ele>405.3</ele>
        <time>2026-03-10T07:36:07Z</time>
      </trkpt>
      <trkpt lat="49.04435" lon="7.7099">
        <ele>403.9</ele>
        <time>2026-03-10T07:36:12Z</time>
      </trkpt>
      <trkpt lat="49.04432" lon="7.7098">
        <ele>402.4</ele>
        <time>2026-03-10T07:36:17Z</time>
      </trkpt>
      <trkpt lat="49.0443" lon="7.70969">
        <ele>400.9</ele>
        <time>2026-03-10T07:36:22Z</time>
      </trkpt>
      <trkpt lat="49.0443" lon="7.70961">
        <ele>399.9</ele>
        <time>2026-03-10T07:36:27Z</time>
      </trkpt>
      <trkpt lat="49.04431" lon="7.70947">
        <ele>398.2</ele>
        <time>2026-03-10T07:36:32Z</time>
      </trkpt>
      <trkpt lat="49.04431" lon="7.7094">
        <ele>397.3</ele>
        <time>2026-03-10T07:36:37Z</time>
      </trkpt>
      <trkpt lat="49.04429" lon="7.7093">
        <ele>395.9</ele>
        <time>2026-03-10T07:36:42Z</time>
      </trkpt>
      <trkpt lat="49.04425" lon="7.70922">
        <ele>394.5</ele>
        <time>2026-03-10T07:36:47Z</time>
      </trkpt>
      <trkpt lat="49.04422" lon="7.70917">
        <ele>393.6</ele>
        <time>2026-03-10T07:36:52Z</time>
      </trkpt>
      <trkpt lat="49.04416" lon="7.70908">
        <ele>391.6</ele>
        <time>2026-03-10T07:36:57Z</time>
      </trkpt>
      <trkpt lat="49.04413" lon="7.70901">
        <ele>389.2</ele>
        <time>2026-03-10T07:37:02Z</time>
      </trkpt>
      <trkpt lat="49.04411" lon="7.70893">
        <ele>387.2</ele>
        <time>2026-03-10T07:37:07Z</time>
      </trkpt>
      <trkpt lat="49.04411" lon="7.70888">
        <ele>386.6</ele>
        <time>2026-03-10T07:37:12Z</time>
      </trkpt>
      <trkpt lat="49.04411" lon="7.70887">
        <ele>386.5</ele>
        <time>2026-03-10T07:37:17Z</time>
      </trkpt>
      <trkpt lat="49.04411" lon="7.70887">
        <ele>386.5</ele>
        <time>2026-03-10T07:37:22Z</time>
      </trkpt>
      <trkpt lat="49.04411" lon="7.70887">
        <ele>386.5</ele>
        <time>2026-03-10T07:37:27Z</time>
      </trkpt>
      <trkpt lat="49.04411" lon="7.70872">
        <ele>384.7</ele>
        <time>2026-03-10T07:37:32Z</time>
      </trkpt>
      <trkpt lat="49.04414" lon="7.70869">
        <ele>385.9</ele>
        <time>2026-03-10T07:37:37Z</time>
      </trkpt>
      <trkpt lat="49.0442" lon="7.70864">
        <ele>387.2</ele>
        <time>2026-03-10T07:37:42Z</time>
      </trkpt>
      <trkpt lat="49.04427" lon="7.70855">
        <ele>387.3</ele>
        <time>2026-03-10T07:37:47Z</time>
      </trkpt>
      <trkpt lat="49.04432" lon="7.70847">
        <ele>387.3</ele>
        <time>2026-03-10T07:37:52Z</time>
      </trkpt>
      <trkpt lat="49.04439" lon="7.70841">
        <ele>388</ele>
        <time>2026-03-10T07:37:57Z</time>
      </trkpt>
      <trkpt lat="49.04447" lon="7.70833">
        <ele>388.8</ele>
        <time>2026-03-10T07:38:02Z</time>
      </trkpt>
      <trkpt lat="49.04455" lon="7.70824">
        <ele>390.3</ele>
        <time>2026-03-10T07:38:07Z</time>
      </trkpt>
      <trkpt lat="49.04462" lon="7.70816">
        <ele>391.8</ele>
        <time>2026-03-10T07:38:12Z</time>
      </trkpt>
      <trkpt lat="49.04468" lon="7.70808">
        <ele>393.1</ele>
        <time>2026-03-10T07:38:17Z</time>
      </trkpt>
      <trkpt lat="49.04472" lon="7.70799">
        <ele>394</ele>
        <time>2026-03-10T07:38:22Z</time>
      </trkpt>
      <trkpt lat="49.04475" lon="7.70792">
        <ele>394.8</ele>
        <time>2026-03-10T07:38:27Z</time>
      </trkpt>
      <trkpt lat="49.04474" lon="7.70786">
        <ele>394.6</ele>
        <time>2026-03-10T07:38:32Z</time>
      </trkpt>
      <trkpt lat="49.04474" lon="7.7078">
        <ele>394.7</ele>
        <time>2026-03-10T07:38:37Z</time>
      </trkpt>
      <trkpt lat="49.04478" lon="7.70821">
        <ele>395</ele>
        <time>2026-03-10T07:38:42Z</time>
      </trkpt>
      <trkpt lat="49.04478" lon="7.70821">
        <ele>395</ele>
        <time>2026-03-10T07:38:47Z</time>
      </trkpt>
      <trkpt lat="49.04481" lon="7.70816">
        <ele>395.7</ele>
        <time>2026-03-10T07:38:52Z</time>
      </trkpt>
      <trkpt lat="49.04482" lon="7.70814">
        <ele>395.9</ele>
        <time>2026-03-10T07:38:57Z</time>
      </trkpt>
      <trkpt lat="49.04481" lon="7.70807">
        <ele>395.9</ele>
        <time>2026-03-10T07:39:02Z</time>
      </trkpt>
      <trkpt lat="49.04481" lon="7.708">
        <ele>396</ele>
        <time>2026-03-10T07:39:07Z</time>
      </trkpt>
      <trkpt lat="49.04481" lon="7.70792">
        <ele>396.2</ele>
        <time>2026-03-10T07:39:12Z</time>
      </trkpt>
      <trkpt lat="49.0448" lon="7.70784">
        <ele>396.1</ele>
        <time>2026-03-10T07:39:17Z</time>
      </trkpt>
      <trkpt lat="49.04475" lon="7.70778">
        <ele>395</ele>
        <time>2026-03-10T07:39:22Z</time>
      </trkpt>
      <trkpt lat="49.04471" lon="7.70775">
        <ele>394.1</ele>
        <time>2026-03-10T07:39:27Z</time>
      </trkpt>
      <trkpt lat="49.04471" lon="7.70764">
        <ele>394.2</ele>
        <time>2026-03-10T07:39:32Z</time>
      </trkpt>
      <trkpt lat="49.04471" lon="7.70753">
        <ele>394.3</ele>
        <time>2026-03-10T07:39:37Z</time>
      </trkpt>
      <trkpt lat="49.04472" lon="7.70743">
        <ele>396</ele>
        <time>2026-03-10T07:39:42Z</time>
      </trkpt>
      <trkpt lat="49.04476" lon="7.7073">
        <ele>399.8</ele>
        <time>2026-03-10T07:39:47Z</time>
      </trkpt>
      <trkpt lat="49.04481" lon="7.70721">
        <ele>403</ele>
        <time>2026-03-10T07:39:52Z</time>
      </trkpt>
      <trkpt lat="49.04487" lon="7.70715">
        <ele>405.9</ele>
        <time>2026-03-10T07:39:57Z</time>
      </trkpt>
      <trkpt lat="49.04491" lon="7.70707">
        <ele>408.7</ele>
        <time>2026-03-10T07:40:02Z</time>
      </trkpt>
      <trkpt lat="49.04497" lon="7.70698">
        <ele>412.4</ele>
        <time>2026-03-10T07:40:07Z</time>
      </trkpt>
      <trkpt lat="49.04507" lon="7.70691">
        <ele>413.9</ele>
        <time>2026-03-10T07:40:12Z</time>
      </trkpt>
      <trkpt lat="49.04514" lon="7.70682">
        <ele>415</ele>
        <time>2026-03-10T07:40:17Z</time>
      </trkpt>
      <trkpt lat="49.0452" lon="7.70673">
        <ele>416.2</ele>
        <time>2026-03-10T07:40:22Z</time>
      </trkpt>
      <trkpt lat="49.04524" lon="7.70662">
        <ele>418.3</ele>
        <time>2026-03-10T07:40:27Z</time>
      </trkpt>
      <trkpt lat="49.04529" lon="7.70651">
        <ele>420.4</ele>
        <time>2026-03-10T07:40:32Z</time>
      </trkpt>
      <trkpt lat="49.04534" lon="7.7064">
        <ele>422.4</ele>
        <time>2026-03-10T07:40:37Z</time>
      </trkpt>
      <trkpt lat="49.0454" lon="7.7063">
        <ele>423.8</ele>
        <time>2026-03-10T07:40:42Z</time>
      </trkpt>
      <trkpt lat="49.04546" lon="7.70623">
        <ele>424.5</ele>
        <time>2026-03-10T07:40:47Z</time>
      </trkpt>
      <trkpt lat="49.04549" lon="7.70617">
        <ele>425.4</ele>
        <time>2026-03-10T07:40:52Z</time>
      </trkpt>
      <trkpt lat="49.04557" lon="7.7061">
        <ele>425.5</ele>
        <time>2026-03-10T07:40:57Z</time>
      </trkpt>
      <trkpt lat="49.04562" lon="7.70601">
        <ele>426.6</ele>
        <time>2026-03-10T07:41:02Z</time>
      </trkpt>
      <trkpt lat="49.04563" lon="7.70588">
        <ele>429.2</ele>
        <time>2026-03-10T07:41:07Z</time>
      </trkpt>
      <trkpt lat="49.04564" lon="7.70579">
        <ele>430.2</ele>
        <time>2026-03-10T07:41:12Z</time>
      </trkpt>
      <trkpt lat="49.04566" lon="7.70572">
        <ele>430.2</ele>
        <time>2026-03-10T07:41:17Z</time>
      </trkpt>
      <trkpt lat="49.04571" lon="7.70569">
        <ele>429.3</ele>
        <time>2026-03-10T07:41:22Z</time>
      </trkpt>
      <trkpt lat="49.04576" lon="7.70567">
        <ele>428.4</ele>
        <time>2026-03-10T07:41:27Z</time>
      </trkpt>
      <trkpt lat="49.04583" lon="7.70572">
        <ele>426.6</ele>
        <time>2026-03-10T07:41:32Z</time>
      </trkpt>
      <trkpt lat="49.04586" lon="7.70583">
        <ele>425.1</ele>
        <time>2026-03-10T07:41:37Z</time>
      </trkpt>
      <trkpt lat="49.04589" lon="7.70585">
        <ele>423.7</ele>
        <time>2026-03-10T07:41:42Z</time>
      </trkpt>
      <trkpt lat="49.04596" lon="7.70586">
        <ele>421.1</ele>
        <time>2026-03-10T07:41:47Z</time>
      </trkpt>
      <trkpt lat="49.04598" lon="7.70588">
        <ele>420.1</ele>
        <time>2026-03-10T07:41:52Z</time>
      </trkpt>
      <trkpt lat="49.04598" lon="7.70588">
        <ele>420.1</ele>
        <time>2026-03-10T07:41:57Z</time>
      </trkpt>
      <trkpt lat="49.04598" lon="7.70588">
        <ele>420.1</ele>
        <time>2026-03-10T07:42:02Z</time>
      </trkpt>
      <trkpt lat="49.04598" lon="7.70588">
        <ele>420.1</ele>
        <time>2026-03-10T07:42:07Z</time>
      </trkpt>
      <trkpt lat="49.04598" lon="7.70588">
        <ele>420.1</ele>
        <time>2026-03-10T07:42:12Z</time>
      </trkpt>
      <trkpt lat="49.04598" lon="7.70588">
        <ele>420.1</ele>
        <time>2026-03-10T07:42:17Z</time>
      </trkpt>
      <trkpt lat="49.04598" lon="7.70588">
        <ele>420.1</ele>
        <time>2026-03-10T07:42:22Z</time>
      </trkpt>
      <trkpt lat="49.04597" lon="7.70581">
        <ele>421.3</ele>
        <time>2026-03-10T07:42:27Z</time>
      </trkpt>
      <trkpt lat="49.04591" lon="7.70573">
        <ele>423.7</ele>
        <time>2026-03-10T07:42:32Z</time>
      </trkpt>
      <trkpt lat="49.04589" lon="7.70566">
        <ele>424.8</ele>
        <time>2026-03-10T07:42:37Z</time>
      </trkpt>
      <trkpt lat="49.04592" lon="7.70564">
        <ele>423.7</ele>
        <time>2026-03-10T07:42:42Z</time>
      </trkpt>
      <trkpt lat="49.04596" lon="7.70559">
        <ele>422.4</ele>
        <time>2026-03-10T07:42:47Z</time>
      </trkpt>
      <trkpt lat="49.04601" lon="7.70557">
        <ele>420.6</ele>
        <time>2026-03-10T07:42:52Z</time>
      </trkpt>
      <trkpt lat="49.04606" lon="7.70556">
        <ele>418.8</ele>
        <time>2026-03-10T07:42:57Z</time>
      </trkpt>
      <trkpt lat="49.04606" lon="7.70556">
        <ele>418.8</ele>
        <time>2026-03-10T07:43:02Z</time>
      </trkpt>
      <trkpt lat="49.04606" lon="7.70556">
        <ele>418.8</ele>
        <time>2026-03-10T07:43:07Z</time>
      </trkpt>
      <trkpt lat="49.04609" lon="7.70556">
        <ele>417.7</ele>
        <time>2026-03-10T07:43:12Z</time>
      </trkpt>
      <trkpt lat="49.04615" lon="7.70554">
        <ele>415.5</ele>
        <time>2026-03-10T07:43:17Z</time>
      </trkpt>
      <trkpt lat="49.04621" lon="7.70551">
        <ele>413.2</ele>
        <time>2026-03-10T07:43:22Z</time>
      </trkpt>
      <trkpt lat="49.04622" lon="7.7055">
        <ele>412.8</ele>
        <time>2026-03-10T07:43:27Z</time>
      </trkpt>
      <trkpt lat="49.04622" lon="7.7055">
        <ele>412.8</ele>
        <time>2026-03-10T07:43:32Z</time>
      </trkpt>
      <trkpt lat="49.04622" lon="7.7055">
        <ele>412.8</ele>
        <time>2026-03-10T07:43:37Z</time>
      </trkpt>
      <trkpt lat="49.04628" lon="7.70543">
        <ele>410.6</ele>
        <time>2026-03-10T07:43:42Z</time>
      </trkpt>
      <trkpt lat="49.04635" lon="7.70534">
        <ele>407.8</ele>
        <time>2026-03-10T07:43:47Z</time>
      </trkpt>
      <trkpt lat="49.04639" lon="7.70531">
        <ele>406.2</ele>
        <time>2026-03-10T07:43:52Z</time>
      </trkpt>
      <trkpt lat="49.04644" lon="7.70529">
        <ele>404.2</ele>
        <time>2026-03-10T07:43:57Z</time>
      </trkpt>
      <trkpt lat="49.04651" lon="7.70523">
        <ele>401.2</ele>
        <time>2026-03-10T07:44:02Z</time>
      </trkpt>
      <trkpt lat="49.04656" lon="7.70517">
        <ele>399</ele>
        <time>2026-03-10T07:44:07Z</time>
      </trkpt>
      <trkpt lat="49.0466" lon="7.70511">
        <ele>397.2</ele>
        <time>2026-03-10T07:44:12Z</time>
      </trkpt>
      <trkpt lat="49.04664" lon="7.70503">
        <ele>395.3</ele>
        <time>2026-03-10T07:44:17Z</time>
      </trkpt>
      <trkpt lat="49.04666" lon="7.70496">
        <ele>393.9</ele>
        <time>2026-03-10T07:44:22Z</time>
      </trkpt>
      <trkpt lat="49.04671" lon="7.70489">
        <ele>392.4</ele>
        <time>2026-03-10T07:44:27Z</time>
      </trkpt>
      <trkpt lat="49.04674" lon="7.70479">
        <ele>391</ele>
        <time>2026-03-10T07:44:32Z</time>
      </trkpt>
      <trkpt lat="49.04677" lon="7.70471">
        <ele>389.7</ele>
        <time>2026-03-10T07:44:37Z</time>
      </trkpt>
      <trkpt lat="49.0468" lon="7.70464">
        <ele>388.4</ele>
        <time>2026-03-10T07:44:42Z</time>
      </trkpt>
      <trkpt lat="49.04682" lon="7.70459">
        <ele>387.5</ele>
        <time>2026-03-10T07:44:47Z</time>
      </trkpt>
      <trkpt lat="49.04685" lon="7.70453">
        <ele>386.2</ele>
        <time>2026-03-10T07:44:52Z</time>
      </trkpt>
      <trkpt lat="49.04688" lon="7.70447">
        <ele>384.9</ele>
        <time>2026-03-10T07:44:57Z</time>
      </trkpt>
      <trkpt lat="49.0469" lon="7.70441">
        <ele>383.7</ele>
        <time>2026-03-10T07:45:02Z</time>
      </trkpt>
      <trkpt lat="49.04694" lon="7.70433">
        <ele>381.8</ele>
        <time>2026-03-10T07:45:07Z</time>
      </trkpt>
      <trkpt lat="49.04697" lon="7.70427">
        <ele>380.3</ele>
        <time>2026-03-10T07:45:12Z</time>
      </trkpt>
      <trkpt lat="49.047" lon="7.70422">
        <ele>378.8</ele>
        <time>2026-03-10T07:45:17Z</time>
      </trkpt>
      <trkpt lat="49.04702" lon="7.70416">
        <ele>377.4</ele>
        <time>2026-03-10T07:45:22Z</time>
      </trkpt>
      <trkpt lat="49.04704" lon="7.70408">
        <ele>375.6</ele>
        <time>2026-03-10T07:45:27Z</time>
      </trkpt>
      <trkpt lat="49.0471" lon="7.70404">
        <ele>373.4</ele>
        <time>2026-03-10T07:45:32Z</time>
      </trkpt>
      <trkpt lat="49.04714" lon="7.70395">
        <ele>370.9</ele>
        <time>2026-03-10T07:45:37Z</time>
      </trkpt>
      <trkpt lat="49.04718" lon="7.70387">
        <ele>368.4</ele>
        <time>2026-03-10T07:45:42Z</time>
      </trkpt>
      <trkpt lat="49.0472" lon="7.70377">
        <ele>366</ele>
        <time>2026-03-10T07:45:47Z</time>
      </trkpt>
      <trkpt lat="49.04722" lon="7.70367">
        <ele>363.6</ele>
        <time>2026-03-10T07:45:52Z</time>
      </trkpt>
      <trkpt lat="49.04722" lon="7.70358">
        <ele>361.9</ele>
        <time>2026-03-10T07:45:57Z</time>
      </trkpt>
      <trkpt lat="49.0472" lon="7.70351">
        <ele>361.3</ele>
        <time>2026-03-10T07:46:02Z</time>
      </trkpt>
      <trkpt lat="49.04718" lon="7.70346">
        <ele>361</ele>
        <time>2026-03-10T07:46:07Z</time>
      </trkpt>
      <trkpt lat="49.04717" lon="7.70342">
        <ele>360.6</ele>
        <time>2026-03-10T07:46:12Z</time>
      </trkpt>
      <trkpt lat="49.04717" lon="7.70334">
        <ele>359.2</ele>
        <time>2026-03-10T07:46:17Z</time>
      </trkpt>
      <trkpt lat="49.04721" lon="7.7033">
        <ele>357.1</ele>
        <time>2026-03-10T07:46:22Z</time>
      </trkpt>
      <trkpt lat="49.04726" lon="7.7033">
        <ele>355.4</ele>
        <time>2026-03-10T07:46:27Z</time>
      </trkpt>
      <trkpt lat="49.04731" lon="7.7033">
        <ele>353.7</ele>
        <time>2026-03-10T07:46:32Z</time>
      </trkpt>
      <trkpt lat="49.04736" lon="7.70327">
        <ele>351.3</ele>
        <time>2026-03-10T07:46:37Z</time>
      </trkpt>
      <trkpt lat="49.0474" lon="7.70322">
        <ele>348.9</ele>
        <time>2026-03-10T07:46:42Z</time>
      </trkpt>
      <trkpt lat="49.04745" lon="7.70317">
        <ele>346</ele>
        <time>2026-03-10T07:46:47Z</time>
      </trkpt>
      <trkpt lat="49.04751" lon="7.70313">
        <ele>343.6</ele>
        <time>2026-03-10T07:46:52Z</time>
      </trkpt>
      <trkpt lat="49.04757" lon="7.70309">
        <ele>343.8</ele>
        <time>2026-03-10T07:46:57Z</time>
      </trkpt>
      <trkpt lat="49.04761" lon="7.70301">
        <ele>342.7</ele>
        <time>2026-03-10T07:47:02Z</time>
      </trkpt>
      <trkpt lat="49.04763" lon="7.70291">
        <ele>340.8</ele>
        <time>2026-03-10T07:47:07Z</time>
      </trkpt>
      <trkpt lat="49.04765" lon="7.7028">
        <ele>338.5</ele>
        <time>2026-03-10T07:47:12Z</time>
      </trkpt>
      <trkpt lat="49.04767" lon="7.70271">
        <ele>336.7</ele>
        <time>2026-03-10T07:47:17Z</time>
      </trkpt>
      <trkpt lat="49.0477" lon="7.70264">
        <ele>335.5</ele>
        <time>2026-03-10T07:47:22Z</time>
      </trkpt>
      <trkpt lat="49.04774" lon="7.70258">
        <ele>334.7</ele>
        <time>2026-03-10T07:47:27Z</time>
      </trkpt>
      <trkpt lat="49.04776" lon="7.70252">
        <ele>333.5</ele>
        <time>2026-03-10T07:47:32Z</time>
      </trkpt>
      <trkpt lat="49.04779" lon="7.70247">
        <ele>333</ele>
        <time>2026-03-10T07:47:37Z</time>
      </trkpt>
      <trkpt lat="49.04783" lon="7.70247">
        <ele>333.6</ele>
        <time>2026-03-10T07:47:42Z</time>
      </trkpt>
      <trkpt lat="49.04784" lon="7.70255">
        <ele>335.6</ele>
        <time>2026-03-10T07:47:47Z</time>
      </trkpt>
      <trkpt lat="49.04784" lon="7.70256">
        <ele>335.8</ele>
        <time>2026-03-10T07:47:52Z</time>
      </trkpt>
      <trkpt lat="49.04785" lon="7.70254">
        <ele>335.5</ele>
        <time>2026-03-10T07:47:57Z</time>
      </trkpt>
      <trkpt lat="49.04787" lon="7.70251">
        <ele>335</ele>
        <time>2026-03-10T07:48:02Z</time>
      </trkpt>
      <trkpt lat="49.04792" lon="7.70252">
        <ele>336.1</ele>
        <time>2026-03-10T07:48:07Z</time>
      </trkpt>
      <trkpt lat="49.04796" lon="7.70256">
        <ele>337.7</ele>
        <time>2026-03-10T07:48:12Z</time>
      </trkpt>
      <trkpt lat="49.04799" lon="7.7026">
        <ele>339.3</ele>
        <time>2026-03-10T07:48:17Z</time>
      </trkpt>
      <trkpt lat="49.048" lon="7.7026">
        <ele>339.4</ele>
        <time>2026-03-10T07:48:22Z</time>
      </trkpt>
      <trkpt lat="49.04799" lon="7.70259">
        <ele>339</ele>
        <time>2026-03-10T07:48:27Z</time>
      </trkpt>
      <trkpt lat="49.04799" lon="7.70259">
        <ele>339</ele>
        <time>2026-03-10T07:48:32Z</time>
      </trkpt>
      <trkpt lat="49.04799" lon="7.70259">
        <ele>339</ele>
        <time>2026-03-10T07:48:37Z</time>
      </trkpt>
      <trkpt lat="49.04799" lon="7.70259">
        <ele>339</ele>
        <time>2026-03-10T07:48:42Z</time>
      </trkpt>
      <trkpt lat="49.04796" lon="7.7025">
        <ele>336.2</ele>
        <time>2026-03-10T07:48:47Z</time>
      </trkpt>
      <trkpt lat="49.04797" lon="7.7025">
        <ele>336.3</ele>
        <time>2026-03-10T07:48:52Z</time>
      </trkpt>
      <trkpt lat="49.04797" lon="7.7025">
        <ele>336.3</ele>
        <time>2026-03-10T07:48:57Z</time>
      </trkpt>
      <trkpt lat="49.04797" lon="7.7025">
        <ele>336.3</ele>
        <time>2026-03-10T07:49:02Z</time>
      </trkpt>
      <trkpt lat="49.04797" lon="7.7025">
        <ele>336.3</ele>
        <time>2026-03-10T07:49:07Z</time>
      </trkpt>
      <trkpt lat="49.04797" lon="7.7025">
        <ele>336.3</ele>
        <time>2026-03-10T07:49:12Z</time>
      </trkpt>
      <trkpt lat="49.04797" lon="7.7025">
        <ele>336.3</ele>
        <time>2026-03-10T07:49:17Z</time>
      </trkpt>
      <trkpt lat="49.04792" lon="7.70256">
        <ele>337.1</ele>
        <time>2026-03-10T07:49:22Z</time>
      </trkpt>
      <trkpt lat="49.04789" lon="7.70257">
        <ele>336.9</ele>
        <time>2026-03-10T07:49:27Z</time>
      </trkpt>
      <trkpt lat="49.04782" lon="7.70253">
        <ele>334.7</ele>
        <time>2026-03-10T07:49:32Z</time>
      </trkpt>
      <trkpt lat="49.04778" lon="7.70249">
        <ele>333.2</ele>
        <time>2026-03-10T07:49:37Z</time>
      </trkpt>
      <trkpt lat="49.04776" lon="7.70249">
        <ele>332.9</ele>
        <time>2026-03-10T07:49:42Z</time>
      </trkpt>
      <trkpt lat="49.04776" lon="7.70245">
        <ele>332.2</ele>
        <time>2026-03-10T07:49:47Z</time>
      </trkpt>
      <trkpt lat="49.04776" lon="7.70245">
        <ele>332.2</ele>
        <time>2026-03-10T07:49:52Z</time>
      </trkpt>
      <trkpt lat="49.04776" lon="7.70245">
        <ele>332.2</ele>
        <time>2026-03-10T07:49:57Z</time>
      </trkpt>
      <trkpt lat="49.04776" lon="7.70245">
        <ele>332.2</ele>
        <time>2026-03-10T07:50:02Z</time>
      </trkpt>
      <trkpt lat="49.04776" lon="7.70245">
        <ele>332.2</ele>
        <time>2026-03-10T07:50:07Z</time>
      </trkpt>
      <trkpt lat="49.04776" lon="7.70245">
        <ele>332.2</ele>
        <time>2026-03-10T07:50:12Z</time>
      </trkpt>
      <trkpt lat="49.04776" lon="7.70245">
        <ele>332.2</ele>
        <time>2026-03-10T07:50:17Z</time>
      </trkpt>
      <trkpt lat="49.04776" lon="7.70245">
        <ele>332.2</ele>
        <time>2026-03-10T07:50:22Z</time>
      </trkpt>
      <trkpt lat="49.04776" lon="7.70245">
        <ele>332.2</ele>
        <time>2026-03-10T07:50:27Z</time>
      </trkpt>
      <trkpt lat="49.04776" lon="7.70245">
        <ele>332.2</ele>
        <time>2026-03-10T07:50:32Z</time>
      </trkpt>
      <trkpt lat="49.04776" lon="7.70245">
        <ele>332.2</ele>
        <time>2026-03-10T07:50:37Z</time>
      </trkpt>
      <trkpt lat="49.04776" lon="7.70245">
        <ele>332.2</ele>
        <time>2026-03-10T07:50:42Z</time>
      </trkpt>
      <trkpt lat="49.04776" lon="7.70238">
        <ele>330.9</ele>
        <time>2026-03-10T07:50:47Z</time>
      </trkpt>
      <trkpt lat="49.04775" lon="7.70229">
        <ele>329.1</ele>
        <time>2026-03-10T07:50:52Z</time>
      </trkpt>
      <trkpt lat="49.04775" lon="7.70221">
        <ele>327.7</ele>
        <time>2026-03-10T07:50:57Z</time>
      </trkpt>
      <trkpt lat="49.04775" lon="7.70213">
        <ele>326.3</ele>
        <time>2026-03-10T07:51:02Z</time>
      </trkpt>
      <trkpt lat="49.04776" lon="7.70207">
        <ele>325.3</ele>
        <time>2026-03-10T07:51:07Z</time>
      </trkpt>
      <trkpt lat="49.04778" lon="7.70204">
        <ele>325.1</ele>
        <time>2026-03-10T07:51:12Z</time>
      </trkpt>
      <trkpt lat="49.04779" lon="7.70203">
        <ele>325</ele>
        <time>2026-03-10T07:51:17Z</time>
      </trkpt>
      <trkpt lat="49.04779" lon="7.70203">
        <ele>325</ele>
        <time>2026-03-10T07:51:22Z</time>
      </trkpt>
      <trkpt lat="49.04779" lon="7.70203">
        <ele>325</ele>
        <time>2026-03-10T07:51:27Z</time>
      </trkpt>
      <trkpt lat="49.04779" lon="7.70203">
        <ele>325</ele>
        <time>2026-03-10T07:51:32Z</time>
      </trkpt>
      <trkpt lat="49.04779" lon="7.70203">
        <ele>325</ele>
        <time>2026-03-10T07:51:37Z</time>
      </trkpt>
      <trkpt lat="49.04779" lon="7.70203">
        <ele>325</ele>
        <time>2026-03-10T07:51:42Z</time>
      </trkpt>
      <trkpt lat="49.04779" lon="7.70203">
        <ele>325</ele>
        <time>2026-03-10T07:51:47Z</time>
      </trkpt>
      <trkpt lat="49.04779" lon="7.70203">
        <ele>325</ele>
        <time>2026-03-10T07:51:52Z</time>
      </trkpt>
      <trkpt lat="49.04781" lon="7.7021">
        <ele>326.6</ele>
        <time>2026-03-10T07:51:57Z</time>
      </trkpt>
      <trkpt lat="49.0478" lon="7.70221">
        <ele>328.4</ele>
        <time>2026-03-10T07:52:02Z</time>
      </trkpt>
      <trkpt lat="49.04778" lon="7.70232">
        <ele>330.1</ele>
        <time>2026-03-10T07:52:07Z</time>
      </trkpt>
      <trkpt lat="49.04778" lon="7.7024">
        <ele>331.6</ele>
        <time>2026-03-10T07:52:12Z</time>
      </trkpt>
      <trkpt lat="49.04778" lon="7.70248">
        <ele>333</ele>
        <time>2026-03-10T07:52:17Z</time>
      </trkpt>
      <trkpt lat="49.04774" lon="7.70256">
        <ele>334.2</ele>
        <time>2026-03-10T07:52:22Z</time>
      </trkpt>
      <trkpt lat="49.04773" lon="7.70261">
        <ele>335.3</ele>
        <time>2026-03-10T07:52:27Z</time>
      </trkpt>
      <trkpt lat="49.0477" lon="7.70269">
        <ele>336.7</ele>
        <time>2026-03-10T07:52:32Z</time>
      </trkpt>
      <trkpt lat="49.04767" lon="7.70275">
        <ele>337.7</ele>
        <time>2026-03-10T07:52:37Z</time>
      </trkpt>
      <trkpt lat="49.04761" lon="7.7028">
        <ele>337.8</ele>
        <time>2026-03-10T07:52:42Z</time>
      </trkpt>
      <trkpt lat="49.04757" lon="7.70284">
        <ele>338</ele>
        <time>2026-03-10T07:52:47Z</time>
      </trkpt>
      <trkpt lat="49.04751" lon="7.70289">
        <ele>338.1</ele>
        <time>2026-03-10T07:52:52Z</time>
      </trkpt>
      <trkpt lat="49.04749" lon="7.70295">
        <ele>339.6</ele>
        <time>2026-03-10T07:52:57Z</time>
      </trkpt>
      <trkpt lat="49.04745" lon="7.70299">
        <ele>342</ele>
        <time>2026-03-10T07:53:02Z</time>
      </trkpt>
      <trkpt lat="49.0474" lon="7.70299">
        <ele>343.8</ele>
        <time>2026-03-10T07:53:07Z</time>
      </trkpt>
      <trkpt lat="49.04734" lon="7.70301">
        <ele>346.5</ele>
        <time>2026-03-10T07:53:12Z</time>
      </trkpt>
      <trkpt lat="49.04727" lon="7.70304">
        <ele>349.6</ele>
        <time>2026-03-10T07:53:17Z</time>
      </trkpt>
      <trkpt lat="49.04722" lon="7.70307">
        <ele>352</ele>
        <time>2026-03-10T07:53:22Z</time>
      </trkpt>
      <trkpt lat="49.04717" lon="7.70306">
        <ele>353.6</ele>
        <time>2026-03-10T07:53:27Z</time>
      </trkpt>
      <trkpt lat="49.04713" lon="7.70308">
        <ele>355.5</ele>
        <time>2026-03-10T07:53:32Z</time>
      </trkpt>
      <trkpt lat="49.0471" lon="7.70311">
        <ele>357.1</ele>
        <time>2026-03-10T07:53:37Z</time>
      </trkpt>
      <trkpt lat="49.04707" lon="7.70312">
        <ele>358.4</ele>
        <time>2026-03-10T07:53:42Z</time>
      </trkpt>
      <trkpt lat="49.04703" lon="7.70315">
        <ele>360.4</ele>
        <time>2026-03-10T07:53:47Z</time>
      </trkpt>
      <trkpt lat="49.047" lon="7.70321">
        <ele>362.5</ele>
        <time>2026-03-10T07:53:52Z</time>
      </trkpt>
      <trkpt lat="49.04696" lon="7.70324">
        <ele>364.5</ele>
        <time>2026-03-10T07:53:57Z</time>
      </trkpt>
      <trkpt lat="49.04693" lon="7.70328">
        <ele>366.2</ele>
        <time>2026-03-10T07:54:02Z</time>
      </trkpt>
      <trkpt lat="49.04691" lon="7.70333">
        <ele>367.8</ele>
        <time>2026-03-10T07:54:07Z</time>
      </trkpt>
      <trkpt lat="49.04686" lon="7.70339">
        <ele>370.3</ele>
        <time>2026-03-10T07:54:12Z</time>
      </trkpt>
      <trkpt lat="49.04682" lon="7.7035">
        <ele>373.1</ele>
        <time>2026-03-10T07:54:17Z</time>
      </trkpt>
      <trkpt lat="49.0468" lon="7.70359">
        <ele>375</ele>
        <time>2026-03-10T07:54:22Z</time>
      </trkpt>
      <trkpt lat="49.04678" lon="7.70365">
        <ele>376.4</ele>
        <time>2026-03-10T07:54:27Z</time>
      </trkpt>
      <trkpt lat="49.04675" lon="7.70371">
        <ele>378.1</ele>
        <time>2026-03-10T07:54:32Z</time>
      </trkpt>
      <trkpt lat="49.04673" lon="7.70373">
        <ele>378.9</ele>
        <time>2026-03-10T07:54:37Z</time>
      </trkpt>
      <trkpt lat="49.04673" lon="7.70373">
        <ele>378.9</ele>
        <time>2026-03-10T07:54:42Z</time>
      </trkpt>
      <trkpt lat="49.04663" lon="7.70378">
        <ele>383</ele>
        <time>2026-03-10T07:54:47Z</time>
      </trkpt>
      <trkpt lat="49.04657" lon="7.70382">
        <ele>386.1</ele>
        <time>2026-03-10T07:54:52Z</time>
      </trkpt>
      <trkpt lat="49.04654" lon="7.70385">
        <ele>387.8</ele>
        <time>2026-03-10T07:54:57Z</time>
      </trkpt>
      <trkpt lat="49.0465" lon="7.70386">
        <ele>389.7</ele>
        <time>2026-03-10T07:55:02Z</time>
      </trkpt>
      <trkpt lat="49.04645" lon="7.70388">
        <ele>392.1</ele>
        <time>2026-03-10T07:55:07Z</time>
      </trkpt>
      <trkpt lat="49.04639" lon="7.70386">
        <ele>394.5</ele>
        <time>2026-03-10T07:55:12Z</time>
      </trkpt>
      <trkpt lat="49.04633" lon="7.70376">
        <ele>396.1</ele>
        <time>2026-03-10T07:55:17Z</time>
      </trkpt>
      <trkpt lat="49.04628" lon="7.70363">
        <ele>396.9</ele>
        <time>2026-03-10T07:55:22Z</time>
      </trkpt>
      <trkpt lat="49.04626" lon="7.7035">
        <ele>396.3</ele>
        <time>2026-03-10T07:55:27Z</time>
      </trkpt>
      <trkpt lat="49.04626" lon="7.70339">
        <ele>395.2</ele>
        <time>2026-03-10T07:55:32Z</time>
      </trkpt>
      <trkpt lat="49.04626" lon="7.70331">
        <ele>394</ele>
        <time>2026-03-10T07:55:37Z</time>
      </trkpt>
      <trkpt lat="49.04627" lon="7.70325">
        <ele>392.3</ele>
        <time>2026-03-10T07:55:42Z</time>
      </trkpt>
      <trkpt lat="49.04628" lon="7.70313">
        <ele>389.3</ele>
        <time>2026-03-10T07:55:47Z</time>
      </trkpt>
      <trkpt lat="49.04627" lon="7.70297">
        <ele>386.3</ele>
        <time>2026-03-10T07:55:52Z</time>
      </trkpt>
      <trkpt lat="49.04623" lon="7.70283">
        <ele>384.9</ele>
        <time>2026-03-10T07:55:57Z</time>
      </trkpt>
      <trkpt lat="49.04622" lon="7.70272">
        <ele>382.9</ele>
        <time>2026-03-10T07:56:02Z</time>
      </trkpt>
      <trkpt lat="49.04621" lon="7.7026">
        <ele>380.6</ele>
        <time>2026-03-10T07:56:07Z</time>
      </trkpt>
      <trkpt lat="49.04621" lon="7.70249">
        <ele>378.1</ele>
        <time>2026-03-10T07:56:12Z</time>
      </trkpt>
      <trkpt lat="49.0462" lon="7.70239">
        <ele>375.5</ele>
        <time>2026-03-10T07:56:17Z</time>
      </trkpt>
      <trkpt lat="49.0462" lon="7.70233">
        <ele>373.8</ele>
        <time>2026-03-10T07:56:22Z</time>
      </trkpt>
      <trkpt lat="49.0462" lon="7.70228">
        <ele>372.3</ele>
        <time>2026-03-10T07:56:27Z</time>
      </trkpt>
      <trkpt lat="49.04618" lon="7.70221">
        <ele>370.9</ele>
        <time>2026-03-10T07:56:32Z</time>
      </trkpt>
      <trkpt lat="49.04615" lon="7.70211">
        <ele>368.9</ele>
        <time>2026-03-10T07:56:37Z</time>
      </trkpt>
      <trkpt lat="49.04612" lon="7.702">
        <ele>366.4</ele>
        <time>2026-03-10T07:56:42Z</time>
      </trkpt>
      <trkpt lat="49.04611" lon="7.70192">
        <ele>364.3</ele>
        <time>2026-03-10T07:56:47Z</time>
      </trkpt>
      <trkpt lat="49.04609" lon="7.70181">
        <ele>361.5</ele>
        <time>2026-03-10T07:56:52Z</time>
      </trkpt>
      <trkpt lat="49.04606" lon="7.7017">
        <ele>358.9</ele>
        <time>2026-03-10T07:56:57Z</time>
      </trkpt>
      <trkpt lat="49.04602" lon="7.70158">
        <ele>355.7</ele>
        <time>2026-03-10T07:57:02Z</time>
      </trkpt>
      <trkpt lat="49.04599" lon="7.70147">
        <ele>352.4</ele>
        <time>2026-03-10T07:57:07Z</time>
      </trkpt>
      <trkpt lat="49.04596" lon="7.7014">
        <ele>350.5</ele>
        <time>2026-03-10T07:57:12Z</time>
      </trkpt>
      <trkpt lat="49.04592" lon="7.7013">
        <ele>347.5</ele>
        <time>2026-03-10T07:57:17Z</time>
      </trkpt>
      <trkpt lat="49.04588" lon="7.70121">
        <ele>344.8</ele>
        <time>2026-03-10T07:57:22Z</time>
      </trkpt>
      <trkpt lat="49.04583" lon="7.70113">
        <ele>342.4</ele>
        <time>2026-03-10T07:57:27Z</time>
      </trkpt>
      <trkpt lat="49.04578" lon="7.70105">
        <ele>339.3</ele>
        <time>2026-03-10T07:57:32Z</time>
      </trkpt>
      <trkpt lat="49.04572" lon="7.70098">
        <ele>336.6</ele>
        <time>2026-03-10T07:57:37Z</time>
      </trkpt>
      <trkpt lat="49.04567" lon="7.7009">
        <ele>333.5</ele>
        <time>2026-03-10T07:57:42Z</time>
      </trkpt>
      <trkpt lat="49.04561" lon="7.70082">
        <ele>330.6</ele>
        <time>2026-03-10T07:57:47Z</time>
      </trkpt>
      <trkpt lat="49.04554" lon="7.70073">
        <ele>327.7</ele>
        <time>2026-03-10T07:57:52Z</time>
      </trkpt>
      <trkpt lat="49.0455" lon="7.70064">
        <ele>324.9</ele>
        <time>2026-03-10T07:57:57Z</time>
      </trkpt>
      <trkpt lat="49.04543" lon="7.70059">
        <ele>323.3</ele>
        <time>2026-03-10T07:58:02Z</time>
      </trkpt>
      <trkpt lat="49.04536" lon="7.70054">
        <ele>321.6</ele>
        <time>2026-03-10T07:58:07Z</time>
      </trkpt>
      <trkpt lat="49.0453" lon="7.7005">
        <ele>320.3</ele>
        <time>2026-03-10T07:58:12Z</time>
      </trkpt>
      <trkpt lat="49.04523" lon="7.70046">
        <ele>319</ele>
        <time>2026-03-10T07:58:17Z</time>
      </trkpt>
      <trkpt lat="49.04517" lon="7.70043">
        <ele>318</ele>
        <time>2026-03-10T07:58:22Z</time>
      </trkpt>
      <trkpt lat="49.0451" lon="7.7004">
        <ele>317</ele>
        <time>2026-03-10T07:58:27Z</time>
      </trkpt>
      <trkpt lat="49.04503" lon="7.70035">
        <ele>315.4</ele>
        <time>2026-03-10T07:58:32Z</time>
      </trkpt>
      <trkpt lat="49.04495" lon="7.70032">
        <ele>314.6</ele>
        <time>2026-03-10T07:58:37Z</time>
      </trkpt>
      <trkpt lat="49.04488" lon="7.70031">
        <ele>314.5</ele>
        <time>2026-03-10T07:58:42Z</time>
      </trkpt>
      <trkpt lat="49.04483" lon="7.70032">
        <ele>315.1</ele>
        <time>2026-03-10T07:58:47Z</time>
      </trkpt>
      <trkpt lat="49.04475" lon="7.70033">
        <ele>315.7</ele>
        <time>2026-03-10T07:58:52Z</time>
      </trkpt>
      <trkpt lat="49.04468" lon="7.70032">
        <ele>315.7</ele>
        <time>2026-03-10T07:58:57Z</time>
      </trkpt>
      <trkpt lat="49.0446" lon="7.7003">
        <ele>315.4</ele>
        <time>2026-03-10T07:59:02Z</time>
      </trkpt>
      <trkpt lat="49.04451" lon="7.70027">
        <ele>314.9</ele>
        <time>2026-03-10T07:59:07Z</time>
      </trkpt>
      <trkpt lat="49.04444" lon="7.70024">
        <ele>314.4</ele>
        <time>2026-03-10T07:59:12Z</time>
      </trkpt>
      <trkpt lat="49.04438" lon="7.70021">
        <ele>313.8</ele>
        <time>2026-03-10T07:59:17Z</time>
      </trkpt>
      <trkpt lat="49.04431" lon="7.70018">
        <ele>313.3</ele>
        <time>2026-03-10T07:59:22Z</time>
      </trkpt>
      <trkpt lat="49.04422" lon="7.70016">
        <ele>313.1</ele>
        <time>2026-03-10T07:59:27Z</time>
      </trkpt>
      <trkpt lat="49.04416" lon="7.70016">
        <ele>313.5</ele>
        <time>2026-03-10T07:59:32Z</time>
      </trkpt>
      <trkpt lat="49.0441" lon="7.70016">
        <ele>314</ele>
        <time>2026-03-10T07:59:37Z</time>
      </trkpt>
      <trkpt lat="49.04402" lon="7.70017">
        <ele>315</ele>
        <time>2026-03-10T07:59:42Z</time>
      </trkpt>
      <trkpt lat="49.04392" lon="7.70014">
        <ele>315.1</ele>
        <time>2026-03-10T07:59:47Z</time>
      </trkpt>
      <trkpt lat="49.04385" lon="7.70009">
        <ele>314.4</ele>
        <time>2026-03-10T07:59:52Z</time>
      </trkpt>
      <trkpt lat="49.04377" lon="7.70002">
        <ele>313.3</ele>
        <time>2026-03-10T07:59:57Z</time>
      </trkpt>
      <trkpt lat="49.04369" lon="7.69993">
        <ele>311.8</ele>
        <time>2026-03-10T08:00:02Z</time>
      </trkpt>
      <trkpt lat="49.04363" lon="7.69985">
        <ele>310.3</ele>
        <time>2026-03-10T08:00:07Z</time>
      </trkpt>
      <trkpt lat="49.04356" lon="7.69977">
        <ele>308.8</ele>
        <time>2026-03-10T08:00:12Z</time>
      </trkpt>
      <trkpt lat="49.04349" lon="7.6997">
        <ele>307.6</ele>
        <time>2026-03-10T08:00:17Z</time>
      </trkpt>
      <trkpt lat="49.04343" lon="7.69963">
        <ele>306.4</ele>
        <time>2026-03-10T08:00:22Z</time>
      </trkpt>
      <trkpt lat="49.04338" lon="7.69958">
        <ele>305.5</ele>
        <time>2026-03-10T08:00:27Z</time>
      </trkpt>
      <trkpt lat="49.04332" lon="7.69955">
        <ele>305.2</ele>
        <time>2026-03-10T08:00:32Z</time>
      </trkpt>
      <trkpt lat="49.04327" lon="7.6995">
        <ele>304.1</ele>
        <time>2026-03-10T08:00:37Z</time>
      </trkpt>
      <trkpt lat="49.04322" lon="7.69944">
        <ele>302.7</ele>
        <time>2026-03-10T08:00:42Z</time>
      </trkpt>
      <trkpt lat="49.04316" lon="7.69937">
        <ele>301.2</ele>
        <time>2026-03-10T08:00:47Z</time>
      </trkpt>
      <trkpt lat="49.0431" lon="7.6993">
        <ele>299.7</ele>
        <time>2026-03-10T08:00:52Z</time>
      </trkpt>
      <trkpt lat="49.04304" lon="7.69922">
        <ele>298.1</ele>
        <time>2026-03-10T08:00:57Z</time>
      </trkpt>
      <trkpt lat="49.04297" lon="7.69917">
        <ele>297.3</ele>
        <time>2026-03-10T08:01:02Z</time>
      </trkpt>
      <trkpt lat="49.0429" lon="7.69913">
        <ele>296.6</ele>
        <time>2026-03-10T08:01:07Z</time>
      </trkpt>
      <trkpt lat="49.04284" lon="7.69906">
        <ele>295</ele>
        <time>2026-03-10T08:01:12Z</time>
      </trkpt>
      <trkpt lat="49.04276" lon="7.699">
        <ele>293.8</ele>
        <time>2026-03-10T08:01:17Z</time>
      </trkpt>
      <trkpt lat="49.0427" lon="7.69895">
        <ele>292.8</ele>
        <time>2026-03-10T08:01:22Z</time>
      </trkpt>
      <trkpt lat="49.04262" lon="7.69892">
        <ele>292.4</ele>
        <time>2026-03-10T08:01:27Z</time>
      </trkpt>
      <trkpt lat="49.04255" lon="7.69889">
        <ele>292</ele>
        <time>2026-03-10T08:01:32Z</time>
      </trkpt>
      <trkpt lat="49.04248" lon="7.69887">
        <ele>291.9</ele>
        <time>2026-03-10T08:01:37Z</time>
      </trkpt>
      <trkpt lat="49.04242" lon="7.69887">
        <ele>292</ele>
        <time>2026-03-10T08:01:42Z</time>
      </trkpt>
      <trkpt lat="49.04234" lon="7.69885">
        <ele>291.7</ele>
        <time>2026-03-10T08:01:47Z</time>
      </trkpt>
      <trkpt lat="49.04226" lon="7.69881">
        <ele>290.8</ele>
        <time>2026-03-10T08:01:52Z</time>
      </trkpt>
      <trkpt lat="49.04217" lon="7.69873">
        <ele>288.7</ele>
        <time>2026-03-10T08:01:57Z</time>
      </trkpt>
      <trkpt lat="49.0421" lon="7.69866">
        <ele>286.9</ele>
        <time>2026-03-10T08:02:02Z</time>
      </trkpt>
      <trkpt lat="49.04203" lon="7.69861">
        <ele>285.6</ele>
        <time>2026-03-10T08:02:07Z</time>
      </trkpt>
      <trkpt lat="49.04198" lon="7.69857">
        <ele>284.5</ele>
        <time>2026-03-10T08:02:12Z</time>
      </trkpt>
      <trkpt lat="49.04193" lon="7.69852">
        <ele>283.1</ele>
        <time>2026-03-10T08:02:17Z</time>
      </trkpt>
      <trkpt lat="49.04187" lon="7.69849">
        <ele>282.4</ele>
        <time>2026-03-10T08:02:22Z</time>
      </trkpt>
      <trkpt lat="49.0418" lon="7.69845">
        <ele>281.3</ele>
        <time>2026-03-10T08:02:27Z</time>
      </trkpt>
      <trkpt lat="49.04172" lon="7.6984">
        <ele>279.9</ele>
        <time>2026-03-10T08:02:32Z</time>
      </trkpt>
      <trkpt lat="49.04165" lon="7.69834">
        <ele>278.1</ele>
        <time>2026-03-10T08:02:37Z</time>
      </trkpt>
      <trkpt lat="49.04159" lon="7.6983">
        <ele>277.2</ele>
        <time>2026-03-10T08:02:42Z</time>
      </trkpt>
      <trkpt lat="49.04155" lon="7.69826">
        <ele>276.5</ele>
        <time>2026-03-10T08:02:47Z</time>
      </trkpt>
      <trkpt lat="49.04153" lon="7.69822">
        <ele>275.8</ele>
        <time>2026-03-10T08:02:52Z</time>
      </trkpt>
      <trkpt lat="49.04152" lon="7.69822">
        <ele>275.8</ele>
        <time>2026-03-10T08:02:57Z</time>
      </trkpt>
      <trkpt lat="49.04152" lon="7.69822">
        <ele>275.8</ele>
        <time>2026-03-10T08:03:02Z</time>
      </trkpt>
      <trkpt lat="49.04152" lon="7.69822">
        <ele>275.8</ele>
        <time>2026-03-10T08:03:07Z</time>
      </trkpt>
      <trkpt lat="49.04152" lon="7.69822">
        <ele>275.8</ele>
        <time>2026-03-10T08:03:12Z</time>
      </trkpt>
      <trkpt lat="49.04152" lon="7.69822">
        <ele>275.8</ele>
        <time>2026-03-10T08:03:17Z</time>
      </trkpt>
      <trkpt lat="49.04152" lon="7.69822">
        <ele>275.8</ele>
        <time>2026-03-10T08:03:22Z</time>
      </trkpt>
      <trkpt lat="49.04152" lon="7.69822">
        <ele>275.8</ele>
        <time>2026-03-10T08:03:27Z</time>
      </trkpt>
      <trkpt lat="49.04152" lon="7.69822">
        <ele>275.8</ele>
        <time>2026-03-10T08:03:32Z</time>
      </trkpt>
      <trkpt lat="49.04152" lon="7.69822">
        <ele>275.8</ele>
        <time>2026-03-10T08:03:37Z</time>
      </trkpt>
      <trkpt lat="49.04152" lon="7.69822">
        <ele>275.8</ele>
        <time>2026-03-10T08:03:42Z</time>
      </trkpt>
      <trkpt lat="49.04152" lon="7.69822">
        <ele>275.8</ele>
        <time>2026-03-10T08:03:47Z</time>
      </trkpt>
      <trkpt lat="49.04152" lon="7.69822">
        <ele>275.8</ele>
        <time>2026-03-10T08:03:52Z</time>
      </trkpt>
      <trkpt lat="49.04144" lon="7.69824">
        <ele>275.8</ele>
        <time>2026-03-10T08:03:57Z</time>
      </trkpt>
      <trkpt lat="49.04143" lon="7.69824">
        <ele>275.7</ele>
        <time>2026-03-10T08:04:02Z</time>
      </trkpt>
      <trkpt lat="49.04143" lon="7.69824">
        <ele>275.7</ele>
        <time>2026-03-10T08:04:07Z</time>
      </trkpt>
      <trkpt lat="49.04136" lon="7.69821">
        <ele>275</ele>
        <time>2026-03-10T08:04:12Z</time>
      </trkpt>
      <trkpt lat="49.04129" lon="7.69817">
        <ele>274.1</ele>
        <time>2026-03-10T08:04:17Z</time>
      </trkpt>
      <trkpt lat="49.04122" lon="7.69816">
        <ele>273.7</ele>
        <time>2026-03-10T08:04:22Z</time>
      </trkpt>
      <trkpt lat="49.04114" lon="7.69812">
        <ele>272.7</ele>
        <time>2026-03-10T08:04:27Z</time>
      </trkpt>
      <trkpt lat="49.04108" lon="7.69809">
        <ele>272</ele>
        <time>2026-03-10T08:04:32Z</time>
      </trkpt>
      <trkpt lat="49.04103" lon="7.69805">
        <ele>271.1</ele>
        <time>2026-03-10T08:04:37Z</time>
      </trkpt>
      <trkpt lat="49.04097" lon="7.69801">
        <ele>270.2</ele>
        <time>2026-03-10T08:04:42Z</time>
      </trkpt>
      <trkpt lat="49.0409" lon="7.69794">
        <ele>268.7</ele>
        <time>2026-03-10T08:04:47Z</time>
      </trkpt>
      <trkpt lat="49.04082" lon="7.69788">
        <ele>267.2</ele>
        <time>2026-03-10T08:04:52Z</time>
      </trkpt>
      <trkpt lat="49.04074" lon="7.69785">
        <ele>265.7</ele>
        <time>2026-03-10T08:04:57Z</time>
      </trkpt>
      <trkpt lat="49.04067" lon="7.69785">
        <ele>264.8</ele>
        <time>2026-03-10T08:05:02Z</time>
      </trkpt>
      <trkpt lat="49.0406" lon="7.69785">
        <ele>264</ele>
        <time>2026-03-10T08:05:07Z</time>
      </trkpt>
      <trkpt lat="49.04053" lon="7.69783">
        <ele>262.8</ele>
        <time>2026-03-10T08:05:12Z</time>
      </trkpt>
      <trkpt lat="49.04046" lon="7.69782">
        <ele>261.7</ele>
        <time>2026-03-10T08:05:17Z</time>
      </trkpt>
      <trkpt lat="49.04038" lon="7.69781">
        <ele>260.6</ele>
        <time>2026-03-10T08:05:22Z</time>
      </trkpt>
      <trkpt lat="49.04032" lon="7.69781">
        <ele>259.8</ele>
        <time>2026-03-10T08:05:27Z</time>
      </trkpt>
      <trkpt lat="49.04025" lon="7.69782">
        <ele>259.1</ele>
        <time>2026-03-10T08:05:32Z</time>
      </trkpt>
      <trkpt lat="49.04017" lon="7.69782">
        <ele>258.1</ele>
        <time>2026-03-10T08:05:37Z</time>
      </trkpt>
      <trkpt lat="49.04009" lon="7.69781">
        <ele>257</ele>
        <time>2026-03-10T08:05:42Z</time>
      </trkpt>
      <trkpt lat="49.04003" lon="7.69779">
        <ele>255.9</ele>
        <time>2026-03-10T08:05:47Z</time>
      </trkpt>
      <trkpt lat="49.04002" lon="7.69776">
        <ele>255.3</ele>
        <time>2026-03-10T08:05:52Z</time>
      </trkpt>
      <trkpt lat="49.04002" lon="7.69772">
        <ele>254.7</ele>
        <time>2026-03-10T08:05:57Z</time>
      </trkpt>
      <trkpt lat="49.03999" lon="7.6976">
        <ele>252.5</ele>
        <time>2026-03-10T08:06:02Z</time>
      </trkpt>
      <trkpt lat="49.03993" lon="7.69754">
        <ele>251.6</ele>
        <time>2026-03-10T08:06:07Z</time>
      </trkpt>
      <trkpt lat="49.03987" lon="7.69752">
        <ele>251.3</ele>
        <time>2026-03-10T08:06:12Z</time>
      </trkpt>
      <trkpt lat="49.03982" lon="7.69751">
        <ele>251.1</ele>
        <time>2026-03-10T08:06:17Z</time>
      </trkpt>
      <trkpt lat="49.03974" lon="7.69748">
        <ele>251.2</ele>
        <time>2026-03-10T08:06:22Z</time>
      </trkpt>
      <trkpt lat="49.03968" lon="7.69746">
        <ele>251.4</ele>
        <time>2026-03-10T08:06:27Z</time>
      </trkpt>
      <trkpt lat="49.03962" lon="7.69743">
        <ele>251.6</ele>
        <time>2026-03-10T08:06:32Z</time>
      </trkpt>
      <trkpt lat="49.03959" lon="7.69738">
        <ele>252.1</ele>
        <time>2026-03-10T08:06:37Z</time>
      </trkpt>
      <trkpt lat="49.03953" lon="7.69735">
        <ele>252.3</ele>
        <time>2026-03-10T08:06:42Z</time>
      </trkpt>
      <trkpt lat="49.03948" lon="7.69735">
        <ele>252.3</ele>
        <time>2026-03-10T08:06:47Z</time>
      </trkpt>
      <trkpt lat="49.03948" lon="7.69735">
        <ele>252.3</ele>
        <time>2026-03-10T08:06:52Z</time>
      </trkpt>
      <trkpt lat="49.03948" lon="7.69735">
        <ele>252.3</ele>
        <time>2026-03-10T08:06:57Z</time>
      </trkpt>
      <trkpt lat="49.03948" lon="7.69735">
        <ele>252.3</ele>
        <time>2026-03-10T08:07:02Z</time>
      </trkpt>
      <trkpt lat="49.03948" lon="7.69735">
        <ele>252.3</ele>
        <time>2026-03-10T08:07:07Z</time>
      </trkpt>
      <trkpt lat="49.03948" lon="7.69735">
        <ele>252.3</ele>
        <time>2026-03-10T08:07:12Z</time>
      </trkpt>
      <trkpt lat="49.03948" lon="7.69735">
        <ele>252.3</ele>
        <time>2026-03-10T08:07:17Z</time>
      </trkpt>
      <trkpt lat="49.03948" lon="7.69735">
        <ele>252.3</ele>
        <time>2026-03-10T08:07:22Z</time>
      </trkpt>
      <trkpt lat="49.03944" lon="7.6973">
        <ele>252.7</ele>
        <time>2026-03-10T08:07:27Z</time>
      </trkpt>
      <trkpt lat="49.03944" lon="7.6973">
        <ele>252.7</ele>
        <time>2026-03-10T08:07:32Z</time>
      </trkpt>
      <trkpt lat="49.03944" lon="7.6973">
        <ele>252.7</ele>
        <time>2026-03-10T08:07:37Z</time>
      </trkpt>
      <trkpt lat="49.03927" lon="7.69727">
        <ele>252.8</ele>
        <time>2026-03-10T08:07:42Z</time>
      </trkpt>
      <trkpt lat="49.03918" lon="7.69725">
        <ele>252.8</ele>
        <time>2026-03-10T08:07:47Z</time>
      </trkpt>
      <trkpt lat="49.0391" lon="7.69726">
        <ele>252.5</ele>
        <time>2026-03-10T08:07:52Z</time>
      </trkpt>
      <trkpt lat="49.03903" lon="7.69729">
        <ele>252</ele>
        <time>2026-03-10T08:07:57Z</time>
      </trkpt>
      <trkpt lat="49.03895" lon="7.69729">
        <ele>251.7</ele>
        <time>2026-03-10T08:08:02Z</time>
      </trkpt>
      <trkpt lat="49.03888" lon="7.69726">
        <ele>251.6</ele>
        <time>2026-03-10T08:08:07Z</time>
      </trkpt>
      <trkpt lat="49.03882" lon="7.69723">
        <ele>251.6</ele>
        <time>2026-03-10T08:08:12Z</time>
      </trkpt>
      <trkpt lat="49.03879" lon="7.69721">
        <ele>251.6</ele>
        <time>2026-03-10T08:08:17Z</time>
      </trkpt>
      <trkpt lat="49.03876" lon="7.69718">
        <ele>251.7</ele>
        <time>2026-03-10T08:08:22Z</time>
      </trkpt>
      <trkpt lat="49.03872" lon="7.69718">
        <ele>251.5</ele>
        <time>2026-03-10T08:08:27Z</time>
      </trkpt>
      <trkpt lat="49.03867" lon="7.69718">
        <ele>251.3</ele>
        <time>2026-03-10T08:08:32Z</time>
      </trkpt>
      <trkpt lat="49.03862" lon="7.69716">
        <ele>251.2</ele>
        <time>2026-03-10T08:08:37Z</time>
      </trkpt>
      <trkpt lat="49.03856" lon="7.69713">
        <ele>251.2</ele>
        <time>2026-03-10T08:08:42Z</time>
      </trkpt>
      <trkpt lat="49.03853" lon="7.69711">
        <ele>251.2</ele>
        <time>2026-03-10T08:08:47Z</time>
      </trkpt>
      <trkpt lat="49.03849" lon="7.6971">
        <ele>251.1</ele>
        <time>2026-03-10T08:08:52Z</time>
      </trkpt>
      <trkpt lat="49.03844" lon="7.69706">
        <ele>251.1</ele>
        <time>2026-03-10T08:08:57Z</time>
      </trkpt>
      <trkpt lat="49.03841" lon="7.69702">
        <ele>251.2</ele>
        <time>2026-03-10T08:09:02Z</time>
      </trkpt>
      <trkpt lat="49.03837" lon="7.69697">
        <ele>251.3</ele>
        <time>2026-03-10T08:09:07Z</time>
      </trkpt>
      <trkpt lat="49.03835" lon="7.69693">
        <ele>251.5</ele>
        <time>2026-03-10T08:09:12Z</time>
      </trkpt>
      <trkpt lat="49.03831" lon="7.6969">
        <ele>251.6</ele>
        <time>2026-03-10T08:09:17Z</time>
      </trkpt>
      <trkpt lat="49.03827" lon="7.69686">
        <ele>251.9</ele>
        <time>2026-03-10T08:09:22Z</time>
      </trkpt>
      <trkpt lat="49.03822" lon="7.69681">
        <ele>252.3</ele>
        <time>2026-03-10T08:09:27Z</time>
      </trkpt>
      <trkpt lat="49.03818" lon="7.69674">
        <ele>252.8</ele>
        <time>2026-03-10T08:09:32Z</time>
      </trkpt>
      <trkpt lat="49.03816" lon="7.69666">
        <ele>253.4</ele>
        <time>2026-03-10T08:09:37Z</time>
      </trkpt>
      <trkpt lat="49.03814" lon="7.69659">
        <ele>253.8</ele>
        <time>2026-03-10T08:09:42Z</time>
      </trkpt>
      <trkpt lat="49.03811" lon="7.69653">
        <ele>254.1</ele>
        <time>2026-03-10T08:09:47Z</time>
      </trkpt>
      <trkpt lat="49.03808" lon="7.69647">
        <ele>254.4</ele>
        <time>2026-03-10T08:09:52Z</time>
      </trkpt>
      <trkpt lat="49.03804" lon="7.69643">
        <ele>254.7</ele>
        <time>2026-03-10T08:09:57Z</time>
      </trkpt>
      <trkpt lat="49.03803" lon="7.69639">
        <ele>254.8</ele>
        <time>2026-03-10T08:10:02Z</time>
      </trkpt>
      <trkpt lat="49.03803" lon="7.69639">
        <ele>254.8</ele>
        <time>2026-03-10T08:10:07Z</time>
      </trkpt>
      <trkpt lat="49.03803" lon="7.69639">
        <ele>254.8</ele>
        <time>2026-03-10T08:10:12Z</time>
      </trkpt>
      <trkpt lat="49.03804" lon="7.69637">
        <ele>254.9</ele>
        <time>2026-03-10T08:10:17Z</time>
      </trkpt>
      <trkpt lat="49.038" lon="7.69631">
        <ele>255.3</ele>
        <time>2026-03-10T08:10:22Z</time>
      </trkpt>
      <trkpt lat="49.03796" lon="7.69621">
        <ele>255.8</ele>
        <time>2026-03-10T08:10:27Z</time>
      </trkpt>
      <trkpt lat="49.03792" lon="7.69613">
        <ele>256.2</ele>
        <time>2026-03-10T08:10:32Z</time>
      </trkpt>
      <trkpt lat="49.03789" lon="7.69604">
        <ele>256.7</ele>
        <time>2026-03-10T08:10:37Z</time>
      </trkpt>
      <trkpt lat="49.03788" lon="7.69597">
        <ele>257.1</ele>
        <time>2026-03-10T08:10:42Z</time>
      </trkpt>
      <trkpt lat="49.03789" lon="7.69596">
        <ele>257.1</ele>
        <time>2026-03-10T08:10:47Z</time>
      </trkpt>
      <trkpt lat="49.03789" lon="7.69595">
        <ele>257.1</ele>
        <time>2026-03-10T08:10:52Z</time>
      </trkpt>
      <trkpt lat="49.03789" lon="7.69595">
        <ele>257.1</ele>
        <time>2026-03-10T08:10:57Z</time>
      </trkpt>
      <trkpt lat="49.03788" lon="7.6959">
        <ele>257.3</ele>
        <time>2026-03-10T08:11:02Z</time>
      </trkpt>
      <trkpt lat="49.03784" lon="7.69581">
        <ele>257.7</ele>
        <time>2026-03-10T08:11:07Z</time>
      </trkpt>
      <trkpt lat="49.03779" lon="7.6957">
        <ele>257.5</ele>
        <time>2026-03-10T08:11:12Z</time>
      </trkpt>
      <trkpt lat="49.03775" lon="7.69558">
        <ele>257.2</ele>
        <time>2026-03-10T08:11:17Z</time>
      </trkpt>
      <trkpt lat="49.03771" lon="7.69547">
        <ele>256.8</ele>
        <time>2026-03-10T08:11:22Z</time>
      </trkpt>
      <trkpt lat="49.03769" lon="7.6954">
        <ele>256.6</ele>
        <time>2026-03-10T08:11:27Z</time>
      </trkpt>
      <trkpt lat="49.03769" lon="7.6954">
        <ele>256.6</ele>
        <time>2026-03-10T08:11:32Z</time>
      </trkpt>
      <trkpt lat="49.03769" lon="7.6954">
        <ele>256.6</ele>
        <time>2026-03-10T08:11:37Z</time>
      </trkpt>
      <trkpt lat="49.03767" lon="7.69536">
        <ele>256.5</ele>
        <time>2026-03-10T08:11:42Z</time>
      </trkpt>
      <trkpt lat="49.03765" lon="7.69527">
        <ele>256.1</ele>
        <time>2026-03-10T08:11:47Z</time>
      </trkpt>
      <trkpt lat="49.03762" lon="7.69517">
        <ele>255.7</ele>
        <time>2026-03-10T08:11:52Z</time>
      </trkpt>
      <trkpt lat="49.03758" lon="7.69508">
        <ele>255.4</ele>
        <time>2026-03-10T08:11:57Z</time>
      </trkpt>
      <trkpt lat="49.03754" lon="7.695">
        <ele>255</ele>
        <time>2026-03-10T08:12:02Z</time>
      </trkpt>
      <trkpt lat="49.03751" lon="7.6949">
        <ele>254.6</ele>
        <time>2026-03-10T08:12:07Z</time>
      </trkpt>
      <trkpt lat="49.03747" lon="7.6948">
        <ele>254</ele>
        <time>2026-03-10T08:12:12Z</time>
      </trkpt>
      <trkpt lat="49.03742" lon="7.69473">
        <ele>253.2</ele>
        <time>2026-03-10T08:12:17Z</time>
      </trkpt>
      <trkpt lat="49.03738" lon="7.69463">
        <ele>252.5</ele>
        <time>2026-03-10T08:12:22Z</time>
      </trkpt>
      <trkpt lat="49.03736" lon="7.6945">
        <ele>251.8</ele>
        <time>2026-03-10T08:12:27Z</time>
      </trkpt>
      <trkpt lat="49.03734" lon="7.69439">
        <ele>251.1</ele>
        <time>2026-03-10T08:12:32Z</time>
      </trkpt>
      <trkpt lat="49.03731" lon="7.69429">
        <ele>250.4</ele>
        <time>2026-03-10T08:12:37Z</time>
      </trkpt>
      <trkpt lat="49.03728" lon="7.6942">
        <ele>249.8</ele>
        <time>2026-03-10T08:12:42Z</time>
      </trkpt>
      <trkpt lat="49.03728" lon="7.69416">
        <ele>249.6</ele>
        <time>2026-03-10T08:12:47Z</time>
      </trkpt>
      <trkpt lat="49.03728" lon="7.69416">
        <ele>249.6</ele>
        <time>2026-03-10T08:12:52Z</time>
      </trkpt>
      <trkpt lat="49.03725" lon="7.69402">
        <ele>248.9</ele>
        <time>2026-03-10T08:12:57Z</time>
      </trkpt>
      <trkpt lat="49.03723" lon="7.69388">
        <ele>248.4</ele>
        <time>2026-03-10T08:13:02Z</time>
      </trkpt>
      <trkpt lat="49.03722" lon="7.69375">
        <ele>248</ele>
        <time>2026-03-10T08:13:07Z</time>
      </trkpt>
      <trkpt lat="49.03722" lon="7.69366">
        <ele>247.8</ele>
        <time>2026-03-10T08:13:12Z</time>
      </trkpt>
      <trkpt lat="49.0372" lon="7.69356">
        <ele>247.3</ele>
        <time>2026-03-10T08:13:17Z</time>
      </trkpt>
      <trkpt lat="49.03719" lon="7.69346">
        <ele>247</ele>
        <time>2026-03-10T08:13:22Z</time>
      </trkpt>
      <trkpt lat="49.03718" lon="7.69334">
        <ele>246.6</ele>
        <time>2026-03-10T08:13:27Z</time>
      </trkpt>
      <trkpt lat="49.03716" lon="7.69324">
        <ele>246.1</ele>
        <time>2026-03-10T08:13:32Z</time>
      </trkpt>
      <trkpt lat="49.03715" lon="7.69315">
        <ele>245.9</ele>
        <time>2026-03-10T08:13:37Z</time>
      </trkpt>
      <trkpt lat="49.03714" lon="7.69305">
        <ele>245.6</ele>
        <time>2026-03-10T08:13:42Z</time>
      </trkpt>
      <trkpt lat="49.03712" lon="7.69293">
        <ele>245.1</ele>
        <time>2026-03-10T08:13:47Z</time>
      </trkpt>
      <trkpt lat="49.03709" lon="7.69282">
        <ele>244.6</ele>
        <time>2026-03-10T08:13:52Z</time>
      </trkpt>
      <trkpt lat="49.03705" lon="7.69271">
        <ele>244</ele>
        <time>2026-03-10T08:13:57Z</time>
      </trkpt>
      <trkpt lat="49.03701" lon="7.69263">
        <ele>243.5</ele>
        <time>2026-03-10T08:14:02Z</time>
      </trkpt>
      <trkpt lat="49.03697" lon="7.69254">
        <ele>243</ele>
        <time>2026-03-10T08:14:07Z</time>
      </trkpt>
      <trkpt lat="49.03694" lon="7.69245">
        <ele>242.7</ele>
        <time>2026-03-10T08:14:12Z</time>
      </trkpt>
      <trkpt lat="49.03693" lon="7.69245">
        <ele>242.6</ele>
        <time>2026-03-10T08:14:17Z</time>
      </trkpt>
      <trkpt lat="49.03693" lon="7.69246">
        <ele>242.6</ele>
        <time>2026-03-10T08:14:22Z</time>
      </trkpt>
      <trkpt lat="49.03693" lon="7.69246">
        <ele>242.6</ele>
        <time>2026-03-10T08:14:27Z</time>
      </trkpt>
      <trkpt lat="49.03693" lon="7.69241">
        <ele>242.6</ele>
        <time>2026-03-10T08:14:32Z</time>
      </trkpt>
      <trkpt lat="49.03689" lon="7.6923">
        <ele>242.4</ele>
        <time>2026-03-10T08:14:37Z</time>
      </trkpt>
      <trkpt lat="49.03685" lon="7.69219">
        <ele>242.3</ele>
        <time>2026-03-10T08:14:42Z</time>
      </trkpt>
      <trkpt lat="49.03681" lon="7.6921">
        <ele>242.1</ele>
        <time>2026-03-10T08:14:47Z</time>
      </trkpt>
      <trkpt lat="49.03677" lon="7.69203">
        <ele>241.9</ele>
        <time>2026-03-10T08:14:52Z</time>
      </trkpt>
      <trkpt lat="49.03674" lon="7.69195">
        <ele>241.8</ele>
        <time>2026-03-10T08:14:57Z</time>
      </trkpt>
      <trkpt lat="49.03669" lon="7.69186">
        <ele>241.7</ele>
        <time>2026-03-10T08:15:02Z</time>
      </trkpt>
      <trkpt lat="49.03665" lon="7.6918">
        <ele>241.6</ele>
        <time>2026-03-10T08:15:07Z</time>
      </trkpt>
      <trkpt lat="49.03665" lon="7.69178">
        <ele>241.7</ele>
        <time>2026-03-10T08:15:12Z</time>
      </trkpt>
      <trkpt lat="49.03662" lon="7.69173">
        <ele>241.7</ele>
        <time>2026-03-10T08:15:17Z</time>
      </trkpt>
      <trkpt lat="49.03657" lon="7.69164">
        <ele>241.8</ele>
        <time>2026-03-10T08:15:22Z</time>
      </trkpt>
      <trkpt lat="49.03653" lon="7.69156">
        <ele>241.7</ele>
        <time>2026-03-10T08:15:27Z</time>
      </trkpt>
      <trkpt lat="49.03648" lon="7.69151">
        <ele>241.6</ele>
        <time>2026-03-10T08:15:32Z</time>
      </trkpt>
      <trkpt lat="49.03643" lon="7.69144">
        <ele>241.5</ele>
        <time>2026-03-10T08:15:37Z</time>
      </trkpt>
      <trkpt lat="49.03639" lon="7.69139">
        <ele>241.4</ele>
        <time>2026-03-10T08:15:42Z</time>
      </trkpt>
      <trkpt lat="49.03632" lon="7.69135">
        <ele>241.3</ele>
        <time>2026-03-10T08:15:47Z</time>
      </trkpt>
      <trkpt lat="49.03629" lon="7.69131">
        <ele>241.3</ele>
        <time>2026-03-10T08:15:52Z</time>
      </trkpt>
      <trkpt lat="49.03627" lon="7.69129">
        <ele>241.3</ele>
        <time>2026-03-10T08:15:57Z</time>
      </trkpt>
      <trkpt lat="49.03622" lon="7.69122">
        <ele>241.2</ele>
        <time>2026-03-10T08:16:02Z</time>
      </trkpt>
      <trkpt lat="49.03615" lon="7.69118">
        <ele>241.1</ele>
        <time>2026-03-10T08:16:07Z</time>
      </trkpt>
      <trkpt lat="49.03609" lon="7.69112">
        <ele>241.1</ele>
        <time>2026-03-10T08:16:12Z</time>
      </trkpt>
      <trkpt lat="49.03606" lon="7.69106">
        <ele>241.1</ele>
        <time>2026-03-10T08:16:17Z</time>
      </trkpt>
      <trkpt lat="49.03601" lon="7.69097">
        <ele>241.1</ele>
        <time>2026-03-10T08:16:22Z</time>
      </trkpt>
      <trkpt lat="49.036" lon="7.69092">
        <ele>241.1</ele>
        <time>2026-03-10T08:16:27Z</time>
      </trkpt>
      <trkpt lat="49.03602" lon="7.69091">
        <ele>241.2</ele>
        <time>2026-03-10T08:16:32Z</time>
      </trkpt>
      <trkpt lat="49.03602" lon="7.69091">
        <ele>241.2</ele>
        <time>2026-03-10T08:16:37Z</time>
      </trkpt>
      <trkpt lat="49.03602" lon="7.69091">
        <ele>241.2</ele>
        <time>2026-03-10T08:16:42Z</time>
      </trkpt>
      <trkpt lat="49.03602" lon="7.69091">
        <ele>241.2</ele>
        <time>2026-03-10T08:16:47Z</time>
      </trkpt>
      <trkpt lat="49.03602" lon="7.69091">
        <ele>241.2</ele>
        <time>2026-03-10T08:16:52Z</time>
      </trkpt>
      <trkpt lat="49.03597" lon="7.69088">
        <ele>241.1</ele>
        <time>2026-03-10T08:16:57Z</time>
      </trkpt>
      <trkpt lat="49.03595" lon="7.69089">
        <ele>241.1</ele>
        <time>2026-03-10T08:17:02Z</time>
      </trkpt>
      <trkpt lat="49.03595" lon="7.69088">
        <ele>241.1</ele>
        <time>2026-03-10T08:17:07Z</time>
      </trkpt>
      <trkpt lat="49.0359" lon="7.69086">
        <ele>241.1</ele>
        <time>2026-03-10T08:17:12Z</time>
      </trkpt>
      <trkpt lat="49.03584" lon="7.69081">
        <ele>241</ele>
        <time>2026-03-10T08:17:17Z</time>
      </trkpt>
      <trkpt lat="49.0358" lon="7.69077">
        <ele>241.2</ele>
        <time>2026-03-10T08:17:22Z</time>
      </trkpt>
      <trkpt lat="49.03575" lon="7.69081">
        <ele>241.7</ele>
        <time>2026-03-10T08:17:27Z</time>
      </trkpt>
      <trkpt lat="49.03571" lon="7.69091">
        <ele>242</ele>
        <time>2026-03-10T08:17:32Z</time>
      </trkpt>
      <trkpt lat="49.03569" lon="7.69097">
        <ele>242.1</ele>
        <time>2026-03-10T08:17:37Z</time>
      </trkpt>
      <trkpt lat="49.03568" lon="7.69099">
        <ele>242.1</ele>
        <time>2026-03-10T08:17:42Z</time>
      </trkpt>
      <trkpt lat="49.03569" lon="7.691">
        <ele>242</ele>
        <time>2026-03-10T08:17:47Z</time>
      </trkpt>
      <trkpt lat="49.03569" lon="7.691">
        <ele>242</ele>
        <time>2026-03-10T08:17:52Z</time>
      </trkpt>
      <trkpt lat="49.03569" lon="7.691">
        <ele>242</ele>
        <time>2026-03-10T08:17:57Z</time>
      </trkpt>
      <trkpt lat="49.03569" lon="7.691">
        <ele>242</ele>
        <time>2026-03-10T08:18:02Z</time>
      </trkpt>
      <trkpt lat="49.03567" lon="7.6909">
        <ele>242.3</ele>
        <time>2026-03-10T08:18:07Z</time>
      </trkpt>
      <trkpt lat="49.03563" lon="7.69084">
        <ele>242.7</ele>
        <time>2026-03-10T08:18:12Z</time>
      </trkpt>
      <trkpt lat="49.03555" lon="7.69082">
        <ele>243.4</ele>
        <time>2026-03-10T08:18:17Z</time>
      </trkpt>
      <trkpt lat="49.03549" lon="7.69085">
        <ele>243.9</ele>
        <time>2026-03-10T08:18:22Z</time>
      </trkpt>
      <trkpt lat="49.03543" lon="7.69086">
        <ele>244.4</ele>
        <time>2026-03-10T08:18:27Z</time>
      </trkpt>
      <trkpt lat="49.03536" lon="7.69088">
        <ele>245</ele>
        <time>2026-03-10T08:18:32Z</time>
      </trkpt>
      <trkpt lat="49.03529" lon="7.69088">
        <ele>245.5</ele>
        <time>2026-03-10T08:18:37Z</time>
      </trkpt>
      <trkpt lat="49.03522" lon="7.69087">
        <ele>246.1</ele>
        <time>2026-03-10T08:18:42Z</time>
      </trkpt>
      <trkpt lat="49.03516" lon="7.69088">
        <ele>246.6</ele>
        <time>2026-03-10T08:18:47Z</time>
      </trkpt>
      <trkpt lat="49.03509" lon="7.69087">
        <ele>247.2</ele>
        <time>2026-03-10T08:18:52Z</time>
      </trkpt>
      <trkpt lat="49.03502" lon="7.69087">
        <ele>247.8</ele>
        <time>2026-03-10T08:18:57Z</time>
      </trkpt>
      <trkpt lat="49.03496" lon="7.69085">
        <ele>248.2</ele>
        <time>2026-03-10T08:19:02Z</time>
      </trkpt>
      <trkpt lat="49.03491" lon="7.69082">
        <ele>248.4</ele>
        <time>2026-03-10T08:19:07Z</time>
      </trkpt>
      <trkpt lat="49.03487" lon="7.69073">
        <ele>248.5</ele>
        <time>2026-03-10T08:19:12Z</time>
      </trkpt>
      <trkpt lat="49.03485" lon="7.69064">
        <ele>248.5</ele>
        <time>2026-03-10T08:19:17Z</time>
      </trkpt>
      <trkpt lat="49.03483" lon="7.69055">
        <ele>248.5</ele>
        <time>2026-03-10T08:19:22Z</time>
      </trkpt>
      <trkpt lat="49.03479" lon="7.69046">
        <ele>248.7</ele>
        <time>2026-03-10T08:19:27Z</time>
      </trkpt>
      <trkpt lat="49.03476" lon="7.69039">
        <ele>248.8</ele>
        <time>2026-03-10T08:19:32Z</time>
      </trkpt>
      <trkpt lat="49.03474" lon="7.69031">
        <ele>248.8</ele>
        <time>2026-03-10T08:19:37Z</time>
      </trkpt>
      <trkpt lat="49.0347" lon="7.69024">
        <ele>249</ele>
        <time>2026-03-10T08:19:42Z</time>
      </trkpt>
      <trkpt lat="49.03465" lon="7.69018">
        <ele>249.2</ele>
        <time>2026-03-10T08:19:47Z</time>
      </trkpt>
      <trkpt lat="49.03457" lon="7.69012">
        <ele>249.6</ele>
        <time>2026-03-10T08:19:52Z</time>
      </trkpt>
      <trkpt lat="49.0345" lon="7.69004">
        <ele>250</ele>
        <time>2026-03-10T08:19:57Z</time>
      </trkpt>
      <trkpt lat="49.03444" lon="7.68999">
        <ele>250.4</ele>
        <time>2026-03-10T08:20:02Z</time>
      </trkpt>
      <trkpt lat="49.03438" lon="7.68995">
        <ele>250.8</ele>
        <time>2026-03-10T08:20:07Z</time>
      </trkpt>
      <trkpt lat="49.03432" lon="7.68989">
        <ele>251.2</ele>
        <time>2026-03-10T08:20:12Z</time>
      </trkpt>
      <trkpt lat="49.03426" lon="7.68986">
        <ele>251.7</ele>
        <time>2026-03-10T08:20:17Z</time>
      </trkpt>
      <trkpt lat="49.03423" lon="7.68982">
        <ele>252</ele>
        <time>2026-03-10T08:20:22Z</time>
      </trkpt>
      <trkpt lat="49.03418" lon="7.68979">
        <ele>252.4</ele>
        <time>2026-03-10T08:20:27Z</time>
      </trkpt>
      <trkpt lat="49.03413" lon="7.68976">
        <ele>252.7</ele>
        <time>2026-03-10T08:20:32Z</time>
      </trkpt>
      <trkpt lat="49.03406" lon="7.68971">
        <ele>253.2</ele>
        <time>2026-03-10T08:20:37Z</time>
      </trkpt>
      <trkpt lat="49.034" lon="7.68967">
        <ele>253.5</ele>
        <time>2026-03-10T08:20:42Z</time>
      </trkpt>
      <trkpt lat="49.03396" lon="7.68962">
        <ele>253.7</ele>
        <time>2026-03-10T08:20:47Z</time>
      </trkpt>
      <trkpt lat="49.0339" lon="7.68959">
        <ele>254</ele>
        <time>2026-03-10T08:20:52Z</time>
      </trkpt>
      <trkpt lat="49.03384" lon="7.68957">
        <ele>254.2</ele>
        <time>2026-03-10T08:20:57Z</time>
      </trkpt>
      <trkpt lat="49.03377" lon="7.68954">
        <ele>254.4</ele>
        <time>2026-03-10T08:21:02Z</time>
      </trkpt>
      <trkpt lat="49.0337" lon="7.68948">
        <ele>254.7</ele>
        <time>2026-03-10T08:21:07Z</time>
      </trkpt>
      <trkpt lat="49.03363" lon="7.68942">
        <ele>254.8</ele>
        <time>2026-03-10T08:21:12Z</time>
      </trkpt>
      <trkpt lat="49.03357" lon="7.6894">
        <ele>255</ele>
        <time>2026-03-10T08:21:17Z</time>
      </trkpt>
      <trkpt lat="49.0335" lon="7.68937">
        <ele>255.1</ele>
        <time>2026-03-10T08:21:22Z</time>
      </trkpt>
      <trkpt lat="49.03347" lon="7.68932">
        <ele>255.1</ele>
        <time>2026-03-10T08:21:27Z</time>
      </trkpt>
      <trkpt lat="49.03342" lon="7.68928">
        <ele>255.1</ele>
        <time>2026-03-10T08:21:32Z</time>
      </trkpt>
      <trkpt lat="49.03336" lon="7.68924">
        <ele>255.1</ele>
        <time>2026-03-10T08:21:37Z</time>
      </trkpt>
      <trkpt lat="49.03329" lon="7.68919">
        <ele>255.4</ele>
        <time>2026-03-10T08:21:42Z</time>
      </trkpt>
      <trkpt lat="49.03325" lon="7.68913">
        <ele>255.8</ele>
        <time>2026-03-10T08:21:47Z</time>
      </trkpt>
      <trkpt lat="49.03319" lon="7.68907">
        <ele>256.4</ele>
        <time>2026-03-10T08:21:52Z</time>
      </trkpt>
      <trkpt lat="49.03315" lon="7.68902">
        <ele>256.8</ele>
        <time>2026-03-10T08:21:57Z</time>
      </trkpt>
      <trkpt lat="49.0331" lon="7.68896">
        <ele>257.3</ele>
        <time>2026-03-10T08:22:02Z</time>
      </trkpt>
      <trkpt lat="49.03305" lon="7.68889">
        <ele>257.8</ele>
        <time>2026-03-10T08:22:07Z</time>
      </trkpt>
      <trkpt lat="49.03301" lon="7.68885">
        <ele>258.2</ele>
        <time>2026-03-10T08:22:12Z</time>
      </trkpt>
      <trkpt lat="49.03296" lon="7.68879">
        <ele>258.6</ele>
        <time>2026-03-10T08:22:17Z</time>
      </trkpt>
      <trkpt lat="49.0329" lon="7.68873">
        <ele>259.1</ele>
        <time>2026-03-10T08:22:22Z</time>
      </trkpt>
      <trkpt lat="49.03287" lon="7.68868">
        <ele>259.4</ele>
        <time>2026-03-10T08:22:27Z</time>
      </trkpt>
      <trkpt lat="49.03283" lon="7.68864">
        <ele>259.7</ele>
        <time>2026-03-10T08:22:32Z</time>
      </trkpt>
      <trkpt lat="49.03276" lon="7.68858">
        <ele>260.3</ele>
        <time>2026-03-10T08:22:37Z</time>
      </trkpt>
      <trkpt lat="49.03271" lon="7.68853">
        <ele>260.6</ele>
        <time>2026-03-10T08:22:42Z</time>
      </trkpt>
      <trkpt lat="49.03265" lon="7.68848">
        <ele>261</ele>
        <time>2026-03-10T08:22:47Z</time>
      </trkpt>
      <trkpt lat="49.03259" lon="7.68843">
        <ele>261.4</ele>
        <time>2026-03-10T08:22:52Z</time>
      </trkpt>
      <trkpt lat="49.03253" lon="7.6884">
        <ele>261.8</ele>
        <time>2026-03-10T08:22:57Z</time>
      </trkpt>
      <trkpt lat="49.03248" lon="7.68836">
        <ele>262.2</ele>
        <time>2026-03-10T08:23:02Z</time>
      </trkpt>
      <trkpt lat="49.03243" lon="7.68831">
        <ele>262.8</ele>
        <time>2026-03-10T08:23:07Z</time>
      </trkpt>
      <trkpt lat="49.03237" lon="7.68829">
        <ele>263.4</ele>
        <time>2026-03-10T08:23:12Z</time>
      </trkpt>
      <trkpt lat="49.03232" lon="7.68824">
        <ele>263.8</ele>
        <time>2026-03-10T08:23:17Z</time>
      </trkpt>
      <trkpt lat="49.03226" lon="7.68823">
        <ele>264.4</ele>
        <time>2026-03-10T08:23:22Z</time>
      </trkpt>
      <trkpt lat="49.03222" lon="7.68819">
        <ele>264.7</ele>
        <time>2026-03-10T08:23:27Z</time>
      </trkpt>
      <trkpt lat="49.03217" lon="7.68815">
        <ele>265.1</ele>
        <time>2026-03-10T08:23:32Z</time>
      </trkpt>
      <trkpt lat="49.03211" lon="7.6881">
        <ele>265.6</ele>
        <time>2026-03-10T08:23:37Z</time>
      </trkpt>
      <trkpt lat="49.03205" lon="7.68806">
        <ele>266.1</ele>
        <time>2026-03-10T08:23:42Z</time>
      </trkpt>
      <trkpt lat="49.03199" lon="7.68801">
        <ele>266.5</ele>
        <time>2026-03-10T08:23:47Z</time>
      </trkpt>
      <trkpt lat="49.03198" lon="7.68801">
        <ele>266.6</ele>
        <time>2026-03-10T08:23:52Z</time>
      </trkpt>
      <trkpt lat="49.03198" lon="7.688">
        <ele>266.5</ele>
        <time>2026-03-10T08:23:57Z</time>
      </trkpt>
      <trkpt lat="49.03193" lon="7.68796">
        <ele>266.9</ele>
        <time>2026-03-10T08:24:02Z</time>
      </trkpt>
      <trkpt lat="49.03189" lon="7.68793">
        <ele>267.2</ele>
        <time>2026-03-10T08:24:07Z</time>
      </trkpt>
      <trkpt lat="49.03186" lon="7.6879">
        <ele>267.3</ele>
        <time>2026-03-10T08:24:12Z</time>
      </trkpt>
      <trkpt lat="49.03181" lon="7.68786">
        <ele>267.6</ele>
        <time>2026-03-10T08:24:17Z</time>
      </trkpt>
      <trkpt lat="49.03176" lon="7.68781">
        <ele>267.9</ele>
        <time>2026-03-10T08:24:22Z</time>
      </trkpt>
      <trkpt lat="49.0317" lon="7.68778">
        <ele>268.3</ele>
        <time>2026-03-10T08:24:27Z</time>
      </trkpt>
      <trkpt lat="49.03165" lon="7.68775">
        <ele>268.7</ele>
        <time>2026-03-10T08:24:32Z</time>
      </trkpt>
      <trkpt lat="49.03159" lon="7.6877">
        <ele>269.1</ele>
        <time>2026-03-10T08:24:37Z</time>
      </trkpt>
      <trkpt lat="49.03154" lon="7.68762">
        <ele>269.3</ele>
        <time>2026-03-10T08:24:42Z</time>
      </trkpt>
      <trkpt lat="49.03148" lon="7.68757">
        <ele>269.8</ele>
        <time>2026-03-10T08:24:47Z</time>
      </trkpt>
      <trkpt lat="49.03143" lon="7.68754">
        <ele>270.3</ele>
        <time>2026-03-10T08:24:52Z</time>
      </trkpt>
      <trkpt lat="49.03137" lon="7.68751">
        <ele>271</ele>
        <time>2026-03-10T08:24:57Z</time>
      </trkpt>
      <trkpt lat="49.0313" lon="7.68749">
        <ele>271.9</ele>
        <time>2026-03-10T08:25:02Z</time>
      </trkpt>
      <trkpt lat="49.03125" lon="7.68746">
        <ele>272.6</ele>
        <time>2026-03-10T08:25:07Z</time>
      </trkpt>
      <trkpt lat="49.03118" lon="7.68743">
        <ele>273.6</ele>
        <time>2026-03-10T08:25:12Z</time>
      </trkpt>
      <trkpt lat="49.03112" lon="7.6874">
        <ele>274.4</ele>
        <time>2026-03-10T08:25:17Z</time>
      </trkpt>
      <trkpt lat="49.03107" lon="7.68739">
        <ele>275.1</ele>
        <time>2026-03-10T08:25:22Z</time>
      </trkpt>
      <trkpt lat="49.03101" lon="7.68737">
        <ele>275.9</ele>
        <time>2026-03-10T08:25:27Z</time>
      </trkpt>
      <trkpt lat="49.03094" lon="7.68736">
        <ele>276.9</ele>
        <time>2026-03-10T08:25:32Z</time>
      </trkpt>
      <trkpt lat="49.03087" lon="7.68734">
        <ele>277.9</ele>
        <time>2026-03-10T08:25:37Z</time>
      </trkpt>
      <trkpt lat="49.03081" lon="7.68733">
        <ele>278.5</ele>
        <time>2026-03-10T08:25:42Z</time>
      </trkpt>
      <trkpt lat="49.03074" lon="7.68732">
        <ele>279</ele>
        <time>2026-03-10T08:25:47Z</time>
      </trkpt>
      <trkpt lat="49.03068" lon="7.68731">
        <ele>279.4</ele>
        <time>2026-03-10T08:25:52Z</time>
      </trkpt>
      <trkpt lat="49.03064" lon="7.68733">
        <ele>279.6</ele>
        <time>2026-03-10T08:25:57Z</time>
      </trkpt>
      <trkpt lat="49.03058" lon="7.68737">
        <ele>279.8</ele>
        <time>2026-03-10T08:26:02Z</time>
      </trkpt>
      <trkpt lat="49.03051" lon="7.68736">
        <ele>280.3</ele>
        <time>2026-03-10T08:26:07Z</time>
      </trkpt>
      <trkpt lat="49.03044" lon="7.68736">
        <ele>280.7</ele>
        <time>2026-03-10T08:26:12Z</time>
      </trkpt>
      <trkpt lat="49.03038" lon="7.68734">
        <ele>281.1</ele>
        <time>2026-03-10T08:26:17Z</time>
      </trkpt>
      <trkpt lat="49.03032" lon="7.68731">
        <ele>281.5</ele>
        <time>2026-03-10T08:26:22Z</time>
      </trkpt>
      <trkpt lat="49.03028" lon="7.68727">
        <ele>281.9</ele>
        <time>2026-03-10T08:26:27Z</time>
      </trkpt>
      <trkpt lat="49.03023" lon="7.68724">
        <ele>282.2</ele>
        <time>2026-03-10T08:26:32Z</time>
      </trkpt>
      <trkpt lat="49.03018" lon="7.68722">
        <ele>282.6</ele>
        <time>2026-03-10T08:26:37Z</time>
      </trkpt>
      <trkpt lat="49.03012" lon="7.6872">
        <ele>283</ele>
        <time>2026-03-10T08:26:42Z</time>
      </trkpt>
      <trkpt lat="49.03008" lon="7.68721">
        <ele>283.2</ele>
        <time>2026-03-10T08:26:47Z</time>
      </trkpt>
      <trkpt lat="49.03006" lon="7.68719">
        <ele>283.4</ele>
        <time>2026-03-10T08:26:52Z</time>
      </trkpt>
      <trkpt lat="49.03003" lon="7.68717">
        <ele>283.6</ele>
        <time>2026-03-10T08:26:57Z</time>
      </trkpt>
      <trkpt lat="49.02999" lon="7.68716">
        <ele>283.8</ele>
        <time>2026-03-10T08:27:02Z</time>
      </trkpt>
      <trkpt lat="49.02994" lon="7.68715">
        <ele>283.7</ele>
        <time>2026-03-10T08:27:07Z</time>
      </trkpt>
      <trkpt lat="49.02991" lon="7.68715">
        <ele>283.6</ele>
        <time>2026-03-10T08:27:12Z</time>
      </trkpt>
      <trkpt lat="49.02986" lon="7.6871">
        <ele>283.6</ele>
        <time>2026-03-10T08:27:17Z</time>
      </trkpt>
      <trkpt lat="49.0298" lon="7.68702">
        <ele>283.7</ele>
        <time>2026-03-10T08:27:22Z</time>
      </trkpt>
      <trkpt lat="49.02976" lon="7.68696">
        <ele>283.8</ele>
        <time>2026-03-10T08:27:27Z</time>
      </trkpt>
      <trkpt lat="49.02973" lon="7.6869">
        <ele>283.9</ele>
        <time>2026-03-10T08:27:32Z</time>
      </trkpt>
      <trkpt lat="49.02969" lon="7.68684">
        <ele>284.1</ele>
        <time>2026-03-10T08:27:37Z</time>
      </trkpt>
      <trkpt lat="49.02967" lon="7.6868">
        <ele>284.2</ele>
        <time>2026-03-10T08:27:42Z</time>
      </trkpt>
      <trkpt lat="49.02964" lon="7.68675">
        <ele>284.3</ele>
        <time>2026-03-10T08:27:47Z</time>
      </trkpt>
      <trkpt lat="49.0296" lon="7.6867">
        <ele>284.4</ele>
        <time>2026-03-10T08:27:52Z</time>
      </trkpt>
      <trkpt lat="49.02958" lon="7.68665">
        <ele>284.6</ele>
        <time>2026-03-10T08:27:57Z</time>
      </trkpt>
      <trkpt lat="49.02955" lon="7.68662">
        <ele>284.7</ele>
        <time>2026-03-10T08:28:02Z</time>
      </trkpt>
      <trkpt lat="49.02951" lon="7.6866">
        <ele>284.7</ele>
        <time>2026-03-10T08:28:07Z</time>
      </trkpt>
      <trkpt lat="49.02948" lon="7.68657">
        <ele>284.8</ele>
        <time>2026-03-10T08:28:12Z</time>
      </trkpt>
      <trkpt lat="49.02946" lon="7.68655">
        <ele>284.8</ele>
        <time>2026-03-10T08:28:17Z</time>
      </trkpt>
      <trkpt lat="49.02939" lon="7.68647">
        <ele>285</ele>
        <time>2026-03-10T08:28:22Z</time>
      </trkpt>
      <trkpt lat="49.02935" lon="7.68639">
        <ele>285.2</ele>
        <time>2026-03-10T08:28:27Z</time>
      </trkpt>
      <trkpt lat="49.0293" lon="7.68632">
        <ele>285.3</ele>
        <time>2026-03-10T08:28:32Z</time>
      </trkpt>
      <trkpt lat="49.02926" lon="7.68628">
        <ele>285.2</ele>
        <time>2026-03-10T08:28:37Z</time>
      </trkpt>
      <trkpt lat="49.02921" lon="7.68625">
        <ele>285.2</ele>
        <time>2026-03-10T08:28:42Z</time>
      </trkpt>
      <trkpt lat="49.02917" lon="7.68621">
        <ele>285.1</ele>
        <time>2026-03-10T08:28:47Z</time>
      </trkpt>
      <trkpt lat="49.02914" lon="7.68617">
        <ele>285.3</ele>
        <time>2026-03-10T08:28:52Z</time>
      </trkpt>
      <trkpt lat="49.02909" lon="7.68611">
        <ele>285.6</ele>
        <time>2026-03-10T08:28:57Z</time>
      </trkpt>
      <trkpt lat="49.02903" lon="7.68606">
        <ele>286</ele>
        <time>2026-03-10T08:29:02Z</time>
      </trkpt>
      <trkpt lat="49.02898" lon="7.68604">
        <ele>286.3</ele>
        <time>2026-03-10T08:29:07Z</time>
      </trkpt>
      <trkpt lat="49.02892" lon="7.68598">
        <ele>286.8</ele>
        <time>2026-03-10T08:29:12Z</time>
      </trkpt>
      <trkpt lat="49.02888" lon="7.68593">
        <ele>287.2</ele>
        <time>2026-03-10T08:29:17Z</time>
      </trkpt>
      <trkpt lat="49.02884" lon="7.68587">
        <ele>287.8</ele>
        <time>2026-03-10T08:29:22Z</time>
      </trkpt>
      <trkpt lat="49.02879" lon="7.68582">
        <ele>288.4</ele>
        <time>2026-03-10T08:29:27Z</time>
      </trkpt>
      <trkpt lat="49.02878" lon="7.68579">
        <ele>288.8</ele>
        <time>2026-03-10T08:29:32Z</time>
      </trkpt>
      <trkpt lat="49.02876" lon="7.68578">
        <ele>289</ele>
        <time>2026-03-10T08:29:37Z</time>
      </trkpt>
      <trkpt lat="49.02876" lon="7.68578">
        <ele>289</ele>
        <time>2026-03-10T08:29:42Z</time>
      </trkpt>
      <trkpt lat="49.02874" lon="7.68576">
        <ele>289.3</ele>
        <time>2026-03-10T08:29:47Z</time>
      </trkpt>
      <trkpt lat="49.0287" lon="7.68567">
        <ele>290.5</ele>
        <time>2026-03-10T08:29:52Z</time>
      </trkpt>
      <trkpt lat="49.02866" lon="7.68557">
        <ele>291.7</ele>
        <time>2026-03-10T08:29:57Z</time>
      </trkpt>
      <trkpt lat="49.02862" lon="7.68546">
        <ele>293</ele>
        <time>2026-03-10T08:30:02Z</time>
      </trkpt>
      <trkpt lat="49.02859" lon="7.68537">
        <ele>294.1</ele>
        <time>2026-03-10T08:30:07Z</time>
      </trkpt>
      <trkpt lat="49.02856" lon="7.68529">
        <ele>295</ele>
        <time>2026-03-10T08:30:12Z</time>
      </trkpt>
      <trkpt lat="49.02853" lon="7.68522">
        <ele>295.9</ele>
        <time>2026-03-10T08:30:17Z</time>
      </trkpt>
      <trkpt lat="49.0285" lon="7.68514">
        <ele>296.8</ele>
        <time>2026-03-10T08:30:22Z</time>
      </trkpt>
      <trkpt lat="49.02846" lon="7.68509">
        <ele>297.5</ele>
        <time>2026-03-10T08:30:27Z</time>
      </trkpt>
      <trkpt lat="49.0284" lon="7.68507">
        <ele>298</ele>
        <time>2026-03-10T08:30:32Z</time>
      </trkpt>
      <trkpt lat="49.02835" lon="7.68505">
        <ele>298.4</ele>
        <time>2026-03-10T08:30:37Z</time>
      </trkpt>
      <trkpt lat="49.02829" lon="7.68505">
        <ele>298.4</ele>
        <time>2026-03-10T08:30:42Z</time>
      </trkpt>
      <trkpt lat="49.02822" lon="7.68501">
        <ele>298.6</ele>
        <time>2026-03-10T08:30:47Z</time>
      </trkpt>
      <trkpt lat="49.02818" lon="7.68496">
        <ele>298.8</ele>
        <time>2026-03-10T08:30:52Z</time>
      </trkpt>
      <trkpt lat="49.02813" lon="7.68487">
        <ele>298.9</ele>
        <time>2026-03-10T08:30:57Z</time>
      </trkpt>
      <trkpt lat="49.02808" lon="7.68479">
        <ele>299</ele>
        <time>2026-03-10T08:31:02Z</time>
      </trkpt>
      <trkpt lat="49.02806" lon="7.68473">
        <ele>299.1</ele>
        <time>2026-03-10T08:31:07Z</time>
      </trkpt>
      <trkpt lat="49.02801" lon="7.68466">
        <ele>299.1</ele>
        <time>2026-03-10T08:31:12Z</time>
      </trkpt>
      <trkpt lat="49.02795" lon="7.68458">
        <ele>299.1</ele>
        <time>2026-03-10T08:31:17Z</time>
      </trkpt>
      <trkpt lat="49.02791" lon="7.68452">
        <ele>299.1</ele>
        <time>2026-03-10T08:31:22Z</time>
      </trkpt>
      <trkpt lat="49.02787" lon="7.68445">
        <ele>299.1</ele>
        <time>2026-03-10T08:31:27Z</time>
      </trkpt>
      <trkpt lat="49.0278" lon="7.68438">
        <ele>299</ele>
        <time>2026-03-10T08:31:32Z</time>
      </trkpt>
      <trkpt lat="49.02773" lon="7.68429">
        <ele>298.9</ele>
        <time>2026-03-10T08:31:37Z</time>
      </trkpt>
      <trkpt lat="49.02769" lon="7.68422">
        <ele>298.8</ele>
        <time>2026-03-10T08:31:42Z</time>
      </trkpt>
      <trkpt lat="49.02767" lon="7.68416">
        <ele>298.8</ele>
        <time>2026-03-10T08:31:47Z</time>
      </trkpt>
      <trkpt lat="49.02762" lon="7.6841">
        <ele>298.7</ele>
        <time>2026-03-10T08:31:52Z</time>
      </trkpt>
      <trkpt lat="49.02756" lon="7.68403">
        <ele>298.6</ele>
        <time>2026-03-10T08:31:57Z</time>
      </trkpt>
      <trkpt lat="49.02751" lon="7.68397">
        <ele>298.5</ele>
        <time>2026-03-10T08:32:02Z</time>
      </trkpt>
      <trkpt lat="49.02749" lon="7.68389">
        <ele>298.8</ele>
        <time>2026-03-10T08:32:07Z</time>
      </trkpt>
      <trkpt lat="49.02745" lon="7.68383">
        <ele>299.5</ele>
        <time>2026-03-10T08:32:12Z</time>
      </trkpt>
      <trkpt lat="49.02739" lon="7.68374">
        <ele>300.7</ele>
        <time>2026-03-10T08:32:17Z</time>
      </trkpt>
      <trkpt lat="49.02734" lon="7.68367">
        <ele>301.6</ele>
        <time>2026-03-10T08:32:22Z</time>
      </trkpt>
      <trkpt lat="49.02729" lon="7.68364">
        <ele>302.5</ele>
        <time>2026-03-10T08:32:27Z</time>
      </trkpt>
      <trkpt lat="49.02725" lon="7.6836">
        <ele>303.3</ele>
        <time>2026-03-10T08:32:32Z</time>
      </trkpt>
      <trkpt lat="49.02721" lon="7.68354">
        <ele>304.1</ele>
        <time>2026-03-10T08:32:37Z</time>
      </trkpt>
      <trkpt lat="49.02718" lon="7.68349">
        <ele>304.8</ele>
        <time>2026-03-10T08:32:42Z</time>
      </trkpt>
      <trkpt lat="49.02713" lon="7.68344">
        <ele>305.8</ele>
        <time>2026-03-10T08:32:47Z</time>
      </trkpt>
      <trkpt lat="49.02708" lon="7.68338">
        <ele>306.9</ele>
        <time>2026-03-10T08:32:52Z</time>
      </trkpt>
      <trkpt lat="49.02703" lon="7.68329">
        <ele>307.8</ele>
        <time>2026-03-10T08:32:57Z</time>
      </trkpt>
      <trkpt lat="49.02698" lon="7.68321">
        <ele>308.4</ele>
        <time>2026-03-10T08:33:02Z</time>
      </trkpt>
      <trkpt lat="49.02692" lon="7.68315">
        <ele>309.4</ele>
        <time>2026-03-10T08:33:07Z</time>
      </trkpt>
      <trkpt lat="49.02686" lon="7.68308">
        <ele>310.5</ele>
        <time>2026-03-10T08:33:12Z</time>
      </trkpt>
      <trkpt lat="49.02679" lon="7.68301">
        <ele>311.9</ele>
        <time>2026-03-10T08:33:17Z</time>
      </trkpt>
      <trkpt lat="49.02672" lon="7.68296">
        <ele>313.3</ele>
        <time>2026-03-10T08:33:22Z</time>
      </trkpt>
      <trkpt lat="49.02665" lon="7.68294">
        <ele>315.1</ele>
        <time>2026-03-10T08:33:27Z</time>
      </trkpt>
      <trkpt lat="49.02656" lon="7.68293">
        <ele>318.5</ele>
        <time>2026-03-10T08:33:32Z</time>
      </trkpt>
      <trkpt lat="49.02651" lon="7.68292">
        <ele>320.4</ele>
        <time>2026-03-10T08:33:37Z</time>
      </trkpt>
      <trkpt lat="49.02649" lon="7.68292">
        <ele>321.2</ele>
        <time>2026-03-10T08:33:42Z</time>
      </trkpt>
      <trkpt lat="49.02646" lon="7.6829">
        <ele>322.3</ele>
        <time>2026-03-10T08:33:47Z</time>
      </trkpt>
      <trkpt lat="49.02642" lon="7.68284">
        <ele>323.8</ele>
        <time>2026-03-10T08:33:52Z</time>
      </trkpt>
      <trkpt lat="49.02638" lon="7.68281">
        <ele>325.3</ele>
        <time>2026-03-10T08:33:57Z</time>
      </trkpt>
      <trkpt lat="49.02637" lon="7.68283">
        <ele>325.7</ele>
        <time>2026-03-10T08:34:02Z</time>
      </trkpt>
      <trkpt lat="49.02633" lon="7.68282">
        <ele>327.2</ele>
        <time>2026-03-10T08:34:07Z</time>
      </trkpt>
      <trkpt lat="49.02632" lon="7.6828">
        <ele>327.6</ele>
        <time>2026-03-10T08:34:12Z</time>
      </trkpt>
      <trkpt lat="49.02632" lon="7.6828">
        <ele>327.6</ele>
        <time>2026-03-10T08:34:17Z</time>
      </trkpt>
      <trkpt lat="49.02632" lon="7.6828">
        <ele>327.6</ele>
        <time>2026-03-10T08:34:22Z</time>
      </trkpt>
      <trkpt lat="49.02632" lon="7.6828">
        <ele>327.6</ele>
        <time>2026-03-10T08:34:27Z</time>
      </trkpt>
      <trkpt lat="49.02632" lon="7.6828">
        <ele>327.6</ele>
        <time>2026-03-10T08:34:32Z</time>
      </trkpt>
      <trkpt lat="49.02632" lon="7.6828">
        <ele>327.6</ele>
        <time>2026-03-10T08:34:37Z</time>
      </trkpt>
      <trkpt lat="49.02632" lon="7.6828">
        <ele>327.6</ele>
        <time>2026-03-10T08:34:42Z</time>
      </trkpt>
      <trkpt lat="49.02632" lon="7.6828">
        <ele>327.6</ele>
        <time>2026-03-10T08:34:47Z</time>
      </trkpt>
      <trkpt lat="49.02632" lon="7.6828">
        <ele>327.6</ele>
        <time>2026-03-10T08:34:52Z</time>
      </trkpt>
      <trkpt lat="49.02632" lon="7.6828">
        <ele>327.6</ele>
        <time>2026-03-10T08:34:57Z</time>
      </trkpt>
      <trkpt lat="49.02632" lon="7.6828">
        <ele>327.6</ele>
        <time>2026-03-10T08:35:02Z</time>
      </trkpt>
      <trkpt lat="49.02632" lon="7.6828">
        <ele>327.6</ele>
        <time>2026-03-10T08:35:07Z</time>
      </trkpt>
      <trkpt lat="49.02632" lon="7.6828">
        <ele>327.6</ele>
        <time>2026-03-10T08:35:12Z</time>
      </trkpt>
      <trkpt lat="49.02632" lon="7.6828">
        <ele>327.6</ele>
        <time>2026-03-10T08:35:17Z</time>
      </trkpt>
      <trkpt lat="49.02632" lon="7.6828">
        <ele>327.6</ele>
        <time>2026-03-10T08:35:22Z</time>
      </trkpt>
      <trkpt lat="49.02632" lon="7.6828">
        <ele>327.6</ele>
        <time>2026-03-10T08:35:27Z</time>
      </trkpt>
      <trkpt lat="49.02632" lon="7.6828">
        <ele>327.6</ele>
        <time>2026-03-10T08:35:32Z</time>
      </trkpt>
      <trkpt lat="49.02632" lon="7.6828">
        <ele>327.6</ele>
        <time>2026-03-10T08:35:37Z</time>
      </trkpt>
      <trkpt lat="49.02632" lon="7.6828">
        <ele>327.6</ele>
        <time>2026-03-10T08:35:42Z</time>
      </trkpt>
      <trkpt lat="49.02632" lon="7.6828">
        <ele>327.6</ele>
        <time>2026-03-10T08:35:47Z</time>
      </trkpt>
      <trkpt lat="49.02632" lon="7.6828">
        <ele>327.6</ele>
        <time>2026-03-10T08:35:52Z</time>
      </trkpt>
      <trkpt lat="49.02632" lon="7.6828">
        <ele>327.6</ele>
        <time>2026-03-10T08:35:57Z</time>
      </trkpt>
      <trkpt lat="49.02632" lon="7.6828">
        <ele>327.6</ele>
        <time>2026-03-10T08:36:02Z</time>
      </trkpt>
      <trkpt lat="49.02632" lon="7.6828">
        <ele>327.6</ele>
        <time>2026-03-10T08:36:07Z</time>
      </trkpt>
      <trkpt lat="49.02632" lon="7.6828">
        <ele>327.6</ele>
        <time>2026-03-10T08:36:12Z</time>
      </trkpt>
      <trkpt lat="49.02626" lon="7.6828">
        <ele>329.8</ele>
        <time>2026-03-10T08:36:17Z</time>
      </trkpt>
      <trkpt lat="49.02621" lon="7.68275">
        <ele>331.6</ele>
        <time>2026-03-10T08:36:22Z</time>
      </trkpt>
      <trkpt lat="49.02615" lon="7.68267">
        <ele>333.8</ele>
        <time>2026-03-10T08:36:27Z</time>
      </trkpt>
      <trkpt lat="49.02609" lon="7.68261">
        <ele>335.9</ele>
        <time>2026-03-10T08:36:32Z</time>
      </trkpt>
      <trkpt lat="49.02603" lon="7.68258">
        <ele>338</ele>
        <time>2026-03-10T08:36:37Z</time>
      </trkpt>
      <trkpt lat="49.026" lon="7.68257">
        <ele>339.1</ele>
        <time>2026-03-10T08:36:42Z</time>
      </trkpt>
      <trkpt lat="49.02595" lon="7.68257">
        <ele>340.9</ele>
        <time>2026-03-10T08:36:47Z</time>
      </trkpt>
      <trkpt lat="49.02592" lon="7.68253">
        <ele>341.9</ele>
        <time>2026-03-10T08:36:52Z</time>
      </trkpt>
      <trkpt lat="49.0259" lon="7.68248">
        <ele>342.4</ele>
        <time>2026-03-10T08:36:57Z</time>
      </trkpt>
      <trkpt lat="49.0259" lon="7.68245">
        <ele>342.1</ele>
        <time>2026-03-10T08:37:02Z</time>
      </trkpt>
      <trkpt lat="49.02591" lon="7.68245">
        <ele>341.8</ele>
        <time>2026-03-10T08:37:07Z</time>
      </trkpt>
      <trkpt lat="49.02591" lon="7.68245">
        <ele>341.8</ele>
        <time>2026-03-10T08:37:12Z</time>
      </trkpt>
      <trkpt lat="49.02591" lon="7.68245">
        <ele>341.8</ele>
        <time>2026-03-10T08:37:17Z</time>
      </trkpt>
      <trkpt lat="49.02591" lon="7.68245">
        <ele>341.8</ele>
        <time>2026-03-10T08:37:22Z</time>
      </trkpt>
      <trkpt lat="49.02591" lon="7.68245">
        <ele>341.8</ele>
        <time>2026-03-10T08:37:27Z</time>
      </trkpt>
      <trkpt lat="49.02591" lon="7.68245">
        <ele>341.8</ele>
        <time>2026-03-10T08:37:32Z</time>
      </trkpt>
      <trkpt lat="49.02591" lon="7.68245">
        <ele>341.8</ele>
        <time>2026-03-10T08:37:37Z</time>
      </trkpt>
      <trkpt lat="49.02591" lon="7.68245">
        <ele>341.8</ele>
        <time>2026-03-10T08:37:42Z</time>
      </trkpt>
      <trkpt lat="49.02591" lon="7.68245">
        <ele>341.8</ele>
        <time>2026-03-10T08:37:47Z</time>
      </trkpt>
      <trkpt lat="49.02591" lon="7.68245">
        <ele>341.8</ele>
        <time>2026-03-10T08:37:52Z</time>
      </trkpt>
      <trkpt lat="49.02591" lon="7.68245">
        <ele>341.8</ele>
        <time>2026-03-10T08:37:57Z</time>
      </trkpt>
      <trkpt lat="49.02591" lon="7.68245">
        <ele>341.8</ele>
        <time>2026-03-10T08:38:02Z</time>
      </trkpt>
      <trkpt lat="49.02591" lon="7.68245">
        <ele>341.8</ele>
        <time>2026-03-10T08:38:07Z</time>
      </trkpt>
      <trkpt lat="49.02589" lon="7.68238">
        <ele>341.8</ele>
        <time>2026-03-10T08:38:12Z</time>
      </trkpt>
      <trkpt lat="49.02586" lon="7.68234">
        <ele>342.5</ele>
        <time>2026-03-10T08:38:17Z</time>
      </trkpt>
      <trkpt lat="49.02583" lon="7.6823">
        <ele>343.2</ele>
        <time>2026-03-10T08:38:22Z</time>
      </trkpt>
      <trkpt lat="49.02579" lon="7.68226">
        <ele>344.3</ele>
        <time>2026-03-10T08:38:27Z</time>
      </trkpt>
      <trkpt lat="49.02577" lon="7.68222">
        <ele>344.6</ele>
        <time>2026-03-10T08:38:32Z</time>
      </trkpt>
      <trkpt lat="49.02574" lon="7.68219">
        <ele>345.5</ele>
        <time>2026-03-10T08:38:37Z</time>
      </trkpt>
      <trkpt lat="49.02573" lon="7.68219">
        <ele>345.9</ele>
        <time>2026-03-10T08:38:42Z</time>
      </trkpt>
      <trkpt lat="49.02573" lon="7.68219">
        <ele>345.9</ele>
        <time>2026-03-10T08:38:47Z</time>
      </trkpt>
      <trkpt lat="49.02573" lon="7.68219">
        <ele>345.9</ele>
        <time>2026-03-10T08:38:52Z</time>
      </trkpt>
      <trkpt lat="49.02568" lon="7.68212">
        <ele>347.2</ele>
        <time>2026-03-10T08:38:57Z</time>
      </trkpt>
      <trkpt lat="49.02563" lon="7.6821">
        <ele>349</ele>
        <time>2026-03-10T08:39:02Z</time>
      </trkpt>
      <trkpt lat="49.02559" lon="7.68207">
        <ele>350.4</ele>
        <time>2026-03-10T08:39:07Z</time>
      </trkpt>
      <trkpt lat="49.02556" lon="7.68203">
        <ele>351.4</ele>
        <time>2026-03-10T08:39:12Z</time>
      </trkpt>
      <trkpt lat="49.02556" lon="7.68204">
        <ele>351.4</ele>
        <time>2026-03-10T08:39:17Z</time>
      </trkpt>
      <trkpt lat="49.02555" lon="7.68205">
        <ele>351.9</ele>
        <time>2026-03-10T08:39:22Z</time>
      </trkpt>
      <trkpt lat="49.02555" lon="7.68205">
        <ele>351.9</ele>
        <time>2026-03-10T08:39:27Z</time>
      </trkpt>
      <trkpt lat="49.02553" lon="7.68202">
        <ele>352.5</ele>
        <time>2026-03-10T08:39:32Z</time>
      </trkpt>
      <trkpt lat="49.0255" lon="7.68196">
        <ele>353.5</ele>
        <time>2026-03-10T08:39:37Z</time>
      </trkpt>
      <trkpt lat="49.02547" lon="7.68192">
        <ele>354.5</ele>
        <time>2026-03-10T08:39:42Z</time>
      </trkpt>
      <trkpt lat="49.02544" lon="7.68188">
        <ele>355.7</ele>
        <time>2026-03-10T08:39:47Z</time>
      </trkpt>
      <trkpt lat="49.02538" lon="7.68184">
        <ele>358.1</ele>
        <time>2026-03-10T08:39:52Z</time>
      </trkpt>
      <trkpt lat="49.02534" lon="7.68179">
        <ele>359.7</ele>
        <time>2026-03-10T08:39:57Z</time>
      </trkpt>
      <trkpt lat="49.02531" lon="7.68175">
        <ele>361</ele>
        <time>2026-03-10T08:40:02Z</time>
      </trkpt>
      <trkpt lat="49.02528" lon="7.6817">
        <ele>362.3</ele>
        <time>2026-03-10T08:40:07Z</time>
      </trkpt>
      <trkpt lat="49.02525" lon="7.68165">
        <ele>363.5</ele>
        <time>2026-03-10T08:40:12Z</time>
      </trkpt>
      <trkpt lat="49.02521" lon="7.68159">
        <ele>364.9</ele>
        <time>2026-03-10T08:40:17Z</time>
      </trkpt>
      <trkpt lat="49.02516" lon="7.68152">
        <ele>366.7</ele>
        <time>2026-03-10T08:40:22Z</time>
      </trkpt>
      <trkpt lat="49.02512" lon="7.68148">
        <ele>368.3</ele>
        <time>2026-03-10T08:40:27Z</time>
      </trkpt>
      <trkpt lat="49.02509" lon="7.68143">
        <ele>369.4</ele>
        <time>2026-03-10T08:40:32Z</time>
      </trkpt>
      <trkpt lat="49.02507" lon="7.68141">
        <ele>370.2</ele>
        <time>2026-03-10T08:40:37Z</time>
      </trkpt>
      <trkpt lat="49.02504" lon="7.68137">
        <ele>371.3</ele>
        <time>2026-03-10T08:40:42Z</time>
      </trkpt>
      <trkpt lat="49.02502" lon="7.68133">
        <ele>372</ele>
        <time>2026-03-10T08:40:47Z</time>
      </trkpt>
      <trkpt lat="49.02499" lon="7.68128">
        <ele>373.2</ele>
        <time>2026-03-10T08:40:52Z</time>
      </trkpt>
      <trkpt lat="49.02496" lon="7.68126">
        <ele>374.5</ele>
        <time>2026-03-10T08:40:57Z</time>
      </trkpt>
      <trkpt lat="49.02494" lon="7.68123">
        <ele>375.2</ele>
        <time>2026-03-10T08:41:02Z</time>
      </trkpt>
      <trkpt lat="49.02493" lon="7.68121">
        <ele>375.6</ele>
        <time>2026-03-10T08:41:07Z</time>
      </trkpt>
      <trkpt lat="49.0249" lon="7.68113">
        <ele>376.7</ele>
        <time>2026-03-10T08:41:12Z</time>
      </trkpt>
      <trkpt lat="49.02487" lon="7.68108">
        <ele>377.9</ele>
        <time>2026-03-10T08:41:17Z</time>
      </trkpt>
      <trkpt lat="49.02484" lon="7.68103">
        <ele>379.2</ele>
        <time>2026-03-10T08:41:22Z</time>
      </trkpt>
      <trkpt lat="49.02482" lon="7.68099">
        <ele>380.1</ele>
        <time>2026-03-10T08:41:27Z</time>
      </trkpt>
      <trkpt lat="49.0248" lon="7.68094">
        <ele>380.9</ele>
        <time>2026-03-10T08:41:32Z</time>
      </trkpt>
      <trkpt lat="49.02478" lon="7.68091">
        <ele>381.9</ele>
        <time>2026-03-10T08:41:37Z</time>
      </trkpt>
      <trkpt lat="49.02475" lon="7.68086">
        <ele>383.3</ele>
        <time>2026-03-10T08:41:42Z</time>
      </trkpt>
      <trkpt lat="49.02474" lon="7.68081">
        <ele>383.5</ele>
        <time>2026-03-10T08:41:47Z</time>
      </trkpt>
      <trkpt lat="49.02472" lon="7.68076">
        <ele>384</ele>
        <time>2026-03-10T08:41:52Z</time>
      </trkpt>
      <trkpt lat="49.02471" lon="7.68069">
        <ele>383.8</ele>
        <time>2026-03-10T08:41:57Z</time>
      </trkpt>
      <trkpt lat="49.0247" lon="7.68065">
        <ele>384</ele>
        <time>2026-03-10T08:42:02Z</time>
      </trkpt>
      <trkpt lat="49.02468" lon="7.68061">
        <ele>384.7</ele>
        <time>2026-03-10T08:42:07Z</time>
      </trkpt>
      <trkpt lat="49.02466" lon="7.68058">
        <ele>385.5</ele>
        <time>2026-03-10T08:42:12Z</time>
      </trkpt>
      <trkpt lat="49.02462" lon="7.68051">
        <ele>387</ele>
        <time>2026-03-10T08:42:17Z</time>
      </trkpt>
      <trkpt lat="49.02461" lon="7.68046">
        <ele>387.1</ele>
        <time>2026-03-10T08:42:22Z</time>
      </trkpt>
      <trkpt lat="49.0246" lon="7.6804">
        <ele>387.1</ele>
        <time>2026-03-10T08:42:27Z</time>
      </trkpt>
      <trkpt lat="49.02458" lon="7.68034">
        <ele>387.8</ele>
        <time>2026-03-10T08:42:32Z</time>
      </trkpt>
      <trkpt lat="49.02456" lon="7.68028">
        <ele>388.4</ele>
        <time>2026-03-10T08:42:37Z</time>
      </trkpt>
      <trkpt lat="49.02453" lon="7.68023">
        <ele>389.7</ele>
        <time>2026-03-10T08:42:42Z</time>
      </trkpt>
      <trkpt lat="49.02453" lon="7.68018">
        <ele>389.3</ele>
        <time>2026-03-10T08:42:47Z</time>
      </trkpt>
      <trkpt lat="49.02451" lon="7.68013">
        <ele>390.1</ele>
        <time>2026-03-10T08:42:52Z</time>
      </trkpt>
      <trkpt lat="49.02449" lon="7.68008">
        <ele>390.9</ele>
        <time>2026-03-10T08:42:57Z</time>
      </trkpt>
      <trkpt lat="49.02446" lon="7.68003">
        <ele>392.3</ele>
        <time>2026-03-10T08:43:02Z</time>
      </trkpt>
      <trkpt lat="49.02442" lon="7.67998">
        <ele>394.4</ele>
        <time>2026-03-10T08:43:07Z</time>
      </trkpt>
      <trkpt lat="49.02441" lon="7.67992">
        <ele>394.6</ele>
        <time>2026-03-10T08:43:12Z</time>
      </trkpt>
      <trkpt lat="49.0244" lon="7.67987">
        <ele>395</ele>
        <time>2026-03-10T08:43:17Z</time>
      </trkpt>
      <trkpt lat="49.02441" lon="7.6798">
        <ele>393.9</ele>
        <time>2026-03-10T08:43:22Z</time>
      </trkpt>
      <trkpt lat="49.02439" lon="7.67974">
        <ele>394.8</ele>
        <time>2026-03-10T08:43:27Z</time>
      </trkpt>
      <trkpt lat="49.02437" lon="7.6797">
        <ele>395.9</ele>
        <time>2026-03-10T08:43:32Z</time>
      </trkpt>
      <trkpt lat="49.02437" lon="7.6797">
        <ele>395.9</ele>
        <time>2026-03-10T08:43:37Z</time>
      </trkpt>
      <trkpt lat="49.02437" lon="7.6797">
        <ele>395.9</ele>
        <time>2026-03-10T08:43:42Z</time>
      </trkpt>
      <trkpt lat="49.02437" lon="7.6797">
        <ele>395.9</ele>
        <time>2026-03-10T08:43:47Z</time>
      </trkpt>
      <trkpt lat="49.02437" lon="7.6797">
        <ele>395.9</ele>
        <time>2026-03-10T08:43:52Z</time>
      </trkpt>
      <trkpt lat="49.02432" lon="7.67955">
        <ele>398.2</ele>
        <time>2026-03-10T08:43:57Z</time>
      </trkpt>
      <trkpt lat="49.02432" lon="7.67955">
        <ele>398.2</ele>
        <time>2026-03-10T08:44:02Z</time>
      </trkpt>
      <trkpt lat="49.02427" lon="7.67951">
        <ele>401.1</ele>
        <time>2026-03-10T08:44:07Z</time>
      </trkpt>
      <trkpt lat="49.02427" lon="7.67944">
        <ele>400.7</ele>
        <time>2026-03-10T08:44:12Z</time>
      </trkpt>
      <trkpt lat="49.02426" lon="7.67938">
        <ele>401.1</ele>
        <time>2026-03-10T08:44:17Z</time>
      </trkpt>
      <trkpt lat="49.02423" lon="7.67933">
        <ele>402.7</ele>
        <time>2026-03-10T08:44:22Z</time>
      </trkpt>
      <trkpt lat="49.0242" lon="7.6793">
        <ele>404.5</ele>
        <time>2026-03-10T08:44:27Z</time>
      </trkpt>
      <trkpt lat="49.02419" lon="7.67923">
        <ele>404.8</ele>
        <time>2026-03-10T08:44:32Z</time>
      </trkpt>
      <trkpt lat="49.02414" lon="7.67918">
        <ele>406.7</ele>
        <time>2026-03-10T08:44:37Z</time>
      </trkpt>
      <trkpt lat="49.02412" lon="7.67911">
        <ele>406.3</ele>
        <time>2026-03-10T08:44:42Z</time>
      </trkpt>
      <trkpt lat="49.02411" lon="7.67908">
        <ele>406.1</ele>
        <time>2026-03-10T08:44:47Z</time>
      </trkpt>
      <trkpt lat="49.02409" lon="7.67904">
        <ele>405.9</ele>
        <time>2026-03-10T08:44:52Z</time>
      </trkpt>
      <trkpt lat="49.02409" lon="7.67902">
        <ele>405.6</ele>
        <time>2026-03-10T08:44:57Z</time>
      </trkpt>
      <trkpt lat="49.02407" lon="7.67897">
        <ele>405.3</ele>
        <time>2026-03-10T08:45:02Z</time>
      </trkpt>
      <trkpt lat="49.02406" lon="7.67891">
        <ele>404.5</ele>
        <time>2026-03-10T08:45:07Z</time>
      </trkpt>
      <trkpt lat="49.02404" lon="7.67884">
        <ele>403.8</ele>
        <time>2026-03-10T08:45:12Z</time>
      </trkpt>
      <trkpt lat="49.02402" lon="7.67881">
        <ele>403.7</ele>
        <time>2026-03-10T08:45:17Z</time>
      </trkpt>
      <trkpt lat="49.02401" lon="7.67879">
        <ele>403.5</ele>
        <time>2026-03-10T08:45:22Z</time>
      </trkpt>
      <trkpt lat="49.02399" lon="7.67873">
        <ele>402.8</ele>
        <time>2026-03-10T08:45:27Z</time>
      </trkpt>
      <trkpt lat="49.024" lon="7.67869">
        <ele>402</ele>
        <time>2026-03-10T08:45:32Z</time>
      </trkpt>
      <trkpt lat="49.02396" lon="7.67863">
        <ele>401.6</ele>
        <time>2026-03-10T08:45:37Z</time>
      </trkpt>
      <trkpt lat="49.02394" lon="7.67857">
        <ele>400.8</ele>
        <time>2026-03-10T08:45:42Z</time>
      </trkpt>
      <trkpt lat="49.02392" lon="7.67852">
        <ele>400.1</ele>
        <time>2026-03-10T08:45:47Z</time>
      </trkpt>
      <trkpt lat="49.02388" lon="7.67849">
        <ele>400</ele>
        <time>2026-03-10T08:45:52Z</time>
      </trkpt>
      <trkpt lat="49.02385" lon="7.67844">
        <ele>399.3</ele>
        <time>2026-03-10T08:45:57Z</time>
      </trkpt>
      <trkpt lat="49.02383" lon="7.67838">
        <ele>398.3</ele>
        <time>2026-03-10T08:46:02Z</time>
      </trkpt>
      <trkpt lat="49.02382" lon="7.67833">
        <ele>397.4</ele>
        <time>2026-03-10T08:46:07Z</time>
      </trkpt>
      <trkpt lat="49.02381" lon="7.67831">
        <ele>397.1</ele>
        <time>2026-03-10T08:46:12Z</time>
      </trkpt>
      <trkpt lat="49.02381" lon="7.67831">
        <ele>397.1</ele>
        <time>2026-03-10T08:46:17Z</time>
      </trkpt>
      <trkpt lat="49.02381" lon="7.67831">
        <ele>397.1</ele>
        <time>2026-03-10T08:46:22Z</time>
      </trkpt>
      <trkpt lat="49.02381" lon="7.67831">
        <ele>397.1</ele>
        <time>2026-03-10T08:46:27Z</time>
      </trkpt>
      <trkpt lat="49.02381" lon="7.67831">
        <ele>397.1</ele>
        <time>2026-03-10T08:46:32Z</time>
      </trkpt>
      <trkpt lat="49.02381" lon="7.67831">
        <ele>397.1</ele>
        <time>2026-03-10T08:46:37Z</time>
      </trkpt>
      <trkpt lat="49.02381" lon="7.67831">
        <ele>397.1</ele>
        <time>2026-03-10T08:46:42Z</time>
      </trkpt>
      <trkpt lat="49.02381" lon="7.67831">
        <ele>397.1</ele>
        <time>2026-03-10T08:46:47Z</time>
      </trkpt>
      <trkpt lat="49.02381" lon="7.67831">
        <ele>397.1</ele>
        <time>2026-03-10T08:46:52Z</time>
      </trkpt>
      <trkpt lat="49.02381" lon="7.67831">
        <ele>397.1</ele>
        <time>2026-03-10T08:46:57Z</time>
      </trkpt>
      <trkpt lat="49.02381" lon="7.67831">
        <ele>397.1</ele>
        <time>2026-03-10T08:47:02Z</time>
      </trkpt>
      <trkpt lat="49.02381" lon="7.67831">
        <ele>397.1</ele>
        <time>2026-03-10T08:47:07Z</time>
      </trkpt>
      <trkpt lat="49.02381" lon="7.67831">
        <ele>397.1</ele>
        <time>2026-03-10T08:47:12Z</time>
      </trkpt>
      <trkpt lat="49.02381" lon="7.67831">
        <ele>397.1</ele>
        <time>2026-03-10T08:47:17Z</time>
      </trkpt>
      <trkpt lat="49.02381" lon="7.67831">
        <ele>397.1</ele>
        <time>2026-03-10T08:47:22Z</time>
      </trkpt>
      <trkpt lat="49.02381" lon="7.67831">
        <ele>397.1</ele>
        <time>2026-03-10T08:47:27Z</time>
      </trkpt>
      <trkpt lat="49.02381" lon="7.67831">
        <ele>397.1</ele>
        <time>2026-03-10T08:47:32Z</time>
      </trkpt>
      <trkpt lat="49.02381" lon="7.67831">
        <ele>397.1</ele>
        <time>2026-03-10T08:47:37Z</time>
      </trkpt>
      <trkpt lat="49.02381" lon="7.67831">
        <ele>397.1</ele>
        <time>2026-03-10T08:47:42Z</time>
      </trkpt>
      <trkpt lat="49.02381" lon="7.67831">
        <ele>397.1</ele>
        <time>2026-03-10T08:47:47Z</time>
      </trkpt>
      <trkpt lat="49.02384" lon="7.67823">
        <ele>395.3</ele>
        <time>2026-03-10T08:47:52Z</time>
      </trkpt>
      <trkpt lat="49.02381" lon="7.67818">
        <ele>394.5</ele>
        <time>2026-03-10T08:47:57Z</time>
      </trkpt>
      <trkpt lat="49.02377" lon="7.67811">
        <ele>393.3</ele>
        <time>2026-03-10T08:48:02Z</time>
      </trkpt>
      <trkpt lat="49.02374" lon="7.67806">
        <ele>392.5</ele>
        <time>2026-03-10T08:48:07Z</time>
      </trkpt>
      <trkpt lat="49.0237" lon="7.67803">
        <ele>392.1</ele>
        <time>2026-03-10T08:48:12Z</time>
      </trkpt>
      <trkpt lat="49.02368" lon="7.67797">
        <ele>391</ele>
        <time>2026-03-10T08:48:17Z</time>
      </trkpt>
      <trkpt lat="49.02365" lon="7.67791">
        <ele>390</ele>
        <time>2026-03-10T08:48:22Z</time>
      </trkpt>
      <trkpt lat="49.02361" lon="7.67786">
        <ele>389.2</ele>
        <time>2026-03-10T08:48:27Z</time>
      </trkpt>
      <trkpt lat="49.02358" lon="7.67781">
        <ele>388.3</ele>
        <time>2026-03-10T08:48:32Z</time>
      </trkpt>
      <trkpt lat="49.02356" lon="7.67775">
        <ele>387.1</ele>
        <time>2026-03-10T08:48:37Z</time>
      </trkpt>
      <trkpt lat="49.02353" lon="7.6777">
        <ele>386.3</ele>
        <time>2026-03-10T08:48:42Z</time>
      </trkpt>
      <trkpt lat="49.02348" lon="7.67768">
        <ele>386.1</ele>
        <time>2026-03-10T08:48:47Z</time>
      </trkpt>
      <trkpt lat="49.02345" lon="7.67765">
        <ele>385.6</ele>
        <time>2026-03-10T08:48:52Z</time>
      </trkpt>
      <trkpt lat="49.02342" lon="7.67762">
        <ele>385.1</ele>
        <time>2026-03-10T08:48:57Z</time>
      </trkpt>
      <trkpt lat="49.02339" lon="7.6776">
        <ele>384.9</ele>
        <time>2026-03-10T08:49:02Z</time>
      </trkpt>
      <trkpt lat="49.02337" lon="7.67755">
        <ele>383.9</ele>
        <time>2026-03-10T08:49:07Z</time>
      </trkpt>
      <trkpt lat="49.02336" lon="7.67749">
        <ele>382.7</ele>
        <time>2026-03-10T08:49:12Z</time>
      </trkpt>
      <trkpt lat="49.02334" lon="7.67743">
        <ele>381.9</ele>
        <time>2026-03-10T08:49:17Z</time>
      </trkpt>
      <trkpt lat="49.02332" lon="7.67737">
        <ele>380.5</ele>
        <time>2026-03-10T08:49:22Z</time>
      </trkpt>
      <trkpt lat="49.0233" lon="7.67731">
        <ele>378.9</ele>
        <time>2026-03-10T08:49:27Z</time>
      </trkpt>
      <trkpt lat="49.02329" lon="7.67726">
        <ele>377.8</ele>
        <time>2026-03-10T08:49:32Z</time>
      </trkpt>
      <trkpt lat="49.02326" lon="7.67722">
        <ele>376.2</ele>
        <time>2026-03-10T08:49:37Z</time>
      </trkpt>
      <trkpt lat="49.02322" lon="7.67718">
        <ele>374.2</ele>
        <time>2026-03-10T08:49:42Z</time>
      </trkpt>
      <trkpt lat="49.02321" lon="7.67714">
        <ele>373.3</ele>
        <time>2026-03-10T08:49:47Z</time>
      </trkpt>
      <trkpt lat="49.02318" lon="7.6771">
        <ele>371.6</ele>
        <time>2026-03-10T08:49:52Z</time>
      </trkpt>
      <trkpt lat="49.02316" lon="7.67705">
        <ele>370.1</ele>
        <time>2026-03-10T08:49:57Z</time>
      </trkpt>
      <trkpt lat="49.02314" lon="7.67699">
        <ele>368.5</ele>
        <time>2026-03-10T08:50:02Z</time>
      </trkpt>
      <trkpt lat="49.02313" lon="7.67693">
        <ele>367.2</ele>
        <time>2026-03-10T08:50:07Z</time>
      </trkpt>
      <trkpt lat="49.0231" lon="7.67688">
        <ele>365.4</ele>
        <time>2026-03-10T08:50:12Z</time>
      </trkpt>
      <trkpt lat="49.02305" lon="7.67683">
        <ele>362.8</ele>
        <time>2026-03-10T08:50:17Z</time>
      </trkpt>
      <trkpt lat="49.02299" lon="7.6768">
        <ele>360.3</ele>
        <time>2026-03-10T08:50:22Z</time>
      </trkpt>
      <trkpt lat="49.02296" lon="7.67679">
        <ele>359.1</ele>
        <time>2026-03-10T08:50:27Z</time>
      </trkpt>
      <trkpt lat="49.02292" lon="7.67678">
        <ele>357.5</ele>
        <time>2026-03-10T08:50:32Z</time>
      </trkpt>
      <trkpt lat="49.02288" lon="7.6768">
        <ele>356.5</ele>
        <time>2026-03-10T08:50:37Z</time>
      </trkpt>
      <trkpt lat="49.02285" lon="7.67687">
        <ele>356.6</ele>
        <time>2026-03-10T08:50:42Z</time>
      </trkpt>
      <trkpt lat="49.02282" lon="7.67694">
        <ele>356.8</ele>
        <time>2026-03-10T08:50:47Z</time>
      </trkpt>
      <trkpt lat="49.02279" lon="7.677">
        <ele>356.8</ele>
        <time>2026-03-10T08:50:52Z</time>
      </trkpt>
      <trkpt lat="49.02276" lon="7.67704">
        <ele>356.5</ele>
        <time>2026-03-10T08:50:57Z</time>
      </trkpt>
      <trkpt lat="49.02272" lon="7.67709">
        <ele>356</ele>
        <time>2026-03-10T08:51:02Z</time>
      </trkpt>
      <trkpt lat="49.02268" lon="7.67714">
        <ele>355.5</ele>
        <time>2026-03-10T08:51:07Z</time>
      </trkpt>
      <trkpt lat="49.02266" lon="7.67721">
        <ele>356.1</ele>
        <time>2026-03-10T08:51:12Z</time>
      </trkpt>
      <trkpt lat="49.02263" lon="7.67728">
        <ele>356.3</ele>
        <time>2026-03-10T08:51:17Z</time>
      </trkpt>
      <trkpt lat="49.02259" lon="7.67733">
        <ele>355.9</ele>
        <time>2026-03-10T08:51:22Z</time>
      </trkpt>
      <trkpt lat="49.02256" lon="7.6774">
        <ele>356.2</ele>
        <time>2026-03-10T08:51:27Z</time>
      </trkpt>
      <trkpt lat="49.02254" lon="7.67747">
        <ele>356.8</ele>
        <time>2026-03-10T08:51:32Z</time>
      </trkpt>
      <trkpt lat="49.0225" lon="7.67753">
        <ele>356.6</ele>
        <time>2026-03-10T08:51:37Z</time>
      </trkpt>
      <trkpt lat="49.02246" lon="7.67759">
        <ele>356.5</ele>
        <time>2026-03-10T08:51:42Z</time>
      </trkpt>
      <trkpt lat="49.02242" lon="7.67761">
        <ele>355.6</ele>
        <time>2026-03-10T08:51:47Z</time>
      </trkpt>
      <trkpt lat="49.02237" lon="7.67765">
        <ele>354.7</ele>
        <time>2026-03-10T08:51:52Z</time>
      </trkpt>
      <trkpt lat="49.02232" lon="7.67769">
        <ele>353.9</ele>
        <time>2026-03-10T08:51:57Z</time>
      </trkpt>
      <trkpt lat="49.02227" lon="7.67773">
        <ele>353.1</ele>
        <time>2026-03-10T08:52:02Z</time>
      </trkpt>
      <trkpt lat="49.02222" lon="7.67778">
        <ele>352.5</ele>
        <time>2026-03-10T08:52:07Z</time>
      </trkpt>
      <trkpt lat="49.02219" lon="7.67785">
        <ele>353</ele>
        <time>2026-03-10T08:52:12Z</time>
      </trkpt>
      <trkpt lat="49.02215" lon="7.67792">
        <ele>353.2</ele>
        <time>2026-03-10T08:52:17Z</time>
      </trkpt>
      <trkpt lat="49.02211" lon="7.67797">
        <ele>353</ele>
        <time>2026-03-10T08:52:22Z</time>
      </trkpt>
      <trkpt lat="49.02207" lon="7.67802">
        <ele>352.8</ele>
        <time>2026-03-10T08:52:27Z</time>
      </trkpt>
      <trkpt lat="49.02202" lon="7.67808">
        <ele>352.5</ele>
        <time>2026-03-10T08:52:32Z</time>
      </trkpt>
      <trkpt lat="49.02199" lon="7.67812">
        <ele>352.4</ele>
        <time>2026-03-10T08:52:37Z</time>
      </trkpt>
      <trkpt lat="49.02197" lon="7.67818">
        <ele>353.1</ele>
        <time>2026-03-10T08:52:42Z</time>
      </trkpt>
      <trkpt lat="49.02196" lon="7.67825">
        <ele>354.3</ele>
        <time>2026-03-10T08:52:47Z</time>
      </trkpt>
      <trkpt lat="49.02192" lon="7.67832">
        <ele>354.6</ele>
        <time>2026-03-10T08:52:52Z</time>
      </trkpt>
      <trkpt lat="49.02191" lon="7.67839">
        <ele>355.4</ele>
        <time>2026-03-10T08:52:57Z</time>
      </trkpt>
      <trkpt lat="49.02188" lon="7.67847">
        <ele>355.5</ele>
        <time>2026-03-10T08:53:02Z</time>
      </trkpt>
      <trkpt lat="49.02183" lon="7.67853">
        <ele>354.6</ele>
        <time>2026-03-10T08:53:07Z</time>
      </trkpt>
      <trkpt lat="49.0218" lon="7.6786">
        <ele>354.5</ele>
        <time>2026-03-10T08:53:12Z</time>
      </trkpt>
      <trkpt lat="49.02177" lon="7.67863">
        <ele>353.8</ele>
        <time>2026-03-10T08:53:17Z</time>
      </trkpt>
      <trkpt lat="49.02172" lon="7.67865">
        <ele>352.3</ele>
        <time>2026-03-10T08:53:22Z</time>
      </trkpt>
      <trkpt lat="49.02166" lon="7.67871">
        <ele>350.8</ele>
        <time>2026-03-10T08:53:27Z</time>
      </trkpt>
      <trkpt lat="49.02164" lon="7.67878">
        <ele>350.9</ele>
        <time>2026-03-10T08:53:32Z</time>
      </trkpt>
      <trkpt lat="49.0216" lon="7.67885">
        <ele>350.3</ele>
        <time>2026-03-10T08:53:37Z</time>
      </trkpt>
      <trkpt lat="49.02157" lon="7.67892">
        <ele>350.1</ele>
        <time>2026-03-10T08:53:42Z</time>
      </trkpt>
      <trkpt lat="49.02152" lon="7.679">
        <ele>349.2</ele>
        <time>2026-03-10T08:53:47Z</time>
      </trkpt>
      <trkpt lat="49.02149" lon="7.67907">
        <ele>349</ele>
        <time>2026-03-10T08:53:52Z</time>
      </trkpt>
      <trkpt lat="49.02147" lon="7.67914">
        <ele>349.1</ele>
        <time>2026-03-10T08:53:57Z</time>
      </trkpt>
      <trkpt lat="49.02146" lon="7.67922">
        <ele>348.9</ele>
        <time>2026-03-10T08:54:02Z</time>
      </trkpt>
      <trkpt lat="49.02145" lon="7.67928">
        <ele>348.4</ele>
        <time>2026-03-10T08:54:07Z</time>
      </trkpt>
      <trkpt lat="49.02146" lon="7.67932">
        <ele>348.6</ele>
        <time>2026-03-10T08:54:12Z</time>
      </trkpt>
      <trkpt lat="49.02146" lon="7.67932">
        <ele>348.6</ele>
        <time>2026-03-10T08:54:17Z</time>
      </trkpt>
      <trkpt lat="49.02146" lon="7.67941">
        <ele>348.4</ele>
        <time>2026-03-10T08:54:22Z</time>
      </trkpt>
      <trkpt lat="49.02144" lon="7.67948">
        <ele>347.7</ele>
        <time>2026-03-10T08:54:27Z</time>
      </trkpt>
      <trkpt lat="49.02144" lon="7.67956">
        <ele>347.5</ele>
        <time>2026-03-10T08:54:32Z</time>
      </trkpt>
      <trkpt lat="49.02144" lon="7.67962">
        <ele>347.3</ele>
        <time>2026-03-10T08:54:37Z</time>
      </trkpt>
      <trkpt lat="49.02145" lon="7.67967">
        <ele>347.5</ele>
        <time>2026-03-10T08:54:42Z</time>
      </trkpt>
      <trkpt lat="49.02145" lon="7.67974">
        <ele>347.3</ele>
        <time>2026-03-10T08:54:47Z</time>
      </trkpt>
      <trkpt lat="49.02143" lon="7.67981">
        <ele>346.7</ele>
        <time>2026-03-10T08:54:52Z</time>
      </trkpt>
      <trkpt lat="49.02143" lon="7.67989">
        <ele>346.5</ele>
        <time>2026-03-10T08:54:57Z</time>
      </trkpt>
      <trkpt lat="49.02143" lon="7.67998">
        <ele>346.3</ele>
        <time>2026-03-10T08:55:02Z</time>
      </trkpt>
      <trkpt lat="49.02144" lon="7.68008">
        <ele>347.1</ele>
        <time>2026-03-10T08:55:07Z</time>
      </trkpt>
      <trkpt lat="49.02146" lon="7.6802">
        <ele>348.3</ele>
        <time>2026-03-10T08:55:12Z</time>
      </trkpt>
      <trkpt lat="49.02147" lon="7.68031">
        <ele>349.3</ele>
        <time>2026-03-10T08:55:17Z</time>
      </trkpt>
      <trkpt lat="49.02149" lon="7.68041">
        <ele>350.2</ele>
        <time>2026-03-10T08:55:22Z</time>
      </trkpt>
      <trkpt lat="49.02149" lon="7.68054">
        <ele>351.1</ele>
        <time>2026-03-10T08:55:27Z</time>
      </trkpt>
      <trkpt lat="49.02148" lon="7.68065">
        <ele>351.9</ele>
        <time>2026-03-10T08:55:32Z</time>
      </trkpt>
      <trkpt lat="49.02149" lon="7.68074">
        <ele>352.5</ele>
        <time>2026-03-10T08:55:37Z</time>
      </trkpt>
      <trkpt lat="49.02154" lon="7.68081">
        <ele>353</ele>
        <time>2026-03-10T08:55:42Z</time>
      </trkpt>
      <trkpt lat="49.02158" lon="7.68085">
        <ele>353.3</ele>
        <time>2026-03-10T08:55:47Z</time>
      </trkpt>
      <trkpt lat="49.0216" lon="7.68093">
        <ele>354.3</ele>
        <time>2026-03-10T08:55:52Z</time>
      </trkpt>
      <trkpt lat="49.02159" lon="7.68104">
        <ele>355.7</ele>
        <time>2026-03-10T08:55:57Z</time>
      </trkpt>
      <trkpt lat="49.0216" lon="7.68114">
        <ele>356.9</ele>
        <time>2026-03-10T08:56:02Z</time>
      </trkpt>
      <trkpt lat="49.02162" lon="7.68127">
        <ele>358.5</ele>
        <time>2026-03-10T08:56:07Z</time>
      </trkpt>
      <trkpt lat="49.02165" lon="7.68136">
        <ele>359.4</ele>
        <time>2026-03-10T08:56:12Z</time>
      </trkpt>
      <trkpt lat="49.02169" lon="7.68142">
        <ele>360.6</ele>
        <time>2026-03-10T08:56:17Z</time>
      </trkpt>
      <trkpt lat="49.0217" lon="7.68152">
        <ele>362</ele>
        <time>2026-03-10T08:56:22Z</time>
      </trkpt>
      <trkpt lat="49.02171" lon="7.68165">
        <ele>363.7</ele>
        <time>2026-03-10T08:56:27Z</time>
      </trkpt>
      <trkpt lat="49.02173" lon="7.68175">
        <ele>364.7</ele>
        <time>2026-03-10T08:56:32Z</time>
      </trkpt>
      <trkpt lat="49.02173" lon="7.68187">
        <ele>365.3</ele>
        <time>2026-03-10T08:56:37Z</time>
      </trkpt>
      <trkpt lat="49.02172" lon="7.68196">
        <ele>365.6</ele>
        <time>2026-03-10T08:56:42Z</time>
      </trkpt>
      <trkpt lat="49.0217" lon="7.68205">
        <ele>365.8</ele>
        <time>2026-03-10T08:56:47Z</time>
      </trkpt>
      <trkpt lat="49.02165" lon="7.68211">
        <ele>365.7</ele>
        <time>2026-03-10T08:56:52Z</time>
      </trkpt>
      <trkpt lat="49.0216" lon="7.68218">
        <ele>366.2</ele>
        <time>2026-03-10T08:56:57Z</time>
      </trkpt>
      <trkpt lat="49.02156" lon="7.68229">
        <ele>366.8</ele>
        <time>2026-03-10T08:57:02Z</time>
      </trkpt>
      <trkpt lat="49.0215" lon="7.68233">
        <ele>366.9</ele>
        <time>2026-03-10T08:57:07Z</time>
      </trkpt>
      <trkpt lat="49.02143" lon="7.68233">
        <ele>366.9</ele>
        <time>2026-03-10T08:57:12Z</time>
      </trkpt>
      <trkpt lat="49.02134" lon="7.68227">
        <ele>366.8</ele>
        <time>2026-03-10T08:57:17Z</time>
      </trkpt>
      <trkpt lat="49.02131" lon="7.68225">
        <ele>366.8</ele>
        <time>2026-03-10T08:57:22Z</time>
      </trkpt>
      <trkpt lat="49.02126" lon="7.68221">
        <ele>366.8</ele>
        <time>2026-03-10T08:57:27Z</time>
      </trkpt>
      <trkpt lat="49.0212" lon="7.68219">
        <ele>366.9</ele>
        <time>2026-03-10T08:57:32Z</time>
      </trkpt>
      <trkpt lat="49.02113" lon="7.68217">
        <ele>367</ele>
        <time>2026-03-10T08:57:37Z</time>
      </trkpt>
      <trkpt lat="49.02106" lon="7.68217">
        <ele>367.2</ele>
        <time>2026-03-10T08:57:42Z</time>
      </trkpt>
      <trkpt lat="49.02099" lon="7.68217">
        <ele>367.3</ele>
        <time>2026-03-10T08:57:47Z</time>
      </trkpt>
      <trkpt lat="49.02091" lon="7.68218">
        <ele>367.4</ele>
        <time>2026-03-10T08:57:52Z</time>
      </trkpt>
      <trkpt lat="49.02085" lon="7.68219">
        <ele>367.5</ele>
        <time>2026-03-10T08:57:57Z</time>
      </trkpt>
      <trkpt lat="49.02078" lon="7.68224">
        <ele>367.4</ele>
        <time>2026-03-10T08:58:02Z</time>
      </trkpt>
      <trkpt lat="49.02072" lon="7.68234">
        <ele>367.1</ele>
        <time>2026-03-10T08:58:07Z</time>
      </trkpt>
      <trkpt lat="49.0207" lon="7.68246">
        <ele>366.5</ele>
        <time>2026-03-10T08:58:12Z</time>
      </trkpt>
      <trkpt lat="49.02065" lon="7.68256">
        <ele>365.6</ele>
        <time>2026-03-10T08:58:17Z</time>
      </trkpt>
      <trkpt lat="49.02061" lon="7.68264">
        <ele>364.6</ele>
        <time>2026-03-10T08:58:22Z</time>
      </trkpt>
      <trkpt lat="49.02056" lon="7.68265">
        <ele>364.5</ele>
        <time>2026-03-10T08:58:27Z</time>
      </trkpt>
      <trkpt lat="49.02056" lon="7.68265">
        <ele>364.5</ele>
        <time>2026-03-10T08:58:32Z</time>
      </trkpt>
      <trkpt lat="49.02056" lon="7.68265">
        <ele>364.5</ele>
        <time>2026-03-10T08:58:37Z</time>
      </trkpt>
      <trkpt lat="49.02056" lon="7.68265">
        <ele>364.5</ele>
        <time>2026-03-10T08:58:42Z</time>
      </trkpt>
      <trkpt lat="49.02056" lon="7.68265">
        <ele>364.5</ele>
        <time>2026-03-10T08:58:47Z</time>
      </trkpt>
      <trkpt lat="49.02056" lon="7.68265">
        <ele>364.5</ele>
        <time>2026-03-10T08:58:52Z</time>
      </trkpt>
      <trkpt lat="49.02056" lon="7.68265">
        <ele>364.5</ele>
        <time>2026-03-10T08:58:57Z</time>
      </trkpt>
      <trkpt lat="49.02066" lon="7.68268">
        <ele>364</ele>
        <time>2026-03-10T08:59:02Z</time>
      </trkpt>
      <trkpt lat="49.02069" lon="7.68263">
        <ele>364.6</ele>
        <time>2026-03-10T08:59:07Z</time>
      </trkpt>
      <trkpt lat="49.02071" lon="7.68262">
        <ele>364.7</ele>
        <time>2026-03-10T08:59:12Z</time>
      </trkpt>
      <trkpt lat="49.02071" lon="7.68262">
        <ele>364.7</ele>
        <time>2026-03-10T08:59:17Z</time>
      </trkpt>
      <trkpt lat="49.02071" lon="7.68262">
        <ele>364.7</ele>
        <time>2026-03-10T08:59:22Z</time>
      </trkpt>
      <trkpt lat="49.02071" lon="7.68262">
        <ele>364.7</ele>
        <time>2026-03-10T08:59:27Z</time>
      </trkpt>
      <trkpt lat="49.02071" lon="7.68262">
        <ele>364.7</ele>
        <time>2026-03-10T08:59:32Z</time>
      </trkpt>
      <trkpt lat="49.02071" lon="7.68262">
        <ele>364.7</ele>
        <time>2026-03-10T08:59:37Z</time>
      </trkpt>
      <trkpt lat="49.02071" lon="7.68262">
        <ele>364.7</ele>
        <time>2026-03-10T08:59:42Z</time>
      </trkpt>
      <trkpt lat="49.02071" lon="7.68262">
        <ele>364.7</ele>
        <time>2026-03-10T08:59:47Z</time>
      </trkpt>
      <trkpt lat="49.02071" lon="7.68262">
        <ele>364.7</ele>
        <time>2026-03-10T08:59:52Z</time>
      </trkpt>
      <trkpt lat="49.02071" lon="7.68262">
        <ele>364.7</ele>
        <time>2026-03-10T08:59:57Z</time>
      </trkpt>
      <trkpt lat="49.02066" lon="7.68257">
        <ele>365.5</ele>
        <time>2026-03-10T09:00:02Z</time>
      </trkpt>
      <trkpt lat="49.02062" lon="7.68261">
        <ele>365</ele>
        <time>2026-03-10T09:00:07Z</time>
      </trkpt>
      <trkpt lat="49.02057" lon="7.68262">
        <ele>364.9</ele>
        <time>2026-03-10T09:00:12Z</time>
      </trkpt>
      <trkpt lat="49.02054" lon="7.68263">
        <ele>364.8</ele>
        <time>2026-03-10T09:00:17Z</time>
      </trkpt>
      <trkpt lat="49.02049" lon="7.68262">
        <ele>365</ele>
        <time>2026-03-10T09:00:22Z</time>
      </trkpt>
      <trkpt lat="49.02045" lon="7.68257">
        <ele>365.8</ele>
        <time>2026-03-10T09:00:27Z</time>
      </trkpt>
      <trkpt lat="49.0204" lon="7.68252">
        <ele>366.7</ele>
        <time>2026-03-10T09:00:32Z</time>
      </trkpt>
      <trkpt lat="49.02037" lon="7.68248">
        <ele>367.2</ele>
        <time>2026-03-10T09:00:37Z</time>
      </trkpt>
      <trkpt lat="49.0203" lon="7.68244">
        <ele>367.7</ele>
        <time>2026-03-10T09:00:42Z</time>
      </trkpt>
      <trkpt lat="49.02027" lon="7.68239">
        <ele>368.1</ele>
        <time>2026-03-10T09:00:47Z</time>
      </trkpt>
      <trkpt lat="49.02021" lon="7.6823">
        <ele>369</ele>
        <time>2026-03-10T09:00:52Z</time>
      </trkpt>
      <trkpt lat="49.02012" lon="7.68218">
        <ele>370.2</ele>
        <time>2026-03-10T09:00:57Z</time>
      </trkpt>
      <trkpt lat="49.02007" lon="7.68211">
        <ele>371</ele>
        <time>2026-03-10T09:01:02Z</time>
      </trkpt>
      <trkpt lat="49.02002" lon="7.68207">
        <ele>371.5</ele>
        <time>2026-03-10T09:01:07Z</time>
      </trkpt>
      <trkpt lat="49.01996" lon="7.68201">
        <ele>372.6</ele>
        <time>2026-03-10T09:01:12Z</time>
      </trkpt>
      <trkpt lat="49.01993" lon="7.68196">
        <ele>373.5</ele>
        <time>2026-03-10T09:01:17Z</time>
      </trkpt>
      <trkpt lat="49.01989" lon="7.68192">
        <ele>374.4</ele>
        <time>2026-03-10T09:01:22Z</time>
      </trkpt>
      <trkpt lat="49.01985" lon="7.68187">
        <ele>375.5</ele>
        <time>2026-03-10T09:01:27Z</time>
      </trkpt>
      <trkpt lat="49.01979" lon="7.68183">
        <ele>376.8</ele>
        <time>2026-03-10T09:01:32Z</time>
      </trkpt>
      <trkpt lat="49.01975" lon="7.68181">
        <ele>377.6</ele>
        <time>2026-03-10T09:01:37Z</time>
      </trkpt>
      <trkpt lat="49.01969" lon="7.68179">
        <ele>378.8</ele>
        <time>2026-03-10T09:01:42Z</time>
      </trkpt>
      <trkpt lat="49.01964" lon="7.68177">
        <ele>379.8</ele>
        <time>2026-03-10T09:01:47Z</time>
      </trkpt>
      <trkpt lat="49.01959" lon="7.68175">
        <ele>380.8</ele>
        <time>2026-03-10T09:01:52Z</time>
      </trkpt>
      <trkpt lat="49.01955" lon="7.68174">
        <ele>381.6</ele>
        <time>2026-03-10T09:01:57Z</time>
      </trkpt>
      <trkpt lat="49.01951" lon="7.68171">
        <ele>382.7</ele>
        <time>2026-03-10T09:02:02Z</time>
      </trkpt>
      <trkpt lat="49.01946" lon="7.68168">
        <ele>383.9</ele>
        <time>2026-03-10T09:02:07Z</time>
      </trkpt>
      <trkpt lat="49.0194" lon="7.68166">
        <ele>385.1</ele>
        <time>2026-03-10T09:02:12Z</time>
      </trkpt>
      <trkpt lat="49.01934" lon="7.68164">
        <ele>386.2</ele>
        <time>2026-03-10T09:02:17Z</time>
      </trkpt>
      <trkpt lat="49.01928" lon="7.68162">
        <ele>387.3</ele>
        <time>2026-03-10T09:02:22Z</time>
      </trkpt>
      <trkpt lat="49.01922" lon="7.68159">
        <ele>388.4</ele>
        <time>2026-03-10T09:02:27Z</time>
      </trkpt>
      <trkpt lat="49.01917" lon="7.68156">
        <ele>389.5</ele>
        <time>2026-03-10T09:02:32Z</time>
      </trkpt>
      <trkpt lat="49.01911" lon="7.68152">
        <ele>391.2</ele>
        <time>2026-03-10T09:02:37Z</time>
      </trkpt>
      <trkpt lat="49.01903" lon="7.68151">
        <ele>393.3</ele>
        <time>2026-03-10T09:02:42Z</time>
      </trkpt>
      <trkpt lat="49.01896" lon="7.68152">
        <ele>395.1</ele>
        <time>2026-03-10T09:02:47Z</time>
      </trkpt>
      <trkpt lat="49.0189" lon="7.68156">
        <ele>396.3</ele>
        <time>2026-03-10T09:02:52Z</time>
      </trkpt>
      <trkpt lat="49.01886" lon="7.6816">
        <ele>396.9</ele>
        <time>2026-03-10T09:02:57Z</time>
      </trkpt>
      <trkpt lat="49.01882" lon="7.68165">
        <ele>397.5</ele>
        <time>2026-03-10T09:03:02Z</time>
      </trkpt>
      <trkpt lat="49.01877" lon="7.68169">
        <ele>398</ele>
        <time>2026-03-10T09:03:07Z</time>
      </trkpt>
      <trkpt lat="49.0187" lon="7.68171">
        <ele>399.2</ele>
        <time>2026-03-10T09:03:12Z</time>
      </trkpt>
      <trkpt lat="49.01864" lon="7.68172">
        <ele>400.4</ele>
        <time>2026-03-10T09:03:17Z</time>
      </trkpt>
      <trkpt lat="49.01858" lon="7.68172">
        <ele>401.8</ele>
        <time>2026-03-10T09:03:22Z</time>
      </trkpt>
      <trkpt lat="49.01851" lon="7.68173">
        <ele>403.2</ele>
        <time>2026-03-10T09:03:27Z</time>
      </trkpt>
      <trkpt lat="49.01845" lon="7.68174">
        <ele>404.4</ele>
        <time>2026-03-10T09:03:32Z</time>
      </trkpt>
      <trkpt lat="49.01842" lon="7.68177">
        <ele>404.3</ele>
        <time>2026-03-10T09:03:37Z</time>
      </trkpt>
      <trkpt lat="49.01842" lon="7.6818">
        <ele>403.5</ele>
        <time>2026-03-10T09:03:42Z</time>
      </trkpt>
      <trkpt lat="49.01842" lon="7.68181">
        <ele>403.3</ele>
        <time>2026-03-10T09:03:47Z</time>
      </trkpt>
      <trkpt lat="49.01842" lon="7.68181">
        <ele>403.3</ele>
        <time>2026-03-10T09:03:52Z</time>
      </trkpt>
      <trkpt lat="49.01842" lon="7.68181">
        <ele>403.3</ele>
        <time>2026-03-10T09:03:57Z</time>
      </trkpt>
      <trkpt lat="49.01835" lon="7.68178">
        <ele>405.6</ele>
        <time>2026-03-10T09:04:02Z</time>
      </trkpt>
      <trkpt lat="49.01829" lon="7.68176">
        <ele>407.7</ele>
        <time>2026-03-10T09:04:07Z</time>
      </trkpt>
      <trkpt lat="49.01824" lon="7.68176">
        <ele>409.1</ele>
        <time>2026-03-10T09:04:12Z</time>
      </trkpt>
      <trkpt lat="49.0182" lon="7.68177">
        <ele>409.9</ele>
        <time>2026-03-10T09:04:17Z</time>
      </trkpt>
      <trkpt lat="49.01817" lon="7.6818">
        <ele>410</ele>
        <time>2026-03-10T09:04:22Z</time>
      </trkpt>
      <trkpt lat="49.01817" lon="7.68182">
        <ele>409.4</ele>
        <time>2026-03-10T09:04:27Z</time>
      </trkpt>
      <trkpt lat="49.01817" lon="7.68182">
        <ele>409.4</ele>
        <time>2026-03-10T09:04:32Z</time>
      </trkpt>
      <trkpt lat="49.01817" lon="7.68182">
        <ele>409.4</ele>
        <time>2026-03-10T09:04:37Z</time>
      </trkpt>
      <trkpt lat="49.01809" lon="7.68182">
        <ele>411.6</ele>
        <time>2026-03-10T09:04:42Z</time>
      </trkpt>
      <trkpt lat="49.01803" lon="7.68176">
        <ele>414.9</ele>
        <time>2026-03-10T09:04:47Z</time>
      </trkpt>
      <trkpt lat="49.01798" lon="7.68173">
        <ele>417</ele>
        <time>2026-03-10T09:04:52Z</time>
      </trkpt>
      <trkpt lat="49.01793" lon="7.68174">
        <ele>418.2</ele>
        <time>2026-03-10T09:04:57Z</time>
      </trkpt>
      <trkpt lat="49.01788" lon="7.68173">
        <ele>419.8</ele>
        <time>2026-03-10T09:05:02Z</time>
      </trkpt>
      <trkpt lat="49.01785" lon="7.68173">
        <ele>420.6</ele>
        <time>2026-03-10T09:05:07Z</time>
      </trkpt>
      <trkpt lat="49.01779" lon="7.68173">
        <ele>422.3</ele>
        <time>2026-03-10T09:05:12Z</time>
      </trkpt>
      <trkpt lat="49.01774" lon="7.68173">
        <ele>423.6</ele>
        <time>2026-03-10T09:05:17Z</time>
      </trkpt>
      <trkpt lat="49.01768" lon="7.68174">
        <ele>425</ele>
        <time>2026-03-10T09:05:22Z</time>
      </trkpt>
      <trkpt lat="49.01763" lon="7.68176">
        <ele>425.9</ele>
        <time>2026-03-10T09:05:27Z</time>
      </trkpt>
      <trkpt lat="49.0176" lon="7.68179">
        <ele>425.9</ele>
        <time>2026-03-10T09:05:32Z</time>
      </trkpt>
      <trkpt lat="49.01757" lon="7.68182">
        <ele>425.9</ele>
        <time>2026-03-10T09:05:37Z</time>
      </trkpt>
      <trkpt lat="49.01753" lon="7.68185">
        <ele>426.1</ele>
        <time>2026-03-10T09:05:42Z</time>
      </trkpt>
      <trkpt lat="49.0175" lon="7.68185">
        <ele>426.9</ele>
        <time>2026-03-10T09:05:47Z</time>
      </trkpt>
      <trkpt lat="49.01747" lon="7.68184">
        <ele>428.1</ele>
        <time>2026-03-10T09:05:52Z</time>
      </trkpt>
      <trkpt lat="49.01742" lon="7.68186">
        <ele>428.9</ele>
        <time>2026-03-10T09:05:57Z</time>
      </trkpt>
      <trkpt lat="49.01736" lon="7.68189">
        <ele>429.7</ele>
        <time>2026-03-10T09:06:02Z</time>
      </trkpt>
      <trkpt lat="49.01731" lon="7.68191">
        <ele>430.6</ele>
        <time>2026-03-10T09:06:07Z</time>
      </trkpt>
      <trkpt lat="49.01727" lon="7.68195">
        <ele>430.6</ele>
        <time>2026-03-10T09:06:12Z</time>
      </trkpt>
      <trkpt lat="49.01722" lon="7.68198">
        <ele>431.2</ele>
        <time>2026-03-10T09:06:17Z</time>
      </trkpt>
      <trkpt lat="49.01717" lon="7.682">
        <ele>432.1</ele>
        <time>2026-03-10T09:06:22Z</time>
      </trkpt>
      <trkpt lat="49.01713" lon="7.68199">
        <ele>433.5</ele>
        <time>2026-03-10T09:06:27Z</time>
      </trkpt>
      <trkpt lat="49.01708" lon="7.68201">
        <ele>434.3</ele>
        <time>2026-03-10T09:06:32Z</time>
      </trkpt>
      <trkpt lat="49.01705" lon="7.68203">
        <ele>434.6</ele>
        <time>2026-03-10T09:06:37Z</time>
      </trkpt>
      <trkpt lat="49.01702" lon="7.68204">
        <ele>435.2</ele>
        <time>2026-03-10T09:06:42Z</time>
      </trkpt>
      <trkpt lat="49.017" lon="7.68209">
        <ele>434.4</ele>
        <time>2026-03-10T09:06:47Z</time>
      </trkpt>
      <trkpt lat="49.01697" lon="7.68212">
        <ele>434.5</ele>
        <time>2026-03-10T09:06:52Z</time>
      </trkpt>
      <trkpt lat="49.01693" lon="7.68212">
        <ele>435.6</ele>
        <time>2026-03-10T09:06:57Z</time>
      </trkpt>
      <trkpt lat="49.01688" lon="7.68216">
        <ele>435.9</ele>
        <time>2026-03-10T09:07:02Z</time>
      </trkpt>
      <trkpt lat="49.01684" lon="7.68221">
        <ele>435.7</ele>
        <time>2026-03-10T09:07:07Z</time>
      </trkpt>
      <trkpt lat="49.0168" lon="7.68225">
        <ele>435.8</ele>
        <time>2026-03-10T09:07:12Z</time>
      </trkpt>
      <trkpt lat="49.01676" lon="7.68228">
        <ele>436.1</ele>
        <time>2026-03-10T09:07:17Z</time>
      </trkpt>
      <trkpt lat="49.0167" lon="7.68232">
        <ele>436.8</ele>
        <time>2026-03-10T09:07:22Z</time>
      </trkpt>
      <trkpt lat="49.01665" lon="7.68236">
        <ele>436.8</ele>
        <time>2026-03-10T09:07:27Z</time>
      </trkpt>
      <trkpt lat="49.01659" lon="7.68241">
        <ele>436</ele>
        <time>2026-03-10T09:07:32Z</time>
      </trkpt>
      <trkpt lat="49.01653" lon="7.68244">
        <ele>435.6</ele>
        <time>2026-03-10T09:07:37Z</time>
      </trkpt>
      <trkpt lat="49.01649" lon="7.68249">
        <ele>434.7</ele>
        <time>2026-03-10T09:07:42Z</time>
      </trkpt>
      <trkpt lat="49.01644" lon="7.68253">
        <ele>433.8</ele>
        <time>2026-03-10T09:07:47Z</time>
      </trkpt>
      <trkpt lat="49.01639" lon="7.68256">
        <ele>433.2</ele>
        <time>2026-03-10T09:07:52Z</time>
      </trkpt>
      <trkpt lat="49.01633" lon="7.68261">
        <ele>432</ele>
        <time>2026-03-10T09:07:57Z</time>
      </trkpt>
      <trkpt lat="49.01629" lon="7.68263">
        <ele>431.6</ele>
        <time>2026-03-10T09:08:02Z</time>
      </trkpt>
      <trkpt lat="49.01625" lon="7.68263">
        <ele>432</ele>
        <time>2026-03-10T09:08:07Z</time>
      </trkpt>
      <trkpt lat="49.0162" lon="7.68266">
        <ele>431.4</ele>
        <time>2026-03-10T09:08:12Z</time>
      </trkpt>
      <trkpt lat="49.01615" lon="7.6827">
        <ele>430.4</ele>
        <time>2026-03-10T09:08:17Z</time>
      </trkpt>
      <trkpt lat="49.01611" lon="7.68273">
        <ele>429.8</ele>
        <time>2026-03-10T09:08:22Z</time>
      </trkpt>
      <trkpt lat="49.01608" lon="7.68277">
        <ele>428.7</ele>
        <time>2026-03-10T09:08:27Z</time>
      </trkpt>
      <trkpt lat="49.01606" lon="7.6828">
        <ele>427.8</ele>
        <time>2026-03-10T09:08:32Z</time>
      </trkpt>
      <trkpt lat="49.01606" lon="7.6828">
        <ele>427.8</ele>
        <time>2026-03-10T09:08:37Z</time>
      </trkpt>
      <trkpt lat="49.01606" lon="7.6828">
        <ele>427.8</ele>
        <time>2026-03-10T09:08:42Z</time>
      </trkpt>
      <trkpt lat="49.01606" lon="7.6828">
        <ele>427.8</ele>
        <time>2026-03-10T09:08:47Z</time>
      </trkpt>
      <trkpt lat="49.01606" lon="7.6828">
        <ele>427.8</ele>
        <time>2026-03-10T09:08:52Z</time>
      </trkpt>
      <trkpt lat="49.01606" lon="7.6828">
        <ele>427.8</ele>
        <time>2026-03-10T09:08:57Z</time>
      </trkpt>
      <trkpt lat="49.01606" lon="7.6828">
        <ele>427.8</ele>
        <time>2026-03-10T09:09:02Z</time>
      </trkpt>
      <trkpt lat="49.01606" lon="7.6828">
        <ele>427.8</ele>
        <time>2026-03-10T09:09:07Z</time>
      </trkpt>
      <trkpt lat="49.01606" lon="7.6828">
        <ele>427.8</ele>
        <time>2026-03-10T09:09:12Z</time>
      </trkpt>
      <trkpt lat="49.01606" lon="7.6828">
        <ele>427.8</ele>
        <time>2026-03-10T09:09:17Z</time>
      </trkpt>
      <trkpt lat="49.01606" lon="7.6828">
        <ele>427.8</ele>
        <time>2026-03-10T09:09:22Z</time>
      </trkpt>
      <trkpt lat="49.01606" lon="7.6828">
        <ele>427.8</ele>
        <time>2026-03-10T09:09:27Z</time>
      </trkpt>
      <trkpt lat="49.01606" lon="7.6828">
        <ele>427.8</ele>
        <time>2026-03-10T09:09:32Z</time>
      </trkpt>
      <trkpt lat="49.01606" lon="7.6828">
        <ele>427.8</ele>
        <time>2026-03-10T09:09:37Z</time>
      </trkpt>
      <trkpt lat="49.01607" lon="7.68294">
        <ele>422.9</ele>
        <time>2026-03-10T09:09:42Z</time>
      </trkpt>
      <trkpt lat="49.01607" lon="7.68294">
        <ele>422.9</ele>
        <time>2026-03-10T09:09:47Z</time>
      </trkpt>
      <trkpt lat="49.01607" lon="7.68294">
        <ele>422.9</ele>
        <time>2026-03-10T09:09:52Z</time>
      </trkpt>
      <trkpt lat="49.01599" lon="7.68295">
        <ele>423.4</ele>
        <time>2026-03-10T09:09:57Z</time>
      </trkpt>
      <trkpt lat="49.01594" lon="7.68295">
        <ele>423.8</ele>
        <time>2026-03-10T09:10:02Z</time>
      </trkpt>
      <trkpt lat="49.0159" lon="7.68297">
        <ele>423.6</ele>
        <time>2026-03-10T09:10:07Z</time>
      </trkpt>
      <trkpt lat="49.01586" lon="7.683">
        <ele>422.9</ele>
        <time>2026-03-10T09:10:12Z</time>
      </trkpt>
      <trkpt lat="49.01581" lon="7.68302">
        <ele>422.6</ele>
        <time>2026-03-10T09:10:17Z</time>
      </trkpt>
      <trkpt lat="49.01577" lon="7.68303">
        <ele>422.5</ele>
        <time>2026-03-10T09:10:22Z</time>
      </trkpt>
      <trkpt lat="49.01573" lon="7.68303">
        <ele>422.7</ele>
        <time>2026-03-10T09:10:27Z</time>
      </trkpt>
      <trkpt lat="49.01568" lon="7.68303">
        <ele>422.9</ele>
        <time>2026-03-10T09:10:32Z</time>
      </trkpt>
      <trkpt lat="49.01563" lon="7.68303">
        <ele>423.2</ele>
        <time>2026-03-10T09:10:37Z</time>
      </trkpt>
      <trkpt lat="49.01556" lon="7.68307">
        <ele>422.5</ele>
        <time>2026-03-10T09:10:42Z</time>
      </trkpt>
      <trkpt lat="49.0155" lon="7.68307">
        <ele>422.8</ele>
        <time>2026-03-10T09:10:47Z</time>
      </trkpt>
      <trkpt lat="49.01544" lon="7.68309">
        <ele>422.7</ele>
        <time>2026-03-10T09:10:52Z</time>
      </trkpt>
      <trkpt lat="49.01537" lon="7.6831">
        <ele>423</ele>
        <time>2026-03-10T09:10:57Z</time>
      </trkpt>
      <trkpt lat="49.0153" lon="7.68307">
        <ele>424</ele>
        <time>2026-03-10T09:11:02Z</time>
      </trkpt>
      <trkpt lat="49.01524" lon="7.68307">
        <ele>424.4</ele>
        <time>2026-03-10T09:11:07Z</time>
      </trkpt>
      <trkpt lat="49.01518" lon="7.68311">
        <ele>424.1</ele>
        <time>2026-03-10T09:11:12Z</time>
      </trkpt>
      <trkpt lat="49.01512" lon="7.68314">
        <ele>424.1</ele>
        <time>2026-03-10T09:11:17Z</time>
      </trkpt>
      <trkpt lat="49.01506" lon="7.68314">
        <ele>424.6</ele>
        <time>2026-03-10T09:11:22Z</time>
      </trkpt>
      <trkpt lat="49.015" lon="7.68312">
        <ele>425.3</ele>
        <time>2026-03-10T09:11:27Z</time>
      </trkpt>
      <trkpt lat="49.01493" lon="7.68311">
        <ele>427.7</ele>
        <time>2026-03-10T09:11:32Z</time>
      </trkpt>
      <trkpt lat="49.01486" lon="7.68311">
        <ele>430</ele>
        <time>2026-03-10T09:11:37Z</time>
      </trkpt>
      <trkpt lat="49.01478" lon="7.6831">
        <ele>432.7</ele>
        <time>2026-03-10T09:11:42Z</time>
      </trkpt>
      <trkpt lat="49.01471" lon="7.68309">
        <ele>435</ele>
        <time>2026-03-10T09:11:47Z</time>
      </trkpt>
      <trkpt lat="49.01466" lon="7.68309">
        <ele>436.6</ele>
        <time>2026-03-10T09:11:52Z</time>
      </trkpt>
      <trkpt lat="49.0146" lon="7.68309">
        <ele>438.6</ele>
        <time>2026-03-10T09:11:57Z</time>
      </trkpt>
      <trkpt lat="49.01454" lon="7.68308">
        <ele>440.5</ele>
        <time>2026-03-10T09:12:02Z</time>
      </trkpt>
      <trkpt lat="49.0145" lon="7.68305">
        <ele>441.6</ele>
        <time>2026-03-10T09:12:07Z</time>
      </trkpt>
      <trkpt lat="49.01446" lon="7.683">
        <ele>442.4</ele>
        <time>2026-03-10T09:12:12Z</time>
      </trkpt>
      <trkpt lat="49.01442" lon="7.68298">
        <ele>443.4</ele>
        <time>2026-03-10T09:12:17Z</time>
      </trkpt>
      <trkpt lat="49.01438" lon="7.68294">
        <ele>444.1</ele>
        <time>2026-03-10T09:12:22Z</time>
      </trkpt>
      <trkpt lat="49.01433" lon="7.68291">
        <ele>445.1</ele>
        <time>2026-03-10T09:12:27Z</time>
      </trkpt>
      <trkpt lat="49.01426" lon="7.68287">
        <ele>446.3</ele>
        <time>2026-03-10T09:12:32Z</time>
      </trkpt>
      <trkpt lat="49.01421" lon="7.68282">
        <ele>446.8</ele>
        <time>2026-03-10T09:12:37Z</time>
      </trkpt>
      <trkpt lat="49.0142" lon="7.68279">
        <ele>446.5</ele>
        <time>2026-03-10T09:12:42Z</time>
      </trkpt>
      <trkpt lat="49.01419" lon="7.68274">
        <ele>445.8</ele>
        <time>2026-03-10T09:12:47Z</time>
      </trkpt>
      <trkpt lat="49.01416" lon="7.68269">
        <ele>445.6</ele>
        <time>2026-03-10T09:12:52Z</time>
      </trkpt>
      <trkpt lat="49.01412" lon="7.68266">
        <ele>446.2</ele>
        <time>2026-03-10T09:12:57Z</time>
      </trkpt>
      <trkpt lat="49.01407" lon="7.68262">
        <ele>446.8</ele>
        <time>2026-03-10T09:13:02Z</time>
      </trkpt>
      <trkpt lat="49.01402" lon="7.6826">
        <ele>447.7</ele>
        <time>2026-03-10T09:13:07Z</time>
      </trkpt>
      <trkpt lat="49.01398" lon="7.68261">
        <ele>449</ele>
        <time>2026-03-10T09:13:12Z</time>
      </trkpt>
      <trkpt lat="49.01393" lon="7.68263">
        <ele>450.8</ele>
        <time>2026-03-10T09:13:17Z</time>
      </trkpt>
      <trkpt lat="49.01389" lon="7.68267">
        <ele>452.8</ele>
        <time>2026-03-10T09:13:22Z</time>
      </trkpt>
      <trkpt lat="49.01385" lon="7.6827">
        <ele>454.7</ele>
        <time>2026-03-10T09:13:27Z</time>
      </trkpt>
      <trkpt lat="49.01381" lon="7.68278">
        <ele>457.8</ele>
        <time>2026-03-10T09:13:32Z</time>
      </trkpt>
      <trkpt lat="49.01378" lon="7.68289">
        <ele>461.4</ele>
        <time>2026-03-10T09:13:37Z</time>
      </trkpt>
      <trkpt lat="49.01377" lon="7.68299">
        <ele>464.2</ele>
        <time>2026-03-10T09:13:42Z</time>
      </trkpt>
      <trkpt lat="49.01377" lon="7.68307">
        <ele>466.2</ele>
        <time>2026-03-10T09:13:47Z</time>
      </trkpt>
      <trkpt lat="49.01378" lon="7.68312">
        <ele>467</ele>
        <time>2026-03-10T09:13:52Z</time>
      </trkpt>
      <trkpt lat="49.01378" lon="7.68315">
        <ele>467.8</ele>
        <time>2026-03-10T09:13:57Z</time>
      </trkpt>
      <trkpt lat="49.01378" lon="7.68317">
        <ele>468.3</ele>
        <time>2026-03-10T09:14:02Z</time>
      </trkpt>
      <trkpt lat="49.01377" lon="7.68325">
        <ele>470.6</ele>
        <time>2026-03-10T09:14:07Z</time>
      </trkpt>
      <trkpt lat="49.01377" lon="7.68325">
        <ele>470.6</ele>
        <time>2026-03-10T09:14:12Z</time>
      </trkpt>
      <trkpt lat="49.01377" lon="7.68325">
        <ele>470.6</ele>
        <time>2026-03-10T09:14:17Z</time>
      </trkpt>
      <trkpt lat="49.01377" lon="7.68325">
        <ele>470.6</ele>
        <time>2026-03-10T09:14:22Z</time>
      </trkpt>
      <trkpt lat="49.01373" lon="7.68327">
        <ele>472.7</ele>
        <time>2026-03-10T09:14:27Z</time>
      </trkpt>
      <trkpt lat="49.01373" lon="7.68327">
        <ele>472.7</ele>
        <time>2026-03-10T09:14:32Z</time>
      </trkpt>
      <trkpt lat="49.01373" lon="7.68327">
        <ele>472.7</ele>
        <time>2026-03-10T09:14:37Z</time>
      </trkpt>
      <trkpt lat="49.01373" lon="7.68327">
        <ele>472.7</ele>
        <time>2026-03-10T09:14:42Z</time>
      </trkpt>
      <trkpt lat="49.01373" lon="7.68327">
        <ele>472.7</ele>
        <time>2026-03-10T09:14:47Z</time>
      </trkpt>
      <trkpt lat="49.01373" lon="7.68327">
        <ele>472.7</ele>
        <time>2026-03-10T09:14:52Z</time>
      </trkpt>
      <trkpt lat="49.01373" lon="7.68327">
        <ele>472.7</ele>
        <time>2026-03-10T09:14:57Z</time>
      </trkpt>
      <trkpt lat="49.01368" lon="7.68341">
        <ele>477.2</ele>
        <time>2026-03-10T09:15:02Z</time>
      </trkpt>
      <trkpt lat="49.01365" lon="7.68348">
        <ele>479.2</ele>
        <time>2026-03-10T09:15:07Z</time>
      </trkpt>
      <trkpt lat="49.01365" lon="7.68353">
        <ele>479.8</ele>
        <time>2026-03-10T09:15:12Z</time>
      </trkpt>
      <trkpt lat="49.01368" lon="7.68359">
        <ele>479.3</ele>
        <time>2026-03-10T09:15:17Z</time>
      </trkpt>
      <trkpt lat="49.01371" lon="7.68364">
        <ele>478.7</ele>
        <time>2026-03-10T09:15:22Z</time>
      </trkpt>
      <trkpt lat="49.01369" lon="7.68373">
        <ele>480.6</ele>
        <time>2026-03-10T09:15:27Z</time>
      </trkpt>
      <trkpt lat="49.01367" lon="7.68381">
        <ele>482.4</ele>
        <time>2026-03-10T09:15:32Z</time>
      </trkpt>
      <trkpt lat="49.01366" lon="7.68386">
        <ele>483.4</ele>
        <time>2026-03-10T09:15:37Z</time>
      </trkpt>
      <trkpt lat="49.01362" lon="7.68391">
        <ele>485.8</ele>
        <time>2026-03-10T09:15:42Z</time>
      </trkpt>
      <trkpt lat="49.0136" lon="7.68395">
        <ele>487.1</ele>
        <time>2026-03-10T09:15:47Z</time>
      </trkpt>
      <trkpt lat="49.01358" lon="7.684">
        <ele>488.6</ele>
        <time>2026-03-10T09:15:52Z</time>
      </trkpt>
      <trkpt lat="49.01357" lon="7.68406">
        <ele>489.9</ele>
        <time>2026-03-10T09:15:57Z</time>
      </trkpt>
      <trkpt lat="49.01353" lon="7.6841">
        <ele>492.2</ele>
        <time>2026-03-10T09:16:02Z</time>
      </trkpt>
      <trkpt lat="49.0135" lon="7.68412">
        <ele>493.8</ele>
        <time>2026-03-10T09:16:07Z</time>
      </trkpt>
      <trkpt lat="49.01349" lon="7.68414">
        <ele>494.5</ele>
        <time>2026-03-10T09:16:12Z</time>
      </trkpt>
      <trkpt lat="49.01349" lon="7.68414">
        <ele>494.5</ele>
        <time>2026-03-10T09:16:17Z</time>
      </trkpt>
      <trkpt lat="49.01349" lon="7.68414">
        <ele>494.5</ele>
        <time>2026-03-10T09:16:22Z</time>
      </trkpt>
      <trkpt lat="49.01349" lon="7.68414">
        <ele>494.5</ele>
        <time>2026-03-10T09:16:27Z</time>
      </trkpt>
      <trkpt lat="49.01345" lon="7.68431">
        <ele>497.8</ele>
        <time>2026-03-10T09:16:32Z</time>
      </trkpt>
      <trkpt lat="49.01346" lon="7.68437">
        <ele>497.8</ele>
        <time>2026-03-10T09:16:37Z</time>
      </trkpt>
      <trkpt lat="49.01345" lon="7.68442">
        <ele>498.7</ele>
        <time>2026-03-10T09:16:42Z</time>
      </trkpt>
      <trkpt lat="49.01344" lon="7.68444">
        <ele>499.3</ele>
        <time>2026-03-10T09:16:47Z</time>
      </trkpt>
      <trkpt lat="49.01344" lon="7.68444">
        <ele>499.3</ele>
        <time>2026-03-10T09:16:52Z</time>
      </trkpt>
      <trkpt lat="49.01344" lon="7.68444">
        <ele>499.3</ele>
        <time>2026-03-10T09:16:57Z</time>
      </trkpt>
      <trkpt lat="49.01344" lon="7.68444">
        <ele>499.3</ele>
        <time>2026-03-10T09:17:02Z</time>
      </trkpt>
      <trkpt lat="49.01344" lon="7.68444">
        <ele>499.3</ele>
        <time>2026-03-10T09:17:07Z</time>
      </trkpt>
      <trkpt lat="49.01339" lon="7.68459">
        <ele>502.6</ele>
        <time>2026-03-10T09:17:12Z</time>
      </trkpt>
      <trkpt lat="49.01339" lon="7.6846">
        <ele>502.7</ele>
        <time>2026-03-10T09:17:17Z</time>
      </trkpt>
      <trkpt lat="49.01336" lon="7.68469">
        <ele>504.6</ele>
        <time>2026-03-10T09:17:22Z</time>
      </trkpt>
      <trkpt lat="49.01337" lon="7.68473">
        <ele>504.5</ele>
        <time>2026-03-10T09:17:27Z</time>
      </trkpt>
      <trkpt lat="49.01337" lon="7.68473">
        <ele>504.5</ele>
        <time>2026-03-10T09:17:32Z</time>
      </trkpt>
      <trkpt lat="49.01337" lon="7.68473">
        <ele>504.5</ele>
        <time>2026-03-10T09:17:37Z</time>
      </trkpt>
      <trkpt lat="49.01337" lon="7.68473">
        <ele>504.5</ele>
        <time>2026-03-10T09:17:42Z</time>
      </trkpt>
      <trkpt lat="49.01337" lon="7.68473">
        <ele>504.5</ele>
        <time>2026-03-10T09:17:47Z</time>
      </trkpt>
      <trkpt lat="49.01337" lon="7.68473">
        <ele>504.5</ele>
        <time>2026-03-10T09:17:52Z</time>
      </trkpt>
      <trkpt lat="49.01337" lon="7.68473">
        <ele>504.5</ele>
        <time>2026-03-10T09:17:57Z</time>
      </trkpt>
      <trkpt lat="49.01329" lon="7.68482">
        <ele>507.1</ele>
        <time>2026-03-10T09:18:02Z</time>
      </trkpt>
      <trkpt lat="49.0133" lon="7.68486">
        <ele>507.3</ele>
        <time>2026-03-10T09:18:07Z</time>
      </trkpt>
      <trkpt lat="49.01328" lon="7.68491">
        <ele>507.8</ele>
        <time>2026-03-10T09:18:12Z</time>
      </trkpt>
      <trkpt lat="49.01327" lon="7.68493">
        <ele>508</ele>
        <time>2026-03-10T09:18:17Z</time>
      </trkpt>
      <trkpt lat="49.01327" lon="7.68493">
        <ele>508</ele>
        <time>2026-03-10T09:18:22Z</time>
      </trkpt>
      <trkpt lat="49.01327" lon="7.68493">
        <ele>508</ele>
        <time>2026-03-10T09:18:27Z</time>
      </trkpt>
      <trkpt lat="49.01327" lon="7.68493">
        <ele>508</ele>
        <time>2026-03-10T09:18:32Z</time>
      </trkpt>
      <trkpt lat="49.01323" lon="7.68507">
        <ele>509</ele>
        <time>2026-03-10T09:18:37Z</time>
      </trkpt>
      <trkpt lat="49.01323" lon="7.68508">
        <ele>509</ele>
        <time>2026-03-10T09:18:42Z</time>
      </trkpt>
      <trkpt lat="49.01323" lon="7.68508">
        <ele>509</ele>
        <time>2026-03-10T09:18:47Z</time>
      </trkpt>
      <trkpt lat="49.01323" lon="7.68508">
        <ele>509</ele>
        <time>2026-03-10T09:18:52Z</time>
      </trkpt>
      <trkpt lat="49.01323" lon="7.68508">
        <ele>509</ele>
        <time>2026-03-10T09:18:57Z</time>
      </trkpt>
      <trkpt lat="49.01323" lon="7.68508">
        <ele>509</ele>
        <time>2026-03-10T09:19:02Z</time>
      </trkpt>
      <trkpt lat="49.01323" lon="7.68508">
        <ele>509</ele>
        <time>2026-03-10T09:19:07Z</time>
      </trkpt>
      <trkpt lat="49.01323" lon="7.68502">
        <ele>508.9</ele>
        <time>2026-03-10T09:19:12Z</time>
      </trkpt>
      <trkpt lat="49.01323" lon="7.68502">
        <ele>508.9</ele>
        <time>2026-03-10T09:19:17Z</time>
      </trkpt>
      <trkpt lat="49.01323" lon="7.68502">
        <ele>508.9</ele>
        <time>2026-03-10T09:19:22Z</time>
      </trkpt>
      <trkpt lat="49.01323" lon="7.68502">
        <ele>508.9</ele>
        <time>2026-03-10T09:19:27Z</time>
      </trkpt>
      <trkpt lat="49.01323" lon="7.68502">
        <ele>508.9</ele>
        <time>2026-03-10T09:19:32Z</time>
      </trkpt>
      <trkpt lat="49.01323" lon="7.68502">
        <ele>508.9</ele>
        <time>2026-03-10T09:19:37Z</time>
      </trkpt>
      <trkpt lat="49.01323" lon="7.68502">
        <ele>508.9</ele>
        <time>2026-03-10T09:19:42Z</time>
      </trkpt>
      <trkpt lat="49.01323" lon="7.68502">
        <ele>508.9</ele>
        <time>2026-03-10T09:19:47Z</time>
      </trkpt>
      <trkpt lat="49.01323" lon="7.68492">
        <ele>508.3</ele>
        <time>2026-03-10T09:19:52Z</time>
      </trkpt>
      <trkpt lat="49.01322" lon="7.68484">
        <ele>507.9</ele>
        <time>2026-03-10T09:19:57Z</time>
      </trkpt>
      <trkpt lat="49.01319" lon="7.6848">
        <ele>507.8</ele>
        <time>2026-03-10T09:20:02Z</time>
      </trkpt>
      <trkpt lat="49.01314" lon="7.68476">
        <ele>508</ele>
        <time>2026-03-10T09:20:07Z</time>
      </trkpt>
      <trkpt lat="49.0131" lon="7.68472">
        <ele>508.1</ele>
        <time>2026-03-10T09:20:12Z</time>
      </trkpt>
      <trkpt lat="49.01309" lon="7.68467">
        <ele>507.9</ele>
        <time>2026-03-10T09:20:17Z</time>
      </trkpt>
      <trkpt lat="49.01308" lon="7.68462">
        <ele>507.7</ele>
        <time>2026-03-10T09:20:22Z</time>
      </trkpt>
      <trkpt lat="49.01307" lon="7.68458">
        <ele>507.5</ele>
        <time>2026-03-10T09:20:27Z</time>
      </trkpt>
      <trkpt lat="49.01305" lon="7.68454">
        <ele>507.4</ele>
        <time>2026-03-10T09:20:32Z</time>
      </trkpt>
      <trkpt lat="49.01304" lon="7.68454">
        <ele>507.5</ele>
        <time>2026-03-10T09:20:37Z</time>
      </trkpt>
      <trkpt lat="49.01304" lon="7.68454">
        <ele>507.5</ele>
        <time>2026-03-10T09:20:42Z</time>
      </trkpt>
      <trkpt lat="49.01304" lon="7.68454">
        <ele>507.5</ele>
        <time>2026-03-10T09:20:47Z</time>
      </trkpt>
      <trkpt lat="49.01301" lon="7.68443">
        <ele>507.1</ele>
        <time>2026-03-10T09:20:52Z</time>
      </trkpt>
      <trkpt lat="49.013" lon="7.68439">
        <ele>507</ele>
        <time>2026-03-10T09:20:57Z</time>
      </trkpt>
      <trkpt lat="49.01299" lon="7.68439">
        <ele>507.1</ele>
        <time>2026-03-10T09:21:02Z</time>
      </trkpt>
      <trkpt lat="49.01299" lon="7.68439">
        <ele>507.1</ele>
        <time>2026-03-10T09:21:07Z</time>
      </trkpt>
      <trkpt lat="49.01295" lon="7.68426">
        <ele>506.7</ele>
        <time>2026-03-10T09:21:12Z</time>
      </trkpt>
      <trkpt lat="49.01293" lon="7.68421">
        <ele>506.6</ele>
        <time>2026-03-10T09:21:17Z</time>
      </trkpt>
      <trkpt lat="49.0129" lon="7.68417">
        <ele>506.7</ele>
        <time>2026-03-10T09:21:22Z</time>
      </trkpt>
      <trkpt lat="49.0129" lon="7.68415">
        <ele>506.5</ele>
        <time>2026-03-10T09:21:27Z</time>
      </trkpt>
      <trkpt lat="49.0129" lon="7.68415">
        <ele>506.5</ele>
        <time>2026-03-10T09:21:32Z</time>
      </trkpt>
      <trkpt lat="49.0129" lon="7.68415">
        <ele>506.5</ele>
        <time>2026-03-10T09:21:37Z</time>
      </trkpt>
      <trkpt lat="49.0129" lon="7.68415">
        <ele>506.5</ele>
        <time>2026-03-10T09:21:42Z</time>
      </trkpt>
      <trkpt lat="49.01284" lon="7.68402">
        <ele>505.4</ele>
        <time>2026-03-10T09:21:47Z</time>
      </trkpt>
      <trkpt lat="49.01282" lon="7.68397">
        <ele>505</ele>
        <time>2026-03-10T09:21:52Z</time>
      </trkpt>
      <trkpt lat="49.01281" lon="7.68391">
        <ele>504.3</ele>
        <time>2026-03-10T09:21:57Z</time>
      </trkpt>
      <trkpt lat="49.01279" lon="7.68388">
        <ele>504.2</ele>
        <time>2026-03-10T09:22:02Z</time>
      </trkpt>
      <trkpt lat="49.01278" lon="7.68388">
        <ele>504.3</ele>
        <time>2026-03-10T09:22:07Z</time>
      </trkpt>
      <trkpt lat="49.01278" lon="7.68388">
        <ele>504.3</ele>
        <time>2026-03-10T09:22:12Z</time>
      </trkpt>
      <trkpt lat="49.01278" lon="7.68388">
        <ele>504.3</ele>
        <time>2026-03-10T09:22:17Z</time>
      </trkpt>
      <trkpt lat="49.01278" lon="7.68388">
        <ele>504.3</ele>
        <time>2026-03-10T09:22:22Z</time>
      </trkpt>
      <trkpt lat="49.01278" lon="7.68388">
        <ele>504.3</ele>
        <time>2026-03-10T09:22:27Z</time>
      </trkpt>
      <trkpt lat="49.01268" lon="7.68383">
        <ele>504.8</ele>
        <time>2026-03-10T09:22:32Z</time>
      </trkpt>
      <trkpt lat="49.01268" lon="7.68383">
        <ele>504.8</ele>
        <time>2026-03-10T09:22:37Z</time>
      </trkpt>
      <trkpt lat="49.01268" lon="7.68383">
        <ele>504.8</ele>
        <time>2026-03-10T09:22:42Z</time>
      </trkpt>
      <trkpt lat="49.01268" lon="7.68383">
        <ele>504.8</ele>
        <time>2026-03-10T09:22:47Z</time>
      </trkpt>
      <trkpt lat="49.01268" lon="7.68383">
        <ele>504.8</ele>
        <time>2026-03-10T09:22:52Z</time>
      </trkpt>
      <trkpt lat="49.01268" lon="7.68383">
        <ele>504.8</ele>
        <time>2026-03-10T09:22:57Z</time>
      </trkpt>
      <trkpt lat="49.01259" lon="7.68393">
        <ele>507.1</ele>
        <time>2026-03-10T09:23:02Z</time>
      </trkpt>
      <trkpt lat="49.01259" lon="7.68398">
        <ele>507.7</ele>
        <time>2026-03-10T09:23:07Z</time>
      </trkpt>
      <trkpt lat="49.0126" lon="7.68403">
        <ele>508.2</ele>
        <time>2026-03-10T09:23:12Z</time>
      </trkpt>
      <trkpt lat="49.0126" lon="7.68409">
        <ele>509</ele>
        <time>2026-03-10T09:23:17Z</time>
      </trkpt>
      <trkpt lat="49.0126" lon="7.68415">
        <ele>509.7</ele>
        <time>2026-03-10T09:23:22Z</time>
      </trkpt>
      <trkpt lat="49.01259" lon="7.68419">
        <ele>510.1</ele>
        <time>2026-03-10T09:23:27Z</time>
      </trkpt>
      <trkpt lat="49.01257" lon="7.68424">
        <ele>510.6</ele>
        <time>2026-03-10T09:23:32Z</time>
      </trkpt>
      <trkpt lat="49.01257" lon="7.68428">
        <ele>510.8</ele>
        <time>2026-03-10T09:23:37Z</time>
      </trkpt>
      <trkpt lat="49.01257" lon="7.68432">
        <ele>511</ele>
        <time>2026-03-10T09:23:42Z</time>
      </trkpt>
      <trkpt lat="49.01257" lon="7.68432">
        <ele>511</ele>
        <time>2026-03-10T09:23:47Z</time>
      </trkpt>
      <trkpt lat="49.0125" lon="7.68439">
        <ele>512.1</ele>
        <time>2026-03-10T09:23:52Z</time>
      </trkpt>
      <trkpt lat="49.01246" lon="7.68436">
        <ele>512.1</ele>
        <time>2026-03-10T09:23:57Z</time>
      </trkpt>
      <trkpt lat="49.01244" lon="7.68443">
        <ele>512.5</ele>
        <time>2026-03-10T09:24:02Z</time>
      </trkpt>
      <trkpt lat="49.01244" lon="7.6845">
        <ele>512.8</ele>
        <time>2026-03-10T09:24:07Z</time>
      </trkpt>
      <trkpt lat="49.01245" lon="7.68457">
        <ele>513.1</ele>
        <time>2026-03-10T09:24:12Z</time>
      </trkpt>
      <trkpt lat="49.01243" lon="7.68459">
        <ele>513.2</ele>
        <time>2026-03-10T09:24:17Z</time>
      </trkpt>
      <trkpt lat="49.01243" lon="7.68459">
        <ele>513.2</ele>
        <time>2026-03-10T09:24:22Z</time>
      </trkpt>
      <trkpt lat="49.01243" lon="7.68459">
        <ele>513.2</ele>
        <time>2026-03-10T09:24:27Z</time>
      </trkpt>
      <trkpt lat="49.01243" lon="7.68459">
        <ele>513.2</ele>
        <time>2026-03-10T09:24:32Z</time>
      </trkpt>
      <trkpt lat="49.01243" lon="7.68459">
        <ele>513.2</ele>
        <time>2026-03-10T09:24:37Z</time>
      </trkpt>
      <trkpt lat="49.01239" lon="7.68462">
        <ele>513.5</ele>
        <time>2026-03-10T09:24:42Z</time>
      </trkpt>
      <trkpt lat="49.01236" lon="7.68458">
        <ele>513.4</ele>
        <time>2026-03-10T09:24:47Z</time>
      </trkpt>
      <trkpt lat="49.01232" lon="7.68455">
        <ele>513.4</ele>
        <time>2026-03-10T09:24:52Z</time>
      </trkpt>
      <trkpt lat="49.01229" lon="7.68451">
        <ele>513.4</ele>
        <time>2026-03-10T09:24:57Z</time>
      </trkpt>
      <trkpt lat="49.01225" lon="7.68451">
        <ele>513.5</ele>
        <time>2026-03-10T09:25:02Z</time>
      </trkpt>
      <trkpt lat="49.01222" lon="7.68453">
        <ele>513.7</ele>
        <time>2026-03-10T09:25:07Z</time>
      </trkpt>
      <trkpt lat="49.01218" lon="7.68457">
        <ele>513.9</ele>
        <time>2026-03-10T09:25:12Z</time>
      </trkpt>
      <trkpt lat="49.01216" lon="7.68461">
        <ele>514.1</ele>
        <time>2026-03-10T09:25:17Z</time>
      </trkpt>
      <trkpt lat="49.01213" lon="7.68468">
        <ele>514.3</ele>
        <time>2026-03-10T09:25:22Z</time>
      </trkpt>
      <trkpt lat="49.01212" lon="7.68477">
        <ele>514.5</ele>
        <time>2026-03-10T09:25:27Z</time>
      </trkpt>
      <trkpt lat="49.0121" lon="7.68481">
        <ele>514.6</ele>
        <time>2026-03-10T09:25:32Z</time>
      </trkpt>
      <trkpt lat="49.01208" lon="7.68485">
        <ele>514.7</ele>
        <time>2026-03-10T09:25:37Z</time>
      </trkpt>
      <trkpt lat="49.01207" lon="7.68492">
        <ele>514.9</ele>
        <time>2026-03-10T09:25:42Z</time>
      </trkpt>
      <trkpt lat="49.01204" lon="7.68497">
        <ele>515</ele>
        <time>2026-03-10T09:25:47Z</time>
      </trkpt>
      <trkpt lat="49.01199" lon="7.68502">
        <ele>514.9</ele>
        <time>2026-03-10T09:25:52Z</time>
      </trkpt>
      <trkpt lat="49.01195" lon="7.68505">
        <ele>514.7</ele>
        <time>2026-03-10T09:25:57Z</time>
      </trkpt>
      <trkpt lat="49.01192" lon="7.68511">
        <ele>514.2</ele>
        <time>2026-03-10T09:26:02Z</time>
      </trkpt>
      <trkpt lat="49.01189" lon="7.68514">
        <ele>514</ele>
        <time>2026-03-10T09:26:07Z</time>
      </trkpt>
      <trkpt lat="49.01185" lon="7.68512">
        <ele>514.2</ele>
        <time>2026-03-10T09:26:12Z</time>
      </trkpt>
      <trkpt lat="49.01182" lon="7.68509">
        <ele>514.4</ele>
        <time>2026-03-10T09:26:17Z</time>
      </trkpt>
      <trkpt lat="49.01177" lon="7.68509">
        <ele>514.4</ele>
        <time>2026-03-10T09:26:22Z</time>
      </trkpt>
      <trkpt lat="49.01173" lon="7.68514">
        <ele>514</ele>
        <time>2026-03-10T09:26:27Z</time>
      </trkpt>
      <trkpt lat="49.01168" lon="7.6852">
        <ele>513.6</ele>
        <time>2026-03-10T09:26:32Z</time>
      </trkpt>
      <trkpt lat="49.01167" lon="7.68525">
        <ele>513.2</ele>
        <time>2026-03-10T09:26:37Z</time>
      </trkpt>
      <trkpt lat="49.01169" lon="7.6853">
        <ele>512.9</ele>
        <time>2026-03-10T09:26:42Z</time>
      </trkpt>
      <trkpt lat="49.01169" lon="7.6853">
        <ele>512.9</ele>
        <time>2026-03-10T09:26:47Z</time>
      </trkpt>
      <trkpt lat="49.01164" lon="7.68533">
        <ele>512.7</ele>
        <time>2026-03-10T09:26:52Z</time>
      </trkpt>
      <trkpt lat="49.01157" lon="7.68527">
        <ele>513.4</ele>
        <time>2026-03-10T09:26:57Z</time>
      </trkpt>
      <trkpt lat="49.01149" lon="7.68525">
        <ele>513.9</ele>
        <time>2026-03-10T09:27:02Z</time>
      </trkpt>
      <trkpt lat="49.01142" lon="7.68526">
        <ele>514.1</ele>
        <time>2026-03-10T09:27:07Z</time>
      </trkpt>
      <trkpt lat="49.01136" lon="7.68521">
        <ele>514.8</ele>
        <time>2026-03-10T09:27:12Z</time>
      </trkpt>
      <trkpt lat="49.01132" lon="7.6851">
        <ele>516.1</ele>
        <time>2026-03-10T09:27:17Z</time>
      </trkpt>
      <trkpt lat="49.01133" lon="7.685">
        <ele>517</ele>
        <time>2026-03-10T09:27:22Z</time>
      </trkpt>
      <trkpt lat="49.01131" lon="7.68491">
        <ele>517.2</ele>
        <time>2026-03-10T09:27:27Z</time>
      </trkpt>
      <trkpt lat="49.01129" lon="7.68482">
        <ele>517.5</ele>
        <time>2026-03-10T09:27:32Z</time>
      </trkpt>
      <trkpt lat="49.01125" lon="7.68476">
        <ele>517.8</ele>
        <time>2026-03-10T09:27:37Z</time>
      </trkpt>
      <trkpt lat="49.01121" lon="7.68469">
        <ele>518.1</ele>
        <time>2026-03-10T09:27:42Z</time>
      </trkpt>
      <trkpt lat="49.01118" lon="7.6846">
        <ele>518.4</ele>
        <time>2026-03-10T09:27:47Z</time>
      </trkpt>
      <trkpt lat="49.01113" lon="7.68452">
        <ele>518.8</ele>
        <time>2026-03-10T09:27:52Z</time>
      </trkpt>
      <trkpt lat="49.01108" lon="7.68446">
        <ele>519.2</ele>
        <time>2026-03-10T09:27:57Z</time>
      </trkpt>
      <trkpt lat="49.01101" lon="7.68442">
        <ele>519.6</ele>
        <time>2026-03-10T09:28:02Z</time>
      </trkpt>
      <trkpt lat="49.01092" lon="7.68441">
        <ele>520.2</ele>
        <time>2026-03-10T09:28:07Z</time>
      </trkpt>
      <trkpt lat="49.01084" lon="7.68441">
        <ele>520.7</ele>
        <time>2026-03-10T09:28:12Z</time>
      </trkpt>
      <trkpt lat="49.01077" lon="7.68442">
        <ele>520.1</ele>
        <time>2026-03-10T09:28:17Z</time>
      </trkpt>
      <trkpt lat="49.01069" lon="7.68445">
        <ele>519.3</ele>
        <time>2026-03-10T09:28:22Z</time>
      </trkpt>
      <trkpt lat="49.01063" lon="7.68448">
        <ele>518.7</ele>
        <time>2026-03-10T09:28:27Z</time>
      </trkpt>
      <trkpt lat="49.01057" lon="7.68449">
        <ele>518.1</ele>
        <time>2026-03-10T09:28:32Z</time>
      </trkpt>
      <trkpt lat="49.01051" lon="7.68453">
        <ele>517.5</ele>
        <time>2026-03-10T09:28:37Z</time>
      </trkpt>
      <trkpt lat="49.01044" lon="7.68455">
        <ele>516.8</ele>
        <time>2026-03-10T09:28:42Z</time>
      </trkpt>
      <trkpt lat="49.01038" lon="7.68461">
        <ele>516.1</ele>
        <time>2026-03-10T09:28:47Z</time>
      </trkpt>
      <trkpt lat="49.01031" lon="7.68464">
        <ele>515.4</ele>
        <time>2026-03-10T09:28:52Z</time>
      </trkpt>
      <trkpt lat="49.01024" lon="7.6847">
        <ele>514.7</ele>
        <time>2026-03-10T09:28:57Z</time>
      </trkpt>
      <trkpt lat="49.01019" lon="7.68475">
        <ele>514.1</ele>
        <time>2026-03-10T09:29:02Z</time>
      </trkpt>
      <trkpt lat="49.01013" lon="7.68478">
        <ele>513.5</ele>
        <time>2026-03-10T09:29:07Z</time>
      </trkpt>
      <trkpt lat="49.01007" lon="7.68482">
        <ele>512.9</ele>
        <time>2026-03-10T09:29:12Z</time>
      </trkpt>
      <trkpt lat="49.01001" lon="7.68484">
        <ele>512.3</ele>
        <time>2026-03-10T09:29:17Z</time>
      </trkpt>
      <trkpt lat="49.00995" lon="7.68488">
        <ele>512</ele>
        <time>2026-03-10T09:29:22Z</time>
      </trkpt>
      <trkpt lat="49.00989" lon="7.6849">
        <ele>511.8</ele>
        <time>2026-03-10T09:29:27Z</time>
      </trkpt>
      <trkpt lat="49.00983" lon="7.68491">
        <ele>511.7</ele>
        <time>2026-03-10T09:29:32Z</time>
      </trkpt>
      <trkpt lat="49.00976" lon="7.68492">
        <ele>511.5</ele>
        <time>2026-03-10T09:29:37Z</time>
      </trkpt>
      <trkpt lat="49.00974" lon="7.68495">
        <ele>511.6</ele>
        <time>2026-03-10T09:29:42Z</time>
      </trkpt>
      <trkpt lat="49.0097" lon="7.68496">
        <ele>511.5</ele>
        <time>2026-03-10T09:29:47Z</time>
      </trkpt>
      <trkpt lat="49.00964" lon="7.68495">
        <ele>511.4</ele>
        <time>2026-03-10T09:29:52Z</time>
      </trkpt>
      <trkpt lat="49.00957" lon="7.68499">
        <ele>511.4</ele>
        <time>2026-03-10T09:29:57Z</time>
      </trkpt>
      <trkpt lat="49.00951" lon="7.68504">
        <ele>511.3</ele>
        <time>2026-03-10T09:30:02Z</time>
      </trkpt>
      <trkpt lat="49.00944" lon="7.6851">
        <ele>511.1</ele>
        <time>2026-03-10T09:30:07Z</time>
      </trkpt>
      <trkpt lat="49.00938" lon="7.68515">
        <ele>511</ele>
        <time>2026-03-10T09:30:12Z</time>
      </trkpt>
      <trkpt lat="49.00932" lon="7.68519">
        <ele>510.9</ele>
        <time>2026-03-10T09:30:17Z</time>
      </trkpt>
      <trkpt lat="49.00926" lon="7.68525">
        <ele>510.7</ele>
        <time>2026-03-10T09:30:22Z</time>
      </trkpt>
      <trkpt lat="49.00918" lon="7.6853">
        <ele>510.6</ele>
        <time>2026-03-10T09:30:27Z</time>
      </trkpt>
      <trkpt lat="49.00913" lon="7.68536">
        <ele>509.9</ele>
        <time>2026-03-10T09:30:32Z</time>
      </trkpt>
      <trkpt lat="49.00906" lon="7.68546">
        <ele>508.5</ele>
        <time>2026-03-10T09:30:37Z</time>
      </trkpt>
      <trkpt lat="49.00901" lon="7.68554">
        <ele>507.5</ele>
        <time>2026-03-10T09:30:42Z</time>
      </trkpt>
      <trkpt lat="49.00897" lon="7.68564">
        <ele>506.6</ele>
        <time>2026-03-10T09:30:47Z</time>
      </trkpt>
      <trkpt lat="49.00894" lon="7.68572">
        <ele>505.9</ele>
        <time>2026-03-10T09:30:52Z</time>
      </trkpt>
      <trkpt lat="49.00891" lon="7.68581">
        <ele>505.1</ele>
        <time>2026-03-10T09:30:57Z</time>
      </trkpt>
      <trkpt lat="49.00888" lon="7.68591">
        <ele>504.1</ele>
        <time>2026-03-10T09:31:02Z</time>
      </trkpt>
      <trkpt lat="49.00884" lon="7.68602">
        <ele>502.6</ele>
        <time>2026-03-10T09:31:07Z</time>
      </trkpt>
      <trkpt lat="49.0088" lon="7.6861">
        <ele>501.2</ele>
        <time>2026-03-10T09:31:12Z</time>
      </trkpt>
      <trkpt lat="49.00875" lon="7.68618">
        <ele>499.5</ele>
        <time>2026-03-10T09:31:17Z</time>
      </trkpt>
      <trkpt lat="49.00872" lon="7.68629">
        <ele>498</ele>
        <time>2026-03-10T09:31:22Z</time>
      </trkpt>
      <trkpt lat="49.00869" lon="7.68638">
        <ele>496.5</ele>
        <time>2026-03-10T09:31:27Z</time>
      </trkpt>
      <trkpt lat="49.00865" lon="7.68644">
        <ele>495</ele>
        <time>2026-03-10T09:31:32Z</time>
      </trkpt>
      <trkpt lat="49.00858" lon="7.68648">
        <ele>492.8</ele>
        <time>2026-03-10T09:31:37Z</time>
      </trkpt>
      <trkpt lat="49.00852" lon="7.68651">
        <ele>490.9</ele>
        <time>2026-03-10T09:31:42Z</time>
      </trkpt>
      <trkpt lat="49.00846" lon="7.68655">
        <ele>488.9</ele>
        <time>2026-03-10T09:31:47Z</time>
      </trkpt>
      <trkpt lat="49.00841" lon="7.68658">
        <ele>487.2</ele>
        <time>2026-03-10T09:31:52Z</time>
      </trkpt>
      <trkpt lat="49.00835" lon="7.68662">
        <ele>485</ele>
        <time>2026-03-10T09:31:57Z</time>
      </trkpt>
      <trkpt lat="49.0083" lon="7.68666">
        <ele>482.3</ele>
        <time>2026-03-10T09:32:02Z</time>
      </trkpt>
      <trkpt lat="49.00824" lon="7.68671">
        <ele>478.8</ele>
        <time>2026-03-10T09:32:07Z</time>
      </trkpt>
      <trkpt lat="49.00816" lon="7.68675">
        <ele>474.2</ele>
        <time>2026-03-10T09:32:12Z</time>
      </trkpt>
      <trkpt lat="49.0081" lon="7.68676">
        <ele>471</ele>
        <time>2026-03-10T09:32:17Z</time>
      </trkpt>
      <trkpt lat="49.00803" lon="7.68674">
        <ele>467.4</ele>
        <time>2026-03-10T09:32:22Z</time>
      </trkpt>
      <trkpt lat="49.00798" lon="7.68672">
        <ele>464.9</ele>
        <time>2026-03-10T09:32:27Z</time>
      </trkpt>
      <trkpt lat="49.00791" lon="7.6867">
        <ele>461.3</ele>
        <time>2026-03-10T09:32:32Z</time>
      </trkpt>
      <trkpt lat="49.00788" lon="7.68667">
        <ele>460</ele>
        <time>2026-03-10T09:32:37Z</time>
      </trkpt>
      <trkpt lat="49.00785" lon="7.68662">
        <ele>459.2</ele>
        <time>2026-03-10T09:32:42Z</time>
      </trkpt>
      <trkpt lat="49.00779" lon="7.68657">
        <ele>456.9</ele>
        <time>2026-03-10T09:32:47Z</time>
      </trkpt>
      <trkpt lat="49.00775" lon="7.68652">
        <ele>455.6</ele>
        <time>2026-03-10T09:32:52Z</time>
      </trkpt>
      <trkpt lat="49.00773" lon="7.68651">
        <ele>454.7</ele>
        <time>2026-03-10T09:32:57Z</time>
      </trkpt>
      <trkpt lat="49.00772" lon="7.68651">
        <ele>454.2</ele>
        <time>2026-03-10T09:33:02Z</time>
      </trkpt>
      <trkpt lat="49.00772" lon="7.68651">
        <ele>454.2</ele>
        <time>2026-03-10T09:33:07Z</time>
      </trkpt>
      <trkpt lat="49.00772" lon="7.68651">
        <ele>454.2</ele>
        <time>2026-03-10T09:33:12Z</time>
      </trkpt>
      <trkpt lat="49.00772" lon="7.68651">
        <ele>454.2</ele>
        <time>2026-03-10T09:33:17Z</time>
      </trkpt>
      <trkpt lat="49.00772" lon="7.68651">
        <ele>454.2</ele>
        <time>2026-03-10T09:33:22Z</time>
      </trkpt>
      <trkpt lat="49.00772" lon="7.68651">
        <ele>454.2</ele>
        <time>2026-03-10T09:33:27Z</time>
      </trkpt>
      <trkpt lat="49.00763" lon="7.68633">
        <ele>452.6</ele>
        <time>2026-03-10T09:33:32Z</time>
      </trkpt>
      <trkpt lat="49.0076" lon="7.68626">
        <ele>452.3</ele>
        <time>2026-03-10T09:33:37Z</time>
      </trkpt>
      <trkpt lat="49.00757" lon="7.68621">
        <ele>451.7</ele>
        <time>2026-03-10T09:33:42Z</time>
      </trkpt>
      <trkpt lat="49.00754" lon="7.68617">
        <ele>450.9</ele>
        <time>2026-03-10T09:33:47Z</time>
      </trkpt>
      <trkpt lat="49.0075" lon="7.68612">
        <ele>449.8</ele>
        <time>2026-03-10T09:33:52Z</time>
      </trkpt>
      <trkpt lat="49.00747" lon="7.68605">
        <ele>450</ele>
        <time>2026-03-10T09:33:57Z</time>
      </trkpt>
      <trkpt lat="49.00741" lon="7.68601">
        <ele>448.5</ele>
        <time>2026-03-10T09:34:02Z</time>
      </trkpt>
      <trkpt lat="49.00735" lon="7.68597">
        <ele>447.1</ele>
        <time>2026-03-10T09:34:07Z</time>
      </trkpt>
      <trkpt lat="49.00729" lon="7.68592">
        <ele>446</ele>
        <time>2026-03-10T09:34:12Z</time>
      </trkpt>
      <trkpt lat="49.00723" lon="7.68586">
        <ele>445.3</ele>
        <time>2026-03-10T09:34:17Z</time>
      </trkpt>
      <trkpt lat="49.00718" lon="7.6858">
        <ele>444.7</ele>
        <time>2026-03-10T09:34:22Z</time>
      </trkpt>
      <trkpt lat="49.00714" lon="7.68574">
        <ele>444.1</ele>
        <time>2026-03-10T09:34:27Z</time>
      </trkpt>
      <trkpt lat="49.00708" lon="7.68571">
        <ele>442.4</ele>
        <time>2026-03-10T09:34:32Z</time>
      </trkpt>
      <trkpt lat="49.00703" lon="7.68568">
        <ele>441.2</ele>
        <time>2026-03-10T09:34:37Z</time>
      </trkpt>
      <trkpt lat="49.00699" lon="7.68564">
        <ele>440.4</ele>
        <time>2026-03-10T09:34:42Z</time>
      </trkpt>
      <trkpt lat="49.00694" lon="7.6856">
        <ele>439.3</ele>
        <time>2026-03-10T09:34:47Z</time>
      </trkpt>
      <trkpt lat="49.00689" lon="7.68559">
        <ele>437.8</ele>
        <time>2026-03-10T09:34:52Z</time>
      </trkpt>
      <trkpt lat="49.00684" lon="7.68558">
        <ele>436.3</ele>
        <time>2026-03-10T09:34:57Z</time>
      </trkpt>
      <trkpt lat="49.00679" lon="7.68555">
        <ele>435.1</ele>
        <time>2026-03-10T09:35:02Z</time>
      </trkpt>
      <trkpt lat="49.00676" lon="7.68552">
        <ele>434.5</ele>
        <time>2026-03-10T09:35:07Z</time>
      </trkpt>
      <trkpt lat="49.00673" lon="7.68549">
        <ele>434</ele>
        <time>2026-03-10T09:35:12Z</time>
      </trkpt>
      <trkpt lat="49.00669" lon="7.68547">
        <ele>433</ele>
        <time>2026-03-10T09:35:17Z</time>
      </trkpt>
      <trkpt lat="49.00664" lon="7.68543">
        <ele>431.8</ele>
        <time>2026-03-10T09:35:22Z</time>
      </trkpt>
      <trkpt lat="49.00658" lon="7.68539">
        <ele>430.1</ele>
        <time>2026-03-10T09:35:27Z</time>
      </trkpt>
      <trkpt lat="49.00653" lon="7.68537">
        <ele>428.5</ele>
        <time>2026-03-10T09:35:32Z</time>
      </trkpt>
      <trkpt lat="49.00648" lon="7.68533">
        <ele>427.2</ele>
        <time>2026-03-10T09:35:37Z</time>
      </trkpt>
      <trkpt lat="49.00647" lon="7.68529">
        <ele>427.5</ele>
        <time>2026-03-10T09:35:42Z</time>
      </trkpt>
      <trkpt lat="49.00644" lon="7.68526">
        <ele>426.9</ele>
        <time>2026-03-10T09:35:47Z</time>
      </trkpt>
      <trkpt lat="49.00644" lon="7.68526">
        <ele>426.9</ele>
        <time>2026-03-10T09:35:52Z</time>
      </trkpt>
      <trkpt lat="49.00644" lon="7.68526">
        <ele>426.9</ele>
        <time>2026-03-10T09:35:57Z</time>
      </trkpt>
      <trkpt lat="49.00644" lon="7.68526">
        <ele>426.9</ele>
        <time>2026-03-10T09:36:02Z</time>
      </trkpt>
      <trkpt lat="49.00644" lon="7.68526">
        <ele>426.9</ele>
        <time>2026-03-10T09:36:07Z</time>
      </trkpt>
      <trkpt lat="49.00634" lon="7.68527">
        <ele>423</ele>
        <time>2026-03-10T09:36:12Z</time>
      </trkpt>
      <trkpt lat="49.00632" lon="7.68527">
        <ele>422.2</ele>
        <time>2026-03-10T09:36:17Z</time>
      </trkpt>
      <trkpt lat="49.00632" lon="7.68527">
        <ele>422.2</ele>
        <time>2026-03-10T09:36:22Z</time>
      </trkpt>
      <trkpt lat="49.00633" lon="7.68539">
        <ele>420.5</ele>
        <time>2026-03-10T09:36:27Z</time>
      </trkpt>
      <trkpt lat="49.0064" lon="7.6855">
        <ele>421.4</ele>
        <time>2026-03-10T09:36:32Z</time>
      </trkpt>
      <trkpt lat="49.00645" lon="7.68559">
        <ele>421.9</ele>
        <time>2026-03-10T09:36:37Z</time>
      </trkpt>
      <trkpt lat="49.00649" lon="7.68565">
        <ele>422.5</ele>
        <time>2026-03-10T09:36:42Z</time>
      </trkpt>
      <trkpt lat="49.00653" lon="7.68572">
        <ele>423</ele>
        <time>2026-03-10T09:36:47Z</time>
      </trkpt>
      <trkpt lat="49.00657" lon="7.68579">
        <ele>423.6</ele>
        <time>2026-03-10T09:36:52Z</time>
      </trkpt>
      <trkpt lat="49.00663" lon="7.68587">
        <ele>424.2</ele>
        <time>2026-03-10T09:36:57Z</time>
      </trkpt>
      <trkpt lat="49.00667" lon="7.68595">
        <ele>423.1</ele>
        <time>2026-03-10T09:37:02Z</time>
      </trkpt>
      <trkpt lat="49.00673" lon="7.68603">
        <ele>422.5</ele>
        <time>2026-03-10T09:37:07Z</time>
      </trkpt>
      <trkpt lat="49.00676" lon="7.68613">
        <ele>420.4</ele>
        <time>2026-03-10T09:37:12Z</time>
      </trkpt>
      <trkpt lat="49.0068" lon="7.68623">
        <ele>418.7</ele>
        <time>2026-03-10T09:37:17Z</time>
      </trkpt>
      <trkpt lat="49.00678" lon="7.68625">
        <ele>417.3</ele>
        <time>2026-03-10T09:37:22Z</time>
      </trkpt>
      <trkpt lat="49.00671" lon="7.68618">
        <ele>416.7</ele>
        <time>2026-03-10T09:37:27Z</time>
      </trkpt>
      <trkpt lat="49.00666" lon="7.68609">
        <ele>417.8</ele>
        <time>2026-03-10T09:37:32Z</time>
      </trkpt>
      <trkpt lat="49.0066" lon="7.68598">
        <ele>419.2</ele>
        <time>2026-03-10T09:37:37Z</time>
      </trkpt>
      <trkpt lat="49.00654" lon="7.68594">
        <ele>418</ele>
        <time>2026-03-10T09:37:42Z</time>
      </trkpt>
      <trkpt lat="49.00648" lon="7.68589">
        <ele>417.2</ele>
        <time>2026-03-10T09:37:47Z</time>
      </trkpt>
      <trkpt lat="49.00642" lon="7.68583">
        <ele>416.7</ele>
        <time>2026-03-10T09:37:52Z</time>
      </trkpt>
      <trkpt lat="49.00635" lon="7.68578">
        <ele>414.6</ele>
        <time>2026-03-10T09:37:57Z</time>
      </trkpt>
      <trkpt lat="49.0063" lon="7.68571">
        <ele>413.8</ele>
        <time>2026-03-10T09:38:02Z</time>
      </trkpt>
      <trkpt lat="49.00623" lon="7.68567">
        <ele>411.6</ele>
        <time>2026-03-10T09:38:07Z</time>
      </trkpt>
      <trkpt lat="49.00617" lon="7.68562">
        <ele>410.1</ele>
        <time>2026-03-10T09:38:12Z</time>
      </trkpt>
      <trkpt lat="49.00611" lon="7.6856">
        <ele>408.1</ele>
        <time>2026-03-10T09:38:17Z</time>
      </trkpt>
      <trkpt lat="49.00606" lon="7.68556">
        <ele>406.9</ele>
        <time>2026-03-10T09:38:22Z</time>
      </trkpt>
      <trkpt lat="49.006" lon="7.68552">
        <ele>405.3</ele>
        <time>2026-03-10T09:38:27Z</time>
      </trkpt>
      <trkpt lat="49.00594" lon="7.68552">
        <ele>403</ele>
        <time>2026-03-10T09:38:32Z</time>
      </trkpt>
      <trkpt lat="49.00591" lon="7.68548">
        <ele>402.6</ele>
        <time>2026-03-10T09:38:37Z</time>
      </trkpt>
      <trkpt lat="49.00588" lon="7.68542">
        <ele>402.7</ele>
        <time>2026-03-10T09:38:42Z</time>
      </trkpt>
      <trkpt lat="49.00583" lon="7.6854">
        <ele>401.3</ele>
        <time>2026-03-10T09:38:47Z</time>
      </trkpt>
      <trkpt lat="49.00578" lon="7.68536">
        <ele>400.7</ele>
        <time>2026-03-10T09:38:52Z</time>
      </trkpt>
      <trkpt lat="49.00573" lon="7.68535">
        <ele>399.6</ele>
        <time>2026-03-10T09:38:57Z</time>
      </trkpt>
      <trkpt lat="49.00568" lon="7.68532">
        <ele>398.9</ele>
        <time>2026-03-10T09:39:02Z</time>
      </trkpt>
      <trkpt lat="49.00564" lon="7.68526">
        <ele>399.3</ele>
        <time>2026-03-10T09:39:07Z</time>
      </trkpt>
      <trkpt lat="49.0056" lon="7.68522">
        <ele>399.2</ele>
        <time>2026-03-10T09:39:12Z</time>
      </trkpt>
      <trkpt lat="49.00554" lon="7.68519">
        <ele>398.4</ele>
        <time>2026-03-10T09:39:17Z</time>
      </trkpt>
      <trkpt lat="49.00549" lon="7.68515">
        <ele>398.2</ele>
        <time>2026-03-10T09:39:22Z</time>
      </trkpt>
      <trkpt lat="49.00544" lon="7.68511">
        <ele>398</ele>
        <time>2026-03-10T09:39:27Z</time>
      </trkpt>
      <trkpt lat="49.0054" lon="7.68505">
        <ele>398.7</ele>
        <time>2026-03-10T09:39:32Z</time>
      </trkpt>
      <trkpt lat="49.00537" lon="7.68498">
        <ele>399.6</ele>
        <time>2026-03-10T09:39:37Z</time>
      </trkpt>
      <trkpt lat="49.00533" lon="7.68492">
        <ele>399.5</ele>
        <time>2026-03-10T09:39:42Z</time>
      </trkpt>
      <trkpt lat="49.00528" lon="7.68487">
        <ele>399</ele>
        <time>2026-03-10T09:39:47Z</time>
      </trkpt>
      <trkpt lat="49.00524" lon="7.68483">
        <ele>398.8</ele>
        <time>2026-03-10T09:39:52Z</time>
      </trkpt>
      <trkpt lat="49.00519" lon="7.68479">
        <ele>398.4</ele>
        <time>2026-03-10T09:39:57Z</time>
      </trkpt>
      <trkpt lat="49.00513" lon="7.68483">
        <ele>396.7</ele>
        <time>2026-03-10T09:40:02Z</time>
      </trkpt>
      <trkpt lat="49.00508" lon="7.68488">
        <ele>394.9</ele>
        <time>2026-03-10T09:40:07Z</time>
      </trkpt>
      <trkpt lat="49.00504" lon="7.68485">
        <ele>394.7</ele>
        <time>2026-03-10T09:40:12Z</time>
      </trkpt>
      <trkpt lat="49.00499" lon="7.68485">
        <ele>393.7</ele>
        <time>2026-03-10T09:40:17Z</time>
      </trkpt>
      <trkpt lat="49.00494" lon="7.68482">
        <ele>393.3</ele>
        <time>2026-03-10T09:40:22Z</time>
      </trkpt>
      <trkpt lat="49.00491" lon="7.68479">
        <ele>393.4</ele>
        <time>2026-03-10T09:40:27Z</time>
      </trkpt>
      <trkpt lat="49.00489" lon="7.68478">
        <ele>393.3</ele>
        <time>2026-03-10T09:40:32Z</time>
      </trkpt>
      <trkpt lat="49.00489" lon="7.68478">
        <ele>393.3</ele>
        <time>2026-03-10T09:40:37Z</time>
      </trkpt>
      <trkpt lat="49.00489" lon="7.68478">
        <ele>393.3</ele>
        <time>2026-03-10T09:40:42Z</time>
      </trkpt>
      <trkpt lat="49.00481" lon="7.6848">
        <ele>391.4</ele>
        <time>2026-03-10T09:40:47Z</time>
      </trkpt>
      <trkpt lat="49.00477" lon="7.68478">
        <ele>391.1</ele>
        <time>2026-03-10T09:40:52Z</time>
      </trkpt>
      <trkpt lat="49.00473" lon="7.68475">
        <ele>391.1</ele>
        <time>2026-03-10T09:40:57Z</time>
      </trkpt>
      <trkpt lat="49.00471" lon="7.6847">
        <ele>392</ele>
        <time>2026-03-10T09:41:02Z</time>
      </trkpt>
      <trkpt lat="49.0047" lon="7.68463">
        <ele>393.5</ele>
        <time>2026-03-10T09:41:07Z</time>
      </trkpt>
      <trkpt lat="49.00465" lon="7.68455">
        <ele>394.8</ele>
        <time>2026-03-10T09:41:12Z</time>
      </trkpt>
      <trkpt lat="49.0046" lon="7.68453">
        <ele>394.6</ele>
        <time>2026-03-10T09:41:17Z</time>
      </trkpt>
      <trkpt lat="49.00455" lon="7.68458">
        <ele>392.6</ele>
        <time>2026-03-10T09:41:22Z</time>
      </trkpt>
      <trkpt lat="49.00448" lon="7.68462">
        <ele>390.5</ele>
        <time>2026-03-10T09:41:27Z</time>
      </trkpt>
      <trkpt lat="49.00446" lon="7.68463">
        <ele>389.9</ele>
        <time>2026-03-10T09:41:32Z</time>
      </trkpt>
      <trkpt lat="49.00444" lon="7.68466">
        <ele>388.7</ele>
        <time>2026-03-10T09:41:37Z</time>
      </trkpt>
      <trkpt lat="49.00444" lon="7.68468">
        <ele>388.1</ele>
        <time>2026-03-10T09:41:42Z</time>
      </trkpt>
      <trkpt lat="49.00444" lon="7.68468">
        <ele>388.1</ele>
        <time>2026-03-10T09:41:47Z</time>
      </trkpt>
      <trkpt lat="49.00443" lon="7.68484">
        <ele>383.3</ele>
        <time>2026-03-10T09:41:52Z</time>
      </trkpt>
      <trkpt lat="49.00445" lon="7.68489">
        <ele>382.3</ele>
        <time>2026-03-10T09:41:57Z</time>
      </trkpt>
      <trkpt lat="49.00449" lon="7.68494">
        <ele>381.7</ele>
        <time>2026-03-10T09:42:02Z</time>
      </trkpt>
      <trkpt lat="49.00451" lon="7.68497">
        <ele>381.2</ele>
        <time>2026-03-10T09:42:07Z</time>
      </trkpt>
      <trkpt lat="49.00447" lon="7.68494">
        <ele>381.3</ele>
        <time>2026-03-10T09:42:12Z</time>
      </trkpt>
      <trkpt lat="49.00443" lon="7.6849">
        <ele>381.6</ele>
        <time>2026-03-10T09:42:17Z</time>
      </trkpt>
      <trkpt lat="49.00439" lon="7.68486">
        <ele>382</ele>
        <time>2026-03-10T09:42:22Z</time>
      </trkpt>
      <trkpt lat="49.00434" lon="7.68482">
        <ele>382.3</ele>
        <time>2026-03-10T09:42:27Z</time>
      </trkpt>
      <trkpt lat="49.00429" lon="7.68477">
        <ele>382.9</ele>
        <time>2026-03-10T09:42:32Z</time>
      </trkpt>
      <trkpt lat="49.00423" lon="7.68474">
        <ele>382.8</ele>
        <time>2026-03-10T09:42:37Z</time>
      </trkpt>
      <trkpt lat="49.00419" lon="7.68473">
        <ele>382.5</ele>
        <time>2026-03-10T09:42:42Z</time>
      </trkpt>
      <trkpt lat="49.00413" lon="7.68473">
        <ele>381.8</ele>
        <time>2026-03-10T09:42:47Z</time>
      </trkpt>
      <trkpt lat="49.00407" lon="7.6847">
        <ele>382.4</ele>
        <time>2026-03-10T09:42:52Z</time>
      </trkpt>
      <trkpt lat="49.00402" lon="7.68467">
        <ele>383.1</ele>
        <time>2026-03-10T09:42:57Z</time>
      </trkpt>
      <trkpt lat="49.00397" lon="7.68465">
        <ele>383.4</ele>
        <time>2026-03-10T09:43:02Z</time>
      </trkpt>
      <trkpt lat="49.00391" lon="7.68462">
        <ele>384</ele>
        <time>2026-03-10T09:43:07Z</time>
      </trkpt>
      <trkpt lat="49.00385" lon="7.68461">
        <ele>383.9</ele>
        <time>2026-03-10T09:43:12Z</time>
      </trkpt>
      <trkpt lat="49.0038" lon="7.68457">
        <ele>384.8</ele>
        <time>2026-03-10T09:43:17Z</time>
      </trkpt>
      <trkpt lat="49.00375" lon="7.68457">
        <ele>384.4</ele>
        <time>2026-03-10T09:43:22Z</time>
      </trkpt>
      <trkpt lat="49.00371" lon="7.68456">
        <ele>384.4</ele>
        <time>2026-03-10T09:43:27Z</time>
      </trkpt>
      <trkpt lat="49.00367" lon="7.68455">
        <ele>384.4</ele>
        <time>2026-03-10T09:43:32Z</time>
      </trkpt>
      <trkpt lat="49.00362" lon="7.68452">
        <ele>385</ele>
        <time>2026-03-10T09:43:37Z</time>
      </trkpt>
      <trkpt lat="49.00357" lon="7.68453">
        <ele>384.3</ele>
        <time>2026-03-10T09:43:42Z</time>
      </trkpt>
      <trkpt lat="49.00353" lon="7.68454">
        <ele>383.7</ele>
        <time>2026-03-10T09:43:47Z</time>
      </trkpt>
      <trkpt lat="49.00348" lon="7.68454">
        <ele>383.3</ele>
        <time>2026-03-10T09:43:52Z</time>
      </trkpt>
      <trkpt lat="49.00344" lon="7.68453">
        <ele>383.3</ele>
        <time>2026-03-10T09:43:57Z</time>
      </trkpt>
      <trkpt lat="49.0034" lon="7.68453">
        <ele>383</ele>
        <time>2026-03-10T09:44:02Z</time>
      </trkpt>
      <trkpt lat="49.00336" lon="7.68454">
        <ele>382.4</ele>
        <time>2026-03-10T09:44:07Z</time>
      </trkpt>
      <trkpt lat="49.00331" lon="7.68453">
        <ele>382.2</ele>
        <time>2026-03-10T09:44:12Z</time>
      </trkpt>
      <trkpt lat="49.00326" lon="7.68453">
        <ele>381.6</ele>
        <time>2026-03-10T09:44:17Z</time>
      </trkpt>
      <trkpt lat="49.00321" lon="7.68451">
        <ele>381.5</ele>
        <time>2026-03-10T09:44:22Z</time>
      </trkpt>
      <trkpt lat="49.00315" lon="7.68448">
        <ele>381.6</ele>
        <time>2026-03-10T09:44:27Z</time>
      </trkpt>
      <trkpt lat="49.00307" lon="7.68448">
        <ele>380.5</ele>
        <time>2026-03-10T09:44:32Z</time>
      </trkpt>
      <trkpt lat="49.00301" lon="7.6845">
        <ele>379.2</ele>
        <time>2026-03-10T09:44:37Z</time>
      </trkpt>
      <trkpt lat="49.00294" lon="7.6845">
        <ele>378.3</ele>
        <time>2026-03-10T09:44:42Z</time>
      </trkpt>
      <trkpt lat="49.00287" lon="7.6845">
        <ele>377.4</ele>
        <time>2026-03-10T09:44:47Z</time>
      </trkpt>
      <trkpt lat="49.0028" lon="7.68451">
        <ele>376.2</ele>
        <time>2026-03-10T09:44:52Z</time>
      </trkpt>
      <trkpt lat="49.00272" lon="7.68451">
        <ele>375.2</ele>
        <time>2026-03-10T09:44:57Z</time>
      </trkpt>
      <trkpt lat="49.00265" lon="7.68454">
        <ele>373.5</ele>
        <time>2026-03-10T09:45:02Z</time>
      </trkpt>
      <trkpt lat="49.00259" lon="7.68455">
        <ele>372.5</ele>
        <time>2026-03-10T09:45:07Z</time>
      </trkpt>
      <trkpt lat="49.00252" lon="7.68454">
        <ele>371.8</ele>
        <time>2026-03-10T09:45:12Z</time>
      </trkpt>
      <trkpt lat="49.00246" lon="7.6845">
        <ele>371.2</ele>
        <time>2026-03-10T09:45:17Z</time>
      </trkpt>
      <trkpt lat="49.00239" lon="7.68451">
        <ele>368.5</ele>
        <time>2026-03-10T09:45:22Z</time>
      </trkpt>
      <trkpt lat="49.00232" lon="7.68452">
        <ele>365.8</ele>
        <time>2026-03-10T09:45:27Z</time>
      </trkpt>
      <trkpt lat="49.00226" lon="7.6845">
        <ele>364.2</ele>
        <time>2026-03-10T09:45:32Z</time>
      </trkpt>
      <trkpt lat="49.00221" lon="7.68451">
        <ele>362.2</ele>
        <time>2026-03-10T09:45:37Z</time>
      </trkpt>
      <trkpt lat="49.00216" lon="7.68455">
        <ele>359.6</ele>
        <time>2026-03-10T09:45:42Z</time>
      </trkpt>
      <trkpt lat="49.00211" lon="7.68454">
        <ele>358.1</ele>
        <time>2026-03-10T09:45:47Z</time>
      </trkpt>
      <trkpt lat="49.00205" lon="7.68455">
        <ele>355.8</ele>
        <time>2026-03-10T09:45:52Z</time>
      </trkpt>
      <trkpt lat="49.00198" lon="7.68456">
        <ele>353.2</ele>
        <time>2026-03-10T09:45:57Z</time>
      </trkpt>
      <trkpt lat="49.00194" lon="7.68456">
        <ele>351.8</ele>
        <time>2026-03-10T09:46:02Z</time>
      </trkpt>
      <trkpt lat="49.00189" lon="7.68455">
        <ele>350.3</ele>
        <time>2026-03-10T09:46:07Z</time>
      </trkpt>
      <trkpt lat="49.00185" lon="7.68453">
        <ele>349.3</ele>
        <time>2026-03-10T09:46:12Z</time>
      </trkpt>
      <trkpt lat="49.00181" lon="7.68451">
        <ele>348.2</ele>
        <time>2026-03-10T09:46:17Z</time>
      </trkpt>
      <trkpt lat="49.00176" lon="7.68453">
        <ele>346.1</ele>
        <time>2026-03-10T09:46:22Z</time>
      </trkpt>
      <trkpt lat="49.00171" lon="7.68454">
        <ele>344.2</ele>
        <time>2026-03-10T09:46:27Z</time>
      </trkpt>
      <trkpt lat="49.00167" lon="7.68455">
        <ele>342.7</ele>
        <time>2026-03-10T09:46:32Z</time>
      </trkpt>
      <trkpt lat="49.00163" lon="7.6845">
        <ele>342.2</ele>
        <time>2026-03-10T09:46:37Z</time>
      </trkpt>
      <trkpt lat="49.00158" lon="7.68448">
        <ele>340.9</ele>
        <time>2026-03-10T09:46:42Z</time>
      </trkpt>
      <trkpt lat="49.00154" lon="7.68445">
        <ele>340.1</ele>
        <time>2026-03-10T09:46:47Z</time>
      </trkpt>
      <trkpt lat="49.00148" lon="7.68443">
        <ele>338.5</ele>
        <time>2026-03-10T09:46:52Z</time>
      </trkpt>
      <trkpt lat="49.00141" lon="7.6844">
        <ele>336.8</ele>
        <time>2026-03-10T09:46:57Z</time>
      </trkpt>
      <trkpt lat="49.00136" lon="7.68438">
        <ele>335.6</ele>
        <time>2026-03-10T09:47:02Z</time>
      </trkpt>
      <trkpt lat="49.0013" lon="7.68435">
        <ele>334.2</ele>
        <time>2026-03-10T09:47:07Z</time>
      </trkpt>
      <trkpt lat="49.00125" lon="7.68433">
        <ele>333</ele>
        <time>2026-03-10T09:47:12Z</time>
      </trkpt>
      <trkpt lat="49.0012" lon="7.68428">
        <ele>332.3</ele>
        <time>2026-03-10T09:47:17Z</time>
      </trkpt>
      <trkpt lat="49.00115" lon="7.68423">
        <ele>331.7</ele>
        <time>2026-03-10T09:47:22Z</time>
      </trkpt>
      <trkpt lat="49.00109" lon="7.68419">
        <ele>330.6</ele>
        <time>2026-03-10T09:47:27Z</time>
      </trkpt>
      <trkpt lat="49.00103" lon="7.68415">
        <ele>329.4</ele>
        <time>2026-03-10T09:47:32Z</time>
      </trkpt>
      <trkpt lat="49.00099" lon="7.68411">
        <ele>328.7</ele>
        <time>2026-03-10T09:47:37Z</time>
      </trkpt>
      <trkpt lat="49.00095" lon="7.68411">
        <ele>327.5</ele>
        <time>2026-03-10T09:47:42Z</time>
      </trkpt>
      <trkpt lat="49.00091" lon="7.68408">
        <ele>326.7</ele>
        <time>2026-03-10T09:47:47Z</time>
      </trkpt>
      <trkpt lat="49.00086" lon="7.68406">
        <ele>325.4</ele>
        <time>2026-03-10T09:47:52Z</time>
      </trkpt>
      <trkpt lat="49.00082" lon="7.68402">
        <ele>324.9</ele>
        <time>2026-03-10T09:47:57Z</time>
      </trkpt>
      <trkpt lat="49.00078" lon="7.68398">
        <ele>324.8</ele>
        <time>2026-03-10T09:48:02Z</time>
      </trkpt>
      <trkpt lat="49.00074" lon="7.68395">
        <ele>324.6</ele>
        <time>2026-03-10T09:48:07Z</time>
      </trkpt>
      <trkpt lat="49.0007" lon="7.68399">
        <ele>323.2</ele>
        <time>2026-03-10T09:48:12Z</time>
      </trkpt>
      <trkpt lat="49.00066" lon="7.68402">
        <ele>322</ele>
        <time>2026-03-10T09:48:17Z</time>
      </trkpt>
      <trkpt lat="49.00062" lon="7.68397">
        <ele>322.2</ele>
        <time>2026-03-10T09:48:22Z</time>
      </trkpt>
      <trkpt lat="49.00058" lon="7.68396">
        <ele>321.7</ele>
        <time>2026-03-10T09:48:27Z</time>
      </trkpt>
      <trkpt lat="49.00055" lon="7.68387">
        <ele>322.9</ele>
        <time>2026-03-10T09:48:32Z</time>
      </trkpt>
      <trkpt lat="49.00051" lon="7.68378">
        <ele>324.1</ele>
        <time>2026-03-10T09:48:37Z</time>
      </trkpt>
      <trkpt lat="49.00045" lon="7.68369">
        <ele>325.2</ele>
        <time>2026-03-10T09:48:42Z</time>
      </trkpt>
      <trkpt lat="49.00041" lon="7.6836">
        <ele>326.7</ele>
        <time>2026-03-10T09:48:47Z</time>
      </trkpt>
      <trkpt lat="49.00035" lon="7.68352">
        <ele>327.9</ele>
        <time>2026-03-10T09:48:52Z</time>
      </trkpt>
      <trkpt lat="49.0003" lon="7.68344">
        <ele>329.3</ele>
        <time>2026-03-10T09:48:57Z</time>
      </trkpt>
      <trkpt lat="49.00026" lon="7.68339">
        <ele>330.2</ele>
        <time>2026-03-10T09:49:02Z</time>
      </trkpt>
      <trkpt lat="49.00024" lon="7.6833">
        <ele>332.3</ele>
        <time>2026-03-10T09:49:07Z</time>
      </trkpt>
      <trkpt lat="49.00022" lon="7.6832">
        <ele>334.6</ele>
        <time>2026-03-10T09:49:12Z</time>
      </trkpt>
      <trkpt lat="49.0002" lon="7.68311">
        <ele>336.9</ele>
        <time>2026-03-10T09:49:17Z</time>
      </trkpt>
      <trkpt lat="49.00018" lon="7.683">
        <ele>339.7</ele>
        <time>2026-03-10T09:49:22Z</time>
      </trkpt>
      <trkpt lat="49.00014" lon="7.68289">
        <ele>342.7</ele>
        <time>2026-03-10T09:49:27Z</time>
      </trkpt>
      <trkpt lat="49.0001" lon="7.68278">
        <ele>345.9</ele>
        <time>2026-03-10T09:49:32Z</time>
      </trkpt>
      <trkpt lat="49.00005" lon="7.68267">
        <ele>349.4</ele>
        <time>2026-03-10T09:49:37Z</time>
      </trkpt>
      <trkpt lat="48.99999" lon="7.68256">
        <ele>353</ele>
        <time>2026-03-10T09:49:42Z</time>
      </trkpt>
      <trkpt lat="48.99994" lon="7.68246">
        <ele>354.3</ele>
        <time>2026-03-10T09:49:47Z</time>
      </trkpt>
      <trkpt lat="48.99991" lon="7.68238">
        <ele>354.4</ele>
        <time>2026-03-10T09:49:52Z</time>
      </trkpt>
      <trkpt lat="48.99987" lon="7.68228">
        <ele>354.6</ele>
        <time>2026-03-10T09:49:57Z</time>
      </trkpt>
      <trkpt lat="48.99986" lon="7.68217">
        <ele>355.4</ele>
        <time>2026-03-10T09:50:02Z</time>
      </trkpt>
      <trkpt lat="48.99983" lon="7.6821">
        <ele>355.6</ele>
        <time>2026-03-10T09:50:07Z</time>
      </trkpt>
      <trkpt lat="48.9998" lon="7.68204">
        <ele>355.7</ele>
        <time>2026-03-10T09:50:12Z</time>
      </trkpt>
      <trkpt lat="48.99978" lon="7.68197">
        <ele>356.1</ele>
        <time>2026-03-10T09:50:17Z</time>
      </trkpt>
      <trkpt lat="48.99974" lon="7.6819">
        <ele>356.3</ele>
        <time>2026-03-10T09:50:22Z</time>
      </trkpt>
      <trkpt lat="48.99973" lon="7.68185">
        <ele>356.7</ele>
        <time>2026-03-10T09:50:27Z</time>
      </trkpt>
      <trkpt lat="48.99973" lon="7.68181">
        <ele>357</ele>
        <time>2026-03-10T09:50:32Z</time>
      </trkpt>
      <trkpt lat="48.9997" lon="7.68174">
        <ele>357.4</ele>
        <time>2026-03-10T09:50:37Z</time>
      </trkpt>
      <trkpt lat="48.99967" lon="7.68168">
        <ele>357.7</ele>
        <time>2026-03-10T09:50:42Z</time>
      </trkpt>
      <trkpt lat="48.99964" lon="7.68161">
        <ele>356.7</ele>
        <time>2026-03-10T09:50:47Z</time>
      </trkpt>
      <trkpt lat="48.99961" lon="7.68155">
        <ele>355.6</ele>
        <time>2026-03-10T09:50:52Z</time>
      </trkpt>
      <trkpt lat="48.99957" lon="7.68148">
        <ele>354.3</ele>
        <time>2026-03-10T09:50:57Z</time>
      </trkpt>
      <trkpt lat="48.99954" lon="7.68142">
        <ele>353.3</ele>
        <time>2026-03-10T09:51:02Z</time>
      </trkpt>
      <trkpt lat="48.9995" lon="7.68137">
        <ele>352.4</ele>
        <time>2026-03-10T09:51:07Z</time>
      </trkpt>
      <trkpt lat="48.99944" lon="7.68131">
        <ele>351.4</ele>
        <time>2026-03-10T09:51:12Z</time>
      </trkpt>
      <trkpt lat="48.9994" lon="7.68124">
        <ele>350.4</ele>
        <time>2026-03-10T09:51:17Z</time>
      </trkpt>
      <trkpt lat="48.99936" lon="7.68117">
        <ele>349.4</ele>
        <time>2026-03-10T09:51:22Z</time>
      </trkpt>
      <trkpt lat="48.99932" lon="7.68112">
        <ele>348.8</ele>
        <time>2026-03-10T09:51:27Z</time>
      </trkpt>
      <trkpt lat="48.99927" lon="7.68109">
        <ele>348.4</ele>
        <time>2026-03-10T09:51:32Z</time>
      </trkpt>
      <trkpt lat="48.99924" lon="7.68114">
        <ele>348.8</ele>
        <time>2026-03-10T09:51:37Z</time>
      </trkpt>
      <trkpt lat="48.99923" lon="7.68116">
        <ele>348.9</ele>
        <time>2026-03-10T09:51:42Z</time>
      </trkpt>
      <trkpt lat="48.99918" lon="7.68114">
        <ele>348.6</ele>
        <time>2026-03-10T09:51:47Z</time>
      </trkpt>
      <trkpt lat="48.99912" lon="7.68108">
        <ele>346.8</ele>
        <time>2026-03-10T09:51:52Z</time>
      </trkpt>
      <trkpt lat="48.99909" lon="7.68099">
        <ele>345.4</ele>
        <time>2026-03-10T09:51:57Z</time>
      </trkpt>
      <trkpt lat="48.99905" lon="7.68093">
        <ele>343.9</ele>
        <time>2026-03-10T09:52:02Z</time>
      </trkpt>
      <trkpt lat="48.99901" lon="7.68091">
        <ele>342.8</ele>
        <time>2026-03-10T09:52:07Z</time>
      </trkpt>
      <trkpt lat="48.99895" lon="7.6809">
        <ele>341.2</ele>
        <time>2026-03-10T09:52:12Z</time>
      </trkpt>
      <trkpt lat="48.9989" lon="7.68089">
        <ele>339.9</ele>
        <time>2026-03-10T09:52:17Z</time>
      </trkpt>
      <trkpt lat="48.99884" lon="7.68086">
        <ele>338.3</ele>
        <time>2026-03-10T09:52:22Z</time>
      </trkpt>
      <trkpt lat="48.99879" lon="7.68085">
        <ele>337</ele>
        <time>2026-03-10T09:52:27Z</time>
      </trkpt>
      <trkpt lat="48.99875" lon="7.68084">
        <ele>336</ele>
        <time>2026-03-10T09:52:32Z</time>
      </trkpt>
      <trkpt lat="48.99871" lon="7.68084">
        <ele>335.1</ele>
        <time>2026-03-10T09:52:37Z</time>
      </trkpt>
      <trkpt lat="48.99866" lon="7.68082">
        <ele>333.7</ele>
        <time>2026-03-10T09:52:42Z</time>
      </trkpt>
      <trkpt lat="48.99862" lon="7.68078">
        <ele>332.2</ele>
        <time>2026-03-10T09:52:47Z</time>
      </trkpt>
      <trkpt lat="48.99859" lon="7.68074">
        <ele>331</ele>
        <time>2026-03-10T09:52:52Z</time>
      </trkpt>
      <trkpt lat="48.99856" lon="7.68073">
        <ele>330.2</ele>
        <time>2026-03-10T09:52:57Z</time>
      </trkpt>
      <trkpt lat="48.99856" lon="7.68081">
        <ele>331.2</ele>
        <time>2026-03-10T09:53:02Z</time>
      </trkpt>
      <trkpt lat="48.99858" lon="7.68088">
        <ele>332</ele>
        <time>2026-03-10T09:53:07Z</time>
      </trkpt>
      <trkpt lat="48.99858" lon="7.68088">
        <ele>332</ele>
        <time>2026-03-10T09:53:12Z</time>
      </trkpt>
      <trkpt lat="48.99859" lon="7.68102">
        <ele>332.6</ele>
        <time>2026-03-10T09:53:17Z</time>
      </trkpt>
      <trkpt lat="48.99859" lon="7.68102">
        <ele>332.6</ele>
        <time>2026-03-10T09:53:22Z</time>
      </trkpt>
      <trkpt lat="48.9985" lon="7.68101">
        <ele>330.3</ele>
        <time>2026-03-10T09:53:27Z</time>
      </trkpt>
      <trkpt lat="48.99846" lon="7.68101">
        <ele>329.3</ele>
        <time>2026-03-10T09:53:32Z</time>
      </trkpt>
      <trkpt lat="48.99841" lon="7.68101">
        <ele>328</ele>
        <time>2026-03-10T09:53:37Z</time>
      </trkpt>
      <trkpt lat="48.99836" lon="7.68098">
        <ele>326.7</ele>
        <time>2026-03-10T09:53:42Z</time>
      </trkpt>
      <trkpt lat="48.99831" lon="7.68097">
        <ele>325.8</ele>
        <time>2026-03-10T09:53:47Z</time>
      </trkpt>
      <trkpt lat="48.99826" lon="7.68097">
        <ele>325.4</ele>
        <time>2026-03-10T09:53:52Z</time>
      </trkpt>
      <trkpt lat="48.99822" lon="7.68096">
        <ele>325.1</ele>
        <time>2026-03-10T09:53:57Z</time>
      </trkpt>
      <trkpt lat="48.99817" lon="7.68097">
        <ele>324.7</ele>
        <time>2026-03-10T09:54:02Z</time>
      </trkpt>
      <trkpt lat="48.99815" lon="7.68096">
        <ele>324.6</ele>
        <time>2026-03-10T09:54:07Z</time>
      </trkpt>
      <trkpt lat="48.99811" lon="7.68096">
        <ele>324.3</ele>
        <time>2026-03-10T09:54:12Z</time>
      </trkpt>
      <trkpt lat="48.99806" lon="7.68095">
        <ele>324</ele>
        <time>2026-03-10T09:54:17Z</time>
      </trkpt>
      <trkpt lat="48.99803" lon="7.68097">
        <ele>323.6</ele>
        <time>2026-03-10T09:54:22Z</time>
      </trkpt>
      <trkpt lat="48.99801" lon="7.68099">
        <ele>323.4</ele>
        <time>2026-03-10T09:54:27Z</time>
      </trkpt>
      <trkpt lat="48.99798" lon="7.68101">
        <ele>323</ele>
        <time>2026-03-10T09:54:32Z</time>
      </trkpt>
      <trkpt lat="48.99795" lon="7.68099">
        <ele>322.9</ele>
        <time>2026-03-10T09:54:37Z</time>
      </trkpt>
      <trkpt lat="48.99795" lon="7.68094">
        <ele>323.3</ele>
        <time>2026-03-10T09:54:42Z</time>
      </trkpt>
      <trkpt lat="48.99797" lon="7.68092">
        <ele>323.6</ele>
        <time>2026-03-10T09:54:47Z</time>
      </trkpt>
      <trkpt lat="48.99797" lon="7.68092">
        <ele>323.6</ele>
        <time>2026-03-10T09:54:52Z</time>
      </trkpt>
      <trkpt lat="48.99808" lon="7.681">
        <ele>323.9</ele>
        <time>2026-03-10T09:54:57Z</time>
      </trkpt>
      <trkpt lat="48.99813" lon="7.68098">
        <ele>324.4</ele>
        <time>2026-03-10T09:55:02Z</time>
      </trkpt>
      <trkpt lat="48.99815" lon="7.68103">
        <ele>324.3</ele>
        <time>2026-03-10T09:55:07Z</time>
      </trkpt>
      <trkpt lat="48.99818" lon="7.68104">
        <ele>324.6</ele>
        <time>2026-03-10T09:55:12Z</time>
      </trkpt>
      <trkpt lat="48.99818" lon="7.68104">
        <ele>324.6</ele>
        <time>2026-03-10T09:55:17Z</time>
      </trkpt>
      <trkpt lat="48.99823" lon="7.68098">
        <ele>325.2</ele>
        <time>2026-03-10T09:55:22Z</time>
      </trkpt>
      <trkpt lat="48.99828" lon="7.68095">
        <ele>325.6</ele>
        <time>2026-03-10T09:55:27Z</time>
      </trkpt>
      <trkpt lat="48.99835" lon="7.68093">
        <ele>326.4</ele>
        <time>2026-03-10T09:55:32Z</time>
      </trkpt>
      <trkpt lat="48.99839" lon="7.68094">
        <ele>327.4</ele>
        <time>2026-03-10T09:55:37Z</time>
      </trkpt>
      <trkpt lat="48.99846" lon="7.68096">
        <ele>329.2</ele>
        <time>2026-03-10T09:55:42Z</time>
      </trkpt>
      <trkpt lat="48.99852" lon="7.68095">
        <ele>330.7</ele>
        <time>2026-03-10T09:55:47Z</time>
      </trkpt>
      <trkpt lat="48.99858" lon="7.68094">
        <ele>332.2</ele>
        <time>2026-03-10T09:55:52Z</time>
      </trkpt>
      <trkpt lat="48.99864" lon="7.68093">
        <ele>333.7</ele>
        <time>2026-03-10T09:55:57Z</time>
      </trkpt>
      <trkpt lat="48.99869" lon="7.68087">
        <ele>334.7</ele>
        <time>2026-03-10T09:56:02Z</time>
      </trkpt>
      <trkpt lat="48.99866" lon="7.68081">
        <ele>333.5</ele>
        <time>2026-03-10T09:56:07Z</time>
      </trkpt>
      <trkpt lat="48.99864" lon="7.6807">
        <ele>331.6</ele>
        <time>2026-03-10T09:56:12Z</time>
      </trkpt>
      <trkpt lat="48.99859" lon="7.6807">
        <ele>330.5</ele>
        <time>2026-03-10T09:56:17Z</time>
      </trkpt>
      <trkpt lat="48.99856" lon="7.6807">
        <ele>329.8</ele>
        <time>2026-03-10T09:56:22Z</time>
      </trkpt>
      <trkpt lat="48.99854" lon="7.68062">
        <ele>328.5</ele>
        <time>2026-03-10T09:56:27Z</time>
      </trkpt>
      <trkpt lat="48.99849" lon="7.6806">
        <ele>327.2</ele>
        <time>2026-03-10T09:56:32Z</time>
      </trkpt>
      <trkpt lat="48.99849" lon="7.6806">
        <ele>327.2</ele>
        <time>2026-03-10T09:56:37Z</time>
      </trkpt>
      <trkpt lat="48.99849" lon="7.6806">
        <ele>327.2</ele>
        <time>2026-03-10T09:56:42Z</time>
      </trkpt>
      <trkpt lat="48.99843" lon="7.68063">
        <ele>326.3</ele>
        <time>2026-03-10T09:56:47Z</time>
      </trkpt>
      <trkpt lat="48.99837" lon="7.6806">
        <ele>324.8</ele>
        <time>2026-03-10T09:56:52Z</time>
      </trkpt>
      <trkpt lat="48.99835" lon="7.6806">
        <ele>324.4</ele>
        <time>2026-03-10T09:56:57Z</time>
      </trkpt>
      <trkpt lat="48.99833" lon="7.68061">
        <ele>324.1</ele>
        <time>2026-03-10T09:57:02Z</time>
      </trkpt>
      <trkpt lat="48.99831" lon="7.68059">
        <ele>324</ele>
        <time>2026-03-10T09:57:07Z</time>
      </trkpt>
      <trkpt lat="48.99826" lon="7.68057">
        <ele>324</ele>
        <time>2026-03-10T09:57:12Z</time>
      </trkpt>
      <trkpt lat="48.9982" lon="7.68055">
        <ele>324.2</ele>
        <time>2026-03-10T09:57:17Z</time>
      </trkpt>
      <trkpt lat="48.99816" lon="7.68055">
        <ele>324.3</ele>
        <time>2026-03-10T09:57:22Z</time>
      </trkpt>
      <trkpt lat="48.99809" lon="7.68051">
        <ele>324.6</ele>
        <time>2026-03-10T09:57:27Z</time>
      </trkpt>
      <trkpt lat="48.99806" lon="7.6805">
        <ele>324.8</ele>
        <time>2026-03-10T09:57:32Z</time>
      </trkpt>
      <trkpt lat="48.99802" lon="7.68047">
        <ele>325.1</ele>
        <time>2026-03-10T09:57:37Z</time>
      </trkpt>
      <trkpt lat="48.99794" lon="7.68044">
        <ele>325.7</ele>
        <time>2026-03-10T09:57:42Z</time>
      </trkpt>
      <trkpt lat="48.99785" lon="7.68046">
        <ele>326.3</ele>
        <time>2026-03-10T09:57:47Z</time>
      </trkpt>
      <trkpt lat="48.99779" lon="7.68049">
        <ele>326.4</ele>
        <time>2026-03-10T09:57:52Z</time>
      </trkpt>
      <trkpt lat="48.99774" lon="7.68054">
        <ele>326.2</ele>
        <time>2026-03-10T09:57:57Z</time>
      </trkpt>
      <trkpt lat="48.99769" lon="7.68061">
        <ele>325.6</ele>
        <time>2026-03-10T09:58:02Z</time>
      </trkpt>
      <trkpt lat="48.99764" lon="7.68068">
        <ele>324.8</ele>
        <time>2026-03-10T09:58:07Z</time>
      </trkpt>
      <trkpt lat="48.9976" lon="7.68074">
        <ele>323.9</ele>
        <time>2026-03-10T09:58:12Z</time>
      </trkpt>
      <trkpt lat="48.99755" lon="7.68081">
        <ele>322.6</ele>
        <time>2026-03-10T09:58:17Z</time>
      </trkpt>
      <trkpt lat="48.99751" lon="7.68088">
        <ele>321.2</ele>
        <time>2026-03-10T09:58:22Z</time>
      </trkpt>
      <trkpt lat="48.99744" lon="7.68091">
        <ele>321.4</ele>
        <time>2026-03-10T09:58:27Z</time>
      </trkpt>
      <trkpt lat="48.99742" lon="7.68089">
        <ele>322.1</ele>
        <time>2026-03-10T09:58:32Z</time>
      </trkpt>
      <trkpt lat="48.99741" lon="7.68085">
        <ele>323</ele>
        <time>2026-03-10T09:58:37Z</time>
      </trkpt>
      <trkpt lat="48.99741" lon="7.68085">
        <ele>323</ele>
        <time>2026-03-10T09:58:42Z</time>
      </trkpt>
      <trkpt lat="48.99741" lon="7.68085">
        <ele>323</ele>
        <time>2026-03-10T09:58:47Z</time>
      </trkpt>
      <trkpt lat="48.99741" lon="7.68085">
        <ele>323</ele>
        <time>2026-03-10T09:58:52Z</time>
      </trkpt>
      <trkpt lat="48.99741" lon="7.68085">
        <ele>323</ele>
        <time>2026-03-10T09:58:57Z</time>
      </trkpt>
      <trkpt lat="48.99741" lon="7.68085">
        <ele>323</ele>
        <time>2026-03-10T09:59:02Z</time>
      </trkpt>
      <trkpt lat="48.99741" lon="7.68085">
        <ele>323</ele>
        <time>2026-03-10T09:59:07Z</time>
      </trkpt>
      <trkpt lat="48.99741" lon="7.68085">
        <ele>323</ele>
        <time>2026-03-10T09:59:12Z</time>
      </trkpt>
      <trkpt lat="48.99741" lon="7.68085">
        <ele>323</ele>
        <time>2026-03-10T09:59:17Z</time>
      </trkpt>
      <trkpt lat="48.99741" lon="7.68085">
        <ele>323</ele>
        <time>2026-03-10T09:59:22Z</time>
      </trkpt>
      <trkpt lat="48.99736" lon="7.68086">
        <ele>323.5</ele>
        <time>2026-03-10T09:59:27Z</time>
      </trkpt>
      <trkpt lat="48.99729" lon="7.68087">
        <ele>324.3</ele>
        <time>2026-03-10T09:59:32Z</time>
      </trkpt>
      <trkpt lat="48.99723" lon="7.68087">
        <ele>325.1</ele>
        <time>2026-03-10T09:59:37Z</time>
      </trkpt>
      <trkpt lat="48.99717" lon="7.68088">
        <ele>325.7</ele>
        <time>2026-03-10T09:59:42Z</time>
      </trkpt>
      <trkpt lat="48.99712" lon="7.68091">
        <ele>325.7</ele>
        <time>2026-03-10T09:59:47Z</time>
      </trkpt>
      <trkpt lat="48.99708" lon="7.68089">
        <ele>326.7</ele>
        <time>2026-03-10T09:59:52Z</time>
      </trkpt>
      <trkpt lat="48.99703" lon="7.6808">
        <ele>329.5</ele>
        <time>2026-03-10T09:59:57Z</time>
      </trkpt>
      <trkpt lat="48.997" lon="7.68071">
        <ele>332.1</ele>
        <time>2026-03-10T10:00:02Z</time>
      </trkpt>
      <trkpt lat="48.99696" lon="7.68067">
        <ele>333.7</ele>
        <time>2026-03-10T10:00:07Z</time>
      </trkpt>
      <trkpt lat="48.9969" lon="7.68062">
        <ele>336</ele>
        <time>2026-03-10T10:00:12Z</time>
      </trkpt>
      <trkpt lat="48.99684" lon="7.68061">
        <ele>337.2</ele>
        <time>2026-03-10T10:00:17Z</time>
      </trkpt>
      <trkpt lat="48.99681" lon="7.6806">
        <ele>338</ele>
        <time>2026-03-10T10:00:22Z</time>
      </trkpt>
      <trkpt lat="48.99678" lon="7.68055">
        <ele>339.8</ele>
        <time>2026-03-10T10:00:27Z</time>
      </trkpt>
      <trkpt lat="48.99677" lon="7.68056">
        <ele>339.7</ele>
        <time>2026-03-10T10:00:32Z</time>
      </trkpt>
      <trkpt lat="48.99675" lon="7.68058">
        <ele>339.5</ele>
        <time>2026-03-10T10:00:37Z</time>
      </trkpt>
      <trkpt lat="48.99672" lon="7.68058">
        <ele>340.1</ele>
        <time>2026-03-10T10:00:42Z</time>
      </trkpt>
      <trkpt lat="48.99672" lon="7.68062">
        <ele>339</ele>
        <time>2026-03-10T10:00:47Z</time>
      </trkpt>
      <trkpt lat="48.99672" lon="7.68062">
        <ele>339</ele>
        <time>2026-03-10T10:00:52Z</time>
      </trkpt>
      <trkpt lat="48.99672" lon="7.68062">
        <ele>339</ele>
        <time>2026-03-10T10:00:57Z</time>
      </trkpt>
      <trkpt lat="48.99672" lon="7.68062">
        <ele>339</ele>
        <time>2026-03-10T10:01:02Z</time>
      </trkpt>
      <trkpt lat="48.99672" lon="7.68062">
        <ele>339</ele>
        <time>2026-03-10T10:01:07Z</time>
      </trkpt>
      <trkpt lat="48.99672" lon="7.68062">
        <ele>339</ele>
        <time>2026-03-10T10:01:12Z</time>
      </trkpt>
      <trkpt lat="48.99672" lon="7.68062">
        <ele>339</ele>
        <time>2026-03-10T10:01:17Z</time>
      </trkpt>
      <trkpt lat="48.99672" lon="7.68062">
        <ele>339</ele>
        <time>2026-03-10T10:01:22Z</time>
      </trkpt>
      <trkpt lat="48.99672" lon="7.68062">
        <ele>339</ele>
        <time>2026-03-10T10:01:27Z</time>
      </trkpt>
      <trkpt lat="48.99672" lon="7.68062">
        <ele>339</ele>
        <time>2026-03-10T10:01:32Z</time>
      </trkpt>
      <trkpt lat="48.99672" lon="7.68062">
        <ele>339</ele>
        <time>2026-03-10T10:01:37Z</time>
      </trkpt>
      <trkpt lat="48.99667" lon="7.68063">
        <ele>339.6</ele>
        <time>2026-03-10T10:01:42Z</time>
      </trkpt>
      <trkpt lat="48.99664" lon="7.68063">
        <ele>339.3</ele>
        <time>2026-03-10T10:01:47Z</time>
      </trkpt>
      <trkpt lat="48.9966" lon="7.68064">
        <ele>338.6</ele>
        <time>2026-03-10T10:01:52Z</time>
      </trkpt>
      <trkpt lat="48.99657" lon="7.68063">
        <ele>338.5</ele>
        <time>2026-03-10T10:01:57Z</time>
      </trkpt>
      <trkpt lat="48.99649" lon="7.68062">
        <ele>337.9</ele>
        <time>2026-03-10T10:02:02Z</time>
      </trkpt>
      <trkpt lat="48.99644" lon="7.68063">
        <ele>337</ele>
        <time>2026-03-10T10:02:07Z</time>
      </trkpt>
      <trkpt lat="48.99638" lon="7.68062">
        <ele>336.6</ele>
        <time>2026-03-10T10:02:12Z</time>
      </trkpt>
      <trkpt lat="48.99634" lon="7.68061">
        <ele>336.5</ele>
        <time>2026-03-10T10:02:17Z</time>
      </trkpt>
      <trkpt lat="48.99631" lon="7.6806">
        <ele>336.4</ele>
        <time>2026-03-10T10:02:22Z</time>
      </trkpt>
      <trkpt lat="48.99628" lon="7.68058">
        <ele>336.6</ele>
        <time>2026-03-10T10:02:27Z</time>
      </trkpt>
      <trkpt lat="48.99626" lon="7.68056">
        <ele>337</ele>
        <time>2026-03-10T10:02:32Z</time>
      </trkpt>
      <trkpt lat="48.99622" lon="7.68056">
        <ele>336.5</ele>
        <time>2026-03-10T10:02:37Z</time>
      </trkpt>
      <trkpt lat="48.99619" lon="7.68053">
        <ele>337.1</ele>
        <time>2026-03-10T10:02:42Z</time>
      </trkpt>
      <trkpt lat="48.99615" lon="7.68049">
        <ele>337.8</ele>
        <time>2026-03-10T10:02:47Z</time>
      </trkpt>
      <trkpt lat="48.9961" lon="7.68049">
        <ele>337.2</ele>
        <time>2026-03-10T10:02:52Z</time>
      </trkpt>
      <trkpt lat="48.99608" lon="7.68047">
        <ele>337.6</ele>
        <time>2026-03-10T10:02:57Z</time>
      </trkpt>
      <trkpt lat="48.99606" lon="7.68046">
        <ele>337.7</ele>
        <time>2026-03-10T10:03:02Z</time>
      </trkpt>
      <trkpt lat="48.99605" lon="7.68043">
        <ele>338.4</ele>
        <time>2026-03-10T10:03:07Z</time>
      </trkpt>
      <trkpt lat="48.99605" lon="7.68042">
        <ele>338.7</ele>
        <time>2026-03-10T10:03:12Z</time>
      </trkpt>
      <trkpt lat="48.99605" lon="7.68042">
        <ele>338.7</ele>
        <time>2026-03-10T10:03:17Z</time>
      </trkpt>
      <trkpt lat="48.99605" lon="7.68042">
        <ele>338.7</ele>
        <time>2026-03-10T10:03:22Z</time>
      </trkpt>
      <trkpt lat="48.99605" lon="7.68042">
        <ele>338.7</ele>
        <time>2026-03-10T10:03:27Z</time>
      </trkpt>
      <trkpt lat="48.99597" lon="7.68029">
        <ele>341.7</ele>
        <time>2026-03-10T10:03:32Z</time>
      </trkpt>
      <trkpt lat="48.99598" lon="7.68025">
        <ele>343</ele>
        <time>2026-03-10T10:03:37Z</time>
      </trkpt>
      <trkpt lat="48.996" lon="7.68025">
        <ele>343.2</ele>
        <time>2026-03-10T10:03:42Z</time>
      </trkpt>
      <trkpt lat="48.99608" lon="7.68032">
        <ele>342</ele>
        <time>2026-03-10T10:03:47Z</time>
      </trkpt>
      <trkpt lat="48.99613" lon="7.68039">
        <ele>340.5</ele>
        <time>2026-03-10T10:03:52Z</time>
      </trkpt>
      <trkpt lat="48.99619" lon="7.68042">
        <ele>340.3</ele>
        <time>2026-03-10T10:03:57Z</time>
      </trkpt>
      <trkpt lat="48.99624" lon="7.68042">
        <ele>340.8</ele>
        <time>2026-03-10T10:04:02Z</time>
      </trkpt>
      <trkpt lat="48.99626" lon="7.68042">
        <ele>341</ele>
        <time>2026-03-10T10:04:07Z</time>
      </trkpt>
      <trkpt lat="48.99627" lon="7.68042">
        <ele>341.1</ele>
        <time>2026-03-10T10:04:12Z</time>
      </trkpt>
      <trkpt lat="48.99627" lon="7.68042">
        <ele>341.1</ele>
        <time>2026-03-10T10:04:17Z</time>
      </trkpt>
      <trkpt lat="48.99627" lon="7.68042">
        <ele>341.1</ele>
        <time>2026-03-10T10:04:22Z</time>
      </trkpt>
      <trkpt lat="48.99627" lon="7.68042">
        <ele>341.1</ele>
        <time>2026-03-10T10:04:27Z</time>
      </trkpt>
      <trkpt lat="48.99627" lon="7.68042">
        <ele>341.1</ele>
        <time>2026-03-10T10:04:32Z</time>
      </trkpt>
      <trkpt lat="48.99634" lon="7.68031">
        <ele>345</ele>
        <time>2026-03-10T10:04:37Z</time>
      </trkpt>
      <trkpt lat="48.99639" lon="7.68026">
        <ele>347</ele>
        <time>2026-03-10T10:04:42Z</time>
      </trkpt>
      <trkpt lat="48.9964" lon="7.6802">
        <ele>348.8</ele>
        <time>2026-03-10T10:04:47Z</time>
      </trkpt>
      <trkpt lat="48.99643" lon="7.68015">
        <ele>350.5</ele>
        <time>2026-03-10T10:04:52Z</time>
      </trkpt>
      <trkpt lat="48.99643" lon="7.68008">
        <ele>352.5</ele>
        <time>2026-03-10T10:04:57Z</time>
      </trkpt>
      <trkpt lat="48.99643" lon="7.68002">
        <ele>354.2</ele>
        <time>2026-03-10T10:05:02Z</time>
      </trkpt>
      <trkpt lat="48.99642" lon="7.68001">
        <ele>354.3</ele>
        <time>2026-03-10T10:05:07Z</time>
      </trkpt>
      <trkpt lat="48.99639" lon="7.68006">
        <ele>352.6</ele>
        <time>2026-03-10T10:05:12Z</time>
      </trkpt>
      <trkpt lat="48.99635" lon="7.68011">
        <ele>350.8</ele>
        <time>2026-03-10T10:05:17Z</time>
      </trkpt>
      <trkpt lat="48.99632" lon="7.68015">
        <ele>349.4</ele>
        <time>2026-03-10T10:05:22Z</time>
      </trkpt>
      <trkpt lat="48.99628" lon="7.68017">
        <ele>348.4</ele>
        <time>2026-03-10T10:05:27Z</time>
      </trkpt>
      <trkpt lat="48.99624" lon="7.68018">
        <ele>347.7</ele>
        <time>2026-03-10T10:05:32Z</time>
      </trkpt>
      <trkpt lat="48.99619" lon="7.68018">
        <ele>347.2</ele>
        <time>2026-03-10T10:05:37Z</time>
      </trkpt>
      <trkpt lat="48.99615" lon="7.68016">
        <ele>347.4</ele>
        <time>2026-03-10T10:05:42Z</time>
      </trkpt>
      <trkpt lat="48.99611" lon="7.68014">
        <ele>347.6</ele>
        <time>2026-03-10T10:05:47Z</time>
      </trkpt>
      <trkpt lat="48.99611" lon="7.6801">
        <ele>348.7</ele>
        <time>2026-03-10T10:05:52Z</time>
      </trkpt>
      <trkpt lat="48.99611" lon="7.6801">
        <ele>348.7</ele>
        <time>2026-03-10T10:05:57Z</time>
      </trkpt>
      <trkpt lat="48.99611" lon="7.6801">
        <ele>348.7</ele>
        <time>2026-03-10T10:06:02Z</time>
      </trkpt>
      <trkpt lat="48.99611" lon="7.6801">
        <ele>348.7</ele>
        <time>2026-03-10T10:06:07Z</time>
      </trkpt>
      <trkpt lat="48.99611" lon="7.6801">
        <ele>348.7</ele>
        <time>2026-03-10T10:06:12Z</time>
      </trkpt>
      <trkpt lat="48.99611" lon="7.6801">
        <ele>348.7</ele>
        <time>2026-03-10T10:06:17Z</time>
      </trkpt>
      <trkpt lat="48.99611" lon="7.6801">
        <ele>348.7</ele>
        <time>2026-03-10T10:06:22Z</time>
      </trkpt>
      <trkpt lat="48.99611" lon="7.6801">
        <ele>348.7</ele>
        <time>2026-03-10T10:06:27Z</time>
      </trkpt>
      <trkpt lat="48.99611" lon="7.6801">
        <ele>348.7</ele>
        <time>2026-03-10T10:06:32Z</time>
      </trkpt>
      <trkpt lat="48.99611" lon="7.6801">
        <ele>348.7</ele>
        <time>2026-03-10T10:06:37Z</time>
      </trkpt>
      <trkpt lat="48.99611" lon="7.6801">
        <ele>348.7</ele>
        <time>2026-03-10T10:06:42Z</time>
      </trkpt>
      <trkpt lat="48.99611" lon="7.6801">
        <ele>348.7</ele>
        <time>2026-03-10T10:06:47Z</time>
      </trkpt>
      <trkpt lat="48.99611" lon="7.6801">
        <ele>348.7</ele>
        <time>2026-03-10T10:06:52Z</time>
      </trkpt>
      <trkpt lat="48.99611" lon="7.6801">
        <ele>348.7</ele>
        <time>2026-03-10T10:06:57Z</time>
      </trkpt>
      <trkpt lat="48.99611" lon="7.6801">
        <ele>348.7</ele>
        <time>2026-03-10T10:07:02Z</time>
      </trkpt>
      <trkpt lat="48.99611" lon="7.6801">
        <ele>348.7</ele>
        <time>2026-03-10T10:07:07Z</time>
      </trkpt>
      <trkpt lat="48.99611" lon="7.6801">
        <ele>348.7</ele>
        <time>2026-03-10T10:07:12Z</time>
      </trkpt>
      <trkpt lat="48.99611" lon="7.6801">
        <ele>348.7</ele>
        <time>2026-03-10T10:07:17Z</time>
      </trkpt>
      <trkpt lat="48.99611" lon="7.6801">
        <ele>348.7</ele>
        <time>2026-03-10T10:07:22Z</time>
      </trkpt>
      <trkpt lat="48.99611" lon="7.6801">
        <ele>348.7</ele>
        <time>2026-03-10T10:07:27Z</time>
      </trkpt>
      <trkpt lat="48.99611" lon="7.6801">
        <ele>348.7</ele>
        <time>2026-03-10T10:07:32Z</time>
      </trkpt>
      <trkpt lat="48.99611" lon="7.6801">
        <ele>348.7</ele>
        <time>2026-03-10T10:07:37Z</time>
      </trkpt>
      <trkpt lat="48.99611" lon="7.6801">
        <ele>348.7</ele>
        <time>2026-03-10T10:07:42Z</time>
      </trkpt>
      <trkpt lat="48.99611" lon="7.6801">
        <ele>348.7</ele>
        <time>2026-03-10T10:07:47Z</time>
      </trkpt>
      <trkpt lat="48.99611" lon="7.6801">
        <ele>348.7</ele>
        <time>2026-03-10T10:07:52Z</time>
      </trkpt>
      <trkpt lat="48.99611" lon="7.6801">
        <ele>348.7</ele>
        <time>2026-03-10T10:07:57Z</time>
      </trkpt>
      <trkpt lat="48.99611" lon="7.6801">
        <ele>348.7</ele>
        <time>2026-03-10T10:08:02Z</time>
      </trkpt>
      <trkpt lat="48.99611" lon="7.6801">
        <ele>348.7</ele>
        <time>2026-03-10T10:08:07Z</time>
      </trkpt>
      <trkpt lat="48.99611" lon="7.6801">
        <ele>348.7</ele>
        <time>2026-03-10T10:08:12Z</time>
      </trkpt>
      <trkpt lat="48.99611" lon="7.6801">
        <ele>348.7</ele>
        <time>2026-03-10T10:08:17Z</time>
      </trkpt>
      <trkpt lat="48.99611" lon="7.6801">
        <ele>348.7</ele>
        <time>2026-03-10T10:08:22Z</time>
      </trkpt>
      <trkpt lat="48.99611" lon="7.6801">
        <ele>348.7</ele>
        <time>2026-03-10T10:08:27Z</time>
      </trkpt>
      <trkpt lat="48.99611" lon="7.6801">
        <ele>348.7</ele>
        <time>2026-03-10T10:08:32Z</time>
      </trkpt>
      <trkpt lat="48.99611" lon="7.6801">
        <ele>348.7</ele>
        <time>2026-03-10T10:08:37Z</time>
      </trkpt>
      <trkpt lat="48.99611" lon="7.6801">
        <ele>348.7</ele>
        <time>2026-03-10T10:08:42Z</time>
      </trkpt>
      <trkpt lat="48.99611" lon="7.6801">
        <ele>348.7</ele>
        <time>2026-03-10T10:08:47Z</time>
      </trkpt>
      <trkpt lat="48.99621" lon="7.68006">
        <ele>350.9</ele>
        <time>2026-03-10T10:08:52Z</time>
      </trkpt>
      <trkpt lat="48.99621" lon="7.68005">
        <ele>351.2</ele>
        <time>2026-03-10T10:08:57Z</time>
      </trkpt>
      <trkpt lat="48.99621" lon="7.68005">
        <ele>351.2</ele>
        <time>2026-03-10T10:09:02Z</time>
      </trkpt>
      <trkpt lat="48.99615" lon="7.68001">
        <ele>351.7</ele>
        <time>2026-03-10T10:09:07Z</time>
      </trkpt>
      <trkpt lat="48.9961" lon="7.68">
        <ele>351.6</ele>
        <time>2026-03-10T10:09:12Z</time>
      </trkpt>
      <trkpt lat="48.99606" lon="7.67998">
        <ele>351.5</ele>
        <time>2026-03-10T10:09:17Z</time>
      </trkpt>
      <trkpt lat="48.99607" lon="7.67996">
        <ele>352</ele>
        <time>2026-03-10T10:09:22Z</time>
      </trkpt>
      <trkpt lat="48.99607" lon="7.67996">
        <ele>352</ele>
        <time>2026-03-10T10:09:27Z</time>
      </trkpt>
      <trkpt lat="48.99613" lon="7.67994">
        <ele>352.9</ele>
        <time>2026-03-10T10:09:32Z</time>
      </trkpt>
      <trkpt lat="48.99616" lon="7.67993">
        <ele>353.3</ele>
        <time>2026-03-10T10:09:37Z</time>
      </trkpt>
      <trkpt lat="48.9962" lon="7.67992">
        <ele>353.8</ele>
        <time>2026-03-10T10:09:42Z</time>
      </trkpt>
      <trkpt lat="48.99623" lon="7.6799">
        <ele>354.4</ele>
        <time>2026-03-10T10:09:47Z</time>
      </trkpt>
      <trkpt lat="48.99625" lon="7.67987">
        <ele>355</ele>
        <time>2026-03-10T10:09:52Z</time>
      </trkpt>
      <trkpt lat="48.99624" lon="7.67982">
        <ele>355.7</ele>
        <time>2026-03-10T10:09:57Z</time>
      </trkpt>
      <trkpt lat="48.99624" lon="7.67982">
        <ele>355.7</ele>
        <time>2026-03-10T10:10:02Z</time>
      </trkpt>
      <trkpt lat="48.99624" lon="7.67982">
        <ele>355.7</ele>
        <time>2026-03-10T10:10:07Z</time>
      </trkpt>
      <trkpt lat="48.9962" lon="7.67977">
        <ele>356.3</ele>
        <time>2026-03-10T10:10:12Z</time>
      </trkpt>
      <trkpt lat="48.99616" lon="7.67974">
        <ele>356.5</ele>
        <time>2026-03-10T10:10:17Z</time>
      </trkpt>
      <trkpt lat="48.99613" lon="7.67971">
        <ele>356.9</ele>
        <time>2026-03-10T10:10:22Z</time>
      </trkpt>
      <trkpt lat="48.99611" lon="7.67968">
        <ele>357.3</ele>
        <time>2026-03-10T10:10:27Z</time>
      </trkpt>
      <trkpt lat="48.99609" lon="7.67963">
        <ele>358.1</ele>
        <time>2026-03-10T10:10:32Z</time>
      </trkpt>
      <trkpt lat="48.99608" lon="7.67957">
        <ele>359.1</ele>
        <time>2026-03-10T10:10:37Z</time>
      </trkpt>
      <trkpt lat="48.99606" lon="7.67951">
        <ele>360.2</ele>
        <time>2026-03-10T10:10:42Z</time>
      </trkpt>
      <trkpt lat="48.99603" lon="7.67944">
        <ele>361.4</ele>
        <time>2026-03-10T10:10:47Z</time>
      </trkpt>
      <trkpt lat="48.99598" lon="7.67938">
        <ele>362.5</ele>
        <time>2026-03-10T10:10:52Z</time>
      </trkpt>
      <trkpt lat="48.99594" lon="7.67931">
        <ele>363.9</ele>
        <time>2026-03-10T10:10:57Z</time>
      </trkpt>
      <trkpt lat="48.9959" lon="7.67925">
        <ele>365.1</ele>
        <time>2026-03-10T10:11:02Z</time>
      </trkpt>
      <trkpt lat="48.99584" lon="7.67918">
        <ele>366.7</ele>
        <time>2026-03-10T10:11:07Z</time>
      </trkpt>
      <trkpt lat="48.99578" lon="7.67914">
        <ele>366.6</ele>
        <time>2026-03-10T10:11:12Z</time>
      </trkpt>
      <trkpt lat="48.99573" lon="7.6791">
        <ele>366.2</ele>
        <time>2026-03-10T10:11:17Z</time>
      </trkpt>
      <trkpt lat="48.99568" lon="7.67904">
        <ele>365.7</ele>
        <time>2026-03-10T10:11:22Z</time>
      </trkpt>
      <trkpt lat="48.99563" lon="7.67897">
        <ele>365.3</ele>
        <time>2026-03-10T10:11:27Z</time>
      </trkpt>
      <trkpt lat="48.99557" lon="7.67892">
        <ele>365.1</ele>
        <time>2026-03-10T10:11:32Z</time>
      </trkpt>
      <trkpt lat="48.9955" lon="7.67888">
        <ele>365</ele>
        <time>2026-03-10T10:11:37Z</time>
      </trkpt>
      <trkpt lat="48.99544" lon="7.67886">
        <ele>365.1</ele>
        <time>2026-03-10T10:11:42Z</time>
      </trkpt>
      <trkpt lat="48.99538" lon="7.67882">
        <ele>365.2</ele>
        <time>2026-03-10T10:11:47Z</time>
      </trkpt>
      <trkpt lat="48.99532" lon="7.67879">
        <ele>365.3</ele>
        <time>2026-03-10T10:11:52Z</time>
      </trkpt>
      <trkpt lat="48.99527" lon="7.67878">
        <ele>365.5</ele>
        <time>2026-03-10T10:11:57Z</time>
      </trkpt>
      <trkpt lat="48.99521" lon="7.67874">
        <ele>365.8</ele>
        <time>2026-03-10T10:12:02Z</time>
      </trkpt>
      <trkpt lat="48.99516" lon="7.6787">
        <ele>366.1</ele>
        <time>2026-03-10T10:12:07Z</time>
      </trkpt>
      <trkpt lat="48.9951" lon="7.67868">
        <ele>366.4</ele>
        <time>2026-03-10T10:12:12Z</time>
      </trkpt>
      <trkpt lat="48.99505" lon="7.67866">
        <ele>366.8</ele>
        <time>2026-03-10T10:12:17Z</time>
      </trkpt>
      <trkpt lat="48.99499" lon="7.67864">
        <ele>367</ele>
        <time>2026-03-10T10:12:22Z</time>
      </trkpt>
      <trkpt lat="48.99497" lon="7.67863">
        <ele>366.6</ele>
        <time>2026-03-10T10:12:27Z</time>
      </trkpt>
      <trkpt lat="48.99497" lon="7.67863">
        <ele>366.6</ele>
        <time>2026-03-10T10:12:32Z</time>
      </trkpt>
      <trkpt lat="48.99497" lon="7.67863">
        <ele>366.6</ele>
        <time>2026-03-10T10:12:37Z</time>
      </trkpt>
      <trkpt lat="48.99497" lon="7.67863">
        <ele>366.6</ele>
        <time>2026-03-10T10:12:42Z</time>
      </trkpt>
      <trkpt lat="48.99497" lon="7.67863">
        <ele>366.6</ele>
        <time>2026-03-10T10:12:47Z</time>
      </trkpt>
      <trkpt lat="48.99493" lon="7.67857">
        <ele>366.2</ele>
        <time>2026-03-10T10:12:52Z</time>
      </trkpt>
      <trkpt lat="48.99488" lon="7.67852">
        <ele>365.5</ele>
        <time>2026-03-10T10:12:57Z</time>
      </trkpt>
      <trkpt lat="48.99483" lon="7.67851">
        <ele>364.6</ele>
        <time>2026-03-10T10:13:02Z</time>
      </trkpt>
      <trkpt lat="48.99478" lon="7.6785">
        <ele>363.7</ele>
        <time>2026-03-10T10:13:07Z</time>
      </trkpt>
      <trkpt lat="48.99473" lon="7.67848">
        <ele>362.8</ele>
        <time>2026-03-10T10:13:12Z</time>
      </trkpt>
      <trkpt lat="48.99468" lon="7.67847">
        <ele>361.8</ele>
        <time>2026-03-10T10:13:17Z</time>
      </trkpt>
      <trkpt lat="48.99463" lon="7.67845">
        <ele>360.9</ele>
        <time>2026-03-10T10:13:22Z</time>
      </trkpt>
      <trkpt lat="48.99461" lon="7.67847">
        <ele>360.5</ele>
        <time>2026-03-10T10:13:27Z</time>
      </trkpt>
      <trkpt lat="48.99457" lon="7.67848">
        <ele>359.6</ele>
        <time>2026-03-10T10:13:32Z</time>
      </trkpt>
      <trkpt lat="48.99451" lon="7.67846">
        <ele>358.5</ele>
        <time>2026-03-10T10:13:37Z</time>
      </trkpt>
      <trkpt lat="48.99444" lon="7.67844">
        <ele>357.2</ele>
        <time>2026-03-10T10:13:42Z</time>
      </trkpt>
      <trkpt lat="48.99438" lon="7.67845">
        <ele>356</ele>
        <time>2026-03-10T10:13:47Z</time>
      </trkpt>
      <trkpt lat="48.99432" lon="7.67847">
        <ele>354.7</ele>
        <time>2026-03-10T10:13:52Z</time>
      </trkpt>
      <trkpt lat="48.99426" lon="7.67851">
        <ele>353.4</ele>
        <time>2026-03-10T10:13:57Z</time>
      </trkpt>
      <trkpt lat="48.9942" lon="7.67856">
        <ele>352.1</ele>
        <time>2026-03-10T10:14:02Z</time>
      </trkpt>
      <trkpt lat="48.99415" lon="7.67861">
        <ele>350.6</ele>
        <time>2026-03-10T10:14:07Z</time>
      </trkpt>
      <trkpt lat="48.9941" lon="7.67862">
        <ele>348.6</ele>
        <time>2026-03-10T10:14:12Z</time>
      </trkpt>
      <trkpt lat="48.99405" lon="7.67865">
        <ele>346.4</ele>
        <time>2026-03-10T10:14:17Z</time>
      </trkpt>
      <trkpt lat="48.99403" lon="7.67866">
        <ele>345.6</ele>
        <time>2026-03-10T10:14:22Z</time>
      </trkpt>
      <trkpt lat="48.99399" lon="7.67865">
        <ele>344</ele>
        <time>2026-03-10T10:14:27Z</time>
      </trkpt>
      <trkpt lat="48.99394" lon="7.67863">
        <ele>341.9</ele>
        <time>2026-03-10T10:14:32Z</time>
      </trkpt>
      <trkpt lat="48.99388" lon="7.67861">
        <ele>339.5</ele>
        <time>2026-03-10T10:14:37Z</time>
      </trkpt>
      <trkpt lat="48.99383" lon="7.6786">
        <ele>337.5</ele>
        <time>2026-03-10T10:14:42Z</time>
      </trkpt>
      <trkpt lat="48.99383" lon="7.6786">
        <ele>337.5</ele>
        <time>2026-03-10T10:14:47Z</time>
      </trkpt>
      <trkpt lat="48.99381" lon="7.67858">
        <ele>336.7</ele>
        <time>2026-03-10T10:14:52Z</time>
      </trkpt>
      <trkpt lat="48.99375" lon="7.67853">
        <ele>334.4</ele>
        <time>2026-03-10T10:14:57Z</time>
      </trkpt>
      <trkpt lat="48.9937" lon="7.67845">
        <ele>332.6</ele>
        <time>2026-03-10T10:15:02Z</time>
      </trkpt>
      <trkpt lat="48.99373" lon="7.67836">
        <ele>334.1</ele>
        <time>2026-03-10T10:15:07Z</time>
      </trkpt>
      <trkpt lat="48.99371" lon="7.67829">
        <ele>332.8</ele>
        <time>2026-03-10T10:15:12Z</time>
      </trkpt>
      <trkpt lat="48.99369" lon="7.67824">
        <ele>331.4</ele>
        <time>2026-03-10T10:15:17Z</time>
      </trkpt>
      <trkpt lat="48.99368" lon="7.67819">
        <ele>330.4</ele>
        <time>2026-03-10T10:15:22Z</time>
      </trkpt>
      <trkpt lat="48.99367" lon="7.67818">
        <ele>329.9</ele>
        <time>2026-03-10T10:15:27Z</time>
      </trkpt>
      <trkpt lat="48.99367" lon="7.67818">
        <ele>329.9</ele>
        <time>2026-03-10T10:15:32Z</time>
      </trkpt>
      <trkpt lat="48.99367" lon="7.67818">
        <ele>329.9</ele>
        <time>2026-03-10T10:15:37Z</time>
      </trkpt>
      <trkpt lat="48.99363" lon="7.67817">
        <ele>328.2</ele>
        <time>2026-03-10T10:15:42Z</time>
      </trkpt>
      <trkpt lat="48.99362" lon="7.6781">
        <ele>327.1</ele>
        <time>2026-03-10T10:15:47Z</time>
      </trkpt>
      <trkpt lat="48.9936" lon="7.67806">
        <ele>325.8</ele>
        <time>2026-03-10T10:15:52Z</time>
      </trkpt>
      <trkpt lat="48.99357" lon="7.67805">
        <ele>324.6</ele>
        <time>2026-03-10T10:15:57Z</time>
      </trkpt>
      <trkpt lat="48.99357" lon="7.67805">
        <ele>324.6</ele>
        <time>2026-03-10T10:16:02Z</time>
      </trkpt>
      <trkpt lat="48.99357" lon="7.67805">
        <ele>324.6</ele>
        <time>2026-03-10T10:16:07Z</time>
      </trkpt>
      <trkpt lat="48.99353" lon="7.67808">
        <ele>323.4</ele>
        <time>2026-03-10T10:16:12Z</time>
      </trkpt>
      <trkpt lat="48.99349" lon="7.67806">
        <ele>321.7</ele>
        <time>2026-03-10T10:16:17Z</time>
      </trkpt>
      <trkpt lat="48.99343" lon="7.67807">
        <ele>319.5</ele>
        <time>2026-03-10T10:16:22Z</time>
      </trkpt>
      <trkpt lat="48.99339" lon="7.67809">
        <ele>318.1</ele>
        <time>2026-03-10T10:16:27Z</time>
      </trkpt>
      <trkpt lat="48.99335" lon="7.67812">
        <ele>316.9</ele>
        <time>2026-03-10T10:16:32Z</time>
      </trkpt>
      <trkpt lat="48.99331" lon="7.67816">
        <ele>315.7</ele>
        <time>2026-03-10T10:16:37Z</time>
      </trkpt>
      <trkpt lat="48.99328" lon="7.67821">
        <ele>315</ele>
        <time>2026-03-10T10:16:42Z</time>
      </trkpt>
      <trkpt lat="48.99325" lon="7.67824">
        <ele>314.1</ele>
        <time>2026-03-10T10:16:47Z</time>
      </trkpt>
      <trkpt lat="48.99324" lon="7.67824">
        <ele>313.7</ele>
        <time>2026-03-10T10:16:52Z</time>
      </trkpt>
      <trkpt lat="48.99324" lon="7.67824">
        <ele>313.7</ele>
        <time>2026-03-10T10:16:57Z</time>
      </trkpt>
      <trkpt lat="48.99324" lon="7.67824">
        <ele>313.7</ele>
        <time>2026-03-10T10:17:02Z</time>
      </trkpt>
      <trkpt lat="48.99324" lon="7.67824">
        <ele>313.7</ele>
        <time>2026-03-10T10:17:07Z</time>
      </trkpt>
      <trkpt lat="48.99324" lon="7.67824">
        <ele>313.7</ele>
        <time>2026-03-10T10:17:12Z</time>
      </trkpt>
      <trkpt lat="48.99321" lon="7.67829">
        <ele>312.9</ele>
        <time>2026-03-10T10:17:17Z</time>
      </trkpt>
      <trkpt lat="48.99318" lon="7.67835">
        <ele>312</ele>
        <time>2026-03-10T10:17:22Z</time>
      </trkpt>
      <trkpt lat="48.99316" lon="7.67843">
        <ele>311</ele>
        <time>2026-03-10T10:17:27Z</time>
      </trkpt>
      <trkpt lat="48.99314" lon="7.67851">
        <ele>309.9</ele>
        <time>2026-03-10T10:17:32Z</time>
      </trkpt>
      <trkpt lat="48.99315" lon="7.67858">
        <ele>310</ele>
        <time>2026-03-10T10:17:37Z</time>
      </trkpt>
      <trkpt lat="48.99315" lon="7.67865">
        <ele>309.7</ele>
        <time>2026-03-10T10:17:42Z</time>
      </trkpt>
      <trkpt lat="48.99315" lon="7.67866">
        <ele>309.7</ele>
        <time>2026-03-10T10:17:47Z</time>
      </trkpt>
      <trkpt lat="48.99315" lon="7.67866">
        <ele>309.7</ele>
        <time>2026-03-10T10:17:52Z</time>
      </trkpt>
      <trkpt lat="48.99315" lon="7.67866">
        <ele>309.7</ele>
        <time>2026-03-10T10:17:57Z</time>
      </trkpt>
      <trkpt lat="48.99315" lon="7.67866">
        <ele>309.7</ele>
        <time>2026-03-10T10:18:02Z</time>
      </trkpt>
      <trkpt lat="48.99315" lon="7.67866">
        <ele>309.7</ele>
        <time>2026-03-10T10:18:07Z</time>
      </trkpt>
      <trkpt lat="48.99318" lon="7.67867">
        <ele>310.8</ele>
        <time>2026-03-10T10:18:12Z</time>
      </trkpt>
      <trkpt lat="48.99318" lon="7.67871">
        <ele>310.7</ele>
        <time>2026-03-10T10:18:17Z</time>
      </trkpt>
      <trkpt lat="48.99319" lon="7.67877">
        <ele>310.8</ele>
        <time>2026-03-10T10:18:22Z</time>
      </trkpt>
      <trkpt lat="48.99321" lon="7.67881">
        <ele>311.5</ele>
        <time>2026-03-10T10:18:27Z</time>
      </trkpt>
      <trkpt lat="48.99322" lon="7.67881">
        <ele>311.9</ele>
        <time>2026-03-10T10:18:32Z</time>
      </trkpt>
      <trkpt lat="48.99322" lon="7.67882">
        <ele>311.8</ele>
        <time>2026-03-10T10:18:37Z</time>
      </trkpt>
      <trkpt lat="48.99322" lon="7.67882">
        <ele>311.8</ele>
        <time>2026-03-10T10:18:42Z</time>
      </trkpt>
      <trkpt lat="48.99322" lon="7.67882">
        <ele>311.8</ele>
        <time>2026-03-10T10:18:47Z</time>
      </trkpt>
      <trkpt lat="48.99322" lon="7.67882">
        <ele>311.8</ele>
        <time>2026-03-10T10:18:52Z</time>
      </trkpt>
      <trkpt lat="48.99322" lon="7.67882">
        <ele>311.8</ele>
        <time>2026-03-10T10:18:57Z</time>
      </trkpt>
      <trkpt lat="48.99322" lon="7.67882">
        <ele>311.8</ele>
        <time>2026-03-10T10:19:02Z</time>
      </trkpt>
      <trkpt lat="48.99322" lon="7.67882">
        <ele>311.8</ele>
        <time>2026-03-10T10:19:07Z</time>
      </trkpt>
      <trkpt lat="48.99322" lon="7.67882">
        <ele>311.8</ele>
        <time>2026-03-10T10:19:12Z</time>
      </trkpt>
      <trkpt lat="48.99322" lon="7.67882">
        <ele>311.8</ele>
        <time>2026-03-10T10:19:17Z</time>
      </trkpt>
      <trkpt lat="48.99322" lon="7.67882">
        <ele>311.8</ele>
        <time>2026-03-10T10:19:22Z</time>
      </trkpt>
      <trkpt lat="48.99322" lon="7.67882">
        <ele>311.8</ele>
        <time>2026-03-10T10:19:27Z</time>
      </trkpt>
      <trkpt lat="48.99322" lon="7.67882">
        <ele>311.8</ele>
        <time>2026-03-10T10:19:32Z</time>
      </trkpt>
      <trkpt lat="48.99322" lon="7.67882">
        <ele>311.8</ele>
        <time>2026-03-10T10:19:37Z</time>
      </trkpt>
      <trkpt lat="48.99322" lon="7.67882">
        <ele>311.8</ele>
        <time>2026-03-10T10:19:42Z</time>
      </trkpt>
      <trkpt lat="48.99322" lon="7.67882">
        <ele>311.8</ele>
        <time>2026-03-10T10:19:47Z</time>
      </trkpt>
      <trkpt lat="48.99322" lon="7.67882">
        <ele>311.8</ele>
        <time>2026-03-10T10:19:52Z</time>
      </trkpt>
      <trkpt lat="48.99322" lon="7.67882">
        <ele>311.8</ele>
        <time>2026-03-10T10:19:57Z</time>
      </trkpt>
      <trkpt lat="48.99322" lon="7.67882">
        <ele>311.8</ele>
        <time>2026-03-10T10:20:02Z</time>
      </trkpt>
      <trkpt lat="48.99322" lon="7.67882">
        <ele>311.8</ele>
        <time>2026-03-10T10:20:07Z</time>
      </trkpt>
      <trkpt lat="48.99322" lon="7.67882">
        <ele>311.8</ele>
        <time>2026-03-10T10:20:12Z</time>
      </trkpt>
      <trkpt lat="48.99322" lon="7.67882">
        <ele>311.8</ele>
        <time>2026-03-10T10:20:17Z</time>
      </trkpt>
      <trkpt lat="48.99322" lon="7.67882">
        <ele>311.8</ele>
        <time>2026-03-10T10:20:22Z</time>
      </trkpt>
      <trkpt lat="48.99322" lon="7.67882">
        <ele>311.8</ele>
        <time>2026-03-10T10:20:27Z</time>
      </trkpt>
      <trkpt lat="48.99322" lon="7.67882">
        <ele>311.8</ele>
        <time>2026-03-10T10:20:32Z</time>
      </trkpt>
      <trkpt lat="48.99322" lon="7.67882">
        <ele>311.8</ele>
        <time>2026-03-10T10:20:37Z</time>
      </trkpt>
      <trkpt lat="48.99322" lon="7.67882">
        <ele>311.8</ele>
        <time>2026-03-10T10:20:42Z</time>
      </trkpt>
      <trkpt lat="48.99322" lon="7.67882">
        <ele>311.8</ele>
        <time>2026-03-10T10:20:47Z</time>
      </trkpt>
      <trkpt lat="48.99322" lon="7.67882">
        <ele>311.8</ele>
        <time>2026-03-10T10:20:52Z</time>
      </trkpt>
      <trkpt lat="48.99322" lon="7.67882">
        <ele>311.8</ele>
        <time>2026-03-10T10:20:57Z</time>
      </trkpt>
      <trkpt lat="48.99326" lon="7.67889">
        <ele>313.1</ele>
        <time>2026-03-10T10:21:02Z</time>
      </trkpt>
      <trkpt lat="48.99327" lon="7.67892">
        <ele>313.4</ele>
        <time>2026-03-10T10:21:07Z</time>
      </trkpt>
      <trkpt lat="48.99327" lon="7.67891">
        <ele>313.4</ele>
        <time>2026-03-10T10:21:12Z</time>
      </trkpt>
      <trkpt lat="48.99328" lon="7.67896">
        <ele>313.6</ele>
        <time>2026-03-10T10:21:17Z</time>
      </trkpt>
      <trkpt lat="48.99329" lon="7.67906">
        <ele>313.7</ele>
        <time>2026-03-10T10:21:22Z</time>
      </trkpt>
      <trkpt lat="48.99332" lon="7.67913">
        <ele>314.6</ele>
        <time>2026-03-10T10:21:27Z</time>
      </trkpt>
      <trkpt lat="48.99335" lon="7.6792">
        <ele>315.1</ele>
        <time>2026-03-10T10:21:32Z</time>
      </trkpt>
      <trkpt lat="48.9934" lon="7.67926">
        <ele>316.2</ele>
        <time>2026-03-10T10:21:37Z</time>
      </trkpt>
      <trkpt lat="48.99346" lon="7.67932">
        <ele>317.6</ele>
        <time>2026-03-10T10:21:42Z</time>
      </trkpt>
      <trkpt lat="48.99349" lon="7.67936">
        <ele>318.2</ele>
        <time>2026-03-10T10:21:47Z</time>
      </trkpt>
      <trkpt lat="48.99353" lon="7.67942">
        <ele>318.7</ele>
        <time>2026-03-10T10:21:52Z</time>
      </trkpt>
      <trkpt lat="48.99359" lon="7.67948">
        <ele>320.1</ele>
        <time>2026-03-10T10:21:57Z</time>
      </trkpt>
      <trkpt lat="48.99364" lon="7.67953">
        <ele>321.1</ele>
        <time>2026-03-10T10:22:02Z</time>
      </trkpt>
      <trkpt lat="48.99371" lon="7.67959">
        <ele>322.8</ele>
        <time>2026-03-10T10:22:07Z</time>
      </trkpt>
      <trkpt lat="48.99377" lon="7.67963">
        <ele>324.4</ele>
        <time>2026-03-10T10:22:12Z</time>
      </trkpt>
      <trkpt lat="48.99382" lon="7.67968">
        <ele>325.4</ele>
        <time>2026-03-10T10:22:17Z</time>
      </trkpt>
      <trkpt lat="48.99387" lon="7.67972">
        <ele>326.5</ele>
        <time>2026-03-10T10:22:22Z</time>
      </trkpt>
      <trkpt lat="48.99394" lon="7.67974">
        <ele>328.8</ele>
        <time>2026-03-10T10:22:27Z</time>
      </trkpt>
      <trkpt lat="48.99398" lon="7.67975">
        <ele>330.2</ele>
        <time>2026-03-10T10:22:32Z</time>
      </trkpt>
      <trkpt lat="48.99406" lon="7.67977">
        <ele>332.9</ele>
        <time>2026-03-10T10:22:37Z</time>
      </trkpt>
      <trkpt lat="48.99403" lon="7.6798">
        <ele>331.1</ele>
        <time>2026-03-10T10:22:42Z</time>
      </trkpt>
      <trkpt lat="48.99394" lon="7.6798">
        <ele>327.6</ele>
        <time>2026-03-10T10:22:47Z</time>
      </trkpt>
      <trkpt lat="48.99387" lon="7.67981">
        <ele>324.7</ele>
        <time>2026-03-10T10:22:52Z</time>
      </trkpt>
      <trkpt lat="48.99384" lon="7.67982">
        <ele>323.4</ele>
        <time>2026-03-10T10:22:57Z</time>
      </trkpt>
      <trkpt lat="48.99378" lon="7.67988">
        <ele>319.9</ele>
        <time>2026-03-10T10:23:02Z</time>
      </trkpt>
      <trkpt lat="48.99374" lon="7.67993">
        <ele>317.5</ele>
        <time>2026-03-10T10:23:07Z</time>
      </trkpt>
      <trkpt lat="48.9937" lon="7.67998">
        <ele>315</ele>
        <time>2026-03-10T10:23:12Z</time>
      </trkpt>
      <trkpt lat="48.99363" lon="7.68001">
        <ele>311.8</ele>
        <time>2026-03-10T10:23:17Z</time>
      </trkpt>
      <trkpt lat="48.99356" lon="7.68001">
        <ele>309.2</ele>
        <time>2026-03-10T10:23:22Z</time>
      </trkpt>
      <trkpt lat="48.9935" lon="7.68001">
        <ele>307</ele>
        <time>2026-03-10T10:23:27Z</time>
      </trkpt>
      <trkpt lat="48.99346" lon="7.68001">
        <ele>305.5</ele>
        <time>2026-03-10T10:23:32Z</time>
      </trkpt>
      <trkpt lat="48.99339" lon="7.67999">
        <ele>303.3</ele>
        <time>2026-03-10T10:23:37Z</time>
      </trkpt>
      <trkpt lat="48.99333" lon="7.67997">
        <ele>301.4</ele>
        <time>2026-03-10T10:23:42Z</time>
      </trkpt>
      <trkpt lat="48.99327" lon="7.67995">
        <ele>300</ele>
        <time>2026-03-10T10:23:47Z</time>
      </trkpt>
      <trkpt lat="48.99322" lon="7.67993">
        <ele>298.8</ele>
        <time>2026-03-10T10:23:52Z</time>
      </trkpt>
      <trkpt lat="48.99316" lon="7.67989">
        <ele>297.6</ele>
        <time>2026-03-10T10:23:57Z</time>
      </trkpt>
      <trkpt lat="48.99311" lon="7.67986">
        <ele>296.5</ele>
        <time>2026-03-10T10:24:02Z</time>
      </trkpt>
      <trkpt lat="48.99303" lon="7.67982">
        <ele>294.6</ele>
        <time>2026-03-10T10:24:07Z</time>
      </trkpt>
      <trkpt lat="48.99297" lon="7.67979">
        <ele>293.1</ele>
        <time>2026-03-10T10:24:12Z</time>
      </trkpt>
      <trkpt lat="48.99291" lon="7.67976">
        <ele>291.5</ele>
        <time>2026-03-10T10:24:17Z</time>
      </trkpt>
      <trkpt lat="48.99286" lon="7.6797">
        <ele>290.6</ele>
        <time>2026-03-10T10:24:22Z</time>
      </trkpt>
      <trkpt lat="48.9928" lon="7.67967">
        <ele>288.9</ele>
        <time>2026-03-10T10:24:27Z</time>
      </trkpt>
      <trkpt lat="48.99274" lon="7.67963">
        <ele>287.3</ele>
        <time>2026-03-10T10:24:32Z</time>
      </trkpt>
      <trkpt lat="48.99269" lon="7.67958">
        <ele>286</ele>
        <time>2026-03-10T10:24:37Z</time>
      </trkpt>
      <trkpt lat="48.99262" lon="7.67953">
        <ele>284</ele>
        <time>2026-03-10T10:24:42Z</time>
      </trkpt>
      <trkpt lat="48.99256" lon="7.6795">
        <ele>282.1</ele>
        <time>2026-03-10T10:24:47Z</time>
      </trkpt>
      <trkpt lat="48.99251" lon="7.67946">
        <ele>280.6</ele>
        <time>2026-03-10T10:24:52Z</time>
      </trkpt>
      <trkpt lat="48.99246" lon="7.67941">
        <ele>279.7</ele>
        <time>2026-03-10T10:24:57Z</time>
      </trkpt>
      <trkpt lat="48.99243" lon="7.67937">
        <ele>279.2</ele>
        <time>2026-03-10T10:25:02Z</time>
      </trkpt>
      <trkpt lat="48.99237" lon="7.67939">
        <ele>277.8</ele>
        <time>2026-03-10T10:25:07Z</time>
      </trkpt>
      <trkpt lat="48.99233" lon="7.67942">
        <ele>276.7</ele>
        <time>2026-03-10T10:25:12Z</time>
      </trkpt>
      <trkpt lat="48.9923" lon="7.67942">
        <ele>276.1</ele>
        <time>2026-03-10T10:25:17Z</time>
      </trkpt>
      <trkpt lat="48.9923" lon="7.67935">
        <ele>276.4</ele>
        <time>2026-03-10T10:25:22Z</time>
      </trkpt>
      <trkpt lat="48.99231" lon="7.67927">
        <ele>277.1</ele>
        <time>2026-03-10T10:25:27Z</time>
      </trkpt>
      <trkpt lat="48.99234" lon="7.67917">
        <ele>278.3</ele>
        <time>2026-03-10T10:25:32Z</time>
      </trkpt>
      <trkpt lat="48.99235" lon="7.6791">
        <ele>278.9</ele>
        <time>2026-03-10T10:25:37Z</time>
      </trkpt>
      <trkpt lat="48.99235" lon="7.67899">
        <ele>279.4</ele>
        <time>2026-03-10T10:25:42Z</time>
      </trkpt>
      <trkpt lat="48.99232" lon="7.6789">
        <ele>279.1</ele>
        <time>2026-03-10T10:25:47Z</time>
      </trkpt>
      <trkpt lat="48.99231" lon="7.67879">
        <ele>279.4</ele>
        <time>2026-03-10T10:25:52Z</time>
      </trkpt>
      <trkpt lat="48.99234" lon="7.67869">
        <ele>280.5</ele>
        <time>2026-03-10T10:25:57Z</time>
      </trkpt>
      <trkpt lat="48.99234" lon="7.67858">
        <ele>281</ele>
        <time>2026-03-10T10:26:02Z</time>
      </trkpt>
      <trkpt lat="48.99234" lon="7.67846">
        <ele>281.6</ele>
        <time>2026-03-10T10:26:07Z</time>
      </trkpt>
      <trkpt lat="48.99234" lon="7.67834">
        <ele>282.1</ele>
        <time>2026-03-10T10:26:12Z</time>
      </trkpt>
      <trkpt lat="48.99235" lon="7.67823">
        <ele>282.2</ele>
        <time>2026-03-10T10:26:17Z</time>
      </trkpt>
      <trkpt lat="48.99235" lon="7.67812">
        <ele>281.9</ele>
        <time>2026-03-10T10:26:22Z</time>
      </trkpt>
      <trkpt lat="48.99238" lon="7.67802">
        <ele>282.4</ele>
        <time>2026-03-10T10:26:27Z</time>
      </trkpt>
      <trkpt lat="48.9924" lon="7.67792">
        <ele>282.6</ele>
        <time>2026-03-10T10:26:32Z</time>
      </trkpt>
      <trkpt lat="48.99243" lon="7.67783">
        <ele>283.1</ele>
        <time>2026-03-10T10:26:37Z</time>
      </trkpt>
      <trkpt lat="48.99245" lon="7.67775">
        <ele>283.4</ele>
        <time>2026-03-10T10:26:42Z</time>
      </trkpt>
      <trkpt lat="48.99249" lon="7.67766">
        <ele>284.1</ele>
        <time>2026-03-10T10:26:47Z</time>
      </trkpt>
      <trkpt lat="48.99253" lon="7.67756">
        <ele>285.1</ele>
        <time>2026-03-10T10:26:52Z</time>
      </trkpt>
      <trkpt lat="48.99258" lon="7.67747">
        <ele>286.5</ele>
        <time>2026-03-10T10:26:57Z</time>
      </trkpt>
      <trkpt lat="48.99262" lon="7.67739">
        <ele>287.5</ele>
        <time>2026-03-10T10:27:02Z</time>
      </trkpt>
      <trkpt lat="48.99265" lon="7.67728">
        <ele>288</ele>
        <time>2026-03-10T10:27:07Z</time>
      </trkpt>
      <trkpt lat="48.99269" lon="7.67718">
        <ele>288.7</ele>
        <time>2026-03-10T10:27:12Z</time>
      </trkpt>
      <trkpt lat="48.99273" lon="7.6771">
        <ele>289.4</ele>
        <time>2026-03-10T10:27:17Z</time>
      </trkpt>
      <trkpt lat="48.99276" lon="7.67699">
        <ele>289.5</ele>
        <time>2026-03-10T10:27:22Z</time>
      </trkpt>
      <trkpt lat="48.99278" lon="7.6769">
        <ele>289.4</ele>
        <time>2026-03-10T10:27:27Z</time>
      </trkpt>
      <trkpt lat="48.99283" lon="7.67684">
        <ele>290.1</ele>
        <time>2026-03-10T10:27:32Z</time>
      </trkpt>
      <trkpt lat="48.99288" lon="7.67677">
        <ele>290.6</ele>
        <time>2026-03-10T10:27:37Z</time>
      </trkpt>
      <trkpt lat="48.99293" lon="7.6767">
        <ele>291</ele>
        <time>2026-03-10T10:27:42Z</time>
      </trkpt>
      <trkpt lat="48.99298" lon="7.67664">
        <ele>291.4</ele>
        <time>2026-03-10T10:27:47Z</time>
      </trkpt>
      <trkpt lat="48.99304" lon="7.67661">
        <ele>292.1</ele>
        <time>2026-03-10T10:27:52Z</time>
      </trkpt>
      <trkpt lat="48.99312" lon="7.67659">
        <ele>293.2</ele>
        <time>2026-03-10T10:27:57Z</time>
      </trkpt>
      <trkpt lat="48.9932" lon="7.67658">
        <ele>294.4</ele>
        <time>2026-03-10T10:28:02Z</time>
      </trkpt>
      <trkpt lat="48.99327" lon="7.67657">
        <ele>295.4</ele>
        <time>2026-03-10T10:28:07Z</time>
      </trkpt>
      <trkpt lat="48.99335" lon="7.67655">
        <ele>296.4</ele>
        <time>2026-03-10T10:28:12Z</time>
      </trkpt>
      <trkpt lat="48.99342" lon="7.67654">
        <ele>297.5</ele>
        <time>2026-03-10T10:28:17Z</time>
      </trkpt>
      <trkpt lat="48.99349" lon="7.67652">
        <ele>298.5</ele>
        <time>2026-03-10T10:28:22Z</time>
      </trkpt>
      <trkpt lat="48.99358" lon="7.67651">
        <ele>300.1</ele>
        <time>2026-03-10T10:28:27Z</time>
      </trkpt>
      <trkpt lat="48.99366" lon="7.67649">
        <ele>301.2</ele>
        <time>2026-03-10T10:28:32Z</time>
      </trkpt>
      <trkpt lat="48.99372" lon="7.67645">
        <ele>301.5</ele>
        <time>2026-03-10T10:28:37Z</time>
      </trkpt>
      <trkpt lat="48.99376" lon="7.67637">
        <ele>300.6</ele>
        <time>2026-03-10T10:28:42Z</time>
      </trkpt>
      <trkpt lat="48.9938" lon="7.67632">
        <ele>300.3</ele>
        <time>2026-03-10T10:28:47Z</time>
      </trkpt>
      <trkpt lat="48.99383" lon="7.67625">
        <ele>299.3</ele>
        <time>2026-03-10T10:28:52Z</time>
      </trkpt>
      <trkpt lat="48.99387" lon="7.6762">
        <ele>298.9</ele>
        <time>2026-03-10T10:28:57Z</time>
      </trkpt>
      <trkpt lat="48.9939" lon="7.67615">
        <ele>298.4</ele>
        <time>2026-03-10T10:29:02Z</time>
      </trkpt>
      <trkpt lat="48.99394" lon="7.67612">
        <ele>298.3</ele>
        <time>2026-03-10T10:29:07Z</time>
      </trkpt>
      <trkpt lat="48.994" lon="7.67609">
        <ele>298.6</ele>
        <time>2026-03-10T10:29:12Z</time>
      </trkpt>
      <trkpt lat="48.99405" lon="7.67607">
        <ele>298.9</ele>
        <time>2026-03-10T10:29:17Z</time>
      </trkpt>
      <trkpt lat="48.9941" lon="7.67602">
        <ele>298.5</ele>
        <time>2026-03-10T10:29:22Z</time>
      </trkpt>
      <trkpt lat="48.9941" lon="7.67594">
        <ele>296.6</ele>
        <time>2026-03-10T10:29:27Z</time>
      </trkpt>
      <trkpt lat="48.99407" lon="7.67586">
        <ele>294.3</ele>
        <time>2026-03-10T10:29:32Z</time>
      </trkpt>
      <trkpt lat="48.99404" lon="7.67576">
        <ele>291.8</ele>
        <time>2026-03-10T10:29:37Z</time>
      </trkpt>
      <trkpt lat="48.99401" lon="7.67569">
        <ele>290</ele>
        <time>2026-03-10T10:29:42Z</time>
      </trkpt>
      <trkpt lat="48.99402" lon="7.67563">
        <ele>288.8</ele>
        <time>2026-03-10T10:29:47Z</time>
      </trkpt>
      <trkpt lat="48.99403" lon="7.67559">
        <ele>288.1</ele>
        <time>2026-03-10T10:29:52Z</time>
      </trkpt>
      <trkpt lat="48.99403" lon="7.67559">
        <ele>288.1</ele>
        <time>2026-03-10T10:29:57Z</time>
      </trkpt>
      <trkpt lat="48.99403" lon="7.67559">
        <ele>288.1</ele>
        <time>2026-03-10T10:30:02Z</time>
      </trkpt>
      <trkpt lat="48.99404" lon="7.67546">
        <ele>285.4</ele>
        <time>2026-03-10T10:30:07Z</time>
      </trkpt>
      <trkpt lat="48.99405" lon="7.67544">
        <ele>285.1</ele>
        <time>2026-03-10T10:30:12Z</time>
      </trkpt>
      <trkpt lat="48.99413" lon="7.67545">
        <ele>286</ele>
        <time>2026-03-10T10:30:17Z</time>
      </trkpt>
      <trkpt lat="48.99419" lon="7.67545">
        <ele>286.4</ele>
        <time>2026-03-10T10:30:22Z</time>
      </trkpt>
      <trkpt lat="48.99424" lon="7.67544">
        <ele>286.4</ele>
        <time>2026-03-10T10:30:27Z</time>
      </trkpt>
      <trkpt lat="48.9943" lon="7.6754">
        <ele>285.8</ele>
        <time>2026-03-10T10:30:32Z</time>
      </trkpt>
      <trkpt lat="48.99435" lon="7.67536">
        <ele>285.1</ele>
        <time>2026-03-10T10:30:37Z</time>
      </trkpt>
      <trkpt lat="48.9944" lon="7.67536">
        <ele>285.4</ele>
        <time>2026-03-10T10:30:42Z</time>
      </trkpt>
      <trkpt lat="48.99444" lon="7.67531">
        <ele>284.3</ele>
        <time>2026-03-10T10:30:47Z</time>
      </trkpt>
      <trkpt lat="48.99449" lon="7.67527">
        <ele>283.6</ele>
        <time>2026-03-10T10:30:52Z</time>
      </trkpt>
      <trkpt lat="48.99454" lon="7.67526">
        <ele>283.5</ele>
        <time>2026-03-10T10:30:57Z</time>
      </trkpt>
      <trkpt lat="48.99459" lon="7.67524">
        <ele>283.2</ele>
        <time>2026-03-10T10:31:02Z</time>
      </trkpt>
      <trkpt lat="48.99464" lon="7.67521">
        <ele>282.6</ele>
        <time>2026-03-10T10:31:07Z</time>
      </trkpt>
      <trkpt lat="48.99469" lon="7.67519">
        <ele>282.3</ele>
        <time>2026-03-10T10:31:12Z</time>
      </trkpt>
      <trkpt lat="48.99473" lon="7.67518">
        <ele>282.2</ele>
        <time>2026-03-10T10:31:17Z</time>
      </trkpt>
      <trkpt lat="48.99478" lon="7.67515">
        <ele>281.6</ele>
        <time>2026-03-10T10:31:22Z</time>
      </trkpt>
      <trkpt lat="48.99482" lon="7.67513">
        <ele>281.1</ele>
        <time>2026-03-10T10:31:27Z</time>
      </trkpt>
      <trkpt lat="48.99489" lon="7.67513">
        <ele>281.4</ele>
        <time>2026-03-10T10:31:32Z</time>
      </trkpt>
      <trkpt lat="48.99495" lon="7.67512">
        <ele>281.3</ele>
        <time>2026-03-10T10:31:37Z</time>
      </trkpt>
      <trkpt lat="48.99499" lon="7.67511">
        <ele>281.1</ele>
        <time>2026-03-10T10:31:42Z</time>
      </trkpt>
      <trkpt lat="48.99504" lon="7.67511">
        <ele>281.1</ele>
        <time>2026-03-10T10:31:47Z</time>
      </trkpt>
      <trkpt lat="48.99509" lon="7.67508">
        <ele>280.2</ele>
        <time>2026-03-10T10:31:52Z</time>
      </trkpt>
      <trkpt lat="48.99513" lon="7.67504">
        <ele>279</ele>
        <time>2026-03-10T10:31:57Z</time>
      </trkpt>
      <trkpt lat="48.99516" lon="7.67497">
        <ele>276.9</ele>
        <time>2026-03-10T10:32:02Z</time>
      </trkpt>
      <trkpt lat="48.99518" lon="7.67488">
        <ele>274.3</ele>
        <time>2026-03-10T10:32:07Z</time>
      </trkpt>
      <trkpt lat="48.99521" lon="7.67479">
        <ele>271.6</ele>
        <time>2026-03-10T10:32:12Z</time>
      </trkpt>
      <trkpt lat="48.99523" lon="7.67468">
        <ele>268.4</ele>
        <time>2026-03-10T10:32:17Z</time>
      </trkpt>
      <trkpt lat="48.99523" lon="7.6746">
        <ele>266.1</ele>
        <time>2026-03-10T10:32:22Z</time>
      </trkpt>
      <trkpt lat="48.99524" lon="7.67456">
        <ele>264.9</ele>
        <time>2026-03-10T10:32:27Z</time>
      </trkpt>
      <trkpt lat="48.99528" lon="7.67455">
        <ele>264.5</ele>
        <time>2026-03-10T10:32:32Z</time>
      </trkpt>
      <trkpt lat="48.99533" lon="7.67456">
        <ele>264.7</ele>
        <time>2026-03-10T10:32:37Z</time>
      </trkpt>
      <trkpt lat="48.99538" lon="7.67457">
        <ele>264.9</ele>
        <time>2026-03-10T10:32:42Z</time>
      </trkpt>
      <trkpt lat="48.99542" lon="7.67459">
        <ele>265.4</ele>
        <time>2026-03-10T10:32:47Z</time>
      </trkpt>
      <trkpt lat="48.99547" lon="7.67462">
        <ele>266.2</ele>
        <time>2026-03-10T10:32:52Z</time>
      </trkpt>
      <trkpt lat="48.99552" lon="7.67463">
        <ele>266.4</ele>
        <time>2026-03-10T10:32:57Z</time>
      </trkpt>
      <trkpt lat="48.99556" lon="7.67464">
        <ele>266.7</ele>
        <time>2026-03-10T10:33:02Z</time>
      </trkpt>
      <trkpt lat="48.99561" lon="7.67461">
        <ele>265.7</ele>
        <time>2026-03-10T10:33:07Z</time>
      </trkpt>
      <trkpt lat="48.99566" lon="7.67456">
        <ele>264.1</ele>
        <time>2026-03-10T10:33:12Z</time>
      </trkpt>
      <trkpt lat="48.99569" lon="7.67448">
        <ele>261.7</ele>
        <time>2026-03-10T10:33:17Z</time>
      </trkpt>
      <trkpt lat="48.99571" lon="7.67441">
        <ele>259.6</ele>
        <time>2026-03-10T10:33:22Z</time>
      </trkpt>
      <trkpt lat="48.99573" lon="7.67435">
        <ele>257.7</ele>
        <time>2026-03-10T10:33:27Z</time>
      </trkpt>
      <trkpt lat="48.99574" lon="7.67427">
        <ele>255.3</ele>
        <time>2026-03-10T10:33:32Z</time>
      </trkpt>
      <trkpt lat="48.99575" lon="7.67419">
        <ele>252.9</ele>
        <time>2026-03-10T10:33:37Z</time>
      </trkpt>
      <trkpt lat="48.99578" lon="7.67409">
        <ele>251.5</ele>
        <time>2026-03-10T10:33:42Z</time>
      </trkpt>
      <trkpt lat="48.9958" lon="7.674">
        <ele>250.8</ele>
        <time>2026-03-10T10:33:47Z</time>
      </trkpt>
      <trkpt lat="48.99581" lon="7.67391">
        <ele>250.2</ele>
        <time>2026-03-10T10:33:52Z</time>
      </trkpt>
      <trkpt lat="48.99584" lon="7.67379">
        <ele>249.3</ele>
        <time>2026-03-10T10:33:57Z</time>
      </trkpt>
      <trkpt lat="48.99586" lon="7.6737">
        <ele>248.8</ele>
        <time>2026-03-10T10:34:02Z</time>
      </trkpt>
      <trkpt lat="48.99585" lon="7.67362">
        <ele>248.2</ele>
        <time>2026-03-10T10:34:07Z</time>
      </trkpt>
      <trkpt lat="48.99583" lon="7.67354">
        <ele>247.5</ele>
        <time>2026-03-10T10:34:12Z</time>
      </trkpt>
      <trkpt lat="48.9958" lon="7.67347">
        <ele>246.9</ele>
        <time>2026-03-10T10:34:17Z</time>
      </trkpt>
      <trkpt lat="48.99576" lon="7.67339">
        <ele>246.2</ele>
        <time>2026-03-10T10:34:22Z</time>
      </trkpt>
      <trkpt lat="48.99573" lon="7.67333">
        <ele>245.7</ele>
        <time>2026-03-10T10:34:27Z</time>
      </trkpt>
      <trkpt lat="48.9957" lon="7.67327">
        <ele>247.3</ele>
        <time>2026-03-10T10:34:32Z</time>
      </trkpt>
      <trkpt lat="48.99569" lon="7.6732">
        <ele>249.3</ele>
        <time>2026-03-10T10:34:37Z</time>
      </trkpt>
      <trkpt lat="48.99567" lon="7.6731">
        <ele>252</ele>
        <time>2026-03-10T10:34:42Z</time>
      </trkpt>
      <trkpt lat="48.99563" lon="7.67303">
        <ele>253.7</ele>
        <time>2026-03-10T10:34:47Z</time>
      </trkpt>
      <trkpt lat="48.9956" lon="7.67295">
        <ele>255.6</ele>
        <time>2026-03-10T10:34:52Z</time>
      </trkpt>
      <trkpt lat="48.99554" lon="7.67292">
        <ele>255.9</ele>
        <time>2026-03-10T10:34:57Z</time>
      </trkpt>
      <trkpt lat="48.99546" lon="7.6729">
        <ele>255.8</ele>
        <time>2026-03-10T10:35:02Z</time>
      </trkpt>
      <trkpt lat="48.9954" lon="7.67291">
        <ele>255</ele>
        <time>2026-03-10T10:35:07Z</time>
      </trkpt>
      <trkpt lat="48.99535" lon="7.67293">
        <ele>254.1</ele>
        <time>2026-03-10T10:35:12Z</time>
      </trkpt>
      <trkpt lat="48.99531" lon="7.67295">
        <ele>253.3</ele>
        <time>2026-03-10T10:35:17Z</time>
      </trkpt>
      <trkpt lat="48.99526" lon="7.67293">
        <ele>253.4</ele>
        <time>2026-03-10T10:35:22Z</time>
      </trkpt>
      <trkpt lat="48.99521" lon="7.67293">
        <ele>253</ele>
        <time>2026-03-10T10:35:27Z</time>
      </trkpt>
      <trkpt lat="48.99516" lon="7.67291">
        <ele>253</ele>
        <time>2026-03-10T10:35:32Z</time>
      </trkpt>
      <trkpt lat="48.99511" lon="7.67289">
        <ele>253</ele>
        <time>2026-03-10T10:35:37Z</time>
      </trkpt>
      <trkpt lat="48.99506" lon="7.67285">
        <ele>253.4</ele>
        <time>2026-03-10T10:35:42Z</time>
      </trkpt>
      <trkpt lat="48.99499" lon="7.67279">
        <ele>253.9</ele>
        <time>2026-03-10T10:35:47Z</time>
      </trkpt>
      <trkpt lat="48.99494" lon="7.67276">
        <ele>253.8</ele>
        <time>2026-03-10T10:35:52Z</time>
      </trkpt>
      <trkpt lat="48.9949" lon="7.67273">
        <ele>253.9</ele>
        <time>2026-03-10T10:35:57Z</time>
      </trkpt>
      <trkpt lat="48.99484" lon="7.6727">
        <ele>253.6</ele>
        <time>2026-03-10T10:36:02Z</time>
      </trkpt>
      <trkpt lat="48.99477" lon="7.67264">
        <ele>253.7</ele>
        <time>2026-03-10T10:36:07Z</time>
      </trkpt>
      <trkpt lat="48.99472" lon="7.67258">
        <ele>254.1</ele>
        <time>2026-03-10T10:36:12Z</time>
      </trkpt>
      <trkpt lat="48.99467" lon="7.67257">
        <ele>253.6</ele>
        <time>2026-03-10T10:36:17Z</time>
      </trkpt>
      <trkpt lat="48.99462" lon="7.67256">
        <ele>253</ele>
        <time>2026-03-10T10:36:22Z</time>
      </trkpt>
      <trkpt lat="48.99456" lon="7.67254">
        <ele>252.4</ele>
        <time>2026-03-10T10:36:27Z</time>
      </trkpt>
      <trkpt lat="48.99451" lon="7.67248">
        <ele>252.8</ele>
        <time>2026-03-10T10:36:32Z</time>
      </trkpt>
      <trkpt lat="48.99446" lon="7.67243">
        <ele>253.1</ele>
        <time>2026-03-10T10:36:37Z</time>
      </trkpt>
      <trkpt lat="48.99439" lon="7.67238">
        <ele>253.2</ele>
        <time>2026-03-10T10:36:42Z</time>
      </trkpt>
      <trkpt lat="48.99432" lon="7.67236">
        <ele>252.5</ele>
        <time>2026-03-10T10:36:47Z</time>
      </trkpt>
      <trkpt lat="48.99426" lon="7.67236">
        <ele>251.5</ele>
        <time>2026-03-10T10:36:52Z</time>
      </trkpt>
      <trkpt lat="48.99421" lon="7.67238">
        <ele>250.3</ele>
        <time>2026-03-10T10:36:57Z</time>
      </trkpt>
      <trkpt lat="48.99415" lon="7.67238">
        <ele>249.2</ele>
        <time>2026-03-10T10:37:02Z</time>
      </trkpt>
      <trkpt lat="48.99409" lon="7.67237">
        <ele>248.1</ele>
        <time>2026-03-10T10:37:07Z</time>
      </trkpt>
      <trkpt lat="48.99404" lon="7.67237">
        <ele>247</ele>
        <time>2026-03-10T10:37:12Z</time>
      </trkpt>
      <trkpt lat="48.99399" lon="7.67236">
        <ele>246</ele>
        <time>2026-03-10T10:37:17Z</time>
      </trkpt>
      <trkpt lat="48.99393" lon="7.67235">
        <ele>244.9</ele>
        <time>2026-03-10T10:37:22Z</time>
      </trkpt>
      <trkpt lat="48.99389" lon="7.67233">
        <ele>244.4</ele>
        <time>2026-03-10T10:37:27Z</time>
      </trkpt>
      <trkpt lat="48.99384" lon="7.6723">
        <ele>243.8</ele>
        <time>2026-03-10T10:37:32Z</time>
      </trkpt>
      <trkpt lat="48.99378" lon="7.67226">
        <ele>243.2</ele>
        <time>2026-03-10T10:37:37Z</time>
      </trkpt>
      <trkpt lat="48.99374" lon="7.67222">
        <ele>243</ele>
        <time>2026-03-10T10:37:42Z</time>
      </trkpt>
      <trkpt lat="48.99368" lon="7.6722">
        <ele>241.9</ele>
        <time>2026-03-10T10:37:47Z</time>
      </trkpt>
      <trkpt lat="48.99363" lon="7.67216">
        <ele>241.4</ele>
        <time>2026-03-10T10:37:52Z</time>
      </trkpt>
      <trkpt lat="48.99357" lon="7.6721">
        <ele>241</ele>
        <time>2026-03-10T10:37:57Z</time>
      </trkpt>
      <trkpt lat="48.99351" lon="7.67204">
        <ele>240.6</ele>
        <time>2026-03-10T10:38:02Z</time>
      </trkpt>
      <trkpt lat="48.99346" lon="7.672">
        <ele>240</ele>
        <time>2026-03-10T10:38:07Z</time>
      </trkpt>
      <trkpt lat="48.99342" lon="7.67196">
        <ele>239.6</ele>
        <time>2026-03-10T10:38:12Z</time>
      </trkpt>
      <trkpt lat="48.99335" lon="7.67191">
        <ele>238.6</ele>
        <time>2026-03-10T10:38:17Z</time>
      </trkpt>
      <trkpt lat="48.99327" lon="7.67188">
        <ele>237.1</ele>
        <time>2026-03-10T10:38:22Z</time>
      </trkpt>
      <trkpt lat="48.9932" lon="7.67186">
        <ele>235.7</ele>
        <time>2026-03-10T10:38:27Z</time>
      </trkpt>
      <trkpt lat="48.99316" lon="7.67181">
        <ele>235.4</ele>
        <time>2026-03-10T10:38:32Z</time>
      </trkpt>
      <trkpt lat="48.99311" lon="7.67176">
        <ele>234.7</ele>
        <time>2026-03-10T10:38:37Z</time>
      </trkpt>
      <trkpt lat="48.99308" lon="7.67171">
        <ele>234.5</ele>
        <time>2026-03-10T10:38:42Z</time>
      </trkpt>
      <trkpt lat="48.99303" lon="7.67166">
        <ele>233.7</ele>
        <time>2026-03-10T10:38:47Z</time>
      </trkpt>
      <trkpt lat="48.99297" lon="7.6716">
        <ele>232.3</ele>
        <time>2026-03-10T10:38:52Z</time>
      </trkpt>
      <trkpt lat="48.99291" lon="7.67156">
        <ele>230.8</ele>
        <time>2026-03-10T10:38:57Z</time>
      </trkpt>
      <trkpt lat="48.99285" lon="7.67149">
        <ele>229.4</ele>
        <time>2026-03-10T10:39:02Z</time>
      </trkpt>
      <trkpt lat="48.99279" lon="7.67146">
        <ele>227.8</ele>
        <time>2026-03-10T10:39:07Z</time>
      </trkpt>
      <trkpt lat="48.99274" lon="7.6714">
        <ele>226.6</ele>
        <time>2026-03-10T10:39:12Z</time>
      </trkpt>
      <trkpt lat="48.99268" lon="7.67131">
        <ele>225.2</ele>
        <time>2026-03-10T10:39:17Z</time>
      </trkpt>
      <trkpt lat="48.99264" lon="7.67124">
        <ele>224.2</ele>
        <time>2026-03-10T10:39:22Z</time>
      </trkpt>
      <trkpt lat="48.99259" lon="7.67116">
        <ele>223</ele>
        <time>2026-03-10T10:39:27Z</time>
      </trkpt>
      <trkpt lat="48.99254" lon="7.67111">
        <ele>221.6</ele>
        <time>2026-03-10T10:39:32Z</time>
      </trkpt>
      <trkpt lat="48.9925" lon="7.67104">
        <ele>220.5</ele>
        <time>2026-03-10T10:39:37Z</time>
      </trkpt>
      <trkpt lat="48.99247" lon="7.67097">
        <ele>220.6</ele>
        <time>2026-03-10T10:39:42Z</time>
      </trkpt>
      <trkpt lat="48.99243" lon="7.6709">
        <ele>220.6</ele>
        <time>2026-03-10T10:39:47Z</time>
      </trkpt>
      <trkpt lat="48.99238" lon="7.6708">
        <ele>220.6</ele>
        <time>2026-03-10T10:39:52Z</time>
      </trkpt>
      <trkpt lat="48.99235" lon="7.67074">
        <ele>220.6</ele>
        <time>2026-03-10T10:39:57Z</time>
      </trkpt>
      <trkpt lat="48.99234" lon="7.67068">
        <ele>220.6</ele>
        <time>2026-03-10T10:40:02Z</time>
      </trkpt>
      <trkpt lat="48.99233" lon="7.6706">
        <ele>220.7</ele>
        <time>2026-03-10T10:40:07Z</time>
      </trkpt>
      <trkpt lat="48.99232" lon="7.67051">
        <ele>220.8</ele>
        <time>2026-03-10T10:40:12Z</time>
      </trkpt>
      <trkpt lat="48.99231" lon="7.67043">
        <ele>220.9</ele>
        <time>2026-03-10T10:40:17Z</time>
      </trkpt>
      <trkpt lat="48.99231" lon="7.67036">
        <ele>221</ele>
        <time>2026-03-10T10:40:22Z</time>
      </trkpt>
      <trkpt lat="48.9923" lon="7.67029">
        <ele>221.1</ele>
        <time>2026-03-10T10:40:27Z</time>
      </trkpt>
      <trkpt lat="48.99229" lon="7.6702">
        <ele>221.2</ele>
        <time>2026-03-10T10:40:32Z</time>
      </trkpt>
      <trkpt lat="48.99228" lon="7.67011">
        <ele>221.3</ele>
        <time>2026-03-10T10:40:37Z</time>
      </trkpt>
      <trkpt lat="48.99227" lon="7.67">
        <ele>221.4</ele>
        <time>2026-03-10T10:40:42Z</time>
      </trkpt>
      <trkpt lat="48.99227" lon="7.66992">
        <ele>221.7</ele>
        <time>2026-03-10T10:40:47Z</time>
      </trkpt>
      <trkpt lat="48.99227" lon="7.66983">
        <ele>221.9</ele>
        <time>2026-03-10T10:40:52Z</time>
      </trkpt>
      <trkpt lat="48.99229" lon="7.66973">
        <ele>222.3</ele>
        <time>2026-03-10T10:40:57Z</time>
      </trkpt>
      <trkpt lat="48.99228" lon="7.66964">
        <ele>222.5</ele>
        <time>2026-03-10T10:41:02Z</time>
      </trkpt>
      <trkpt lat="48.99226" lon="7.66951">
        <ele>222.8</ele>
        <time>2026-03-10T10:41:07Z</time>
      </trkpt>
      <trkpt lat="48.99226" lon="7.66941">
        <ele>223.1</ele>
        <time>2026-03-10T10:41:12Z</time>
      </trkpt>
      <trkpt lat="48.99226" lon="7.6693">
        <ele>223.5</ele>
        <time>2026-03-10T10:41:17Z</time>
      </trkpt>
      <trkpt lat="48.99225" lon="7.66921">
        <ele>223.7</ele>
        <time>2026-03-10T10:41:22Z</time>
      </trkpt>
      <trkpt lat="48.99224" lon="7.66912">
        <ele>223.5</ele>
        <time>2026-03-10T10:41:27Z</time>
      </trkpt>
      <trkpt lat="48.99223" lon="7.66904">
        <ele>223</ele>
        <time>2026-03-10T10:41:32Z</time>
      </trkpt>
      <trkpt lat="48.99222" lon="7.66892">
        <ele>222.4</ele>
        <time>2026-03-10T10:41:37Z</time>
      </trkpt>
      <trkpt lat="48.99222" lon="7.66882">
        <ele>221.9</ele>
        <time>2026-03-10T10:41:42Z</time>
      </trkpt>
      <trkpt lat="48.99223" lon="7.66871">
        <ele>221.3</ele>
        <time>2026-03-10T10:41:47Z</time>
      </trkpt>
      <trkpt lat="48.99222" lon="7.66861">
        <ele>220.8</ele>
        <time>2026-03-10T10:41:52Z</time>
      </trkpt>
      <trkpt lat="48.9922" lon="7.66851">
        <ele>220.2</ele>
        <time>2026-03-10T10:41:57Z</time>
      </trkpt>
      <trkpt lat="48.9922" lon="7.66841">
        <ele>219.7</ele>
        <time>2026-03-10T10:42:02Z</time>
      </trkpt>
      <trkpt lat="48.99221" lon="7.6683">
        <ele>219.4</ele>
        <time>2026-03-10T10:42:07Z</time>
      </trkpt>
      <trkpt lat="48.99221" lon="7.66819">
        <ele>219.7</ele>
        <time>2026-03-10T10:42:12Z</time>
      </trkpt>
      <trkpt lat="48.9922" lon="7.66812">
        <ele>219.9</ele>
        <time>2026-03-10T10:42:17Z</time>
      </trkpt>
      <trkpt lat="48.9922" lon="7.66805">
        <ele>220.1</ele>
        <time>2026-03-10T10:42:22Z</time>
      </trkpt>
      <trkpt lat="48.99221" lon="7.66794">
        <ele>220.4</ele>
        <time>2026-03-10T10:42:27Z</time>
      </trkpt>
      <trkpt lat="48.99221" lon="7.66782">
        <ele>220.8</ele>
        <time>2026-03-10T10:42:32Z</time>
      </trkpt>
      <trkpt lat="48.99219" lon="7.6677">
        <ele>221.1</ele>
        <time>2026-03-10T10:42:37Z</time>
      </trkpt>
      <trkpt lat="48.9922" lon="7.6676">
        <ele>221.4</ele>
        <time>2026-03-10T10:42:42Z</time>
      </trkpt>
      <trkpt lat="48.9922" lon="7.66752">
        <ele>221.6</ele>
        <time>2026-03-10T10:42:47Z</time>
      </trkpt>
      <trkpt lat="48.99219" lon="7.66736">
        <ele>221.9</ele>
        <time>2026-03-10T10:42:52Z</time>
      </trkpt>
      <trkpt lat="48.99219" lon="7.66722">
        <ele>222.1</ele>
        <time>2026-03-10T10:42:57Z</time>
      </trkpt>
      <trkpt lat="48.99219" lon="7.6671">
        <ele>222.3</ele>
        <time>2026-03-10T10:43:02Z</time>
      </trkpt>
      <trkpt lat="48.9922" lon="7.667">
        <ele>222.5</ele>
        <time>2026-03-10T10:43:07Z</time>
      </trkpt>
      <trkpt lat="48.99221" lon="7.6669">
        <ele>222.6</ele>
        <time>2026-03-10T10:43:12Z</time>
      </trkpt>
      <trkpt lat="48.99222" lon="7.6668">
        <ele>222.8</ele>
        <time>2026-03-10T10:43:17Z</time>
      </trkpt>
      <trkpt lat="48.99224" lon="7.6667">
        <ele>222.9</ele>
        <time>2026-03-10T10:43:22Z</time>
      </trkpt>
      <trkpt lat="48.99224" lon="7.66658">
        <ele>223.2</ele>
        <time>2026-03-10T10:43:27Z</time>
      </trkpt>
      <trkpt lat="48.99224" lon="7.66647">
        <ele>223.4</ele>
        <time>2026-03-10T10:43:32Z</time>
      </trkpt>
      <trkpt lat="48.99225" lon="7.66636">
        <ele>223.6</ele>
        <time>2026-03-10T10:43:37Z</time>
      </trkpt>
      <trkpt lat="48.99225" lon="7.66625">
        <ele>223.7</ele>
        <time>2026-03-10T10:43:42Z</time>
      </trkpt>
      <trkpt lat="48.99224" lon="7.66612">
        <ele>224</ele>
        <time>2026-03-10T10:43:47Z</time>
      </trkpt>
      <trkpt lat="48.99225" lon="7.66601">
        <ele>224.2</ele>
        <time>2026-03-10T10:43:52Z</time>
      </trkpt>
      <trkpt lat="48.99225" lon="7.6659">
        <ele>224.4</ele>
        <time>2026-03-10T10:43:57Z</time>
      </trkpt>
      <trkpt lat="48.99225" lon="7.66583">
        <ele>224.5</ele>
        <time>2026-03-10T10:44:02Z</time>
      </trkpt>
      <trkpt lat="48.99226" lon="7.66573">
        <ele>224.6</ele>
        <time>2026-03-10T10:44:07Z</time>
      </trkpt>
      <trkpt lat="48.99227" lon="7.66562">
        <ele>224.8</ele>
        <time>2026-03-10T10:44:12Z</time>
      </trkpt>
      <trkpt lat="48.99226" lon="7.66553">
        <ele>225</ele>
        <time>2026-03-10T10:44:17Z</time>
      </trkpt>
      <trkpt lat="48.99226" lon="7.66542">
        <ele>225.2</ele>
        <time>2026-03-10T10:44:22Z</time>
      </trkpt>
      <trkpt lat="48.99225" lon="7.6653">
        <ele>225.5</ele>
        <time>2026-03-10T10:44:27Z</time>
      </trkpt>
      <trkpt lat="48.99227" lon="7.66521">
        <ele>225.5</ele>
        <time>2026-03-10T10:44:32Z</time>
      </trkpt>
      <trkpt lat="48.99229" lon="7.66511">
        <ele>225.6</ele>
        <time>2026-03-10T10:44:37Z</time>
      </trkpt>
      <trkpt lat="48.99227" lon="7.66499">
        <ele>225.9</ele>
        <time>2026-03-10T10:44:42Z</time>
      </trkpt>
      <trkpt lat="48.99228" lon="7.66491">
        <ele>225.8</ele>
        <time>2026-03-10T10:44:47Z</time>
      </trkpt>
      <trkpt lat="48.9923" lon="7.6648">
        <ele>225.5</ele>
        <time>2026-03-10T10:44:52Z</time>
      </trkpt>
      <trkpt lat="48.99231" lon="7.66471">
        <ele>225.3</ele>
        <time>2026-03-10T10:44:57Z</time>
      </trkpt>
      <trkpt lat="48.99232" lon="7.66459">
        <ele>225.1</ele>
        <time>2026-03-10T10:45:02Z</time>
      </trkpt>
      <trkpt lat="48.99235" lon="7.66451">
        <ele>224.8</ele>
        <time>2026-03-10T10:45:07Z</time>
      </trkpt>
      <trkpt lat="48.99235" lon="7.66444">
        <ele>224.7</ele>
        <time>2026-03-10T10:45:12Z</time>
      </trkpt>
      <trkpt lat="48.99237" lon="7.66436">
        <ele>224.4</ele>
        <time>2026-03-10T10:45:17Z</time>
      </trkpt>
      <trkpt lat="48.99239" lon="7.66429">
        <ele>224.2</ele>
        <time>2026-03-10T10:45:22Z</time>
      </trkpt>
      <trkpt lat="48.99241" lon="7.6642">
        <ele>223.9</ele>
        <time>2026-03-10T10:45:27Z</time>
      </trkpt>
      <trkpt lat="48.99244" lon="7.66416">
        <ele>223.6</ele>
        <time>2026-03-10T10:45:32Z</time>
      </trkpt>
      <trkpt lat="48.99246" lon="7.6641">
        <ele>223.5</ele>
        <time>2026-03-10T10:45:37Z</time>
      </trkpt>
      <trkpt lat="48.99248" lon="7.66404">
        <ele>223.5</ele>
        <time>2026-03-10T10:45:42Z</time>
      </trkpt>
      <trkpt lat="48.99251" lon="7.66402">
        <ele>223.6</ele>
        <time>2026-03-10T10:45:47Z</time>
      </trkpt>
      <trkpt lat="48.99253" lon="7.66394">
        <ele>224.2</ele>
        <time>2026-03-10T10:45:52Z</time>
      </trkpt>
      <trkpt lat="48.99256" lon="7.66388">
        <ele>225</ele>
        <time>2026-03-10T10:45:57Z</time>
      </trkpt>
      <trkpt lat="48.99259" lon="7.66384">
        <ele>225.7</ele>
        <time>2026-03-10T10:46:02Z</time>
      </trkpt>
      <trkpt lat="48.99263" lon="7.66379">
        <ele>226.6</ele>
        <time>2026-03-10T10:46:07Z</time>
      </trkpt>
      <trkpt lat="48.99265" lon="7.66371">
        <ele>227.1</ele>
        <time>2026-03-10T10:46:12Z</time>
      </trkpt>
      <trkpt lat="48.99266" lon="7.66362">
        <ele>227.3</ele>
        <time>2026-03-10T10:46:17Z</time>
      </trkpt>
      <trkpt lat="48.99268" lon="7.66356">
        <ele>227.6</ele>
        <time>2026-03-10T10:46:22Z</time>
      </trkpt>
      <trkpt lat="48.9927" lon="7.66352">
        <ele>228</ele>
        <time>2026-03-10T10:46:27Z</time>
      </trkpt>
      <trkpt lat="48.99272" lon="7.66344">
        <ele>228.2</ele>
        <time>2026-03-10T10:46:32Z</time>
      </trkpt>
      <trkpt lat="48.99273" lon="7.66333">
        <ele>228.3</ele>
        <time>2026-03-10T10:46:37Z</time>
      </trkpt>
      <trkpt lat="48.99278" lon="7.66326">
        <ele>228.9</ele>
        <time>2026-03-10T10:46:42Z</time>
      </trkpt>
      <trkpt lat="48.9928" lon="7.66318">
        <ele>228.9</ele>
        <time>2026-03-10T10:46:47Z</time>
      </trkpt>
      <trkpt lat="48.99282" lon="7.66312">
        <ele>228.9</ele>
        <time>2026-03-10T10:46:52Z</time>
      </trkpt>
      <trkpt lat="48.99286" lon="7.66306">
        <ele>229.1</ele>
        <time>2026-03-10T10:46:57Z</time>
      </trkpt>
      <trkpt lat="48.9929" lon="7.663">
        <ele>229.3</ele>
        <time>2026-03-10T10:47:02Z</time>
      </trkpt>
      <trkpt lat="48.99293" lon="7.66292">
        <ele>229.1</ele>
        <time>2026-03-10T10:47:07Z</time>
      </trkpt>
      <trkpt lat="48.99297" lon="7.66286">
        <ele>229.1</ele>
        <time>2026-03-10T10:47:12Z</time>
      </trkpt>
      <trkpt lat="48.99301" lon="7.66282">
        <ele>229.1</ele>
        <time>2026-03-10T10:47:17Z</time>
      </trkpt>
      <trkpt lat="48.99304" lon="7.66276">
        <ele>228.8</ele>
        <time>2026-03-10T10:47:22Z</time>
      </trkpt>
      <trkpt lat="48.99307" lon="7.66268">
        <ele>228.3</ele>
        <time>2026-03-10T10:47:27Z</time>
      </trkpt>
      <trkpt lat="48.99312" lon="7.66262">
        <ele>228</ele>
        <time>2026-03-10T10:47:32Z</time>
      </trkpt>
      <trkpt lat="48.99316" lon="7.66258">
        <ele>227.7</ele>
        <time>2026-03-10T10:47:37Z</time>
      </trkpt>
      <trkpt lat="48.9932" lon="7.66251">
        <ele>227.1</ele>
        <time>2026-03-10T10:47:42Z</time>
      </trkpt>
      <trkpt lat="48.99324" lon="7.66241">
        <ele>226.7</ele>
        <time>2026-03-10T10:47:47Z</time>
      </trkpt>
      <trkpt lat="48.99331" lon="7.66235">
        <ele>226.3</ele>
        <time>2026-03-10T10:47:52Z</time>
      </trkpt>
      <trkpt lat="48.99334" lon="7.66228">
        <ele>226.1</ele>
        <time>2026-03-10T10:47:57Z</time>
      </trkpt>
      <trkpt lat="48.9934" lon="7.66222">
        <ele>227</ele>
        <time>2026-03-10T10:48:02Z</time>
      </trkpt>
      <trkpt lat="48.99346" lon="7.66215">
        <ele>227.7</ele>
        <time>2026-03-10T10:48:07Z</time>
      </trkpt>
      <trkpt lat="48.99349" lon="7.66208">
        <ele>227.7</ele>
        <time>2026-03-10T10:48:12Z</time>
      </trkpt>
      <trkpt lat="48.99353" lon="7.66204">
        <ele>228</ele>
        <time>2026-03-10T10:48:17Z</time>
      </trkpt>
      <trkpt lat="48.99358" lon="7.66199">
        <ele>228.3</ele>
        <time>2026-03-10T10:48:22Z</time>
      </trkpt>
      <trkpt lat="48.99362" lon="7.66195">
        <ele>228.4</ele>
        <time>2026-03-10T10:48:27Z</time>
      </trkpt>
      <trkpt lat="48.99368" lon="7.66189">
        <ele>228.5</ele>
        <time>2026-03-10T10:48:32Z</time>
      </trkpt>
      <trkpt lat="48.99374" lon="7.66186">
        <ele>228.8</ele>
        <time>2026-03-10T10:48:37Z</time>
      </trkpt>
      <trkpt lat="48.99379" lon="7.66179">
        <ele>228.3</ele>
        <time>2026-03-10T10:48:42Z</time>
      </trkpt>
      <trkpt lat="48.99383" lon="7.66172">
        <ele>227.5</ele>
        <time>2026-03-10T10:48:47Z</time>
      </trkpt>
      <trkpt lat="48.99386" lon="7.66171">
        <ele>227.6</ele>
        <time>2026-03-10T10:48:52Z</time>
      </trkpt>
      <trkpt lat="48.99391" lon="7.66168">
        <ele>227.4</ele>
        <time>2026-03-10T10:48:57Z</time>
      </trkpt>
      <trkpt lat="48.99397" lon="7.66163">
        <ele>227.3</ele>
        <time>2026-03-10T10:49:02Z</time>
      </trkpt>
      <trkpt lat="48.99399" lon="7.66159">
        <ele>227</ele>
        <time>2026-03-10T10:49:07Z</time>
      </trkpt>
      <trkpt lat="48.99399" lon="7.66157">
        <ele>226.8</ele>
        <time>2026-03-10T10:49:12Z</time>
      </trkpt>
      <trkpt lat="48.99399" lon="7.66157">
        <ele>226.8</ele>
        <time>2026-03-10T10:49:17Z</time>
      </trkpt>
      <trkpt lat="48.99402" lon="7.66153">
        <ele>226.6</ele>
        <time>2026-03-10T10:49:22Z</time>
      </trkpt>
      <trkpt lat="48.99405" lon="7.66149">
        <ele>226.4</ele>
        <time>2026-03-10T10:49:27Z</time>
      </trkpt>
      <trkpt lat="48.99411" lon="7.66146">
        <ele>226.3</ele>
        <time>2026-03-10T10:49:32Z</time>
      </trkpt>
      <trkpt lat="48.99412" lon="7.66146">
        <ele>226.3</ele>
        <time>2026-03-10T10:49:37Z</time>
      </trkpt>
      <trkpt lat="48.99415" lon="7.66144">
        <ele>226.2</ele>
        <time>2026-03-10T10:49:42Z</time>
      </trkpt>
      <trkpt lat="48.99419" lon="7.66143">
        <ele>226.8</ele>
        <time>2026-03-10T10:49:47Z</time>
      </trkpt>
      <trkpt lat="48.99425" lon="7.66143">
        <ele>228.3</ele>
        <time>2026-03-10T10:49:52Z</time>
      </trkpt>
      <trkpt lat="48.99428" lon="7.6614">
        <ele>228.6</ele>
        <time>2026-03-10T10:49:57Z</time>
      </trkpt>
      <trkpt lat="48.99433" lon="7.66136">
        <ele>229.3</ele>
        <time>2026-03-10T10:50:02Z</time>
      </trkpt>
      <trkpt lat="48.99436" lon="7.66133">
        <ele>229.5</ele>
        <time>2026-03-10T10:50:07Z</time>
      </trkpt>
      <trkpt lat="48.99436" lon="7.6613">
        <ele>229.1</ele>
        <time>2026-03-10T10:50:12Z</time>
      </trkpt>
      <trkpt lat="48.99436" lon="7.66128">
        <ele>228.8</ele>
        <time>2026-03-10T10:50:17Z</time>
      </trkpt>
      <trkpt lat="48.99436" lon="7.66128">
        <ele>228.8</ele>
        <time>2026-03-10T10:50:22Z</time>
      </trkpt>
      <trkpt lat="48.99436" lon="7.66128">
        <ele>228.8</ele>
        <time>2026-03-10T10:50:27Z</time>
      </trkpt>
      <trkpt lat="48.99443" lon="7.66128">
        <ele>230.4</ele>
        <time>2026-03-10T10:50:32Z</time>
      </trkpt>
      <trkpt lat="48.99446" lon="7.66124">
        <ele>230.3</ele>
        <time>2026-03-10T10:50:37Z</time>
      </trkpt>
      <trkpt lat="48.9945" lon="7.66118">
        <ele>230.1</ele>
        <time>2026-03-10T10:50:42Z</time>
      </trkpt>
      <trkpt lat="48.99454" lon="7.66114">
        <ele>230.2</ele>
        <time>2026-03-10T10:50:47Z</time>
      </trkpt>
      <trkpt lat="48.99461" lon="7.66108">
        <ele>230.4</ele>
        <time>2026-03-10T10:50:52Z</time>
      </trkpt>
      <trkpt lat="48.99469" lon="7.66103">
        <ele>230.8</ele>
        <time>2026-03-10T10:50:57Z</time>
      </trkpt>
      <trkpt lat="48.99468" lon="7.66096">
        <ele>229.1</ele>
        <time>2026-03-10T10:51:02Z</time>
      </trkpt>
      <trkpt lat="48.99469" lon="7.66086">
        <ele>227.1</ele>
        <time>2026-03-10T10:51:07Z</time>
      </trkpt>
      <trkpt lat="48.99474" lon="7.66081">
        <ele>227</ele>
        <time>2026-03-10T10:51:12Z</time>
      </trkpt>
      <trkpt lat="48.9948" lon="7.66079">
        <ele>227.6</ele>
        <time>2026-03-10T10:51:17Z</time>
      </trkpt>
      <trkpt lat="48.99487" lon="7.6608">
        <ele>228.7</ele>
        <time>2026-03-10T10:51:22Z</time>
      </trkpt>
      <trkpt lat="48.99494" lon="7.6608">
        <ele>229.7</ele>
        <time>2026-03-10T10:51:27Z</time>
      </trkpt>
      <trkpt lat="48.99502" lon="7.66082">
        <ele>231.1</ele>
        <time>2026-03-10T10:51:32Z</time>
      </trkpt>
      <trkpt lat="48.9951" lon="7.66082">
        <ele>232.5</ele>
        <time>2026-03-10T10:51:37Z</time>
      </trkpt>
      <trkpt lat="48.99516" lon="7.66083">
        <ele>233.6</ele>
        <time>2026-03-10T10:51:42Z</time>
      </trkpt>
      <trkpt lat="48.99521" lon="7.66082">
        <ele>234.3</ele>
        <time>2026-03-10T10:51:47Z</time>
      </trkpt>
      <trkpt lat="48.99524" lon="7.66081">
        <ele>234.6</ele>
        <time>2026-03-10T10:51:52Z</time>
      </trkpt>
      <trkpt lat="48.99526" lon="7.6608">
        <ele>234.7</ele>
        <time>2026-03-10T10:51:57Z</time>
      </trkpt>
      <trkpt lat="48.99532" lon="7.66084">
        <ele>236.6</ele>
        <time>2026-03-10T10:52:02Z</time>
      </trkpt>
      <trkpt lat="48.99537" lon="7.66084">
        <ele>237.4</ele>
        <time>2026-03-10T10:52:07Z</time>
      </trkpt>
      <trkpt lat="48.99541" lon="7.66082">
        <ele>237.6</ele>
        <time>2026-03-10T10:52:12Z</time>
      </trkpt>
      <trkpt lat="48.99546" lon="7.66082">
        <ele>238.4</ele>
        <time>2026-03-10T10:52:17Z</time>
      </trkpt>
      <trkpt lat="48.99551" lon="7.66083">
        <ele>239.5</ele>
        <time>2026-03-10T10:52:22Z</time>
      </trkpt>
      <trkpt lat="48.99556" lon="7.66088">
        <ele>241.7</ele>
        <time>2026-03-10T10:52:27Z</time>
      </trkpt>
      <trkpt lat="48.99562" lon="7.66095">
        <ele>244.7</ele>
        <time>2026-03-10T10:52:32Z</time>
      </trkpt>
      <trkpt lat="48.99568" lon="7.66099">
        <ele>246.9</ele>
        <time>2026-03-10T10:52:37Z</time>
      </trkpt>
      <trkpt lat="48.99574" lon="7.66103">
        <ele>249.1</ele>
        <time>2026-03-10T10:52:42Z</time>
      </trkpt>
      <trkpt lat="48.9958" lon="7.66106">
        <ele>251</ele>
        <time>2026-03-10T10:52:47Z</time>
      </trkpt>
      <trkpt lat="48.99585" lon="7.66111">
        <ele>252.9</ele>
        <time>2026-03-10T10:52:52Z</time>
      </trkpt>
      <trkpt lat="48.99589" lon="7.66115">
        <ele>254</ele>
        <time>2026-03-10T10:52:57Z</time>
      </trkpt>
      <trkpt lat="48.99594" lon="7.66118">
        <ele>254.8</ele>
        <time>2026-03-10T10:53:02Z</time>
      </trkpt>
      <trkpt lat="48.99601" lon="7.66123">
        <ele>256.1</ele>
        <time>2026-03-10T10:53:07Z</time>
      </trkpt>
      <trkpt lat="48.99606" lon="7.66128">
        <ele>257.5</ele>
        <time>2026-03-10T10:53:12Z</time>
      </trkpt>
      <trkpt lat="48.99611" lon="7.66132">
        <ele>258.5</ele>
        <time>2026-03-10T10:53:17Z</time>
      </trkpt>
      <trkpt lat="48.99617" lon="7.66135">
        <ele>259.3</ele>
        <time>2026-03-10T10:53:22Z</time>
      </trkpt>
      <trkpt lat="48.99624" lon="7.66132">
        <ele>258.3</ele>
        <time>2026-03-10T10:53:27Z</time>
      </trkpt>
      <trkpt lat="48.99627" lon="7.66124">
        <ele>255.9</ele>
        <time>2026-03-10T10:53:32Z</time>
      </trkpt>
      <trkpt lat="48.99628" lon="7.66117">
        <ele>253.8</ele>
        <time>2026-03-10T10:53:37Z</time>
      </trkpt>
      <trkpt lat="48.9963" lon="7.66109">
        <ele>251.4</ele>
        <time>2026-03-10T10:53:42Z</time>
      </trkpt>
      <trkpt lat="48.99631" lon="7.66105">
        <ele>250.2</ele>
        <time>2026-03-10T10:53:47Z</time>
      </trkpt>
      <trkpt lat="48.99632" lon="7.661">
        <ele>248.7</ele>
        <time>2026-03-10T10:53:52Z</time>
      </trkpt>
      <trkpt lat="48.99632" lon="7.66096">
        <ele>247.6</ele>
        <time>2026-03-10T10:53:57Z</time>
      </trkpt>
      <trkpt lat="48.99633" lon="7.6609">
        <ele>245.8</ele>
        <time>2026-03-10T10:54:02Z</time>
      </trkpt>
      <trkpt lat="48.99634" lon="7.66083">
        <ele>243.7</ele>
        <time>2026-03-10T10:54:07Z</time>
      </trkpt>
      <trkpt lat="48.99635" lon="7.66077">
        <ele>242.1</ele>
        <time>2026-03-10T10:54:12Z</time>
      </trkpt>
      <trkpt lat="48.99636" lon="7.66072">
        <ele>240.8</ele>
        <time>2026-03-10T10:54:17Z</time>
      </trkpt>
      <trkpt lat="48.99638" lon="7.66068">
        <ele>239.8</ele>
        <time>2026-03-10T10:54:22Z</time>
      </trkpt>
      <trkpt lat="48.99639" lon="7.66062">
        <ele>238.2</ele>
        <time>2026-03-10T10:54:27Z</time>
      </trkpt>
      <trkpt lat="48.99638" lon="7.66057">
        <ele>236.9</ele>
        <time>2026-03-10T10:54:32Z</time>
      </trkpt>
      <trkpt lat="48.99632" lon="7.66053">
        <ele>235.9</ele>
        <time>2026-03-10T10:54:37Z</time>
      </trkpt>
      <trkpt lat="48.99626" lon="7.66052">
        <ele>235.7</ele>
        <time>2026-03-10T10:54:42Z</time>
      </trkpt>
      <trkpt lat="48.9962" lon="7.66051">
        <ele>235.5</ele>
        <time>2026-03-10T10:54:47Z</time>
      </trkpt>
      <trkpt lat="48.99614" lon="7.66049">
        <ele>235</ele>
        <time>2026-03-10T10:54:52Z</time>
      </trkpt>
      <trkpt lat="48.99608" lon="7.66048">
        <ele>234.7</ele>
        <time>2026-03-10T10:54:57Z</time>
      </trkpt>
      <trkpt lat="48.996" lon="7.66046">
        <ele>234.2</ele>
        <time>2026-03-10T10:55:02Z</time>
      </trkpt>
      <trkpt lat="48.99591" lon="7.66044">
        <ele>233.7</ele>
        <time>2026-03-10T10:55:07Z</time>
      </trkpt>
      <trkpt lat="48.99584" lon="7.66041">
        <ele>232.8</ele>
        <time>2026-03-10T10:55:12Z</time>
      </trkpt>
      <trkpt lat="48.99579" lon="7.6604">
        <ele>232.1</ele>
        <time>2026-03-10T10:55:17Z</time>
      </trkpt>
      <trkpt lat="48.99574" lon="7.66036">
        <ele>230.6</ele>
        <time>2026-03-10T10:55:22Z</time>
      </trkpt>
      <trkpt lat="48.99567" lon="7.66032">
        <ele>228.9</ele>
        <time>2026-03-10T10:55:27Z</time>
      </trkpt>
      <trkpt lat="48.9956" lon="7.66028">
        <ele>227.4</ele>
        <time>2026-03-10T10:55:32Z</time>
      </trkpt>
      <trkpt lat="48.99554" lon="7.66028">
        <ele>226.9</ele>
        <time>2026-03-10T10:55:37Z</time>
      </trkpt>
      <trkpt lat="48.99547" lon="7.66024">
        <ele>225.5</ele>
        <time>2026-03-10T10:55:42Z</time>
      </trkpt>
      <trkpt lat="48.9954" lon="7.66021">
        <ele>224.4</ele>
        <time>2026-03-10T10:55:47Z</time>
      </trkpt>
      <trkpt lat="48.99535" lon="7.6602">
        <ele>223.9</ele>
        <time>2026-03-10T10:55:52Z</time>
      </trkpt>
      <trkpt lat="48.99528" lon="7.66017">
        <ele>222.9</ele>
        <time>2026-03-10T10:55:57Z</time>
      </trkpt>
      <trkpt lat="48.9952" lon="7.66015">
        <ele>222.2</ele>
        <time>2026-03-10T10:56:02Z</time>
      </trkpt>
      <trkpt lat="48.99513" lon="7.66013">
        <ele>221.5</ele>
        <time>2026-03-10T10:56:07Z</time>
      </trkpt>
      <trkpt lat="48.99505" lon="7.66012">
        <ele>221</ele>
        <time>2026-03-10T10:56:12Z</time>
      </trkpt>
      <trkpt lat="48.99497" lon="7.66009">
        <ele>220.2</ele>
        <time>2026-03-10T10:56:17Z</time>
      </trkpt>
      <trkpt lat="48.99491" lon="7.6601">
        <ele>220.3</ele>
        <time>2026-03-10T10:56:22Z</time>
      </trkpt>
      <trkpt lat="48.99487" lon="7.66011">
        <ele>220.3</ele>
        <time>2026-03-10T10:56:27Z</time>
      </trkpt>
      <trkpt lat="48.99486" lon="7.66012">
        <ele>220.4</ele>
        <time>2026-03-10T10:56:32Z</time>
      </trkpt>
      <trkpt lat="48.99486" lon="7.66011">
        <ele>220.3</ele>
        <time>2026-03-10T10:56:37Z</time>
      </trkpt>
      <trkpt lat="48.99486" lon="7.66011">
        <ele>220.3</ele>
        <time>2026-03-10T10:56:42Z</time>
      </trkpt>
      <trkpt lat="48.99487" lon="7.66011">
        <ele>220.3</ele>
        <time>2026-03-10T10:56:47Z</time>
      </trkpt>
      <trkpt lat="48.99488" lon="7.66005">
        <ele>219.6</ele>
        <time>2026-03-10T10:56:52Z</time>
      </trkpt>
      <trkpt lat="48.99489" lon="7.65998">
        <ele>219</ele>
        <time>2026-03-10T10:56:57Z</time>
      </trkpt>
      <trkpt lat="48.99489" lon="7.65996">
        <ele>219.1</ele>
        <time>2026-03-10T10:57:02Z</time>
      </trkpt>
      <trkpt lat="48.99491" lon="7.65991">
        <ele>219.2</ele>
        <time>2026-03-10T10:57:07Z</time>
      </trkpt>
      <trkpt lat="48.99492" lon="7.65982">
        <ele>219.3</ele>
        <time>2026-03-10T10:57:12Z</time>
      </trkpt>
      <trkpt lat="48.99494" lon="7.65974">
        <ele>219.4</ele>
        <time>2026-03-10T10:57:17Z</time>
      </trkpt>
      <trkpt lat="48.99496" lon="7.65965">
        <ele>219.5</ele>
        <time>2026-03-10T10:57:22Z</time>
      </trkpt>
      <trkpt lat="48.99498" lon="7.65952">
        <ele>219.7</ele>
        <time>2026-03-10T10:57:27Z</time>
      </trkpt>
      <trkpt lat="48.99502" lon="7.6594">
        <ele>219.7</ele>
        <time>2026-03-10T10:57:32Z</time>
      </trkpt>
      <trkpt lat="48.99503" lon="7.65933">
        <ele>219.7</ele>
        <time>2026-03-10T10:57:37Z</time>
      </trkpt>
      <trkpt lat="48.99507" lon="7.65925">
        <ele>219.7</ele>
        <time>2026-03-10T10:57:42Z</time>
      </trkpt>
      <trkpt lat="48.9951" lon="7.65917">
        <ele>219.6</ele>
        <time>2026-03-10T10:57:47Z</time>
      </trkpt>
      <trkpt lat="48.99514" lon="7.65908">
        <ele>220.2</ele>
        <time>2026-03-10T10:57:52Z</time>
      </trkpt>
      <trkpt lat="48.99518" lon="7.659">
        <ele>220.6</ele>
        <time>2026-03-10T10:57:57Z</time>
      </trkpt>
      <trkpt lat="48.99522" lon="7.65893">
        <ele>220.9</ele>
        <time>2026-03-10T10:58:02Z</time>
      </trkpt>
      <trkpt lat="48.99523" lon="7.65884">
        <ele>221.5</ele>
        <time>2026-03-10T10:58:07Z</time>
      </trkpt>
      <trkpt lat="48.99522" lon="7.65878">
        <ele>222</ele>
        <time>2026-03-10T10:58:12Z</time>
      </trkpt>
      <trkpt lat="48.99521" lon="7.6587">
        <ele>222.6</ele>
        <time>2026-03-10T10:58:17Z</time>
      </trkpt>
      <trkpt lat="48.99517" lon="7.65859">
        <ele>223.7</ele>
        <time>2026-03-10T10:58:22Z</time>
      </trkpt>
      <trkpt lat="48.99513" lon="7.65846">
        <ele>224.9</ele>
        <time>2026-03-10T10:58:27Z</time>
      </trkpt>
      <trkpt lat="48.99505" lon="7.65835">
        <ele>226.4</ele>
        <time>2026-03-10T10:58:32Z</time>
      </trkpt>
      <trkpt lat="48.99501" lon="7.65829">
        <ele>227.3</ele>
        <time>2026-03-10T10:58:37Z</time>
      </trkpt>
      <trkpt lat="48.99496" lon="7.65824">
        <ele>228.2</ele>
        <time>2026-03-10T10:58:42Z</time>
      </trkpt>
      <trkpt lat="48.99492" lon="7.6582">
        <ele>228.8</ele>
        <time>2026-03-10T10:58:47Z</time>
      </trkpt>
      <trkpt lat="48.99485" lon="7.65813">
        <ele>229.8</ele>
        <time>2026-03-10T10:58:52Z</time>
      </trkpt>
      <trkpt lat="48.99479" lon="7.65807">
        <ele>230.6</ele>
        <time>2026-03-10T10:58:57Z</time>
      </trkpt>
      <trkpt lat="48.99474" lon="7.65803">
        <ele>231.2</ele>
        <time>2026-03-10T10:59:02Z</time>
      </trkpt>
      <trkpt lat="48.99474" lon="7.65803">
        <ele>231.2</ele>
        <time>2026-03-10T10:59:07Z</time>
      </trkpt>
      <trkpt lat="48.99474" lon="7.65803">
        <ele>231.2</ele>
        <time>2026-03-10T10:59:12Z</time>
      </trkpt>
      <trkpt lat="48.99474" lon="7.65803">
        <ele>231.2</ele>
        <time>2026-03-10T10:59:17Z</time>
      </trkpt>
      <trkpt lat="48.99474" lon="7.65803">
        <ele>231.2</ele>
        <time>2026-03-10T10:59:22Z</time>
      </trkpt>
      <trkpt lat="48.99474" lon="7.65803">
        <ele>231.2</ele>
        <time>2026-03-10T10:59:27Z</time>
      </trkpt>
      <trkpt lat="48.9947" lon="7.65803">
        <ele>231.4</ele>
        <time>2026-03-10T10:59:32Z</time>
      </trkpt>
      <trkpt lat="48.99464" lon="7.65796">
        <ele>232.2</ele>
        <time>2026-03-10T10:59:37Z</time>
      </trkpt>
      <trkpt lat="48.99459" lon="7.65788">
        <ele>233</ele>
        <time>2026-03-10T10:59:42Z</time>
      </trkpt>
      <trkpt lat="48.99454" lon="7.65781">
        <ele>233.6</ele>
        <time>2026-03-10T10:59:47Z</time>
      </trkpt>
      <trkpt lat="48.99449" lon="7.65774">
        <ele>234.2</ele>
        <time>2026-03-10T10:59:52Z</time>
      </trkpt>
      <trkpt lat="48.9945" lon="7.65765">
        <ele>234.7</ele>
        <time>2026-03-10T10:59:57Z</time>
      </trkpt>
      <trkpt lat="48.99453" lon="7.65755">
        <ele>235.3</ele>
        <time>2026-03-10T11:00:02Z</time>
      </trkpt>
      <trkpt lat="48.99455" lon="7.65748">
        <ele>235.6</ele>
        <time>2026-03-10T11:00:07Z</time>
      </trkpt>
      <trkpt lat="48.99456" lon="7.6574">
        <ele>235.7</ele>
        <time>2026-03-10T11:00:12Z</time>
      </trkpt>
      <trkpt lat="48.9946" lon="7.6573">
        <ele>235.8</ele>
        <time>2026-03-10T11:00:17Z</time>
      </trkpt>
      <trkpt lat="48.99462" lon="7.65722">
        <ele>235.9</ele>
        <time>2026-03-10T11:00:22Z</time>
      </trkpt>
      <trkpt lat="48.99461" lon="7.65715">
        <ele>236.1</ele>
        <time>2026-03-10T11:00:27Z</time>
      </trkpt>
      <trkpt lat="48.99459" lon="7.65704">
        <ele>236.3</ele>
        <time>2026-03-10T11:00:32Z</time>
      </trkpt>
      <trkpt lat="48.99459" lon="7.65694">
        <ele>236.5</ele>
        <time>2026-03-10T11:00:37Z</time>
      </trkpt>
      <trkpt lat="48.99459" lon="7.65686">
        <ele>236.6</ele>
        <time>2026-03-10T11:00:42Z</time>
      </trkpt>
      <trkpt lat="48.99457" lon="7.65676">
        <ele>236.9</ele>
        <time>2026-03-10T11:00:47Z</time>
      </trkpt>
      <trkpt lat="48.99457" lon="7.65666">
        <ele>237.1</ele>
        <time>2026-03-10T11:00:52Z</time>
      </trkpt>
      <trkpt lat="48.99456" lon="7.65656">
        <ele>237</ele>
        <time>2026-03-10T11:00:57Z</time>
      </trkpt>
      <trkpt lat="48.99455" lon="7.65647">
        <ele>236.9</ele>
        <time>2026-03-10T11:01:02Z</time>
      </trkpt>
      <trkpt lat="48.99453" lon="7.65638">
        <ele>237</ele>
        <time>2026-03-10T11:01:07Z</time>
      </trkpt>
      <trkpt lat="48.9945" lon="7.6563">
        <ele>237</ele>
        <time>2026-03-10T11:01:12Z</time>
      </trkpt>
      <trkpt lat="48.99447" lon="7.65623">
        <ele>237.2</ele>
        <time>2026-03-10T11:01:17Z</time>
      </trkpt>
      <trkpt lat="48.99442" lon="7.65614">
        <ele>237.4</ele>
        <time>2026-03-10T11:01:22Z</time>
      </trkpt>
      <trkpt lat="48.99439" lon="7.65607">
        <ele>237.5</ele>
        <time>2026-03-10T11:01:27Z</time>
      </trkpt>
      <trkpt lat="48.99437" lon="7.65599">
        <ele>237.6</ele>
        <time>2026-03-10T11:01:32Z</time>
      </trkpt>
      <trkpt lat="48.99433" lon="7.65592">
        <ele>237.9</ele>
        <time>2026-03-10T11:01:37Z</time>
      </trkpt>
      <trkpt lat="48.9943" lon="7.65585">
        <ele>238</ele>
        <time>2026-03-10T11:01:42Z</time>
      </trkpt>
      <trkpt lat="48.99426" lon="7.65577">
        <ele>238.3</ele>
        <time>2026-03-10T11:01:47Z</time>
      </trkpt>
      <trkpt lat="48.99423" lon="7.65569">
        <ele>238.5</ele>
        <time>2026-03-10T11:01:52Z</time>
      </trkpt>
      <trkpt lat="48.9942" lon="7.6556">
        <ele>238.7</ele>
        <time>2026-03-10T11:01:57Z</time>
      </trkpt>
      <trkpt lat="48.99415" lon="7.65553">
        <ele>239</ele>
        <time>2026-03-10T11:02:02Z</time>
      </trkpt>
      <trkpt lat="48.99413" lon="7.65546">
        <ele>239</ele>
        <time>2026-03-10T11:02:07Z</time>
      </trkpt>
      <trkpt lat="48.99412" lon="7.65539">
        <ele>239</ele>
        <time>2026-03-10T11:02:12Z</time>
      </trkpt>
      <trkpt lat="48.9941" lon="7.65532">
        <ele>239</ele>
        <time>2026-03-10T11:02:17Z</time>
      </trkpt>
      <trkpt lat="48.99408" lon="7.65525">
        <ele>238.9</ele>
        <time>2026-03-10T11:02:22Z</time>
      </trkpt>
      <trkpt lat="48.99406" lon="7.65514">
        <ele>238.8</ele>
        <time>2026-03-10T11:02:27Z</time>
      </trkpt>
      <trkpt lat="48.99402" lon="7.65502">
        <ele>238.7</ele>
        <time>2026-03-10T11:02:32Z</time>
      </trkpt>
      <trkpt lat="48.99398" lon="7.65496">
        <ele>238.6</ele>
        <time>2026-03-10T11:02:37Z</time>
      </trkpt>
      <trkpt lat="48.99394" lon="7.65491">
        <ele>238.4</ele>
        <time>2026-03-10T11:02:42Z</time>
      </trkpt>
      <trkpt lat="48.99391" lon="7.65484">
        <ele>238.3</ele>
        <time>2026-03-10T11:02:47Z</time>
      </trkpt>
      <trkpt lat="48.99389" lon="7.65477">
        <ele>238.2</ele>
        <time>2026-03-10T11:02:52Z</time>
      </trkpt>
      <trkpt lat="48.99387" lon="7.6547">
        <ele>238.1</ele>
        <time>2026-03-10T11:02:57Z</time>
      </trkpt>
      <trkpt lat="48.99386" lon="7.65462">
        <ele>238</ele>
        <time>2026-03-10T11:03:02Z</time>
      </trkpt>
      <trkpt lat="48.99382" lon="7.65455">
        <ele>237.8</ele>
        <time>2026-03-10T11:03:07Z</time>
      </trkpt>
      <trkpt lat="48.99379" lon="7.65451">
        <ele>237.6</ele>
        <time>2026-03-10T11:03:12Z</time>
      </trkpt>
      <trkpt lat="48.99376" lon="7.65445">
        <ele>237.4</ele>
        <time>2026-03-10T11:03:17Z</time>
      </trkpt>
      <trkpt lat="48.99373" lon="7.65437">
        <ele>237.1</ele>
        <time>2026-03-10T11:03:22Z</time>
      </trkpt>
      <trkpt lat="48.99371" lon="7.65432">
        <ele>236.9</ele>
        <time>2026-03-10T11:03:27Z</time>
      </trkpt>
      <trkpt lat="48.99369" lon="7.65428">
        <ele>236.7</ele>
        <time>2026-03-10T11:03:32Z</time>
      </trkpt>
      <trkpt lat="48.99367" lon="7.65424">
        <ele>236.5</ele>
        <time>2026-03-10T11:03:37Z</time>
      </trkpt>
      <trkpt lat="48.99364" lon="7.6542">
        <ele>236.3</ele>
        <time>2026-03-10T11:03:42Z</time>
      </trkpt>
      <trkpt lat="48.99363" lon="7.65416">
        <ele>236.1</ele>
        <time>2026-03-10T11:03:47Z</time>
      </trkpt>
      <trkpt lat="48.99362" lon="7.65414">
        <ele>236.1</ele>
        <time>2026-03-10T11:03:52Z</time>
      </trkpt>
      <trkpt lat="48.99359" lon="7.65407">
        <ele>235.9</ele>
        <time>2026-03-10T11:03:57Z</time>
      </trkpt>
      <trkpt lat="48.99357" lon="7.65402">
        <ele>235.8</ele>
        <time>2026-03-10T11:04:02Z</time>
      </trkpt>
      <trkpt lat="48.99357" lon="7.65399">
        <ele>235.9</ele>
        <time>2026-03-10T11:04:07Z</time>
      </trkpt>
      <trkpt lat="48.99357" lon="7.65399">
        <ele>235.9</ele>
        <time>2026-03-10T11:04:12Z</time>
      </trkpt>
      <trkpt lat="48.99357" lon="7.65399">
        <ele>235.9</ele>
        <time>2026-03-10T11:04:17Z</time>
      </trkpt>
      <trkpt lat="48.99357" lon="7.65399">
        <ele>235.9</ele>
        <time>2026-03-10T11:04:22Z</time>
      </trkpt>
      <trkpt lat="48.99356" lon="7.65397">
        <ele>235.8</ele>
        <time>2026-03-10T11:04:27Z</time>
      </trkpt>
      <trkpt lat="48.99354" lon="7.65393">
        <ele>235.7</ele>
        <time>2026-03-10T11:04:32Z</time>
      </trkpt>
      <trkpt lat="48.99353" lon="7.65388">
        <ele>235.7</ele>
        <time>2026-03-10T11:04:37Z</time>
      </trkpt>
      <trkpt lat="48.99349" lon="7.65382">
        <ele>235.5</ele>
        <time>2026-03-10T11:04:42Z</time>
      </trkpt>
      <trkpt lat="48.99345" lon="7.65376">
        <ele>235.3</ele>
        <time>2026-03-10T11:04:47Z</time>
      </trkpt>
      <trkpt lat="48.99339" lon="7.6537">
        <ele>234.9</ele>
        <time>2026-03-10T11:04:52Z</time>
      </trkpt>
      <trkpt lat="48.99332" lon="7.65364">
        <ele>234.9</ele>
        <time>2026-03-10T11:04:57Z</time>
      </trkpt>
      <trkpt lat="48.99329" lon="7.65356">
        <ele>235.5</ele>
        <time>2026-03-10T11:05:02Z</time>
      </trkpt>
      <trkpt lat="48.99329" lon="7.65356">
        <ele>235.5</ele>
        <time>2026-03-10T11:05:07Z</time>
      </trkpt>
      <trkpt lat="48.99329" lon="7.65356">
        <ele>235.5</ele>
        <time>2026-03-10T11:05:12Z</time>
      </trkpt>
      <trkpt lat="48.99329" lon="7.65356">
        <ele>235.5</ele>
        <time>2026-03-10T11:05:17Z</time>
      </trkpt>
      <trkpt lat="48.99329" lon="7.65356">
        <ele>235.5</ele>
        <time>2026-03-10T11:05:22Z</time>
      </trkpt>
      <trkpt lat="48.99329" lon="7.65356">
        <ele>235.5</ele>
        <time>2026-03-10T11:05:27Z</time>
      </trkpt>
      <trkpt lat="48.99329" lon="7.65356">
        <ele>235.5</ele>
        <time>2026-03-10T11:05:32Z</time>
      </trkpt>
      <trkpt lat="48.99329" lon="7.65356">
        <ele>235.5</ele>
        <time>2026-03-10T11:05:37Z</time>
      </trkpt>
      <trkpt lat="48.99329" lon="7.65356">
        <ele>235.5</ele>
        <time>2026-03-10T11:05:42Z</time>
      </trkpt>
      <trkpt lat="48.99329" lon="7.65356">
        <ele>235.5</ele>
        <time>2026-03-10T11:05:47Z</time>
      </trkpt>
      <trkpt lat="48.99331" lon="7.65349">
        <ele>235.2</ele>
        <time>2026-03-10T11:05:52Z</time>
      </trkpt>
      <trkpt lat="48.99328" lon="7.65341">
        <ele>235.9</ele>
        <time>2026-03-10T11:05:57Z</time>
      </trkpt>
      <trkpt lat="48.99326" lon="7.65332">
        <ele>236.3</ele>
        <time>2026-03-10T11:06:02Z</time>
      </trkpt>
      <trkpt lat="48.99324" lon="7.65326">
        <ele>236.8</ele>
        <time>2026-03-10T11:06:07Z</time>
      </trkpt>
      <trkpt lat="48.99322" lon="7.65319">
        <ele>237.2</ele>
        <time>2026-03-10T11:06:12Z</time>
      </trkpt>
      <trkpt lat="48.99318" lon="7.65311">
        <ele>238.1</ele>
        <time>2026-03-10T11:06:17Z</time>
      </trkpt>
      <trkpt lat="48.99316" lon="7.65301">
        <ele>238.6</ele>
        <time>2026-03-10T11:06:22Z</time>
      </trkpt>
      <trkpt lat="48.99315" lon="7.65292">
        <ele>238.9</ele>
        <time>2026-03-10T11:06:27Z</time>
      </trkpt>
      <trkpt lat="48.99316" lon="7.65283">
        <ele>238.8</ele>
        <time>2026-03-10T11:06:32Z</time>
      </trkpt>
      <trkpt lat="48.99314" lon="7.65276">
        <ele>239.3</ele>
        <time>2026-03-10T11:06:37Z</time>
      </trkpt>
      <trkpt lat="48.99313" lon="7.65268">
        <ele>239.6</ele>
        <time>2026-03-10T11:06:42Z</time>
      </trkpt>
      <trkpt lat="48.99309" lon="7.65259">
        <ele>240.5</ele>
        <time>2026-03-10T11:06:47Z</time>
      </trkpt>
      <trkpt lat="48.99308" lon="7.65247">
        <ele>240.9</ele>
        <time>2026-03-10T11:06:52Z</time>
      </trkpt>
      <trkpt lat="48.99308" lon="7.65238">
        <ele>241</ele>
        <time>2026-03-10T11:06:57Z</time>
      </trkpt>
      <trkpt lat="48.99306" lon="7.65227">
        <ele>241.5</ele>
        <time>2026-03-10T11:07:02Z</time>
      </trkpt>
      <trkpt lat="48.99306" lon="7.65212">
        <ele>241.7</ele>
        <time>2026-03-10T11:07:07Z</time>
      </trkpt>
      <trkpt lat="48.99307" lon="7.65202">
        <ele>241.7</ele>
        <time>2026-03-10T11:07:12Z</time>
      </trkpt>
      <trkpt lat="48.9931" lon="7.65198">
        <ele>241.4</ele>
        <time>2026-03-10T11:07:17Z</time>
      </trkpt>
      <trkpt lat="48.99312" lon="7.65191">
        <ele>241.3</ele>
        <time>2026-03-10T11:07:22Z</time>
      </trkpt>
      <trkpt lat="48.99313" lon="7.65184">
        <ele>241.3</ele>
        <time>2026-03-10T11:07:27Z</time>
      </trkpt>
      <trkpt lat="48.99316" lon="7.65177">
        <ele>241.2</ele>
        <time>2026-03-10T11:07:32Z</time>
      </trkpt>
      <trkpt lat="48.99318" lon="7.65168">
        <ele>241.3</ele>
        <time>2026-03-10T11:07:37Z</time>
      </trkpt>
      <trkpt lat="48.9932" lon="7.65158">
        <ele>241.4</ele>
        <time>2026-03-10T11:07:42Z</time>
      </trkpt>
      <trkpt lat="48.9932" lon="7.65149">
        <ele>241.7</ele>
        <time>2026-03-10T11:07:47Z</time>
      </trkpt>
      <trkpt lat="48.9932" lon="7.65141">
        <ele>242</ele>
        <time>2026-03-10T11:07:52Z</time>
      </trkpt>
      <trkpt lat="48.9932" lon="7.65132">
        <ele>242.3</ele>
        <time>2026-03-10T11:07:57Z</time>
      </trkpt>
      <trkpt lat="48.99322" lon="7.65121">
        <ele>242.6</ele>
        <time>2026-03-10T11:08:02Z</time>
      </trkpt>
      <trkpt lat="48.99324" lon="7.65111">
        <ele>242.9</ele>
        <time>2026-03-10T11:08:07Z</time>
      </trkpt>
      <trkpt lat="48.99326" lon="7.65104">
        <ele>243.2</ele>
        <time>2026-03-10T11:08:12Z</time>
      </trkpt>
      <trkpt lat="48.99326" lon="7.65094">
        <ele>243.6</ele>
        <time>2026-03-10T11:08:17Z</time>
      </trkpt>
      <trkpt lat="48.99327" lon="7.65084">
        <ele>244</ele>
        <time>2026-03-10T11:08:22Z</time>
      </trkpt>
      <trkpt lat="48.99329" lon="7.65077">
        <ele>244.2</ele>
        <time>2026-03-10T11:08:27Z</time>
      </trkpt>
      <trkpt lat="48.9933" lon="7.65068">
        <ele>244.5</ele>
        <time>2026-03-10T11:08:32Z</time>
      </trkpt>
      <trkpt lat="48.99332" lon="7.65058">
        <ele>244.9</ele>
        <time>2026-03-10T11:08:37Z</time>
      </trkpt>
      <trkpt lat="48.99336" lon="7.6505">
        <ele>245.4</ele>
        <time>2026-03-10T11:08:42Z</time>
      </trkpt>
      <trkpt lat="48.99338" lon="7.65044">
        <ele>245.8</ele>
        <time>2026-03-10T11:08:47Z</time>
      </trkpt>
      <trkpt lat="48.99339" lon="7.65038">
        <ele>246</ele>
        <time>2026-03-10T11:08:52Z</time>
      </trkpt>
      <trkpt lat="48.9934" lon="7.65029">
        <ele>246.4</ele>
        <time>2026-03-10T11:08:57Z</time>
      </trkpt>
      <trkpt lat="48.99342" lon="7.6502">
        <ele>246.8</ele>
        <time>2026-03-10T11:09:02Z</time>
      </trkpt>
      <trkpt lat="48.99345" lon="7.6501">
        <ele>247.4</ele>
        <time>2026-03-10T11:09:07Z</time>
      </trkpt>
      <trkpt lat="48.99349" lon="7.65002">
        <ele>247.9</ele>
        <time>2026-03-10T11:09:12Z</time>
      </trkpt>
      <trkpt lat="48.99353" lon="7.64993">
        <ele>248.6</ele>
        <time>2026-03-10T11:09:17Z</time>
      </trkpt>
      <trkpt lat="48.99355" lon="7.64985">
        <ele>249.1</ele>
        <time>2026-03-10T11:09:22Z</time>
      </trkpt>
      <trkpt lat="48.99356" lon="7.64975">
        <ele>249.7</ele>
        <time>2026-03-10T11:09:27Z</time>
      </trkpt>
      <trkpt lat="48.99358" lon="7.64965">
        <ele>250.3</ele>
        <time>2026-03-10T11:09:32Z</time>
      </trkpt>
      <trkpt lat="48.99359" lon="7.64953">
        <ele>250.9</ele>
        <time>2026-03-10T11:09:37Z</time>
      </trkpt>
      <trkpt lat="48.99361" lon="7.64944">
        <ele>251.4</ele>
        <time>2026-03-10T11:09:42Z</time>
      </trkpt>
      <trkpt lat="48.99364" lon="7.64933">
        <ele>251.9</ele>
        <time>2026-03-10T11:09:47Z</time>
      </trkpt>
      <trkpt lat="48.99366" lon="7.64922">
        <ele>252.4</ele>
        <time>2026-03-10T11:09:52Z</time>
      </trkpt>
      <trkpt lat="48.99367" lon="7.64912">
        <ele>253.1</ele>
        <time>2026-03-10T11:09:57Z</time>
      </trkpt>
      <trkpt lat="48.99367" lon="7.64901">
        <ele>254.4</ele>
        <time>2026-03-10T11:10:02Z</time>
      </trkpt>
      <trkpt lat="48.99369" lon="7.64891">
        <ele>255.4</ele>
        <time>2026-03-10T11:10:07Z</time>
      </trkpt>
      <trkpt lat="48.99372" lon="7.64882">
        <ele>256.2</ele>
        <time>2026-03-10T11:10:12Z</time>
      </trkpt>
      <trkpt lat="48.99372" lon="7.64873">
        <ele>257.2</ele>
        <time>2026-03-10T11:10:17Z</time>
      </trkpt>
      <trkpt lat="48.99375" lon="7.64863">
        <ele>258</ele>
        <time>2026-03-10T11:10:22Z</time>
      </trkpt>
      <trkpt lat="48.99379" lon="7.64853">
        <ele>258.6</ele>
        <time>2026-03-10T11:10:27Z</time>
      </trkpt>
      <trkpt lat="48.99382" lon="7.64847">
        <ele>258.9</ele>
        <time>2026-03-10T11:10:32Z</time>
      </trkpt>
      <trkpt lat="48.99385" lon="7.64838">
        <ele>259.4</ele>
        <time>2026-03-10T11:10:37Z</time>
      </trkpt>
      <trkpt lat="48.99387" lon="7.64828">
        <ele>260.9</ele>
        <time>2026-03-10T11:10:42Z</time>
      </trkpt>
      <trkpt lat="48.9939" lon="7.6482">
        <ele>262.4</ele>
        <time>2026-03-10T11:10:47Z</time>
      </trkpt>
      <trkpt lat="48.9939" lon="7.64812">
        <ele>264.4</ele>
        <time>2026-03-10T11:10:52Z</time>
      </trkpt>
      <trkpt lat="48.99392" lon="7.64802">
        <ele>266.5</ele>
        <time>2026-03-10T11:10:57Z</time>
      </trkpt>
      <trkpt lat="48.99394" lon="7.64795">
        <ele>267.9</ele>
        <time>2026-03-10T11:11:02Z</time>
      </trkpt>
      <trkpt lat="48.99396" lon="7.64788">
        <ele>269.2</ele>
        <time>2026-03-10T11:11:07Z</time>
      </trkpt>
      <trkpt lat="48.99397" lon="7.64783">
        <ele>270.2</ele>
        <time>2026-03-10T11:11:12Z</time>
      </trkpt>
      <trkpt lat="48.99401" lon="7.64779">
        <ele>270.5</ele>
        <time>2026-03-10T11:11:17Z</time>
      </trkpt>
      <trkpt lat="48.99405" lon="7.64775">
        <ele>270.7</ele>
        <time>2026-03-10T11:11:22Z</time>
      </trkpt>
      <trkpt lat="48.99407" lon="7.64771">
        <ele>271.2</ele>
        <time>2026-03-10T11:11:27Z</time>
      </trkpt>
      <trkpt lat="48.99408" lon="7.64768">
        <ele>271.7</ele>
        <time>2026-03-10T11:11:32Z</time>
      </trkpt>
      <trkpt lat="48.99409" lon="7.64763">
        <ele>272.7</ele>
        <time>2026-03-10T11:11:37Z</time>
      </trkpt>
      <trkpt lat="48.9941" lon="7.64758">
        <ele>273.6</ele>
        <time>2026-03-10T11:11:42Z</time>
      </trkpt>
      <trkpt lat="48.99414" lon="7.64752">
        <ele>274.1</ele>
        <time>2026-03-10T11:11:47Z</time>
      </trkpt>
      <trkpt lat="48.99417" lon="7.64747">
        <ele>274.9</ele>
        <time>2026-03-10T11:11:52Z</time>
      </trkpt>
      <trkpt lat="48.9942" lon="7.64741">
        <ele>276.2</ele>
        <time>2026-03-10T11:11:57Z</time>
      </trkpt>
      <trkpt lat="48.99423" lon="7.64734">
        <ele>277.8</ele>
        <time>2026-03-10T11:12:02Z</time>
      </trkpt>
      <trkpt lat="48.99425" lon="7.64725">
        <ele>280</ele>
        <time>2026-03-10T11:12:07Z</time>
      </trkpt>
      <trkpt lat="48.99428" lon="7.64717">
        <ele>281.6</ele>
        <time>2026-03-10T11:12:12Z</time>
      </trkpt>
      <trkpt lat="48.9943" lon="7.64711">
        <ele>282.8</ele>
        <time>2026-03-10T11:12:17Z</time>
      </trkpt>
      <trkpt lat="48.9943" lon="7.64704">
        <ele>284.6</ele>
        <time>2026-03-10T11:12:22Z</time>
      </trkpt>
      <trkpt lat="48.99422" lon="7.647">
        <ele>287.7</ele>
        <time>2026-03-10T11:12:27Z</time>
      </trkpt>
      <trkpt lat="48.99415" lon="7.64697">
        <ele>290.3</ele>
        <time>2026-03-10T11:12:32Z</time>
      </trkpt>
      <trkpt lat="48.9941" lon="7.64694">
        <ele>292.4</ele>
        <time>2026-03-10T11:12:37Z</time>
      </trkpt>
      <trkpt lat="48.99405" lon="7.64692">
        <ele>294.2</ele>
        <time>2026-03-10T11:12:42Z</time>
      </trkpt>
      <trkpt lat="48.99403" lon="7.64687">
        <ele>296.2</ele>
        <time>2026-03-10T11:12:47Z</time>
      </trkpt>
      <trkpt lat="48.99402" lon="7.64681">
        <ele>298.3</ele>
        <time>2026-03-10T11:12:52Z</time>
      </trkpt>
      <trkpt lat="48.99401" lon="7.64675">
        <ele>300.4</ele>
        <time>2026-03-10T11:12:57Z</time>
      </trkpt>
      <trkpt lat="48.99399" lon="7.64669">
        <ele>302.7</ele>
        <time>2026-03-10T11:13:02Z</time>
      </trkpt>
      <trkpt lat="48.99397" lon="7.64662">
        <ele>304.5</ele>
        <time>2026-03-10T11:13:07Z</time>
      </trkpt>
      <trkpt lat="48.99396" lon="7.64657">
        <ele>305.4</ele>
        <time>2026-03-10T11:13:12Z</time>
      </trkpt>
      <trkpt lat="48.99394" lon="7.64654">
        <ele>306.3</ele>
        <time>2026-03-10T11:13:17Z</time>
      </trkpt>
      <trkpt lat="48.99393" lon="7.64651">
        <ele>307</ele>
        <time>2026-03-10T11:13:22Z</time>
      </trkpt>
      <trkpt lat="48.99391" lon="7.64642">
        <ele>308.7</ele>
        <time>2026-03-10T11:13:27Z</time>
      </trkpt>
      <trkpt lat="48.99387" lon="7.64637">
        <ele>310.6</ele>
        <time>2026-03-10T11:13:32Z</time>
      </trkpt>
      <trkpt lat="48.99385" lon="7.64632">
        <ele>311.9</ele>
        <time>2026-03-10T11:13:37Z</time>
      </trkpt>
      <trkpt lat="48.99381" lon="7.64629">
        <ele>313.5</ele>
        <time>2026-03-10T11:13:42Z</time>
      </trkpt>
      <trkpt lat="48.99381" lon="7.64623">
        <ele>314.4</ele>
        <time>2026-03-10T11:13:47Z</time>
      </trkpt>
      <trkpt lat="48.99381" lon="7.64619">
        <ele>315</ele>
        <time>2026-03-10T11:13:52Z</time>
      </trkpt>
      <trkpt lat="48.9938" lon="7.64612">
        <ele>316.4</ele>
        <time>2026-03-10T11:13:57Z</time>
      </trkpt>
      <trkpt lat="48.99377" lon="7.64605">
        <ele>318.4</ele>
        <time>2026-03-10T11:14:02Z</time>
      </trkpt>
      <trkpt lat="48.99377" lon="7.64603">
        <ele>318.7</ele>
        <time>2026-03-10T11:14:07Z</time>
      </trkpt>
      <trkpt lat="48.99377" lon="7.64603">
        <ele>318.7</ele>
        <time>2026-03-10T11:14:12Z</time>
      </trkpt>
      <trkpt lat="48.99377" lon="7.64603">
        <ele>318.7</ele>
        <time>2026-03-10T11:14:17Z</time>
      </trkpt>
      <trkpt lat="48.99377" lon="7.64603">
        <ele>318.7</ele>
        <time>2026-03-10T11:14:22Z</time>
      </trkpt>
      <trkpt lat="48.99377" lon="7.64603">
        <ele>318.7</ele>
        <time>2026-03-10T11:14:27Z</time>
      </trkpt>
      <trkpt lat="48.99374" lon="7.64608">
        <ele>319</ele>
        <time>2026-03-10T11:14:32Z</time>
      </trkpt>
      <trkpt lat="48.99369" lon="7.64607">
        <ele>320.8</ele>
        <time>2026-03-10T11:14:37Z</time>
      </trkpt>
      <trkpt lat="48.99367" lon="7.64603">
        <ele>322.2</ele>
        <time>2026-03-10T11:14:42Z</time>
      </trkpt>
      <trkpt lat="48.99366" lon="7.64597">
        <ele>323.5</ele>
        <time>2026-03-10T11:14:47Z</time>
      </trkpt>
      <trkpt lat="48.99364" lon="7.64594">
        <ele>324.8</ele>
        <time>2026-03-10T11:14:52Z</time>
      </trkpt>
      <trkpt lat="48.99364" lon="7.64594">
        <ele>324.8</ele>
        <time>2026-03-10T11:14:57Z</time>
      </trkpt>
      <trkpt lat="48.99364" lon="7.64594">
        <ele>324.8</ele>
        <time>2026-03-10T11:15:02Z</time>
      </trkpt>
      <trkpt lat="48.99364" lon="7.64594">
        <ele>324.8</ele>
        <time>2026-03-10T11:15:07Z</time>
      </trkpt>
      <trkpt lat="48.99362" lon="7.64581">
        <ele>327.3</ele>
        <time>2026-03-10T11:15:12Z</time>
      </trkpt>
      <trkpt lat="48.99362" lon="7.64577">
        <ele>327.1</ele>
        <time>2026-03-10T11:15:17Z</time>
      </trkpt>
      <trkpt lat="48.99362" lon="7.64577">
        <ele>327.1</ele>
        <time>2026-03-10T11:15:22Z</time>
      </trkpt>
      <trkpt lat="48.99362" lon="7.64577">
        <ele>327.1</ele>
        <time>2026-03-10T11:15:27Z</time>
      </trkpt>
      <trkpt lat="48.99353" lon="7.64571">
        <ele>330.3</ele>
        <time>2026-03-10T11:15:32Z</time>
      </trkpt>
      <trkpt lat="48.9935" lon="7.64568">
        <ele>331.3</ele>
        <time>2026-03-10T11:15:37Z</time>
      </trkpt>
      <trkpt lat="48.99346" lon="7.64567">
        <ele>332.8</ele>
        <time>2026-03-10T11:15:42Z</time>
      </trkpt>
      <trkpt lat="48.99344" lon="7.64567">
        <ele>333.6</ele>
        <time>2026-03-10T11:15:47Z</time>
      </trkpt>
      <trkpt lat="48.99341" lon="7.64565">
        <ele>334.6</ele>
        <time>2026-03-10T11:15:52Z</time>
      </trkpt>
      <trkpt lat="48.99341" lon="7.64564">
        <ele>334.6</ele>
        <time>2026-03-10T11:15:57Z</time>
      </trkpt>
      <trkpt lat="48.99341" lon="7.64564">
        <ele>334.6</ele>
        <time>2026-03-10T11:16:02Z</time>
      </trkpt>
      <trkpt lat="48.99347" lon="7.64552">
        <ele>332</ele>
        <time>2026-03-10T11:16:07Z</time>
      </trkpt>
      <trkpt lat="48.99347" lon="7.64552">
        <ele>332</ele>
        <time>2026-03-10T11:16:12Z</time>
      </trkpt>
      <trkpt lat="48.99347" lon="7.64552">
        <ele>332</ele>
        <time>2026-03-10T11:16:17Z</time>
      </trkpt>
      <trkpt lat="48.99347" lon="7.64552">
        <ele>332</ele>
        <time>2026-03-10T11:16:22Z</time>
      </trkpt>
      <trkpt lat="48.99347" lon="7.64552">
        <ele>332</ele>
        <time>2026-03-10T11:16:27Z</time>
      </trkpt>
      <trkpt lat="48.9934" lon="7.64543">
        <ele>334.4</ele>
        <time>2026-03-10T11:16:32Z</time>
      </trkpt>
      <trkpt lat="48.99339" lon="7.64538">
        <ele>334.7</ele>
        <time>2026-03-10T11:16:37Z</time>
      </trkpt>
      <trkpt lat="48.99338" lon="7.64535">
        <ele>335</ele>
        <time>2026-03-10T11:16:42Z</time>
      </trkpt>
      <trkpt lat="48.99338" lon="7.64535">
        <ele>335</ele>
        <time>2026-03-10T11:16:47Z</time>
      </trkpt>
      <trkpt lat="48.99338" lon="7.64535">
        <ele>335</ele>
        <time>2026-03-10T11:16:52Z</time>
      </trkpt>
      <trkpt lat="48.99338" lon="7.64535">
        <ele>335</ele>
        <time>2026-03-10T11:16:57Z</time>
      </trkpt>
      <trkpt lat="48.99338" lon="7.64535">
        <ele>335</ele>
        <time>2026-03-10T11:17:02Z</time>
      </trkpt>
      <trkpt lat="48.9933" lon="7.64524">
        <ele>337</ele>
        <time>2026-03-10T11:17:07Z</time>
      </trkpt>
      <trkpt lat="48.99329" lon="7.64523">
        <ele>337.1</ele>
        <time>2026-03-10T11:17:12Z</time>
      </trkpt>
      <trkpt lat="48.99329" lon="7.64523">
        <ele>337.1</ele>
        <time>2026-03-10T11:17:17Z</time>
      </trkpt>
      <trkpt lat="48.99329" lon="7.64523">
        <ele>337.1</ele>
        <time>2026-03-10T11:17:22Z</time>
      </trkpt>
      <trkpt lat="48.99324" lon="7.64509">
        <ele>337.8</ele>
        <time>2026-03-10T11:17:27Z</time>
      </trkpt>
      <trkpt lat="48.99324" lon="7.64509">
        <ele>337.8</ele>
        <time>2026-03-10T11:17:32Z</time>
      </trkpt>
      <trkpt lat="48.99324" lon="7.64509">
        <ele>337.8</ele>
        <time>2026-03-10T11:17:37Z</time>
      </trkpt>
      <trkpt lat="48.99321" lon="7.64496">
        <ele>338</ele>
        <time>2026-03-10T11:17:42Z</time>
      </trkpt>
      <trkpt lat="48.99318" lon="7.64493">
        <ele>338.3</ele>
        <time>2026-03-10T11:17:47Z</time>
      </trkpt>
      <trkpt lat="48.99314" lon="7.64492">
        <ele>339</ele>
        <time>2026-03-10T11:17:52Z</time>
      </trkpt>
      <trkpt lat="48.9931" lon="7.6449">
        <ele>339.7</ele>
        <time>2026-03-10T11:17:57Z</time>
      </trkpt>
      <trkpt lat="48.99308" lon="7.64487">
        <ele>339.9</ele>
        <time>2026-03-10T11:18:02Z</time>
      </trkpt>
      <trkpt lat="48.99305" lon="7.64483">
        <ele>340.2</ele>
        <time>2026-03-10T11:18:07Z</time>
      </trkpt>
      <trkpt lat="48.99303" lon="7.64479">
        <ele>340.4</ele>
        <time>2026-03-10T11:18:12Z</time>
      </trkpt>
      <trkpt lat="48.99303" lon="7.64475">
        <ele>340.1</ele>
        <time>2026-03-10T11:18:17Z</time>
      </trkpt>
      <trkpt lat="48.99303" lon="7.64475">
        <ele>340.1</ele>
        <time>2026-03-10T11:18:22Z</time>
      </trkpt>
      <trkpt lat="48.99303" lon="7.64475">
        <ele>340.1</ele>
        <time>2026-03-10T11:18:27Z</time>
      </trkpt>
      <trkpt lat="48.99303" lon="7.64475">
        <ele>340.1</ele>
        <time>2026-03-10T11:18:32Z</time>
      </trkpt>
      <trkpt lat="48.99303" lon="7.64475">
        <ele>340.1</ele>
        <time>2026-03-10T11:18:37Z</time>
      </trkpt>
      <trkpt lat="48.99296" lon="7.64464">
        <ele>341</ele>
        <time>2026-03-10T11:18:42Z</time>
      </trkpt>
      <trkpt lat="48.99295" lon="7.64463">
        <ele>341.2</ele>
        <time>2026-03-10T11:18:47Z</time>
      </trkpt>
      <trkpt lat="48.99295" lon="7.64463">
        <ele>341.2</ele>
        <time>2026-03-10T11:18:52Z</time>
      </trkpt>
      <trkpt lat="48.99295" lon="7.64463">
        <ele>341.2</ele>
        <time>2026-03-10T11:18:57Z</time>
      </trkpt>
      <trkpt lat="48.99295" lon="7.64463">
        <ele>341.2</ele>
        <time>2026-03-10T11:19:02Z</time>
      </trkpt>
      <trkpt lat="48.99295" lon="7.64463">
        <ele>341.2</ele>
        <time>2026-03-10T11:19:07Z</time>
      </trkpt>
      <trkpt lat="48.99295" lon="7.64463">
        <ele>341.2</ele>
        <time>2026-03-10T11:19:12Z</time>
      </trkpt>
      <trkpt lat="48.99295" lon="7.64463">
        <ele>341.2</ele>
        <time>2026-03-10T11:19:17Z</time>
      </trkpt>
      <trkpt lat="48.99287" lon="7.64452">
        <ele>342.6</ele>
        <time>2026-03-10T11:19:22Z</time>
      </trkpt>
      <trkpt lat="48.99287" lon="7.64452">
        <ele>342.6</ele>
        <time>2026-03-10T11:19:27Z</time>
      </trkpt>
      <trkpt lat="48.99287" lon="7.64452">
        <ele>342.6</ele>
        <time>2026-03-10T11:19:32Z</time>
      </trkpt>
      <trkpt lat="48.99287" lon="7.64452">
        <ele>342.6</ele>
        <time>2026-03-10T11:19:37Z</time>
      </trkpt>
      <trkpt lat="48.99287" lon="7.64452">
        <ele>342.6</ele>
        <time>2026-03-10T11:19:42Z</time>
      </trkpt>
      <trkpt lat="48.99279" lon="7.64443">
        <ele>344.3</ele>
        <time>2026-03-10T11:19:47Z</time>
      </trkpt>
      <trkpt lat="48.99276" lon="7.64441">
        <ele>345</ele>
        <time>2026-03-10T11:19:52Z</time>
      </trkpt>
      <trkpt lat="48.99275" lon="7.64438">
        <ele>345.2</ele>
        <time>2026-03-10T11:19:57Z</time>
      </trkpt>
      <trkpt lat="48.99275" lon="7.64438">
        <ele>345.2</ele>
        <time>2026-03-10T11:20:02Z</time>
      </trkpt>
      <trkpt lat="48.99275" lon="7.64438">
        <ele>345.2</ele>
        <time>2026-03-10T11:20:07Z</time>
      </trkpt>
      <trkpt lat="48.99275" lon="7.64438">
        <ele>345.2</ele>
        <time>2026-03-10T11:20:12Z</time>
      </trkpt>
      <trkpt lat="48.99267" lon="7.6443">
        <ele>347.2</ele>
        <time>2026-03-10T11:20:17Z</time>
      </trkpt>
      <trkpt lat="48.99265" lon="7.64429">
        <ele>347.7</ele>
        <time>2026-03-10T11:20:22Z</time>
      </trkpt>
      <trkpt lat="48.99265" lon="7.64429">
        <ele>347.7</ele>
        <time>2026-03-10T11:20:27Z</time>
      </trkpt>
      <trkpt lat="48.99265" lon="7.64429">
        <ele>347.7</ele>
        <time>2026-03-10T11:20:32Z</time>
      </trkpt>
      <trkpt lat="48.99254" lon="7.64421">
        <ele>350.8</ele>
        <time>2026-03-10T11:20:37Z</time>
      </trkpt>
      <trkpt lat="48.99254" lon="7.6442">
        <ele>350.8</ele>
        <time>2026-03-10T11:20:42Z</time>
      </trkpt>
      <trkpt lat="48.99254" lon="7.6442">
        <ele>350.8</ele>
        <time>2026-03-10T11:20:47Z</time>
      </trkpt>
      <trkpt lat="48.99254" lon="7.6442">
        <ele>350.8</ele>
        <time>2026-03-10T11:20:52Z</time>
      </trkpt>
      <trkpt lat="48.99254" lon="7.6442">
        <ele>350.8</ele>
        <time>2026-03-10T11:20:57Z</time>
      </trkpt>
      <trkpt lat="48.99248" lon="7.64409">
        <ele>351.2</ele>
        <time>2026-03-10T11:21:02Z</time>
      </trkpt>
      <trkpt lat="48.99247" lon="7.64408">
        <ele>351.1</ele>
        <time>2026-03-10T11:21:07Z</time>
      </trkpt>
      <trkpt lat="48.99247" lon="7.64408">
        <ele>351.1</ele>
        <time>2026-03-10T11:21:12Z</time>
      </trkpt>
      <trkpt lat="48.99247" lon="7.64408">
        <ele>351.1</ele>
        <time>2026-03-10T11:21:17Z</time>
      </trkpt>
      <trkpt lat="48.9924" lon="7.64398">
        <ele>350.6</ele>
        <time>2026-03-10T11:21:22Z</time>
      </trkpt>
      <trkpt lat="48.99239" lon="7.64397">
        <ele>350.6</ele>
        <time>2026-03-10T11:21:27Z</time>
      </trkpt>
      <trkpt lat="48.99239" lon="7.64397">
        <ele>350.6</ele>
        <time>2026-03-10T11:21:32Z</time>
      </trkpt>
      <trkpt lat="48.99239" lon="7.64397">
        <ele>350.6</ele>
        <time>2026-03-10T11:21:37Z</time>
      </trkpt>
      <trkpt lat="48.99231" lon="7.64389">
        <ele>350.8</ele>
        <time>2026-03-10T11:21:42Z</time>
      </trkpt>
      <trkpt lat="48.99227" lon="7.64387">
        <ele>351.1</ele>
        <time>2026-03-10T11:21:47Z</time>
      </trkpt>
      <trkpt lat="48.99226" lon="7.64386">
        <ele>351.2</ele>
        <time>2026-03-10T11:21:52Z</time>
      </trkpt>
      <trkpt lat="48.99226" lon="7.64386">
        <ele>351.2</ele>
        <time>2026-03-10T11:21:57Z</time>
      </trkpt>
      <trkpt lat="48.99226" lon="7.64386">
        <ele>351.2</ele>
        <time>2026-03-10T11:22:02Z</time>
      </trkpt>
      <trkpt lat="48.99216" lon="7.64382">
        <ele>352.2</ele>
        <time>2026-03-10T11:22:07Z</time>
      </trkpt>
      <trkpt lat="48.99215" lon="7.64381">
        <ele>352.3</ele>
        <time>2026-03-10T11:22:12Z</time>
      </trkpt>
      <trkpt lat="48.99215" lon="7.64381">
        <ele>352.3</ele>
        <time>2026-03-10T11:22:17Z</time>
      </trkpt>
      <trkpt lat="48.99215" lon="7.64381">
        <ele>352.3</ele>
        <time>2026-03-10T11:22:22Z</time>
      </trkpt>
      <trkpt lat="48.99215" lon="7.64381">
        <ele>352.3</ele>
        <time>2026-03-10T11:22:27Z</time>
      </trkpt>
      <trkpt lat="48.99215" lon="7.64381">
        <ele>352.3</ele>
        <time>2026-03-10T11:22:32Z</time>
      </trkpt>
      <trkpt lat="48.99215" lon="7.64381">
        <ele>352.3</ele>
        <time>2026-03-10T11:22:37Z</time>
      </trkpt>
      <trkpt lat="48.99215" lon="7.64381">
        <ele>352.3</ele>
        <time>2026-03-10T11:22:42Z</time>
      </trkpt>
      <trkpt lat="48.99207" lon="7.64373">
        <ele>353.1</ele>
        <time>2026-03-10T11:22:47Z</time>
      </trkpt>
      <trkpt lat="48.99206" lon="7.6437">
        <ele>353.1</ele>
        <time>2026-03-10T11:22:52Z</time>
      </trkpt>
      <trkpt lat="48.99201" lon="7.64366">
        <ele>353.8</ele>
        <time>2026-03-10T11:22:57Z</time>
      </trkpt>
      <trkpt lat="48.99196" lon="7.64363">
        <ele>354.6</ele>
        <time>2026-03-10T11:23:02Z</time>
      </trkpt>
      <trkpt lat="48.99193" lon="7.64361">
        <ele>355.2</ele>
        <time>2026-03-10T11:23:07Z</time>
      </trkpt>
      <trkpt lat="48.99189" lon="7.64358">
        <ele>355.9</ele>
        <time>2026-03-10T11:23:12Z</time>
      </trkpt>
      <trkpt lat="48.99186" lon="7.64356">
        <ele>356.4</ele>
        <time>2026-03-10T11:23:17Z</time>
      </trkpt>
      <trkpt lat="48.99183" lon="7.64354">
        <ele>357</ele>
        <time>2026-03-10T11:23:22Z</time>
      </trkpt>
      <trkpt lat="48.9918" lon="7.64352">
        <ele>357.6</ele>
        <time>2026-03-10T11:23:27Z</time>
      </trkpt>
      <trkpt lat="48.99176" lon="7.64353">
        <ele>358.4</ele>
        <time>2026-03-10T11:23:32Z</time>
      </trkpt>
      <trkpt lat="48.99171" lon="7.64355">
        <ele>359.4</ele>
        <time>2026-03-10T11:23:37Z</time>
      </trkpt>
      <trkpt lat="48.99169" lon="7.64356">
        <ele>359.7</ele>
        <time>2026-03-10T11:23:42Z</time>
      </trkpt>
      <trkpt lat="48.99169" lon="7.64356">
        <ele>359.7</ele>
        <time>2026-03-10T11:23:47Z</time>
      </trkpt>
      <trkpt lat="48.99169" lon="7.64356">
        <ele>359.7</ele>
        <time>2026-03-10T11:23:52Z</time>
      </trkpt>
      <trkpt lat="48.99169" lon="7.64356">
        <ele>359.7</ele>
        <time>2026-03-10T11:23:57Z</time>
      </trkpt>
      <trkpt lat="48.99169" lon="7.64356">
        <ele>359.7</ele>
        <time>2026-03-10T11:24:02Z</time>
      </trkpt>
      <trkpt lat="48.99169" lon="7.64356">
        <ele>359.7</ele>
        <time>2026-03-10T11:24:07Z</time>
      </trkpt>
      <trkpt lat="48.99169" lon="7.64356">
        <ele>359.7</ele>
        <time>2026-03-10T11:24:12Z</time>
      </trkpt>
      <trkpt lat="48.99169" lon="7.64356">
        <ele>359.7</ele>
        <time>2026-03-10T11:24:17Z</time>
      </trkpt>
      <trkpt lat="48.99162" lon="7.64344">
        <ele>361.9</ele>
        <time>2026-03-10T11:24:22Z</time>
      </trkpt>
      <trkpt lat="48.99162" lon="7.64344">
        <ele>361.9</ele>
        <time>2026-03-10T11:24:27Z</time>
      </trkpt>
      <trkpt lat="48.99162" lon="7.64344">
        <ele>361.9</ele>
        <time>2026-03-10T11:24:32Z</time>
      </trkpt>
      <trkpt lat="48.99162" lon="7.64344">
        <ele>361.9</ele>
        <time>2026-03-10T11:24:37Z</time>
      </trkpt>
      <trkpt lat="48.99162" lon="7.64344">
        <ele>361.9</ele>
        <time>2026-03-10T11:24:42Z</time>
      </trkpt>
      <trkpt lat="48.99162" lon="7.64344">
        <ele>361.9</ele>
        <time>2026-03-10T11:24:47Z</time>
      </trkpt>
      <trkpt lat="48.99155" lon="7.64342">
        <ele>363.8</ele>
        <time>2026-03-10T11:24:52Z</time>
      </trkpt>
      <trkpt lat="48.9915" lon="7.64339">
        <ele>365.2</ele>
        <time>2026-03-10T11:24:57Z</time>
      </trkpt>
      <trkpt lat="48.99146" lon="7.64332">
        <ele>366.3</ele>
        <time>2026-03-10T11:25:02Z</time>
      </trkpt>
      <trkpt lat="48.99145" lon="7.64327">
        <ele>366.2</ele>
        <time>2026-03-10T11:25:07Z</time>
      </trkpt>
      <trkpt lat="48.99141" lon="7.64326">
        <ele>367.2</ele>
        <time>2026-03-10T11:25:12Z</time>
      </trkpt>
      <trkpt lat="48.99135" lon="7.64325">
        <ele>368.7</ele>
        <time>2026-03-10T11:25:17Z</time>
      </trkpt>
      <trkpt lat="48.99133" lon="7.64326">
        <ele>369.3</ele>
        <time>2026-03-10T11:25:22Z</time>
      </trkpt>
      <trkpt lat="48.99131" lon="7.64324">
        <ele>369.7</ele>
        <time>2026-03-10T11:25:27Z</time>
      </trkpt>
      <trkpt lat="48.99129" lon="7.64321">
        <ele>370.1</ele>
        <time>2026-03-10T11:25:32Z</time>
      </trkpt>
      <trkpt lat="48.99124" lon="7.64321">
        <ele>371.5</ele>
        <time>2026-03-10T11:25:37Z</time>
      </trkpt>
      <trkpt lat="48.99121" lon="7.64323">
        <ele>372.4</ele>
        <time>2026-03-10T11:25:42Z</time>
      </trkpt>
      <trkpt lat="48.9912" lon="7.64323">
        <ele>372.7</ele>
        <time>2026-03-10T11:25:47Z</time>
      </trkpt>
      <trkpt lat="48.9912" lon="7.64323">
        <ele>372.7</ele>
        <time>2026-03-10T11:25:52Z</time>
      </trkpt>
      <trkpt lat="48.9912" lon="7.64323">
        <ele>372.7</ele>
        <time>2026-03-10T11:25:57Z</time>
      </trkpt>
      <trkpt lat="48.9912" lon="7.64323">
        <ele>372.7</ele>
        <time>2026-03-10T11:26:02Z</time>
      </trkpt>
      <trkpt lat="48.9912" lon="7.64323">
        <ele>372.7</ele>
        <time>2026-03-10T11:26:07Z</time>
      </trkpt>
      <trkpt lat="48.9912" lon="7.64323">
        <ele>372.7</ele>
        <time>2026-03-10T11:26:12Z</time>
      </trkpt>
      <trkpt lat="48.9912" lon="7.64323">
        <ele>372.7</ele>
        <time>2026-03-10T11:26:17Z</time>
      </trkpt>
      <trkpt lat="48.9912" lon="7.64323">
        <ele>372.7</ele>
        <time>2026-03-10T11:26:22Z</time>
      </trkpt>
      <trkpt lat="48.9912" lon="7.64323">
        <ele>372.7</ele>
        <time>2026-03-10T11:26:27Z</time>
      </trkpt>
      <trkpt lat="48.9912" lon="7.64323">
        <ele>372.7</ele>
        <time>2026-03-10T11:26:32Z</time>
      </trkpt>
      <trkpt lat="48.99115" lon="7.64313">
        <ele>373.5</ele>
        <time>2026-03-10T11:26:37Z</time>
      </trkpt>
      <trkpt lat="48.99111" lon="7.64313">
        <ele>374.6</ele>
        <time>2026-03-10T11:26:42Z</time>
      </trkpt>
      <trkpt lat="48.99107" lon="7.64311">
        <ele>375.7</ele>
        <time>2026-03-10T11:26:47Z</time>
      </trkpt>
      <trkpt lat="48.99102" lon="7.64312">
        <ele>377.2</ele>
        <time>2026-03-10T11:26:52Z</time>
      </trkpt>
      <trkpt lat="48.99099" lon="7.64316">
        <ele>378.2</ele>
        <time>2026-03-10T11:26:57Z</time>
      </trkpt>
      <trkpt lat="48.99097" lon="7.64319">
        <ele>378.9</ele>
        <time>2026-03-10T11:27:02Z</time>
      </trkpt>
      <trkpt lat="48.99097" lon="7.64319">
        <ele>378.9</ele>
        <time>2026-03-10T11:27:07Z</time>
      </trkpt>
      <trkpt lat="48.99097" lon="7.64319">
        <ele>378.9</ele>
        <time>2026-03-10T11:27:12Z</time>
      </trkpt>
      <trkpt lat="48.99097" lon="7.64319">
        <ele>378.9</ele>
        <time>2026-03-10T11:27:17Z</time>
      </trkpt>
      <trkpt lat="48.99097" lon="7.64319">
        <ele>378.9</ele>
        <time>2026-03-10T11:27:22Z</time>
      </trkpt>
      <trkpt lat="48.99093" lon="7.64311">
        <ele>379.7</ele>
        <time>2026-03-10T11:27:27Z</time>
      </trkpt>
      <trkpt lat="48.99091" lon="7.64312">
        <ele>380.3</ele>
        <time>2026-03-10T11:27:32Z</time>
      </trkpt>
      <trkpt lat="48.99087" lon="7.64311">
        <ele>381.4</ele>
        <time>2026-03-10T11:27:37Z</time>
      </trkpt>
      <trkpt lat="48.99085" lon="7.64309">
        <ele>381.9</ele>
        <time>2026-03-10T11:27:42Z</time>
      </trkpt>
      <trkpt lat="48.99081" lon="7.6431">
        <ele>383.4</ele>
        <time>2026-03-10T11:27:47Z</time>
      </trkpt>
      <trkpt lat="48.99078" lon="7.64311">
        <ele>384.6</ele>
        <time>2026-03-10T11:27:52Z</time>
      </trkpt>
      <trkpt lat="48.99077" lon="7.64311">
        <ele>385</ele>
        <time>2026-03-10T11:27:57Z</time>
      </trkpt>
      <trkpt lat="48.99077" lon="7.64311">
        <ele>385</ele>
        <time>2026-03-10T11:28:02Z</time>
      </trkpt>
      <trkpt lat="48.99077" lon="7.64311">
        <ele>385</ele>
        <time>2026-03-10T11:28:07Z</time>
      </trkpt>
      <trkpt lat="48.99077" lon="7.64311">
        <ele>385</ele>
        <time>2026-03-10T11:28:12Z</time>
      </trkpt>
      <trkpt lat="48.99077" lon="7.64311">
        <ele>385</ele>
        <time>2026-03-10T11:28:17Z</time>
      </trkpt>
      <trkpt lat="48.99077" lon="7.64311">
        <ele>385</ele>
        <time>2026-03-10T11:28:22Z</time>
      </trkpt>
      <trkpt lat="48.99077" lon="7.64311">
        <ele>385</ele>
        <time>2026-03-10T11:28:27Z</time>
      </trkpt>
      <trkpt lat="48.99077" lon="7.64311">
        <ele>385</ele>
        <time>2026-03-10T11:28:32Z</time>
      </trkpt>
      <trkpt lat="48.99077" lon="7.64311">
        <ele>385</ele>
        <time>2026-03-10T11:28:37Z</time>
      </trkpt>
      <trkpt lat="48.99077" lon="7.64311">
        <ele>385</ele>
        <time>2026-03-10T11:28:42Z</time>
      </trkpt>
      <trkpt lat="48.99077" lon="7.64311">
        <ele>385</ele>
        <time>2026-03-10T11:28:47Z</time>
      </trkpt>
      <trkpt lat="48.99077" lon="7.64311">
        <ele>385</ele>
        <time>2026-03-10T11:28:52Z</time>
      </trkpt>
      <trkpt lat="48.99077" lon="7.64311">
        <ele>385</ele>
        <time>2026-03-10T11:28:57Z</time>
      </trkpt>
      <trkpt lat="48.99077" lon="7.64311">
        <ele>385</ele>
        <time>2026-03-10T11:29:02Z</time>
      </trkpt>
      <trkpt lat="48.99077" lon="7.64311">
        <ele>385</ele>
        <time>2026-03-10T11:29:07Z</time>
      </trkpt>
      <trkpt lat="48.99077" lon="7.64311">
        <ele>385</ele>
        <time>2026-03-10T11:29:12Z</time>
      </trkpt>
      <trkpt lat="48.99077" lon="7.64311">
        <ele>385</ele>
        <time>2026-03-10T11:29:17Z</time>
      </trkpt>
      <trkpt lat="48.99077" lon="7.64311">
        <ele>385</ele>
        <time>2026-03-10T11:29:22Z</time>
      </trkpt>
      <trkpt lat="48.99077" lon="7.64311">
        <ele>385</ele>
        <time>2026-03-10T11:29:27Z</time>
      </trkpt>
      <trkpt lat="48.99072" lon="7.64299">
        <ele>386.5</ele>
        <time>2026-03-10T11:29:32Z</time>
      </trkpt>
      <trkpt lat="48.99068" lon="7.64299">
        <ele>388.1</ele>
        <time>2026-03-10T11:29:37Z</time>
      </trkpt>
      <trkpt lat="48.99064" lon="7.64299">
        <ele>389.6</ele>
        <time>2026-03-10T11:29:42Z</time>
      </trkpt>
      <trkpt lat="48.9906" lon="7.64294">
        <ele>390.9</ele>
        <time>2026-03-10T11:29:47Z</time>
      </trkpt>
      <trkpt lat="48.99057" lon="7.6429">
        <ele>391.9</ele>
        <time>2026-03-10T11:29:52Z</time>
      </trkpt>
      <trkpt lat="48.99056" lon="7.64287">
        <ele>392.1</ele>
        <time>2026-03-10T11:29:57Z</time>
      </trkpt>
      <trkpt lat="48.99053" lon="7.64285">
        <ele>393.1</ele>
        <time>2026-03-10T11:30:02Z</time>
      </trkpt>
      <trkpt lat="48.99049" lon="7.64282">
        <ele>394.4</ele>
        <time>2026-03-10T11:30:07Z</time>
      </trkpt>
      <trkpt lat="48.99045" lon="7.6428">
        <ele>395.8</ele>
        <time>2026-03-10T11:30:12Z</time>
      </trkpt>
      <trkpt lat="48.99041" lon="7.64273">
        <ele>396.8</ele>
        <time>2026-03-10T11:30:17Z</time>
      </trkpt>
      <trkpt lat="48.99037" lon="7.64268">
        <ele>397.8</ele>
        <time>2026-03-10T11:30:22Z</time>
      </trkpt>
      <trkpt lat="48.99034" lon="7.64266">
        <ele>398.8</ele>
        <time>2026-03-10T11:30:27Z</time>
      </trkpt>
      <trkpt lat="48.99033" lon="7.64272">
        <ele>399.6</ele>
        <time>2026-03-10T11:30:32Z</time>
      </trkpt>
      <trkpt lat="48.99032" lon="7.64275">
        <ele>400.1</ele>
        <time>2026-03-10T11:30:37Z</time>
      </trkpt>
      <trkpt lat="48.99032" lon="7.64275">
        <ele>400.1</ele>
        <time>2026-03-10T11:30:42Z</time>
      </trkpt>
      <trkpt lat="48.99024" lon="7.64272">
        <ele>402.8</ele>
        <time>2026-03-10T11:30:47Z</time>
      </trkpt>
      <trkpt lat="48.9902" lon="7.64269">
        <ele>403.9</ele>
        <time>2026-03-10T11:30:52Z</time>
      </trkpt>
      <trkpt lat="48.99018" lon="7.64266">
        <ele>404.4</ele>
        <time>2026-03-10T11:30:57Z</time>
      </trkpt>
      <trkpt lat="48.99018" lon="7.6426">
        <ele>403.9</ele>
        <time>2026-03-10T11:31:02Z</time>
      </trkpt>
      <trkpt lat="48.99016" lon="7.64256">
        <ele>404.2</ele>
        <time>2026-03-10T11:31:07Z</time>
      </trkpt>
      <trkpt lat="48.99014" lon="7.64255">
        <ele>404.8</ele>
        <time>2026-03-10T11:31:12Z</time>
      </trkpt>
      <trkpt lat="48.99009" lon="7.64252">
        <ele>406.2</ele>
        <time>2026-03-10T11:31:17Z</time>
      </trkpt>
      <trkpt lat="48.99007" lon="7.6425">
        <ele>406.6</ele>
        <time>2026-03-10T11:31:22Z</time>
      </trkpt>
      <trkpt lat="48.99006" lon="7.6425">
        <ele>407</ele>
        <time>2026-03-10T11:31:27Z</time>
      </trkpt>
      <trkpt lat="48.99006" lon="7.6425">
        <ele>407</ele>
        <time>2026-03-10T11:31:32Z</time>
      </trkpt>
      <trkpt lat="48.99006" lon="7.6425">
        <ele>407</ele>
        <time>2026-03-10T11:31:37Z</time>
      </trkpt>
      <trkpt lat="48.99006" lon="7.6425">
        <ele>407</ele>
        <time>2026-03-10T11:31:42Z</time>
      </trkpt>
      <trkpt lat="48.99006" lon="7.6425">
        <ele>407</ele>
        <time>2026-03-10T11:31:47Z</time>
      </trkpt>
      <trkpt lat="48.99006" lon="7.6425">
        <ele>407</ele>
        <time>2026-03-10T11:31:52Z</time>
      </trkpt>
      <trkpt lat="48.99006" lon="7.6425">
        <ele>407</ele>
        <time>2026-03-10T11:31:57Z</time>
      </trkpt>
      <trkpt lat="48.99006" lon="7.6425">
        <ele>407</ele>
        <time>2026-03-10T11:32:02Z</time>
      </trkpt>
      <trkpt lat="48.99006" lon="7.6425">
        <ele>407</ele>
        <time>2026-03-10T11:32:07Z</time>
      </trkpt>
      <trkpt lat="48.98999" lon="7.64246">
        <ele>408.6</ele>
        <time>2026-03-10T11:32:12Z</time>
      </trkpt>
      <trkpt lat="48.98993" lon="7.64238">
        <ele>409.2</ele>
        <time>2026-03-10T11:32:17Z</time>
      </trkpt>
      <trkpt lat="48.98988" lon="7.64233">
        <ele>410</ele>
        <time>2026-03-10T11:32:22Z</time>
      </trkpt>
      <trkpt lat="48.98985" lon="7.64229">
        <ele>410.4</ele>
        <time>2026-03-10T11:32:27Z</time>
      </trkpt>
      <trkpt lat="48.98982" lon="7.64226">
        <ele>410.9</ele>
        <time>2026-03-10T11:32:32Z</time>
      </trkpt>
      <trkpt lat="48.98978" lon="7.64223">
        <ele>411.9</ele>
        <time>2026-03-10T11:32:37Z</time>
      </trkpt>
      <trkpt lat="48.98973" lon="7.64221">
        <ele>413.3</ele>
        <time>2026-03-10T11:32:42Z</time>
      </trkpt>
      <trkpt lat="48.98972" lon="7.64226">
        <ele>414.4</ele>
        <time>2026-03-10T11:32:47Z</time>
      </trkpt>
      <trkpt lat="48.98971" lon="7.64226">
        <ele>414.8</ele>
        <time>2026-03-10T11:32:52Z</time>
      </trkpt>
      <trkpt lat="48.98971" lon="7.64226">
        <ele>414.8</ele>
        <time>2026-03-10T11:32:57Z</time>
      </trkpt>
      <trkpt lat="48.98971" lon="7.64226">
        <ele>414.8</ele>
        <time>2026-03-10T11:33:02Z</time>
      </trkpt>
      <trkpt lat="48.98971" lon="7.64226">
        <ele>414.8</ele>
        <time>2026-03-10T11:33:07Z</time>
      </trkpt>
      <trkpt lat="48.98966" lon="7.64211">
        <ele>414.3</ele>
        <time>2026-03-10T11:33:12Z</time>
      </trkpt>
      <trkpt lat="48.98961" lon="7.64209">
        <ele>415.9</ele>
        <time>2026-03-10T11:33:17Z</time>
      </trkpt>
      <trkpt lat="48.98959" lon="7.64211">
        <ele>416.9</ele>
        <time>2026-03-10T11:33:22Z</time>
      </trkpt>
      <trkpt lat="48.98955" lon="7.6421">
        <ele>418.2</ele>
        <time>2026-03-10T11:33:27Z</time>
      </trkpt>
      <trkpt lat="48.98953" lon="7.64204">
        <ele>418.1</ele>
        <time>2026-03-10T11:33:32Z</time>
      </trkpt>
      <trkpt lat="48.9895" lon="7.64197">
        <ele>418.3</ele>
        <time>2026-03-10T11:33:37Z</time>
      </trkpt>
      <trkpt lat="48.98946" lon="7.64191">
        <ele>419.1</ele>
        <time>2026-03-10T11:33:42Z</time>
      </trkpt>
      <trkpt lat="48.98943" lon="7.64188">
        <ele>419.9</ele>
        <time>2026-03-10T11:33:47Z</time>
      </trkpt>
      <trkpt lat="48.98941" lon="7.64186">
        <ele>420.4</ele>
        <time>2026-03-10T11:33:52Z</time>
      </trkpt>
      <trkpt lat="48.98938" lon="7.64185">
        <ele>421.5</ele>
        <time>2026-03-10T11:33:57Z</time>
      </trkpt>
      <trkpt lat="48.98936" lon="7.64179">
        <ele>421.5</ele>
        <time>2026-03-10T11:34:02Z</time>
      </trkpt>
      <trkpt lat="48.98935" lon="7.64178">
        <ele>421.8</ele>
        <time>2026-03-10T11:34:07Z</time>
      </trkpt>
      <trkpt lat="48.98934" lon="7.64178">
        <ele>422.2</ele>
        <time>2026-03-10T11:34:12Z</time>
      </trkpt>
      <trkpt lat="48.9893" lon="7.64176">
        <ele>423.6</ele>
        <time>2026-03-10T11:34:17Z</time>
      </trkpt>
      <trkpt lat="48.98929" lon="7.6417">
        <ele>423.3</ele>
        <time>2026-03-10T11:34:22Z</time>
      </trkpt>
      <trkpt lat="48.98929" lon="7.64159">
        <ele>422.3</ele>
        <time>2026-03-10T11:34:27Z</time>
      </trkpt>
      <trkpt lat="48.98931" lon="7.64151">
        <ele>420.8</ele>
        <time>2026-03-10T11:34:32Z</time>
      </trkpt>
      <trkpt lat="48.98927" lon="7.64146">
        <ele>422.1</ele>
        <time>2026-03-10T11:34:37Z</time>
      </trkpt>
      <trkpt lat="48.98921" lon="7.64145">
        <ele>424.6</ele>
        <time>2026-03-10T11:34:42Z</time>
      </trkpt>
      <trkpt lat="48.98919" lon="7.64149">
        <ele>425.7</ele>
        <time>2026-03-10T11:34:47Z</time>
      </trkpt>
      <trkpt lat="48.98917" lon="7.6415">
        <ele>426.7</ele>
        <time>2026-03-10T11:34:52Z</time>
      </trkpt>
      <trkpt lat="48.98913" lon="7.6415">
        <ele>428.3</ele>
        <time>2026-03-10T11:34:57Z</time>
      </trkpt>
      <trkpt lat="48.98911" lon="7.64146">
        <ele>428.8</ele>
        <time>2026-03-10T11:35:02Z</time>
      </trkpt>
      <trkpt lat="48.98908" lon="7.64144">
        <ele>429.9</ele>
        <time>2026-03-10T11:35:07Z</time>
      </trkpt>
      <trkpt lat="48.98908" lon="7.64144">
        <ele>429.9</ele>
        <time>2026-03-10T11:35:12Z</time>
      </trkpt>
      <trkpt lat="48.98908" lon="7.64144">
        <ele>429.9</ele>
        <time>2026-03-10T11:35:17Z</time>
      </trkpt>
      <trkpt lat="48.98908" lon="7.64144">
        <ele>429.9</ele>
        <time>2026-03-10T11:35:22Z</time>
      </trkpt>
      <trkpt lat="48.98908" lon="7.64144">
        <ele>429.9</ele>
        <time>2026-03-10T11:35:27Z</time>
      </trkpt>
      <trkpt lat="48.98908" lon="7.64144">
        <ele>429.9</ele>
        <time>2026-03-10T11:35:32Z</time>
      </trkpt>
      <trkpt lat="48.989" lon="7.64145">
        <ele>433.2</ele>
        <time>2026-03-10T11:35:37Z</time>
      </trkpt>
      <trkpt lat="48.98896" lon="7.64141">
        <ele>434.5</ele>
        <time>2026-03-10T11:35:42Z</time>
      </trkpt>
      <trkpt lat="48.98895" lon="7.64136">
        <ele>434.5</ele>
        <time>2026-03-10T11:35:47Z</time>
      </trkpt>
      <trkpt lat="48.98892" lon="7.64135">
        <ele>435.7</ele>
        <time>2026-03-10T11:35:52Z</time>
      </trkpt>
      <trkpt lat="48.98889" lon="7.64132">
        <ele>436.7</ele>
        <time>2026-03-10T11:35:57Z</time>
      </trkpt>
      <trkpt lat="48.98887" lon="7.64125">
        <ele>436.9</ele>
        <time>2026-03-10T11:36:02Z</time>
      </trkpt>
      <trkpt lat="48.98883" lon="7.64124">
        <ele>438.5</ele>
        <time>2026-03-10T11:36:07Z</time>
      </trkpt>
      <trkpt lat="48.98881" lon="7.64123">
        <ele>439.2</ele>
        <time>2026-03-10T11:36:12Z</time>
      </trkpt>
      <trkpt lat="48.98879" lon="7.64121">
        <ele>439.8</ele>
        <time>2026-03-10T11:36:17Z</time>
      </trkpt>
      <trkpt lat="48.98878" lon="7.64118">
        <ele>440</ele>
        <time>2026-03-10T11:36:22Z</time>
      </trkpt>
      <trkpt lat="48.98875" lon="7.64113">
        <ele>440.8</ele>
        <time>2026-03-10T11:36:27Z</time>
      </trkpt>
      <trkpt lat="48.98872" lon="7.64112">
        <ele>441.9</ele>
        <time>2026-03-10T11:36:32Z</time>
      </trkpt>
      <trkpt lat="48.98869" lon="7.64111">
        <ele>443.1</ele>
        <time>2026-03-10T11:36:37Z</time>
      </trkpt>
      <trkpt lat="48.98867" lon="7.6411">
        <ele>443.8</ele>
        <time>2026-03-10T11:36:42Z</time>
      </trkpt>
      <trkpt lat="48.98866" lon="7.64109">
        <ele>444.1</ele>
        <time>2026-03-10T11:36:47Z</time>
      </trkpt>
      <trkpt lat="48.98866" lon="7.64109">
        <ele>444.1</ele>
        <time>2026-03-10T11:36:52Z</time>
      </trkpt>
      <trkpt lat="48.98866" lon="7.64109">
        <ele>444.1</ele>
        <time>2026-03-10T11:36:57Z</time>
      </trkpt>
      <trkpt lat="48.98866" lon="7.64109">
        <ele>444.1</ele>
        <time>2026-03-10T11:37:02Z</time>
      </trkpt>
      <trkpt lat="48.98866" lon="7.64109">
        <ele>444.1</ele>
        <time>2026-03-10T11:37:07Z</time>
      </trkpt>
      <trkpt lat="48.9886" lon="7.64096">
        <ele>445.5</ele>
        <time>2026-03-10T11:37:12Z</time>
      </trkpt>
      <trkpt lat="48.9886" lon="7.64096">
        <ele>445.5</ele>
        <time>2026-03-10T11:37:17Z</time>
      </trkpt>
      <trkpt lat="48.98857" lon="7.64091">
        <ele>446.2</ele>
        <time>2026-03-10T11:37:22Z</time>
      </trkpt>
      <trkpt lat="48.98857" lon="7.64091">
        <ele>446.2</ele>
        <time>2026-03-10T11:37:27Z</time>
      </trkpt>
      <trkpt lat="48.98857" lon="7.64091">
        <ele>446.2</ele>
        <time>2026-03-10T11:37:32Z</time>
      </trkpt>
      <trkpt lat="48.98857" lon="7.64091">
        <ele>446.2</ele>
        <time>2026-03-10T11:37:37Z</time>
      </trkpt>
      <trkpt lat="48.98847" lon="7.64088">
        <ele>450</ele>
        <time>2026-03-10T11:37:42Z</time>
      </trkpt>
      <trkpt lat="48.98844" lon="7.64082">
        <ele>450.6</ele>
        <time>2026-03-10T11:37:47Z</time>
      </trkpt>
      <trkpt lat="48.98841" lon="7.64078">
        <ele>451.2</ele>
        <time>2026-03-10T11:37:52Z</time>
      </trkpt>
      <trkpt lat="48.9884" lon="7.64077">
        <ele>451.4</ele>
        <time>2026-03-10T11:37:57Z</time>
      </trkpt>
      <trkpt lat="48.9884" lon="7.64076">
        <ele>451.3</ele>
        <time>2026-03-10T11:38:02Z</time>
      </trkpt>
      <trkpt lat="48.98839" lon="7.64071">
        <ele>451</ele>
        <time>2026-03-10T11:38:07Z</time>
      </trkpt>
      <trkpt lat="48.98837" lon="7.64066">
        <ele>451</ele>
        <time>2026-03-10T11:38:12Z</time>
      </trkpt>
      <trkpt lat="48.98835" lon="7.64064">
        <ele>451.5</ele>
        <time>2026-03-10T11:38:17Z</time>
      </trkpt>
      <trkpt lat="48.98833" lon="7.64063">
        <ele>452.1</ele>
        <time>2026-03-10T11:38:22Z</time>
      </trkpt>
      <trkpt lat="48.98833" lon="7.64063">
        <ele>452.1</ele>
        <time>2026-03-10T11:38:27Z</time>
      </trkpt>
      <trkpt lat="48.98825" lon="7.64059">
        <ele>453.3</ele>
        <time>2026-03-10T11:38:32Z</time>
      </trkpt>
      <trkpt lat="48.98823" lon="7.64055">
        <ele>453.2</ele>
        <time>2026-03-10T11:38:37Z</time>
      </trkpt>
      <trkpt lat="48.98821" lon="7.64051">
        <ele>453</ele>
        <time>2026-03-10T11:38:42Z</time>
      </trkpt>
      <trkpt lat="48.98819" lon="7.64048">
        <ele>453</ele>
        <time>2026-03-10T11:38:47Z</time>
      </trkpt>
      <trkpt lat="48.98819" lon="7.64046">
        <ele>452.7</ele>
        <time>2026-03-10T11:38:52Z</time>
      </trkpt>
      <trkpt lat="48.98815" lon="7.64044">
        <ele>453.3</ele>
        <time>2026-03-10T11:38:57Z</time>
      </trkpt>
      <trkpt lat="48.98813" lon="7.64039">
        <ele>453</ele>
        <time>2026-03-10T11:39:02Z</time>
      </trkpt>
      <trkpt lat="48.98812" lon="7.64034">
        <ele>452.5</ele>
        <time>2026-03-10T11:39:07Z</time>
      </trkpt>
      <trkpt lat="48.9881" lon="7.64032">
        <ele>452.6</ele>
        <time>2026-03-10T11:39:12Z</time>
      </trkpt>
      <trkpt lat="48.98809" lon="7.64031">
        <ele>452.7</ele>
        <time>2026-03-10T11:39:17Z</time>
      </trkpt>
      <trkpt lat="48.98808" lon="7.64029">
        <ele>452.6</ele>
        <time>2026-03-10T11:39:22Z</time>
      </trkpt>
      <trkpt lat="48.98808" lon="7.64029">
        <ele>452.6</ele>
        <time>2026-03-10T11:39:27Z</time>
      </trkpt>
      <trkpt lat="48.98808" lon="7.64029">
        <ele>452.6</ele>
        <time>2026-03-10T11:39:32Z</time>
      </trkpt>
      <trkpt lat="48.98808" lon="7.64029">
        <ele>452.6</ele>
        <time>2026-03-10T11:39:37Z</time>
      </trkpt>
      <trkpt lat="48.98808" lon="7.64029">
        <ele>452.6</ele>
        <time>2026-03-10T11:39:42Z</time>
      </trkpt>
      <trkpt lat="48.98798" lon="7.64023">
        <ele>453.9</ele>
        <time>2026-03-10T11:39:47Z</time>
      </trkpt>
      <trkpt lat="48.98798" lon="7.64023">
        <ele>453.9</ele>
        <time>2026-03-10T11:39:52Z</time>
      </trkpt>
      <trkpt lat="48.98798" lon="7.64023">
        <ele>453.9</ele>
        <time>2026-03-10T11:39:57Z</time>
      </trkpt>
      <trkpt lat="48.98798" lon="7.64023">
        <ele>453.9</ele>
        <time>2026-03-10T11:40:02Z</time>
      </trkpt>
      <trkpt lat="48.9879" lon="7.64016">
        <ele>454.7</ele>
        <time>2026-03-10T11:40:07Z</time>
      </trkpt>
      <trkpt lat="48.98787" lon="7.64012">
        <ele>454.7</ele>
        <time>2026-03-10T11:40:12Z</time>
      </trkpt>
      <trkpt lat="48.98787" lon="7.64012">
        <ele>454.7</ele>
        <time>2026-03-10T11:40:17Z</time>
      </trkpt>
      <trkpt lat="48.98784" lon="7.64003">
        <ele>454.1</ele>
        <time>2026-03-10T11:40:22Z</time>
      </trkpt>
      <trkpt lat="48.98783" lon="7.64004">
        <ele>454.4</ele>
        <time>2026-03-10T11:40:27Z</time>
      </trkpt>
      <trkpt lat="48.98783" lon="7.64004">
        <ele>454.4</ele>
        <time>2026-03-10T11:40:32Z</time>
      </trkpt>
      <trkpt lat="48.98783" lon="7.64004">
        <ele>454.4</ele>
        <time>2026-03-10T11:40:37Z</time>
      </trkpt>
      <trkpt lat="48.98783" lon="7.64004">
        <ele>454.4</ele>
        <time>2026-03-10T11:40:42Z</time>
      </trkpt>
      <trkpt lat="48.98775" lon="7.63995">
        <ele>454.5</ele>
        <time>2026-03-10T11:40:47Z</time>
      </trkpt>
      <trkpt lat="48.98775" lon="7.63995">
        <ele>454.5</ele>
        <time>2026-03-10T11:40:52Z</time>
      </trkpt>
      <trkpt lat="48.98775" lon="7.63995">
        <ele>454.5</ele>
        <time>2026-03-10T11:40:57Z</time>
      </trkpt>
      <trkpt lat="48.98775" lon="7.63995">
        <ele>454.5</ele>
        <time>2026-03-10T11:41:02Z</time>
      </trkpt>
      <trkpt lat="48.98775" lon="7.63995">
        <ele>454.5</ele>
        <time>2026-03-10T11:41:07Z</time>
      </trkpt>
      <trkpt lat="48.98775" lon="7.63995">
        <ele>454.5</ele>
        <time>2026-03-10T11:41:12Z</time>
      </trkpt>
      <trkpt lat="48.98775" lon="7.63995">
        <ele>454.5</ele>
        <time>2026-03-10T11:41:17Z</time>
      </trkpt>
      <trkpt lat="48.98768" lon="7.63991">
        <ele>455.1</ele>
        <time>2026-03-10T11:41:22Z</time>
      </trkpt>
      <trkpt lat="48.98765" lon="7.6399">
        <ele>455.5</ele>
        <time>2026-03-10T11:41:27Z</time>
      </trkpt>
      <trkpt lat="48.98762" lon="7.63985">
        <ele>455.1</ele>
        <time>2026-03-10T11:41:32Z</time>
      </trkpt>
      <trkpt lat="48.9876" lon="7.63981">
        <ele>454.6</ele>
        <time>2026-03-10T11:41:37Z</time>
      </trkpt>
      <trkpt lat="48.98755" lon="7.63979">
        <ele>455.2</ele>
        <time>2026-03-10T11:41:42Z</time>
      </trkpt>
      <trkpt lat="48.98753" lon="7.63976">
        <ele>454.9</ele>
        <time>2026-03-10T11:41:47Z</time>
      </trkpt>
      <trkpt lat="48.98752" lon="7.63974">
        <ele>454.7</ele>
        <time>2026-03-10T11:41:52Z</time>
      </trkpt>
      <trkpt lat="48.98752" lon="7.63974">
        <ele>454.7</ele>
        <time>2026-03-10T11:41:57Z</time>
      </trkpt>
      <trkpt lat="48.98752" lon="7.63974">
        <ele>454.7</ele>
        <time>2026-03-10T11:42:02Z</time>
      </trkpt>
      <trkpt lat="48.98747" lon="7.63973">
        <ele>455.4</ele>
        <time>2026-03-10T11:42:07Z</time>
      </trkpt>
      <trkpt lat="48.98746" lon="7.6397">
        <ele>454.9</ele>
        <time>2026-03-10T11:42:12Z</time>
      </trkpt>
      <trkpt lat="48.98742" lon="7.63964">
        <ele>454.4</ele>
        <time>2026-03-10T11:42:17Z</time>
      </trkpt>
      <trkpt lat="48.98742" lon="7.63964">
        <ele>454.4</ele>
        <time>2026-03-10T11:42:22Z</time>
      </trkpt>
      <trkpt lat="48.98742" lon="7.63964">
        <ele>454.4</ele>
        <time>2026-03-10T11:42:27Z</time>
      </trkpt>
      <trkpt lat="48.98742" lon="7.63964">
        <ele>454.4</ele>
        <time>2026-03-10T11:42:32Z</time>
      </trkpt>
      <trkpt lat="48.98742" lon="7.63964">
        <ele>454.4</ele>
        <time>2026-03-10T11:42:37Z</time>
      </trkpt>
      <trkpt lat="48.98735" lon="7.63955">
        <ele>453.9</ele>
        <time>2026-03-10T11:42:42Z</time>
      </trkpt>
      <trkpt lat="48.98733" lon="7.63952">
        <ele>453.6</ele>
        <time>2026-03-10T11:42:47Z</time>
      </trkpt>
      <trkpt lat="48.98732" lon="7.6395">
        <ele>453.4</ele>
        <time>2026-03-10T11:42:52Z</time>
      </trkpt>
      <trkpt lat="48.98732" lon="7.6395">
        <ele>453.4</ele>
        <time>2026-03-10T11:42:57Z</time>
      </trkpt>
      <trkpt lat="48.98732" lon="7.6395">
        <ele>453.4</ele>
        <time>2026-03-10T11:43:02Z</time>
      </trkpt>
      <trkpt lat="48.98732" lon="7.6395">
        <ele>453.4</ele>
        <time>2026-03-10T11:43:07Z</time>
      </trkpt>
      <trkpt lat="48.98723" lon="7.63955">
        <ele>456.4</ele>
        <time>2026-03-10T11:43:12Z</time>
      </trkpt>
      <trkpt lat="48.98719" lon="7.63952">
        <ele>456.6</ele>
        <time>2026-03-10T11:43:17Z</time>
      </trkpt>
      <trkpt lat="48.98716" lon="7.63947">
        <ele>456.3</ele>
        <time>2026-03-10T11:43:22Z</time>
      </trkpt>
      <trkpt lat="48.98714" lon="7.63941">
        <ele>455.6</ele>
        <time>2026-03-10T11:43:27Z</time>
      </trkpt>
      <trkpt lat="48.98712" lon="7.63936">
        <ele>455.1</ele>
        <time>2026-03-10T11:43:32Z</time>
      </trkpt>
      <trkpt lat="48.98712" lon="7.63936">
        <ele>455.1</ele>
        <time>2026-03-10T11:43:37Z</time>
      </trkpt>
      <trkpt lat="48.98712" lon="7.63936">
        <ele>455.1</ele>
        <time>2026-03-10T11:43:42Z</time>
      </trkpt>
      <trkpt lat="48.98712" lon="7.63936">
        <ele>455.1</ele>
        <time>2026-03-10T11:43:47Z</time>
      </trkpt>
      <trkpt lat="48.98712" lon="7.63936">
        <ele>455.1</ele>
        <time>2026-03-10T11:43:52Z</time>
      </trkpt>
      <trkpt lat="48.98712" lon="7.63936">
        <ele>455.1</ele>
        <time>2026-03-10T11:43:57Z</time>
      </trkpt>
      <trkpt lat="48.98712" lon="7.63936">
        <ele>455.1</ele>
        <time>2026-03-10T11:44:02Z</time>
      </trkpt>
      <trkpt lat="48.98712" lon="7.63936">
        <ele>455.1</ele>
        <time>2026-03-10T11:44:07Z</time>
      </trkpt>
      <trkpt lat="48.98712" lon="7.63936">
        <ele>455.1</ele>
        <time>2026-03-10T11:44:12Z</time>
      </trkpt>
      <trkpt lat="48.98712" lon="7.63936">
        <ele>455.1</ele>
        <time>2026-03-10T11:44:17Z</time>
      </trkpt>
      <trkpt lat="48.98712" lon="7.63936">
        <ele>455.1</ele>
        <time>2026-03-10T11:44:22Z</time>
      </trkpt>
      <trkpt lat="48.98712" lon="7.63936">
        <ele>455.1</ele>
        <time>2026-03-10T11:44:27Z</time>
      </trkpt>
      <trkpt lat="48.98712" lon="7.63936">
        <ele>455.1</ele>
        <time>2026-03-10T11:44:32Z</time>
      </trkpt>
      <trkpt lat="48.98712" lon="7.63936">
        <ele>455.1</ele>
        <time>2026-03-10T11:44:37Z</time>
      </trkpt>
      <trkpt lat="48.98712" lon="7.63936">
        <ele>455.1</ele>
        <time>2026-03-10T11:44:42Z</time>
      </trkpt>
      <trkpt lat="48.98712" lon="7.63936">
        <ele>455.1</ele>
        <time>2026-03-10T11:44:47Z</time>
      </trkpt>
      <trkpt lat="48.98712" lon="7.63936">
        <ele>455.1</ele>
        <time>2026-03-10T11:44:52Z</time>
      </trkpt>
      <trkpt lat="48.98712" lon="7.63936">
        <ele>455.1</ele>
        <time>2026-03-10T11:44:57Z</time>
      </trkpt>
      <trkpt lat="48.98712" lon="7.63936">
        <ele>455.1</ele>
        <time>2026-03-10T11:45:02Z</time>
      </trkpt>
      <trkpt lat="48.98712" lon="7.63936">
        <ele>455.1</ele>
        <time>2026-03-10T11:45:07Z</time>
      </trkpt>
      <trkpt lat="48.98712" lon="7.63936">
        <ele>455.1</ele>
        <time>2026-03-10T11:45:12Z</time>
      </trkpt>
      <trkpt lat="48.98712" lon="7.63936">
        <ele>455.1</ele>
        <time>2026-03-10T11:45:17Z</time>
      </trkpt>
      <trkpt lat="48.98712" lon="7.63936">
        <ele>455.1</ele>
        <time>2026-03-10T11:45:22Z</time>
      </trkpt>
      <trkpt lat="48.98712" lon="7.63936">
        <ele>455.1</ele>
        <time>2026-03-10T11:45:27Z</time>
      </trkpt>
      <trkpt lat="48.98712" lon="7.63936">
        <ele>455.1</ele>
        <time>2026-03-10T11:45:32Z</time>
      </trkpt>
      <trkpt lat="48.98712" lon="7.63936">
        <ele>455.1</ele>
        <time>2026-03-10T11:45:37Z</time>
      </trkpt>
      <trkpt lat="48.98712" lon="7.63936">
        <ele>455.1</ele>
        <time>2026-03-10T11:45:42Z</time>
      </trkpt>
      <trkpt lat="48.98709" lon="7.63937">
        <ele>456</ele>
        <time>2026-03-10T11:45:47Z</time>
      </trkpt>
      <trkpt lat="48.98706" lon="7.63935">
        <ele>456.3</ele>
        <time>2026-03-10T11:45:52Z</time>
      </trkpt>
      <trkpt lat="48.98702" lon="7.63933">
        <ele>456.9</ele>
        <time>2026-03-10T11:45:57Z</time>
      </trkpt>
      <trkpt lat="48.98698" lon="7.63932">
        <ele>457.7</ele>
        <time>2026-03-10T11:46:02Z</time>
      </trkpt>
      <trkpt lat="48.98696" lon="7.63934">
        <ele>458.5</ele>
        <time>2026-03-10T11:46:07Z</time>
      </trkpt>
      <trkpt lat="48.98696" lon="7.63934">
        <ele>458.5</ele>
        <time>2026-03-10T11:46:12Z</time>
      </trkpt>
      <trkpt lat="48.98696" lon="7.63934">
        <ele>458.5</ele>
        <time>2026-03-10T11:46:17Z</time>
      </trkpt>
      <trkpt lat="48.98696" lon="7.63934">
        <ele>458.5</ele>
        <time>2026-03-10T11:46:22Z</time>
      </trkpt>
      <trkpt lat="48.98687" lon="7.63926">
        <ele>459.3</ele>
        <time>2026-03-10T11:46:27Z</time>
      </trkpt>
      <trkpt lat="48.98686" lon="7.63925">
        <ele>459.4</ele>
        <time>2026-03-10T11:46:32Z</time>
      </trkpt>
      <trkpt lat="48.98686" lon="7.63925">
        <ele>459.4</ele>
        <time>2026-03-10T11:46:37Z</time>
      </trkpt>
      <trkpt lat="48.98677" lon="7.63919">
        <ele>460.7</ele>
        <time>2026-03-10T11:46:42Z</time>
      </trkpt>
      <trkpt lat="48.98674" lon="7.63917">
        <ele>461.2</ele>
        <time>2026-03-10T11:46:47Z</time>
      </trkpt>
      <trkpt lat="48.98674" lon="7.63917">
        <ele>461.2</ele>
        <time>2026-03-10T11:46:52Z</time>
      </trkpt>
      <trkpt lat="48.98674" lon="7.63917">
        <ele>461.2</ele>
        <time>2026-03-10T11:46:57Z</time>
      </trkpt>
      <trkpt lat="48.98665" lon="7.63914">
        <ele>463.4</ele>
        <time>2026-03-10T11:47:02Z</time>
      </trkpt>
      <trkpt lat="48.98663" lon="7.63916">
        <ele>464.4</ele>
        <time>2026-03-10T11:47:07Z</time>
      </trkpt>
      <trkpt lat="48.98659" lon="7.63918">
        <ele>466.2</ele>
        <time>2026-03-10T11:47:12Z</time>
      </trkpt>
      <trkpt lat="48.98657" lon="7.63918">
        <ele>467</ele>
        <time>2026-03-10T11:47:17Z</time>
      </trkpt>
      <trkpt lat="48.98657" lon="7.63918">
        <ele>467</ele>
        <time>2026-03-10T11:47:22Z</time>
      </trkpt>
      <trkpt lat="48.98657" lon="7.63918">
        <ele>467</ele>
        <time>2026-03-10T11:47:27Z</time>
      </trkpt>
      <trkpt lat="48.98647" lon="7.63919">
        <ele>471.1</ele>
        <time>2026-03-10T11:47:32Z</time>
      </trkpt>
      <trkpt lat="48.98646" lon="7.63919">
        <ele>471.5</ele>
        <time>2026-03-10T11:47:37Z</time>
      </trkpt>
      <trkpt lat="48.98646" lon="7.63919">
        <ele>471.5</ele>
        <time>2026-03-10T11:47:42Z</time>
      </trkpt>
      <trkpt lat="48.98646" lon="7.63919">
        <ele>471.5</ele>
        <time>2026-03-10T11:47:47Z</time>
      </trkpt>
      <trkpt lat="48.98638" lon="7.63913">
        <ele>474</ele>
        <time>2026-03-10T11:47:52Z</time>
      </trkpt>
      <trkpt lat="48.98636" lon="7.63911">
        <ele>474.6</ele>
        <time>2026-03-10T11:47:57Z</time>
      </trkpt>
      <trkpt lat="48.98636" lon="7.63911">
        <ele>474.6</ele>
        <time>2026-03-10T11:48:02Z</time>
      </trkpt>
      <trkpt lat="48.98628" lon="7.63909">
        <ele>477.7</ele>
        <time>2026-03-10T11:48:07Z</time>
      </trkpt>
      <trkpt lat="48.98627" lon="7.63908">
        <ele>478</ele>
        <time>2026-03-10T11:48:12Z</time>
      </trkpt>
      <trkpt lat="48.98627" lon="7.63908">
        <ele>478</ele>
        <time>2026-03-10T11:48:17Z</time>
      </trkpt>
      <trkpt lat="48.98627" lon="7.63908">
        <ele>478</ele>
        <time>2026-03-10T11:48:22Z</time>
      </trkpt>
      <trkpt lat="48.98618" lon="7.63905">
        <ele>481.3</ele>
        <time>2026-03-10T11:48:27Z</time>
      </trkpt>
      <trkpt lat="48.98617" lon="7.63905">
        <ele>481.7</ele>
        <time>2026-03-10T11:48:32Z</time>
      </trkpt>
      <trkpt lat="48.98617" lon="7.63905">
        <ele>481.7</ele>
        <time>2026-03-10T11:48:37Z</time>
      </trkpt>
      <trkpt lat="48.98617" lon="7.63905">
        <ele>481.7</ele>
        <time>2026-03-10T11:48:42Z</time>
      </trkpt>
      <trkpt lat="48.98617" lon="7.63905">
        <ele>481.7</ele>
        <time>2026-03-10T11:48:47Z</time>
      </trkpt>
      <trkpt lat="48.98608" lon="7.63898">
        <ele>484.8</ele>
        <time>2026-03-10T11:48:52Z</time>
      </trkpt>
      <trkpt lat="48.98608" lon="7.63897">
        <ele>484.8</ele>
        <time>2026-03-10T11:48:57Z</time>
      </trkpt>
      <trkpt lat="48.98604" lon="7.63888">
        <ele>485.8</ele>
        <time>2026-03-10T11:49:02Z</time>
      </trkpt>
      <trkpt lat="48.986" lon="7.63884">
        <ele>487.1</ele>
        <time>2026-03-10T11:49:07Z</time>
      </trkpt>
      <trkpt lat="48.98597" lon="7.63878">
        <ele>488</ele>
        <time>2026-03-10T11:49:12Z</time>
      </trkpt>
      <trkpt lat="48.98593" lon="7.63873">
        <ele>489.3</ele>
        <time>2026-03-10T11:49:17Z</time>
      </trkpt>
      <trkpt lat="48.9859" lon="7.63869">
        <ele>490.3</ele>
        <time>2026-03-10T11:49:22Z</time>
      </trkpt>
      <trkpt lat="48.98588" lon="7.63864">
        <ele>490.9</ele>
        <time>2026-03-10T11:49:27Z</time>
      </trkpt>
      <trkpt lat="48.98586" lon="7.63858">
        <ele>491.3</ele>
        <time>2026-03-10T11:49:32Z</time>
      </trkpt>
      <trkpt lat="48.98585" lon="7.63857">
        <ele>491.7</ele>
        <time>2026-03-10T11:49:37Z</time>
      </trkpt>
      <trkpt lat="48.98578" lon="7.63851">
        <ele>492.9</ele>
        <time>2026-03-10T11:49:42Z</time>
      </trkpt>
      <trkpt lat="48.98574" lon="7.63845">
        <ele>493.3</ele>
        <time>2026-03-10T11:49:47Z</time>
      </trkpt>
      <trkpt lat="48.98571" lon="7.63839">
        <ele>493.5</ele>
        <time>2026-03-10T11:49:52Z</time>
      </trkpt>
      <trkpt lat="48.98569" lon="7.63833">
        <ele>493.6</ele>
        <time>2026-03-10T11:49:57Z</time>
      </trkpt>
      <trkpt lat="48.98567" lon="7.63829">
        <ele>493.6</ele>
        <time>2026-03-10T11:50:02Z</time>
      </trkpt>
      <trkpt lat="48.98564" lon="7.63826">
        <ele>494</ele>
        <time>2026-03-10T11:50:07Z</time>
      </trkpt>
      <trkpt lat="48.9856" lon="7.63823">
        <ele>494.5</ele>
        <time>2026-03-10T11:50:12Z</time>
      </trkpt>
      <trkpt lat="48.98557" lon="7.63821">
        <ele>494.9</ele>
        <time>2026-03-10T11:50:17Z</time>
      </trkpt>
      <trkpt lat="48.98553" lon="7.63816">
        <ele>495.3</ele>
        <time>2026-03-10T11:50:22Z</time>
      </trkpt>
      <trkpt lat="48.98551" lon="7.63811">
        <ele>495.3</ele>
        <time>2026-03-10T11:50:27Z</time>
      </trkpt>
      <trkpt lat="48.9855" lon="7.63804">
        <ele>495</ele>
        <time>2026-03-10T11:50:32Z</time>
      </trkpt>
      <trkpt lat="48.9855" lon="7.63801">
        <ele>494.8</ele>
        <time>2026-03-10T11:50:37Z</time>
      </trkpt>
      <trkpt lat="48.9855" lon="7.63801">
        <ele>494.8</ele>
        <time>2026-03-10T11:50:42Z</time>
      </trkpt>
      <trkpt lat="48.9855" lon="7.63801">
        <ele>494.8</ele>
        <time>2026-03-10T11:50:47Z</time>
      </trkpt>
      <trkpt lat="48.9855" lon="7.63801">
        <ele>494.8</ele>
        <time>2026-03-10T11:50:52Z</time>
      </trkpt>
      <trkpt lat="48.9855" lon="7.63801">
        <ele>494.8</ele>
        <time>2026-03-10T11:50:57Z</time>
      </trkpt>
      <trkpt lat="48.9855" lon="7.63801">
        <ele>494.8</ele>
        <time>2026-03-10T11:51:02Z</time>
      </trkpt>
      <trkpt lat="48.9855" lon="7.63801">
        <ele>494.8</ele>
        <time>2026-03-10T11:51:07Z</time>
      </trkpt>
      <trkpt lat="48.98542" lon="7.63791">
        <ele>495.6</ele>
        <time>2026-03-10T11:51:12Z</time>
      </trkpt>
      <trkpt lat="48.98537" lon="7.63783">
        <ele>496.1</ele>
        <time>2026-03-10T11:51:17Z</time>
      </trkpt>
      <trkpt lat="48.98534" lon="7.63774">
        <ele>496</ele>
        <time>2026-03-10T11:51:22Z</time>
      </trkpt>
      <trkpt lat="48.98531" lon="7.63768">
        <ele>496.2</ele>
        <time>2026-03-10T11:51:27Z</time>
      </trkpt>
      <trkpt lat="48.98528" lon="7.63765">
        <ele>496.6</ele>
        <time>2026-03-10T11:51:32Z</time>
      </trkpt>
      <trkpt lat="48.98525" lon="7.63762">
        <ele>497</ele>
        <time>2026-03-10T11:51:37Z</time>
      </trkpt>
      <trkpt lat="48.98522" lon="7.63756">
        <ele>497.2</ele>
        <time>2026-03-10T11:51:42Z</time>
      </trkpt>
      <trkpt lat="48.98519" lon="7.63753">
        <ele>497.5</ele>
        <time>2026-03-10T11:51:47Z</time>
      </trkpt>
      <trkpt lat="48.98516" lon="7.63749">
        <ele>497.9</ele>
        <time>2026-03-10T11:51:52Z</time>
      </trkpt>
      <trkpt lat="48.98514" lon="7.63745">
        <ele>498.2</ele>
        <time>2026-03-10T11:51:57Z</time>
      </trkpt>
      <trkpt lat="48.98511" lon="7.63739">
        <ele>498.7</ele>
        <time>2026-03-10T11:52:02Z</time>
      </trkpt>
      <trkpt lat="48.98508" lon="7.63733">
        <ele>499.2</ele>
        <time>2026-03-10T11:52:07Z</time>
      </trkpt>
      <trkpt lat="48.98506" lon="7.63726">
        <ele>499.5</ele>
        <time>2026-03-10T11:52:12Z</time>
      </trkpt>
      <trkpt lat="48.98504" lon="7.6372">
        <ele>499.8</ele>
        <time>2026-03-10T11:52:17Z</time>
      </trkpt>
      <trkpt lat="48.98502" lon="7.63712">
        <ele>500.1</ele>
        <time>2026-03-10T11:52:22Z</time>
      </trkpt>
      <trkpt lat="48.98499" lon="7.63708">
        <ele>500.6</ele>
        <time>2026-03-10T11:52:27Z</time>
      </trkpt>
      <trkpt lat="48.98499" lon="7.637">
        <ele>500.5</ele>
        <time>2026-03-10T11:52:32Z</time>
      </trkpt>
      <trkpt lat="48.98496" lon="7.63693">
        <ele>500.6</ele>
        <time>2026-03-10T11:52:37Z</time>
      </trkpt>
      <trkpt lat="48.98494" lon="7.63684">
        <ele>500.7</ele>
        <time>2026-03-10T11:52:42Z</time>
      </trkpt>
      <trkpt lat="48.98493" lon="7.63676">
        <ele>500.6</ele>
        <time>2026-03-10T11:52:47Z</time>
      </trkpt>
      <trkpt lat="48.9849" lon="7.63664">
        <ele>500.6</ele>
        <time>2026-03-10T11:52:52Z</time>
      </trkpt>
      <trkpt lat="48.98487" lon="7.63653">
        <ele>500.2</ele>
        <time>2026-03-10T11:52:57Z</time>
      </trkpt>
      <trkpt lat="48.98484" lon="7.6364">
        <ele>499.7</ele>
        <time>2026-03-10T11:53:02Z</time>
      </trkpt>
      <trkpt lat="48.98482" lon="7.63635">
        <ele>499.6</ele>
        <time>2026-03-10T11:53:07Z</time>
      </trkpt>
      <trkpt lat="48.9848" lon="7.63627">
        <ele>499.3</ele>
        <time>2026-03-10T11:53:12Z</time>
      </trkpt>
      <trkpt lat="48.98482" lon="7.63618">
        <ele>498.7</ele>
        <time>2026-03-10T11:53:17Z</time>
      </trkpt>
      <trkpt lat="48.98485" lon="7.63617">
        <ele>498.5</ele>
        <time>2026-03-10T11:53:22Z</time>
      </trkpt>
      <trkpt lat="48.98486" lon="7.63606">
        <ele>497.9</ele>
        <time>2026-03-10T11:53:27Z</time>
      </trkpt>
      <trkpt lat="48.98489" lon="7.63596">
        <ele>497.2</ele>
        <time>2026-03-10T11:53:32Z</time>
      </trkpt>
      <trkpt lat="48.9849" lon="7.63586">
        <ele>496.6</ele>
        <time>2026-03-10T11:53:37Z</time>
      </trkpt>
      <trkpt lat="48.98491" lon="7.63579">
        <ele>496</ele>
        <time>2026-03-10T11:53:42Z</time>
      </trkpt>
      <trkpt lat="48.98494" lon="7.63569">
        <ele>495</ele>
        <time>2026-03-10T11:53:47Z</time>
      </trkpt>
      <trkpt lat="48.98495" lon="7.63558">
        <ele>494</ele>
        <time>2026-03-10T11:53:52Z</time>
      </trkpt>
      <trkpt lat="48.98494" lon="7.6355">
        <ele>493.4</ele>
        <time>2026-03-10T11:53:57Z</time>
      </trkpt>
      <trkpt lat="48.98494" lon="7.63538">
        <ele>492.3</ele>
        <time>2026-03-10T11:54:02Z</time>
      </trkpt>
      <trkpt lat="48.98496" lon="7.63528">
        <ele>491.4</ele>
        <time>2026-03-10T11:54:07Z</time>
      </trkpt>
      <trkpt lat="48.98497" lon="7.63519">
        <ele>490.6</ele>
        <time>2026-03-10T11:54:12Z</time>
      </trkpt>
      <trkpt lat="48.98499" lon="7.6351">
        <ele>489.8</ele>
        <time>2026-03-10T11:54:17Z</time>
      </trkpt>
      <trkpt lat="48.98499" lon="7.63503">
        <ele>489.3</ele>
        <time>2026-03-10T11:54:22Z</time>
      </trkpt>
      <trkpt lat="48.985" lon="7.63494">
        <ele>488.5</ele>
        <time>2026-03-10T11:54:27Z</time>
      </trkpt>
      <trkpt lat="48.98501" lon="7.63483">
        <ele>487.5</ele>
        <time>2026-03-10T11:54:32Z</time>
      </trkpt>
      <trkpt lat="48.98503" lon="7.63474">
        <ele>486.7</ele>
        <time>2026-03-10T11:54:37Z</time>
      </trkpt>
      <trkpt lat="48.98503" lon="7.63464">
        <ele>485.8</ele>
        <time>2026-03-10T11:54:42Z</time>
      </trkpt>
      <trkpt lat="48.98504" lon="7.63456">
        <ele>485.1</ele>
        <time>2026-03-10T11:54:47Z</time>
      </trkpt>
      <trkpt lat="48.98506" lon="7.63447">
        <ele>484.3</ele>
        <time>2026-03-10T11:54:52Z</time>
      </trkpt>
      <trkpt lat="48.98508" lon="7.63441">
        <ele>483.8</ele>
        <time>2026-03-10T11:54:57Z</time>
      </trkpt>
      <trkpt lat="48.9851" lon="7.63433">
        <ele>483.1</ele>
        <time>2026-03-10T11:55:02Z</time>
      </trkpt>
      <trkpt lat="48.98512" lon="7.63421">
        <ele>482.1</ele>
        <time>2026-03-10T11:55:07Z</time>
      </trkpt>
      <trkpt lat="48.98517" lon="7.63413">
        <ele>481.1</ele>
        <time>2026-03-10T11:55:12Z</time>
      </trkpt>
      <trkpt lat="48.98521" lon="7.63406">
        <ele>480.2</ele>
        <time>2026-03-10T11:55:17Z</time>
      </trkpt>
      <trkpt lat="48.98524" lon="7.63398">
        <ele>479.1</ele>
        <time>2026-03-10T11:55:22Z</time>
      </trkpt>
      <trkpt lat="48.98525" lon="7.63388">
        <ele>477.9</ele>
        <time>2026-03-10T11:55:27Z</time>
      </trkpt>
      <trkpt lat="48.98524" lon="7.6338">
        <ele>476.9</ele>
        <time>2026-03-10T11:55:32Z</time>
      </trkpt>
      <trkpt lat="48.98523" lon="7.6337">
        <ele>475.7</ele>
        <time>2026-03-10T11:55:37Z</time>
      </trkpt>
      <trkpt lat="48.98526" lon="7.63363">
        <ele>474.9</ele>
        <time>2026-03-10T11:55:42Z</time>
      </trkpt>
      <trkpt lat="48.98527" lon="7.63353">
        <ele>473.7</ele>
        <time>2026-03-10T11:55:47Z</time>
      </trkpt>
      <trkpt lat="48.9853" lon="7.63347">
        <ele>473.1</ele>
        <time>2026-03-10T11:55:52Z</time>
      </trkpt>
      <trkpt lat="48.98533" lon="7.63345">
        <ele>472.9</ele>
        <time>2026-03-10T11:55:57Z</time>
      </trkpt>
      <trkpt lat="48.98533" lon="7.63345">
        <ele>472.9</ele>
        <time>2026-03-10T11:56:02Z</time>
      </trkpt>
      <trkpt lat="48.98533" lon="7.63345">
        <ele>472.9</ele>
        <time>2026-03-10T11:56:07Z</time>
      </trkpt>
      <trkpt lat="48.98533" lon="7.63345">
        <ele>472.9</ele>
        <time>2026-03-10T11:56:12Z</time>
      </trkpt>
      <trkpt lat="48.98533" lon="7.63345">
        <ele>472.9</ele>
        <time>2026-03-10T11:56:17Z</time>
      </trkpt>
      <trkpt lat="48.98533" lon="7.63345">
        <ele>472.9</ele>
        <time>2026-03-10T11:56:22Z</time>
      </trkpt>
      <trkpt lat="48.98538" lon="7.6334">
        <ele>472.6</ele>
        <time>2026-03-10T11:56:27Z</time>
      </trkpt>
      <trkpt lat="48.98541" lon="7.63331">
        <ele>471.6</ele>
        <time>2026-03-10T11:56:32Z</time>
      </trkpt>
      <trkpt lat="48.98544" lon="7.63324">
        <ele>470.5</ele>
        <time>2026-03-10T11:56:37Z</time>
      </trkpt>
      <trkpt lat="48.98549" lon="7.63318">
        <ele>469.8</ele>
        <time>2026-03-10T11:56:42Z</time>
      </trkpt>
      <trkpt lat="48.98552" lon="7.63313">
        <ele>469.2</ele>
        <time>2026-03-10T11:56:47Z</time>
      </trkpt>
      <trkpt lat="48.98556" lon="7.6331">
        <ele>469.1</ele>
        <time>2026-03-10T11:56:52Z</time>
      </trkpt>
      <trkpt lat="48.98561" lon="7.63304">
        <ele>468.6</ele>
        <time>2026-03-10T11:56:57Z</time>
      </trkpt>
      <trkpt lat="48.98565" lon="7.63294">
        <ele>467.5</ele>
        <time>2026-03-10T11:57:02Z</time>
      </trkpt>
      <trkpt lat="48.98567" lon="7.63289">
        <ele>467</ele>
        <time>2026-03-10T11:57:07Z</time>
      </trkpt>
      <trkpt lat="48.9857" lon="7.63284">
        <ele>466.6</ele>
        <time>2026-03-10T11:57:12Z</time>
      </trkpt>
      <trkpt lat="48.98574" lon="7.63277">
        <ele>466.1</ele>
        <time>2026-03-10T11:57:17Z</time>
      </trkpt>
      <trkpt lat="48.98579" lon="7.63272">
        <ele>466.1</ele>
        <time>2026-03-10T11:57:22Z</time>
      </trkpt>
      <trkpt lat="48.98585" lon="7.63267">
        <ele>466.1</ele>
        <time>2026-03-10T11:57:27Z</time>
      </trkpt>
      <trkpt lat="48.9859" lon="7.63262">
        <ele>465.7</ele>
        <time>2026-03-10T11:57:32Z</time>
      </trkpt>
      <trkpt lat="48.98595" lon="7.63256">
        <ele>465.3</ele>
        <time>2026-03-10T11:57:37Z</time>
      </trkpt>
      <trkpt lat="48.98601" lon="7.63249">
        <ele>464.9</ele>
        <time>2026-03-10T11:57:42Z</time>
      </trkpt>
      <trkpt lat="48.98603" lon="7.63239">
        <ele>463.7</ele>
        <time>2026-03-10T11:57:47Z</time>
      </trkpt>
      <trkpt lat="48.98605" lon="7.63229">
        <ele>462.6</ele>
        <time>2026-03-10T11:57:52Z</time>
      </trkpt>
      <trkpt lat="48.98608" lon="7.63216">
        <ele>461.2</ele>
        <time>2026-03-10T11:57:57Z</time>
      </trkpt>
      <trkpt lat="48.9861" lon="7.63204">
        <ele>460</ele>
        <time>2026-03-10T11:58:02Z</time>
      </trkpt>
      <trkpt lat="48.9861" lon="7.63197">
        <ele>459.1</ele>
        <time>2026-03-10T11:58:07Z</time>
      </trkpt>
      <trkpt lat="48.98609" lon="7.63191">
        <ele>458.2</ele>
        <time>2026-03-10T11:58:12Z</time>
      </trkpt>
      <trkpt lat="48.98608" lon="7.63183">
        <ele>457.1</ele>
        <time>2026-03-10T11:58:17Z</time>
      </trkpt>
      <trkpt lat="48.98608" lon="7.63174">
        <ele>456</ele>
        <time>2026-03-10T11:58:22Z</time>
      </trkpt>
      <trkpt lat="48.98608" lon="7.63164">
        <ele>454.9</ele>
        <time>2026-03-10T11:58:27Z</time>
      </trkpt>
      <trkpt lat="48.98608" lon="7.63153">
        <ele>454.5</ele>
        <time>2026-03-10T11:58:32Z</time>
      </trkpt>
      <trkpt lat="48.98608" lon="7.63145">
        <ele>454.2</ele>
        <time>2026-03-10T11:58:37Z</time>
      </trkpt>
      <trkpt lat="48.98608" lon="7.63136">
        <ele>453.8</ele>
        <time>2026-03-10T11:58:42Z</time>
      </trkpt>
      <trkpt lat="48.98607" lon="7.63128">
        <ele>453.3</ele>
        <time>2026-03-10T11:58:47Z</time>
      </trkpt>
      <trkpt lat="48.98606" lon="7.63121">
        <ele>452.8</ele>
        <time>2026-03-10T11:58:52Z</time>
      </trkpt>
      <trkpt lat="48.98604" lon="7.63114">
        <ele>452</ele>
        <time>2026-03-10T11:58:57Z</time>
      </trkpt>
      <trkpt lat="48.98603" lon="7.63108">
        <ele>451.5</ele>
        <time>2026-03-10T11:59:02Z</time>
      </trkpt>
      <trkpt lat="48.98601" lon="7.63099">
        <ele>450.6</ele>
        <time>2026-03-10T11:59:07Z</time>
      </trkpt>
      <trkpt lat="48.98598" lon="7.63092">
        <ele>449.5</ele>
        <time>2026-03-10T11:59:12Z</time>
      </trkpt>
      <trkpt lat="48.98598" lon="7.63087">
        <ele>449.2</ele>
        <time>2026-03-10T11:59:17Z</time>
      </trkpt>
      <trkpt lat="48.98597" lon="7.63081">
        <ele>448.8</ele>
        <time>2026-03-10T11:59:22Z</time>
      </trkpt>
      <trkpt lat="48.98596" lon="7.63075">
        <ele>448.6</ele>
        <time>2026-03-10T11:59:27Z</time>
      </trkpt>
      <trkpt lat="48.98595" lon="7.63062">
        <ele>448.4</ele>
        <time>2026-03-10T11:59:32Z</time>
      </trkpt>
      <trkpt lat="48.98594" lon="7.63051">
        <ele>448.1</ele>
        <time>2026-03-10T11:59:37Z</time>
      </trkpt>
      <trkpt lat="48.98596" lon="7.63043">
        <ele>448.8</ele>
        <time>2026-03-10T11:59:42Z</time>
      </trkpt>
      <trkpt lat="48.98597" lon="7.63033">
        <ele>449.2</ele>
        <time>2026-03-10T11:59:47Z</time>
      </trkpt>
      <trkpt lat="48.986" lon="7.63025">
        <ele>450.2</ele>
        <time>2026-03-10T11:59:52Z</time>
      </trkpt>
      <trkpt lat="48.98603" lon="7.63017">
        <ele>451.2</ele>
        <time>2026-03-10T11:59:57Z</time>
      </trkpt>
      <trkpt lat="48.98606" lon="7.63012">
        <ele>452.2</ele>
        <time>2026-03-10T12:00:02Z</time>
      </trkpt>
      <trkpt lat="48.98607" lon="7.63006">
        <ele>452.6</ele>
        <time>2026-03-10T12:00:07Z</time>
      </trkpt>
      <trkpt lat="48.98609" lon="7.62996">
        <ele>453.6</ele>
        <time>2026-03-10T12:00:12Z</time>
      </trkpt>
      <trkpt lat="48.9861" lon="7.62987">
        <ele>454.4</ele>
        <time>2026-03-10T12:00:17Z</time>
      </trkpt>
      <trkpt lat="48.98612" lon="7.62978">
        <ele>455.6</ele>
        <time>2026-03-10T12:00:22Z</time>
      </trkpt>
      <trkpt lat="48.98612" lon="7.62971">
        <ele>456</ele>
        <time>2026-03-10T12:00:27Z</time>
      </trkpt>
      <trkpt lat="48.98612" lon="7.62962">
        <ele>456.6</ele>
        <time>2026-03-10T12:00:32Z</time>
      </trkpt>
      <trkpt lat="48.9861" lon="7.62952">
        <ele>456.5</ele>
        <time>2026-03-10T12:00:37Z</time>
      </trkpt>
      <trkpt lat="48.98609" lon="7.62944">
        <ele>456.7</ele>
        <time>2026-03-10T12:00:42Z</time>
      </trkpt>
      <trkpt lat="48.98609" lon="7.62934">
        <ele>457.3</ele>
        <time>2026-03-10T12:00:47Z</time>
      </trkpt>
      <trkpt lat="48.98609" lon="7.62926">
        <ele>457.8</ele>
        <time>2026-03-10T12:00:52Z</time>
      </trkpt>
      <trkpt lat="48.98608" lon="7.62917">
        <ele>458</ele>
        <time>2026-03-10T12:00:57Z</time>
      </trkpt>
      <trkpt lat="48.98606" lon="7.62907">
        <ele>458.8</ele>
        <time>2026-03-10T12:01:02Z</time>
      </trkpt>
      <trkpt lat="48.98603" lon="7.62897">
        <ele>459.4</ele>
        <time>2026-03-10T12:01:07Z</time>
      </trkpt>
      <trkpt lat="48.98601" lon="7.62889">
        <ele>460</ele>
        <time>2026-03-10T12:01:12Z</time>
      </trkpt>
      <trkpt lat="48.98601" lon="7.62881">
        <ele>461.2</ele>
        <time>2026-03-10T12:01:17Z</time>
      </trkpt>
      <trkpt lat="48.98601" lon="7.62874">
        <ele>462.3</ele>
        <time>2026-03-10T12:01:22Z</time>
      </trkpt>
      <trkpt lat="48.986" lon="7.62863">
        <ele>463.8</ele>
        <time>2026-03-10T12:01:27Z</time>
      </trkpt>
      <trkpt lat="48.98599" lon="7.62854">
        <ele>464.9</ele>
        <time>2026-03-10T12:01:32Z</time>
      </trkpt>
      <trkpt lat="48.98597" lon="7.62844">
        <ele>466.1</ele>
        <time>2026-03-10T12:01:37Z</time>
      </trkpt>
      <trkpt lat="48.98594" lon="7.62833">
        <ele>467.2</ele>
        <time>2026-03-10T12:01:42Z</time>
      </trkpt>
      <trkpt lat="48.98591" lon="7.62823">
        <ele>468.4</ele>
        <time>2026-03-10T12:01:47Z</time>
      </trkpt>
      <trkpt lat="48.98585" lon="7.62815">
        <ele>468.8</ele>
        <time>2026-03-10T12:01:52Z</time>
      </trkpt>
      <trkpt lat="48.98582" lon="7.62806">
        <ele>470.1</ele>
        <time>2026-03-10T12:01:57Z</time>
      </trkpt>
      <trkpt lat="48.9858" lon="7.62796">
        <ele>471.8</ele>
        <time>2026-03-10T12:02:02Z</time>
      </trkpt>
      <trkpt lat="48.98577" lon="7.62788">
        <ele>473</ele>
        <time>2026-03-10T12:02:07Z</time>
      </trkpt>
      <trkpt lat="48.98574" lon="7.62779">
        <ele>474.4</ele>
        <time>2026-03-10T12:02:12Z</time>
      </trkpt>
      <trkpt lat="48.98571" lon="7.62771">
        <ele>475.7</ele>
        <time>2026-03-10T12:02:17Z</time>
      </trkpt>
      <trkpt lat="48.98569" lon="7.62764">
        <ele>476.8</ele>
        <time>2026-03-10T12:02:22Z</time>
      </trkpt>
      <trkpt lat="48.98566" lon="7.62756">
        <ele>478.1</ele>
        <time>2026-03-10T12:02:27Z</time>
      </trkpt>
      <trkpt lat="48.98563" lon="7.62747">
        <ele>479.2</ele>
        <time>2026-03-10T12:02:32Z</time>
      </trkpt>
      <trkpt lat="48.98559" lon="7.6274">
        <ele>479.1</ele>
        <time>2026-03-10T12:02:37Z</time>
      </trkpt>
      <trkpt lat="48.98556" lon="7.6273">
        <ele>479.2</ele>
        <time>2026-03-10T12:02:42Z</time>
      </trkpt>
      <trkpt lat="48.98552" lon="7.6272">
        <ele>479.2</ele>
        <time>2026-03-10T12:02:47Z</time>
      </trkpt>
      <trkpt lat="48.9855" lon="7.62712">
        <ele>479.4</ele>
        <time>2026-03-10T12:02:52Z</time>
      </trkpt>
      <trkpt lat="48.98547" lon="7.62705">
        <ele>479.4</ele>
        <time>2026-03-10T12:02:57Z</time>
      </trkpt>
      <trkpt lat="48.98543" lon="7.62698">
        <ele>479.3</ele>
        <time>2026-03-10T12:03:02Z</time>
      </trkpt>
      <trkpt lat="48.9854" lon="7.62691">
        <ele>479.3</ele>
        <time>2026-03-10T12:03:07Z</time>
      </trkpt>
      <trkpt lat="48.98538" lon="7.62685">
        <ele>479.4</ele>
        <time>2026-03-10T12:03:12Z</time>
      </trkpt>
      <trkpt lat="48.98536" lon="7.62678">
        <ele>479.5</ele>
        <time>2026-03-10T12:03:17Z</time>
      </trkpt>
      <trkpt lat="48.98534" lon="7.6267">
        <ele>479.7</ele>
        <time>2026-03-10T12:03:22Z</time>
      </trkpt>
      <trkpt lat="48.98531" lon="7.62661">
        <ele>479.3</ele>
        <time>2026-03-10T12:03:27Z</time>
      </trkpt>
      <trkpt lat="48.98531" lon="7.62652">
        <ele>478.9</ele>
        <time>2026-03-10T12:03:32Z</time>
      </trkpt>
      <trkpt lat="48.98532" lon="7.62642">
        <ele>478.6</ele>
        <time>2026-03-10T12:03:37Z</time>
      </trkpt>
      <trkpt lat="48.98534" lon="7.62633">
        <ele>478.4</ele>
        <time>2026-03-10T12:03:42Z</time>
      </trkpt>
      <trkpt lat="48.98536" lon="7.62624">
        <ele>478.3</ele>
        <time>2026-03-10T12:03:47Z</time>
      </trkpt>
      <trkpt lat="48.98537" lon="7.62613">
        <ele>478</ele>
        <time>2026-03-10T12:03:52Z</time>
      </trkpt>
      <trkpt lat="48.98539" lon="7.62602">
        <ele>477.8</ele>
        <time>2026-03-10T12:03:57Z</time>
      </trkpt>
      <trkpt lat="48.9854" lon="7.62591">
        <ele>477.5</ele>
        <time>2026-03-10T12:04:02Z</time>
      </trkpt>
      <trkpt lat="48.98541" lon="7.6258">
        <ele>477</ele>
        <time>2026-03-10T12:04:07Z</time>
      </trkpt>
      <trkpt lat="48.98541" lon="7.62569">
        <ele>475.8</ele>
        <time>2026-03-10T12:04:12Z</time>
      </trkpt>
      <trkpt lat="48.98542" lon="7.62559">
        <ele>474.8</ele>
        <time>2026-03-10T12:04:17Z</time>
      </trkpt>
      <trkpt lat="48.98541" lon="7.62549">
        <ele>473.5</ele>
        <time>2026-03-10T12:04:22Z</time>
      </trkpt>
      <trkpt lat="48.98545" lon="7.62537">
        <ele>472.9</ele>
        <time>2026-03-10T12:04:27Z</time>
      </trkpt>
      <trkpt lat="48.98546" lon="7.62529">
        <ele>472.2</ele>
        <time>2026-03-10T12:04:32Z</time>
      </trkpt>
      <trkpt lat="48.98547" lon="7.6252">
        <ele>471.5</ele>
        <time>2026-03-10T12:04:37Z</time>
      </trkpt>
      <trkpt lat="48.98548" lon="7.62512">
        <ele>470.8</ele>
        <time>2026-03-10T12:04:42Z</time>
      </trkpt>
      <trkpt lat="48.98549" lon="7.62503">
        <ele>470.1</ele>
        <time>2026-03-10T12:04:47Z</time>
      </trkpt>
      <trkpt lat="48.98549" lon="7.62494">
        <ele>469.3</ele>
        <time>2026-03-10T12:04:52Z</time>
      </trkpt>
      <trkpt lat="48.9855" lon="7.62483">
        <ele>468.7</ele>
        <time>2026-03-10T12:04:57Z</time>
      </trkpt>
      <trkpt lat="48.98552" lon="7.62473">
        <ele>468.4</ele>
        <time>2026-03-10T12:05:02Z</time>
      </trkpt>
      <trkpt lat="48.98553" lon="7.62464">
        <ele>468</ele>
        <time>2026-03-10T12:05:07Z</time>
      </trkpt>
      <trkpt lat="48.98555" lon="7.62452">
        <ele>467.7</ele>
        <time>2026-03-10T12:05:12Z</time>
      </trkpt>
      <trkpt lat="48.98556" lon="7.6244">
        <ele>467.2</ele>
        <time>2026-03-10T12:05:17Z</time>
      </trkpt>
      <trkpt lat="48.98557" lon="7.62428">
        <ele>466.6</ele>
        <time>2026-03-10T12:05:22Z</time>
      </trkpt>
      <trkpt lat="48.98557" lon="7.62417">
        <ele>465.9</ele>
        <time>2026-03-10T12:05:27Z</time>
      </trkpt>
      <trkpt lat="48.98559" lon="7.62407">
        <ele>466.1</ele>
        <time>2026-03-10T12:05:32Z</time>
      </trkpt>
      <trkpt lat="48.9856" lon="7.62396">
        <ele>465.9</ele>
        <time>2026-03-10T12:05:37Z</time>
      </trkpt>
      <trkpt lat="48.98562" lon="7.62386">
        <ele>466.2</ele>
        <time>2026-03-10T12:05:42Z</time>
      </trkpt>
      <trkpt lat="48.98564" lon="7.62372">
        <ele>466.3</ele>
        <time>2026-03-10T12:05:47Z</time>
      </trkpt>
      <trkpt lat="48.98566" lon="7.62358">
        <ele>466.5</ele>
        <time>2026-03-10T12:05:52Z</time>
      </trkpt>
      <trkpt lat="48.98567" lon="7.62346">
        <ele>466.5</ele>
        <time>2026-03-10T12:05:57Z</time>
      </trkpt>
      <trkpt lat="48.98567" lon="7.62335">
        <ele>466</ele>
        <time>2026-03-10T12:06:02Z</time>
      </trkpt>
      <trkpt lat="48.98567" lon="7.62325">
        <ele>465.8</ele>
        <time>2026-03-10T12:06:07Z</time>
      </trkpt>
      <trkpt lat="48.98567" lon="7.62315">
        <ele>465.6</ele>
        <time>2026-03-10T12:06:12Z</time>
      </trkpt>
      <trkpt lat="48.98568" lon="7.62304">
        <ele>465.9</ele>
        <time>2026-03-10T12:06:17Z</time>
      </trkpt>
      <trkpt lat="48.98569" lon="7.62292">
        <ele>466.1</ele>
        <time>2026-03-10T12:06:22Z</time>
      </trkpt>
      <trkpt lat="48.98571" lon="7.6228">
        <ele>466.8</ele>
        <time>2026-03-10T12:06:27Z</time>
      </trkpt>
      <trkpt lat="48.98571" lon="7.6227">
        <ele>466.7</ele>
        <time>2026-03-10T12:06:32Z</time>
      </trkpt>
      <trkpt lat="48.98572" lon="7.6226">
        <ele>467</ele>
        <time>2026-03-10T12:06:37Z</time>
      </trkpt>
      <trkpt lat="48.98572" lon="7.62247">
        <ele>466.9</ele>
        <time>2026-03-10T12:06:42Z</time>
      </trkpt>
      <trkpt lat="48.98572" lon="7.62233">
        <ele>467.2</ele>
        <time>2026-03-10T12:06:47Z</time>
      </trkpt>
      <trkpt lat="48.98575" lon="7.62225">
        <ele>468.7</ele>
        <time>2026-03-10T12:06:52Z</time>
      </trkpt>
      <trkpt lat="48.98578" lon="7.62218">
        <ele>470.3</ele>
        <time>2026-03-10T12:06:57Z</time>
      </trkpt>
      <trkpt lat="48.98579" lon="7.6221">
        <ele>470.9</ele>
        <time>2026-03-10T12:07:02Z</time>
      </trkpt>
      <trkpt lat="48.9858" lon="7.62201">
        <ele>471.6</ele>
        <time>2026-03-10T12:07:07Z</time>
      </trkpt>
      <trkpt lat="48.98579" lon="7.6219">
        <ele>471.4</ele>
        <time>2026-03-10T12:07:12Z</time>
      </trkpt>
      <trkpt lat="48.9858" lon="7.62181">
        <ele>472</ele>
        <time>2026-03-10T12:07:17Z</time>
      </trkpt>
      <trkpt lat="48.98579" lon="7.62175">
        <ele>471.7</ele>
        <time>2026-03-10T12:07:22Z</time>
      </trkpt>
      <trkpt lat="48.98579" lon="7.6217">
        <ele>471.8</ele>
        <time>2026-03-10T12:07:27Z</time>
      </trkpt>
      <trkpt lat="48.9858" lon="7.6216">
        <ele>472.5</ele>
        <time>2026-03-10T12:07:32Z</time>
      </trkpt>
      <trkpt lat="48.98583" lon="7.6215">
        <ele>474.2</ele>
        <time>2026-03-10T12:07:37Z</time>
      </trkpt>
      <trkpt lat="48.98586" lon="7.62144">
        <ele>475.1</ele>
        <time>2026-03-10T12:07:42Z</time>
      </trkpt>
      <trkpt lat="48.98587" lon="7.62138">
        <ele>475.4</ele>
        <time>2026-03-10T12:07:47Z</time>
      </trkpt>
      <trkpt lat="48.98585" lon="7.62131">
        <ele>475.2</ele>
        <time>2026-03-10T12:07:52Z</time>
      </trkpt>
      <trkpt lat="48.98585" lon="7.62124">
        <ele>475.4</ele>
        <time>2026-03-10T12:07:57Z</time>
      </trkpt>
      <trkpt lat="48.98586" lon="7.62118">
        <ele>475.7</ele>
        <time>2026-03-10T12:08:02Z</time>
      </trkpt>
      <trkpt lat="48.98585" lon="7.62112">
        <ele>475.7</ele>
        <time>2026-03-10T12:08:07Z</time>
      </trkpt>
      <trkpt lat="48.98587" lon="7.62105">
        <ele>476.2</ele>
        <time>2026-03-10T12:08:12Z</time>
      </trkpt>
      <trkpt lat="48.9859" lon="7.62099">
        <ele>477</ele>
        <time>2026-03-10T12:08:17Z</time>
      </trkpt>
      <trkpt lat="48.9859" lon="7.62092">
        <ele>477.2</ele>
        <time>2026-03-10T12:08:22Z</time>
      </trkpt>
      <trkpt lat="48.9859" lon="7.62085">
        <ele>477.4</ele>
        <time>2026-03-10T12:08:27Z</time>
      </trkpt>
      <trkpt lat="48.98588" lon="7.62077">
        <ele>477.6</ele>
        <time>2026-03-10T12:08:32Z</time>
      </trkpt>
      <trkpt lat="48.98588" lon="7.62077">
        <ele>477.6</ele>
        <time>2026-03-10T12:08:37Z</time>
      </trkpt>
      <trkpt lat="48.98588" lon="7.62077">
        <ele>477.6</ele>
        <time>2026-03-10T12:08:42Z</time>
      </trkpt>
      <trkpt lat="48.98588" lon="7.62077">
        <ele>477.6</ele>
        <time>2026-03-10T12:08:47Z</time>
      </trkpt>
      <trkpt lat="48.98588" lon="7.62077">
        <ele>477.6</ele>
        <time>2026-03-10T12:08:52Z</time>
      </trkpt>
      <trkpt lat="48.98588" lon="7.62077">
        <ele>477.6</ele>
        <time>2026-03-10T12:08:57Z</time>
      </trkpt>
      <trkpt lat="48.98588" lon="7.62077">
        <ele>477.6</ele>
        <time>2026-03-10T12:09:02Z</time>
      </trkpt>
      <trkpt lat="48.98588" lon="7.62077">
        <ele>477.6</ele>
        <time>2026-03-10T12:09:07Z</time>
      </trkpt>
      <trkpt lat="48.98588" lon="7.62077">
        <ele>477.6</ele>
        <time>2026-03-10T12:09:12Z</time>
      </trkpt>
      <trkpt lat="48.98588" lon="7.62077">
        <ele>477.6</ele>
        <time>2026-03-10T12:09:17Z</time>
      </trkpt>
      <trkpt lat="48.98588" lon="7.62077">
        <ele>477.6</ele>
        <time>2026-03-10T12:09:22Z</time>
      </trkpt>
      <trkpt lat="48.98588" lon="7.62077">
        <ele>477.6</ele>
        <time>2026-03-10T12:09:27Z</time>
      </trkpt>
      <trkpt lat="48.98588" lon="7.62071">
        <ele>478.2</ele>
        <time>2026-03-10T12:09:32Z</time>
      </trkpt>
      <trkpt lat="48.98589" lon="7.6206">
        <ele>479.4</ele>
        <time>2026-03-10T12:09:37Z</time>
      </trkpt>
      <trkpt lat="48.98589" lon="7.62053">
        <ele>480.1</ele>
        <time>2026-03-10T12:09:42Z</time>
      </trkpt>
      <trkpt lat="48.98586" lon="7.62048">
        <ele>480</ele>
        <time>2026-03-10T12:09:47Z</time>
      </trkpt>
      <trkpt lat="48.98584" lon="7.6204">
        <ele>480.3</ele>
        <time>2026-03-10T12:09:52Z</time>
      </trkpt>
      <trkpt lat="48.98582" lon="7.62032">
        <ele>480.4</ele>
        <time>2026-03-10T12:09:57Z</time>
      </trkpt>
      <trkpt lat="48.98579" lon="7.62025">
        <ele>479.9</ele>
        <time>2026-03-10T12:10:02Z</time>
      </trkpt>
      <trkpt lat="48.98579" lon="7.62019">
        <ele>480.5</ele>
        <time>2026-03-10T12:10:07Z</time>
      </trkpt>
      <trkpt lat="48.98577" lon="7.62011">
        <ele>480.6</ele>
        <time>2026-03-10T12:10:12Z</time>
      </trkpt>
      <trkpt lat="48.98577" lon="7.62005">
        <ele>481.2</ele>
        <time>2026-03-10T12:10:17Z</time>
      </trkpt>
      <trkpt lat="48.98576" lon="7.62">
        <ele>481.4</ele>
        <time>2026-03-10T12:10:22Z</time>
      </trkpt>
      <trkpt lat="48.98574" lon="7.61994">
        <ele>481.5</ele>
        <time>2026-03-10T12:10:27Z</time>
      </trkpt>
      <trkpt lat="48.98572" lon="7.61987">
        <ele>481.7</ele>
        <time>2026-03-10T12:10:32Z</time>
      </trkpt>
      <trkpt lat="48.98571" lon="7.61981">
        <ele>482.2</ele>
        <time>2026-03-10T12:10:37Z</time>
      </trkpt>
      <trkpt lat="48.98571" lon="7.61975">
        <ele>483.1</ele>
        <time>2026-03-10T12:10:42Z</time>
      </trkpt>
      <trkpt lat="48.9857" lon="7.61968">
        <ele>483.7</ele>
        <time>2026-03-10T12:10:47Z</time>
      </trkpt>
      <trkpt lat="48.98571" lon="7.61962">
        <ele>484.9</ele>
        <time>2026-03-10T12:10:52Z</time>
      </trkpt>
      <trkpt lat="48.98571" lon="7.61957">
        <ele>485.6</ele>
        <time>2026-03-10T12:10:57Z</time>
      </trkpt>
      <trkpt lat="48.98569" lon="7.61951">
        <ele>485.8</ele>
        <time>2026-03-10T12:11:02Z</time>
      </trkpt>
      <trkpt lat="48.98566" lon="7.61949">
        <ele>485.1</ele>
        <time>2026-03-10T12:11:07Z</time>
      </trkpt>
      <trkpt lat="48.98565" lon="7.61943">
        <ele>485.7</ele>
        <time>2026-03-10T12:11:12Z</time>
      </trkpt>
      <trkpt lat="48.98562" lon="7.61938">
        <ele>485.5</ele>
        <time>2026-03-10T12:11:17Z</time>
      </trkpt>
      <trkpt lat="48.98561" lon="7.61932">
        <ele>486</ele>
        <time>2026-03-10T12:11:22Z</time>
      </trkpt>
      <trkpt lat="48.98559" lon="7.61927">
        <ele>486.2</ele>
        <time>2026-03-10T12:11:27Z</time>
      </trkpt>
      <trkpt lat="48.98558" lon="7.61918">
        <ele>487.2</ele>
        <time>2026-03-10T12:11:32Z</time>
      </trkpt>
      <trkpt lat="48.98558" lon="7.6191">
        <ele>488.1</ele>
        <time>2026-03-10T12:11:37Z</time>
      </trkpt>
      <trkpt lat="48.98558" lon="7.61904">
        <ele>488.7</ele>
        <time>2026-03-10T12:11:42Z</time>
      </trkpt>
      <trkpt lat="48.98557" lon="7.61897">
        <ele>489.1</ele>
        <time>2026-03-10T12:11:47Z</time>
      </trkpt>
      <trkpt lat="48.98553" lon="7.61891">
        <ele>488.7</ele>
        <time>2026-03-10T12:11:52Z</time>
      </trkpt>
      <trkpt lat="48.9855" lon="7.61885">
        <ele>488.6</ele>
        <time>2026-03-10T12:11:57Z</time>
      </trkpt>
      <trkpt lat="48.98549" lon="7.61875">
        <ele>489.5</ele>
        <time>2026-03-10T12:12:02Z</time>
      </trkpt>
      <trkpt lat="48.98546" lon="7.61865">
        <ele>490</ele>
        <time>2026-03-10T12:12:07Z</time>
      </trkpt>
      <trkpt lat="48.98544" lon="7.61859">
        <ele>490.3</ele>
        <time>2026-03-10T12:12:12Z</time>
      </trkpt>
      <trkpt lat="48.98542" lon="7.61853">
        <ele>490.6</ele>
        <time>2026-03-10T12:12:17Z</time>
      </trkpt>
      <trkpt lat="48.98543" lon="7.61846">
        <ele>491.7</ele>
        <time>2026-03-10T12:12:22Z</time>
      </trkpt>
      <trkpt lat="48.98542" lon="7.61839">
        <ele>492.3</ele>
        <time>2026-03-10T12:12:27Z</time>
      </trkpt>
      <trkpt lat="48.98538" lon="7.61832">
        <ele>492.6</ele>
        <time>2026-03-10T12:12:32Z</time>
      </trkpt>
      <trkpt lat="48.98536" lon="7.61826">
        <ele>493.5</ele>
        <time>2026-03-10T12:12:37Z</time>
      </trkpt>
      <trkpt lat="48.98532" lon="7.61821">
        <ele>493.9</ele>
        <time>2026-03-10T12:12:42Z</time>
      </trkpt>
      <trkpt lat="48.98531" lon="7.61813">
        <ele>495.4</ele>
        <time>2026-03-10T12:12:47Z</time>
      </trkpt>
      <trkpt lat="48.98528" lon="7.61805">
        <ele>496.6</ele>
        <time>2026-03-10T12:12:52Z</time>
      </trkpt>
      <trkpt lat="48.98526" lon="7.61799">
        <ele>497.6</ele>
        <time>2026-03-10T12:12:57Z</time>
      </trkpt>
      <trkpt lat="48.98525" lon="7.6179">
        <ele>499.4</ele>
        <time>2026-03-10T12:13:02Z</time>
      </trkpt>
      <trkpt lat="48.98521" lon="7.61783">
        <ele>500.4</ele>
        <time>2026-03-10T12:13:07Z</time>
      </trkpt>
      <trkpt lat="48.98516" lon="7.61778">
        <ele>500.9</ele>
        <time>2026-03-10T12:13:12Z</time>
      </trkpt>
      <trkpt lat="48.98511" lon="7.61772">
        <ele>501.8</ele>
        <time>2026-03-10T12:13:17Z</time>
      </trkpt>
      <trkpt lat="48.98507" lon="7.61765">
        <ele>503</ele>
        <time>2026-03-10T12:13:22Z</time>
      </trkpt>
      <trkpt lat="48.98501" lon="7.6176">
        <ele>503.7</ele>
        <time>2026-03-10T12:13:27Z</time>
      </trkpt>
      <trkpt lat="48.98496" lon="7.61755">
        <ele>504</ele>
        <time>2026-03-10T12:13:32Z</time>
      </trkpt>
      <trkpt lat="48.98491" lon="7.61746">
        <ele>504.9</ele>
        <time>2026-03-10T12:13:37Z</time>
      </trkpt>
      <trkpt lat="48.98487" lon="7.61742">
        <ele>504.9</ele>
        <time>2026-03-10T12:13:42Z</time>
      </trkpt>
      <trkpt lat="48.98482" lon="7.61738">
        <ele>504.7</ele>
        <time>2026-03-10T12:13:47Z</time>
      </trkpt>
      <trkpt lat="48.98477" lon="7.61733">
        <ele>504.7</ele>
        <time>2026-03-10T12:13:52Z</time>
      </trkpt>
      <trkpt lat="48.9847" lon="7.61729">
        <ele>504.2</ele>
        <time>2026-03-10T12:13:57Z</time>
      </trkpt>
      <trkpt lat="48.98465" lon="7.61725">
        <ele>504.1</ele>
        <time>2026-03-10T12:14:02Z</time>
      </trkpt>
      <trkpt lat="48.9846" lon="7.61724">
        <ele>503.4</ele>
        <time>2026-03-10T12:14:07Z</time>
      </trkpt>
      <trkpt lat="48.98454" lon="7.61722">
        <ele>502.8</ele>
        <time>2026-03-10T12:14:12Z</time>
      </trkpt>
      <trkpt lat="48.98449" lon="7.6172">
        <ele>502.3</ele>
        <time>2026-03-10T12:14:17Z</time>
      </trkpt>
      <trkpt lat="48.98442" lon="7.61715">
        <ele>502.2</ele>
        <time>2026-03-10T12:14:22Z</time>
      </trkpt>
      <trkpt lat="48.98438" lon="7.61708">
        <ele>503.2</ele>
        <time>2026-03-10T12:14:27Z</time>
      </trkpt>
      <trkpt lat="48.98434" lon="7.61703">
        <ele>503.7</ele>
        <time>2026-03-10T12:14:32Z</time>
      </trkpt>
      <trkpt lat="48.98427" lon="7.61696">
        <ele>504.2</ele>
        <time>2026-03-10T12:14:37Z</time>
      </trkpt>
      <trkpt lat="48.98421" lon="7.61687">
        <ele>505.5</ele>
        <time>2026-03-10T12:14:42Z</time>
      </trkpt>
      <trkpt lat="48.98417" lon="7.6168">
        <ele>506.7</ele>
        <time>2026-03-10T12:14:47Z</time>
      </trkpt>
      <trkpt lat="48.98414" lon="7.61674">
        <ele>507.8</ele>
        <time>2026-03-10T12:14:52Z</time>
      </trkpt>
      <trkpt lat="48.98409" lon="7.61667">
        <ele>508.9</ele>
        <time>2026-03-10T12:14:57Z</time>
      </trkpt>
      <trkpt lat="48.98405" lon="7.61664">
        <ele>509.1</ele>
        <time>2026-03-10T12:15:02Z</time>
      </trkpt>
      <trkpt lat="48.98402" lon="7.61661">
        <ele>509.5</ele>
        <time>2026-03-10T12:15:07Z</time>
      </trkpt>
      <trkpt lat="48.98399" lon="7.61659">
        <ele>509.6</ele>
        <time>2026-03-10T12:15:12Z</time>
      </trkpt>
      <trkpt lat="48.98398" lon="7.61654">
        <ele>510.7</ele>
        <time>2026-03-10T12:15:17Z</time>
      </trkpt>
      <trkpt lat="48.98396" lon="7.61652">
        <ele>510.9</ele>
        <time>2026-03-10T12:15:22Z</time>
      </trkpt>
      <trkpt lat="48.98392" lon="7.6165">
        <ele>510.8</ele>
        <time>2026-03-10T12:15:27Z</time>
      </trkpt>
      <trkpt lat="48.98388" lon="7.61646">
        <ele>511.2</ele>
        <time>2026-03-10T12:15:32Z</time>
      </trkpt>
      <trkpt lat="48.98385" lon="7.61641">
        <ele>512</ele>
        <time>2026-03-10T12:15:37Z</time>
      </trkpt>
      <trkpt lat="48.98382" lon="7.61637">
        <ele>512.5</ele>
        <time>2026-03-10T12:15:42Z</time>
      </trkpt>
      <trkpt lat="48.98381" lon="7.61632">
        <ele>513.6</ele>
        <time>2026-03-10T12:15:47Z</time>
      </trkpt>
      <trkpt lat="48.98375" lon="7.61628">
        <ele>513.5</ele>
        <time>2026-03-10T12:15:52Z</time>
      </trkpt>
      <trkpt lat="48.98369" lon="7.61626">
        <ele>513</ele>
        <time>2026-03-10T12:15:57Z</time>
      </trkpt>
      <trkpt lat="48.98363" lon="7.61624">
        <ele>512.5</ele>
        <time>2026-03-10T12:16:02Z</time>
      </trkpt>
      <trkpt lat="48.98358" lon="7.61622">
        <ele>512.2</ele>
        <time>2026-03-10T12:16:07Z</time>
      </trkpt>
      <trkpt lat="48.98352" lon="7.61622">
        <ele>511.2</ele>
        <time>2026-03-10T12:16:12Z</time>
      </trkpt>
      <trkpt lat="48.98346" lon="7.61618">
        <ele>511</ele>
        <time>2026-03-10T12:16:17Z</time>
      </trkpt>
      <trkpt lat="48.98342" lon="7.61612">
        <ele>511.6</ele>
        <time>2026-03-10T12:16:22Z</time>
      </trkpt>
      <trkpt lat="48.98336" lon="7.61609">
        <ele>511.2</ele>
        <time>2026-03-10T12:16:27Z</time>
      </trkpt>
      <trkpt lat="48.98336" lon="7.61607">
        <ele>511.6</ele>
        <time>2026-03-10T12:16:32Z</time>
      </trkpt>
      <trkpt lat="48.98336" lon="7.61606">
        <ele>511.8</ele>
        <time>2026-03-10T12:16:37Z</time>
      </trkpt>
      <trkpt lat="48.98334" lon="7.61602">
        <ele>512.3</ele>
        <time>2026-03-10T12:16:42Z</time>
      </trkpt>
      <trkpt lat="48.98327" lon="7.61602">
        <ele>512.2</ele>
        <time>2026-03-10T12:16:47Z</time>
      </trkpt>
      <trkpt lat="48.98323" lon="7.61603">
        <ele>512</ele>
        <time>2026-03-10T12:16:52Z</time>
      </trkpt>
      <trkpt lat="48.98323" lon="7.61604">
        <ele>511.8</ele>
        <time>2026-03-10T12:16:57Z</time>
      </trkpt>
      <trkpt lat="48.98323" lon="7.61603">
        <ele>512</ele>
        <time>2026-03-10T12:17:02Z</time>
      </trkpt>
      <trkpt lat="48.98313" lon="7.61595">
        <ele>513.7</ele>
        <time>2026-03-10T12:17:07Z</time>
      </trkpt>
      <trkpt lat="48.98308" lon="7.61589">
        <ele>514.9</ele>
        <time>2026-03-10T12:17:12Z</time>
      </trkpt>
      <trkpt lat="48.98306" lon="7.61582">
        <ele>516.2</ele>
        <time>2026-03-10T12:17:17Z</time>
      </trkpt>
      <trkpt lat="48.98302" lon="7.61578">
        <ele>516.6</ele>
        <time>2026-03-10T12:17:22Z</time>
      </trkpt>
      <trkpt lat="48.98295" lon="7.61574">
        <ele>517.1</ele>
        <time>2026-03-10T12:17:27Z</time>
      </trkpt>
      <trkpt lat="48.98287" lon="7.6157">
        <ele>517.5</ele>
        <time>2026-03-10T12:17:32Z</time>
      </trkpt>
      <trkpt lat="48.98281" lon="7.61567">
        <ele>517.8</ele>
        <time>2026-03-10T12:17:37Z</time>
      </trkpt>
      <trkpt lat="48.98277" lon="7.61563">
        <ele>518.3</ele>
        <time>2026-03-10T12:17:42Z</time>
      </trkpt>
      <trkpt lat="48.98273" lon="7.61557">
        <ele>518.9</ele>
        <time>2026-03-10T12:17:47Z</time>
      </trkpt>
      <trkpt lat="48.98269" lon="7.61553">
        <ele>519.4</ele>
        <time>2026-03-10T12:17:52Z</time>
      </trkpt>
      <trkpt lat="48.98262" lon="7.61549">
        <ele>519.8</ele>
        <time>2026-03-10T12:17:57Z</time>
      </trkpt>
      <trkpt lat="48.98257" lon="7.61542">
        <ele>520.5</ele>
        <time>2026-03-10T12:18:02Z</time>
      </trkpt>
      <trkpt lat="48.98254" lon="7.61533">
        <ele>521.5</ele>
        <time>2026-03-10T12:18:07Z</time>
      </trkpt>
      <trkpt lat="48.98249" lon="7.61527">
        <ele>522.4</ele>
        <time>2026-03-10T12:18:12Z</time>
      </trkpt>
      <trkpt lat="48.98243" lon="7.61522">
        <ele>524.7</ele>
        <time>2026-03-10T12:18:17Z</time>
      </trkpt>
      <trkpt lat="48.9824" lon="7.61515">
        <ele>526.3</ele>
        <time>2026-03-10T12:18:22Z</time>
      </trkpt>
      <trkpt lat="48.98238" lon="7.61506">
        <ele>527.8</ele>
        <time>2026-03-10T12:18:27Z</time>
      </trkpt>
      <trkpt lat="48.98235" lon="7.61497">
        <ele>529.4</ele>
        <time>2026-03-10T12:18:32Z</time>
      </trkpt>
      <trkpt lat="48.98231" lon="7.61488">
        <ele>530.9</ele>
        <time>2026-03-10T12:18:37Z</time>
      </trkpt>
      <trkpt lat="48.98228" lon="7.61479">
        <ele>532.1</ele>
        <time>2026-03-10T12:18:42Z</time>
      </trkpt>
      <trkpt lat="48.98223" lon="7.6147">
        <ele>533.9</ele>
        <time>2026-03-10T12:18:47Z</time>
      </trkpt>
      <trkpt lat="48.9822" lon="7.61462">
        <ele>535</ele>
        <time>2026-03-10T12:18:52Z</time>
      </trkpt>
      <trkpt lat="48.98217" lon="7.61452">
        <ele>536.2</ele>
        <time>2026-03-10T12:18:57Z</time>
      </trkpt>
      <trkpt lat="48.98212" lon="7.61444">
        <ele>538</ele>
        <time>2026-03-10T12:19:02Z</time>
      </trkpt>
      <trkpt lat="48.9821" lon="7.61437">
        <ele>538.8</ele>
        <time>2026-03-10T12:19:07Z</time>
      </trkpt>
      <trkpt lat="48.98207" lon="7.61428">
        <ele>540</ele>
        <time>2026-03-10T12:19:12Z</time>
      </trkpt>
      <trkpt lat="48.98201" lon="7.61421">
        <ele>542</ele>
        <time>2026-03-10T12:19:17Z</time>
      </trkpt>
      <trkpt lat="48.98194" lon="7.61418">
        <ele>544.1</ele>
        <time>2026-03-10T12:19:22Z</time>
      </trkpt>
      <trkpt lat="48.98191" lon="7.61413">
        <ele>545</ele>
        <time>2026-03-10T12:19:27Z</time>
      </trkpt>
      <trkpt lat="48.9819" lon="7.61408">
        <ele>545.3</ele>
        <time>2026-03-10T12:19:32Z</time>
      </trkpt>
      <trkpt lat="48.98193" lon="7.61406">
        <ele>544.4</ele>
        <time>2026-03-10T12:19:37Z</time>
      </trkpt>
      <trkpt lat="48.98195" lon="7.61406">
        <ele>543.9</ele>
        <time>2026-03-10T12:19:42Z</time>
      </trkpt>
      <trkpt lat="48.982" lon="7.61413">
        <ele>542.4</ele>
        <time>2026-03-10T12:19:47Z</time>
      </trkpt>
      <trkpt lat="48.982" lon="7.61415">
        <ele>542.4</ele>
        <time>2026-03-10T12:19:52Z</time>
      </trkpt>
      <trkpt lat="48.982" lon="7.61415">
        <ele>542.4</ele>
        <time>2026-03-10T12:19:57Z</time>
      </trkpt>
      <trkpt lat="48.98186" lon="7.61419">
        <ele>546.3</ele>
        <time>2026-03-10T12:20:02Z</time>
      </trkpt>
      <trkpt lat="48.98176" lon="7.61416">
        <ele>549.3</ele>
        <time>2026-03-10T12:20:07Z</time>
      </trkpt>
      <trkpt lat="48.98169" lon="7.61417">
        <ele>551.3</ele>
        <time>2026-03-10T12:20:12Z</time>
      </trkpt>
      <trkpt lat="48.98166" lon="7.61423">
        <ele>551.9</ele>
        <time>2026-03-10T12:20:17Z</time>
      </trkpt>
      <trkpt lat="48.98163" lon="7.61428">
        <ele>552.6</ele>
        <time>2026-03-10T12:20:22Z</time>
      </trkpt>
      <trkpt lat="48.98163" lon="7.61428">
        <ele>552.6</ele>
        <time>2026-03-10T12:20:27Z</time>
      </trkpt>
      <trkpt lat="48.98163" lon="7.61429">
        <ele>552.5</ele>
        <time>2026-03-10T12:20:32Z</time>
      </trkpt>
      <trkpt lat="48.98163" lon="7.61429">
        <ele>552.5</ele>
        <time>2026-03-10T12:20:37Z</time>
      </trkpt>
      <trkpt lat="48.98163" lon="7.61429">
        <ele>552.5</ele>
        <time>2026-03-10T12:20:42Z</time>
      </trkpt>
      <trkpt lat="48.98174" lon="7.61436">
        <ele>549.2</ele>
        <time>2026-03-10T12:20:47Z</time>
      </trkpt>
      <trkpt lat="48.98177" lon="7.6144">
        <ele>548.2</ele>
        <time>2026-03-10T12:20:52Z</time>
      </trkpt>
      <trkpt lat="48.98176" lon="7.61442">
        <ele>548.4</ele>
        <time>2026-03-10T12:20:57Z</time>
      </trkpt>
      <trkpt lat="48.98176" lon="7.61447">
        <ele>548.2</ele>
        <time>2026-03-10T12:21:02Z</time>
      </trkpt>
      <trkpt lat="48.98177" lon="7.61449">
        <ele>547.9</ele>
        <time>2026-03-10T12:21:07Z</time>
      </trkpt>
      <trkpt lat="48.98175" lon="7.61455">
        <ele>548.2</ele>
        <time>2026-03-10T12:21:12Z</time>
      </trkpt>
      <trkpt lat="48.98171" lon="7.61459">
        <ele>549.2</ele>
        <time>2026-03-10T12:21:17Z</time>
      </trkpt>
      <trkpt lat="48.98167" lon="7.61464">
        <ele>550.2</ele>
        <time>2026-03-10T12:21:22Z</time>
      </trkpt>
      <trkpt lat="48.9816" lon="7.6147">
        <ele>551.9</ele>
        <time>2026-03-10T12:21:27Z</time>
      </trkpt>
      <trkpt lat="48.98152" lon="7.61474">
        <ele>553.9</ele>
        <time>2026-03-10T12:21:32Z</time>
      </trkpt>
      <trkpt lat="48.98147" lon="7.61479">
        <ele>555.1</ele>
        <time>2026-03-10T12:21:37Z</time>
      </trkpt>
      <trkpt lat="48.98141" lon="7.61486">
        <ele>556.5</ele>
        <time>2026-03-10T12:21:42Z</time>
      </trkpt>
      <trkpt lat="48.98138" lon="7.61491">
        <ele>557.2</ele>
        <time>2026-03-10T12:21:47Z</time>
      </trkpt>
      <trkpt lat="48.98135" lon="7.61494">
        <ele>557.9</ele>
        <time>2026-03-10T12:21:52Z</time>
      </trkpt>
      <trkpt lat="48.98133" lon="7.61497">
        <ele>558.4</ele>
        <time>2026-03-10T12:21:57Z</time>
      </trkpt>
      <trkpt lat="48.98128" lon="7.615">
        <ele>559.7</ele>
        <time>2026-03-10T12:22:02Z</time>
      </trkpt>
      <trkpt lat="48.98122" lon="7.61504">
        <ele>561.1</ele>
        <time>2026-03-10T12:22:07Z</time>
      </trkpt>
      <trkpt lat="48.98119" lon="7.61507">
        <ele>561.8</ele>
        <time>2026-03-10T12:22:12Z</time>
      </trkpt>
      <trkpt lat="48.98116" lon="7.61514">
        <ele>562.3</ele>
        <time>2026-03-10T12:22:17Z</time>
      </trkpt>
      <trkpt lat="48.98113" lon="7.6152">
        <ele>562.8</ele>
        <time>2026-03-10T12:22:22Z</time>
      </trkpt>
      <trkpt lat="48.9811" lon="7.61527">
        <ele>563.4</ele>
        <time>2026-03-10T12:22:27Z</time>
      </trkpt>
      <trkpt lat="48.98106" lon="7.61531">
        <ele>564.3</ele>
        <time>2026-03-10T12:22:32Z</time>
      </trkpt>
      <trkpt lat="48.98106" lon="7.61533">
        <ele>564.2</ele>
        <time>2026-03-10T12:22:37Z</time>
      </trkpt>
      <trkpt lat="48.98104" lon="7.61537">
        <ele>564.6</ele>
        <time>2026-03-10T12:22:42Z</time>
      </trkpt>
      <trkpt lat="48.98104" lon="7.61538">
        <ele>564.6</ele>
        <time>2026-03-10T12:22:47Z</time>
      </trkpt>
      <trkpt lat="48.98104" lon="7.61538">
        <ele>564.6</ele>
        <time>2026-03-10T12:22:52Z</time>
      </trkpt>
      <trkpt lat="48.98104" lon="7.61538">
        <ele>564.6</ele>
        <time>2026-03-10T12:22:57Z</time>
      </trkpt>
      <trkpt lat="48.98104" lon="7.61538">
        <ele>564.6</ele>
        <time>2026-03-10T12:23:02Z</time>
      </trkpt>
      <trkpt lat="48.98104" lon="7.61538">
        <ele>564.6</ele>
        <time>2026-03-10T12:23:07Z</time>
      </trkpt>
      <trkpt lat="48.98104" lon="7.61538">
        <ele>564.6</ele>
        <time>2026-03-10T12:23:12Z</time>
      </trkpt>
      <trkpt lat="48.98095" lon="7.61546">
        <ele>566.9</ele>
        <time>2026-03-10T12:23:17Z</time>
      </trkpt>
      <trkpt lat="48.98092" lon="7.61549">
        <ele>567.7</ele>
        <time>2026-03-10T12:23:22Z</time>
      </trkpt>
      <trkpt lat="48.98091" lon="7.61545">
        <ele>568.1</ele>
        <time>2026-03-10T12:23:27Z</time>
      </trkpt>
      <trkpt lat="48.98091" lon="7.61536">
        <ele>568.5</ele>
        <time>2026-03-10T12:23:32Z</time>
      </trkpt>
      <trkpt lat="48.9809" lon="7.61527">
        <ele>569.1</ele>
        <time>2026-03-10T12:23:37Z</time>
      </trkpt>
      <trkpt lat="48.98091" lon="7.61521">
        <ele>569.1</ele>
        <time>2026-03-10T12:23:42Z</time>
      </trkpt>
      <trkpt lat="48.98093" lon="7.61514">
        <ele>568.8</ele>
        <time>2026-03-10T12:23:47Z</time>
      </trkpt>
      <trkpt lat="48.98094" lon="7.61511">
        <ele>568.6</ele>
        <time>2026-03-10T12:23:52Z</time>
      </trkpt>
      <trkpt lat="48.98093" lon="7.61507">
        <ele>569.1</ele>
        <time>2026-03-10T12:23:57Z</time>
      </trkpt>
      <trkpt lat="48.98092" lon="7.61505">
        <ele>569.4</ele>
        <time>2026-03-10T12:24:02Z</time>
      </trkpt>
      <trkpt lat="48.98092" lon="7.61505">
        <ele>569.4</ele>
        <time>2026-03-10T12:24:07Z</time>
      </trkpt>
      <trkpt lat="48.98087" lon="7.61506">
        <ele>570.8</ele>
        <time>2026-03-10T12:24:12Z</time>
      </trkpt>
      <trkpt lat="48.98083" lon="7.61514">
        <ele>571.5</ele>
        <time>2026-03-10T12:24:17Z</time>
      </trkpt>
      <trkpt lat="48.9808" lon="7.61519">
        <ele>571.4</ele>
        <time>2026-03-10T12:24:22Z</time>
      </trkpt>
      <trkpt lat="48.98079" lon="7.61525">
        <ele>571.2</ele>
        <time>2026-03-10T12:24:27Z</time>
      </trkpt>
      <trkpt lat="48.98078" lon="7.61533">
        <ele>571</ele>
        <time>2026-03-10T12:24:32Z</time>
      </trkpt>
      <trkpt lat="48.98076" lon="7.61539">
        <ele>570.9</ele>
        <time>2026-03-10T12:24:37Z</time>
      </trkpt>
      <trkpt lat="48.98076" lon="7.61544">
        <ele>570.7</ele>
        <time>2026-03-10T12:24:42Z</time>
      </trkpt>
      <trkpt lat="48.98074" lon="7.61546">
        <ele>570.7</ele>
        <time>2026-03-10T12:24:47Z</time>
      </trkpt>
      <trkpt lat="48.98073" lon="7.61541">
        <ele>570.9</ele>
        <time>2026-03-10T12:24:52Z</time>
      </trkpt>
      <trkpt lat="48.98074" lon="7.61531">
        <ele>571.2</ele>
        <time>2026-03-10T12:24:57Z</time>
      </trkpt>
      <trkpt lat="48.98077" lon="7.61521">
        <ele>571.4</ele>
        <time>2026-03-10T12:25:02Z</time>
      </trkpt>
      <trkpt lat="48.98076" lon="7.61514">
        <ele>571.7</ele>
        <time>2026-03-10T12:25:07Z</time>
      </trkpt>
      <trkpt lat="48.98076" lon="7.61508">
        <ele>571.9</ele>
        <time>2026-03-10T12:25:12Z</time>
      </trkpt>
      <trkpt lat="48.98077" lon="7.61503">
        <ele>572</ele>
        <time>2026-03-10T12:25:17Z</time>
      </trkpt>
      <trkpt lat="48.98078" lon="7.61497">
        <ele>572.2</ele>
        <time>2026-03-10T12:25:22Z</time>
      </trkpt>
      <trkpt lat="48.98079" lon="7.61492">
        <ele>572.3</ele>
        <time>2026-03-10T12:25:27Z</time>
      </trkpt>
      <trkpt lat="48.98076" lon="7.61491">
        <ele>572.4</ele>
        <time>2026-03-10T12:25:32Z</time>
      </trkpt>
      <trkpt lat="48.98075" lon="7.61491">
        <ele>572.4</ele>
        <time>2026-03-10T12:25:37Z</time>
      </trkpt>
      <trkpt lat="48.98069" lon="7.61503">
        <ele>572.2</ele>
        <time>2026-03-10T12:25:42Z</time>
      </trkpt>
      <trkpt lat="48.98065" lon="7.61511">
        <ele>572.1</ele>
        <time>2026-03-10T12:25:47Z</time>
      </trkpt>
      <trkpt lat="48.98063" lon="7.61518">
        <ele>571.9</ele>
        <time>2026-03-10T12:25:52Z</time>
      </trkpt>
      <trkpt lat="48.98061" lon="7.61522">
        <ele>571.9</ele>
        <time>2026-03-10T12:25:57Z</time>
      </trkpt>
      <trkpt lat="48.98059" lon="7.61525">
        <ele>571.9</ele>
        <time>2026-03-10T12:26:02Z</time>
      </trkpt>
      <trkpt lat="48.98057" lon="7.61527">
        <ele>571.9</ele>
        <time>2026-03-10T12:26:07Z</time>
      </trkpt>
      <trkpt lat="48.98055" lon="7.61532">
        <ele>571.8</ele>
        <time>2026-03-10T12:26:12Z</time>
      </trkpt>
      <trkpt lat="48.98054" lon="7.61535">
        <ele>571.7</ele>
        <time>2026-03-10T12:26:17Z</time>
      </trkpt>
      <trkpt lat="48.98055" lon="7.61532">
        <ele>571.8</ele>
        <time>2026-03-10T12:26:22Z</time>
      </trkpt>
      <trkpt lat="48.98057" lon="7.61521">
        <ele>572</ele>
        <time>2026-03-10T12:26:27Z</time>
      </trkpt>
      <trkpt lat="48.98057" lon="7.61514">
        <ele>572.2</ele>
        <time>2026-03-10T12:26:32Z</time>
      </trkpt>
      <trkpt lat="48.98058" lon="7.61508">
        <ele>572.4</ele>
        <time>2026-03-10T12:26:37Z</time>
      </trkpt>
      <trkpt lat="48.9806" lon="7.61503">
        <ele>572.5</ele>
        <time>2026-03-10T12:26:42Z</time>
      </trkpt>
      <trkpt lat="48.98062" lon="7.61498">
        <ele>572.6</ele>
        <time>2026-03-10T12:26:47Z</time>
      </trkpt>
      <trkpt lat="48.98062" lon="7.61491">
        <ele>572.8</ele>
        <time>2026-03-10T12:26:52Z</time>
      </trkpt>
      <trkpt lat="48.98061" lon="7.61487">
        <ele>572.9</ele>
        <time>2026-03-10T12:26:57Z</time>
      </trkpt>
      <trkpt lat="48.9806" lon="7.61487">
        <ele>572.9</ele>
        <time>2026-03-10T12:27:02Z</time>
      </trkpt>
      <trkpt lat="48.98056" lon="7.61496">
        <ele>572.8</ele>
        <time>2026-03-10T12:27:07Z</time>
      </trkpt>
      <trkpt lat="48.98053" lon="7.61504">
        <ele>572.6</ele>
        <time>2026-03-10T12:27:12Z</time>
      </trkpt>
      <trkpt lat="48.98051" lon="7.61508">
        <ele>572.6</ele>
        <time>2026-03-10T12:27:17Z</time>
      </trkpt>
      <trkpt lat="48.98048" lon="7.61511">
        <ele>572.6</ele>
        <time>2026-03-10T12:27:22Z</time>
      </trkpt>
      <trkpt lat="48.98046" lon="7.61513">
        <ele>572.6</ele>
        <time>2026-03-10T12:27:27Z</time>
      </trkpt>
      <trkpt lat="48.98044" lon="7.61515">
        <ele>572.6</ele>
        <time>2026-03-10T12:27:32Z</time>
      </trkpt>
      <trkpt lat="48.98044" lon="7.61516">
        <ele>572.5</ele>
        <time>2026-03-10T12:27:37Z</time>
      </trkpt>
      <trkpt lat="48.98041" lon="7.61512">
        <ele>572.7</ele>
        <time>2026-03-10T12:27:42Z</time>
      </trkpt>
      <trkpt lat="48.98043" lon="7.61505">
        <ele>572.8</ele>
        <time>2026-03-10T12:27:47Z</time>
      </trkpt>
      <trkpt lat="48.98044" lon="7.61502">
        <ele>572.9</ele>
        <time>2026-03-10T12:27:52Z</time>
      </trkpt>
      <trkpt lat="48.98044" lon="7.61502">
        <ele>572.9</ele>
        <time>2026-03-10T12:27:57Z</time>
      </trkpt>
      <trkpt lat="48.98044" lon="7.61502">
        <ele>572.9</ele>
        <time>2026-03-10T12:28:02Z</time>
      </trkpt>
      <trkpt lat="48.98044" lon="7.61502">
        <ele>572.9</ele>
        <time>2026-03-10T12:28:07Z</time>
      </trkpt>
      <trkpt lat="48.9804" lon="7.6149">
        <ele>573.3</ele>
        <time>2026-03-10T12:28:12Z</time>
      </trkpt>
      <trkpt lat="48.98039" lon="7.61489">
        <ele>573.4</ele>
        <time>2026-03-10T12:28:17Z</time>
      </trkpt>
      <trkpt lat="48.98039" lon="7.61489">
        <ele>573.4</ele>
        <time>2026-03-10T12:28:22Z</time>
      </trkpt>
      <trkpt lat="48.98039" lon="7.61489">
        <ele>573.4</ele>
        <time>2026-03-10T12:28:27Z</time>
      </trkpt>
      <trkpt lat="48.98039" lon="7.61489">
        <ele>573.4</ele>
        <time>2026-03-10T12:28:32Z</time>
      </trkpt>
      <trkpt lat="48.98029" lon="7.61499">
        <ele>573.3</ele>
        <time>2026-03-10T12:28:37Z</time>
      </trkpt>
      <trkpt lat="48.98026" lon="7.61505">
        <ele>573.3</ele>
        <time>2026-03-10T12:28:42Z</time>
      </trkpt>
      <trkpt lat="48.98024" lon="7.61508">
        <ele>573.3</ele>
        <time>2026-03-10T12:28:47Z</time>
      </trkpt>
      <trkpt lat="48.98022" lon="7.61511">
        <ele>573.3</ele>
        <time>2026-03-10T12:28:52Z</time>
      </trkpt>
      <trkpt lat="48.98021" lon="7.61515">
        <ele>573.2</ele>
        <time>2026-03-10T12:28:57Z</time>
      </trkpt>
      <trkpt lat="48.98019" lon="7.61518">
        <ele>573.2</ele>
        <time>2026-03-10T12:29:02Z</time>
      </trkpt>
      <trkpt lat="48.98019" lon="7.61514">
        <ele>573.3</ele>
        <time>2026-03-10T12:29:07Z</time>
      </trkpt>
      <trkpt lat="48.9802" lon="7.61508">
        <ele>573.4</ele>
        <time>2026-03-10T12:29:12Z</time>
      </trkpt>
      <trkpt lat="48.98021" lon="7.61504">
        <ele>573.4</ele>
        <time>2026-03-10T12:29:17Z</time>
      </trkpt>
      <trkpt lat="48.9802" lon="7.61499">
        <ele>573.6</ele>
        <time>2026-03-10T12:29:22Z</time>
      </trkpt>
      <trkpt lat="48.98019" lon="7.61498">
        <ele>573.6</ele>
        <time>2026-03-10T12:29:27Z</time>
      </trkpt>
      <trkpt lat="48.98017" lon="7.61488">
        <ele>574</ele>
        <time>2026-03-10T12:29:32Z</time>
      </trkpt>
      <trkpt lat="48.98018" lon="7.61485">
        <ele>574.1</ele>
        <time>2026-03-10T12:29:37Z</time>
      </trkpt>
      <trkpt lat="48.98018" lon="7.61485">
        <ele>574.1</ele>
        <time>2026-03-10T12:29:42Z</time>
      </trkpt>
      <trkpt lat="48.98018" lon="7.61485">
        <ele>574.1</ele>
        <time>2026-03-10T12:29:47Z</time>
      </trkpt>
      <trkpt lat="48.98016" lon="7.61466">
        <ele>574.8</ele>
        <time>2026-03-10T12:29:52Z</time>
      </trkpt>
      <trkpt lat="48.98017" lon="7.61461">
        <ele>574.9</ele>
        <time>2026-03-10T12:29:57Z</time>
      </trkpt>
      <trkpt lat="48.98016" lon="7.61458">
        <ele>575</ele>
        <time>2026-03-10T12:30:02Z</time>
      </trkpt>
      <trkpt lat="48.98015" lon="7.61458">
        <ele>575.1</ele>
        <time>2026-03-10T12:30:07Z</time>
      </trkpt>
      <trkpt lat="48.98015" lon="7.61458">
        <ele>575.1</ele>
        <time>2026-03-10T12:30:12Z</time>
      </trkpt>
      <trkpt lat="48.98015" lon="7.61458">
        <ele>575.1</ele>
        <time>2026-03-10T12:30:17Z</time>
      </trkpt>
      <trkpt lat="48.98015" lon="7.61458">
        <ele>575.1</ele>
        <time>2026-03-10T12:30:22Z</time>
      </trkpt>
      <trkpt lat="48.98013" lon="7.61445">
        <ele>575.6</ele>
        <time>2026-03-10T12:30:27Z</time>
      </trkpt>
      <trkpt lat="48.98013" lon="7.6144">
        <ele>575.7</ele>
        <time>2026-03-10T12:30:32Z</time>
      </trkpt>
      <trkpt lat="48.98012" lon="7.61435">
        <ele>575.9</ele>
        <time>2026-03-10T12:30:37Z</time>
      </trkpt>
      <trkpt lat="48.9801" lon="7.6143">
        <ele>576.2</ele>
        <time>2026-03-10T12:30:42Z</time>
      </trkpt>
      <trkpt lat="48.98009" lon="7.61425">
        <ele>576.4</ele>
        <time>2026-03-10T12:30:47Z</time>
      </trkpt>
      <trkpt lat="48.98007" lon="7.61418">
        <ele>576.7</ele>
        <time>2026-03-10T12:30:52Z</time>
      </trkpt>
      <trkpt lat="48.98005" lon="7.61412">
        <ele>576.8</ele>
        <time>2026-03-10T12:30:57Z</time>
      </trkpt>
      <trkpt lat="48.98004" lon="7.61406">
        <ele>576.8</ele>
        <time>2026-03-10T12:31:02Z</time>
      </trkpt>
      <trkpt lat="48.98003" lon="7.61401">
        <ele>576.9</ele>
        <time>2026-03-10T12:31:07Z</time>
      </trkpt>
      <trkpt lat="48.98001" lon="7.61396">
        <ele>577</ele>
        <time>2026-03-10T12:31:12Z</time>
      </trkpt>
      <trkpt lat="48.97998" lon="7.61396">
        <ele>577</ele>
        <time>2026-03-10T12:31:17Z</time>
      </trkpt>
      <trkpt lat="48.97997" lon="7.61398">
        <ele>577</ele>
        <time>2026-03-10T12:31:22Z</time>
      </trkpt>
      <trkpt lat="48.97997" lon="7.61398">
        <ele>577</ele>
        <time>2026-03-10T12:31:27Z</time>
      </trkpt>
      <trkpt lat="48.97997" lon="7.61398">
        <ele>577</ele>
        <time>2026-03-10T12:31:32Z</time>
      </trkpt>
      <trkpt lat="48.97989" lon="7.6141">
        <ele>577</ele>
        <time>2026-03-10T12:31:37Z</time>
      </trkpt>
      <trkpt lat="48.97989" lon="7.6141">
        <ele>577</ele>
        <time>2026-03-10T12:31:42Z</time>
      </trkpt>
      <trkpt lat="48.97989" lon="7.6141">
        <ele>577</ele>
        <time>2026-03-10T12:31:47Z</time>
      </trkpt>
      <trkpt lat="48.97982" lon="7.6142">
        <ele>576.9</ele>
        <time>2026-03-10T12:31:52Z</time>
      </trkpt>
      <trkpt lat="48.97978" lon="7.61423">
        <ele>576.8</ele>
        <time>2026-03-10T12:31:57Z</time>
      </trkpt>
      <trkpt lat="48.97973" lon="7.61425">
        <ele>576.8</ele>
        <time>2026-03-10T12:32:02Z</time>
      </trkpt>
      <trkpt lat="48.97969" lon="7.61424">
        <ele>576.8</ele>
        <time>2026-03-10T12:32:07Z</time>
      </trkpt>
      <trkpt lat="48.97966" lon="7.61425">
        <ele>576.8</ele>
        <time>2026-03-10T12:32:12Z</time>
      </trkpt>
      <trkpt lat="48.97963" lon="7.61426">
        <ele>576.8</ele>
        <time>2026-03-10T12:32:17Z</time>
      </trkpt>
      <trkpt lat="48.97958" lon="7.61427">
        <ele>576.8</ele>
        <time>2026-03-10T12:32:22Z</time>
      </trkpt>
      <trkpt lat="48.97954" lon="7.61428">
        <ele>576.8</ele>
        <time>2026-03-10T12:32:27Z</time>
      </trkpt>
      <trkpt lat="48.97949" lon="7.61426">
        <ele>576.9</ele>
        <time>2026-03-10T12:32:32Z</time>
      </trkpt>
      <trkpt lat="48.97944" lon="7.61427">
        <ele>576.9</ele>
        <time>2026-03-10T12:32:37Z</time>
      </trkpt>
      <trkpt lat="48.97939" lon="7.61428">
        <ele>576.9</ele>
        <time>2026-03-10T12:32:42Z</time>
      </trkpt>
      <trkpt lat="48.97935" lon="7.61429">
        <ele>576.9</ele>
        <time>2026-03-10T12:32:47Z</time>
      </trkpt>
      <trkpt lat="48.97929" lon="7.61431">
        <ele>576.9</ele>
        <time>2026-03-10T12:32:52Z</time>
      </trkpt>
      <trkpt lat="48.97926" lon="7.61436">
        <ele>576.9</ele>
        <time>2026-03-10T12:32:57Z</time>
      </trkpt>
      <trkpt lat="48.97922" lon="7.61436">
        <ele>577</ele>
        <time>2026-03-10T12:33:02Z</time>
      </trkpt>
      <trkpt lat="48.97917" lon="7.61436">
        <ele>577</ele>
        <time>2026-03-10T12:33:07Z</time>
      </trkpt>
      <trkpt lat="48.97912" lon="7.61434">
        <ele>576.7</ele>
        <time>2026-03-10T12:33:12Z</time>
      </trkpt>
      <trkpt lat="48.97909" lon="7.61431">
        <ele>576.4</ele>
        <time>2026-03-10T12:33:17Z</time>
      </trkpt>
      <trkpt lat="48.97907" lon="7.61427">
        <ele>576.3</ele>
        <time>2026-03-10T12:33:22Z</time>
      </trkpt>
      <trkpt lat="48.97903" lon="7.61424">
        <ele>576.1</ele>
        <time>2026-03-10T12:33:27Z</time>
      </trkpt>
      <trkpt lat="48.97898" lon="7.61421">
        <ele>575.8</ele>
        <time>2026-03-10T12:33:32Z</time>
      </trkpt>
      <trkpt lat="48.97895" lon="7.6142">
        <ele>575.6</ele>
        <time>2026-03-10T12:33:37Z</time>
      </trkpt>
      <trkpt lat="48.9789" lon="7.6142">
        <ele>575.3</ele>
        <time>2026-03-10T12:33:42Z</time>
      </trkpt>
      <trkpt lat="48.97888" lon="7.61421">
        <ele>575.2</ele>
        <time>2026-03-10T12:33:47Z</time>
      </trkpt>
      <trkpt lat="48.97887" lon="7.61421">
        <ele>575.1</ele>
        <time>2026-03-10T12:33:52Z</time>
      </trkpt>
      <trkpt lat="48.97887" lon="7.61421">
        <ele>575.1</ele>
        <time>2026-03-10T12:33:57Z</time>
      </trkpt>
      <trkpt lat="48.9788" lon="7.61427">
        <ele>574.5</ele>
        <time>2026-03-10T12:34:02Z</time>
      </trkpt>
      <trkpt lat="48.97879" lon="7.6143">
        <ele>574.3</ele>
        <time>2026-03-10T12:34:07Z</time>
      </trkpt>
      <trkpt lat="48.97879" lon="7.6143">
        <ele>574.3</ele>
        <time>2026-03-10T12:34:12Z</time>
      </trkpt>
      <trkpt lat="48.97874" lon="7.61433">
        <ele>573.8</ele>
        <time>2026-03-10T12:34:17Z</time>
      </trkpt>
      <trkpt lat="48.9787" lon="7.61432">
        <ele>573.6</ele>
        <time>2026-03-10T12:34:22Z</time>
      </trkpt>
      <trkpt lat="48.97867" lon="7.6143">
        <ele>573.4</ele>
        <time>2026-03-10T12:34:27Z</time>
      </trkpt>
      <trkpt lat="48.97863" lon="7.61429">
        <ele>573.2</ele>
        <time>2026-03-10T12:34:32Z</time>
      </trkpt>
      <trkpt lat="48.97859" lon="7.61429">
        <ele>572.9</ele>
        <time>2026-03-10T12:34:37Z</time>
      </trkpt>
      <trkpt lat="48.97854" lon="7.61433">
        <ele>572.4</ele>
        <time>2026-03-10T12:34:42Z</time>
      </trkpt>
      <trkpt lat="48.97851" lon="7.6144">
        <ele>571.7</ele>
        <time>2026-03-10T12:34:47Z</time>
      </trkpt>
      <trkpt lat="48.97851" lon="7.61441">
        <ele>571.7</ele>
        <time>2026-03-10T12:34:52Z</time>
      </trkpt>
      <trkpt lat="48.97855" lon="7.61442">
        <ele>572</ele>
        <time>2026-03-10T12:34:57Z</time>
      </trkpt>
      <trkpt lat="48.97855" lon="7.61442">
        <ele>572</ele>
        <time>2026-03-10T12:35:02Z</time>
      </trkpt>
      <trkpt lat="48.97864" lon="7.6144">
        <ele>572.8</ele>
        <time>2026-03-10T12:35:07Z</time>
      </trkpt>
      <trkpt lat="48.97869" lon="7.61444">
        <ele>573</ele>
        <time>2026-03-10T12:35:12Z</time>
      </trkpt>
      <trkpt lat="48.9787" lon="7.61446">
        <ele>573</ele>
        <time>2026-03-10T12:35:17Z</time>
      </trkpt>
      <trkpt lat="48.97871" lon="7.61446">
        <ele>573.1</ele>
        <time>2026-03-10T12:35:22Z</time>
      </trkpt>
      <trkpt lat="48.9787" lon="7.6145">
        <ele>572.9</ele>
        <time>2026-03-10T12:35:27Z</time>
      </trkpt>
      <trkpt lat="48.97867" lon="7.61459">
        <ele>572.2</ele>
        <time>2026-03-10T12:35:32Z</time>
      </trkpt>
      <trkpt lat="48.97859" lon="7.61462">
        <ele>571.3</ele>
        <time>2026-03-10T12:35:37Z</time>
      </trkpt>
      <trkpt lat="48.97854" lon="7.61465">
        <ele>570.6</ele>
        <time>2026-03-10T12:35:42Z</time>
      </trkpt>
      <trkpt lat="48.97851" lon="7.61469">
        <ele>570.1</ele>
        <time>2026-03-10T12:35:47Z</time>
      </trkpt>
      <trkpt lat="48.97851" lon="7.61469">
        <ele>570.1</ele>
        <time>2026-03-10T12:35:52Z</time>
      </trkpt>
      <trkpt lat="48.97851" lon="7.61469">
        <ele>570.1</ele>
        <time>2026-03-10T12:35:57Z</time>
      </trkpt>
      <trkpt lat="48.97851" lon="7.61469">
        <ele>570.1</ele>
        <time>2026-03-10T12:36:02Z</time>
      </trkpt>
      <trkpt lat="48.97848" lon="7.61468">
        <ele>569.8</ele>
        <time>2026-03-10T12:36:07Z</time>
      </trkpt>
      <trkpt lat="48.97847" lon="7.6147">
        <ele>569.6</ele>
        <time>2026-03-10T12:36:12Z</time>
      </trkpt>
      <trkpt lat="48.97847" lon="7.61472">
        <ele>569.5</ele>
        <time>2026-03-10T12:36:17Z</time>
      </trkpt>
      <trkpt lat="48.97847" lon="7.61472">
        <ele>569.5</ele>
        <time>2026-03-10T12:36:22Z</time>
      </trkpt>
      <trkpt lat="48.97843" lon="7.61474">
        <ele>568.9</ele>
        <time>2026-03-10T12:36:27Z</time>
      </trkpt>
      <trkpt lat="48.97836" lon="7.61476">
        <ele>568</ele>
        <time>2026-03-10T12:36:32Z</time>
      </trkpt>
      <trkpt lat="48.97827" lon="7.61473">
        <ele>565.8</ele>
        <time>2026-03-10T12:36:37Z</time>
      </trkpt>
      <trkpt lat="48.97819" lon="7.61471">
        <ele>563.3</ele>
        <time>2026-03-10T12:36:42Z</time>
      </trkpt>
      <trkpt lat="48.97812" lon="7.61471">
        <ele>561</ele>
        <time>2026-03-10T12:36:47Z</time>
      </trkpt>
      <trkpt lat="48.97807" lon="7.61473">
        <ele>559.2</ele>
        <time>2026-03-10T12:36:52Z</time>
      </trkpt>
      <trkpt lat="48.978" lon="7.61474">
        <ele>556.8</ele>
        <time>2026-03-10T12:36:57Z</time>
      </trkpt>
      <trkpt lat="48.97794" lon="7.61475">
        <ele>554.7</ele>
        <time>2026-03-10T12:37:02Z</time>
      </trkpt>
      <trkpt lat="48.97791" lon="7.61478">
        <ele>553.4</ele>
        <time>2026-03-10T12:37:07Z</time>
      </trkpt>
      <trkpt lat="48.97786" lon="7.61481">
        <ele>551.4</ele>
        <time>2026-03-10T12:37:12Z</time>
      </trkpt>
      <trkpt lat="48.9778" lon="7.61483">
        <ele>549.2</ele>
        <time>2026-03-10T12:37:17Z</time>
      </trkpt>
      <trkpt lat="48.97774" lon="7.61486">
        <ele>546.8</ele>
        <time>2026-03-10T12:37:22Z</time>
      </trkpt>
      <trkpt lat="48.9777" lon="7.61488">
        <ele>545.3</ele>
        <time>2026-03-10T12:37:27Z</time>
      </trkpt>
      <trkpt lat="48.97768" lon="7.61487">
        <ele>544.7</ele>
        <time>2026-03-10T12:37:32Z</time>
      </trkpt>
      <trkpt lat="48.97767" lon="7.61488">
        <ele>544.2</ele>
        <time>2026-03-10T12:37:37Z</time>
      </trkpt>
      <trkpt lat="48.97767" lon="7.61488">
        <ele>544.2</ele>
        <time>2026-03-10T12:37:42Z</time>
      </trkpt>
      <trkpt lat="48.97767" lon="7.61488">
        <ele>544.2</ele>
        <time>2026-03-10T12:37:47Z</time>
      </trkpt>
      <trkpt lat="48.97767" lon="7.61488">
        <ele>544.2</ele>
        <time>2026-03-10T12:37:52Z</time>
      </trkpt>
      <trkpt lat="48.97767" lon="7.61488">
        <ele>544.2</ele>
        <time>2026-03-10T12:37:57Z</time>
      </trkpt>
      <trkpt lat="48.97767" lon="7.61488">
        <ele>544.2</ele>
        <time>2026-03-10T12:38:02Z</time>
      </trkpt>
      <trkpt lat="48.97767" lon="7.61488">
        <ele>544.2</ele>
        <time>2026-03-10T12:38:07Z</time>
      </trkpt>
      <trkpt lat="48.97767" lon="7.61488">
        <ele>544.2</ele>
        <time>2026-03-10T12:38:12Z</time>
      </trkpt>
      <trkpt lat="48.97767" lon="7.61488">
        <ele>544.2</ele>
        <time>2026-03-10T12:38:17Z</time>
      </trkpt>
      <trkpt lat="48.97756" lon="7.6149">
        <ele>540.3</ele>
        <time>2026-03-10T12:38:22Z</time>
      </trkpt>
      <trkpt lat="48.97753" lon="7.61494">
        <ele>538.8</ele>
        <time>2026-03-10T12:38:27Z</time>
      </trkpt>
      <trkpt lat="48.97751" lon="7.61495">
        <ele>537.9</ele>
        <time>2026-03-10T12:38:32Z</time>
      </trkpt>
      <trkpt lat="48.97749" lon="7.61496">
        <ele>537.1</ele>
        <time>2026-03-10T12:38:37Z</time>
      </trkpt>
      <trkpt lat="48.97751" lon="7.61507">
        <ele>536.1</ele>
        <time>2026-03-10T12:38:42Z</time>
      </trkpt>
      <trkpt lat="48.97752" lon="7.61514">
        <ele>535.2</ele>
        <time>2026-03-10T12:38:47Z</time>
      </trkpt>
      <trkpt lat="48.97756" lon="7.61519">
        <ele>535.6</ele>
        <time>2026-03-10T12:38:52Z</time>
      </trkpt>
      <trkpt lat="48.97757" lon="7.61525">
        <ele>534.9</ele>
        <time>2026-03-10T12:38:57Z</time>
      </trkpt>
      <trkpt lat="48.97757" lon="7.61528">
        <ele>534.3</ele>
        <time>2026-03-10T12:39:02Z</time>
      </trkpt>
      <trkpt lat="48.97757" lon="7.61537">
        <ele>532.7</ele>
        <time>2026-03-10T12:39:07Z</time>
      </trkpt>
      <trkpt lat="48.97752" lon="7.61535">
        <ele>531.4</ele>
        <time>2026-03-10T12:39:12Z</time>
      </trkpt>
      <trkpt lat="48.97748" lon="7.6153">
        <ele>530.9</ele>
        <time>2026-03-10T12:39:17Z</time>
      </trkpt>
      <trkpt lat="48.97743" lon="7.61524">
        <ele>530.3</ele>
        <time>2026-03-10T12:39:22Z</time>
      </trkpt>
      <trkpt lat="48.97741" lon="7.61521">
        <ele>530.1</ele>
        <time>2026-03-10T12:39:27Z</time>
      </trkpt>
      <trkpt lat="48.97739" lon="7.61517">
        <ele>530.1</ele>
        <time>2026-03-10T12:39:32Z</time>
      </trkpt>
      <trkpt lat="48.97739" lon="7.61516">
        <ele>530.3</ele>
        <time>2026-03-10T12:39:37Z</time>
      </trkpt>
      <trkpt lat="48.97741" lon="7.61525">
        <ele>529.5</ele>
        <time>2026-03-10T12:39:42Z</time>
      </trkpt>
      <trkpt lat="48.97747" lon="7.61535">
        <ele>529.7</ele>
        <time>2026-03-10T12:39:47Z</time>
      </trkpt>
      <trkpt lat="48.9775" lon="7.61544">
        <ele>529.1</ele>
        <time>2026-03-10T12:39:52Z</time>
      </trkpt>
      <trkpt lat="48.9775" lon="7.61551">
        <ele>527.8</ele>
        <time>2026-03-10T12:39:57Z</time>
      </trkpt>
      <trkpt lat="48.97744" lon="7.61549">
        <ele>526.4</ele>
        <time>2026-03-10T12:40:02Z</time>
      </trkpt>
      <trkpt lat="48.97738" lon="7.6154">
        <ele>526</ele>
        <time>2026-03-10T12:40:07Z</time>
      </trkpt>
      <trkpt lat="48.97733" lon="7.61532">
        <ele>525.7</ele>
        <time>2026-03-10T12:40:12Z</time>
      </trkpt>
      <trkpt lat="48.97729" lon="7.61527">
        <ele>525.1</ele>
        <time>2026-03-10T12:40:17Z</time>
      </trkpt>
      <trkpt lat="48.97728" lon="7.61531">
        <ele>524.2</ele>
        <time>2026-03-10T12:40:22Z</time>
      </trkpt>
      <trkpt lat="48.9773" lon="7.61542">
        <ele>523.2</ele>
        <time>2026-03-10T12:40:27Z</time>
      </trkpt>
      <trkpt lat="48.97734" lon="7.6155">
        <ele>523.2</ele>
        <time>2026-03-10T12:40:32Z</time>
      </trkpt>
      <trkpt lat="48.97736" lon="7.61557">
        <ele>522.7</ele>
        <time>2026-03-10T12:40:37Z</time>
      </trkpt>
      <trkpt lat="48.97732" lon="7.61554">
        <ele>522</ele>
        <time>2026-03-10T12:40:42Z</time>
      </trkpt>
      <trkpt lat="48.97726" lon="7.61547">
        <ele>521.2</ele>
        <time>2026-03-10T12:40:47Z</time>
      </trkpt>
      <trkpt lat="48.97721" lon="7.61541">
        <ele>520.5</ele>
        <time>2026-03-10T12:40:52Z</time>
      </trkpt>
      <trkpt lat="48.97721" lon="7.6155">
        <ele>519.3</ele>
        <time>2026-03-10T12:40:57Z</time>
      </trkpt>
      <trkpt lat="48.97723" lon="7.6156">
        <ele>518.5</ele>
        <time>2026-03-10T12:41:02Z</time>
      </trkpt>
      <trkpt lat="48.97724" lon="7.61568">
        <ele>517.6</ele>
        <time>2026-03-10T12:41:07Z</time>
      </trkpt>
      <trkpt lat="48.97726" lon="7.61572">
        <ele>517.6</ele>
        <time>2026-03-10T12:41:12Z</time>
      </trkpt>
      <trkpt lat="48.97724" lon="7.61569">
        <ele>517.5</ele>
        <time>2026-03-10T12:41:17Z</time>
      </trkpt>
      <trkpt lat="48.97719" lon="7.61561">
        <ele>517.2</ele>
        <time>2026-03-10T12:41:22Z</time>
      </trkpt>
      <trkpt lat="48.97714" lon="7.61558">
        <ele>516.2</ele>
        <time>2026-03-10T12:41:27Z</time>
      </trkpt>
      <trkpt lat="48.97714" lon="7.61558">
        <ele>516.2</ele>
        <time>2026-03-10T12:41:32Z</time>
      </trkpt>
      <trkpt lat="48.97705" lon="7.61553">
        <ele>514.2</ele>
        <time>2026-03-10T12:41:37Z</time>
      </trkpt>
      <trkpt lat="48.97705" lon="7.61553">
        <ele>514.2</ele>
        <time>2026-03-10T12:41:42Z</time>
      </trkpt>
      <trkpt lat="48.97702" lon="7.61555">
        <ele>513</ele>
        <time>2026-03-10T12:41:47Z</time>
      </trkpt>
      <trkpt lat="48.97706" lon="7.61571">
        <ele>512.4</ele>
        <time>2026-03-10T12:41:52Z</time>
      </trkpt>
      <trkpt lat="48.9771" lon="7.61583">
        <ele>512</ele>
        <time>2026-03-10T12:41:57Z</time>
      </trkpt>
      <trkpt lat="48.97712" lon="7.61588">
        <ele>511.7</ele>
        <time>2026-03-10T12:42:02Z</time>
      </trkpt>
      <trkpt lat="48.97714" lon="7.61592">
        <ele>511.5</ele>
        <time>2026-03-10T12:42:07Z</time>
      </trkpt>
      <trkpt lat="48.97709" lon="7.61586">
        <ele>511.2</ele>
        <time>2026-03-10T12:42:12Z</time>
      </trkpt>
      <trkpt lat="48.97703" lon="7.61576">
        <ele>511</ele>
        <time>2026-03-10T12:42:17Z</time>
      </trkpt>
      <trkpt lat="48.97698" lon="7.61568">
        <ele>510.5</ele>
        <time>2026-03-10T12:42:22Z</time>
      </trkpt>
      <trkpt lat="48.97693" lon="7.61562">
        <ele>509.7</ele>
        <time>2026-03-10T12:42:27Z</time>
      </trkpt>
      <trkpt lat="48.97688" lon="7.61557">
        <ele>508.8</ele>
        <time>2026-03-10T12:42:32Z</time>
      </trkpt>
      <trkpt lat="48.97684" lon="7.61561">
        <ele>507.3</ele>
        <time>2026-03-10T12:42:37Z</time>
      </trkpt>
      <trkpt lat="48.97685" lon="7.61573">
        <ele>506.5</ele>
        <time>2026-03-10T12:42:42Z</time>
      </trkpt>
      <trkpt lat="48.9769" lon="7.61585">
        <ele>506.7</ele>
        <time>2026-03-10T12:42:47Z</time>
      </trkpt>
      <trkpt lat="48.97695" lon="7.61592">
        <ele>507</ele>
        <time>2026-03-10T12:42:52Z</time>
      </trkpt>
      <trkpt lat="48.97693" lon="7.61597">
        <ele>505.9</ele>
        <time>2026-03-10T12:42:57Z</time>
      </trkpt>
      <trkpt lat="48.97689" lon="7.61595">
        <ele>505.2</ele>
        <time>2026-03-10T12:43:02Z</time>
      </trkpt>
      <trkpt lat="48.97683" lon="7.6159">
        <ele>504.4</ele>
        <time>2026-03-10T12:43:07Z</time>
      </trkpt>
      <trkpt lat="48.97677" lon="7.61587">
        <ele>503.2</ele>
        <time>2026-03-10T12:43:12Z</time>
      </trkpt>
      <trkpt lat="48.97672" lon="7.61585">
        <ele>502.2</ele>
        <time>2026-03-10T12:43:17Z</time>
      </trkpt>
      <trkpt lat="48.97667" lon="7.61585">
        <ele>500.9</ele>
        <time>2026-03-10T12:43:22Z</time>
      </trkpt>
      <trkpt lat="48.97666" lon="7.61592">
        <ele>500.1</ele>
        <time>2026-03-10T12:43:27Z</time>
      </trkpt>
      <trkpt lat="48.97668" lon="7.616">
        <ele>499.9</ele>
        <time>2026-03-10T12:43:32Z</time>
      </trkpt>
      <trkpt lat="48.97669" lon="7.61609">
        <ele>499.3</ele>
        <time>2026-03-10T12:43:37Z</time>
      </trkpt>
      <trkpt lat="48.97665" lon="7.61612">
        <ele>498.2</ele>
        <time>2026-03-10T12:43:42Z</time>
      </trkpt>
      <trkpt lat="48.97661" lon="7.61613">
        <ele>497.3</ele>
        <time>2026-03-10T12:43:47Z</time>
      </trkpt>
      <trkpt lat="48.97654" lon="7.61613">
        <ele>495.9</ele>
        <time>2026-03-10T12:43:52Z</time>
      </trkpt>
      <trkpt lat="48.97651" lon="7.61611">
        <ele>495.4</ele>
        <time>2026-03-10T12:43:57Z</time>
      </trkpt>
      <trkpt lat="48.97651" lon="7.61611">
        <ele>495.4</ele>
        <time>2026-03-10T12:44:02Z</time>
      </trkpt>
      <trkpt lat="48.97651" lon="7.61611">
        <ele>495.4</ele>
        <time>2026-03-10T12:44:07Z</time>
      </trkpt>
      <trkpt lat="48.97647" lon="7.61612">
        <ele>494.5</ele>
        <time>2026-03-10T12:44:12Z</time>
      </trkpt>
      <trkpt lat="48.97646" lon="7.61611">
        <ele>494.3</ele>
        <time>2026-03-10T12:44:17Z</time>
      </trkpt>
      <trkpt lat="48.97646" lon="7.61611">
        <ele>494.3</ele>
        <time>2026-03-10T12:44:22Z</time>
      </trkpt>
      <trkpt lat="48.97637" lon="7.61612">
        <ele>492.4</ele>
        <time>2026-03-10T12:44:27Z</time>
      </trkpt>
      <trkpt lat="48.97633" lon="7.61614">
        <ele>491.5</ele>
        <time>2026-03-10T12:44:32Z</time>
      </trkpt>
      <trkpt lat="48.97629" lon="7.61615">
        <ele>490.7</ele>
        <time>2026-03-10T12:44:37Z</time>
      </trkpt>
      <trkpt lat="48.97625" lon="7.61617">
        <ele>489.9</ele>
        <time>2026-03-10T12:44:42Z</time>
      </trkpt>
      <trkpt lat="48.9762" lon="7.61619">
        <ele>489</ele>
        <time>2026-03-10T12:44:47Z</time>
      </trkpt>
      <trkpt lat="48.97616" lon="7.61619">
        <ele>488.2</ele>
        <time>2026-03-10T12:44:52Z</time>
      </trkpt>
      <trkpt lat="48.97615" lon="7.61615">
        <ele>487.8</ele>
        <time>2026-03-10T12:44:57Z</time>
      </trkpt>
      <trkpt lat="48.97614" lon="7.61615">
        <ele>487.6</ele>
        <time>2026-03-10T12:45:02Z</time>
      </trkpt>
      <trkpt lat="48.97606" lon="7.61617">
        <ele>486.1</ele>
        <time>2026-03-10T12:45:07Z</time>
      </trkpt>
      <trkpt lat="48.97602" lon="7.61619">
        <ele>485.5</ele>
        <time>2026-03-10T12:45:12Z</time>
      </trkpt>
      <trkpt lat="48.97597" lon="7.61621">
        <ele>484.7</ele>
        <time>2026-03-10T12:45:17Z</time>
      </trkpt>
      <trkpt lat="48.97594" lon="7.61624">
        <ele>484.3</ele>
        <time>2026-03-10T12:45:22Z</time>
      </trkpt>
      <trkpt lat="48.9759" lon="7.61628">
        <ele>484</ele>
        <time>2026-03-10T12:45:27Z</time>
      </trkpt>
      <trkpt lat="48.97588" lon="7.61631">
        <ele>483.9</ele>
        <time>2026-03-10T12:45:32Z</time>
      </trkpt>
      <trkpt lat="48.97585" lon="7.61634">
        <ele>483.7</ele>
        <time>2026-03-10T12:45:37Z</time>
      </trkpt>
      <trkpt lat="48.97582" lon="7.61638">
        <ele>483.5</ele>
        <time>2026-03-10T12:45:42Z</time>
      </trkpt>
      <trkpt lat="48.97579" lon="7.61644">
        <ele>483.4</ele>
        <time>2026-03-10T12:45:47Z</time>
      </trkpt>
      <trkpt lat="48.97577" lon="7.61648">
        <ele>483.4</ele>
        <time>2026-03-10T12:45:52Z</time>
      </trkpt>
      <trkpt lat="48.97575" lon="7.61652">
        <ele>483.4</ele>
        <time>2026-03-10T12:45:57Z</time>
      </trkpt>
      <trkpt lat="48.97571" lon="7.61656">
        <ele>483</ele>
        <time>2026-03-10T12:46:02Z</time>
      </trkpt>
      <trkpt lat="48.97568" lon="7.61661">
        <ele>483</ele>
        <time>2026-03-10T12:46:07Z</time>
      </trkpt>
      <trkpt lat="48.97564" lon="7.61666">
        <ele>482.9</ele>
        <time>2026-03-10T12:46:12Z</time>
      </trkpt>
      <trkpt lat="48.97561" lon="7.6167">
        <ele>482.8</ele>
        <time>2026-03-10T12:46:17Z</time>
      </trkpt>
      <trkpt lat="48.97557" lon="7.61671">
        <ele>482.1</ele>
        <time>2026-03-10T12:46:22Z</time>
      </trkpt>
      <trkpt lat="48.97551" lon="7.61674">
        <ele>481.3</ele>
        <time>2026-03-10T12:46:27Z</time>
      </trkpt>
      <trkpt lat="48.97546" lon="7.61678">
        <ele>480.9</ele>
        <time>2026-03-10T12:46:32Z</time>
      </trkpt>
      <trkpt lat="48.97542" lon="7.61684">
        <ele>481.1</ele>
        <time>2026-03-10T12:46:37Z</time>
      </trkpt>
      <trkpt lat="48.97537" lon="7.6169">
        <ele>481.2</ele>
        <time>2026-03-10T12:46:42Z</time>
      </trkpt>
      <trkpt lat="48.97532" lon="7.61697">
        <ele>481.6</ele>
        <time>2026-03-10T12:46:47Z</time>
      </trkpt>
      <trkpt lat="48.97528" lon="7.61705">
        <ele>482.4</ele>
        <time>2026-03-10T12:46:52Z</time>
      </trkpt>
      <trkpt lat="48.97524" lon="7.61712">
        <ele>483.3</ele>
        <time>2026-03-10T12:46:57Z</time>
      </trkpt>
      <trkpt lat="48.97522" lon="7.61719">
        <ele>484.4</ele>
        <time>2026-03-10T12:47:02Z</time>
      </trkpt>
      <trkpt lat="48.97525" lon="7.61733">
        <ele>487.2</ele>
        <time>2026-03-10T12:47:07Z</time>
      </trkpt>
      <trkpt lat="48.97528" lon="7.61745">
        <ele>489.5</ele>
        <time>2026-03-10T12:47:12Z</time>
      </trkpt>
      <trkpt lat="48.97532" lon="7.61752">
        <ele>490.2</ele>
        <time>2026-03-10T12:47:17Z</time>
      </trkpt>
      <trkpt lat="48.97536" lon="7.61759">
        <ele>489.7</ele>
        <time>2026-03-10T12:47:22Z</time>
      </trkpt>
      <trkpt lat="48.97542" lon="7.61763">
        <ele>489.3</ele>
        <time>2026-03-10T12:47:27Z</time>
      </trkpt>
      <trkpt lat="48.97546" lon="7.61771">
        <ele>488.5</ele>
        <time>2026-03-10T12:47:32Z</time>
      </trkpt>
      <trkpt lat="48.97547" lon="7.61771">
        <ele>488.5</ele>
        <time>2026-03-10T12:47:37Z</time>
      </trkpt>
      <trkpt lat="48.97548" lon="7.6177">
        <ele>488.5</ele>
        <time>2026-03-10T12:47:42Z</time>
      </trkpt>
      <trkpt lat="48.97548" lon="7.6177">
        <ele>488.5</ele>
        <time>2026-03-10T12:47:47Z</time>
      </trkpt>
      <trkpt lat="48.97548" lon="7.6177">
        <ele>488.5</ele>
        <time>2026-03-10T12:47:52Z</time>
      </trkpt>
      <trkpt lat="48.97548" lon="7.6177">
        <ele>488.5</ele>
        <time>2026-03-10T12:47:57Z</time>
      </trkpt>
      <trkpt lat="48.97548" lon="7.6177">
        <ele>488.5</ele>
        <time>2026-03-10T12:48:02Z</time>
      </trkpt>
      <trkpt lat="48.97548" lon="7.6177">
        <ele>488.5</ele>
        <time>2026-03-10T12:48:07Z</time>
      </trkpt>
      <trkpt lat="48.97548" lon="7.6177">
        <ele>488.5</ele>
        <time>2026-03-10T12:48:12Z</time>
      </trkpt>
      <trkpt lat="48.97546" lon="7.61775">
        <ele>488.1</ele>
        <time>2026-03-10T12:48:17Z</time>
      </trkpt>
      <trkpt lat="48.97551" lon="7.61785">
        <ele>486.9</ele>
        <time>2026-03-10T12:48:22Z</time>
      </trkpt>
      <trkpt lat="48.97553" lon="7.6179">
        <ele>486.2</ele>
        <time>2026-03-10T12:48:27Z</time>
      </trkpt>
      <trkpt lat="48.97558" lon="7.61789">
        <ele>486</ele>
        <time>2026-03-10T12:48:32Z</time>
      </trkpt>
      <trkpt lat="48.97564" lon="7.61787">
        <ele>485.9</ele>
        <time>2026-03-10T12:48:37Z</time>
      </trkpt>
      <trkpt lat="48.9757" lon="7.61784">
        <ele>486</ele>
        <time>2026-03-10T12:48:42Z</time>
      </trkpt>
      <trkpt lat="48.97573" lon="7.61782">
        <ele>486.1</ele>
        <time>2026-03-10T12:48:47Z</time>
      </trkpt>
      <trkpt lat="48.97568" lon="7.61789">
        <ele>485.4</ele>
        <time>2026-03-10T12:48:52Z</time>
      </trkpt>
      <trkpt lat="48.97559" lon="7.61793">
        <ele>485.4</ele>
        <time>2026-03-10T12:48:57Z</time>
      </trkpt>
      <trkpt lat="48.97552" lon="7.61796">
        <ele>485.6</ele>
        <time>2026-03-10T12:49:02Z</time>
      </trkpt>
      <trkpt lat="48.97549" lon="7.61798">
        <ele>485.6</ele>
        <time>2026-03-10T12:49:07Z</time>
      </trkpt>
      <trkpt lat="48.97547" lon="7.61799">
        <ele>485.7</ele>
        <time>2026-03-10T12:49:12Z</time>
      </trkpt>
      <trkpt lat="48.97557" lon="7.61807">
        <ele>483.9</ele>
        <time>2026-03-10T12:49:17Z</time>
      </trkpt>
      <trkpt lat="48.97564" lon="7.61809">
        <ele>483</ele>
        <time>2026-03-10T12:49:22Z</time>
      </trkpt>
      <trkpt lat="48.9756" lon="7.61811">
        <ele>483.1</ele>
        <time>2026-03-10T12:49:27Z</time>
      </trkpt>
      <trkpt lat="48.97554" lon="7.61814">
        <ele>483.4</ele>
        <time>2026-03-10T12:49:32Z</time>
      </trkpt>
      <trkpt lat="48.97551" lon="7.61818">
        <ele>483.3</ele>
        <time>2026-03-10T12:49:37Z</time>
      </trkpt>
      <trkpt lat="48.97549" lon="7.61822">
        <ele>483.1</ele>
        <time>2026-03-10T12:49:42Z</time>
      </trkpt>
      <trkpt lat="48.97546" lon="7.61828">
        <ele>482.9</ele>
        <time>2026-03-10T12:49:47Z</time>
      </trkpt>
      <trkpt lat="48.97542" lon="7.61834">
        <ele>482.8</ele>
        <time>2026-03-10T12:49:52Z</time>
      </trkpt>
      <trkpt lat="48.97538" lon="7.61841">
        <ele>481.5</ele>
        <time>2026-03-10T12:49:57Z</time>
      </trkpt>
      <trkpt lat="48.97534" lon="7.61846">
        <ele>480.7</ele>
        <time>2026-03-10T12:50:02Z</time>
      </trkpt>
      <trkpt lat="48.97531" lon="7.61852">
        <ele>479.6</ele>
        <time>2026-03-10T12:50:07Z</time>
      </trkpt>
      <trkpt lat="48.97529" lon="7.61861">
        <ele>477.4</ele>
        <time>2026-03-10T12:50:12Z</time>
      </trkpt>
      <trkpt lat="48.9753" lon="7.61869">
        <ele>475.1</ele>
        <time>2026-03-10T12:50:17Z</time>
      </trkpt>
      <trkpt lat="48.97526" lon="7.61871">
        <ele>475.1</ele>
        <time>2026-03-10T12:50:22Z</time>
      </trkpt>
      <trkpt lat="48.97522" lon="7.61874">
        <ele>474.9</ele>
        <time>2026-03-10T12:50:27Z</time>
      </trkpt>
      <trkpt lat="48.9752" lon="7.61876">
        <ele>474.6</ele>
        <time>2026-03-10T12:50:32Z</time>
      </trkpt>
      <trkpt lat="48.97518" lon="7.6188">
        <ele>473.8</ele>
        <time>2026-03-10T12:50:37Z</time>
      </trkpt>
      <trkpt lat="48.97518" lon="7.61881">
        <ele>473.5</ele>
        <time>2026-03-10T12:50:42Z</time>
      </trkpt>
      <trkpt lat="48.97518" lon="7.61881">
        <ele>473.5</ele>
        <time>2026-03-10T12:50:47Z</time>
      </trkpt>
      <trkpt lat="48.97518" lon="7.61881">
        <ele>473.5</ele>
        <time>2026-03-10T12:50:52Z</time>
      </trkpt>
      <trkpt lat="48.97518" lon="7.61895">
        <ele>469.7</ele>
        <time>2026-03-10T12:50:57Z</time>
      </trkpt>
      <trkpt lat="48.9752" lon="7.61898">
        <ele>468.6</ele>
        <time>2026-03-10T12:51:02Z</time>
      </trkpt>
      <trkpt lat="48.9752" lon="7.61898">
        <ele>468.6</ele>
        <time>2026-03-10T12:51:07Z</time>
      </trkpt>
      <trkpt lat="48.9752" lon="7.61898">
        <ele>468.6</ele>
        <time>2026-03-10T12:51:12Z</time>
      </trkpt>
      <trkpt lat="48.97529" lon="7.61902">
        <ele>466.4</ele>
        <time>2026-03-10T12:51:17Z</time>
      </trkpt>
      <trkpt lat="48.97535" lon="7.61895">
        <ele>467.6</ele>
        <time>2026-03-10T12:51:22Z</time>
      </trkpt>
      <trkpt lat="48.97541" lon="7.6189">
        <ele>468.1</ele>
        <time>2026-03-10T12:51:27Z</time>
      </trkpt>
      <trkpt lat="48.97547" lon="7.61884">
        <ele>468.9</ele>
        <time>2026-03-10T12:51:32Z</time>
      </trkpt>
      <trkpt lat="48.97551" lon="7.6188">
        <ele>469.5</ele>
        <time>2026-03-10T12:51:37Z</time>
      </trkpt>
      <trkpt lat="48.97554" lon="7.61877">
        <ele>469.9</ele>
        <time>2026-03-10T12:51:42Z</time>
      </trkpt>
      <trkpt lat="48.97558" lon="7.61879">
        <ele>468.8</ele>
        <time>2026-03-10T12:51:47Z</time>
      </trkpt>
      <trkpt lat="48.9755" lon="7.61888">
        <ele>467.5</ele>
        <time>2026-03-10T12:51:52Z</time>
      </trkpt>
      <trkpt lat="48.97538" lon="7.61898">
        <ele>466.4</ele>
        <time>2026-03-10T12:51:57Z</time>
      </trkpt>
      <trkpt lat="48.97533" lon="7.61902">
        <ele>465.9</ele>
        <time>2026-03-10T12:52:02Z</time>
      </trkpt>
      <trkpt lat="48.97532" lon="7.61908">
        <ele>464.5</ele>
        <time>2026-03-10T12:52:07Z</time>
      </trkpt>
      <trkpt lat="48.97529" lon="7.61914">
        <ele>463.2</ele>
        <time>2026-03-10T12:52:12Z</time>
      </trkpt>
      <trkpt lat="48.97526" lon="7.61918">
        <ele>462.4</ele>
        <time>2026-03-10T12:52:17Z</time>
      </trkpt>
      <trkpt lat="48.97528" lon="7.6192">
        <ele>461.5</ele>
        <time>2026-03-10T12:52:22Z</time>
      </trkpt>
      <trkpt lat="48.97538" lon="7.61916">
        <ele>461.6</ele>
        <time>2026-03-10T12:52:27Z</time>
      </trkpt>
      <trkpt lat="48.97548" lon="7.61911">
        <ele>461.7</ele>
        <time>2026-03-10T12:52:32Z</time>
      </trkpt>
      <trkpt lat="48.97555" lon="7.61908">
        <ele>461.7</ele>
        <time>2026-03-10T12:52:37Z</time>
      </trkpt>
      <trkpt lat="48.97548" lon="7.61911">
        <ele>461.7</ele>
        <time>2026-03-10T12:52:42Z</time>
      </trkpt>
      <trkpt lat="48.97538" lon="7.61918">
        <ele>461</ele>
        <time>2026-03-10T12:52:47Z</time>
      </trkpt>
      <trkpt lat="48.97532" lon="7.61926">
        <ele>459.1</ele>
        <time>2026-03-10T12:52:52Z</time>
      </trkpt>
      <trkpt lat="48.97527" lon="7.6193">
        <ele>458.3</ele>
        <time>2026-03-10T12:52:57Z</time>
      </trkpt>
      <trkpt lat="48.97523" lon="7.61933">
        <ele>457.6</ele>
        <time>2026-03-10T12:53:02Z</time>
      </trkpt>
      <trkpt lat="48.97521" lon="7.61932">
        <ele>458.1</ele>
        <time>2026-03-10T12:53:07Z</time>
      </trkpt>
      <trkpt lat="48.9752" lon="7.61933">
        <ele>457.8</ele>
        <time>2026-03-10T12:53:12Z</time>
      </trkpt>
      <trkpt lat="48.9752" lon="7.61933">
        <ele>457.8</ele>
        <time>2026-03-10T12:53:17Z</time>
      </trkpt>
      <trkpt lat="48.97528" lon="7.61943">
        <ele>453.8</ele>
        <time>2026-03-10T12:53:22Z</time>
      </trkpt>
      <trkpt lat="48.97536" lon="7.6194">
        <ele>454.3</ele>
        <time>2026-03-10T12:53:27Z</time>
      </trkpt>
      <trkpt lat="48.97544" lon="7.61943">
        <ele>452.8</ele>
        <time>2026-03-10T12:53:32Z</time>
      </trkpt>
      <trkpt lat="48.97543" lon="7.61954">
        <ele>449.5</ele>
        <time>2026-03-10T12:53:37Z</time>
      </trkpt>
      <trkpt lat="48.9754" lon="7.61962">
        <ele>447.2</ele>
        <time>2026-03-10T12:53:42Z</time>
      </trkpt>
      <trkpt lat="48.97538" lon="7.61969">
        <ele>445</ele>
        <time>2026-03-10T12:53:47Z</time>
      </trkpt>
      <trkpt lat="48.97535" lon="7.61976">
        <ele>442.8</ele>
        <time>2026-03-10T12:53:52Z</time>
      </trkpt>
      <trkpt lat="48.97533" lon="7.61983">
        <ele>440.5</ele>
        <time>2026-03-10T12:53:57Z</time>
      </trkpt>
      <trkpt lat="48.97531" lon="7.61988">
        <ele>438.8</ele>
        <time>2026-03-10T12:54:02Z</time>
      </trkpt>
      <trkpt lat="48.97531" lon="7.61995">
        <ele>436.5</ele>
        <time>2026-03-10T12:54:07Z</time>
      </trkpt>
      <trkpt lat="48.9753" lon="7.62006">
        <ele>433.5</ele>
        <time>2026-03-10T12:54:12Z</time>
      </trkpt>
      <trkpt lat="48.97527" lon="7.62016">
        <ele>431.1</ele>
        <time>2026-03-10T12:54:17Z</time>
      </trkpt>
      <trkpt lat="48.97525" lon="7.62023">
        <ele>429.3</ele>
        <time>2026-03-10T12:54:22Z</time>
      </trkpt>
      <trkpt lat="48.97524" lon="7.62027">
        <ele>428.3</ele>
        <time>2026-03-10T12:54:27Z</time>
      </trkpt>
      <trkpt lat="48.97522" lon="7.62032">
        <ele>426.8</ele>
        <time>2026-03-10T12:54:32Z</time>
      </trkpt>
      <trkpt lat="48.97519" lon="7.62038">
        <ele>425</ele>
        <time>2026-03-10T12:54:37Z</time>
      </trkpt>
      <trkpt lat="48.97516" lon="7.62044">
        <ele>423</ele>
        <time>2026-03-10T12:54:42Z</time>
      </trkpt>
      <trkpt lat="48.97514" lon="7.6205">
        <ele>421.2</ele>
        <time>2026-03-10T12:54:47Z</time>
      </trkpt>
      <trkpt lat="48.9751" lon="7.62059">
        <ele>418.1</ele>
        <time>2026-03-10T12:54:52Z</time>
      </trkpt>
      <trkpt lat="48.97504" lon="7.62066">
        <ele>414.9</ele>
        <time>2026-03-10T12:54:57Z</time>
      </trkpt>
      <trkpt lat="48.97502" lon="7.62075">
        <ele>411.9</ele>
        <time>2026-03-10T12:55:02Z</time>
      </trkpt>
      <trkpt lat="48.97499" lon="7.62081">
        <ele>409.6</ele>
        <time>2026-03-10T12:55:07Z</time>
      </trkpt>
      <trkpt lat="48.97495" lon="7.62088">
        <ele>408.1</ele>
        <time>2026-03-10T12:55:12Z</time>
      </trkpt>
      <trkpt lat="48.97488" lon="7.62093">
        <ele>406.9</ele>
        <time>2026-03-10T12:55:17Z</time>
      </trkpt>
      <trkpt lat="48.97483" lon="7.62092">
        <ele>406.4</ele>
        <time>2026-03-10T12:55:22Z</time>
      </trkpt>
      <trkpt lat="48.97478" lon="7.62093">
        <ele>405.8</ele>
        <time>2026-03-10T12:55:27Z</time>
      </trkpt>
      <trkpt lat="48.97473" lon="7.62095">
        <ele>404.9</ele>
        <time>2026-03-10T12:55:32Z</time>
      </trkpt>
      <trkpt lat="48.97467" lon="7.62104">
        <ele>402.6</ele>
        <time>2026-03-10T12:55:37Z</time>
      </trkpt>
      <trkpt lat="48.97462" lon="7.62107">
        <ele>401.4</ele>
        <time>2026-03-10T12:55:42Z</time>
      </trkpt>
      <trkpt lat="48.97458" lon="7.62109">
        <ele>400.4</ele>
        <time>2026-03-10T12:55:47Z</time>
      </trkpt>
      <trkpt lat="48.97454" lon="7.62112">
        <ele>399.1</ele>
        <time>2026-03-10T12:55:52Z</time>
      </trkpt>
      <trkpt lat="48.97449" lon="7.62113">
        <ele>398.1</ele>
        <time>2026-03-10T12:55:57Z</time>
      </trkpt>
      <trkpt lat="48.97444" lon="7.62117">
        <ele>396.3</ele>
        <time>2026-03-10T12:56:02Z</time>
      </trkpt>
      <trkpt lat="48.97438" lon="7.62123">
        <ele>393.7</ele>
        <time>2026-03-10T12:56:07Z</time>
      </trkpt>
      <trkpt lat="48.97433" lon="7.62128">
        <ele>391.4</ele>
        <time>2026-03-10T12:56:12Z</time>
      </trkpt>
      <trkpt lat="48.97429" lon="7.62131">
        <ele>389.8</ele>
        <time>2026-03-10T12:56:17Z</time>
      </trkpt>
      <trkpt lat="48.97424" lon="7.62137">
        <ele>386.9</ele>
        <time>2026-03-10T12:56:22Z</time>
      </trkpt>
      <trkpt lat="48.97421" lon="7.62143">
        <ele>384.5</ele>
        <time>2026-03-10T12:56:27Z</time>
      </trkpt>
      <trkpt lat="48.97417" lon="7.62149">
        <ele>381.6</ele>
        <time>2026-03-10T12:56:32Z</time>
      </trkpt>
      <trkpt lat="48.97411" lon="7.62154">
        <ele>380.1</ele>
        <time>2026-03-10T12:56:37Z</time>
      </trkpt>
      <trkpt lat="48.97408" lon="7.6216">
        <ele>378.2</ele>
        <time>2026-03-10T12:56:42Z</time>
      </trkpt>
      <trkpt lat="48.97404" lon="7.62166">
        <ele>376.4</ele>
        <time>2026-03-10T12:56:47Z</time>
      </trkpt>
      <trkpt lat="48.97402" lon="7.62175">
        <ele>375.2</ele>
        <time>2026-03-10T12:56:52Z</time>
      </trkpt>
      <trkpt lat="48.97398" lon="7.62184">
        <ele>374</ele>
        <time>2026-03-10T12:56:57Z</time>
      </trkpt>
      <trkpt lat="48.97395" lon="7.62192">
        <ele>372.8</ele>
        <time>2026-03-10T12:57:02Z</time>
      </trkpt>
      <trkpt lat="48.97393" lon="7.62201">
        <ele>371.4</ele>
        <time>2026-03-10T12:57:07Z</time>
      </trkpt>
      <trkpt lat="48.97388" lon="7.6221">
        <ele>369.7</ele>
        <time>2026-03-10T12:57:12Z</time>
      </trkpt>
      <trkpt lat="48.97385" lon="7.62218">
        <ele>368.1</ele>
        <time>2026-03-10T12:57:17Z</time>
      </trkpt>
      <trkpt lat="48.97382" lon="7.62227">
        <ele>366.2</ele>
        <time>2026-03-10T12:57:22Z</time>
      </trkpt>
      <trkpt lat="48.97379" lon="7.62239">
        <ele>363.7</ele>
        <time>2026-03-10T12:57:27Z</time>
      </trkpt>
      <trkpt lat="48.97377" lon="7.62248">
        <ele>361.7</ele>
        <time>2026-03-10T12:57:32Z</time>
      </trkpt>
      <trkpt lat="48.97373" lon="7.62249">
        <ele>360.8</ele>
        <time>2026-03-10T12:57:37Z</time>
      </trkpt>
      <trkpt lat="48.97373" lon="7.62249">
        <ele>360.8</ele>
        <time>2026-03-10T12:57:42Z</time>
      </trkpt>
      <trkpt lat="48.97373" lon="7.62249">
        <ele>360.8</ele>
        <time>2026-03-10T12:57:47Z</time>
      </trkpt>
      <trkpt lat="48.97373" lon="7.62249">
        <ele>360.8</ele>
        <time>2026-03-10T12:57:52Z</time>
      </trkpt>
      <trkpt lat="48.9737" lon="7.62259">
        <ele>359.7</ele>
        <time>2026-03-10T12:57:57Z</time>
      </trkpt>
      <trkpt lat="48.97368" lon="7.62269">
        <ele>358.9</ele>
        <time>2026-03-10T12:58:02Z</time>
      </trkpt>
      <trkpt lat="48.97364" lon="7.62279">
        <ele>357.4</ele>
        <time>2026-03-10T12:58:07Z</time>
      </trkpt>
      <trkpt lat="48.97359" lon="7.62288">
        <ele>355.4</ele>
        <time>2026-03-10T12:58:12Z</time>
      </trkpt>
      <trkpt lat="48.97354" lon="7.62296">
        <ele>353.4</ele>
        <time>2026-03-10T12:58:17Z</time>
      </trkpt>
      <trkpt lat="48.97352" lon="7.62306">
        <ele>351.9</ele>
        <time>2026-03-10T12:58:22Z</time>
      </trkpt>
      <trkpt lat="48.9735" lon="7.62316">
        <ele>350.3</ele>
        <time>2026-03-10T12:58:27Z</time>
      </trkpt>
      <trkpt lat="48.97348" lon="7.62322">
        <ele>349</ele>
        <time>2026-03-10T12:58:32Z</time>
      </trkpt>
      <trkpt lat="48.97346" lon="7.6233">
        <ele>347.5</ele>
        <time>2026-03-10T12:58:37Z</time>
      </trkpt>
      <trkpt lat="48.97343" lon="7.62336">
        <ele>346.5</ele>
        <time>2026-03-10T12:58:42Z</time>
      </trkpt>
      <trkpt lat="48.97346" lon="7.62335">
        <ele>347.5</ele>
        <time>2026-03-10T12:58:47Z</time>
      </trkpt>
      <trkpt lat="48.97346" lon="7.62334">
        <ele>347.3</ele>
        <time>2026-03-10T12:58:52Z</time>
      </trkpt>
      <trkpt lat="48.97346" lon="7.62334">
        <ele>347.3</ele>
        <time>2026-03-10T12:58:57Z</time>
      </trkpt>
      <trkpt lat="48.97346" lon="7.62334">
        <ele>347.3</ele>
        <time>2026-03-10T12:59:02Z</time>
      </trkpt>
      <trkpt lat="48.97346" lon="7.62334">
        <ele>347.3</ele>
        <time>2026-03-10T12:59:07Z</time>
      </trkpt>
      <trkpt lat="48.97346" lon="7.62334">
        <ele>347.3</ele>
        <time>2026-03-10T12:59:12Z</time>
      </trkpt>
      <trkpt lat="48.97355" lon="7.62323">
        <ele>351.6</ele>
        <time>2026-03-10T12:59:17Z</time>
      </trkpt>
      <trkpt lat="48.97352" lon="7.62328">
        <ele>350.1</ele>
        <time>2026-03-10T12:59:22Z</time>
      </trkpt>
      <trkpt lat="48.97348" lon="7.62336">
        <ele>348.5</ele>
        <time>2026-03-10T12:59:27Z</time>
      </trkpt>
      <trkpt lat="48.97346" lon="7.62336">
        <ele>347.7</ele>
        <time>2026-03-10T12:59:32Z</time>
      </trkpt>
      <trkpt lat="48.97342" lon="7.62342">
        <ele>347.2</ele>
        <time>2026-03-10T12:59:37Z</time>
      </trkpt>
      <trkpt lat="48.97339" lon="7.62346">
        <ele>346.8</ele>
        <time>2026-03-10T12:59:42Z</time>
      </trkpt>
      <trkpt lat="48.97338" lon="7.62351">
        <ele>347.3</ele>
        <time>2026-03-10T12:59:47Z</time>
      </trkpt>
      <trkpt lat="48.97334" lon="7.62358">
        <ele>347</ele>
        <time>2026-03-10T12:59:52Z</time>
      </trkpt>
      <trkpt lat="48.97331" lon="7.62364">
        <ele>347.2</ele>
        <time>2026-03-10T12:59:57Z</time>
      </trkpt>
      <trkpt lat="48.97329" lon="7.62364">
        <ele>346.7</ele>
        <time>2026-03-10T13:00:02Z</time>
      </trkpt>
      <trkpt lat="48.97329" lon="7.62364">
        <ele>346.7</ele>
        <time>2026-03-10T13:00:07Z</time>
      </trkpt>
      <trkpt lat="48.97329" lon="7.62364">
        <ele>346.7</ele>
        <time>2026-03-10T13:00:12Z</time>
      </trkpt>
      <trkpt lat="48.97327" lon="7.62364">
        <ele>346.1</ele>
        <time>2026-03-10T13:00:17Z</time>
      </trkpt>
      <trkpt lat="48.97324" lon="7.62372">
        <ele>346.8</ele>
        <time>2026-03-10T13:00:22Z</time>
      </trkpt>
      <trkpt lat="48.97313" lon="7.62381">
        <ele>345.4</ele>
        <time>2026-03-10T13:00:27Z</time>
      </trkpt>
      <trkpt lat="48.97307" lon="7.6239">
        <ele>345.5</ele>
        <time>2026-03-10T13:00:32Z</time>
      </trkpt>
      <trkpt lat="48.97302" lon="7.62398">
        <ele>345.7</ele>
        <time>2026-03-10T13:00:37Z</time>
      </trkpt>
      <trkpt lat="48.97297" lon="7.62406">
        <ele>345.9</ele>
        <time>2026-03-10T13:00:42Z</time>
      </trkpt>
      <trkpt lat="48.97293" lon="7.62411">
        <ele>345.7</ele>
        <time>2026-03-10T13:00:47Z</time>
      </trkpt>
      <trkpt lat="48.97289" lon="7.62415">
        <ele>345.4</ele>
        <time>2026-03-10T13:00:52Z</time>
      </trkpt>
      <trkpt lat="48.97286" lon="7.62417">
        <ele>345</ele>
        <time>2026-03-10T13:00:57Z</time>
      </trkpt>
      <trkpt lat="48.97281" lon="7.62425">
        <ele>346.3</ele>
        <time>2026-03-10T13:01:02Z</time>
      </trkpt>
      <trkpt lat="48.97276" lon="7.62432">
        <ele>347.2</ele>
        <time>2026-03-10T13:01:07Z</time>
      </trkpt>
      <trkpt lat="48.97271" lon="7.62438">
        <ele>347.8</ele>
        <time>2026-03-10T13:01:12Z</time>
      </trkpt>
      <trkpt lat="48.97264" lon="7.62443">
        <ele>347.6</ele>
        <time>2026-03-10T13:01:17Z</time>
      </trkpt>
      <trkpt lat="48.97259" lon="7.62448">
        <ele>347.9</ele>
        <time>2026-03-10T13:01:22Z</time>
      </trkpt>
      <trkpt lat="48.97252" lon="7.62453">
        <ele>347.7</ele>
        <time>2026-03-10T13:01:27Z</time>
      </trkpt>
      <trkpt lat="48.97246" lon="7.62457">
        <ele>347.2</ele>
        <time>2026-03-10T13:01:32Z</time>
      </trkpt>
      <trkpt lat="48.97241" lon="7.6246">
        <ele>346.6</ele>
        <time>2026-03-10T13:01:37Z</time>
      </trkpt>
      <trkpt lat="48.97235" lon="7.62463">
        <ele>345.6</ele>
        <time>2026-03-10T13:01:42Z</time>
      </trkpt>
      <trkpt lat="48.97228" lon="7.62467">
        <ele>344.6</ele>
        <time>2026-03-10T13:01:47Z</time>
      </trkpt>
      <trkpt lat="48.97221" lon="7.62472">
        <ele>344</ele>
        <time>2026-03-10T13:01:52Z</time>
      </trkpt>
      <trkpt lat="48.97214" lon="7.62475">
        <ele>342.6</ele>
        <time>2026-03-10T13:01:57Z</time>
      </trkpt>
      <trkpt lat="48.97207" lon="7.62478">
        <ele>341.3</ele>
        <time>2026-03-10T13:02:02Z</time>
      </trkpt>
      <trkpt lat="48.97201" lon="7.6248">
        <ele>340</ele>
        <time>2026-03-10T13:02:07Z</time>
      </trkpt>
      <trkpt lat="48.97196" lon="7.62481">
        <ele>338.6</ele>
        <time>2026-03-10T13:02:12Z</time>
      </trkpt>
      <trkpt lat="48.9719" lon="7.62484">
        <ele>337.6</ele>
        <time>2026-03-10T13:02:17Z</time>
      </trkpt>
      <trkpt lat="48.97183" lon="7.62486">
        <ele>335.9</ele>
        <time>2026-03-10T13:02:22Z</time>
      </trkpt>
      <trkpt lat="48.97175" lon="7.62489">
        <ele>334.2</ele>
        <time>2026-03-10T13:02:27Z</time>
      </trkpt>
      <trkpt lat="48.97168" lon="7.62492">
        <ele>332.9</ele>
        <time>2026-03-10T13:02:32Z</time>
      </trkpt>
      <trkpt lat="48.97162" lon="7.62495">
        <ele>331.7</ele>
        <time>2026-03-10T13:02:37Z</time>
      </trkpt>
      <trkpt lat="48.97155" lon="7.62496">
        <ele>329.6</ele>
        <time>2026-03-10T13:02:42Z</time>
      </trkpt>
      <trkpt lat="48.97148" lon="7.625">
        <ele>328.3</ele>
        <time>2026-03-10T13:02:47Z</time>
      </trkpt>
      <trkpt lat="48.97142" lon="7.62501">
        <ele>326.5</ele>
        <time>2026-03-10T13:02:52Z</time>
      </trkpt>
      <trkpt lat="48.97135" lon="7.62503">
        <ele>324.8</ele>
        <time>2026-03-10T13:02:57Z</time>
      </trkpt>
      <trkpt lat="48.97128" lon="7.62505">
        <ele>323.1</ele>
        <time>2026-03-10T13:03:02Z</time>
      </trkpt>
      <trkpt lat="48.97122" lon="7.62507">
        <ele>321.8</ele>
        <time>2026-03-10T13:03:07Z</time>
      </trkpt>
      <trkpt lat="48.97116" lon="7.62508">
        <ele>320.1</ele>
        <time>2026-03-10T13:03:12Z</time>
      </trkpt>
      <trkpt lat="48.97109" lon="7.62512">
        <ele>319.2</ele>
        <time>2026-03-10T13:03:17Z</time>
      </trkpt>
      <trkpt lat="48.97102" lon="7.62516">
        <ele>318.5</ele>
        <time>2026-03-10T13:03:22Z</time>
      </trkpt>
      <trkpt lat="48.97097" lon="7.6252">
        <ele>318.4</ele>
        <time>2026-03-10T13:03:27Z</time>
      </trkpt>
      <trkpt lat="48.9709" lon="7.62523">
        <ele>317.2</ele>
        <time>2026-03-10T13:03:32Z</time>
      </trkpt>
      <trkpt lat="48.97082" lon="7.62528">
        <ele>317</ele>
        <time>2026-03-10T13:03:37Z</time>
      </trkpt>
      <trkpt lat="48.97075" lon="7.62532">
        <ele>318.2</ele>
        <time>2026-03-10T13:03:42Z</time>
      </trkpt>
      <trkpt lat="48.97067" lon="7.62534">
        <ele>318.5</ele>
        <time>2026-03-10T13:03:47Z</time>
      </trkpt>
      <trkpt lat="48.97061" lon="7.62537">
        <ele>319.4</ele>
        <time>2026-03-10T13:03:52Z</time>
      </trkpt>
      <trkpt lat="48.97055" lon="7.62541">
        <ele>320.7</ele>
        <time>2026-03-10T13:03:57Z</time>
      </trkpt>
      <trkpt lat="48.97048" lon="7.62544">
        <ele>321.4</ele>
        <time>2026-03-10T13:04:02Z</time>
      </trkpt>
      <trkpt lat="48.97043" lon="7.62547">
        <ele>322.3</ele>
        <time>2026-03-10T13:04:07Z</time>
      </trkpt>
      <trkpt lat="48.97037" lon="7.62552">
        <ele>324</ele>
        <time>2026-03-10T13:04:12Z</time>
      </trkpt>
      <trkpt lat="48.97028" lon="7.62556">
        <ele>325</ele>
        <time>2026-03-10T13:04:17Z</time>
      </trkpt>
      <trkpt lat="48.97021" lon="7.6256">
        <ele>326.1</ele>
        <time>2026-03-10T13:04:22Z</time>
      </trkpt>
      <trkpt lat="48.97013" lon="7.62563">
        <ele>326.7</ele>
        <time>2026-03-10T13:04:27Z</time>
      </trkpt>
      <trkpt lat="48.97008" lon="7.62567">
        <ele>328</ele>
        <time>2026-03-10T13:04:32Z</time>
      </trkpt>
      <trkpt lat="48.97001" lon="7.6257">
        <ele>328.6</ele>
        <time>2026-03-10T13:04:37Z</time>
      </trkpt>
      <trkpt lat="48.96995" lon="7.62573">
        <ele>330.1</ele>
        <time>2026-03-10T13:04:42Z</time>
      </trkpt>
      <trkpt lat="48.96989" lon="7.62572">
        <ele>330.1</ele>
        <time>2026-03-10T13:04:47Z</time>
      </trkpt>
      <trkpt lat="48.96984" lon="7.62572">
        <ele>330.5</ele>
        <time>2026-03-10T13:04:52Z</time>
      </trkpt>
      <trkpt lat="48.96977" lon="7.62572">
        <ele>331</ele>
        <time>2026-03-10T13:04:57Z</time>
      </trkpt>
      <trkpt lat="48.9697" lon="7.62573">
        <ele>331.9</ele>
        <time>2026-03-10T13:05:02Z</time>
      </trkpt>
      <trkpt lat="48.96963" lon="7.62576">
        <ele>333.6</ele>
        <time>2026-03-10T13:05:07Z</time>
      </trkpt>
      <trkpt lat="48.96955" lon="7.62576">
        <ele>334.2</ele>
        <time>2026-03-10T13:05:12Z</time>
      </trkpt>
      <trkpt lat="48.96947" lon="7.62576">
        <ele>334.7</ele>
        <time>2026-03-10T13:05:17Z</time>
      </trkpt>
      <trkpt lat="48.96941" lon="7.62578">
        <ele>336</ele>
        <time>2026-03-10T13:05:22Z</time>
      </trkpt>
      <trkpt lat="48.96934" lon="7.62577">
        <ele>336</ele>
        <time>2026-03-10T13:05:27Z</time>
      </trkpt>
      <trkpt lat="48.96926" lon="7.62574">
        <ele>335.3</ele>
        <time>2026-03-10T13:05:32Z</time>
      </trkpt>
      <trkpt lat="48.9692" lon="7.62572">
        <ele>334.9</ele>
        <time>2026-03-10T13:05:37Z</time>
      </trkpt>
      <trkpt lat="48.96914" lon="7.6257">
        <ele>334.3</ele>
        <time>2026-03-10T13:05:42Z</time>
      </trkpt>
      <trkpt lat="48.96908" lon="7.62566">
        <ele>332.8</ele>
        <time>2026-03-10T13:05:47Z</time>
      </trkpt>
      <trkpt lat="48.96902" lon="7.62561">
        <ele>330.9</ele>
        <time>2026-03-10T13:05:52Z</time>
      </trkpt>
      <trkpt lat="48.96895" lon="7.62559">
        <ele>330.3</ele>
        <time>2026-03-10T13:05:57Z</time>
      </trkpt>
      <trkpt lat="48.96888" lon="7.62557">
        <ele>329.7</ele>
        <time>2026-03-10T13:06:02Z</time>
      </trkpt>
      <trkpt lat="48.9688" lon="7.62554">
        <ele>328.6</ele>
        <time>2026-03-10T13:06:07Z</time>
      </trkpt>
      <trkpt lat="48.96874" lon="7.62552">
        <ele>328</ele>
        <time>2026-03-10T13:06:12Z</time>
      </trkpt>
      <trkpt lat="48.96867" lon="7.62548">
        <ele>326.5</ele>
        <time>2026-03-10T13:06:17Z</time>
      </trkpt>
      <trkpt lat="48.96862" lon="7.62545">
        <ele>325.4</ele>
        <time>2026-03-10T13:06:22Z</time>
      </trkpt>
      <trkpt lat="48.96854" lon="7.62543">
        <ele>324.8</ele>
        <time>2026-03-10T13:06:27Z</time>
      </trkpt>
      <trkpt lat="48.96847" lon="7.62542">
        <ele>324.7</ele>
        <time>2026-03-10T13:06:32Z</time>
      </trkpt>
      <trkpt lat="48.96838" lon="7.6254">
        <ele>324.1</ele>
        <time>2026-03-10T13:06:37Z</time>
      </trkpt>
      <trkpt lat="48.96832" lon="7.62539">
        <ele>323.8</ele>
        <time>2026-03-10T13:06:42Z</time>
      </trkpt>
      <trkpt lat="48.96826" lon="7.62537">
        <ele>322.7</ele>
        <time>2026-03-10T13:06:47Z</time>
      </trkpt>
      <trkpt lat="48.96819" lon="7.6254">
        <ele>323.7</ele>
        <time>2026-03-10T13:06:52Z</time>
      </trkpt>
      <trkpt lat="48.96811" lon="7.62539">
        <ele>322.9</ele>
        <time>2026-03-10T13:06:57Z</time>
      </trkpt>
      <trkpt lat="48.96803" lon="7.62536">
        <ele>321.3</ele>
        <time>2026-03-10T13:07:02Z</time>
      </trkpt>
      <trkpt lat="48.96795" lon="7.62534">
        <ele>320.1</ele>
        <time>2026-03-10T13:07:07Z</time>
      </trkpt>
      <trkpt lat="48.9679" lon="7.62534">
        <ele>319.9</ele>
        <time>2026-03-10T13:07:12Z</time>
      </trkpt>
      <trkpt lat="48.96783" lon="7.6253">
        <ele>317.9</ele>
        <time>2026-03-10T13:07:17Z</time>
      </trkpt>
      <trkpt lat="48.96774" lon="7.62526">
        <ele>315.9</ele>
        <time>2026-03-10T13:07:22Z</time>
      </trkpt>
      <trkpt lat="48.96767" lon="7.62524">
        <ele>314.8</ele>
        <time>2026-03-10T13:07:27Z</time>
      </trkpt>
      <trkpt lat="48.9676" lon="7.62525">
        <ele>314.9</ele>
        <time>2026-03-10T13:07:32Z</time>
      </trkpt>
      <trkpt lat="48.96753" lon="7.62524">
        <ele>314.2</ele>
        <time>2026-03-10T13:07:37Z</time>
      </trkpt>
      <trkpt lat="48.96746" lon="7.62524">
        <ele>314.2</ele>
        <time>2026-03-10T13:07:42Z</time>
      </trkpt>
      <trkpt lat="48.96738" lon="7.62523">
        <ele>314.1</ele>
        <time>2026-03-10T13:07:47Z</time>
      </trkpt>
      <trkpt lat="48.96731" lon="7.6252">
        <ele>313.1</ele>
        <time>2026-03-10T13:07:52Z</time>
      </trkpt>
      <trkpt lat="48.96727" lon="7.62519">
        <ele>312.8</ele>
        <time>2026-03-10T13:07:57Z</time>
      </trkpt>
      <trkpt lat="48.96719" lon="7.62518">
        <ele>312.7</ele>
        <time>2026-03-10T13:08:02Z</time>
      </trkpt>
      <trkpt lat="48.96711" lon="7.62517">
        <ele>312.5</ele>
        <time>2026-03-10T13:08:07Z</time>
      </trkpt>
      <trkpt lat="48.96703" lon="7.62516">
        <ele>312.4</ele>
        <time>2026-03-10T13:08:12Z</time>
      </trkpt>
      <trkpt lat="48.96695" lon="7.62515">
        <ele>312.3</ele>
        <time>2026-03-10T13:08:17Z</time>
      </trkpt>
      <trkpt lat="48.9669" lon="7.62513">
        <ele>311.6</ele>
        <time>2026-03-10T13:08:22Z</time>
      </trkpt>
      <trkpt lat="48.96684" lon="7.62512">
        <ele>311.4</ele>
        <time>2026-03-10T13:08:27Z</time>
      </trkpt>
      <trkpt lat="48.96677" lon="7.62509">
        <ele>310.4</ele>
        <time>2026-03-10T13:08:32Z</time>
      </trkpt>
      <trkpt lat="48.96668" lon="7.62507">
        <ele>309.9</ele>
        <time>2026-03-10T13:08:37Z</time>
      </trkpt>
      <trkpt lat="48.96661" lon="7.62502">
        <ele>307.4</ele>
        <time>2026-03-10T13:08:42Z</time>
      </trkpt>
      <trkpt lat="48.96653" lon="7.62501">
        <ele>306.3</ele>
        <time>2026-03-10T13:08:47Z</time>
      </trkpt>
      <trkpt lat="48.96646" lon="7.62497">
        <ele>304.2</ele>
        <time>2026-03-10T13:08:52Z</time>
      </trkpt>
      <trkpt lat="48.96639" lon="7.62494">
        <ele>302.7</ele>
        <time>2026-03-10T13:08:57Z</time>
      </trkpt>
      <trkpt lat="48.96632" lon="7.62492">
        <ele>301.4</ele>
        <time>2026-03-10T13:09:02Z</time>
      </trkpt>
      <trkpt lat="48.96627" lon="7.62491">
        <ele>300.7</ele>
        <time>2026-03-10T13:09:07Z</time>
      </trkpt>
      <trkpt lat="48.9662" lon="7.62491">
        <ele>300.1</ele>
        <time>2026-03-10T13:09:12Z</time>
      </trkpt>
      <trkpt lat="48.96611" lon="7.62486">
        <ele>297.8</ele>
        <time>2026-03-10T13:09:17Z</time>
      </trkpt>
      <trkpt lat="48.96605" lon="7.62484">
        <ele>296.7</ele>
        <time>2026-03-10T13:09:22Z</time>
      </trkpt>
      <trkpt lat="48.966" lon="7.62484">
        <ele>296.3</ele>
        <time>2026-03-10T13:09:27Z</time>
      </trkpt>
      <trkpt lat="48.96594" lon="7.62482">
        <ele>295.2</ele>
        <time>2026-03-10T13:09:32Z</time>
      </trkpt>
      <trkpt lat="48.96586" lon="7.62478">
        <ele>293.3</ele>
        <time>2026-03-10T13:09:37Z</time>
      </trkpt>
      <trkpt lat="48.96578" lon="7.62476">
        <ele>291.2</ele>
        <time>2026-03-10T13:09:42Z</time>
      </trkpt>
      <trkpt lat="48.96572" lon="7.62474">
        <ele>289.1</ele>
        <time>2026-03-10T13:09:47Z</time>
      </trkpt>
      <trkpt lat="48.96566" lon="7.62471">
        <ele>286.7</ele>
        <time>2026-03-10T13:09:52Z</time>
      </trkpt>
      <trkpt lat="48.96558" lon="7.62468">
        <ele>284</ele>
        <time>2026-03-10T13:09:57Z</time>
      </trkpt>
      <trkpt lat="48.96551" lon="7.62468">
        <ele>282.3</ele>
        <time>2026-03-10T13:10:02Z</time>
      </trkpt>
      <trkpt lat="48.96544" lon="7.62469">
        <ele>280.9</ele>
        <time>2026-03-10T13:10:07Z</time>
      </trkpt>
      <trkpt lat="48.96538" lon="7.62468">
        <ele>279.2</ele>
        <time>2026-03-10T13:10:12Z</time>
      </trkpt>
      <trkpt lat="48.96532" lon="7.62468">
        <ele>277.7</ele>
        <time>2026-03-10T13:10:17Z</time>
      </trkpt>
      <trkpt lat="48.96524" lon="7.62468">
        <ele>275.8</ele>
        <time>2026-03-10T13:10:22Z</time>
      </trkpt>
      <trkpt lat="48.96518" lon="7.62467">
        <ele>274.2</ele>
        <time>2026-03-10T13:10:27Z</time>
      </trkpt>
      <trkpt lat="48.96513" lon="7.62467">
        <ele>273</ele>
        <time>2026-03-10T13:10:32Z</time>
      </trkpt>
      <trkpt lat="48.96506" lon="7.62467">
        <ele>271.3</ele>
        <time>2026-03-10T13:10:37Z</time>
      </trkpt>
      <trkpt lat="48.96501" lon="7.62466">
        <ele>269.9</ele>
        <time>2026-03-10T13:10:42Z</time>
      </trkpt>
      <trkpt lat="48.96495" lon="7.62469">
        <ele>268.6</ele>
        <time>2026-03-10T13:10:47Z</time>
      </trkpt>
      <trkpt lat="48.96495" lon="7.62472">
        <ele>269.3</ele>
        <time>2026-03-10T13:10:52Z</time>
      </trkpt>
      <trkpt lat="48.96495" lon="7.62472">
        <ele>269.3</ele>
        <time>2026-03-10T13:10:57Z</time>
      </trkpt>
      <trkpt lat="48.96495" lon="7.62472">
        <ele>269.3</ele>
        <time>2026-03-10T13:11:02Z</time>
      </trkpt>
      <trkpt lat="48.96495" lon="7.62472">
        <ele>269.3</ele>
        <time>2026-03-10T13:11:07Z</time>
      </trkpt>
      <trkpt lat="48.96495" lon="7.62472">
        <ele>269.3</ele>
        <time>2026-03-10T13:11:12Z</time>
      </trkpt>
      <trkpt lat="48.96495" lon="7.62472">
        <ele>269.3</ele>
        <time>2026-03-10T13:11:17Z</time>
      </trkpt>
      <trkpt lat="48.96495" lon="7.62472">
        <ele>269.3</ele>
        <time>2026-03-10T13:11:22Z</time>
      </trkpt>
      <trkpt lat="48.96495" lon="7.62472">
        <ele>269.3</ele>
        <time>2026-03-10T13:11:27Z</time>
      </trkpt>
      <trkpt lat="48.96495" lon="7.62472">
        <ele>269.3</ele>
        <time>2026-03-10T13:11:32Z</time>
      </trkpt>
      <trkpt lat="48.96495" lon="7.62472">
        <ele>269.3</ele>
        <time>2026-03-10T13:11:37Z</time>
      </trkpt>
      <trkpt lat="48.96492" lon="7.62464">
        <ele>266.5</ele>
        <time>2026-03-10T13:11:42Z</time>
      </trkpt>
      <trkpt lat="48.96487" lon="7.62465">
        <ele>265.1</ele>
        <time>2026-03-10T13:11:47Z</time>
      </trkpt>
      <trkpt lat="48.96483" lon="7.62469">
        <ele>264.6</ele>
        <time>2026-03-10T13:11:52Z</time>
      </trkpt>
      <trkpt lat="48.96478" lon="7.62472">
        <ele>263.6</ele>
        <time>2026-03-10T13:11:57Z</time>
      </trkpt>
      <trkpt lat="48.96473" lon="7.62474">
        <ele>262.3</ele>
        <time>2026-03-10T13:12:02Z</time>
      </trkpt>
      <trkpt lat="48.96467" lon="7.62476">
        <ele>260.7</ele>
        <time>2026-03-10T13:12:07Z</time>
      </trkpt>
      <trkpt lat="48.96462" lon="7.62481">
        <ele>260.1</ele>
        <time>2026-03-10T13:12:12Z</time>
      </trkpt>
      <trkpt lat="48.96456" lon="7.62485">
        <ele>259</ele>
        <time>2026-03-10T13:12:17Z</time>
      </trkpt>
      <trkpt lat="48.9645" lon="7.62486">
        <ele>257.2</ele>
        <time>2026-03-10T13:12:22Z</time>
      </trkpt>
      <trkpt lat="48.96445" lon="7.6249">
        <ele>256.4</ele>
        <time>2026-03-10T13:12:27Z</time>
      </trkpt>
      <trkpt lat="48.96444" lon="7.6249">
        <ele>256</ele>
        <time>2026-03-10T13:12:32Z</time>
      </trkpt>
      <trkpt lat="48.96444" lon="7.62491">
        <ele>256.2</ele>
        <time>2026-03-10T13:12:37Z</time>
      </trkpt>
      <trkpt lat="48.96441" lon="7.62495">
        <ele>256.1</ele>
        <time>2026-03-10T13:12:42Z</time>
      </trkpt>
      <trkpt lat="48.96437" lon="7.62498">
        <ele>255.4</ele>
        <time>2026-03-10T13:12:47Z</time>
      </trkpt>
      <trkpt lat="48.96431" lon="7.62503">
        <ele>254.4</ele>
        <time>2026-03-10T13:12:52Z</time>
      </trkpt>
      <trkpt lat="48.96426" lon="7.62505">
        <ele>253.1</ele>
        <time>2026-03-10T13:12:57Z</time>
      </trkpt>
      <trkpt lat="48.96425" lon="7.62507">
        <ele>253.2</ele>
        <time>2026-03-10T13:13:02Z</time>
      </trkpt>
      <trkpt lat="48.96424" lon="7.6251">
        <ele>253.4</ele>
        <time>2026-03-10T13:13:07Z</time>
      </trkpt>
      <trkpt lat="48.96421" lon="7.62515">
        <ele>253.4</ele>
        <time>2026-03-10T13:13:12Z</time>
      </trkpt>
      <trkpt lat="48.96418" lon="7.62521">
        <ele>253.5</ele>
        <time>2026-03-10T13:13:17Z</time>
      </trkpt>
      <trkpt lat="48.96415" lon="7.62527">
        <ele>253.6</ele>
        <time>2026-03-10T13:13:22Z</time>
      </trkpt>
      <trkpt lat="48.96406" lon="7.62538">
        <ele>252.5</ele>
        <time>2026-03-10T13:13:27Z</time>
      </trkpt>
      <trkpt lat="48.96398" lon="7.62547">
        <ele>251.2</ele>
        <time>2026-03-10T13:13:32Z</time>
      </trkpt>
      <trkpt lat="48.96391" lon="7.62555">
        <ele>249.8</ele>
        <time>2026-03-10T13:13:37Z</time>
      </trkpt>
      <trkpt lat="48.96385" lon="7.62563">
        <ele>248.7</ele>
        <time>2026-03-10T13:13:42Z</time>
      </trkpt>
      <trkpt lat="48.96379" lon="7.6257">
        <ele>247.3</ele>
        <time>2026-03-10T13:13:47Z</time>
      </trkpt>
      <trkpt lat="48.96375" lon="7.62575">
        <ele>246.4</ele>
        <time>2026-03-10T13:13:52Z</time>
      </trkpt>
      <trkpt lat="48.96373" lon="7.62586">
        <ele>246.9</ele>
        <time>2026-03-10T13:13:57Z</time>
      </trkpt>
      <trkpt lat="48.9637" lon="7.62595">
        <ele>246.4</ele>
        <time>2026-03-10T13:14:02Z</time>
      </trkpt>
      <trkpt lat="48.96367" lon="7.62603">
        <ele>245.8</ele>
        <time>2026-03-10T13:14:07Z</time>
      </trkpt>
      <trkpt lat="48.96363" lon="7.62611">
        <ele>244.8</ele>
        <time>2026-03-10T13:14:12Z</time>
      </trkpt>
      <trkpt lat="48.96359" lon="7.6262">
        <ele>243.9</ele>
        <time>2026-03-10T13:14:17Z</time>
      </trkpt>
      <trkpt lat="48.96357" lon="7.62629">
        <ele>243.8</ele>
        <time>2026-03-10T13:14:22Z</time>
      </trkpt>
      <trkpt lat="48.96354" lon="7.62639">
        <ele>243.4</ele>
        <time>2026-03-10T13:14:27Z</time>
      </trkpt>
      <trkpt lat="48.96351" lon="7.62649">
        <ele>242.9</ele>
        <time>2026-03-10T13:14:32Z</time>
      </trkpt>
      <trkpt lat="48.9635" lon="7.62658">
        <ele>243.3</ele>
        <time>2026-03-10T13:14:37Z</time>
      </trkpt>
      <trkpt lat="48.9635" lon="7.62666">
        <ele>243.9</ele>
        <time>2026-03-10T13:14:42Z</time>
      </trkpt>
      <trkpt lat="48.96351" lon="7.62671">
        <ele>244.5</ele>
        <time>2026-03-10T13:14:47Z</time>
      </trkpt>
      <trkpt lat="48.96351" lon="7.62673">
        <ele>244.6</ele>
        <time>2026-03-10T13:14:52Z</time>
      </trkpt>
      <trkpt lat="48.96351" lon="7.62676">
        <ele>244.6</ele>
        <time>2026-03-10T13:14:57Z</time>
      </trkpt>
      <trkpt lat="48.9635" lon="7.62683">
        <ele>244.4</ele>
        <time>2026-03-10T13:15:02Z</time>
      </trkpt>
      <trkpt lat="48.96348" lon="7.62692">
        <ele>243.8</ele>
        <time>2026-03-10T13:15:07Z</time>
      </trkpt>
      <trkpt lat="48.96342" lon="7.62706">
        <ele>241.6</ele>
        <time>2026-03-10T13:15:12Z</time>
      </trkpt>
      <trkpt lat="48.96336" lon="7.62717">
        <ele>239.3</ele>
        <time>2026-03-10T13:15:17Z</time>
      </trkpt>
      <trkpt lat="48.96334" lon="7.62721">
        <ele>238.6</ele>
        <time>2026-03-10T13:15:22Z</time>
      </trkpt>
      <trkpt lat="48.96332" lon="7.62729">
        <ele>238</ele>
        <time>2026-03-10T13:15:27Z</time>
      </trkpt>
      <trkpt lat="48.9633" lon="7.62737">
        <ele>237.4</ele>
        <time>2026-03-10T13:15:32Z</time>
      </trkpt>
      <trkpt lat="48.96329" lon="7.62747">
        <ele>237.3</ele>
        <time>2026-03-10T13:15:37Z</time>
      </trkpt>
      <trkpt lat="48.9633" lon="7.62754">
        <ele>237.2</ele>
        <time>2026-03-10T13:15:42Z</time>
      </trkpt>
      <trkpt lat="48.9633" lon="7.62762">
        <ele>236.2</ele>
        <time>2026-03-10T13:15:47Z</time>
      </trkpt>
      <trkpt lat="48.96332" lon="7.6277">
        <ele>235.9</ele>
        <time>2026-03-10T13:15:52Z</time>
      </trkpt>
      <trkpt lat="48.96333" lon="7.62777">
        <ele>235.3</ele>
        <time>2026-03-10T13:15:57Z</time>
      </trkpt>
      <trkpt lat="48.96333" lon="7.62785">
        <ele>234.3</ele>
        <time>2026-03-10T13:16:02Z</time>
      </trkpt>
      <trkpt lat="48.96332" lon="7.62792">
        <ele>233.1</ele>
        <time>2026-03-10T13:16:07Z</time>
      </trkpt>
      <trkpt lat="48.96333" lon="7.62798">
        <ele>232.6</ele>
        <time>2026-03-10T13:16:12Z</time>
      </trkpt>
      <trkpt lat="48.96334" lon="7.62808">
        <ele>231.6</ele>
        <time>2026-03-10T13:16:17Z</time>
      </trkpt>
      <trkpt lat="48.96335" lon="7.62817">
        <ele>230.7</ele>
        <time>2026-03-10T13:16:22Z</time>
      </trkpt>
      <trkpt lat="48.96333" lon="7.6282">
        <ele>229.7</ele>
        <time>2026-03-10T13:16:27Z</time>
      </trkpt>
      <trkpt lat="48.96329" lon="7.62814">
        <ele>229.6</ele>
        <time>2026-03-10T13:16:32Z</time>
      </trkpt>
      <trkpt lat="48.96324" lon="7.62806">
        <ele>229.3</ele>
        <time>2026-03-10T13:16:37Z</time>
      </trkpt>
      <trkpt lat="48.9632" lon="7.62799">
        <ele>229</ele>
        <time>2026-03-10T13:16:42Z</time>
      </trkpt>
      <trkpt lat="48.96316" lon="7.62795">
        <ele>228.3</ele>
        <time>2026-03-10T13:16:47Z</time>
      </trkpt>
      <trkpt lat="48.9631" lon="7.62793">
        <ele>226.8</ele>
        <time>2026-03-10T13:16:52Z</time>
      </trkpt>
      <trkpt lat="48.96305" lon="7.62791">
        <ele>225.6</ele>
        <time>2026-03-10T13:16:57Z</time>
      </trkpt>
      <trkpt lat="48.96299" lon="7.62787">
        <ele>224</ele>
        <time>2026-03-10T13:17:02Z</time>
      </trkpt>
      <trkpt lat="48.96294" lon="7.62786">
        <ele>222.6</ele>
        <time>2026-03-10T13:17:07Z</time>
      </trkpt>
      <trkpt lat="48.96288" lon="7.62784">
        <ele>220.9</ele>
        <time>2026-03-10T13:17:12Z</time>
      </trkpt>
      <trkpt lat="48.96284" lon="7.6278">
        <ele>219.7</ele>
        <time>2026-03-10T13:17:17Z</time>
      </trkpt>
      <trkpt lat="48.9628" lon="7.62776">
        <ele>218.5</ele>
        <time>2026-03-10T13:17:22Z</time>
      </trkpt>
      <trkpt lat="48.96276" lon="7.62773">
        <ele>217.2</ele>
        <time>2026-03-10T13:17:27Z</time>
      </trkpt>
      <trkpt lat="48.96272" lon="7.62769">
        <ele>215.8</ele>
        <time>2026-03-10T13:17:32Z</time>
      </trkpt>
      <trkpt lat="48.96266" lon="7.62764">
        <ele>213.6</ele>
        <time>2026-03-10T13:17:37Z</time>
      </trkpt>
      <trkpt lat="48.9626" lon="7.6276">
        <ele>211.3</ele>
        <time>2026-03-10T13:17:42Z</time>
      </trkpt>
      <trkpt lat="48.96254" lon="7.62757">
        <ele>209</ele>
        <time>2026-03-10T13:17:47Z</time>
      </trkpt>
      <trkpt lat="48.9625" lon="7.62755">
        <ele>207.4</ele>
        <time>2026-03-10T13:17:52Z</time>
      </trkpt>
      <trkpt lat="48.96245" lon="7.62753">
        <ele>207.5</ele>
        <time>2026-03-10T13:17:57Z</time>
      </trkpt>
      <trkpt lat="48.96242" lon="7.6275">
        <ele>207.4</ele>
        <time>2026-03-10T13:18:02Z</time>
      </trkpt>
      <trkpt lat="48.96238" lon="7.62747">
        <ele>207.7</ele>
        <time>2026-03-10T13:18:07Z</time>
      </trkpt>
      <trkpt lat="48.96233" lon="7.62749">
        <ele>207.8</ele>
        <time>2026-03-10T13:18:12Z</time>
      </trkpt>
      <trkpt lat="48.96228" lon="7.62751">
        <ele>208.2</ele>
        <time>2026-03-10T13:18:17Z</time>
      </trkpt>
      <trkpt lat="48.96224" lon="7.6275">
        <ele>208.2</ele>
        <time>2026-03-10T13:18:22Z</time>
      </trkpt>
      <trkpt lat="48.96219" lon="7.62751">
        <ele>208.6</ele>
        <time>2026-03-10T13:18:27Z</time>
      </trkpt>
      <trkpt lat="48.96214" lon="7.62748">
        <ele>208.7</ele>
        <time>2026-03-10T13:18:32Z</time>
      </trkpt>
      <trkpt lat="48.96213" lon="7.62737">
        <ele>208.5</ele>
        <time>2026-03-10T13:18:37Z</time>
      </trkpt>
      <trkpt lat="48.96213" lon="7.62728">
        <ele>208.3</ele>
        <time>2026-03-10T13:18:42Z</time>
      </trkpt>
      <trkpt lat="48.96208" lon="7.62721">
        <ele>208.1</ele>
        <time>2026-03-10T13:18:47Z</time>
      </trkpt>
      <trkpt lat="48.96203" lon="7.62718">
        <ele>208</ele>
        <time>2026-03-10T13:18:52Z</time>
      </trkpt>
      <trkpt lat="48.96198" lon="7.62718">
        <ele>207.9</ele>
        <time>2026-03-10T13:18:57Z</time>
      </trkpt>
      <trkpt lat="48.96192" lon="7.62721">
        <ele>208</ele>
        <time>2026-03-10T13:19:02Z</time>
      </trkpt>
      <trkpt lat="48.96189" lon="7.62721">
        <ele>208</ele>
        <time>2026-03-10T13:19:07Z</time>
      </trkpt>
      <trkpt lat="48.96186" lon="7.62718">
        <ele>207.8</ele>
        <time>2026-03-10T13:19:12Z</time>
      </trkpt>
      <trkpt lat="48.96184" lon="7.62712">
        <ele>207.3</ele>
        <time>2026-03-10T13:19:17Z</time>
      </trkpt>
      <trkpt lat="48.96183" lon="7.62704">
        <ele>206.7</ele>
        <time>2026-03-10T13:19:22Z</time>
      </trkpt>
      <trkpt lat="48.96182" lon="7.62696">
        <ele>206</ele>
        <time>2026-03-10T13:19:27Z</time>
      </trkpt>
      <trkpt lat="48.9618" lon="7.62687">
        <ele>205.1</ele>
        <time>2026-03-10T13:19:32Z</time>
      </trkpt>
      <trkpt lat="48.96178" lon="7.62677">
        <ele>204.1</ele>
        <time>2026-03-10T13:19:37Z</time>
      </trkpt>
      <trkpt lat="48.96177" lon="7.6267">
        <ele>203.4</ele>
        <time>2026-03-10T13:19:42Z</time>
      </trkpt>
      <trkpt lat="48.96175" lon="7.62664">
        <ele>202.8</ele>
        <time>2026-03-10T13:19:47Z</time>
      </trkpt>
      <trkpt lat="48.96173" lon="7.62657">
        <ele>202.4</ele>
        <time>2026-03-10T13:19:52Z</time>
      </trkpt>
      <trkpt lat="48.96171" lon="7.62648">
        <ele>201.8</ele>
        <time>2026-03-10T13:19:57Z</time>
      </trkpt>
      <trkpt lat="48.9617" lon="7.6264">
        <ele>201.5</ele>
        <time>2026-03-10T13:20:02Z</time>
      </trkpt>
      <trkpt lat="48.96168" lon="7.62632">
        <ele>200.9</ele>
        <time>2026-03-10T13:20:07Z</time>
      </trkpt>
      <trkpt lat="48.96164" lon="7.62629">
        <ele>200.5</ele>
        <time>2026-03-10T13:20:12Z</time>
      </trkpt>
      <trkpt lat="48.96157" lon="7.62634">
        <ele>200.5</ele>
        <time>2026-03-10T13:20:17Z</time>
      </trkpt>
      <trkpt lat="48.96149" lon="7.62637">
        <ele>200.2</ele>
        <time>2026-03-10T13:20:22Z</time>
      </trkpt>
      <trkpt lat="48.96145" lon="7.62636">
        <ele>200</ele>
        <time>2026-03-10T13:20:27Z</time>
      </trkpt>
      <trkpt lat="48.96143" lon="7.62635">
        <ele>199.9</ele>
        <time>2026-03-10T13:20:32Z</time>
      </trkpt>
      <trkpt lat="48.9614" lon="7.6263">
        <ele>199.7</ele>
        <time>2026-03-10T13:20:37Z</time>
      </trkpt>
      <trkpt lat="48.96136" lon="7.62629">
        <ele>199.5</ele>
        <time>2026-03-10T13:20:42Z</time>
      </trkpt>
      <trkpt lat="48.96132" lon="7.62627">
        <ele>199.3</ele>
        <time>2026-03-10T13:20:47Z</time>
      </trkpt>
      <trkpt lat="48.9613" lon="7.62626">
        <ele>199.2</ele>
        <time>2026-03-10T13:20:52Z</time>
      </trkpt>
      <trkpt lat="48.9613" lon="7.62625">
        <ele>199.2</ele>
        <time>2026-03-10T13:20:57Z</time>
      </trkpt>
      <trkpt lat="48.96128" lon="7.62622">
        <ele>199</ele>
        <time>2026-03-10T13:21:02Z</time>
      </trkpt>
      <trkpt lat="48.96123" lon="7.62622">
        <ele>198.9</ele>
        <time>2026-03-10T13:21:07Z</time>
      </trkpt>
      <trkpt lat="48.96118" lon="7.6262">
        <ele>198.6</ele>
        <time>2026-03-10T13:21:12Z</time>
      </trkpt>
      <trkpt lat="48.96115" lon="7.62614">
        <ele>198.4</ele>
        <time>2026-03-10T13:21:17Z</time>
      </trkpt>
      <trkpt lat="48.96113" lon="7.6261">
        <ele>198.3</ele>
        <time>2026-03-10T13:21:22Z</time>
      </trkpt>
      <trkpt lat="48.96115" lon="7.62606">
        <ele>198.2</ele>
        <time>2026-03-10T13:21:27Z</time>
      </trkpt>
      <trkpt lat="48.96114" lon="7.62603">
        <ele>198.1</ele>
        <time>2026-03-10T13:21:32Z</time>
      </trkpt>
      <trkpt lat="48.96114" lon="7.62603">
        <ele>198.1</ele>
        <time>2026-03-10T13:21:37Z</time>
      </trkpt>
      <trkpt lat="48.96114" lon="7.62603">
        <ele>198.1</ele>
        <time>2026-03-10T13:21:42Z</time>
      </trkpt>
      <trkpt lat="48.96113" lon="7.62592">
        <ele>197.9</ele>
        <time>2026-03-10T13:21:47Z</time>
      </trkpt>
      <trkpt lat="48.96117" lon="7.62584">
        <ele>197.8</ele>
        <time>2026-03-10T13:21:52Z</time>
      </trkpt>
      <trkpt lat="48.96118" lon="7.6258">
        <ele>197.9</ele>
        <time>2026-03-10T13:21:57Z</time>
      </trkpt>
      <trkpt lat="48.96123" lon="7.62575">
        <ele>198.1</ele>
        <time>2026-03-10T13:22:02Z</time>
      </trkpt>
      <trkpt lat="48.96131" lon="7.62573">
        <ele>198.2</ele>
        <time>2026-03-10T13:22:07Z</time>
      </trkpt>
      <trkpt lat="48.96138" lon="7.62574">
        <ele>198.3</ele>
        <time>2026-03-10T13:22:12Z</time>
      </trkpt>
      <trkpt lat="48.96135" lon="7.62574">
        <ele>198.2</ele>
        <time>2026-03-10T13:22:17Z</time>
      </trkpt>
      <trkpt lat="48.96121" lon="7.62579">
        <ele>198</ele>
        <time>2026-03-10T13:22:22Z</time>
      </trkpt>
      <trkpt lat="48.96115" lon="7.62587">
        <ele>197.8</ele>
        <time>2026-03-10T13:22:27Z</time>
      </trkpt>
      <trkpt lat="48.9611" lon="7.62593">
        <ele>197.8</ele>
        <time>2026-03-10T13:22:32Z</time>
      </trkpt>
      <trkpt lat="48.96103" lon="7.62601">
        <ele>197.8</ele>
        <time>2026-03-10T13:22:37Z</time>
      </trkpt>
      <trkpt lat="48.96098" lon="7.62608">
        <ele>197.8</ele>
        <time>2026-03-10T13:22:42Z</time>
      </trkpt>
      <trkpt lat="48.96095" lon="7.62612">
        <ele>197.7</ele>
        <time>2026-03-10T13:22:47Z</time>
      </trkpt>
      <trkpt lat="48.9609" lon="7.62618">
        <ele>197.6</ele>
        <time>2026-03-10T13:22:52Z</time>
      </trkpt>
      <trkpt lat="48.96084" lon="7.62626">
        <ele>197.5</ele>
        <time>2026-03-10T13:22:57Z</time>
      </trkpt>
      <trkpt lat="48.96079" lon="7.62632">
        <ele>197.7</ele>
        <time>2026-03-10T13:23:02Z</time>
      </trkpt>
      <trkpt lat="48.96076" lon="7.62636">
        <ele>197.8</ele>
        <time>2026-03-10T13:23:07Z</time>
      </trkpt>
      <trkpt lat="48.96073" lon="7.62642">
        <ele>197.9</ele>
        <time>2026-03-10T13:23:12Z</time>
      </trkpt>
      <trkpt lat="48.9607" lon="7.62651">
        <ele>197.9</ele>
        <time>2026-03-10T13:23:17Z</time>
      </trkpt>
      <trkpt lat="48.96065" lon="7.6266">
        <ele>197.8</ele>
        <time>2026-03-10T13:23:22Z</time>
      </trkpt>
      <trkpt lat="48.96062" lon="7.62665">
        <ele>197.8</ele>
        <time>2026-03-10T13:23:27Z</time>
      </trkpt>
      <trkpt lat="48.96059" lon="7.62669">
        <ele>197.9</ele>
        <time>2026-03-10T13:23:32Z</time>
      </trkpt>
      <trkpt lat="48.96059" lon="7.62669">
        <ele>197.9</ele>
        <time>2026-03-10T13:23:37Z</time>
      </trkpt>
      <trkpt lat="48.96059" lon="7.62669">
        <ele>197.9</ele>
        <time>2026-03-10T13:23:42Z</time>
      </trkpt>
      <trkpt lat="48.96059" lon="7.62669">
        <ele>197.9</ele>
        <time>2026-03-10T13:23:47Z</time>
      </trkpt>
      <trkpt lat="48.96059" lon="7.62669">
        <ele>197.9</ele>
        <time>2026-03-10T13:23:52Z</time>
      </trkpt>
      <trkpt lat="48.96059" lon="7.62669">
        <ele>197.9</ele>
        <time>2026-03-10T13:23:57Z</time>
      </trkpt>
      <trkpt lat="48.96059" lon="7.62669">
        <ele>197.9</ele>
        <time>2026-03-10T13:24:02Z</time>
      </trkpt>
      <trkpt lat="48.96057" lon="7.62675">
        <ele>198.3</ele>
        <time>2026-03-10T13:24:07Z</time>
      </trkpt>
      <trkpt lat="48.96054" lon="7.62681">
        <ele>198.6</ele>
        <time>2026-03-10T13:24:12Z</time>
      </trkpt>
      <trkpt lat="48.9605" lon="7.62693">
        <ele>199.2</ele>
        <time>2026-03-10T13:24:17Z</time>
      </trkpt>
      <trkpt lat="48.96046" lon="7.62704">
        <ele>199.7</ele>
        <time>2026-03-10T13:24:22Z</time>
      </trkpt>
      <trkpt lat="48.96044" lon="7.62711">
        <ele>200</ele>
        <time>2026-03-10T13:24:27Z</time>
      </trkpt>
      <trkpt lat="48.9604" lon="7.62714">
        <ele>200</ele>
        <time>2026-03-10T13:24:32Z</time>
      </trkpt>
      <trkpt lat="48.96038" lon="7.6272">
        <ele>200.1</ele>
        <time>2026-03-10T13:24:37Z</time>
      </trkpt>
      <trkpt lat="48.96037" lon="7.62726">
        <ele>200.4</ele>
        <time>2026-03-10T13:24:42Z</time>
      </trkpt>
      <trkpt lat="48.96035" lon="7.6273">
        <ele>200.4</ele>
        <time>2026-03-10T13:24:47Z</time>
      </trkpt>
      <trkpt lat="48.96032" lon="7.62733">
        <ele>200.3</ele>
        <time>2026-03-10T13:24:52Z</time>
      </trkpt>
      <trkpt lat="48.96027" lon="7.62741">
        <ele>200.2</ele>
        <time>2026-03-10T13:24:57Z</time>
      </trkpt>
      <trkpt lat="48.96022" lon="7.62748">
        <ele>200</ele>
        <time>2026-03-10T13:25:02Z</time>
      </trkpt>
      <trkpt lat="48.96018" lon="7.62753">
        <ele>200.2</ele>
        <time>2026-03-10T13:25:07Z</time>
      </trkpt>
      <trkpt lat="48.96013" lon="7.62761">
        <ele>200.8</ele>
        <time>2026-03-10T13:25:12Z</time>
      </trkpt>
      <trkpt lat="48.96008" lon="7.62767">
        <ele>201.1</ele>
        <time>2026-03-10T13:25:17Z</time>
      </trkpt>
      <trkpt lat="48.96004" lon="7.62774">
        <ele>201.6</ele>
        <time>2026-03-10T13:25:22Z</time>
      </trkpt>
      <trkpt lat="48.96" lon="7.62779">
        <ele>201.8</ele>
        <time>2026-03-10T13:25:27Z</time>
      </trkpt>
      <trkpt lat="48.95997" lon="7.62784">
        <ele>202.2</ele>
        <time>2026-03-10T13:25:32Z</time>
      </trkpt>
      <trkpt lat="48.95994" lon="7.62787">
        <ele>202.3</ele>
        <time>2026-03-10T13:25:37Z</time>
      </trkpt>
      <trkpt lat="48.9599" lon="7.62792">
        <ele>202.5</ele>
        <time>2026-03-10T13:25:42Z</time>
      </trkpt>
      <trkpt lat="48.95986" lon="7.62799">
        <ele>202.9</ele>
        <time>2026-03-10T13:25:47Z</time>
      </trkpt>
      <trkpt lat="48.9598" lon="7.62802">
        <ele>202.5</ele>
        <time>2026-03-10T13:25:52Z</time>
      </trkpt>
      <trkpt lat="48.95978" lon="7.62805">
        <ele>202.6</ele>
        <time>2026-03-10T13:25:57Z</time>
      </trkpt>
      <trkpt lat="48.95975" lon="7.62808">
        <ele>202.5</ele>
        <time>2026-03-10T13:26:02Z</time>
      </trkpt>
      <trkpt lat="48.95971" lon="7.62814">
        <ele>202.5</ele>
        <time>2026-03-10T13:26:07Z</time>
      </trkpt>
      <trkpt lat="48.95967" lon="7.6282">
        <ele>202.4</ele>
        <time>2026-03-10T13:26:12Z</time>
      </trkpt>
      <trkpt lat="48.95964" lon="7.62824">
        <ele>202.3</ele>
        <time>2026-03-10T13:26:17Z</time>
      </trkpt>
      <trkpt lat="48.95961" lon="7.62829">
        <ele>202.1</ele>
        <time>2026-03-10T13:26:22Z</time>
      </trkpt>
      <trkpt lat="48.95958" lon="7.62833">
        <ele>201.9</ele>
        <time>2026-03-10T13:26:27Z</time>
      </trkpt>
      <trkpt lat="48.95956" lon="7.62839">
        <ele>202.6</ele>
        <time>2026-03-10T13:26:32Z</time>
      </trkpt>
      <trkpt lat="48.95952" lon="7.62845">
        <ele>203</ele>
        <time>2026-03-10T13:26:37Z</time>
      </trkpt>
      <trkpt lat="48.95948" lon="7.62851">
        <ele>203.2</ele>
        <time>2026-03-10T13:26:42Z</time>
      </trkpt>
      <trkpt lat="48.95944" lon="7.62858">
        <ele>203.5</ele>
        <time>2026-03-10T13:26:47Z</time>
      </trkpt>
      <trkpt lat="48.95942" lon="7.62865">
        <ele>204.2</ele>
        <time>2026-03-10T13:26:52Z</time>
      </trkpt>
      <trkpt lat="48.95938" lon="7.62868">
        <ele>203.7</ele>
        <time>2026-03-10T13:26:57Z</time>
      </trkpt>
      <trkpt lat="48.95934" lon="7.62867">
        <ele>202.6</ele>
        <time>2026-03-10T13:27:02Z</time>
      </trkpt>
      <trkpt lat="48.95929" lon="7.62868">
        <ele>201.6</ele>
        <time>2026-03-10T13:27:07Z</time>
      </trkpt>
      <trkpt lat="48.95924" lon="7.62871">
        <ele>200.8</ele>
        <time>2026-03-10T13:27:12Z</time>
      </trkpt>
      <trkpt lat="48.95919" lon="7.62874">
        <ele>200</ele>
        <time>2026-03-10T13:27:17Z</time>
      </trkpt>
      <trkpt lat="48.95915" lon="7.62878">
        <ele>199.8</ele>
        <time>2026-03-10T13:27:22Z</time>
      </trkpt>
      <trkpt lat="48.95912" lon="7.62884">
        <ele>200.3</ele>
        <time>2026-03-10T13:27:27Z</time>
      </trkpt>
      <trkpt lat="48.95908" lon="7.6289">
        <ele>200.7</ele>
        <time>2026-03-10T13:27:32Z</time>
      </trkpt>
      <trkpt lat="48.95905" lon="7.62895">
        <ele>201</ele>
        <time>2026-03-10T13:27:37Z</time>
      </trkpt>
      <trkpt lat="48.95901" lon="7.629">
        <ele>201.3</ele>
        <time>2026-03-10T13:27:42Z</time>
      </trkpt>
      <trkpt lat="48.95899" lon="7.62904">
        <ele>201.5</ele>
        <time>2026-03-10T13:27:47Z</time>
      </trkpt>
      <trkpt lat="48.95898" lon="7.62911">
        <ele>202</ele>
        <time>2026-03-10T13:27:52Z</time>
      </trkpt>
      <trkpt lat="48.95894" lon="7.62916">
        <ele>202</ele>
        <time>2026-03-10T13:27:57Z</time>
      </trkpt>
      <trkpt lat="48.95889" lon="7.62924">
        <ele>202.5</ele>
        <time>2026-03-10T13:28:02Z</time>
      </trkpt>
      <trkpt lat="48.95888" lon="7.62935">
        <ele>203.5</ele>
        <time>2026-03-10T13:28:07Z</time>
      </trkpt>
      <trkpt lat="48.95887" lon="7.62943">
        <ele>204.2</ele>
        <time>2026-03-10T13:28:12Z</time>
      </trkpt>
      <trkpt lat="48.95887" lon="7.62948">
        <ele>204.8</ele>
        <time>2026-03-10T13:28:17Z</time>
      </trkpt>
      <trkpt lat="48.95888" lon="7.62953">
        <ele>205.4</ele>
        <time>2026-03-10T13:28:22Z</time>
      </trkpt>
      <trkpt lat="48.95889" lon="7.62959">
        <ele>206.3</ele>
        <time>2026-03-10T13:28:27Z</time>
      </trkpt>
      <trkpt lat="48.95888" lon="7.62965">
        <ele>206.7</ele>
        <time>2026-03-10T13:28:32Z</time>
      </trkpt>
      <trkpt lat="48.95887" lon="7.62973">
        <ele>207.4</ele>
        <time>2026-03-10T13:28:37Z</time>
      </trkpt>
      <trkpt lat="48.95886" lon="7.62979">
        <ele>207.8</ele>
        <time>2026-03-10T13:28:42Z</time>
      </trkpt>
      <trkpt lat="48.95885" lon="7.62984">
        <ele>208</ele>
        <time>2026-03-10T13:28:47Z</time>
      </trkpt>
      <trkpt lat="48.95885" lon="7.62986">
        <ele>208.2</ele>
        <time>2026-03-10T13:28:52Z</time>
      </trkpt>
      <trkpt lat="48.95885" lon="7.62986">
        <ele>208.2</ele>
        <time>2026-03-10T13:28:57Z</time>
      </trkpt>
      <trkpt lat="48.95885" lon="7.62986">
        <ele>208.2</ele>
        <time>2026-03-10T13:29:02Z</time>
      </trkpt>
      <trkpt lat="48.95883" lon="7.63">
        <ele>209.1</ele>
        <time>2026-03-10T13:29:07Z</time>
      </trkpt>
      <trkpt lat="48.95883" lon="7.63002">
        <ele>209.3</ele>
        <time>2026-03-10T13:29:12Z</time>
      </trkpt>
      <trkpt lat="48.95883" lon="7.63002">
        <ele>209.3</ele>
        <time>2026-03-10T13:29:17Z</time>
      </trkpt>
      <trkpt lat="48.95883" lon="7.63002">
        <ele>209.3</ele>
        <time>2026-03-10T13:29:22Z</time>
      </trkpt>
      <trkpt lat="48.95881" lon="7.63016">
        <ele>209.8</ele>
        <time>2026-03-10T13:29:27Z</time>
      </trkpt>
      <trkpt lat="48.95885" lon="7.63019">
        <ele>211.1</ele>
        <time>2026-03-10T13:29:32Z</time>
      </trkpt>
      <trkpt lat="48.95888" lon="7.63022">
        <ele>212.2</ele>
        <time>2026-03-10T13:29:37Z</time>
      </trkpt>
      <trkpt lat="48.95889" lon="7.63026">
        <ele>212.8</ele>
        <time>2026-03-10T13:29:42Z</time>
      </trkpt>
      <trkpt lat="48.95889" lon="7.63032">
        <ele>213.3</ele>
        <time>2026-03-10T13:29:47Z</time>
      </trkpt>
      <trkpt lat="48.95889" lon="7.63036">
        <ele>213.6</ele>
        <time>2026-03-10T13:29:52Z</time>
      </trkpt>
      <trkpt lat="48.95887" lon="7.63043">
        <ele>213.6</ele>
        <time>2026-03-10T13:29:57Z</time>
      </trkpt>
      <trkpt lat="48.95887" lon="7.63049">
        <ele>214.1</ele>
        <time>2026-03-10T13:30:02Z</time>
      </trkpt>
      <trkpt lat="48.95886" lon="7.63056">
        <ele>214.4</ele>
        <time>2026-03-10T13:30:07Z</time>
      </trkpt>
      <trkpt lat="48.95887" lon="7.63065">
        <ele>215.4</ele>
        <time>2026-03-10T13:30:12Z</time>
      </trkpt>
      <trkpt lat="48.95887" lon="7.63074">
        <ele>216.1</ele>
        <time>2026-03-10T13:30:17Z</time>
      </trkpt>
      <trkpt lat="48.95886" lon="7.63081">
        <ele>216.4</ele>
        <time>2026-03-10T13:30:22Z</time>
      </trkpt>
      <trkpt lat="48.95886" lon="7.63087">
        <ele>216.8</ele>
        <time>2026-03-10T13:30:27Z</time>
      </trkpt>
      <trkpt lat="48.95883" lon="7.63092">
        <ele>216.4</ele>
        <time>2026-03-10T13:30:32Z</time>
      </trkpt>
      <trkpt lat="48.95881" lon="7.63099">
        <ele>216.5</ele>
        <time>2026-03-10T13:30:37Z</time>
      </trkpt>
      <trkpt lat="48.95881" lon="7.63105">
        <ele>217</ele>
        <time>2026-03-10T13:30:42Z</time>
      </trkpt>
      <trkpt lat="48.9588" lon="7.63114">
        <ele>217.5</ele>
        <time>2026-03-10T13:30:47Z</time>
      </trkpt>
      <trkpt lat="48.9588" lon="7.63121">
        <ele>218.1</ele>
        <time>2026-03-10T13:30:52Z</time>
      </trkpt>
      <trkpt lat="48.9588" lon="7.63128">
        <ele>218.7</ele>
        <time>2026-03-10T13:30:57Z</time>
      </trkpt>
      <trkpt lat="48.95879" lon="7.63135">
        <ele>219</ele>
        <time>2026-03-10T13:31:02Z</time>
      </trkpt>
      <trkpt lat="48.95877" lon="7.63141">
        <ele>219.1</ele>
        <time>2026-03-10T13:31:07Z</time>
      </trkpt>
      <trkpt lat="48.95876" lon="7.63148">
        <ele>219.5</ele>
        <time>2026-03-10T13:31:12Z</time>
      </trkpt>
      <trkpt lat="48.95876" lon="7.63154">
        <ele>220.1</ele>
        <time>2026-03-10T13:31:17Z</time>
      </trkpt>
      <trkpt lat="48.95876" lon="7.6316">
        <ele>220.6</ele>
        <time>2026-03-10T13:31:22Z</time>
      </trkpt>
      <trkpt lat="48.95877" lon="7.63166">
        <ele>221.3</ele>
        <time>2026-03-10T13:31:27Z</time>
      </trkpt>
      <trkpt lat="48.95875" lon="7.63174">
        <ele>221.6</ele>
        <time>2026-03-10T13:31:32Z</time>
      </trkpt>
      <trkpt lat="48.9587" lon="7.63181">
        <ele>221.3</ele>
        <time>2026-03-10T13:31:37Z</time>
      </trkpt>
      <trkpt lat="48.95868" lon="7.63186">
        <ele>221.4</ele>
        <time>2026-03-10T13:31:42Z</time>
      </trkpt>
      <trkpt lat="48.95866" lon="7.63192">
        <ele>221.5</ele>
        <time>2026-03-10T13:31:47Z</time>
      </trkpt>
      <trkpt lat="48.95862" lon="7.63199">
        <ele>221.5</ele>
        <time>2026-03-10T13:31:52Z</time>
      </trkpt>
      <trkpt lat="48.95858" lon="7.63206">
        <ele>221.4</ele>
        <time>2026-03-10T13:31:57Z</time>
      </trkpt>
      <trkpt lat="48.95855" lon="7.63212">
        <ele>221.5</ele>
        <time>2026-03-10T13:32:02Z</time>
      </trkpt>
      <trkpt lat="48.95852" lon="7.6322">
        <ele>221.8</ele>
        <time>2026-03-10T13:32:07Z</time>
      </trkpt>
      <trkpt lat="48.95847" lon="7.63229">
        <ele>221.9</ele>
        <time>2026-03-10T13:32:12Z</time>
      </trkpt>
      <trkpt lat="48.95843" lon="7.63238">
        <ele>222.2</ele>
        <time>2026-03-10T13:32:17Z</time>
      </trkpt>
      <trkpt lat="48.95839" lon="7.63246">
        <ele>222.4</ele>
        <time>2026-03-10T13:32:22Z</time>
      </trkpt>
      <trkpt lat="48.95836" lon="7.63253">
        <ele>222.6</ele>
        <time>2026-03-10T13:32:27Z</time>
      </trkpt>
      <trkpt lat="48.95831" lon="7.63262">
        <ele>222.7</ele>
        <time>2026-03-10T13:32:32Z</time>
      </trkpt>
      <trkpt lat="48.95826" lon="7.63269">
        <ele>222.8</ele>
        <time>2026-03-10T13:32:37Z</time>
      </trkpt>
      <trkpt lat="48.95822" lon="7.63276">
        <ele>222.9</ele>
        <time>2026-03-10T13:32:42Z</time>
      </trkpt>
      <trkpt lat="48.95817" lon="7.6328">
        <ele>222.8</ele>
        <time>2026-03-10T13:32:47Z</time>
      </trkpt>
      <trkpt lat="48.95811" lon="7.63286">
        <ele>222.6</ele>
        <time>2026-03-10T13:32:52Z</time>
      </trkpt>
      <trkpt lat="48.95803" lon="7.63291">
        <ele>222.2</ele>
        <time>2026-03-10T13:32:57Z</time>
      </trkpt>
      <trkpt lat="48.95796" lon="7.63296">
        <ele>221.9</ele>
        <time>2026-03-10T13:33:02Z</time>
      </trkpt>
      <trkpt lat="48.95789" lon="7.63299">
        <ele>221.4</ele>
        <time>2026-03-10T13:33:07Z</time>
      </trkpt>
      <trkpt lat="48.95782" lon="7.63304">
        <ele>221</ele>
        <time>2026-03-10T13:33:12Z</time>
      </trkpt>
      <trkpt lat="48.95775" lon="7.63308">
        <ele>220.5</ele>
        <time>2026-03-10T13:33:17Z</time>
      </trkpt>
      <trkpt lat="48.9577" lon="7.63312">
        <ele>220.2</ele>
        <time>2026-03-10T13:33:22Z</time>
      </trkpt>
      <trkpt lat="48.95763" lon="7.63314">
        <ele>219.6</ele>
        <time>2026-03-10T13:33:27Z</time>
      </trkpt>
      <trkpt lat="48.95758" lon="7.63319">
        <ele>219.3</ele>
        <time>2026-03-10T13:33:32Z</time>
      </trkpt>
      <trkpt lat="48.95752" lon="7.63324">
        <ele>218.9</ele>
        <time>2026-03-10T13:33:37Z</time>
      </trkpt>
      <trkpt lat="48.95745" lon="7.6333">
        <ele>218.2</ele>
        <time>2026-03-10T13:33:42Z</time>
      </trkpt>
      <trkpt lat="48.9574" lon="7.63336">
        <ele>217.6</ele>
        <time>2026-03-10T13:33:47Z</time>
      </trkpt>
      <trkpt lat="48.95734" lon="7.63342">
        <ele>217</ele>
        <time>2026-03-10T13:33:52Z</time>
      </trkpt>
      <trkpt lat="48.95728" lon="7.63348">
        <ele>216.4</ele>
        <time>2026-03-10T13:33:57Z</time>
      </trkpt>
      <trkpt lat="48.95723" lon="7.63354">
        <ele>216</ele>
        <time>2026-03-10T13:34:02Z</time>
      </trkpt>
      <trkpt lat="48.95717" lon="7.6336">
        <ele>215.5</ele>
        <time>2026-03-10T13:34:07Z</time>
      </trkpt>
      <trkpt lat="48.95712" lon="7.63367">
        <ele>215.3</ele>
        <time>2026-03-10T13:34:12Z</time>
      </trkpt>
      <trkpt lat="48.95706" lon="7.63374">
        <ele>214.9</ele>
        <time>2026-03-10T13:34:17Z</time>
      </trkpt>
      <trkpt lat="48.95701" lon="7.6338">
        <ele>214.7</ele>
        <time>2026-03-10T13:34:22Z</time>
      </trkpt>
      <trkpt lat="48.95695" lon="7.63386">
        <ele>214.4</ele>
        <time>2026-03-10T13:34:27Z</time>
      </trkpt>
      <trkpt lat="48.9569" lon="7.63392">
        <ele>214.3</ele>
        <time>2026-03-10T13:34:32Z</time>
      </trkpt>
      <trkpt lat="48.95683" lon="7.63398">
        <ele>214</ele>
        <time>2026-03-10T13:34:37Z</time>
      </trkpt>
      <trkpt lat="48.95678" lon="7.63403">
        <ele>213.9</ele>
        <time>2026-03-10T13:34:42Z</time>
      </trkpt>
      <trkpt lat="48.95673" lon="7.63409">
        <ele>213.9</ele>
        <time>2026-03-10T13:34:47Z</time>
      </trkpt>
      <trkpt lat="48.95667" lon="7.63415">
        <ele>213.9</ele>
        <time>2026-03-10T13:34:52Z</time>
      </trkpt>
      <trkpt lat="48.95661" lon="7.63421">
        <ele>213.4</ele>
        <time>2026-03-10T13:34:57Z</time>
      </trkpt>
      <trkpt lat="48.95656" lon="7.6343">
        <ele>213.2</ele>
        <time>2026-03-10T13:35:02Z</time>
      </trkpt>
      <trkpt lat="48.9565" lon="7.63437">
        <ele>212.8</ele>
        <time>2026-03-10T13:35:07Z</time>
      </trkpt>
      <trkpt lat="48.95645" lon="7.63443">
        <ele>212.5</ele>
        <time>2026-03-10T13:35:12Z</time>
      </trkpt>
      <trkpt lat="48.95639" lon="7.63448">
        <ele>212</ele>
        <time>2026-03-10T13:35:17Z</time>
      </trkpt>
      <trkpt lat="48.95634" lon="7.63454">
        <ele>211.8</ele>
        <time>2026-03-10T13:35:22Z</time>
      </trkpt>
      <trkpt lat="48.95627" lon="7.6346">
        <ele>211.4</ele>
        <time>2026-03-10T13:35:27Z</time>
      </trkpt>
      <trkpt lat="48.95621" lon="7.63466">
        <ele>211.1</ele>
        <time>2026-03-10T13:35:32Z</time>
      </trkpt>
      <trkpt lat="48.95616" lon="7.63471">
        <ele>210.9</ele>
        <time>2026-03-10T13:35:37Z</time>
      </trkpt>
      <trkpt lat="48.9561" lon="7.63476">
        <ele>210.6</ele>
        <time>2026-03-10T13:35:42Z</time>
      </trkpt>
      <trkpt lat="48.95604" lon="7.63482">
        <ele>210.5</ele>
        <time>2026-03-10T13:35:47Z</time>
      </trkpt>
      <trkpt lat="48.95599" lon="7.6349">
        <ele>210.6</ele>
        <time>2026-03-10T13:35:52Z</time>
      </trkpt>
      <trkpt lat="48.95592" lon="7.63498">
        <ele>210.6</ele>
        <time>2026-03-10T13:35:57Z</time>
      </trkpt>
      <trkpt lat="48.95586" lon="7.63504">
        <ele>210.6</ele>
        <time>2026-03-10T13:36:02Z</time>
      </trkpt>
      <trkpt lat="48.95582" lon="7.63511">
        <ele>210.8</ele>
        <time>2026-03-10T13:36:07Z</time>
      </trkpt>
      <trkpt lat="48.95576" lon="7.63517">
        <ele>210.8</ele>
        <time>2026-03-10T13:36:12Z</time>
      </trkpt>
      <trkpt lat="48.9557" lon="7.63522">
        <ele>210.7</ele>
        <time>2026-03-10T13:36:17Z</time>
      </trkpt>
      <trkpt lat="48.95565" lon="7.63524">
        <ele>210.4</ele>
        <time>2026-03-10T13:36:22Z</time>
      </trkpt>
      <trkpt lat="48.95561" lon="7.63519">
        <ele>209.6</ele>
        <time>2026-03-10T13:36:27Z</time>
      </trkpt>
      <trkpt lat="48.95557" lon="7.63513">
        <ele>208.7</ele>
        <time>2026-03-10T13:36:32Z</time>
      </trkpt>
      <trkpt lat="48.95551" lon="7.6351">
        <ele>207.8</ele>
        <time>2026-03-10T13:36:37Z</time>
      </trkpt>
      <trkpt lat="48.95546" lon="7.63506">
        <ele>207</ele>
        <time>2026-03-10T13:36:42Z</time>
      </trkpt>
      <trkpt lat="48.95541" lon="7.63504">
        <ele>206.3</ele>
        <time>2026-03-10T13:36:47Z</time>
      </trkpt>
      <trkpt lat="48.95539" lon="7.63505">
        <ele>206.2</ele>
        <time>2026-03-10T13:36:52Z</time>
      </trkpt>
      <trkpt lat="48.95534" lon="7.63502">
        <ele>205.5</ele>
        <time>2026-03-10T13:36:57Z</time>
      </trkpt>
      <trkpt lat="48.95529" lon="7.635">
        <ele>204.8</ele>
        <time>2026-03-10T13:37:02Z</time>
      </trkpt>
      <trkpt lat="48.95522" lon="7.63496">
        <ele>203.8</ele>
        <time>2026-03-10T13:37:07Z</time>
      </trkpt>
      <trkpt lat="48.95514" lon="7.63494">
        <ele>202.8</ele>
        <time>2026-03-10T13:37:12Z</time>
      </trkpt>
      <trkpt lat="48.95505" lon="7.63493">
        <ele>201.9</ele>
        <time>2026-03-10T13:37:17Z</time>
      </trkpt>
      <trkpt lat="48.95499" lon="7.63492">
        <ele>201.3</ele>
        <time>2026-03-10T13:37:22Z</time>
      </trkpt>
      <trkpt lat="48.95493" lon="7.63493">
        <ele>201</ele>
        <time>2026-03-10T13:37:27Z</time>
      </trkpt>
      <trkpt lat="48.95487" lon="7.63495">
        <ele>200.7</ele>
        <time>2026-03-10T13:37:32Z</time>
      </trkpt>
      <trkpt lat="48.9548" lon="7.63496">
        <ele>200.3</ele>
        <time>2026-03-10T13:37:37Z</time>
      </trkpt>
      <trkpt lat="48.95473" lon="7.635">
        <ele>200.1</ele>
        <time>2026-03-10T13:37:42Z</time>
      </trkpt>
      <trkpt lat="48.95468" lon="7.635">
        <ele>199.7</ele>
        <time>2026-03-10T13:37:47Z</time>
      </trkpt>
      <trkpt lat="48.95462" lon="7.63502">
        <ele>199.4</ele>
        <time>2026-03-10T13:37:52Z</time>
      </trkpt>
      <trkpt lat="48.95455" lon="7.63505">
        <ele>199.1</ele>
        <time>2026-03-10T13:37:57Z</time>
      </trkpt>
      <trkpt lat="48.95449" lon="7.63506">
        <ele>198.8</ele>
        <time>2026-03-10T13:38:02Z</time>
      </trkpt>
      <trkpt lat="48.95443" lon="7.63505">
        <ele>198.2</ele>
        <time>2026-03-10T13:38:07Z</time>
      </trkpt>
      <trkpt lat="48.95437" lon="7.63508">
        <ele>198</ele>
        <time>2026-03-10T13:38:12Z</time>
      </trkpt>
      <trkpt lat="48.9543" lon="7.63509">
        <ele>197.5</ele>
        <time>2026-03-10T13:38:17Z</time>
      </trkpt>
      <trkpt lat="48.95425" lon="7.63512">
        <ele>197.2</ele>
        <time>2026-03-10T13:38:22Z</time>
      </trkpt>
      <trkpt lat="48.9542" lon="7.63515">
        <ele>197</ele>
        <time>2026-03-10T13:38:27Z</time>
      </trkpt>
      <trkpt lat="48.95414" lon="7.63522">
        <ele>197.1</ele>
        <time>2026-03-10T13:38:32Z</time>
      </trkpt>
      <trkpt lat="48.95408" lon="7.63528">
        <ele>197.3</ele>
        <time>2026-03-10T13:38:37Z</time>
      </trkpt>
      <trkpt lat="48.95403" lon="7.63534">
        <ele>197.5</ele>
        <time>2026-03-10T13:38:42Z</time>
      </trkpt>
      <trkpt lat="48.954" lon="7.63534">
        <ele>197.5</ele>
        <time>2026-03-10T13:38:47Z</time>
      </trkpt>
      <trkpt lat="48.95397" lon="7.63534">
        <ele>197.4</ele>
        <time>2026-03-10T13:38:52Z</time>
      </trkpt>
      <trkpt lat="48.95393" lon="7.63536">
        <ele>197.4</ele>
        <time>2026-03-10T13:38:57Z</time>
      </trkpt>
      <trkpt lat="48.9539" lon="7.6354">
        <ele>197.5</ele>
        <time>2026-03-10T13:39:02Z</time>
      </trkpt>
      <trkpt lat="48.95386" lon="7.63545">
        <ele>197.5</ele>
        <time>2026-03-10T13:39:07Z</time>
      </trkpt>
      <trkpt lat="48.95381" lon="7.6355">
        <ele>197.5</ele>
        <time>2026-03-10T13:39:12Z</time>
      </trkpt>
      <trkpt lat="48.95377" lon="7.63554">
        <ele>197.4</ele>
        <time>2026-03-10T13:39:17Z</time>
      </trkpt>
      <trkpt lat="48.95371" lon="7.6356">
        <ele>197.2</ele>
        <time>2026-03-10T13:39:22Z</time>
      </trkpt>
      <trkpt lat="48.95365" lon="7.63568">
        <ele>197</ele>
        <time>2026-03-10T13:39:27Z</time>
      </trkpt>
      <trkpt lat="48.95359" lon="7.63575">
        <ele>196.6</ele>
        <time>2026-03-10T13:39:32Z</time>
      </trkpt>
      <trkpt lat="48.95354" lon="7.63579">
        <ele>196.3</ele>
        <time>2026-03-10T13:39:37Z</time>
      </trkpt>
      <trkpt lat="48.9535" lon="7.63586">
        <ele>196</ele>
        <time>2026-03-10T13:39:42Z</time>
      </trkpt>
      <trkpt lat="48.95343" lon="7.63591">
        <ele>195.4</ele>
        <time>2026-03-10T13:39:47Z</time>
      </trkpt>
      <trkpt lat="48.95337" lon="7.63596">
        <ele>194.9</ele>
        <time>2026-03-10T13:39:52Z</time>
      </trkpt>
      <trkpt lat="48.95332" lon="7.63603">
        <ele>194.6</ele>
        <time>2026-03-10T13:39:57Z</time>
      </trkpt>
      <trkpt lat="48.95326" lon="7.63609">
        <ele>194.9</ele>
        <time>2026-03-10T13:40:02Z</time>
      </trkpt>
      <trkpt lat="48.95322" lon="7.63616">
        <ele>195.1</ele>
        <time>2026-03-10T13:40:07Z</time>
      </trkpt>
      <trkpt lat="48.95318" lon="7.6362">
        <ele>195.3</ele>
        <time>2026-03-10T13:40:12Z</time>
      </trkpt>
      <trkpt lat="48.95316" lon="7.63622">
        <ele>195.4</ele>
        <time>2026-03-10T13:40:17Z</time>
      </trkpt>
      <trkpt lat="48.95316" lon="7.63622">
        <ele>195.4</ele>
        <time>2026-03-10T13:40:22Z</time>
      </trkpt>
      <trkpt lat="48.95316" lon="7.63622">
        <ele>195.4</ele>
        <time>2026-03-10T13:40:27Z</time>
      </trkpt>
      <trkpt lat="48.95316" lon="7.6363">
        <ele>195.3</ele>
        <time>2026-03-10T13:40:32Z</time>
      </trkpt>
      <trkpt lat="48.95313" lon="7.63641">
        <ele>195.3</ele>
        <time>2026-03-10T13:40:37Z</time>
      </trkpt>
      <trkpt lat="48.95313" lon="7.63652">
        <ele>195.2</ele>
        <time>2026-03-10T13:40:42Z</time>
      </trkpt>
      <trkpt lat="48.95311" lon="7.63662">
        <ele>195.2</ele>
        <time>2026-03-10T13:40:47Z</time>
      </trkpt>
      <trkpt lat="48.95311" lon="7.6367">
        <ele>195</ele>
        <time>2026-03-10T13:40:52Z</time>
      </trkpt>
      <trkpt lat="48.95311" lon="7.63679">
        <ele>194.8</ele>
        <time>2026-03-10T13:40:57Z</time>
      </trkpt>
      <trkpt lat="48.95309" lon="7.63689">
        <ele>194.7</ele>
        <time>2026-03-10T13:41:02Z</time>
      </trkpt>
      <trkpt lat="48.95305" lon="7.63696">
        <ele>194.9</ele>
        <time>2026-03-10T13:41:07Z</time>
      </trkpt>
      <trkpt lat="48.95301" lon="7.63701">
        <ele>195.3</ele>
        <time>2026-03-10T13:41:12Z</time>
      </trkpt>
      <trkpt lat="48.95302" lon="7.6371">
        <ele>194.9</ele>
        <time>2026-03-10T13:41:17Z</time>
      </trkpt>
      <trkpt lat="48.95302" lon="7.6372">
        <ele>194.7</ele>
        <time>2026-03-10T13:41:22Z</time>
      </trkpt>
      <trkpt lat="48.953" lon="7.63728">
        <ele>194.7</ele>
        <time>2026-03-10T13:41:27Z</time>
      </trkpt>
      <trkpt lat="48.95298" lon="7.63738">
        <ele>194.8</ele>
        <time>2026-03-10T13:41:32Z</time>
      </trkpt>
      <trkpt lat="48.95297" lon="7.63748">
        <ele>194.7</ele>
        <time>2026-03-10T13:41:37Z</time>
      </trkpt>
      <trkpt lat="48.95295" lon="7.63759">
        <ele>195.2</ele>
        <time>2026-03-10T13:41:42Z</time>
      </trkpt>
      <trkpt lat="48.9529" lon="7.63768">
        <ele>196.2</ele>
        <time>2026-03-10T13:41:47Z</time>
      </trkpt>
      <trkpt lat="48.95289" lon="7.63773">
        <ele>196.4</ele>
        <time>2026-03-10T13:41:52Z</time>
      </trkpt>
      <trkpt lat="48.95289" lon="7.63777">
        <ele>196.5</ele>
        <time>2026-03-10T13:41:57Z</time>
      </trkpt>
      <trkpt lat="48.95289" lon="7.63779">
        <ele>196.6</ele>
        <time>2026-03-10T13:42:02Z</time>
      </trkpt>
      <trkpt lat="48.95286" lon="7.6379">
        <ele>197.2</ele>
        <time>2026-03-10T13:42:07Z</time>
      </trkpt>
      <trkpt lat="48.95281" lon="7.63799">
        <ele>198</ele>
        <time>2026-03-10T13:42:12Z</time>
      </trkpt>
      <trkpt lat="48.95278" lon="7.63808">
        <ele>198.6</ele>
        <time>2026-03-10T13:42:17Z</time>
      </trkpt>
      <trkpt lat="48.95276" lon="7.63816">
        <ele>198.9</ele>
        <time>2026-03-10T13:42:22Z</time>
      </trkpt>
      <trkpt lat="48.95272" lon="7.63824">
        <ele>199.5</ele>
        <time>2026-03-10T13:42:27Z</time>
      </trkpt>
      <trkpt lat="48.95268" lon="7.63832">
        <ele>200</ele>
        <time>2026-03-10T13:42:32Z</time>
      </trkpt>
      <trkpt lat="48.95264" lon="7.6384">
        <ele>200.2</ele>
        <time>2026-03-10T13:42:37Z</time>
      </trkpt>
      <trkpt lat="48.95261" lon="7.63848">
        <ele>200.1</ele>
        <time>2026-03-10T13:42:42Z</time>
      </trkpt>
      <trkpt lat="48.95257" lon="7.63855">
        <ele>200.1</ele>
        <time>2026-03-10T13:42:47Z</time>
      </trkpt>
      <trkpt lat="48.95252" lon="7.63863">
        <ele>200.1</ele>
        <time>2026-03-10T13:42:52Z</time>
      </trkpt>
      <trkpt lat="48.95248" lon="7.63874">
        <ele>199.8</ele>
        <time>2026-03-10T13:42:57Z</time>
      </trkpt>
      <trkpt lat="48.95242" lon="7.63884">
        <ele>199.9</ele>
        <time>2026-03-10T13:43:02Z</time>
      </trkpt>
      <trkpt lat="48.95238" lon="7.6389">
        <ele>200</ele>
        <time>2026-03-10T13:43:07Z</time>
      </trkpt>
      <trkpt lat="48.95234" lon="7.63896">
        <ele>200.2</ele>
        <time>2026-03-10T13:43:12Z</time>
      </trkpt>
      <trkpt lat="48.95233" lon="7.63908">
        <ele>199.7</ele>
        <time>2026-03-10T13:43:17Z</time>
      </trkpt>
      <trkpt lat="48.95232" lon="7.63917">
        <ele>199.4</ele>
        <time>2026-03-10T13:43:22Z</time>
      </trkpt>
      <trkpt lat="48.95228" lon="7.63922">
        <ele>199.6</ele>
        <time>2026-03-10T13:43:27Z</time>
      </trkpt>
      <trkpt lat="48.95224" lon="7.6393">
        <ele>199.5</ele>
        <time>2026-03-10T13:43:32Z</time>
      </trkpt>
      <trkpt lat="48.95221" lon="7.6394">
        <ele>199.2</ele>
        <time>2026-03-10T13:43:37Z</time>
      </trkpt>
      <trkpt lat="48.95219" lon="7.63955">
        <ele>198.4</ele>
        <time>2026-03-10T13:43:42Z</time>
      </trkpt>
      <trkpt lat="48.95218" lon="7.63964">
        <ele>197.9</ele>
        <time>2026-03-10T13:43:47Z</time>
      </trkpt>
      <trkpt lat="48.95214" lon="7.63969">
        <ele>198.1</ele>
        <time>2026-03-10T13:43:52Z</time>
      </trkpt>
      <trkpt lat="48.9521" lon="7.63979">
        <ele>197.8</ele>
        <time>2026-03-10T13:43:57Z</time>
      </trkpt>
      <trkpt lat="48.95208" lon="7.6399">
        <ele>197.3</ele>
        <time>2026-03-10T13:44:02Z</time>
      </trkpt>
      <trkpt lat="48.95208" lon="7.63998">
        <ele>196.7</ele>
        <time>2026-03-10T13:44:07Z</time>
      </trkpt>
      <trkpt lat="48.95205" lon="7.64005">
        <ele>196.6</ele>
        <time>2026-03-10T13:44:12Z</time>
      </trkpt>
      <trkpt lat="48.95204" lon="7.64004">
        <ele>196.7</ele>
        <time>2026-03-10T13:44:17Z</time>
      </trkpt>
      <trkpt lat="48.95203" lon="7.64004">
        <ele>196.8</ele>
        <time>2026-03-10T13:44:22Z</time>
      </trkpt>
      <trkpt lat="48.95203" lon="7.64004">
        <ele>196.8</ele>
        <time>2026-03-10T13:44:22Z</time>
      </trkpt>
      <trkpt lat="48.95197" lon="7.64">
        <ele>197.7</ele>
        <time>2026-03-10T14:35:08Z</time>
      </trkpt>
      <trkpt lat="48.95198" lon="7.6401">
        <ele>197</ele>
        <time>2026-03-10T14:35:14Z</time>
      </trkpt>
      <trkpt lat="48.95205" lon="7.6402">
        <ele>195.7</ele>
        <time>2026-03-10T14:35:19Z</time>
      </trkpt>
      <trkpt lat="48.95204" lon="7.64026">
        <ele>195.5</ele>
        <time>2026-03-10T14:35:25Z</time>
      </trkpt>
      <trkpt lat="48.95202" lon="7.64032">
        <ele>195.3</ele>
        <time>2026-03-10T14:35:30Z</time>
      </trkpt>
      <trkpt lat="48.95198" lon="7.64042">
        <ele>194.9</ele>
        <time>2026-03-10T14:35:35Z</time>
      </trkpt>
      <trkpt lat="48.95193" lon="7.64054">
        <ele>194.4</ele>
        <time>2026-03-10T14:35:40Z</time>
      </trkpt>
      <trkpt lat="48.95192" lon="7.64063">
        <ele>193.8</ele>
        <time>2026-03-10T14:35:45Z</time>
      </trkpt>
      <trkpt lat="48.95191" lon="7.64072">
        <ele>193.2</ele>
        <time>2026-03-10T14:35:50Z</time>
      </trkpt>
      <trkpt lat="48.9519" lon="7.6408">
        <ele>192.7</ele>
        <time>2026-03-10T14:35:55Z</time>
      </trkpt>
      <trkpt lat="48.95187" lon="7.64091">
        <ele>192.2</ele>
        <time>2026-03-10T14:36:00Z</time>
      </trkpt>
      <trkpt lat="48.95187" lon="7.641">
        <ele>191.9</ele>
        <time>2026-03-10T14:36:05Z</time>
      </trkpt>
      <trkpt lat="48.95187" lon="7.64107">
        <ele>191.6</ele>
        <time>2026-03-10T14:36:10Z</time>
      </trkpt>
      <trkpt lat="48.95185" lon="7.64116">
        <ele>191.3</ele>
        <time>2026-03-10T14:36:15Z</time>
      </trkpt>
      <trkpt lat="48.95183" lon="7.64125">
        <ele>190.9</ele>
        <time>2026-03-10T14:36:20Z</time>
      </trkpt>
      <trkpt lat="48.9518" lon="7.64132">
        <ele>190.6</ele>
        <time>2026-03-10T14:36:25Z</time>
      </trkpt>
      <trkpt lat="48.95178" lon="7.64143">
        <ele>190.2</ele>
        <time>2026-03-10T14:36:30Z</time>
      </trkpt>
      <trkpt lat="48.95176" lon="7.64152">
        <ele>189.8</ele>
        <time>2026-03-10T14:36:35Z</time>
      </trkpt>
      <trkpt lat="48.95172" lon="7.64163">
        <ele>189.2</ele>
        <time>2026-03-10T14:36:40Z</time>
      </trkpt>
      <trkpt lat="48.95168" lon="7.64174">
        <ele>189</ele>
        <time>2026-03-10T14:36:45Z</time>
      </trkpt>
      <trkpt lat="48.95162" lon="7.64183">
        <ele>189.3</ele>
        <time>2026-03-10T14:36:50Z</time>
      </trkpt>
      <trkpt lat="48.95157" lon="7.64192">
        <ele>189.5</ele>
        <time>2026-03-10T14:36:55Z</time>
      </trkpt>
      <trkpt lat="48.95154" lon="7.642">
        <ele>189.6</ele>
        <time>2026-03-10T14:37:00Z</time>
      </trkpt>
      <trkpt lat="48.9515" lon="7.64211">
        <ele>189.8</ele>
        <time>2026-03-10T14:37:05Z</time>
      </trkpt>
      <trkpt lat="48.95146" lon="7.64221">
        <ele>189.9</ele>
        <time>2026-03-10T14:37:10Z</time>
      </trkpt>
      <trkpt lat="48.95143" lon="7.64228">
        <ele>190</ele>
        <time>2026-03-10T14:37:15Z</time>
      </trkpt>
      <trkpt lat="48.95139" lon="7.64231">
        <ele>190.1</ele>
        <time>2026-03-10T14:37:20Z</time>
      </trkpt>
      <trkpt lat="48.95134" lon="7.64238">
        <ele>190.3</ele>
        <time>2026-03-10T14:37:25Z</time>
      </trkpt>
      <trkpt lat="48.95131" lon="7.64249">
        <ele>190.3</ele>
        <time>2026-03-10T14:37:30Z</time>
      </trkpt>
      <trkpt lat="48.95127" lon="7.64253">
        <ele>190.4</ele>
        <time>2026-03-10T14:37:35Z</time>
      </trkpt>
      <trkpt lat="48.95123" lon="7.64251">
        <ele>190.6</ele>
        <time>2026-03-10T14:37:40Z</time>
      </trkpt>
      <trkpt lat="48.95123" lon="7.64246">
        <ele>190.6</ele>
        <time>2026-03-10T14:37:45Z</time>
      </trkpt>
      <trkpt lat="48.95123" lon="7.64244">
        <ele>190.6</ele>
        <time>2026-03-10T14:37:50Z</time>
      </trkpt>
      <trkpt lat="48.95125" lon="7.64255">
        <ele>190.4</ele>
        <time>2026-03-10T14:37:55Z</time>
      </trkpt>
      <trkpt lat="48.95119" lon="7.64267">
        <ele>190.4</ele>
        <time>2026-03-10T14:38:00Z</time>
      </trkpt>
      <trkpt lat="48.95113" lon="7.64268">
        <ele>190.5</ele>
        <time>2026-03-10T14:38:05Z</time>
      </trkpt>
      <trkpt lat="48.95112" lon="7.64268">
        <ele>190.5</ele>
        <time>2026-03-10T14:38:10Z</time>
      </trkpt>
      <trkpt lat="48.95112" lon="7.64268">
        <ele>190.5</ele>
        <time>2026-03-10T14:38:15Z</time>
      </trkpt>
      <trkpt lat="48.9511" lon="7.64273">
        <ele>190.5</ele>
        <time>2026-03-10T14:38:20Z</time>
      </trkpt>
      <trkpt lat="48.95105" lon="7.64282">
        <ele>190.4</ele>
        <time>2026-03-10T14:38:25Z</time>
      </trkpt>
      <trkpt lat="48.95102" lon="7.64291">
        <ele>190.2</ele>
        <time>2026-03-10T14:38:30Z</time>
      </trkpt>
      <trkpt lat="48.95098" lon="7.64299">
        <ele>190</ele>
        <time>2026-03-10T14:38:35Z</time>
      </trkpt>
      <trkpt lat="48.95095" lon="7.64306">
        <ele>189.8</ele>
        <time>2026-03-10T14:38:40Z</time>
      </trkpt>
      <trkpt lat="48.95094" lon="7.64316">
        <ele>189.5</ele>
        <time>2026-03-10T14:38:45Z</time>
      </trkpt>
      <trkpt lat="48.95093" lon="7.64325">
        <ele>189.3</ele>
        <time>2026-03-10T14:38:50Z</time>
      </trkpt>
      <trkpt lat="48.95091" lon="7.64337">
        <ele>188.9</ele>
        <time>2026-03-10T14:38:55Z</time>
      </trkpt>
      <trkpt lat="48.95088" lon="7.64348">
        <ele>188.5</ele>
        <time>2026-03-10T14:39:00Z</time>
      </trkpt>
      <trkpt lat="48.95084" lon="7.64358">
        <ele>188.1</ele>
        <time>2026-03-10T14:39:05Z</time>
      </trkpt>
      <trkpt lat="48.95082" lon="7.64365">
        <ele>187.9</ele>
        <time>2026-03-10T14:39:10Z</time>
      </trkpt>
      <trkpt lat="48.95079" lon="7.64375">
        <ele>187.6</ele>
        <time>2026-03-10T14:39:15Z</time>
      </trkpt>
      <trkpt lat="48.95074" lon="7.64387">
        <ele>187.3</ele>
        <time>2026-03-10T14:39:20Z</time>
      </trkpt>
      <trkpt lat="48.95072" lon="7.64395">
        <ele>187.1</ele>
        <time>2026-03-10T14:39:25Z</time>
      </trkpt>
      <trkpt lat="48.95069" lon="7.64399">
        <ele>187</ele>
        <time>2026-03-10T14:39:30Z</time>
      </trkpt>
      <trkpt lat="48.95069" lon="7.64399">
        <ele>187</ele>
        <time>2026-03-10T14:39:30Z</time>
      </trkpt>
      <trkpt lat="48.95056" lon="7.64396">
        <ele>187.5</ele>
        <time>2026-03-10T14:57:48Z</time>
      </trkpt>
      <trkpt lat="48.95065" lon="7.64396">
        <ele>187.2</ele>
        <time>2026-03-10T14:57:51Z</time>
      </trkpt>
      <trkpt lat="48.95071" lon="7.64397">
        <ele>187</ele>
        <time>2026-03-10T14:57:56Z</time>
      </trkpt>
      <trkpt lat="48.95072" lon="7.64399">
        <ele>186.9</ele>
        <time>2026-03-10T14:58:01Z</time>
      </trkpt>
      <trkpt lat="48.95077" lon="7.6439">
        <ele>187.1</ele>
        <time>2026-03-10T14:58:06Z</time>
      </trkpt>
      <trkpt lat="48.9508" lon="7.64386">
        <ele>187.2</ele>
        <time>2026-03-10T14:58:11Z</time>
      </trkpt>
      <trkpt lat="48.9508" lon="7.64386">
        <ele>187.2</ele>
        <time>2026-03-10T14:58:16Z</time>
      </trkpt>
      <trkpt lat="48.95081" lon="7.64387">
        <ele>187.1</ele>
        <time>2026-03-10T14:58:21Z</time>
      </trkpt>
      <trkpt lat="48.95082" lon="7.64389">
        <ele>187</ele>
        <time>2026-03-10T14:58:26Z</time>
      </trkpt>
      <trkpt lat="48.95084" lon="7.64388">
        <ele>187.1</ele>
        <time>2026-03-10T14:58:31Z</time>
      </trkpt>
      <trkpt lat="48.95084" lon="7.64384">
        <ele>187.2</ele>
        <time>2026-03-10T14:58:36Z</time>
      </trkpt>
      <trkpt lat="48.95084" lon="7.64377">
        <ele>187.5</ele>
        <time>2026-03-10T14:58:41Z</time>
      </trkpt>
      <trkpt lat="48.95087" lon="7.6437">
        <ele>187.8</ele>
        <time>2026-03-10T14:58:46Z</time>
      </trkpt>
      <trkpt lat="48.95089" lon="7.64364">
        <ele>188</ele>
        <time>2026-03-10T14:58:51Z</time>
      </trkpt>
      <trkpt lat="48.95091" lon="7.64356">
        <ele>188.3</ele>
        <time>2026-03-10T14:58:56Z</time>
      </trkpt>
      <trkpt lat="48.95094" lon="7.64348">
        <ele>188.6</ele>
        <time>2026-03-10T14:59:01Z</time>
      </trkpt>
      <trkpt lat="48.95097" lon="7.64337">
        <ele>188.9</ele>
        <time>2026-03-10T14:59:06Z</time>
      </trkpt>
      <trkpt lat="48.951" lon="7.64329">
        <ele>189.1</ele>
        <time>2026-03-10T14:59:11Z</time>
      </trkpt>
      <trkpt lat="48.95102" lon="7.64322">
        <ele>189.3</ele>
        <time>2026-03-10T14:59:16Z</time>
      </trkpt>
      <trkpt lat="48.95104" lon="7.64315">
        <ele>189.5</ele>
        <time>2026-03-10T14:59:21Z</time>
      </trkpt>
      <trkpt lat="48.95107" lon="7.64306">
        <ele>189.7</ele>
        <time>2026-03-10T14:59:26Z</time>
      </trkpt>
      <trkpt lat="48.9511" lon="7.64298">
        <ele>189.9</ele>
        <time>2026-03-10T14:59:31Z</time>
      </trkpt>
      <trkpt lat="48.95111" lon="7.64289">
        <ele>190.1</ele>
        <time>2026-03-10T14:59:36Z</time>
      </trkpt>
      <trkpt lat="48.95106" lon="7.6428">
        <ele>190.4</ele>
        <time>2026-03-10T14:59:41Z</time>
      </trkpt>
      <trkpt lat="48.95102" lon="7.64269">
        <ele>190.8</ele>
        <time>2026-03-10T14:59:46Z</time>
      </trkpt>
      <trkpt lat="48.95099" lon="7.64259">
        <ele>191.2</ele>
        <time>2026-03-10T14:59:51Z</time>
      </trkpt>
      <trkpt lat="48.95103" lon="7.64255">
        <ele>191.2</ele>
        <time>2026-03-10T14:59:56Z</time>
      </trkpt>
      <trkpt lat="48.95107" lon="7.64249">
        <ele>191.2</ele>
        <time>2026-03-10T15:00:01Z</time>
      </trkpt>
      <trkpt lat="48.95111" lon="7.64241">
        <ele>191.1</ele>
        <time>2026-03-10T15:00:06Z</time>
      </trkpt>
      <trkpt lat="48.95114" lon="7.64234">
        <ele>191.1</ele>
        <time>2026-03-10T15:00:11Z</time>
      </trkpt>
      <trkpt lat="48.95118" lon="7.64227">
        <ele>191.1</ele>
        <time>2026-03-10T15:00:16Z</time>
      </trkpt>
      <trkpt lat="48.95122" lon="7.64219">
        <ele>191</ele>
        <time>2026-03-10T15:00:21Z</time>
      </trkpt>
      <trkpt lat="48.95126" lon="7.64211">
        <ele>190.9</ele>
        <time>2026-03-10T15:00:26Z</time>
      </trkpt>
      <trkpt lat="48.95129" lon="7.64202">
        <ele>190.9</ele>
        <time>2026-03-10T15:00:31Z</time>
      </trkpt>
      <trkpt lat="48.95132" lon="7.64193">
        <ele>190.8</ele>
        <time>2026-03-10T15:00:36Z</time>
      </trkpt>
      <trkpt lat="48.95136" lon="7.64183">
        <ele>190.7</ele>
        <time>2026-03-10T15:00:41Z</time>
      </trkpt>
      <trkpt lat="48.95141" lon="7.64178">
        <ele>190.5</ele>
        <time>2026-03-10T15:00:46Z</time>
      </trkpt>
      <trkpt lat="48.95145" lon="7.64173">
        <ele>190.3</ele>
        <time>2026-03-10T15:00:51Z</time>
      </trkpt>
      <trkpt lat="48.95147" lon="7.64174">
        <ele>190.1</ele>
        <time>2026-03-10T15:00:56Z</time>
      </trkpt>
      <trkpt lat="48.95149" lon="7.64169">
        <ele>190</ele>
        <time>2026-03-10T15:01:01Z</time>
      </trkpt>
      <trkpt lat="48.95152" lon="7.64162">
        <ele>190.1</ele>
        <time>2026-03-10T15:01:06Z</time>
      </trkpt>
      <trkpt lat="48.95153" lon="7.64161">
        <ele>190.1</ele>
        <time>2026-03-10T15:01:11Z</time>
      </trkpt>
      <trkpt lat="48.95154" lon="7.64159">
        <ele>190.1</ele>
        <time>2026-03-10T15:01:16Z</time>
      </trkpt>
      <trkpt lat="48.95153" lon="7.64156">
        <ele>190.4</ele>
        <time>2026-03-10T15:01:21Z</time>
      </trkpt>
      <trkpt lat="48.95155" lon="7.64146">
        <ele>190.7</ele>
        <time>2026-03-10T15:01:26Z</time>
      </trkpt>
      <trkpt lat="48.95158" lon="7.64138">
        <ele>190.9</ele>
        <time>2026-03-10T15:01:31Z</time>
      </trkpt>
      <trkpt lat="48.9516" lon="7.64128">
        <ele>191.3</ele>
        <time>2026-03-10T15:01:36Z</time>
      </trkpt>
      <trkpt lat="48.95162" lon="7.6412">
        <ele>191.6</ele>
        <time>2026-03-10T15:01:41Z</time>
      </trkpt>
      <trkpt lat="48.95164" lon="7.64112">
        <ele>191.8</ele>
        <time>2026-03-10T15:01:46Z</time>
      </trkpt>
      <trkpt lat="48.95166" lon="7.64104">
        <ele>192.1</ele>
        <time>2026-03-10T15:01:51Z</time>
      </trkpt>
      <trkpt lat="48.95167" lon="7.64094">
        <ele>192.5</ele>
        <time>2026-03-10T15:01:56Z</time>
      </trkpt>
      <trkpt lat="48.95168" lon="7.64083">
        <ele>193</ele>
        <time>2026-03-10T15:02:01Z</time>
      </trkpt>
      <trkpt lat="48.95171" lon="7.64071">
        <ele>194</ele>
        <time>2026-03-10T15:02:06Z</time>
      </trkpt>
      <trkpt lat="48.95172" lon="7.64065">
        <ele>194.5</ele>
        <time>2026-03-10T15:02:11Z</time>
      </trkpt>
      <trkpt lat="48.95176" lon="7.64057">
        <ele>195.1</ele>
        <time>2026-03-10T15:02:16Z</time>
      </trkpt>
      <trkpt lat="48.95178" lon="7.64049">
        <ele>195.6</ele>
        <time>2026-03-10T15:02:21Z</time>
      </trkpt>
      <trkpt lat="48.9518" lon="7.64041">
        <ele>196.2</ele>
        <time>2026-03-10T15:02:26Z</time>
      </trkpt>
      <trkpt lat="48.95182" lon="7.64031">
        <ele>196.8</ele>
        <time>2026-03-10T15:02:31Z</time>
      </trkpt>
      <trkpt lat="48.95184" lon="7.6402">
        <ele>197.6</ele>
        <time>2026-03-10T15:02:36Z</time>
      </trkpt>
      <trkpt lat="48.95181" lon="7.6401">
        <ele>198.6</ele>
        <time>2026-03-10T15:02:41Z</time>
      </trkpt>
      <trkpt lat="48.95181" lon="7.63999">
        <ele>199.5</ele>
        <time>2026-03-10T15:02:46Z</time>
      </trkpt>
      <trkpt lat="48.95183" lon="7.63988">
        <ele>200.2</ele>
        <time>2026-03-10T15:02:51Z</time>
      </trkpt>
      <trkpt lat="48.95184" lon="7.63978">
        <ele>200.9</ele>
        <time>2026-03-10T15:02:56Z</time>
      </trkpt>
      <trkpt lat="48.95185" lon="7.63967">
        <ele>201.6</ele>
        <time>2026-03-10T15:03:01Z</time>
      </trkpt>
      <trkpt lat="48.95184" lon="7.63963">
        <ele>202.1</ele>
        <time>2026-03-10T15:03:06Z</time>
      </trkpt>
      <trkpt lat="48.95183" lon="7.63956">
        <ele>202.7</ele>
        <time>2026-03-10T15:03:11Z</time>
      </trkpt>
      <trkpt lat="48.95184" lon="7.63948">
        <ele>203.2</ele>
        <time>2026-03-10T15:03:16Z</time>
      </trkpt>
      <trkpt lat="48.95185" lon="7.63941">
        <ele>203.7</ele>
        <time>2026-03-10T15:03:21Z</time>
      </trkpt>
      <trkpt lat="48.95189" lon="7.63933">
        <ele>203.8</ele>
        <time>2026-03-10T15:03:26Z</time>
      </trkpt>
      <trkpt lat="48.95194" lon="7.63916">
        <ele>204.4</ele>
        <time>2026-03-10T15:03:31Z</time>
      </trkpt>
      <trkpt lat="48.95199" lon="7.63907">
        <ele>204.1</ele>
        <time>2026-03-10T15:03:36Z</time>
      </trkpt>
      <trkpt lat="48.95201" lon="7.63901">
        <ele>204.1</ele>
        <time>2026-03-10T15:03:41Z</time>
      </trkpt>
      <trkpt lat="48.95203" lon="7.63893">
        <ele>204.1</ele>
        <time>2026-03-10T15:03:46Z</time>
      </trkpt>
      <trkpt lat="48.95205" lon="7.63886">
        <ele>204.2</ele>
        <time>2026-03-10T15:03:51Z</time>
      </trkpt>
      <trkpt lat="48.95209" lon="7.63874">
        <ele>204.2</ele>
        <time>2026-03-10T15:03:56Z</time>
      </trkpt>
      <trkpt lat="48.95213" lon="7.63862">
        <ele>204.3</ele>
        <time>2026-03-10T15:04:01Z</time>
      </trkpt>
      <trkpt lat="48.95215" lon="7.63855">
        <ele>204.4</ele>
        <time>2026-03-10T15:04:06Z</time>
      </trkpt>
      <trkpt lat="48.95217" lon="7.63846">
        <ele>204.6</ele>
        <time>2026-03-10T15:04:11Z</time>
      </trkpt>
      <trkpt lat="48.95223" lon="7.63838">
        <ele>204.4</ele>
        <time>2026-03-10T15:04:16Z</time>
      </trkpt>
      <trkpt lat="48.95224" lon="7.63831">
        <ele>204.5</ele>
        <time>2026-03-10T15:04:21Z</time>
      </trkpt>
      <trkpt lat="48.95225" lon="7.63821">
        <ele>204.5</ele>
        <time>2026-03-10T15:04:26Z</time>
      </trkpt>
      <trkpt lat="48.95224" lon="7.63813">
        <ele>204.6</ele>
        <time>2026-03-10T15:04:31Z</time>
      </trkpt>
      <trkpt lat="48.95223" lon="7.63801">
        <ele>204.8</ele>
        <time>2026-03-10T15:04:36Z</time>
      </trkpt>
      <trkpt lat="48.95223" lon="7.6379">
        <ele>204.9</ele>
        <time>2026-03-10T15:04:41Z</time>
      </trkpt>
      <trkpt lat="48.95221" lon="7.6378">
        <ele>205.2</ele>
        <time>2026-03-10T15:04:46Z</time>
      </trkpt>
      <trkpt lat="48.95221" lon="7.63774">
        <ele>205.3</ele>
        <time>2026-03-10T15:04:51Z</time>
      </trkpt>
      <trkpt lat="48.95222" lon="7.63768">
        <ele>205.2</ele>
        <time>2026-03-10T15:04:56Z</time>
      </trkpt>
      <trkpt lat="48.95226" lon="7.63753">
        <ele>204.9</ele>
        <time>2026-03-10T15:05:01Z</time>
      </trkpt>
      <trkpt lat="48.95232" lon="7.6374">
        <ele>204</ele>
        <time>2026-03-10T15:05:06Z</time>
      </trkpt>
      <trkpt lat="48.95236" lon="7.63732">
        <ele>203.5</ele>
        <time>2026-03-10T15:05:11Z</time>
      </trkpt>
      <trkpt lat="48.9524" lon="7.63724">
        <ele>202.9</ele>
        <time>2026-03-10T15:05:16Z</time>
      </trkpt>
      <trkpt lat="48.95243" lon="7.63722">
        <ele>202.5</ele>
        <time>2026-03-10T15:05:21Z</time>
      </trkpt>
      <trkpt lat="48.95246" lon="7.63724">
        <ele>202.2</ele>
        <time>2026-03-10T15:05:26Z</time>
      </trkpt>
      <trkpt lat="48.95247" lon="7.63724">
        <ele>202</ele>
        <time>2026-03-10T15:05:31Z</time>
      </trkpt>
      <trkpt lat="48.95245" lon="7.63723">
        <ele>202.3</ele>
        <time>2026-03-10T15:05:36Z</time>
      </trkpt>
      <trkpt lat="48.95234" lon="7.63718">
        <ele>203.5</ele>
        <time>2026-03-10T15:05:41Z</time>
      </trkpt>
      <trkpt lat="48.95226" lon="7.6372">
        <ele>204.5</ele>
        <time>2026-03-10T15:05:46Z</time>
      </trkpt>
      <trkpt lat="48.95218" lon="7.63722">
        <ele>205.5</ele>
        <time>2026-03-10T15:05:51Z</time>
      </trkpt>
      <trkpt lat="48.95216" lon="7.63715">
        <ele>205.7</ele>
        <time>2026-03-10T15:05:56Z</time>
      </trkpt>
      <trkpt lat="48.95218" lon="7.63702">
        <ele>205.3</ele>
        <time>2026-03-10T15:06:01Z</time>
      </trkpt>
      <trkpt lat="48.9522" lon="7.63693">
        <ele>204.9</ele>
        <time>2026-03-10T15:06:06Z</time>
      </trkpt>
      <trkpt lat="48.95221" lon="7.63684">
        <ele>204.7</ele>
        <time>2026-03-10T15:06:11Z</time>
      </trkpt>
      <trkpt lat="48.9522" lon="7.63674">
        <ele>204.7</ele>
        <time>2026-03-10T15:06:16Z</time>
      </trkpt>
      <trkpt lat="48.95222" lon="7.63666">
        <ele>204.3</ele>
        <time>2026-03-10T15:06:21Z</time>
      </trkpt>
      <trkpt lat="48.95221" lon="7.63658">
        <ele>204.3</ele>
        <time>2026-03-10T15:06:26Z</time>
      </trkpt>
      <trkpt lat="48.95221" lon="7.63647">
        <ele>204</ele>
        <time>2026-03-10T15:06:31Z</time>
      </trkpt>
      <trkpt lat="48.95222" lon="7.63636">
        <ele>203.6</ele>
        <time>2026-03-10T15:06:36Z</time>
      </trkpt>
      <trkpt lat="48.95223" lon="7.63624">
        <ele>203.2</ele>
        <time>2026-03-10T15:06:41Z</time>
      </trkpt>
      <trkpt lat="48.95224" lon="7.63616">
        <ele>202.9</ele>
        <time>2026-03-10T15:06:46Z</time>
      </trkpt>
      <trkpt lat="48.95222" lon="7.63609">
        <ele>203</ele>
        <time>2026-03-10T15:06:51Z</time>
      </trkpt>
      <trkpt lat="48.95223" lon="7.63598">
        <ele>202.6</ele>
        <time>2026-03-10T15:06:56Z</time>
      </trkpt>
      <trkpt lat="48.95222" lon="7.63589">
        <ele>202.5</ele>
        <time>2026-03-10T15:07:01Z</time>
      </trkpt>
      <trkpt lat="48.95222" lon="7.63582">
        <ele>202.3</ele>
        <time>2026-03-10T15:07:06Z</time>
      </trkpt>
      <trkpt lat="48.95222" lon="7.63574">
        <ele>202.3</ele>
        <time>2026-03-10T15:07:11Z</time>
      </trkpt>
      <trkpt lat="48.95223" lon="7.63568">
        <ele>202.1</ele>
        <time>2026-03-10T15:07:16Z</time>
      </trkpt>
      <trkpt lat="48.95221" lon="7.63564">
        <ele>202.3</ele>
        <time>2026-03-10T15:07:21Z</time>
      </trkpt>
      <trkpt lat="48.95215" lon="7.63565">
        <ele>202.8</ele>
        <time>2026-03-10T15:07:26Z</time>
      </trkpt>
      <trkpt lat="48.95211" lon="7.63562">
        <ele>203.1</ele>
        <time>2026-03-10T15:07:31Z</time>
      </trkpt>
      <trkpt lat="48.95207" lon="7.63557">
        <ele>203.5</ele>
        <time>2026-03-10T15:07:36Z</time>
      </trkpt>
      <trkpt lat="48.95202" lon="7.63547">
        <ele>203.8</ele>
        <time>2026-03-10T15:07:41Z</time>
      </trkpt>
      <trkpt lat="48.95198" lon="7.6354">
        <ele>204.2</ele>
        <time>2026-03-10T15:07:46Z</time>
      </trkpt>
      <trkpt lat="48.95192" lon="7.63538">
        <ele>204.7</ele>
        <time>2026-03-10T15:07:51Z</time>
      </trkpt>
      <trkpt lat="48.95189" lon="7.63534">
        <ele>205</ele>
        <time>2026-03-10T15:07:56Z</time>
      </trkpt>
      <trkpt lat="48.95186" lon="7.6353">
        <ele>205.2</ele>
        <time>2026-03-10T15:08:01Z</time>
      </trkpt>
      <trkpt lat="48.95182" lon="7.6353">
        <ele>205.6</ele>
        <time>2026-03-10T15:08:06Z</time>
      </trkpt>
      <trkpt lat="48.95174" lon="7.63525">
        <ele>206.3</ele>
        <time>2026-03-10T15:08:11Z</time>
      </trkpt>
      <trkpt lat="48.95171" lon="7.63518">
        <ele>206.6</ele>
        <time>2026-03-10T15:08:16Z</time>
      </trkpt>
      <trkpt lat="48.95171" lon="7.63509">
        <ele>206.6</ele>
        <time>2026-03-10T15:08:21Z</time>
      </trkpt>
      <trkpt lat="48.95172" lon="7.63499">
        <ele>206.6</ele>
        <time>2026-03-10T15:08:26Z</time>
      </trkpt>
      <trkpt lat="48.95173" lon="7.6349">
        <ele>207.1</ele>
        <time>2026-03-10T15:08:31Z</time>
      </trkpt>
      <trkpt lat="48.95172" lon="7.63489">
        <ele>207.3</ele>
        <time>2026-03-10T15:08:36Z</time>
      </trkpt>
      <trkpt lat="48.95173" lon="7.63484">
        <ele>207.5</ele>
        <time>2026-03-10T15:08:41Z</time>
      </trkpt>
      <trkpt lat="48.95177" lon="7.6348">
        <ele>207.4</ele>
        <time>2026-03-10T15:08:46Z</time>
      </trkpt>
      <trkpt lat="48.95183" lon="7.63476">
        <ele>207</ele>
        <time>2026-03-10T15:08:51Z</time>
      </trkpt>
      <trkpt lat="48.95189" lon="7.63472">
        <ele>206.7</ele>
        <time>2026-03-10T15:08:56Z</time>
      </trkpt>
      <trkpt lat="48.95196" lon="7.63464">
        <ele>206.5</ele>
        <time>2026-03-10T15:09:01Z</time>
      </trkpt>
      <trkpt lat="48.952" lon="7.63465">
        <ele>206</ele>
        <time>2026-03-10T15:09:06Z</time>
      </trkpt>
      <trkpt lat="48.95203" lon="7.63449">
        <ele>206.7</ele>
        <time>2026-03-10T15:09:11Z</time>
      </trkpt>
      <trkpt lat="48.95201" lon="7.63441">
        <ele>207.4</ele>
        <time>2026-03-10T15:09:16Z</time>
      </trkpt>
      <trkpt lat="48.95201" lon="7.63428">
        <ele>208.2</ele>
        <time>2026-03-10T15:09:21Z</time>
      </trkpt>
      <trkpt lat="48.95202" lon="7.63419">
        <ele>208.6</ele>
        <time>2026-03-10T15:09:26Z</time>
      </trkpt>
      <trkpt lat="48.95203" lon="7.63412">
        <ele>209.1</ele>
        <time>2026-03-10T15:09:31Z</time>
      </trkpt>
      <trkpt lat="48.95205" lon="7.63402">
        <ele>209.9</ele>
        <time>2026-03-10T15:09:36Z</time>
      </trkpt>
      <trkpt lat="48.95205" lon="7.63395">
        <ele>210.6</ele>
        <time>2026-03-10T15:09:41Z</time>
      </trkpt>
      <trkpt lat="48.95206" lon="7.63388">
        <ele>211.2</ele>
        <time>2026-03-10T15:09:46Z</time>
      </trkpt>
      <trkpt lat="48.95208" lon="7.63378">
        <ele>212</ele>
        <time>2026-03-10T15:09:51Z</time>
      </trkpt>
      <trkpt lat="48.95209" lon="7.6337">
        <ele>212.7</ele>
        <time>2026-03-10T15:09:56Z</time>
      </trkpt>
      <trkpt lat="48.95217" lon="7.63361">
        <ele>212.7</ele>
        <time>2026-03-10T15:10:01Z</time>
      </trkpt>
      <trkpt lat="48.95226" lon="7.63356">
        <ele>212.2</ele>
        <time>2026-03-10T15:10:06Z</time>
      </trkpt>
      <trkpt lat="48.95231" lon="7.63353">
        <ele>212</ele>
        <time>2026-03-10T15:10:11Z</time>
      </trkpt>
      <trkpt lat="48.95237" lon="7.63347">
        <ele>212</ele>
        <time>2026-03-10T15:10:16Z</time>
      </trkpt>
      <trkpt lat="48.9524" lon="7.63341">
        <ele>212.3</ele>
        <time>2026-03-10T15:10:21Z</time>
      </trkpt>
      <trkpt lat="48.95242" lon="7.63336">
        <ele>212.6</ele>
        <time>2026-03-10T15:10:26Z</time>
      </trkpt>
      <trkpt lat="48.95245" lon="7.63329">
        <ele>213.3</ele>
        <time>2026-03-10T15:10:31Z</time>
      </trkpt>
      <trkpt lat="48.9525" lon="7.63322">
        <ele>214</ele>
        <time>2026-03-10T15:10:36Z</time>
      </trkpt>
      <trkpt lat="48.95254" lon="7.63313">
        <ele>215</ele>
        <time>2026-03-10T15:10:41Z</time>
      </trkpt>
      <trkpt lat="48.95259" lon="7.63304">
        <ele>215.7</ele>
        <time>2026-03-10T15:10:46Z</time>
      </trkpt>
      <trkpt lat="48.95261" lon="7.63297">
        <ele>216.6</ele>
        <time>2026-03-10T15:10:51Z</time>
      </trkpt>
      <trkpt lat="48.95266" lon="7.63289">
        <ele>217</ele>
        <time>2026-03-10T15:10:56Z</time>
      </trkpt>
      <trkpt lat="48.95271" lon="7.63283">
        <ele>217</ele>
        <time>2026-03-10T15:11:01Z</time>
      </trkpt>
      <trkpt lat="48.95273" lon="7.63276">
        <ele>217.7</ele>
        <time>2026-03-10T15:11:06Z</time>
      </trkpt>
      <trkpt lat="48.95277" lon="7.63266">
        <ele>218.4</ele>
        <time>2026-03-10T15:11:11Z</time>
      </trkpt>
      <trkpt lat="48.95282" lon="7.63258">
        <ele>218.5</ele>
        <time>2026-03-10T15:11:16Z</time>
      </trkpt>
      <trkpt lat="48.95287" lon="7.63249">
        <ele>218.7</ele>
        <time>2026-03-10T15:11:21Z</time>
      </trkpt>
      <trkpt lat="48.95292" lon="7.63243">
        <ele>218.1</ele>
        <time>2026-03-10T15:11:26Z</time>
      </trkpt>
      <trkpt lat="48.95297" lon="7.63235">
        <ele>217.7</ele>
        <time>2026-03-10T15:11:31Z</time>
      </trkpt>
      <trkpt lat="48.95301" lon="7.63228">
        <ele>217.5</ele>
        <time>2026-03-10T15:11:36Z</time>
      </trkpt>
      <trkpt lat="48.95303" lon="7.63221">
        <ele>217.7</ele>
        <time>2026-03-10T15:11:41Z</time>
      </trkpt>
      <trkpt lat="48.95308" lon="7.63212">
        <ele>217.4</ele>
        <time>2026-03-10T15:11:46Z</time>
      </trkpt>
      <trkpt lat="48.95314" lon="7.63204">
        <ele>216.8</ele>
        <time>2026-03-10T15:11:51Z</time>
      </trkpt>
      <trkpt lat="48.95318" lon="7.63199">
        <ele>216.4</ele>
        <time>2026-03-10T15:11:56Z</time>
      </trkpt>
      <trkpt lat="48.95322" lon="7.63191">
        <ele>216.2</ele>
        <time>2026-03-10T15:12:01Z</time>
      </trkpt>
      <trkpt lat="48.95326" lon="7.63182">
        <ele>216.2</ele>
        <time>2026-03-10T15:12:06Z</time>
      </trkpt>
      <trkpt lat="48.9533" lon="7.63173">
        <ele>216.2</ele>
        <time>2026-03-10T15:12:11Z</time>
      </trkpt>
      <trkpt lat="48.95336" lon="7.63163">
        <ele>215.6</ele>
        <time>2026-03-10T15:12:16Z</time>
      </trkpt>
      <trkpt lat="48.95341" lon="7.63158">
        <ele>214.8</ele>
        <time>2026-03-10T15:12:21Z</time>
      </trkpt>
      <trkpt lat="48.95345" lon="7.63148">
        <ele>214.3</ele>
        <time>2026-03-10T15:12:26Z</time>
      </trkpt>
      <trkpt lat="48.95346" lon="7.63137">
        <ele>214.4</ele>
        <time>2026-03-10T15:12:31Z</time>
      </trkpt>
      <trkpt lat="48.95347" lon="7.63128">
        <ele>214.5</ele>
        <time>2026-03-10T15:12:36Z</time>
      </trkpt>
      <trkpt lat="48.95352" lon="7.63121">
        <ele>213.6</ele>
        <time>2026-03-10T15:12:41Z</time>
      </trkpt>
      <trkpt lat="48.95358" lon="7.63116">
        <ele>212.4</ele>
        <time>2026-03-10T15:12:46Z</time>
      </trkpt>
      <trkpt lat="48.95362" lon="7.63107">
        <ele>211.7</ele>
        <time>2026-03-10T15:12:51Z</time>
      </trkpt>
      <trkpt lat="48.9537" lon="7.63101">
        <ele>209.9</ele>
        <time>2026-03-10T15:12:56Z</time>
      </trkpt>
      <trkpt lat="48.95379" lon="7.63094">
        <ele>207.9</ele>
        <time>2026-03-10T15:13:01Z</time>
      </trkpt>
      <trkpt lat="48.95388" lon="7.63083">
        <ele>205.9</ele>
        <time>2026-03-10T15:13:06Z</time>
      </trkpt>
      <trkpt lat="48.95394" lon="7.63079">
        <ele>204.7</ele>
        <time>2026-03-10T15:13:11Z</time>
      </trkpt>
      <trkpt lat="48.954" lon="7.63075">
        <ele>203.6</ele>
        <time>2026-03-10T15:13:16Z</time>
      </trkpt>
      <trkpt lat="48.95407" lon="7.63068">
        <ele>202.5</ele>
        <time>2026-03-10T15:13:21Z</time>
      </trkpt>
      <trkpt lat="48.95409" lon="7.63065">
        <ele>202.3</ele>
        <time>2026-03-10T15:13:26Z</time>
      </trkpt>
      <trkpt lat="48.95412" lon="7.63054">
        <ele>202.5</ele>
        <time>2026-03-10T15:13:31Z</time>
      </trkpt>
      <trkpt lat="48.95418" lon="7.63041">
        <ele>202.5</ele>
        <time>2026-03-10T15:13:36Z</time>
      </trkpt>
      <trkpt lat="48.95421" lon="7.6303">
        <ele>203.4</ele>
        <time>2026-03-10T15:13:41Z</time>
      </trkpt>
      <trkpt lat="48.95426" lon="7.63024">
        <ele>203.8</ele>
        <time>2026-03-10T15:13:46Z</time>
      </trkpt>
      <trkpt lat="48.95429" lon="7.63018">
        <ele>204.2</ele>
        <time>2026-03-10T15:13:51Z</time>
      </trkpt>
      <trkpt lat="48.95433" lon="7.63013">
        <ele>204.6</ele>
        <time>2026-03-10T15:13:56Z</time>
      </trkpt>
      <trkpt lat="48.95438" lon="7.6301">
        <ele>204.8</ele>
        <time>2026-03-10T15:14:01Z</time>
      </trkpt>
      <trkpt lat="48.95441" lon="7.63006">
        <ele>205.1</ele>
        <time>2026-03-10T15:14:06Z</time>
      </trkpt>
      <trkpt lat="48.95446" lon="7.62999">
        <ele>205.8</ele>
        <time>2026-03-10T15:14:11Z</time>
      </trkpt>
      <trkpt lat="48.95451" lon="7.62994">
        <ele>206.4</ele>
        <time>2026-03-10T15:14:16Z</time>
      </trkpt>
      <trkpt lat="48.95455" lon="7.62987">
        <ele>207.2</ele>
        <time>2026-03-10T15:14:21Z</time>
      </trkpt>
      <trkpt lat="48.9546" lon="7.62982">
        <ele>207.9</ele>
        <time>2026-03-10T15:14:26Z</time>
      </trkpt>
      <trkpt lat="48.95464" lon="7.62977">
        <ele>208.5</ele>
        <time>2026-03-10T15:14:31Z</time>
      </trkpt>
      <trkpt lat="48.95468" lon="7.62972">
        <ele>209.2</ele>
        <time>2026-03-10T15:14:36Z</time>
      </trkpt>
      <trkpt lat="48.95472" lon="7.62966">
        <ele>210.1</ele>
        <time>2026-03-10T15:14:41Z</time>
      </trkpt>
      <trkpt lat="48.95476" lon="7.62961">
        <ele>210.8</ele>
        <time>2026-03-10T15:14:46Z</time>
      </trkpt>
      <trkpt lat="48.95483" lon="7.62958">
        <ele>211.3</ele>
        <time>2026-03-10T15:14:51Z</time>
      </trkpt>
      <trkpt lat="48.9549" lon="7.62952">
        <ele>212.3</ele>
        <time>2026-03-10T15:14:56Z</time>
      </trkpt>
      <trkpt lat="48.95496" lon="7.62945">
        <ele>213.5</ele>
        <time>2026-03-10T15:15:01Z</time>
      </trkpt>
      <trkpt lat="48.95503" lon="7.62939">
        <ele>214.1</ele>
        <time>2026-03-10T15:15:06Z</time>
      </trkpt>
      <trkpt lat="48.95511" lon="7.62932">
        <ele>214.1</ele>
        <time>2026-03-10T15:15:11Z</time>
      </trkpt>
      <trkpt lat="48.95518" lon="7.62923">
        <ele>214.5</ele>
        <time>2026-03-10T15:15:16Z</time>
      </trkpt>
      <trkpt lat="48.95524" lon="7.62917">
        <ele>214.5</ele>
        <time>2026-03-10T15:15:21Z</time>
      </trkpt>
      <trkpt lat="48.95529" lon="7.6291">
        <ele>214.5</ele>
        <time>2026-03-10T15:15:26Z</time>
      </trkpt>
      <trkpt lat="48.95533" lon="7.62905">
        <ele>214.4</ele>
        <time>2026-03-10T15:15:31Z</time>
      </trkpt>
      <trkpt lat="48.95536" lon="7.629">
        <ele>214.5</ele>
        <time>2026-03-10T15:15:36Z</time>
      </trkpt>
      <trkpt lat="48.9554" lon="7.62895">
        <ele>214.3</ele>
        <time>2026-03-10T15:15:41Z</time>
      </trkpt>
      <trkpt lat="48.95546" lon="7.62888">
        <ele>214.1</ele>
        <time>2026-03-10T15:15:46Z</time>
      </trkpt>
      <trkpt lat="48.95549" lon="7.62884">
        <ele>213.9</ele>
        <time>2026-03-10T15:15:51Z</time>
      </trkpt>
      <trkpt lat="48.95553" lon="7.62879">
        <ele>213.7</ele>
        <time>2026-03-10T15:15:56Z</time>
      </trkpt>
      <trkpt lat="48.95557" lon="7.62871">
        <ele>213.8</ele>
        <time>2026-03-10T15:16:01Z</time>
      </trkpt>
      <trkpt lat="48.95563" lon="7.62866">
        <ele>213.2</ele>
        <time>2026-03-10T15:16:06Z</time>
      </trkpt>
      <trkpt lat="48.9557" lon="7.62857">
        <ele>212.7</ele>
        <time>2026-03-10T15:16:11Z</time>
      </trkpt>
      <trkpt lat="48.95577" lon="7.6285">
        <ele>212</ele>
        <time>2026-03-10T15:16:16Z</time>
      </trkpt>
      <trkpt lat="48.95584" lon="7.62842">
        <ele>211.3</ele>
        <time>2026-03-10T15:16:21Z</time>
      </trkpt>
      <trkpt lat="48.95589" lon="7.62835">
        <ele>211.1</ele>
        <time>2026-03-10T15:16:26Z</time>
      </trkpt>
      <trkpt lat="48.95592" lon="7.62829">
        <ele>211.5</ele>
        <time>2026-03-10T15:16:31Z</time>
      </trkpt>
      <trkpt lat="48.95595" lon="7.6282">
        <ele>212.5</ele>
        <time>2026-03-10T15:16:36Z</time>
      </trkpt>
      <trkpt lat="48.95601" lon="7.62812">
        <ele>213</ele>
        <time>2026-03-10T15:16:41Z</time>
      </trkpt>
      <trkpt lat="48.95604" lon="7.62806">
        <ele>213.5</ele>
        <time>2026-03-10T15:16:46Z</time>
      </trkpt>
      <trkpt lat="48.95607" lon="7.62804">
        <ele>213.5</ele>
        <time>2026-03-10T15:16:51Z</time>
      </trkpt>
      <trkpt lat="48.95611" lon="7.628">
        <ele>213.7</ele>
        <time>2026-03-10T15:16:56Z</time>
      </trkpt>
      <trkpt lat="48.95616" lon="7.62795">
        <ele>213.9</ele>
        <time>2026-03-10T15:17:01Z</time>
      </trkpt>
      <trkpt lat="48.95619" lon="7.6279">
        <ele>214.4</ele>
        <time>2026-03-10T15:17:06Z</time>
      </trkpt>
      <trkpt lat="48.95624" lon="7.62787">
        <ele>214.4</ele>
        <time>2026-03-10T15:17:11Z</time>
      </trkpt>
      <trkpt lat="48.95629" lon="7.62783">
        <ele>214.5</ele>
        <time>2026-03-10T15:17:16Z</time>
      </trkpt>
      <trkpt lat="48.95634" lon="7.6278">
        <ele>214.5</ele>
        <time>2026-03-10T15:17:21Z</time>
      </trkpt>
      <trkpt lat="48.95639" lon="7.62774">
        <ele>215.1</ele>
        <time>2026-03-10T15:17:26Z</time>
      </trkpt>
      <trkpt lat="48.95644" lon="7.62766">
        <ele>216</ele>
        <time>2026-03-10T15:17:31Z</time>
      </trkpt>
      <trkpt lat="48.95649" lon="7.62761">
        <ele>216.5</ele>
        <time>2026-03-10T15:17:36Z</time>
      </trkpt>
      <trkpt lat="48.95657" lon="7.62758">
        <ele>216.3</ele>
        <time>2026-03-10T15:17:41Z</time>
      </trkpt>
      <trkpt lat="48.95664" lon="7.62754">
        <ele>216.5</ele>
        <time>2026-03-10T15:17:46Z</time>
      </trkpt>
      <trkpt lat="48.9567" lon="7.62749">
        <ele>216.7</ele>
        <time>2026-03-10T15:17:51Z</time>
      </trkpt>
      <trkpt lat="48.9568" lon="7.62742">
        <ele>217</ele>
        <time>2026-03-10T15:17:56Z</time>
      </trkpt>
      <trkpt lat="48.95689" lon="7.6274">
        <ele>216</ele>
        <time>2026-03-10T15:18:01Z</time>
      </trkpt>
      <trkpt lat="48.95697" lon="7.62735">
        <ele>216</ele>
        <time>2026-03-10T15:18:06Z</time>
      </trkpt>
      <trkpt lat="48.95705" lon="7.6273">
        <ele>216.1</ele>
        <time>2026-03-10T15:18:11Z</time>
      </trkpt>
      <trkpt lat="48.95711" lon="7.62733">
        <ele>214.2</ele>
        <time>2026-03-10T15:18:16Z</time>
      </trkpt>
      <trkpt lat="48.95715" lon="7.62734">
        <ele>213.3</ele>
        <time>2026-03-10T15:18:21Z</time>
      </trkpt>
      <trkpt lat="48.95715" lon="7.62729">
        <ele>214.7</ele>
        <time>2026-03-10T15:18:26Z</time>
      </trkpt>
      <trkpt lat="48.95717" lon="7.62726">
        <ele>215.2</ele>
        <time>2026-03-10T15:18:31Z</time>
      </trkpt>
      <trkpt lat="48.95721" lon="7.62717">
        <ele>217</ele>
        <time>2026-03-10T15:18:36Z</time>
      </trkpt>
      <trkpt lat="48.95726" lon="7.62711">
        <ele>217.8</ele>
        <time>2026-03-10T15:18:41Z</time>
      </trkpt>
      <trkpt lat="48.95731" lon="7.62705">
        <ele>218.6</ele>
        <time>2026-03-10T15:18:46Z</time>
      </trkpt>
      <trkpt lat="48.95736" lon="7.62696">
        <ele>220.3</ele>
        <time>2026-03-10T15:18:51Z</time>
      </trkpt>
      <trkpt lat="48.95743" lon="7.62688">
        <ele>221.3</ele>
        <time>2026-03-10T15:18:56Z</time>
      </trkpt>
      <trkpt lat="48.95752" lon="7.62681">
        <ele>221.7</ele>
        <time>2026-03-10T15:19:01Z</time>
      </trkpt>
      <trkpt lat="48.95756" lon="7.62676">
        <ele>222.4</ele>
        <time>2026-03-10T15:19:06Z</time>
      </trkpt>
      <trkpt lat="48.95763" lon="7.62675">
        <ele>221.4</ele>
        <time>2026-03-10T15:19:11Z</time>
      </trkpt>
      <trkpt lat="48.95769" lon="7.62672">
        <ele>221</ele>
        <time>2026-03-10T15:19:16Z</time>
      </trkpt>
      <trkpt lat="48.9577" lon="7.62667">
        <ele>222.1</ele>
        <time>2026-03-10T15:19:21Z</time>
      </trkpt>
      <trkpt lat="48.95769" lon="7.62665">
        <ele>222.9</ele>
        <time>2026-03-10T15:19:26Z</time>
      </trkpt>
      <trkpt lat="48.95762" lon="7.62666">
        <ele>223.9</ele>
        <time>2026-03-10T15:19:31Z</time>
      </trkpt>
      <trkpt lat="48.95757" lon="7.62669">
        <ele>224</ele>
        <time>2026-03-10T15:19:36Z</time>
      </trkpt>
      <trkpt lat="48.95753" lon="7.62672">
        <ele>224</ele>
        <time>2026-03-10T15:19:41Z</time>
      </trkpt>
      <trkpt lat="48.95749" lon="7.62673">
        <ele>224.4</ele>
        <time>2026-03-10T15:19:46Z</time>
      </trkpt>
      <trkpt lat="48.95744" lon="7.62674">
        <ele>225</ele>
        <time>2026-03-10T15:19:51Z</time>
      </trkpt>
      <trkpt lat="48.95737" lon="7.62673">
        <ele>226.4</ele>
        <time>2026-03-10T15:19:56Z</time>
      </trkpt>
      <trkpt lat="48.95732" lon="7.62675">
        <ele>226.7</ele>
        <time>2026-03-10T15:20:01Z</time>
      </trkpt>
      <trkpt lat="48.95726" lon="7.62675">
        <ele>227.7</ele>
        <time>2026-03-10T15:20:06Z</time>
      </trkpt>
      <trkpt lat="48.95722" lon="7.62675">
        <ele>228.4</ele>
        <time>2026-03-10T15:20:11Z</time>
      </trkpt>
      <trkpt lat="48.95717" lon="7.62675">
        <ele>229.2</ele>
        <time>2026-03-10T15:20:16Z</time>
      </trkpt>
      <trkpt lat="48.95713" lon="7.62675">
        <ele>229.9</ele>
        <time>2026-03-10T15:20:21Z</time>
      </trkpt>
      <trkpt lat="48.95708" lon="7.62678">
        <ele>229.9</ele>
        <time>2026-03-10T15:20:26Z</time>
      </trkpt>
      <trkpt lat="48.95702" lon="7.62681">
        <ele>230.1</ele>
        <time>2026-03-10T15:20:31Z</time>
      </trkpt>
      <trkpt lat="48.95697" lon="7.62684">
        <ele>230.1</ele>
        <time>2026-03-10T15:20:36Z</time>
      </trkpt>
      <trkpt lat="48.95693" lon="7.62686">
        <ele>230.2</ele>
        <time>2026-03-10T15:20:41Z</time>
      </trkpt>
      <trkpt lat="48.9569" lon="7.62685">
        <ele>231</ele>
        <time>2026-03-10T15:20:46Z</time>
      </trkpt>
      <trkpt lat="48.95687" lon="7.62685">
        <ele>231.5</ele>
        <time>2026-03-10T15:20:51Z</time>
      </trkpt>
      <trkpt lat="48.95683" lon="7.62685">
        <ele>232.2</ele>
        <time>2026-03-10T15:20:56Z</time>
      </trkpt>
      <trkpt lat="48.95678" lon="7.62685">
        <ele>233</ele>
        <time>2026-03-10T15:21:01Z</time>
      </trkpt>
      <trkpt lat="48.95674" lon="7.62686">
        <ele>233.4</ele>
        <time>2026-03-10T15:21:06Z</time>
      </trkpt>
      <trkpt lat="48.95669" lon="7.62692">
        <ele>232.6</ele>
        <time>2026-03-10T15:21:11Z</time>
      </trkpt>
      <trkpt lat="48.95665" lon="7.62695">
        <ele>232.3</ele>
        <time>2026-03-10T15:21:16Z</time>
      </trkpt>
      <trkpt lat="48.9566" lon="7.62695">
        <ele>232.6</ele>
        <time>2026-03-10T15:21:21Z</time>
      </trkpt>
      <trkpt lat="48.95655" lon="7.62696">
        <ele>232.6</ele>
        <time>2026-03-10T15:21:26Z</time>
      </trkpt>
      <trkpt lat="48.9565" lon="7.62698">
        <ele>232.4</ele>
        <time>2026-03-10T15:21:31Z</time>
      </trkpt>
      <trkpt lat="48.95643" lon="7.62701">
        <ele>232</ele>
        <time>2026-03-10T15:21:36Z</time>
      </trkpt>
      <trkpt lat="48.95635" lon="7.62703">
        <ele>232</ele>
        <time>2026-03-10T15:21:41Z</time>
      </trkpt>
      <trkpt lat="48.9563" lon="7.62703">
        <ele>232.3</ele>
        <time>2026-03-10T15:21:46Z</time>
      </trkpt>
      <trkpt lat="48.95627" lon="7.62699">
        <ele>233.5</ele>
        <time>2026-03-10T15:21:51Z</time>
      </trkpt>
      <trkpt lat="48.95623" lon="7.62693">
        <ele>235.3</ele>
        <time>2026-03-10T15:21:56Z</time>
      </trkpt>
      <trkpt lat="48.95622" lon="7.62684">
        <ele>237.7</ele>
        <time>2026-03-10T15:22:01Z</time>
      </trkpt>
      <trkpt lat="48.95623" lon="7.62677">
        <ele>239.4</ele>
        <time>2026-03-10T15:22:06Z</time>
      </trkpt>
      <trkpt lat="48.95623" lon="7.62671">
        <ele>241</ele>
        <time>2026-03-10T15:22:11Z</time>
      </trkpt>
      <trkpt lat="48.95623" lon="7.62664">
        <ele>242.8</ele>
        <time>2026-03-10T15:22:16Z</time>
      </trkpt>
      <trkpt lat="48.95631" lon="7.62663">
        <ele>242.7</ele>
        <time>2026-03-10T15:22:21Z</time>
      </trkpt>
      <trkpt lat="48.95633" lon="7.62662">
        <ele>242.9</ele>
        <time>2026-03-10T15:22:26Z</time>
      </trkpt>
      <trkpt lat="48.95636" lon="7.6266">
        <ele>243.3</ele>
        <time>2026-03-10T15:22:31Z</time>
      </trkpt>
      <trkpt lat="48.95642" lon="7.62657">
        <ele>243.9</ele>
        <time>2026-03-10T15:22:36Z</time>
      </trkpt>
      <trkpt lat="48.95646" lon="7.62657">
        <ele>243.7</ele>
        <time>2026-03-10T15:22:41Z</time>
      </trkpt>
      <trkpt lat="48.95652" lon="7.62659">
        <ele>242.8</ele>
        <time>2026-03-10T15:22:46Z</time>
      </trkpt>
      <trkpt lat="48.95656" lon="7.62662">
        <ele>241.8</ele>
        <time>2026-03-10T15:22:51Z</time>
      </trkpt>
      <trkpt lat="48.95656" lon="7.62661">
        <ele>242.1</ele>
        <time>2026-03-10T15:22:56Z</time>
      </trkpt>
      <trkpt lat="48.95656" lon="7.62661">
        <ele>242.1</ele>
        <time>2026-03-10T15:23:01Z</time>
      </trkpt>
      <trkpt lat="48.95663" lon="7.6266">
        <ele>242</ele>
        <time>2026-03-10T15:23:06Z</time>
      </trkpt>
      <trkpt lat="48.95666" lon="7.62661">
        <ele>241.6</ele>
        <time>2026-03-10T15:23:11Z</time>
      </trkpt>
      <trkpt lat="48.9567" lon="7.6266">
        <ele>241.3</ele>
        <time>2026-03-10T15:23:16Z</time>
      </trkpt>
      <trkpt lat="48.95674" lon="7.62658">
        <ele>241.2</ele>
        <time>2026-03-10T15:23:21Z</time>
      </trkpt>
      <trkpt lat="48.95674" lon="7.62658">
        <ele>241.2</ele>
        <time>2026-03-10T15:23:26Z</time>
      </trkpt>
      <trkpt lat="48.95674" lon="7.62658">
        <ele>241.2</ele>
        <time>2026-03-10T15:23:31Z</time>
      </trkpt>
      <trkpt lat="48.95674" lon="7.62658">
        <ele>241.2</ele>
        <time>2026-03-10T15:23:36Z</time>
      </trkpt>
      <trkpt lat="48.95663" lon="7.62649">
        <ele>245.1</ele>
        <time>2026-03-10T15:23:41Z</time>
      </trkpt>
      <trkpt lat="48.95654" lon="7.6265">
        <ele>245.2</ele>
        <time>2026-03-10T15:23:46Z</time>
      </trkpt>
      <trkpt lat="48.95649" lon="7.62649">
        <ele>245.8</ele>
        <time>2026-03-10T15:23:51Z</time>
      </trkpt>
      <trkpt lat="48.95644" lon="7.62645">
        <ele>247.1</ele>
        <time>2026-03-10T15:23:56Z</time>
      </trkpt>
      <trkpt lat="48.95641" lon="7.62641">
        <ele>248.4</ele>
        <time>2026-03-10T15:24:01Z</time>
      </trkpt>
      <trkpt lat="48.95637" lon="7.62638">
        <ele>249.5</ele>
        <time>2026-03-10T15:24:06Z</time>
      </trkpt>
      <trkpt lat="48.95633" lon="7.62634">
        <ele>250.8</ele>
        <time>2026-03-10T15:24:11Z</time>
      </trkpt>
      <trkpt lat="48.9563" lon="7.62628">
        <ele>252.6</ele>
        <time>2026-03-10T15:24:16Z</time>
      </trkpt>
      <trkpt lat="48.95631" lon="7.62625">
        <ele>253.4</ele>
        <time>2026-03-10T15:24:21Z</time>
      </trkpt>
      <trkpt lat="48.9563" lon="7.62624">
        <ele>253.8</ele>
        <time>2026-03-10T15:24:26Z</time>
      </trkpt>
      <trkpt lat="48.9563" lon="7.62624">
        <ele>253.8</ele>
        <time>2026-03-10T15:24:31Z</time>
      </trkpt>
      <trkpt lat="48.95625" lon="7.62619">
        <ele>255.4</ele>
        <time>2026-03-10T15:24:36Z</time>
      </trkpt>
      <trkpt lat="48.95623" lon="7.62615">
        <ele>256.7</ele>
        <time>2026-03-10T15:24:41Z</time>
      </trkpt>
      <trkpt lat="48.95622" lon="7.62615">
        <ele>256.7</ele>
        <time>2026-03-10T15:24:46Z</time>
      </trkpt>
      <trkpt lat="48.95622" lon="7.62615">
        <ele>256.7</ele>
        <time>2026-03-10T15:24:51Z</time>
      </trkpt>
      <trkpt lat="48.95622" lon="7.62615">
        <ele>256.7</ele>
        <time>2026-03-10T15:24:56Z</time>
      </trkpt>
      <trkpt lat="48.95615" lon="7.62602">
        <ele>260.8</ele>
        <time>2026-03-10T15:25:01Z</time>
      </trkpt>
      <trkpt lat="48.95615" lon="7.62602">
        <ele>260.8</ele>
        <time>2026-03-10T15:25:06Z</time>
      </trkpt>
      <trkpt lat="48.95615" lon="7.62602">
        <ele>260.8</ele>
        <time>2026-03-10T15:25:11Z</time>
      </trkpt>
      <trkpt lat="48.95615" lon="7.62602">
        <ele>260.8</ele>
        <time>2026-03-10T15:25:16Z</time>
      </trkpt>
      <trkpt lat="48.95615" lon="7.62602">
        <ele>260.8</ele>
        <time>2026-03-10T15:25:21Z</time>
      </trkpt>
      <trkpt lat="48.95615" lon="7.62602">
        <ele>260.8</ele>
        <time>2026-03-10T15:25:26Z</time>
      </trkpt>
      <trkpt lat="48.95615" lon="7.62602">
        <ele>260.8</ele>
        <time>2026-03-10T15:25:31Z</time>
      </trkpt>
      <trkpt lat="48.9561" lon="7.62589">
        <ele>264.8</ele>
        <time>2026-03-10T15:25:36Z</time>
      </trkpt>
      <trkpt lat="48.95607" lon="7.62586">
        <ele>265.8</ele>
        <time>2026-03-10T15:25:41Z</time>
      </trkpt>
      <trkpt lat="48.95603" lon="7.62583">
        <ele>266.9</ele>
        <time>2026-03-10T15:25:46Z</time>
      </trkpt>
      <trkpt lat="48.95601" lon="7.62583">
        <ele>267</ele>
        <time>2026-03-10T15:25:51Z</time>
      </trkpt>
      <trkpt lat="48.95601" lon="7.62583">
        <ele>267</ele>
        <time>2026-03-10T15:25:56Z</time>
      </trkpt>
      <trkpt lat="48.95594" lon="7.62583">
        <ele>267.4</ele>
        <time>2026-03-10T15:26:01Z</time>
      </trkpt>
      <trkpt lat="48.9559" lon="7.62582">
        <ele>267.8</ele>
        <time>2026-03-10T15:26:06Z</time>
      </trkpt>
      <trkpt lat="48.95588" lon="7.62583">
        <ele>267.8</ele>
        <time>2026-03-10T15:26:11Z</time>
      </trkpt>
      <trkpt lat="48.95588" lon="7.62583">
        <ele>267.8</ele>
        <time>2026-03-10T15:26:16Z</time>
      </trkpt>
      <trkpt lat="48.95588" lon="7.62583">
        <ele>267.8</ele>
        <time>2026-03-10T15:26:21Z</time>
      </trkpt>
      <trkpt lat="48.95588" lon="7.62583">
        <ele>267.8</ele>
        <time>2026-03-10T15:26:26Z</time>
      </trkpt>
      <trkpt lat="48.95588" lon="7.62583">
        <ele>267.8</ele>
        <time>2026-03-10T15:26:31Z</time>
      </trkpt>
      <trkpt lat="48.95584" lon="7.62572">
        <ele>269.2</ele>
        <time>2026-03-10T15:26:36Z</time>
      </trkpt>
      <trkpt lat="48.95584" lon="7.62572">
        <ele>269.2</ele>
        <time>2026-03-10T15:26:41Z</time>
      </trkpt>
      <trkpt lat="48.95584" lon="7.62572">
        <ele>269.2</ele>
        <time>2026-03-10T15:26:46Z</time>
      </trkpt>
      <trkpt lat="48.95593" lon="7.62565">
        <ele>269.7</ele>
        <time>2026-03-10T15:26:51Z</time>
      </trkpt>
      <trkpt lat="48.95593" lon="7.62565">
        <ele>269.7</ele>
        <time>2026-03-10T15:26:56Z</time>
      </trkpt>
      <trkpt lat="48.95605" lon="7.62567">
        <ele>269</ele>
        <time>2026-03-10T15:27:01Z</time>
      </trkpt>
      <trkpt lat="48.9561" lon="7.6257">
        <ele>268.4</ele>
        <time>2026-03-10T15:27:06Z</time>
      </trkpt>
      <trkpt lat="48.95615" lon="7.62571">
        <ele>268</ele>
        <time>2026-03-10T15:27:11Z</time>
      </trkpt>
      <trkpt lat="48.95621" lon="7.6257">
        <ele>267.9</ele>
        <time>2026-03-10T15:27:16Z</time>
      </trkpt>
      <trkpt lat="48.95623" lon="7.62566">
        <ele>268.5</ele>
        <time>2026-03-10T15:27:21Z</time>
      </trkpt>
      <trkpt lat="48.95625" lon="7.62565">
        <ele>268.6</ele>
        <time>2026-03-10T15:27:26Z</time>
      </trkpt>
      <trkpt lat="48.95626" lon="7.62564">
        <ele>268.7</ele>
        <time>2026-03-10T15:27:31Z</time>
      </trkpt>
      <trkpt lat="48.95626" lon="7.62564">
        <ele>268.7</ele>
        <time>2026-03-10T15:27:36Z</time>
      </trkpt>
      <trkpt lat="48.95626" lon="7.62564">
        <ele>268.7</ele>
        <time>2026-03-10T15:27:41Z</time>
      </trkpt>
      <trkpt lat="48.95621" lon="7.62551">
        <ele>271</ele>
        <time>2026-03-10T15:27:46Z</time>
      </trkpt>
      <trkpt lat="48.95615" lon="7.62549">
        <ele>271.4</ele>
        <time>2026-03-10T15:27:51Z</time>
      </trkpt>
      <trkpt lat="48.95611" lon="7.62544">
        <ele>272.2</ele>
        <time>2026-03-10T15:27:56Z</time>
      </trkpt>
      <trkpt lat="48.95607" lon="7.62541">
        <ele>272.6</ele>
        <time>2026-03-10T15:28:01Z</time>
      </trkpt>
      <trkpt lat="48.95603" lon="7.62535">
        <ele>273.4</ele>
        <time>2026-03-10T15:28:06Z</time>
      </trkpt>
      <trkpt lat="48.956" lon="7.62532">
        <ele>273.8</ele>
        <time>2026-03-10T15:28:11Z</time>
      </trkpt>
      <trkpt lat="48.95599" lon="7.62526">
        <ele>274.5</ele>
        <time>2026-03-10T15:28:16Z</time>
      </trkpt>
      <trkpt lat="48.95595" lon="7.62524">
        <ele>274.7</ele>
        <time>2026-03-10T15:28:21Z</time>
      </trkpt>
      <trkpt lat="48.95593" lon="7.62523">
        <ele>274.8</ele>
        <time>2026-03-10T15:28:26Z</time>
      </trkpt>
      <trkpt lat="48.95589" lon="7.62522">
        <ele>274.8</ele>
        <time>2026-03-10T15:28:31Z</time>
      </trkpt>
      <trkpt lat="48.95586" lon="7.62521">
        <ele>274.8</ele>
        <time>2026-03-10T15:28:36Z</time>
      </trkpt>
      <trkpt lat="48.95585" lon="7.62519">
        <ele>275</ele>
        <time>2026-03-10T15:28:41Z</time>
      </trkpt>
      <trkpt lat="48.95585" lon="7.62519">
        <ele>275</ele>
        <time>2026-03-10T15:28:46Z</time>
      </trkpt>
      <trkpt lat="48.95585" lon="7.62519">
        <ele>275</ele>
        <time>2026-03-10T15:28:51Z</time>
      </trkpt>
      <trkpt lat="48.95573" lon="7.6252">
        <ele>273</ele>
        <time>2026-03-10T15:28:56Z</time>
      </trkpt>
      <trkpt lat="48.95572" lon="7.62515">
        <ele>273.3</ele>
        <time>2026-03-10T15:29:01Z</time>
      </trkpt>
      <trkpt lat="48.95572" lon="7.62514">
        <ele>273.4</ele>
        <time>2026-03-10T15:29:06Z</time>
      </trkpt>
      <trkpt lat="48.95572" lon="7.62514">
        <ele>273.4</ele>
        <time>2026-03-10T15:29:11Z</time>
      </trkpt>
      <trkpt lat="48.95572" lon="7.62514">
        <ele>273.4</ele>
        <time>2026-03-10T15:29:16Z</time>
      </trkpt>
      <trkpt lat="48.95563" lon="7.62515">
        <ele>271.7</ele>
        <time>2026-03-10T15:29:21Z</time>
      </trkpt>
      <trkpt lat="48.95559" lon="7.62522">
        <ele>270.3</ele>
        <time>2026-03-10T15:29:26Z</time>
      </trkpt>
      <trkpt lat="48.95555" lon="7.62528">
        <ele>269.1</ele>
        <time>2026-03-10T15:29:31Z</time>
      </trkpt>
      <trkpt lat="48.95552" lon="7.62533">
        <ele>268.2</ele>
        <time>2026-03-10T15:29:36Z</time>
      </trkpt>
      <trkpt lat="48.95549" lon="7.62535">
        <ele>267.5</ele>
        <time>2026-03-10T15:29:41Z</time>
      </trkpt>
      <trkpt lat="48.95547" lon="7.62537">
        <ele>267</ele>
        <time>2026-03-10T15:29:46Z</time>
      </trkpt>
      <trkpt lat="48.95546" lon="7.62538">
        <ele>266.7</ele>
        <time>2026-03-10T15:29:51Z</time>
      </trkpt>
      <trkpt lat="48.9554" lon="7.62541">
        <ele>265.5</ele>
        <time>2026-03-10T15:29:56Z</time>
      </trkpt>
      <trkpt lat="48.95536" lon="7.62539">
        <ele>265</ele>
        <time>2026-03-10T15:30:01Z</time>
      </trkpt>
      <trkpt lat="48.95533" lon="7.62532">
        <ele>265</ele>
        <time>2026-03-10T15:30:06Z</time>
      </trkpt>
      <trkpt lat="48.95534" lon="7.62521">
        <ele>266</ele>
        <time>2026-03-10T15:30:11Z</time>
      </trkpt>
      <trkpt lat="48.95536" lon="7.62511">
        <ele>267.1</ele>
        <time>2026-03-10T15:30:16Z</time>
      </trkpt>
      <trkpt lat="48.95535" lon="7.62504">
        <ele>267.4</ele>
        <time>2026-03-10T15:30:21Z</time>
      </trkpt>
      <trkpt lat="48.95535" lon="7.62499">
        <ele>267.7</ele>
        <time>2026-03-10T15:30:26Z</time>
      </trkpt>
      <trkpt lat="48.95536" lon="7.62493">
        <ele>268</ele>
        <time>2026-03-10T15:30:31Z</time>
      </trkpt>
      <trkpt lat="48.95537" lon="7.62488">
        <ele>268.3</ele>
        <time>2026-03-10T15:30:36Z</time>
      </trkpt>
      <trkpt lat="48.95537" lon="7.62482">
        <ele>268.4</ele>
        <time>2026-03-10T15:30:41Z</time>
      </trkpt>
      <trkpt lat="48.95535" lon="7.62477">
        <ele>268.1</ele>
        <time>2026-03-10T15:30:46Z</time>
      </trkpt>
      <trkpt lat="48.95533" lon="7.62471">
        <ele>267.7</ele>
        <time>2026-03-10T15:30:51Z</time>
      </trkpt>
      <trkpt lat="48.95532" lon="7.62466">
        <ele>267.6</ele>
        <time>2026-03-10T15:30:56Z</time>
      </trkpt>
      <trkpt lat="48.9553" lon="7.62464">
        <ele>267.2</ele>
        <time>2026-03-10T15:31:01Z</time>
      </trkpt>
      <trkpt lat="48.95529" lon="7.62459">
        <ele>267.1</ele>
        <time>2026-03-10T15:31:06Z</time>
      </trkpt>
      <trkpt lat="48.95528" lon="7.6245">
        <ele>267</ele>
        <time>2026-03-10T15:31:11Z</time>
      </trkpt>
      <trkpt lat="48.95531" lon="7.62443">
        <ele>267.7</ele>
        <time>2026-03-10T15:31:16Z</time>
      </trkpt>
      <trkpt lat="48.95536" lon="7.62441">
        <ele>268.8</ele>
        <time>2026-03-10T15:31:21Z</time>
      </trkpt>
      <trkpt lat="48.9554" lon="7.62444">
        <ele>269.6</ele>
        <time>2026-03-10T15:31:26Z</time>
      </trkpt>
      <trkpt lat="48.95547" lon="7.62446">
        <ele>271.1</ele>
        <time>2026-03-10T15:31:31Z</time>
      </trkpt>
      <trkpt lat="48.95553" lon="7.62447">
        <ele>272.4</ele>
        <time>2026-03-10T15:31:36Z</time>
      </trkpt>
      <trkpt lat="48.95555" lon="7.62449">
        <ele>272.8</ele>
        <time>2026-03-10T15:31:41Z</time>
      </trkpt>
      <trkpt lat="48.95557" lon="7.62451">
        <ele>273.2</ele>
        <time>2026-03-10T15:31:46Z</time>
      </trkpt>
      <trkpt lat="48.95559" lon="7.62457">
        <ele>273.4</ele>
        <time>2026-03-10T15:31:51Z</time>
      </trkpt>
      <trkpt lat="48.95562" lon="7.62464">
        <ele>273.9</ele>
        <time>2026-03-10T15:31:56Z</time>
      </trkpt>
      <trkpt lat="48.95566" lon="7.62466">
        <ele>274.6</ele>
        <time>2026-03-10T15:32:01Z</time>
      </trkpt>
      <trkpt lat="48.95571" lon="7.62467">
        <ele>275.6</ele>
        <time>2026-03-10T15:32:06Z</time>
      </trkpt>
      <trkpt lat="48.95576" lon="7.62468">
        <ele>276.6</ele>
        <time>2026-03-10T15:32:11Z</time>
      </trkpt>
      <trkpt lat="48.9558" lon="7.62467">
        <ele>277.5</ele>
        <time>2026-03-10T15:32:16Z</time>
      </trkpt>
      <trkpt lat="48.95584" lon="7.62468">
        <ele>278.3</ele>
        <time>2026-03-10T15:32:21Z</time>
      </trkpt>
      <trkpt lat="48.95589" lon="7.62468">
        <ele>279</ele>
        <time>2026-03-10T15:32:26Z</time>
      </trkpt>
      <trkpt lat="48.95594" lon="7.6247">
        <ele>279.6</ele>
        <time>2026-03-10T15:32:31Z</time>
      </trkpt>
      <trkpt lat="48.95598" lon="7.62474">
        <ele>279.9</ele>
        <time>2026-03-10T15:32:36Z</time>
      </trkpt>
      <trkpt lat="48.95601" lon="7.62476">
        <ele>280.1</ele>
        <time>2026-03-10T15:32:41Z</time>
      </trkpt>
      <trkpt lat="48.95605" lon="7.62478">
        <ele>280.4</ele>
        <time>2026-03-10T15:32:46Z</time>
      </trkpt>
      <trkpt lat="48.95609" lon="7.62479">
        <ele>280.8</ele>
        <time>2026-03-10T15:32:51Z</time>
      </trkpt>
      <trkpt lat="48.95613" lon="7.62481">
        <ele>281</ele>
        <time>2026-03-10T15:32:56Z</time>
      </trkpt>
      <trkpt lat="48.95617" lon="7.6248">
        <ele>281.6</ele>
        <time>2026-03-10T15:33:01Z</time>
      </trkpt>
      <trkpt lat="48.95622" lon="7.6248">
        <ele>282.2</ele>
        <time>2026-03-10T15:33:06Z</time>
      </trkpt>
      <trkpt lat="48.95626" lon="7.62481">
        <ele>282.5</ele>
        <time>2026-03-10T15:33:11Z</time>
      </trkpt>
      <trkpt lat="48.95629" lon="7.62483">
        <ele>282.5</ele>
        <time>2026-03-10T15:33:16Z</time>
      </trkpt>
      <trkpt lat="48.95633" lon="7.62484">
        <ele>282.7</ele>
        <time>2026-03-10T15:33:21Z</time>
      </trkpt>
      <trkpt lat="48.95637" lon="7.62487">
        <ele>282.6</ele>
        <time>2026-03-10T15:33:26Z</time>
      </trkpt>
      <trkpt lat="48.95641" lon="7.62486">
        <ele>283.2</ele>
        <time>2026-03-10T15:33:31Z</time>
      </trkpt>
      <trkpt lat="48.95644" lon="7.62485">
        <ele>283.7</ele>
        <time>2026-03-10T15:33:36Z</time>
      </trkpt>
      <trkpt lat="48.95648" lon="7.6248">
        <ele>285.1</ele>
        <time>2026-03-10T15:33:41Z</time>
      </trkpt>
      <trkpt lat="48.95651" lon="7.62476">
        <ele>286.4</ele>
        <time>2026-03-10T15:33:46Z</time>
      </trkpt>
      <trkpt lat="48.95655" lon="7.62474">
        <ele>287.3</ele>
        <time>2026-03-10T15:33:51Z</time>
      </trkpt>
      <trkpt lat="48.95659" lon="7.62474">
        <ele>287.9</ele>
        <time>2026-03-10T15:33:56Z</time>
      </trkpt>
      <trkpt lat="48.95662" lon="7.62469">
        <ele>289.5</ele>
        <time>2026-03-10T15:34:01Z</time>
      </trkpt>
      <trkpt lat="48.95667" lon="7.62465">
        <ele>291.3</ele>
        <time>2026-03-10T15:34:06Z</time>
      </trkpt>
      <trkpt lat="48.9567" lon="7.62461">
        <ele>292.5</ele>
        <time>2026-03-10T15:34:11Z</time>
      </trkpt>
      <trkpt lat="48.95673" lon="7.6246">
        <ele>292.9</ele>
        <time>2026-03-10T15:34:16Z</time>
      </trkpt>
      <trkpt lat="48.95677" lon="7.62457">
        <ele>293.9</ele>
        <time>2026-03-10T15:34:21Z</time>
      </trkpt>
      <trkpt lat="48.95679" lon="7.62454">
        <ele>294.8</ele>
        <time>2026-03-10T15:34:26Z</time>
      </trkpt>
      <trkpt lat="48.95683" lon="7.62449">
        <ele>296.5</ele>
        <time>2026-03-10T15:34:31Z</time>
      </trkpt>
      <trkpt lat="48.95687" lon="7.62445">
        <ele>297.8</ele>
        <time>2026-03-10T15:34:36Z</time>
      </trkpt>
      <trkpt lat="48.95692" lon="7.62438">
        <ele>300.1</ele>
        <time>2026-03-10T15:34:41Z</time>
      </trkpt>
      <trkpt lat="48.95694" lon="7.62434">
        <ele>301.4</ele>
        <time>2026-03-10T15:34:46Z</time>
      </trkpt>
      <trkpt lat="48.95697" lon="7.62428">
        <ele>303.3</ele>
        <time>2026-03-10T15:34:51Z</time>
      </trkpt>
      <trkpt lat="48.95701" lon="7.62426">
        <ele>304.2</ele>
        <time>2026-03-10T15:34:56Z</time>
      </trkpt>
      <trkpt lat="48.95705" lon="7.62423">
        <ele>305.4</ele>
        <time>2026-03-10T15:35:01Z</time>
      </trkpt>
      <trkpt lat="48.95707" lon="7.62419">
        <ele>306.7</ele>
        <time>2026-03-10T15:35:06Z</time>
      </trkpt>
      <trkpt lat="48.95712" lon="7.62415">
        <ele>308.3</ele>
        <time>2026-03-10T15:35:11Z</time>
      </trkpt>
      <trkpt lat="48.95716" lon="7.6241">
        <ele>310.1</ele>
        <time>2026-03-10T15:35:16Z</time>
      </trkpt>
      <trkpt lat="48.95721" lon="7.62404">
        <ele>312.4</ele>
        <time>2026-03-10T15:35:21Z</time>
      </trkpt>
      <trkpt lat="48.95725" lon="7.62399">
        <ele>314.3</ele>
        <time>2026-03-10T15:35:26Z</time>
      </trkpt>
      <trkpt lat="48.95727" lon="7.62395">
        <ele>315.8</ele>
        <time>2026-03-10T15:35:31Z</time>
      </trkpt>
      <trkpt lat="48.95728" lon="7.62391">
        <ele>317.2</ele>
        <time>2026-03-10T15:35:36Z</time>
      </trkpt>
      <trkpt lat="48.9573" lon="7.62385">
        <ele>319.3</ele>
        <time>2026-03-10T15:35:41Z</time>
      </trkpt>
      <trkpt lat="48.95734" lon="7.62382">
        <ele>320.8</ele>
        <time>2026-03-10T15:35:46Z</time>
      </trkpt>
      <trkpt lat="48.95735" lon="7.62376">
        <ele>322.9</ele>
        <time>2026-03-10T15:35:51Z</time>
      </trkpt>
      <trkpt lat="48.95738" lon="7.62368">
        <ele>326</ele>
        <time>2026-03-10T15:35:56Z</time>
      </trkpt>
      <trkpt lat="48.95739" lon="7.62362">
        <ele>328.1</ele>
        <time>2026-03-10T15:36:01Z</time>
      </trkpt>
      <trkpt lat="48.95741" lon="7.62357">
        <ele>330.2</ele>
        <time>2026-03-10T15:36:06Z</time>
      </trkpt>
      <trkpt lat="48.95745" lon="7.6235">
        <ele>333.3</ele>
        <time>2026-03-10T15:36:11Z</time>
      </trkpt>
      <trkpt lat="48.95747" lon="7.62345">
        <ele>335.3</ele>
        <time>2026-03-10T15:36:16Z</time>
      </trkpt>
      <trkpt lat="48.95748" lon="7.6234">
        <ele>337.3</ele>
        <time>2026-03-10T15:36:21Z</time>
      </trkpt>
      <trkpt lat="48.95751" lon="7.62335">
        <ele>339.1</ele>
        <time>2026-03-10T15:36:26Z</time>
      </trkpt>
      <trkpt lat="48.95755" lon="7.6233">
        <ele>339.2</ele>
        <time>2026-03-10T15:36:31Z</time>
      </trkpt>
      <trkpt lat="48.9576" lon="7.62325">
        <ele>338.7</ele>
        <time>2026-03-10T15:36:36Z</time>
      </trkpt>
      <trkpt lat="48.95763" lon="7.62322">
        <ele>338.4</ele>
        <time>2026-03-10T15:36:41Z</time>
      </trkpt>
      <trkpt lat="48.95766" lon="7.62317">
        <ele>338.6</ele>
        <time>2026-03-10T15:36:46Z</time>
      </trkpt>
      <trkpt lat="48.95768" lon="7.62314">
        <ele>338.6</ele>
        <time>2026-03-10T15:36:51Z</time>
      </trkpt>
      <trkpt lat="48.95773" lon="7.62308">
        <ele>338.4</ele>
        <time>2026-03-10T15:36:56Z</time>
      </trkpt>
      <trkpt lat="48.95775" lon="7.62304">
        <ele>338.7</ele>
        <time>2026-03-10T15:37:01Z</time>
      </trkpt>
      <trkpt lat="48.95777" lon="7.62299">
        <ele>339.1</ele>
        <time>2026-03-10T15:37:06Z</time>
      </trkpt>
      <trkpt lat="48.95779" lon="7.62294">
        <ele>339.6</ele>
        <time>2026-03-10T15:37:11Z</time>
      </trkpt>
      <trkpt lat="48.9578" lon="7.6229">
        <ele>340.1</ele>
        <time>2026-03-10T15:37:16Z</time>
      </trkpt>
      <trkpt lat="48.95781" lon="7.62283">
        <ele>341.2</ele>
        <time>2026-03-10T15:37:21Z</time>
      </trkpt>
      <trkpt lat="48.95785" lon="7.62276">
        <ele>341.7</ele>
        <time>2026-03-10T15:37:26Z</time>
      </trkpt>
      <trkpt lat="48.95787" lon="7.62272">
        <ele>342.1</ele>
        <time>2026-03-10T15:37:31Z</time>
      </trkpt>
      <trkpt lat="48.9579" lon="7.62266">
        <ele>342.6</ele>
        <time>2026-03-10T15:37:36Z</time>
      </trkpt>
      <trkpt lat="48.95792" lon="7.62261">
        <ele>343.2</ele>
        <time>2026-03-10T15:37:41Z</time>
      </trkpt>
      <trkpt lat="48.95794" lon="7.62256">
        <ele>343.8</ele>
        <time>2026-03-10T15:37:46Z</time>
      </trkpt>
      <trkpt lat="48.95794" lon="7.62251">
        <ele>344.8</ele>
        <time>2026-03-10T15:37:51Z</time>
      </trkpt>
      <trkpt lat="48.95794" lon="7.62244">
        <ele>345.7</ele>
        <time>2026-03-10T15:37:56Z</time>
      </trkpt>
      <trkpt lat="48.95795" lon="7.62236">
        <ele>346.4</ele>
        <time>2026-03-10T15:38:01Z</time>
      </trkpt>
      <trkpt lat="48.95796" lon="7.62231">
        <ele>346.8</ele>
        <time>2026-03-10T15:38:06Z</time>
      </trkpt>
      <trkpt lat="48.95797" lon="7.62225">
        <ele>347.3</ele>
        <time>2026-03-10T15:38:11Z</time>
      </trkpt>
      <trkpt lat="48.95798" lon="7.6222">
        <ele>347.7</ele>
        <time>2026-03-10T15:38:16Z</time>
      </trkpt>
      <trkpt lat="48.95797" lon="7.62214">
        <ele>348.5</ele>
        <time>2026-03-10T15:38:21Z</time>
      </trkpt>
      <trkpt lat="48.95796" lon="7.62208">
        <ele>349.4</ele>
        <time>2026-03-10T15:38:26Z</time>
      </trkpt>
      <trkpt lat="48.95795" lon="7.62199">
        <ele>350.7</ele>
        <time>2026-03-10T15:38:31Z</time>
      </trkpt>
      <trkpt lat="48.95797" lon="7.62191">
        <ele>351.2</ele>
        <time>2026-03-10T15:38:36Z</time>
      </trkpt>
      <trkpt lat="48.95799" lon="7.62182">
        <ele>351.8</ele>
        <time>2026-03-10T15:38:41Z</time>
      </trkpt>
      <trkpt lat="48.95801" lon="7.62177">
        <ele>352</ele>
        <time>2026-03-10T15:38:46Z</time>
      </trkpt>
      <trkpt lat="48.95802" lon="7.6217">
        <ele>352.6</ele>
        <time>2026-03-10T15:38:51Z</time>
      </trkpt>
      <trkpt lat="48.95801" lon="7.62162">
        <ele>353.5</ele>
        <time>2026-03-10T15:38:56Z</time>
      </trkpt>
      <trkpt lat="48.95799" lon="7.62156">
        <ele>354.4</ele>
        <time>2026-03-10T15:39:01Z</time>
      </trkpt>
      <trkpt lat="48.95798" lon="7.62151">
        <ele>355</ele>
        <time>2026-03-10T15:39:06Z</time>
      </trkpt>
      <trkpt lat="48.95798" lon="7.62145">
        <ele>355.4</ele>
        <time>2026-03-10T15:39:11Z</time>
      </trkpt>
      <trkpt lat="48.95798" lon="7.62138">
        <ele>356</ele>
        <time>2026-03-10T15:39:16Z</time>
      </trkpt>
      <trkpt lat="48.95798" lon="7.62132">
        <ele>356.4</ele>
        <time>2026-03-10T15:39:21Z</time>
      </trkpt>
      <trkpt lat="48.95797" lon="7.62126">
        <ele>357.1</ele>
        <time>2026-03-10T15:39:26Z</time>
      </trkpt>
      <trkpt lat="48.95795" lon="7.62118">
        <ele>358.3</ele>
        <time>2026-03-10T15:39:31Z</time>
      </trkpt>
      <trkpt lat="48.95796" lon="7.62111">
        <ele>358.6</ele>
        <time>2026-03-10T15:39:36Z</time>
      </trkpt>
      <trkpt lat="48.95795" lon="7.62107">
        <ele>359.1</ele>
        <time>2026-03-10T15:39:41Z</time>
      </trkpt>
      <trkpt lat="48.95794" lon="7.62101">
        <ele>359.9</ele>
        <time>2026-03-10T15:39:46Z</time>
      </trkpt>
      <trkpt lat="48.95794" lon="7.62094">
        <ele>360.5</ele>
        <time>2026-03-10T15:39:51Z</time>
      </trkpt>
      <trkpt lat="48.95794" lon="7.62086">
        <ele>361.1</ele>
        <time>2026-03-10T15:39:56Z</time>
      </trkpt>
      <trkpt lat="48.95794" lon="7.62078">
        <ele>361.7</ele>
        <time>2026-03-10T15:40:01Z</time>
      </trkpt>
      <trkpt lat="48.95794" lon="7.6207">
        <ele>362.4</ele>
        <time>2026-03-10T15:40:06Z</time>
      </trkpt>
      <trkpt lat="48.95791" lon="7.62065">
        <ele>363.6</ele>
        <time>2026-03-10T15:40:11Z</time>
      </trkpt>
      <trkpt lat="48.9579" lon="7.62058">
        <ele>364.5</ele>
        <time>2026-03-10T15:40:16Z</time>
      </trkpt>
      <trkpt lat="48.95791" lon="7.62053">
        <ele>364.6</ele>
        <time>2026-03-10T15:40:21Z</time>
      </trkpt>
      <trkpt lat="48.95789" lon="7.62047">
        <ele>365.6</ele>
        <time>2026-03-10T15:40:26Z</time>
      </trkpt>
      <trkpt lat="48.95789" lon="7.62041">
        <ele>366.1</ele>
        <time>2026-03-10T15:40:31Z</time>
      </trkpt>
      <trkpt lat="48.95788" lon="7.62035">
        <ele>366.9</ele>
        <time>2026-03-10T15:40:36Z</time>
      </trkpt>
      <trkpt lat="48.95787" lon="7.62027">
        <ele>367.9</ele>
        <time>2026-03-10T15:40:41Z</time>
      </trkpt>
      <trkpt lat="48.95785" lon="7.6202">
        <ele>369</ele>
        <time>2026-03-10T15:40:46Z</time>
      </trkpt>
      <trkpt lat="48.95785" lon="7.62013">
        <ele>369.6</ele>
        <time>2026-03-10T15:40:51Z</time>
      </trkpt>
      <trkpt lat="48.95785" lon="7.62005">
        <ele>370.3</ele>
        <time>2026-03-10T15:40:56Z</time>
      </trkpt>
      <trkpt lat="48.95786" lon="7.61998">
        <ele>370.4</ele>
        <time>2026-03-10T15:41:01Z</time>
      </trkpt>
      <trkpt lat="48.95785" lon="7.61992">
        <ele>370.8</ele>
        <time>2026-03-10T15:41:06Z</time>
      </trkpt>
      <trkpt lat="48.95783" lon="7.61987">
        <ele>371.6</ele>
        <time>2026-03-10T15:41:11Z</time>
      </trkpt>
      <trkpt lat="48.95782" lon="7.61981">
        <ele>372.1</ele>
        <time>2026-03-10T15:41:16Z</time>
      </trkpt>
      <trkpt lat="48.95783" lon="7.61975">
        <ele>371.9</ele>
        <time>2026-03-10T15:41:21Z</time>
      </trkpt>
      <trkpt lat="48.95785" lon="7.61968">
        <ele>371.4</ele>
        <time>2026-03-10T15:41:26Z</time>
      </trkpt>
      <trkpt lat="48.95782" lon="7.61966">
        <ele>372.5</ele>
        <time>2026-03-10T15:41:31Z</time>
      </trkpt>
      <trkpt lat="48.95779" lon="7.61962">
        <ele>373.6</ele>
        <time>2026-03-10T15:41:36Z</time>
      </trkpt>
      <trkpt lat="48.95776" lon="7.61956">
        <ele>374.9</ele>
        <time>2026-03-10T15:41:41Z</time>
      </trkpt>
      <trkpt lat="48.95774" lon="7.61951">
        <ele>375.7</ele>
        <time>2026-03-10T15:41:46Z</time>
      </trkpt>
      <trkpt lat="48.95773" lon="7.61944">
        <ele>376.3</ele>
        <time>2026-03-10T15:41:51Z</time>
      </trkpt>
      <trkpt lat="48.95773" lon="7.61934">
        <ele>376.6</ele>
        <time>2026-03-10T15:41:56Z</time>
      </trkpt>
      <trkpt lat="48.9577" lon="7.61927">
        <ele>378</ele>
        <time>2026-03-10T15:42:01Z</time>
      </trkpt>
      <trkpt lat="48.95767" lon="7.61923">
        <ele>379.2</ele>
        <time>2026-03-10T15:42:06Z</time>
      </trkpt>
      <trkpt lat="48.95766" lon="7.61918">
        <ele>379.8</ele>
        <time>2026-03-10T15:42:11Z</time>
      </trkpt>
      <trkpt lat="48.95766" lon="7.61912">
        <ele>380</ele>
        <time>2026-03-10T15:42:16Z</time>
      </trkpt>
      <trkpt lat="48.95764" lon="7.61908">
        <ele>380.8</ele>
        <time>2026-03-10T15:42:21Z</time>
      </trkpt>
      <trkpt lat="48.9576" lon="7.61904">
        <ele>382.5</ele>
        <time>2026-03-10T15:42:26Z</time>
      </trkpt>
      <trkpt lat="48.95757" lon="7.61897">
        <ele>383.8</ele>
        <time>2026-03-10T15:42:31Z</time>
      </trkpt>
      <trkpt lat="48.95755" lon="7.6189">
        <ele>384.7</ele>
        <time>2026-03-10T15:42:36Z</time>
      </trkpt>
      <trkpt lat="48.95754" lon="7.61884">
        <ele>385.2</ele>
        <time>2026-03-10T15:42:41Z</time>
      </trkpt>
      <trkpt lat="48.95754" lon="7.61877">
        <ele>385.4</ele>
        <time>2026-03-10T15:42:46Z</time>
      </trkpt>
      <trkpt lat="48.95755" lon="7.61867">
        <ele>385.3</ele>
        <time>2026-03-10T15:42:51Z</time>
      </trkpt>
      <trkpt lat="48.95755" lon="7.6186">
        <ele>385.4</ele>
        <time>2026-03-10T15:42:56Z</time>
      </trkpt>
      <trkpt lat="48.95751" lon="7.61855">
        <ele>387.1</ele>
        <time>2026-03-10T15:43:01Z</time>
      </trkpt>
      <trkpt lat="48.95749" lon="7.61851">
        <ele>387.7</ele>
        <time>2026-03-10T15:43:06Z</time>
      </trkpt>
      <trkpt lat="48.95749" lon="7.61844">
        <ele>387.8</ele>
        <time>2026-03-10T15:43:11Z</time>
      </trkpt>
      <trkpt lat="48.95748" lon="7.61837">
        <ele>388.1</ele>
        <time>2026-03-10T15:43:16Z</time>
      </trkpt>
      <trkpt lat="48.95746" lon="7.6183">
        <ele>388.6</ele>
        <time>2026-03-10T15:43:21Z</time>
      </trkpt>
      <trkpt lat="48.95746" lon="7.61821">
        <ele>389</ele>
        <time>2026-03-10T15:43:26Z</time>
      </trkpt>
      <trkpt lat="48.95743" lon="7.61815">
        <ele>389.6</ele>
        <time>2026-03-10T15:43:31Z</time>
      </trkpt>
      <trkpt lat="48.95742" lon="7.61811">
        <ele>390</ele>
        <time>2026-03-10T15:43:36Z</time>
      </trkpt>
      <trkpt lat="48.95739" lon="7.61805">
        <ele>390.7</ele>
        <time>2026-03-10T15:43:41Z</time>
      </trkpt>
      <trkpt lat="48.95736" lon="7.618">
        <ele>391.4</ele>
        <time>2026-03-10T15:43:46Z</time>
      </trkpt>
      <trkpt lat="48.95733" lon="7.61794">
        <ele>392.2</ele>
        <time>2026-03-10T15:43:51Z</time>
      </trkpt>
      <trkpt lat="48.95733" lon="7.61787">
        <ele>392.6</ele>
        <time>2026-03-10T15:43:56Z</time>
      </trkpt>
      <trkpt lat="48.95734" lon="7.61783">
        <ele>392.7</ele>
        <time>2026-03-10T15:44:01Z</time>
      </trkpt>
      <trkpt lat="48.95734" lon="7.61778">
        <ele>392.9</ele>
        <time>2026-03-10T15:44:06Z</time>
      </trkpt>
      <trkpt lat="48.95734" lon="7.61778">
        <ele>392.9</ele>
        <time>2026-03-10T15:44:11Z</time>
      </trkpt>
      <trkpt lat="48.95734" lon="7.61778">
        <ele>392.9</ele>
        <time>2026-03-10T15:44:16Z</time>
      </trkpt>
      <trkpt lat="48.95734" lon="7.61778">
        <ele>392.9</ele>
        <time>2026-03-10T15:44:21Z</time>
      </trkpt>
      <trkpt lat="48.95734" lon="7.61778">
        <ele>392.9</ele>
        <time>2026-03-10T15:44:26Z</time>
      </trkpt>
      <trkpt lat="48.95734" lon="7.61778">
        <ele>392.9</ele>
        <time>2026-03-10T15:44:31Z</time>
      </trkpt>
      <trkpt lat="48.95734" lon="7.61778">
        <ele>392.9</ele>
        <time>2026-03-10T15:44:36Z</time>
      </trkpt>
      <trkpt lat="48.95734" lon="7.61778">
        <ele>392.9</ele>
        <time>2026-03-10T15:44:41Z</time>
      </trkpt>
      <trkpt lat="48.95734" lon="7.61778">
        <ele>392.9</ele>
        <time>2026-03-10T15:44:46Z</time>
      </trkpt>
      <trkpt lat="48.95727" lon="7.61785">
        <ele>393.8</ele>
        <time>2026-03-10T15:44:51Z</time>
      </trkpt>
      <trkpt lat="48.95725" lon="7.61782">
        <ele>394.3</ele>
        <time>2026-03-10T15:44:56Z</time>
      </trkpt>
      <trkpt lat="48.95723" lon="7.6178">
        <ele>394.8</ele>
        <time>2026-03-10T15:45:01Z</time>
      </trkpt>
      <trkpt lat="48.95723" lon="7.61769">
        <ele>395.6</ele>
        <time>2026-03-10T15:45:06Z</time>
      </trkpt>
      <trkpt lat="48.95728" lon="7.61756">
        <ele>395.4</ele>
        <time>2026-03-10T15:45:11Z</time>
      </trkpt>
      <trkpt lat="48.95729" lon="7.61745">
        <ele>395.6</ele>
        <time>2026-03-10T15:45:16Z</time>
      </trkpt>
      <trkpt lat="48.95728" lon="7.61735">
        <ele>395.9</ele>
        <time>2026-03-10T15:45:21Z</time>
      </trkpt>
      <trkpt lat="48.95726" lon="7.61731">
        <ele>396.4</ele>
        <time>2026-03-10T15:45:26Z</time>
      </trkpt>
      <trkpt lat="48.95724" lon="7.61725">
        <ele>397</ele>
        <time>2026-03-10T15:45:31Z</time>
      </trkpt>
      <trkpt lat="48.95723" lon="7.61717">
        <ele>397.3</ele>
        <time>2026-03-10T15:45:36Z</time>
      </trkpt>
      <trkpt lat="48.95722" lon="7.6171">
        <ele>397.7</ele>
        <time>2026-03-10T15:45:41Z</time>
      </trkpt>
      <trkpt lat="48.95719" lon="7.61705">
        <ele>398.6</ele>
        <time>2026-03-10T15:45:46Z</time>
      </trkpt>
      <trkpt lat="48.95718" lon="7.617">
        <ele>398.9</ele>
        <time>2026-03-10T15:45:51Z</time>
      </trkpt>
      <trkpt lat="48.95718" lon="7.61692">
        <ele>399.1</ele>
        <time>2026-03-10T15:45:56Z</time>
      </trkpt>
      <trkpt lat="48.95718" lon="7.61689">
        <ele>399.1</ele>
        <time>2026-03-10T15:46:01Z</time>
      </trkpt>
      <trkpt lat="48.95718" lon="7.61683">
        <ele>399.3</ele>
        <time>2026-03-10T15:46:06Z</time>
      </trkpt>
      <trkpt lat="48.95718" lon="7.61677">
        <ele>399.4</ele>
        <time>2026-03-10T15:46:11Z</time>
      </trkpt>
      <trkpt lat="48.95719" lon="7.61668">
        <ele>399.3</ele>
        <time>2026-03-10T15:46:16Z</time>
      </trkpt>
      <trkpt lat="48.95719" lon="7.61662">
        <ele>399.6</ele>
        <time>2026-03-10T15:46:21Z</time>
      </trkpt>
      <trkpt lat="48.95719" lon="7.61653">
        <ele>400.1</ele>
        <time>2026-03-10T15:46:26Z</time>
      </trkpt>
      <trkpt lat="48.95718" lon="7.61649">
        <ele>400.7</ele>
        <time>2026-03-10T15:46:31Z</time>
      </trkpt>
      <trkpt lat="48.95716" lon="7.61646">
        <ele>401.5</ele>
        <time>2026-03-10T15:46:36Z</time>
      </trkpt>
      <trkpt lat="48.95711" lon="7.61643">
        <ele>403.2</ele>
        <time>2026-03-10T15:46:41Z</time>
      </trkpt>
      <trkpt lat="48.95707" lon="7.61639">
        <ele>404.7</ele>
        <time>2026-03-10T15:46:46Z</time>
      </trkpt>
      <trkpt lat="48.95704" lon="7.6164">
        <ele>405.6</ele>
        <time>2026-03-10T15:46:51Z</time>
      </trkpt>
      <trkpt lat="48.95704" lon="7.6164">
        <ele>405.6</ele>
        <time>2026-03-10T15:46:56Z</time>
      </trkpt>
      <trkpt lat="48.95708" lon="7.6163">
        <ele>405</ele>
        <time>2026-03-10T15:47:01Z</time>
      </trkpt>
      <trkpt lat="48.95712" lon="7.61624">
        <ele>404.1</ele>
        <time>2026-03-10T15:47:06Z</time>
      </trkpt>
      <trkpt lat="48.95714" lon="7.61616">
        <ele>404</ele>
        <time>2026-03-10T15:47:11Z</time>
      </trkpt>
      <trkpt lat="48.95718" lon="7.6161">
        <ele>403.1</ele>
        <time>2026-03-10T15:47:16Z</time>
      </trkpt>
      <trkpt lat="48.95719" lon="7.61603">
        <ele>403.2</ele>
        <time>2026-03-10T15:47:21Z</time>
      </trkpt>
      <trkpt lat="48.95722" lon="7.61596">
        <ele>402.6</ele>
        <time>2026-03-10T15:47:26Z</time>
      </trkpt>
      <trkpt lat="48.95724" lon="7.61588">
        <ele>402.5</ele>
        <time>2026-03-10T15:47:31Z</time>
      </trkpt>
      <trkpt lat="48.95726" lon="7.61581">
        <ele>402.5</ele>
        <time>2026-03-10T15:47:36Z</time>
      </trkpt>
      <trkpt lat="48.95726" lon="7.61574">
        <ele>403.6</ele>
        <time>2026-03-10T15:47:41Z</time>
      </trkpt>
      <trkpt lat="48.95726" lon="7.61565">
        <ele>405.1</ele>
        <time>2026-03-10T15:47:46Z</time>
      </trkpt>
      <trkpt lat="48.95721" lon="7.61559">
        <ele>407.7</ele>
        <time>2026-03-10T15:47:51Z</time>
      </trkpt>
      <trkpt lat="48.9572" lon="7.61552">
        <ele>409.2</ele>
        <time>2026-03-10T15:47:56Z</time>
      </trkpt>
      <trkpt lat="48.95718" lon="7.61546">
        <ele>410.8</ele>
        <time>2026-03-10T15:48:01Z</time>
      </trkpt>
      <trkpt lat="48.95717" lon="7.61539">
        <ele>412.2</ele>
        <time>2026-03-10T15:48:06Z</time>
      </trkpt>
      <trkpt lat="48.95718" lon="7.61533">
        <ele>412.9</ele>
        <time>2026-03-10T15:48:11Z</time>
      </trkpt>
      <trkpt lat="48.95723" lon="7.61526">
        <ele>412.5</ele>
        <time>2026-03-10T15:48:16Z</time>
      </trkpt>
      <trkpt lat="48.95725" lon="7.61521">
        <ele>412.7</ele>
        <time>2026-03-10T15:48:21Z</time>
      </trkpt>
      <trkpt lat="48.95725" lon="7.61514">
        <ele>413.9</ele>
        <time>2026-03-10T15:48:26Z</time>
      </trkpt>
      <trkpt lat="48.95722" lon="7.61509">
        <ele>415.6</ele>
        <time>2026-03-10T15:48:31Z</time>
      </trkpt>
      <trkpt lat="48.95721" lon="7.61507">
        <ele>416.2</ele>
        <time>2026-03-10T15:48:36Z</time>
      </trkpt>
      <trkpt lat="48.95722" lon="7.61506">
        <ele>416.1</ele>
        <time>2026-03-10T15:48:41Z</time>
      </trkpt>
      <trkpt lat="48.95721" lon="7.615">
        <ele>417.4</ele>
        <time>2026-03-10T15:48:46Z</time>
      </trkpt>
      <trkpt lat="48.95721" lon="7.61493">
        <ele>418.3</ele>
        <time>2026-03-10T15:48:51Z</time>
      </trkpt>
      <trkpt lat="48.95719" lon="7.61489">
        <ele>419.5</ele>
        <time>2026-03-10T15:48:56Z</time>
      </trkpt>
      <trkpt lat="48.9572" lon="7.61484">
        <ele>419.9</ele>
        <time>2026-03-10T15:49:01Z</time>
      </trkpt>
      <trkpt lat="48.95722" lon="7.61479">
        <ele>420.1</ele>
        <time>2026-03-10T15:49:06Z</time>
      </trkpt>
      <trkpt lat="48.95724" lon="7.61477">
        <ele>419.9</ele>
        <time>2026-03-10T15:49:11Z</time>
      </trkpt>
      <trkpt lat="48.95726" lon="7.61474">
        <ele>419.8</ele>
        <time>2026-03-10T15:49:16Z</time>
      </trkpt>
      <trkpt lat="48.95729" lon="7.61474">
        <ele>419</ele>
        <time>2026-03-10T15:49:21Z</time>
      </trkpt>
      <trkpt lat="48.95733" lon="7.61475">
        <ele>417.8</ele>
        <time>2026-03-10T15:49:26Z</time>
      </trkpt>
      <trkpt lat="48.95737" lon="7.61481">
        <ele>415.8</ele>
        <time>2026-03-10T15:49:31Z</time>
      </trkpt>
      <trkpt lat="48.9574" lon="7.61484">
        <ele>414.6</ele>
        <time>2026-03-10T15:49:36Z</time>
      </trkpt>
      <trkpt lat="48.95742" lon="7.61484">
        <ele>414</ele>
        <time>2026-03-10T15:49:41Z</time>
      </trkpt>
      <trkpt lat="48.95743" lon="7.61489">
        <ele>412.9</ele>
        <time>2026-03-10T15:49:46Z</time>
      </trkpt>
      <trkpt lat="48.95743" lon="7.61493">
        <ele>412.2</ele>
        <time>2026-03-10T15:49:51Z</time>
      </trkpt>
      <trkpt lat="48.95743" lon="7.61493">
        <ele>412.2</ele>
        <time>2026-03-10T15:49:56Z</time>
      </trkpt>
      <trkpt lat="48.95743" lon="7.61493">
        <ele>412.2</ele>
        <time>2026-03-10T15:50:01Z</time>
      </trkpt>
      <trkpt lat="48.95743" lon="7.61493">
        <ele>412.2</ele>
        <time>2026-03-10T15:50:06Z</time>
      </trkpt>
      <trkpt lat="48.9575" lon="7.61506">
        <ele>407.9</ele>
        <time>2026-03-10T15:50:11Z</time>
      </trkpt>
      <trkpt lat="48.95754" lon="7.61509">
        <ele>406.7</ele>
        <time>2026-03-10T15:50:16Z</time>
      </trkpt>
      <trkpt lat="48.95757" lon="7.6151">
        <ele>405.9</ele>
        <time>2026-03-10T15:50:21Z</time>
      </trkpt>
      <trkpt lat="48.95759" lon="7.61509">
        <ele>405.8</ele>
        <time>2026-03-10T15:50:26Z</time>
      </trkpt>
      <trkpt lat="48.95759" lon="7.61509">
        <ele>405.8</ele>
        <time>2026-03-10T15:50:31Z</time>
      </trkpt>
      <trkpt lat="48.95759" lon="7.61509">
        <ele>405.8</ele>
        <time>2026-03-10T15:50:36Z</time>
      </trkpt>
      <trkpt lat="48.95764" lon="7.61509">
        <ele>404.9</ele>
        <time>2026-03-10T15:50:41Z</time>
      </trkpt>
      <trkpt lat="48.95768" lon="7.61508">
        <ele>404.3</ele>
        <time>2026-03-10T15:50:46Z</time>
      </trkpt>
      <trkpt lat="48.95771" lon="7.61512">
        <ele>403</ele>
        <time>2026-03-10T15:50:51Z</time>
      </trkpt>
      <trkpt lat="48.95773" lon="7.61516">
        <ele>401.8</ele>
        <time>2026-03-10T15:50:56Z</time>
      </trkpt>
      <trkpt lat="48.95776" lon="7.61521">
        <ele>400.1</ele>
        <time>2026-03-10T15:51:01Z</time>
      </trkpt>
      <trkpt lat="48.95779" lon="7.61521">
        <ele>399.6</ele>
        <time>2026-03-10T15:51:06Z</time>
      </trkpt>
      <trkpt lat="48.95784" lon="7.61521">
        <ele>398.6</ele>
        <time>2026-03-10T15:51:11Z</time>
      </trkpt>
      <trkpt lat="48.95787" lon="7.6152">
        <ele>398.2</ele>
        <time>2026-03-10T15:51:16Z</time>
      </trkpt>
      <trkpt lat="48.95791" lon="7.61521">
        <ele>397.2</ele>
        <time>2026-03-10T15:51:21Z</time>
      </trkpt>
      <trkpt lat="48.95794" lon="7.61523">
        <ele>396.2</ele>
        <time>2026-03-10T15:51:26Z</time>
      </trkpt>
      <trkpt lat="48.95797" lon="7.61524">
        <ele>395.3</ele>
        <time>2026-03-10T15:51:31Z</time>
      </trkpt>
      <trkpt lat="48.95799" lon="7.61527">
        <ele>394.2</ele>
        <time>2026-03-10T15:51:36Z</time>
      </trkpt>
      <trkpt lat="48.95801" lon="7.61527">
        <ele>393.8</ele>
        <time>2026-03-10T15:51:41Z</time>
      </trkpt>
      <trkpt lat="48.95802" lon="7.61528">
        <ele>393.3</ele>
        <time>2026-03-10T15:51:46Z</time>
      </trkpt>
      <trkpt lat="48.95802" lon="7.61529">
        <ele>393.1</ele>
        <time>2026-03-10T15:51:51Z</time>
      </trkpt>
      <trkpt lat="48.95809" lon="7.61534">
        <ele>390.4</ele>
        <time>2026-03-10T15:51:56Z</time>
      </trkpt>
      <trkpt lat="48.95812" lon="7.61538">
        <ele>388.7</ele>
        <time>2026-03-10T15:52:01Z</time>
      </trkpt>
      <trkpt lat="48.95814" lon="7.61543">
        <ele>386.9</ele>
        <time>2026-03-10T15:52:06Z</time>
      </trkpt>
      <trkpt lat="48.95817" lon="7.61546">
        <ele>385.5</ele>
        <time>2026-03-10T15:52:11Z</time>
      </trkpt>
      <trkpt lat="48.95818" lon="7.61546">
        <ele>385.2</ele>
        <time>2026-03-10T15:52:16Z</time>
      </trkpt>
      <trkpt lat="48.95818" lon="7.61546">
        <ele>385.2</ele>
        <time>2026-03-10T15:52:21Z</time>
      </trkpt>
      <trkpt lat="48.95825" lon="7.61551">
        <ele>382.3</ele>
        <time>2026-03-10T15:52:26Z</time>
      </trkpt>
      <trkpt lat="48.95828" lon="7.61553">
        <ele>381</ele>
        <time>2026-03-10T15:52:31Z</time>
      </trkpt>
      <trkpt lat="48.95828" lon="7.61553">
        <ele>381</ele>
        <time>2026-03-10T15:52:36Z</time>
      </trkpt>
      <trkpt lat="48.95828" lon="7.61553">
        <ele>381</ele>
        <time>2026-03-10T15:52:41Z</time>
      </trkpt>
      <trkpt lat="48.95828" lon="7.61553">
        <ele>381</ele>
        <time>2026-03-10T15:52:46Z</time>
      </trkpt>
      <trkpt lat="48.95828" lon="7.61553">
        <ele>381</ele>
        <time>2026-03-10T15:52:51Z</time>
      </trkpt>
      <trkpt lat="48.95828" lon="7.61553">
        <ele>381</ele>
        <time>2026-03-10T15:52:56Z</time>
      </trkpt>
      <trkpt lat="48.95828" lon="7.61553">
        <ele>381</ele>
        <time>2026-03-10T15:53:01Z</time>
      </trkpt>
      <trkpt lat="48.95828" lon="7.61553">
        <ele>381</ele>
        <time>2026-03-10T15:53:06Z</time>
      </trkpt>
      <trkpt lat="48.95828" lon="7.61553">
        <ele>381</ele>
        <time>2026-03-10T15:53:11Z</time>
      </trkpt>
      <trkpt lat="48.95828" lon="7.61553">
        <ele>381</ele>
        <time>2026-03-10T15:53:16Z</time>
      </trkpt>
      <trkpt lat="48.95828" lon="7.61553">
        <ele>381</ele>
        <time>2026-03-10T15:53:21Z</time>
      </trkpt>
      <trkpt lat="48.95828" lon="7.61553">
        <ele>381</ele>
        <time>2026-03-10T15:53:26Z</time>
      </trkpt>
      <trkpt lat="48.95828" lon="7.61553">
        <ele>381</ele>
        <time>2026-03-10T15:53:31Z</time>
      </trkpt>
      <trkpt lat="48.95828" lon="7.61553">
        <ele>381</ele>
        <time>2026-03-10T15:53:36Z</time>
      </trkpt>
      <trkpt lat="48.95828" lon="7.61553">
        <ele>381</ele>
        <time>2026-03-10T15:53:41Z</time>
      </trkpt>
      <trkpt lat="48.95839" lon="7.61554">
        <ele>380.9</ele>
        <time>2026-03-10T15:53:46Z</time>
      </trkpt>
      <trkpt lat="48.95844" lon="7.61559">
        <ele>380.8</ele>
        <time>2026-03-10T15:53:51Z</time>
      </trkpt>
      <trkpt lat="48.95847" lon="7.61562">
        <ele>380.7</ele>
        <time>2026-03-10T15:53:56Z</time>
      </trkpt>
      <trkpt lat="48.95851" lon="7.61563">
        <ele>381.4</ele>
        <time>2026-03-10T15:54:01Z</time>
      </trkpt>
      <trkpt lat="48.95855" lon="7.61565">
        <ele>381.9</ele>
        <time>2026-03-10T15:54:06Z</time>
      </trkpt>
      <trkpt lat="48.95858" lon="7.61568">
        <ele>381.7</ele>
        <time>2026-03-10T15:54:11Z</time>
      </trkpt>
      <trkpt lat="48.95862" lon="7.61572">
        <ele>381.6</ele>
        <time>2026-03-10T15:54:16Z</time>
      </trkpt>
      <trkpt lat="48.95866" lon="7.61575">
        <ele>381.7</ele>
        <time>2026-03-10T15:54:21Z</time>
      </trkpt>
      <trkpt lat="48.95869" lon="7.61578">
        <ele>381.6</ele>
        <time>2026-03-10T15:54:26Z</time>
      </trkpt>
      <trkpt lat="48.95872" lon="7.61582">
        <ele>381.1</ele>
        <time>2026-03-10T15:54:31Z</time>
      </trkpt>
      <trkpt lat="48.95875" lon="7.61583">
        <ele>381.6</ele>
        <time>2026-03-10T15:54:36Z</time>
      </trkpt>
      <trkpt lat="48.95877" lon="7.61584">
        <ele>381.8</ele>
        <time>2026-03-10T15:54:41Z</time>
      </trkpt>
      <trkpt lat="48.95881" lon="7.61586">
        <ele>382.4</ele>
        <time>2026-03-10T15:54:46Z</time>
      </trkpt>
      <trkpt lat="48.95883" lon="7.61588">
        <ele>382.4</ele>
        <time>2026-03-10T15:54:51Z</time>
      </trkpt>
      <trkpt lat="48.95886" lon="7.61589">
        <ele>382.8</ele>
        <time>2026-03-10T15:54:56Z</time>
      </trkpt>
      <trkpt lat="48.9589" lon="7.6159">
        <ele>383.5</ele>
        <time>2026-03-10T15:55:01Z</time>
      </trkpt>
      <trkpt lat="48.95892" lon="7.61591">
        <ele>383.7</ele>
        <time>2026-03-10T15:55:06Z</time>
      </trkpt>
      <trkpt lat="48.95895" lon="7.61592">
        <ele>384.2</ele>
        <time>2026-03-10T15:55:11Z</time>
      </trkpt>
      <trkpt lat="48.95897" lon="7.61593">
        <ele>384.4</ele>
        <time>2026-03-10T15:55:16Z</time>
      </trkpt>
      <trkpt lat="48.959" lon="7.61592">
        <ele>385.3</ele>
        <time>2026-03-10T15:55:21Z</time>
      </trkpt>
      <trkpt lat="48.95902" lon="7.61594">
        <ele>385.2</ele>
        <time>2026-03-10T15:55:26Z</time>
      </trkpt>
      <trkpt lat="48.95905" lon="7.61596">
        <ele>385.3</ele>
        <time>2026-03-10T15:55:31Z</time>
      </trkpt>
      <trkpt lat="48.95908" lon="7.61596">
        <ele>386</ele>
        <time>2026-03-10T15:55:36Z</time>
      </trkpt>
      <trkpt lat="48.9591" lon="7.61596">
        <ele>386.4</ele>
        <time>2026-03-10T15:55:41Z</time>
      </trkpt>
      <trkpt lat="48.95913" lon="7.61596">
        <ele>387.1</ele>
        <time>2026-03-10T15:55:46Z</time>
      </trkpt>
      <trkpt lat="48.95913" lon="7.61598">
        <ele>386.4</ele>
        <time>2026-03-10T15:55:51Z</time>
      </trkpt>
      <trkpt lat="48.95913" lon="7.61598">
        <ele>386.4</ele>
        <time>2026-03-10T15:55:56Z</time>
      </trkpt>
      <trkpt lat="48.95917" lon="7.61603">
        <ele>385.7</ele>
        <time>2026-03-10T15:56:01Z</time>
      </trkpt>
      <trkpt lat="48.95917" lon="7.61603">
        <ele>385.7</ele>
        <time>2026-03-10T15:56:06Z</time>
      </trkpt>
      <trkpt lat="48.95917" lon="7.61603">
        <ele>385.7</ele>
        <time>2026-03-10T15:56:11Z</time>
      </trkpt>
      <trkpt lat="48.95917" lon="7.61603">
        <ele>385.7</ele>
        <time>2026-03-10T15:56:16Z</time>
      </trkpt>
      <trkpt lat="48.95927" lon="7.61609">
        <ele>387.3</ele>
        <time>2026-03-10T15:56:21Z</time>
      </trkpt>
      <trkpt lat="48.9593" lon="7.61612">
        <ele>387.3</ele>
        <time>2026-03-10T15:56:26Z</time>
      </trkpt>
      <trkpt lat="48.95933" lon="7.61613">
        <ele>388</ele>
        <time>2026-03-10T15:56:31Z</time>
      </trkpt>
      <trkpt lat="48.95937" lon="7.61614">
        <ele>389.1</ele>
        <time>2026-03-10T15:56:36Z</time>
      </trkpt>
      <trkpt lat="48.95939" lon="7.61619">
        <ele>388.1</ele>
        <time>2026-03-10T15:56:41Z</time>
      </trkpt>
      <trkpt lat="48.95942" lon="7.6162">
        <ele>388.7</ele>
        <time>2026-03-10T15:56:46Z</time>
      </trkpt>
      <trkpt lat="48.95945" lon="7.61619">
        <ele>390.1</ele>
        <time>2026-03-10T15:56:51Z</time>
      </trkpt>
      <trkpt lat="48.95949" lon="7.6162">
        <ele>391.1</ele>
        <time>2026-03-10T15:56:56Z</time>
      </trkpt>
      <trkpt lat="48.95953" lon="7.61622">
        <ele>391.8</ele>
        <time>2026-03-10T15:57:01Z</time>
      </trkpt>
      <trkpt lat="48.95955" lon="7.61624">
        <ele>391.7</ele>
        <time>2026-03-10T15:57:06Z</time>
      </trkpt>
      <trkpt lat="48.95958" lon="7.61628">
        <ele>391.3</ele>
        <time>2026-03-10T15:57:11Z</time>
      </trkpt>
      <trkpt lat="48.95961" lon="7.6163">
        <ele>391.6</ele>
        <time>2026-03-10T15:57:16Z</time>
      </trkpt>
      <trkpt lat="48.95966" lon="7.6163">
        <ele>393.2</ele>
        <time>2026-03-10T15:57:21Z</time>
      </trkpt>
      <trkpt lat="48.95969" lon="7.61632">
        <ele>393.5</ele>
        <time>2026-03-10T15:57:26Z</time>
      </trkpt>
      <trkpt lat="48.95971" lon="7.61633">
        <ele>393.8</ele>
        <time>2026-03-10T15:57:31Z</time>
      </trkpt>
      <trkpt lat="48.95973" lon="7.61634">
        <ele>394.1</ele>
        <time>2026-03-10T15:57:36Z</time>
      </trkpt>
      <trkpt lat="48.95975" lon="7.61635">
        <ele>394.4</ele>
        <time>2026-03-10T15:57:41Z</time>
      </trkpt>
      <trkpt lat="48.95978" lon="7.61636">
        <ele>395</ele>
        <time>2026-03-10T15:57:46Z</time>
      </trkpt>
      <trkpt lat="48.9598" lon="7.61638">
        <ele>394.9</ele>
        <time>2026-03-10T15:57:51Z</time>
      </trkpt>
      <trkpt lat="48.95983" lon="7.61639">
        <ele>395.4</ele>
        <time>2026-03-10T15:57:56Z</time>
      </trkpt>
      <trkpt lat="48.95984" lon="7.6164">
        <ele>395.4</ele>
        <time>2026-03-10T15:58:01Z</time>
      </trkpt>
      <trkpt lat="48.95988" lon="7.6164">
        <ele>396.7</ele>
        <time>2026-03-10T15:58:06Z</time>
      </trkpt>
      <trkpt lat="48.95992" lon="7.61639">
        <ele>398.4</ele>
        <time>2026-03-10T15:58:11Z</time>
      </trkpt>
      <trkpt lat="48.95996" lon="7.61638">
        <ele>400.1</ele>
        <time>2026-03-10T15:58:16Z</time>
      </trkpt>
      <trkpt lat="48.95999" lon="7.61638">
        <ele>401</ele>
        <time>2026-03-10T15:58:21Z</time>
      </trkpt>
      <trkpt lat="48.96001" lon="7.61642">
        <ele>400.1</ele>
        <time>2026-03-10T15:58:26Z</time>
      </trkpt>
      <trkpt lat="48.96002" lon="7.61646">
        <ele>398.8</ele>
        <time>2026-03-10T15:58:31Z</time>
      </trkpt>
      <trkpt lat="48.96003" lon="7.61646">
        <ele>399.2</ele>
        <time>2026-03-10T15:58:36Z</time>
      </trkpt>
      <trkpt lat="48.96003" lon="7.61646">
        <ele>399.2</ele>
        <time>2026-03-10T15:58:41Z</time>
      </trkpt>
      <trkpt lat="48.96003" lon="7.61646">
        <ele>399.2</ele>
        <time>2026-03-10T15:58:46Z</time>
      </trkpt>
      <trkpt lat="48.96003" lon="7.61646">
        <ele>399.2</ele>
        <time>2026-03-10T15:58:51Z</time>
      </trkpt>
      <trkpt lat="48.96011" lon="7.61641">
        <ele>403.7</ele>
        <time>2026-03-10T15:58:56Z</time>
      </trkpt>
      <trkpt lat="48.9601" lon="7.61641">
        <ele>403.4</ele>
        <time>2026-03-10T15:59:01Z</time>
      </trkpt>
      <trkpt lat="48.9601" lon="7.61641">
        <ele>403.4</ele>
        <time>2026-03-10T15:59:06Z</time>
      </trkpt>
      <trkpt lat="48.96009" lon="7.61646">
        <ele>401.2</ele>
        <time>2026-03-10T15:59:11Z</time>
      </trkpt>
      <trkpt lat="48.96012" lon="7.6165">
        <ele>400.7</ele>
        <time>2026-03-10T15:59:16Z</time>
      </trkpt>
      <trkpt lat="48.96015" lon="7.61651">
        <ele>401.3</ele>
        <time>2026-03-10T15:59:21Z</time>
      </trkpt>
      <trkpt lat="48.96017" lon="7.61654">
        <ele>400.9</ele>
        <time>2026-03-10T15:59:26Z</time>
      </trkpt>
      <trkpt lat="48.96019" lon="7.61657">
        <ele>400.5</ele>
        <time>2026-03-10T15:59:31Z</time>
      </trkpt>
      <trkpt lat="48.96023" lon="7.61657">
        <ele>401.9</ele>
        <time>2026-03-10T15:59:36Z</time>
      </trkpt>
      <trkpt lat="48.96028" lon="7.61656">
        <ele>404</ele>
        <time>2026-03-10T15:59:41Z</time>
      </trkpt>
      <trkpt lat="48.96031" lon="7.61659">
        <ele>404.1</ele>
        <time>2026-03-10T15:59:46Z</time>
      </trkpt>
      <trkpt lat="48.96034" lon="7.61659">
        <ele>405.2</ele>
        <time>2026-03-10T15:59:51Z</time>
      </trkpt>
      <trkpt lat="48.96035" lon="7.61657">
        <ele>406.2</ele>
        <time>2026-03-10T15:59:56Z</time>
      </trkpt>
      <trkpt lat="48.96035" lon="7.61657">
        <ele>406.2</ele>
        <time>2026-03-10T16:00:01Z</time>
      </trkpt>
      <trkpt lat="48.96035" lon="7.61657">
        <ele>406.2</ele>
        <time>2026-03-10T16:00:06Z</time>
      </trkpt>
      <trkpt lat="48.96035" lon="7.61657">
        <ele>406.2</ele>
        <time>2026-03-10T16:00:11Z</time>
      </trkpt>
      <trkpt lat="48.96035" lon="7.61657">
        <ele>406.2</ele>
        <time>2026-03-10T16:00:16Z</time>
      </trkpt>
      <trkpt lat="48.96035" lon="7.61657">
        <ele>406.2</ele>
        <time>2026-03-10T16:00:21Z</time>
      </trkpt>
      <trkpt lat="48.96035" lon="7.61657">
        <ele>406.2</ele>
        <time>2026-03-10T16:00:26Z</time>
      </trkpt>
      <trkpt lat="48.96041" lon="7.61654">
        <ele>409.2</ele>
        <time>2026-03-10T16:00:31Z</time>
      </trkpt>
      <trkpt lat="48.96043" lon="7.61665">
        <ele>406.5</ele>
        <time>2026-03-10T16:00:36Z</time>
      </trkpt>
      <trkpt lat="48.96046" lon="7.61673">
        <ele>405</ele>
        <time>2026-03-10T16:00:41Z</time>
      </trkpt>
      <trkpt lat="48.96048" lon="7.61675">
        <ele>405.1</ele>
        <time>2026-03-10T16:00:46Z</time>
      </trkpt>
      <trkpt lat="48.96049" lon="7.61677">
        <ele>404.8</ele>
        <time>2026-03-10T16:00:51Z</time>
      </trkpt>
      <trkpt lat="48.96049" lon="7.61677">
        <ele>404.8</ele>
        <time>2026-03-10T16:00:56Z</time>
      </trkpt>
      <trkpt lat="48.96049" lon="7.61677">
        <ele>404.8</ele>
        <time>2026-03-10T16:01:01Z</time>
      </trkpt>
      <trkpt lat="48.9605" lon="7.61676">
        <ele>405.5</ele>
        <time>2026-03-10T16:01:06Z</time>
      </trkpt>
      <trkpt lat="48.9605" lon="7.61676">
        <ele>405.5</ele>
        <time>2026-03-10T16:01:11Z</time>
      </trkpt>
      <trkpt lat="48.9605" lon="7.61676">
        <ele>405.5</ele>
        <time>2026-03-10T16:01:16Z</time>
      </trkpt>
      <trkpt lat="48.9605" lon="7.61676">
        <ele>405.5</ele>
        <time>2026-03-10T16:01:21Z</time>
      </trkpt>
    </trkseg>
  </trk>
</gpx>